<?xml version="1.0"?>
<gpx xmlns="http://www.topografix.com/GPX/1/1" xmlns:xsi="http://www.w3.org/2001/XMLSchema-instance" version="1.1" creator="GPX RubyGem 1.0.0 -- http://dougfales.github.io/gpx/" xsi:schemaLocation="http://www.topografix.com/GPX/1/1 http://www.topografix.com/GPX/1/1/gpx.xsd">
  <metadata>
    <name/>
    <time>2026-05-08T16:53:27+00:00</time>
    <bound minlat="90.0" minlon="180.0" maxlat="-90.0" maxlon="-180.0"/>
  </metadata>
  <trk>
    <name/>
    <trkseg>
      <trkpt lat="44.32207" lon="6.8596">
        <time>2023-04-10T06:03:35+00:00</time>
        <ele>1858.0</ele>
      </trkpt>
      <trkpt lat="44.32207" lon="6.8596">
        <time>2023-04-10T06:03:44+00:00</time>
        <ele>1858.0</ele>
      </trkpt>
      <trkpt lat="44.32207" lon="6.8596">
        <time>2023-04-10T06:03:45+00:00</time>
        <ele>1858.0</ele>
      </trkpt>
      <trkpt lat="44.32207" lon="6.8596">
        <time>2023-04-10T06:03:46+00:00</time>
        <ele>1858.0</ele>
      </trkpt>
      <trkpt lat="44.32207" lon="6.8596">
        <time>2023-04-10T06:03:47+00:00</time>
        <ele>1858.0</ele>
      </trkpt>
      <trkpt lat="44.32207" lon="6.8596">
        <time>2023-04-10T06:03:48+00:00</time>
        <ele>1858.0</ele>
      </trkpt>
      <trkpt lat="44.32207" lon="6.8596">
        <time>2023-04-10T06:03:49+00:00</time>
        <ele>1858.0</ele>
      </trkpt>
      <trkpt lat="44.32207" lon="6.8596">
        <time>2023-04-10T06:03:50+00:00</time>
        <ele>1858.0</ele>
      </trkpt>
      <trkpt lat="44.32207" lon="6.8596">
        <time>2023-04-10T06:03:51+00:00</time>
        <ele>1858.0</ele>
      </trkpt>
      <trkpt lat="44.32207" lon="6.8596">
        <time>2023-04-10T06:03:52+00:00</time>
        <ele>1858.0</ele>
      </trkpt>
      <trkpt lat="44.32207" lon="6.8596">
        <time>2023-04-10T06:03:53+00:00</time>
        <ele>1858.0</ele>
      </trkpt>
      <trkpt lat="44.32207" lon="6.8596">
        <time>2023-04-10T06:03:54+00:00</time>
        <ele>1858.0</ele>
      </trkpt>
      <trkpt lat="44.32207" lon="6.8596">
        <time>2023-04-10T06:03:55+00:00</time>
        <ele>1858.0</ele>
      </trkpt>
      <trkpt lat="44.32207" lon="6.8596">
        <time>2023-04-10T06:03:56+00:00</time>
        <ele>1858.0</ele>
      </trkpt>
      <trkpt lat="44.32207" lon="6.8596">
        <time>2023-04-10T06:03:57+00:00</time>
        <ele>1858.0</ele>
      </trkpt>
      <trkpt lat="44.32207" lon="6.8596">
        <time>2023-04-10T06:03:58+00:00</time>
        <ele>1858.0</ele>
      </trkpt>
      <trkpt lat="44.32207" lon="6.8596">
        <time>2023-04-10T06:03:59+00:00</time>
        <ele>1858.0</ele>
      </trkpt>
      <trkpt lat="44.32207" lon="6.8596">
        <time>2023-04-10T06:04:00+00:00</time>
        <ele>1858.0</ele>
      </trkpt>
      <trkpt lat="44.32207" lon="6.8596">
        <time>2023-04-10T06:04:01+00:00</time>
        <ele>1858.0</ele>
      </trkpt>
      <trkpt lat="44.32207" lon="6.8596">
        <time>2023-04-10T06:04:02+00:00</time>
        <ele>1858.0</ele>
      </trkpt>
      <trkpt lat="44.32207" lon="6.8596">
        <time>2023-04-10T06:04:03+00:00</time>
        <ele>1858.0</ele>
      </trkpt>
      <trkpt lat="44.32207" lon="6.8596">
        <time>2023-04-10T06:04:04+00:00</time>
        <ele>1858.0</ele>
      </trkpt>
      <trkpt lat="44.32207" lon="6.8596">
        <time>2023-04-10T06:04:05+00:00</time>
        <ele>1858.0</ele>
      </trkpt>
      <trkpt lat="44.32208" lon="6.8596">
        <time>2023-04-10T06:04:06+00:00</time>
        <ele>1858.0</ele>
      </trkpt>
      <trkpt lat="44.32208" lon="6.8596">
        <time>2023-04-10T06:04:07+00:00</time>
        <ele>1858.0</ele>
      </trkpt>
      <trkpt lat="44.32208" lon="6.8596">
        <time>2023-04-10T06:04:08+00:00</time>
        <ele>1858.0</ele>
      </trkpt>
      <trkpt lat="44.32208" lon="6.8596">
        <time>2023-04-10T06:04:09+00:00</time>
        <ele>1858.0</ele>
      </trkpt>
      <trkpt lat="44.32208" lon="6.8596">
        <time>2023-04-10T06:04:10+00:00</time>
        <ele>1858.0</ele>
      </trkpt>
      <trkpt lat="44.32208" lon="6.8596">
        <time>2023-04-10T06:04:11+00:00</time>
        <ele>1858.0</ele>
      </trkpt>
      <trkpt lat="44.32208" lon="6.8596">
        <time>2023-04-10T06:04:12+00:00</time>
        <ele>1858.0</ele>
      </trkpt>
      <trkpt lat="44.32208" lon="6.8596">
        <time>2023-04-10T06:04:13+00:00</time>
        <ele>1858.0</ele>
      </trkpt>
      <trkpt lat="44.32209" lon="6.8596">
        <time>2023-04-10T06:04:14+00:00</time>
        <ele>1859.0</ele>
      </trkpt>
      <trkpt lat="44.32209" lon="6.8596">
        <time>2023-04-10T06:04:15+00:00</time>
        <ele>1859.0</ele>
      </trkpt>
      <trkpt lat="44.32209" lon="6.8596">
        <time>2023-04-10T06:04:16+00:00</time>
        <ele>1859.0</ele>
      </trkpt>
      <trkpt lat="44.32209" lon="6.8596">
        <time>2023-04-10T06:04:17+00:00</time>
        <ele>1859.0</ele>
      </trkpt>
      <trkpt lat="44.32209" lon="6.8596">
        <time>2023-04-10T06:04:18+00:00</time>
        <ele>1859.0</ele>
      </trkpt>
      <trkpt lat="44.32209" lon="6.8596">
        <time>2023-04-10T06:04:19+00:00</time>
        <ele>1859.0</ele>
      </trkpt>
      <trkpt lat="44.32209" lon="6.8596">
        <time>2023-04-10T06:04:20+00:00</time>
        <ele>1859.0</ele>
      </trkpt>
      <trkpt lat="44.32209" lon="6.8596">
        <time>2023-04-10T06:04:21+00:00</time>
        <ele>1859.0</ele>
      </trkpt>
      <trkpt lat="44.32209" lon="6.8596">
        <time>2023-04-10T06:04:22+00:00</time>
        <ele>1859.0</ele>
      </trkpt>
      <trkpt lat="44.32209" lon="6.8596">
        <time>2023-04-10T06:04:23+00:00</time>
        <ele>1859.0</ele>
      </trkpt>
      <trkpt lat="44.32221" lon="6.85966">
        <time>2023-04-10T06:04:24+00:00</time>
        <ele>1865.0</ele>
      </trkpt>
      <trkpt lat="44.32221" lon="6.85966">
        <time>2023-04-10T06:04:25+00:00</time>
        <ele>1865.0</ele>
      </trkpt>
      <trkpt lat="44.32221" lon="6.85966">
        <time>2023-04-10T06:04:26+00:00</time>
        <ele>1865.0</ele>
      </trkpt>
      <trkpt lat="44.32221" lon="6.85966">
        <time>2023-04-10T06:04:27+00:00</time>
        <ele>1865.0</ele>
      </trkpt>
      <trkpt lat="44.32221" lon="6.85966">
        <time>2023-04-10T06:04:28+00:00</time>
        <ele>1865.0</ele>
      </trkpt>
      <trkpt lat="44.32221" lon="6.85966">
        <time>2023-04-10T06:04:29+00:00</time>
        <ele>1865.0</ele>
      </trkpt>
      <trkpt lat="44.32221" lon="6.85966">
        <time>2023-04-10T06:04:30+00:00</time>
        <ele>1865.0</ele>
      </trkpt>
      <trkpt lat="44.32221" lon="6.85966">
        <time>2023-04-10T06:04:31+00:00</time>
        <ele>1865.0</ele>
      </trkpt>
      <trkpt lat="44.32221" lon="6.85966">
        <time>2023-04-10T06:04:32+00:00</time>
        <ele>1865.0</ele>
      </trkpt>
      <trkpt lat="44.32221" lon="6.85966">
        <time>2023-04-10T06:04:33+00:00</time>
        <ele>1865.0</ele>
      </trkpt>
      <trkpt lat="44.32221" lon="6.85966">
        <time>2023-04-10T06:04:34+00:00</time>
        <ele>1865.0</ele>
      </trkpt>
      <trkpt lat="44.32221" lon="6.85966">
        <time>2023-04-10T06:04:35+00:00</time>
        <ele>1865.0</ele>
      </trkpt>
      <trkpt lat="44.32221" lon="6.85966">
        <time>2023-04-10T06:04:36+00:00</time>
        <ele>1865.0</ele>
      </trkpt>
      <trkpt lat="44.32221" lon="6.85966">
        <time>2023-04-10T06:04:37+00:00</time>
        <ele>1865.0</ele>
      </trkpt>
      <trkpt lat="44.32221" lon="6.85966">
        <time>2023-04-10T06:04:38+00:00</time>
        <ele>1865.0</ele>
      </trkpt>
      <trkpt lat="44.32221" lon="6.85966">
        <time>2023-04-10T06:04:39+00:00</time>
        <ele>1865.0</ele>
      </trkpt>
      <trkpt lat="44.32221" lon="6.85966">
        <time>2023-04-10T06:04:40+00:00</time>
        <ele>1865.0</ele>
      </trkpt>
      <trkpt lat="44.32221" lon="6.85966">
        <time>2023-04-10T06:04:41+00:00</time>
        <ele>1865.0</ele>
      </trkpt>
      <trkpt lat="44.32221" lon="6.85966">
        <time>2023-04-10T06:04:42+00:00</time>
        <ele>1865.0</ele>
      </trkpt>
      <trkpt lat="44.32221" lon="6.85966">
        <time>2023-04-10T06:04:43+00:00</time>
        <ele>1865.0</ele>
      </trkpt>
      <trkpt lat="44.32221" lon="6.85966">
        <time>2023-04-10T06:04:44+00:00</time>
        <ele>1865.0</ele>
      </trkpt>
      <trkpt lat="44.32221" lon="6.85966">
        <time>2023-04-10T06:04:45+00:00</time>
        <ele>1865.0</ele>
      </trkpt>
      <trkpt lat="44.32221" lon="6.85966">
        <time>2023-04-10T06:04:46+00:00</time>
        <ele>1865.0</ele>
      </trkpt>
      <trkpt lat="44.32221" lon="6.85966">
        <time>2023-04-10T06:04:47+00:00</time>
        <ele>1865.0</ele>
      </trkpt>
      <trkpt lat="44.32221" lon="6.85966">
        <time>2023-04-10T06:04:48+00:00</time>
        <ele>1865.0</ele>
      </trkpt>
      <trkpt lat="44.32221" lon="6.85966">
        <time>2023-04-10T06:04:49+00:00</time>
        <ele>1865.0</ele>
      </trkpt>
      <trkpt lat="44.32221" lon="6.85966">
        <time>2023-04-10T06:04:50+00:00</time>
        <ele>1865.0</ele>
      </trkpt>
      <trkpt lat="44.32221" lon="6.85966">
        <time>2023-04-10T06:04:51+00:00</time>
        <ele>1865.0</ele>
      </trkpt>
      <trkpt lat="44.32221" lon="6.85966">
        <time>2023-04-10T06:04:52+00:00</time>
        <ele>1865.0</ele>
      </trkpt>
      <trkpt lat="44.32221" lon="6.85966">
        <time>2023-04-10T06:04:53+00:00</time>
        <ele>1865.0</ele>
      </trkpt>
      <trkpt lat="44.32221" lon="6.85966">
        <time>2023-04-10T06:04:54+00:00</time>
        <ele>1865.0</ele>
      </trkpt>
      <trkpt lat="44.32221" lon="6.85966">
        <time>2023-04-10T06:04:55+00:00</time>
        <ele>1865.0</ele>
      </trkpt>
      <trkpt lat="44.32221" lon="6.85966">
        <time>2023-04-10T06:04:56+00:00</time>
        <ele>1865.0</ele>
      </trkpt>
      <trkpt lat="44.32221" lon="6.85966">
        <time>2023-04-10T06:04:57+00:00</time>
        <ele>1865.0</ele>
      </trkpt>
      <trkpt lat="44.32221" lon="6.85966">
        <time>2023-04-10T06:04:58+00:00</time>
        <ele>1865.0</ele>
      </trkpt>
      <trkpt lat="44.32221" lon="6.85966">
        <time>2023-04-10T06:04:59+00:00</time>
        <ele>1865.0</ele>
      </trkpt>
      <trkpt lat="44.32221" lon="6.85966">
        <time>2023-04-10T06:05:00+00:00</time>
        <ele>1865.0</ele>
      </trkpt>
      <trkpt lat="44.32221" lon="6.85966">
        <time>2023-04-10T06:05:01+00:00</time>
        <ele>1865.0</ele>
      </trkpt>
      <trkpt lat="44.32221" lon="6.85966">
        <time>2023-04-10T06:05:02+00:00</time>
        <ele>1865.0</ele>
      </trkpt>
      <trkpt lat="44.32221" lon="6.85966">
        <time>2023-04-10T06:05:03+00:00</time>
        <ele>1865.0</ele>
      </trkpt>
      <trkpt lat="44.32221" lon="6.85966">
        <time>2023-04-10T06:05:04+00:00</time>
        <ele>1865.0</ele>
      </trkpt>
      <trkpt lat="44.32221" lon="6.85966">
        <time>2023-04-10T06:05:05+00:00</time>
        <ele>1865.0</ele>
      </trkpt>
      <trkpt lat="44.32221" lon="6.85966">
        <time>2023-04-10T06:05:06+00:00</time>
        <ele>1865.0</ele>
      </trkpt>
      <trkpt lat="44.32221" lon="6.85966">
        <time>2023-04-10T06:05:07+00:00</time>
        <ele>1865.0</ele>
      </trkpt>
      <trkpt lat="44.32221" lon="6.85966">
        <time>2023-04-10T06:05:08+00:00</time>
        <ele>1865.0</ele>
      </trkpt>
      <trkpt lat="44.32221" lon="6.85966">
        <time>2023-04-10T06:05:09+00:00</time>
        <ele>1865.0</ele>
      </trkpt>
      <trkpt lat="44.32221" lon="6.85966">
        <time>2023-04-10T06:05:10+00:00</time>
        <ele>1865.0</ele>
      </trkpt>
      <trkpt lat="44.32221" lon="6.85966">
        <time>2023-04-10T06:05:11+00:00</time>
        <ele>1865.0</ele>
      </trkpt>
      <trkpt lat="44.32221" lon="6.85966">
        <time>2023-04-10T06:05:12+00:00</time>
        <ele>1865.0</ele>
      </trkpt>
      <trkpt lat="44.32221" lon="6.85966">
        <time>2023-04-10T06:05:13+00:00</time>
        <ele>1865.0</ele>
      </trkpt>
      <trkpt lat="44.32221" lon="6.85966">
        <time>2023-04-10T06:05:14+00:00</time>
        <ele>1865.0</ele>
      </trkpt>
      <trkpt lat="44.32221" lon="6.85966">
        <time>2023-04-10T06:05:15+00:00</time>
        <ele>1865.0</ele>
      </trkpt>
      <trkpt lat="44.32221" lon="6.85966">
        <time>2023-04-10T06:05:16+00:00</time>
        <ele>1865.0</ele>
      </trkpt>
      <trkpt lat="44.32221" lon="6.85966">
        <time>2023-04-10T06:05:17+00:00</time>
        <ele>1865.0</ele>
      </trkpt>
      <trkpt lat="44.32221" lon="6.85966">
        <time>2023-04-10T06:05:18+00:00</time>
        <ele>1865.0</ele>
      </trkpt>
      <trkpt lat="44.32221" lon="6.85966">
        <time>2023-04-10T06:05:19+00:00</time>
        <ele>1865.0</ele>
      </trkpt>
      <trkpt lat="44.32221" lon="6.85966">
        <time>2023-04-10T06:05:20+00:00</time>
        <ele>1865.0</ele>
      </trkpt>
      <trkpt lat="44.32221" lon="6.85966">
        <time>2023-04-10T06:05:21+00:00</time>
        <ele>1865.0</ele>
      </trkpt>
      <trkpt lat="44.32221" lon="6.85966">
        <time>2023-04-10T06:05:22+00:00</time>
        <ele>1865.0</ele>
      </trkpt>
      <trkpt lat="44.32221" lon="6.85966">
        <time>2023-04-10T06:05:23+00:00</time>
        <ele>1865.0</ele>
      </trkpt>
      <trkpt lat="44.32221" lon="6.85966">
        <time>2023-04-10T06:05:24+00:00</time>
        <ele>1865.0</ele>
      </trkpt>
      <trkpt lat="44.32221" lon="6.85966">
        <time>2023-04-10T06:05:25+00:00</time>
        <ele>1865.0</ele>
      </trkpt>
      <trkpt lat="44.32221" lon="6.85966">
        <time>2023-04-10T06:05:26+00:00</time>
        <ele>1865.0</ele>
      </trkpt>
      <trkpt lat="44.32221" lon="6.85966">
        <time>2023-04-10T06:05:27+00:00</time>
        <ele>1865.0</ele>
      </trkpt>
      <trkpt lat="44.32221" lon="6.85966">
        <time>2023-04-10T06:05:28+00:00</time>
        <ele>1865.0</ele>
      </trkpt>
      <trkpt lat="44.32221" lon="6.85966">
        <time>2023-04-10T06:05:29+00:00</time>
        <ele>1865.0</ele>
      </trkpt>
      <trkpt lat="44.32221" lon="6.85966">
        <time>2023-04-10T06:05:30+00:00</time>
        <ele>1865.0</ele>
      </trkpt>
      <trkpt lat="44.32221" lon="6.85966">
        <time>2023-04-10T06:05:31+00:00</time>
        <ele>1865.0</ele>
      </trkpt>
      <trkpt lat="44.32221" lon="6.85966">
        <time>2023-04-10T06:05:32+00:00</time>
        <ele>1865.0</ele>
      </trkpt>
      <trkpt lat="44.32221" lon="6.85966">
        <time>2023-04-10T06:05:33+00:00</time>
        <ele>1865.0</ele>
      </trkpt>
      <trkpt lat="44.32221" lon="6.85966">
        <time>2023-04-10T06:05:34+00:00</time>
        <ele>1865.0</ele>
      </trkpt>
      <trkpt lat="44.32221" lon="6.85966">
        <time>2023-04-10T06:05:35+00:00</time>
        <ele>1865.0</ele>
      </trkpt>
      <trkpt lat="44.32221" lon="6.85966">
        <time>2023-04-10T06:05:36+00:00</time>
        <ele>1865.0</ele>
      </trkpt>
      <trkpt lat="44.32221" lon="6.85966">
        <time>2023-04-10T06:05:37+00:00</time>
        <ele>1865.0</ele>
      </trkpt>
      <trkpt lat="44.32221" lon="6.85966">
        <time>2023-04-10T06:05:38+00:00</time>
        <ele>1865.0</ele>
      </trkpt>
      <trkpt lat="44.32221" lon="6.85966">
        <time>2023-04-10T06:05:39+00:00</time>
        <ele>1865.0</ele>
      </trkpt>
      <trkpt lat="44.32221" lon="6.85966">
        <time>2023-04-10T06:05:40+00:00</time>
        <ele>1865.0</ele>
      </trkpt>
      <trkpt lat="44.32221" lon="6.85966">
        <time>2023-04-10T06:05:41+00:00</time>
        <ele>1865.0</ele>
      </trkpt>
      <trkpt lat="44.32221" lon="6.85966">
        <time>2023-04-10T06:05:42+00:00</time>
        <ele>1865.0</ele>
      </trkpt>
      <trkpt lat="44.32221" lon="6.85966">
        <time>2023-04-10T06:05:43+00:00</time>
        <ele>1865.0</ele>
      </trkpt>
      <trkpt lat="44.32221" lon="6.85966">
        <time>2023-04-10T06:05:44+00:00</time>
        <ele>1865.0</ele>
      </trkpt>
      <trkpt lat="44.32221" lon="6.85966">
        <time>2023-04-10T06:05:45+00:00</time>
        <ele>1865.0</ele>
      </trkpt>
      <trkpt lat="44.32221" lon="6.85966">
        <time>2023-04-10T06:05:46+00:00</time>
        <ele>1865.0</ele>
      </trkpt>
      <trkpt lat="44.32221" lon="6.85966">
        <time>2023-04-10T06:05:47+00:00</time>
        <ele>1865.0</ele>
      </trkpt>
      <trkpt lat="44.32221" lon="6.85966">
        <time>2023-04-10T06:05:48+00:00</time>
        <ele>1865.0</ele>
      </trkpt>
      <trkpt lat="44.32221" lon="6.85966">
        <time>2023-04-10T06:05:49+00:00</time>
        <ele>1865.0</ele>
      </trkpt>
      <trkpt lat="44.32221" lon="6.85966">
        <time>2023-04-10T06:05:50+00:00</time>
        <ele>1865.0</ele>
      </trkpt>
      <trkpt lat="44.32221" lon="6.85966">
        <time>2023-04-10T06:05:51+00:00</time>
        <ele>1865.0</ele>
      </trkpt>
      <trkpt lat="44.32221" lon="6.85966">
        <time>2023-04-10T06:05:52+00:00</time>
        <ele>1865.0</ele>
      </trkpt>
      <trkpt lat="44.32221" lon="6.85966">
        <time>2023-04-10T06:05:53+00:00</time>
        <ele>1865.0</ele>
      </trkpt>
      <trkpt lat="44.32221" lon="6.85966">
        <time>2023-04-10T06:05:54+00:00</time>
        <ele>1865.0</ele>
      </trkpt>
      <trkpt lat="44.32221" lon="6.85966">
        <time>2023-04-10T06:05:55+00:00</time>
        <ele>1865.0</ele>
      </trkpt>
      <trkpt lat="44.32221" lon="6.85966">
        <time>2023-04-10T06:05:56+00:00</time>
        <ele>1865.0</ele>
      </trkpt>
      <trkpt lat="44.32221" lon="6.85966">
        <time>2023-04-10T06:05:57+00:00</time>
        <ele>1865.0</ele>
      </trkpt>
      <trkpt lat="44.32221" lon="6.85966">
        <time>2023-04-10T06:05:58+00:00</time>
        <ele>1865.0</ele>
      </trkpt>
      <trkpt lat="44.32221" lon="6.85966">
        <time>2023-04-10T06:05:59+00:00</time>
        <ele>1865.0</ele>
      </trkpt>
      <trkpt lat="44.32221" lon="6.85966">
        <time>2023-04-10T06:06:00+00:00</time>
        <ele>1865.0</ele>
      </trkpt>
      <trkpt lat="44.32221" lon="6.85966">
        <time>2023-04-10T06:06:01+00:00</time>
        <ele>1865.0</ele>
      </trkpt>
      <trkpt lat="44.32221" lon="6.85966">
        <time>2023-04-10T06:06:02+00:00</time>
        <ele>1865.0</ele>
      </trkpt>
      <trkpt lat="44.32221" lon="6.85966">
        <time>2023-04-10T06:06:03+00:00</time>
        <ele>1865.0</ele>
      </trkpt>
      <trkpt lat="44.32221" lon="6.85966">
        <time>2023-04-10T06:06:04+00:00</time>
        <ele>1865.0</ele>
      </trkpt>
      <trkpt lat="44.32221" lon="6.85966">
        <time>2023-04-10T06:06:05+00:00</time>
        <ele>1865.0</ele>
      </trkpt>
      <trkpt lat="44.32221" lon="6.85966">
        <time>2023-04-10T06:06:06+00:00</time>
        <ele>1865.0</ele>
      </trkpt>
      <trkpt lat="44.32221" lon="6.85966">
        <time>2023-04-10T06:06:07+00:00</time>
        <ele>1865.0</ele>
      </trkpt>
      <trkpt lat="44.32221" lon="6.85966">
        <time>2023-04-10T06:06:08+00:00</time>
        <ele>1865.0</ele>
      </trkpt>
      <trkpt lat="44.32221" lon="6.85966">
        <time>2023-04-10T06:06:09+00:00</time>
        <ele>1865.0</ele>
      </trkpt>
      <trkpt lat="44.32221" lon="6.85966">
        <time>2023-04-10T06:06:10+00:00</time>
        <ele>1865.0</ele>
      </trkpt>
      <trkpt lat="44.32221" lon="6.85966">
        <time>2023-04-10T06:06:11+00:00</time>
        <ele>1865.0</ele>
      </trkpt>
      <trkpt lat="44.32221" lon="6.85966">
        <time>2023-04-10T06:06:12+00:00</time>
        <ele>1865.0</ele>
      </trkpt>
      <trkpt lat="44.32221" lon="6.85966">
        <time>2023-04-10T06:06:13+00:00</time>
        <ele>1865.0</ele>
      </trkpt>
      <trkpt lat="44.32221" lon="6.85966">
        <time>2023-04-10T06:06:14+00:00</time>
        <ele>1865.0</ele>
      </trkpt>
      <trkpt lat="44.32221" lon="6.85966">
        <time>2023-04-10T06:06:15+00:00</time>
        <ele>1865.0</ele>
      </trkpt>
      <trkpt lat="44.32221" lon="6.85966">
        <time>2023-04-10T06:06:16+00:00</time>
        <ele>1865.0</ele>
      </trkpt>
      <trkpt lat="44.32221" lon="6.85966">
        <time>2023-04-10T06:06:17+00:00</time>
        <ele>1865.0</ele>
      </trkpt>
      <trkpt lat="44.32221" lon="6.85966">
        <time>2023-04-10T06:06:18+00:00</time>
        <ele>1865.0</ele>
      </trkpt>
      <trkpt lat="44.32221" lon="6.85966">
        <time>2023-04-10T06:06:19+00:00</time>
        <ele>1865.0</ele>
      </trkpt>
      <trkpt lat="44.32221" lon="6.85966">
        <time>2023-04-10T06:06:20+00:00</time>
        <ele>1865.0</ele>
      </trkpt>
      <trkpt lat="44.32221" lon="6.85966">
        <time>2023-04-10T06:06:21+00:00</time>
        <ele>1865.0</ele>
      </trkpt>
      <trkpt lat="44.32221" lon="6.85966">
        <time>2023-04-10T06:06:22+00:00</time>
        <ele>1865.0</ele>
      </trkpt>
      <trkpt lat="44.32221" lon="6.85966">
        <time>2023-04-10T06:06:23+00:00</time>
        <ele>1865.0</ele>
      </trkpt>
      <trkpt lat="44.32221" lon="6.85966">
        <time>2023-04-10T06:06:24+00:00</time>
        <ele>1865.0</ele>
      </trkpt>
      <trkpt lat="44.32221" lon="6.85966">
        <time>2023-04-10T06:06:25+00:00</time>
        <ele>1865.0</ele>
      </trkpt>
      <trkpt lat="44.32221" lon="6.85966">
        <time>2023-04-10T06:06:26+00:00</time>
        <ele>1865.0</ele>
      </trkpt>
      <trkpt lat="44.32221" lon="6.85966">
        <time>2023-04-10T06:06:27+00:00</time>
        <ele>1865.0</ele>
      </trkpt>
      <trkpt lat="44.32221" lon="6.85966">
        <time>2023-04-10T06:06:28+00:00</time>
        <ele>1865.0</ele>
      </trkpt>
      <trkpt lat="44.32221" lon="6.85966">
        <time>2023-04-10T06:06:29+00:00</time>
        <ele>1865.0</ele>
      </trkpt>
      <trkpt lat="44.32221" lon="6.85966">
        <time>2023-04-10T06:06:30+00:00</time>
        <ele>1865.0</ele>
      </trkpt>
      <trkpt lat="44.32223" lon="6.85968">
        <time>2023-04-10T06:06:31+00:00</time>
        <ele>1866.0</ele>
      </trkpt>
      <trkpt lat="44.32223" lon="6.85968">
        <time>2023-04-10T06:06:32+00:00</time>
        <ele>1866.0</ele>
      </trkpt>
      <trkpt lat="44.32223" lon="6.85964">
        <time>2023-04-10T06:06:33+00:00</time>
        <ele>1865.0</ele>
      </trkpt>
      <trkpt lat="44.32224" lon="6.85961">
        <time>2023-04-10T06:06:34+00:00</time>
        <ele>1865.0</ele>
      </trkpt>
      <trkpt lat="44.32225" lon="6.85959">
        <time>2023-04-10T06:06:35+00:00</time>
        <ele>1865.0</ele>
      </trkpt>
      <trkpt lat="44.32225" lon="6.85959">
        <time>2023-04-10T06:06:36+00:00</time>
        <ele>1865.0</ele>
      </trkpt>
      <trkpt lat="44.32226" lon="6.85954">
        <time>2023-04-10T06:06:37+00:00</time>
        <ele>1864.0</ele>
      </trkpt>
      <trkpt lat="44.32227" lon="6.85951">
        <time>2023-04-10T06:06:38+00:00</time>
        <ele>1864.0</ele>
      </trkpt>
      <trkpt lat="44.32227" lon="6.85951">
        <time>2023-04-10T06:06:39+00:00</time>
        <ele>1864.0</ele>
      </trkpt>
      <trkpt lat="44.32228" lon="6.85947">
        <time>2023-04-10T06:06:40+00:00</time>
        <ele>1864.0</ele>
      </trkpt>
      <trkpt lat="44.32228" lon="6.85947">
        <time>2023-04-10T06:06:41+00:00</time>
        <ele>1864.0</ele>
      </trkpt>
      <trkpt lat="44.32229" lon="6.85944">
        <time>2023-04-10T06:06:42+00:00</time>
        <ele>1863.0</ele>
      </trkpt>
      <trkpt lat="44.32229" lon="6.85944">
        <time>2023-04-10T06:06:43+00:00</time>
        <ele>1863.0</ele>
      </trkpt>
      <trkpt lat="44.32231" lon="6.85942">
        <time>2023-04-10T06:06:44+00:00</time>
        <ele>1864.0</ele>
      </trkpt>
      <trkpt lat="44.32231" lon="6.85942">
        <time>2023-04-10T06:06:45+00:00</time>
        <ele>1864.0</ele>
      </trkpt>
      <trkpt lat="44.32232" lon="6.8594">
        <time>2023-04-10T06:06:46+00:00</time>
        <ele>1864.0</ele>
      </trkpt>
      <trkpt lat="44.32232" lon="6.8594">
        <time>2023-04-10T06:06:47+00:00</time>
        <ele>1864.0</ele>
      </trkpt>
      <trkpt lat="44.32233" lon="6.85937">
        <time>2023-04-10T06:06:48+00:00</time>
        <ele>1864.0</ele>
      </trkpt>
      <trkpt lat="44.32233" lon="6.85937">
        <time>2023-04-10T06:06:49+00:00</time>
        <ele>1864.0</ele>
      </trkpt>
      <trkpt lat="44.32235" lon="6.85935">
        <time>2023-04-10T06:06:50+00:00</time>
        <ele>1864.0</ele>
      </trkpt>
      <trkpt lat="44.32235" lon="6.85935">
        <time>2023-04-10T06:06:51+00:00</time>
        <ele>1864.0</ele>
      </trkpt>
      <trkpt lat="44.32236" lon="6.85933">
        <time>2023-04-10T06:06:52+00:00</time>
        <ele>1864.0</ele>
      </trkpt>
      <trkpt lat="44.32236" lon="6.85933">
        <time>2023-04-10T06:06:53+00:00</time>
        <ele>1864.0</ele>
      </trkpt>
      <trkpt lat="44.32237" lon="6.8593">
        <time>2023-04-10T06:06:54+00:00</time>
        <ele>1864.0</ele>
      </trkpt>
      <trkpt lat="44.32237" lon="6.8593">
        <time>2023-04-10T06:06:55+00:00</time>
        <ele>1864.0</ele>
      </trkpt>
      <trkpt lat="44.32238" lon="6.85928">
        <time>2023-04-10T06:06:56+00:00</time>
        <ele>1864.0</ele>
      </trkpt>
      <trkpt lat="44.32238" lon="6.85928">
        <time>2023-04-10T06:06:57+00:00</time>
        <ele>1864.0</ele>
      </trkpt>
      <trkpt lat="44.3224" lon="6.85925">
        <time>2023-04-10T06:06:58+00:00</time>
        <ele>1864.0</ele>
      </trkpt>
      <trkpt lat="44.3224" lon="6.85925">
        <time>2023-04-10T06:06:59+00:00</time>
        <ele>1864.0</ele>
      </trkpt>
      <trkpt lat="44.32241" lon="6.85923">
        <time>2023-04-10T06:07:00+00:00</time>
        <ele>1864.0</ele>
      </trkpt>
      <trkpt lat="44.32241" lon="6.85923">
        <time>2023-04-10T06:07:01+00:00</time>
        <ele>1864.0</ele>
      </trkpt>
      <trkpt lat="44.32241" lon="6.85919">
        <time>2023-04-10T06:07:02+00:00</time>
        <ele>1863.0</ele>
      </trkpt>
      <trkpt lat="44.32241" lon="6.85919">
        <time>2023-04-10T06:07:03+00:00</time>
        <ele>1863.0</ele>
      </trkpt>
      <trkpt lat="44.32242" lon="6.85917">
        <time>2023-04-10T06:07:04+00:00</time>
        <ele>1863.0</ele>
      </trkpt>
      <trkpt lat="44.32242" lon="6.85917">
        <time>2023-04-10T06:07:05+00:00</time>
        <ele>1863.0</ele>
      </trkpt>
      <trkpt lat="44.32243" lon="6.85914">
        <time>2023-04-10T06:07:06+00:00</time>
        <ele>1863.0</ele>
      </trkpt>
      <trkpt lat="44.32243" lon="6.85914">
        <time>2023-04-10T06:07:07+00:00</time>
        <ele>1863.0</ele>
      </trkpt>
      <trkpt lat="44.32244" lon="6.8591">
        <time>2023-04-10T06:07:08+00:00</time>
        <ele>1863.0</ele>
      </trkpt>
      <trkpt lat="44.32244" lon="6.8591">
        <time>2023-04-10T06:07:09+00:00</time>
        <ele>1863.0</ele>
      </trkpt>
      <trkpt lat="44.32245" lon="6.85907">
        <time>2023-04-10T06:07:10+00:00</time>
        <ele>1863.0</ele>
      </trkpt>
      <trkpt lat="44.32245" lon="6.85907">
        <time>2023-04-10T06:07:11+00:00</time>
        <ele>1863.0</ele>
      </trkpt>
      <trkpt lat="44.32246" lon="6.85904">
        <time>2023-04-10T06:07:12+00:00</time>
        <ele>1863.0</ele>
      </trkpt>
      <trkpt lat="44.32246" lon="6.85904">
        <time>2023-04-10T06:07:13+00:00</time>
        <ele>1863.0</ele>
      </trkpt>
      <trkpt lat="44.32246" lon="6.85901">
        <time>2023-04-10T06:07:14+00:00</time>
        <ele>1862.0</ele>
      </trkpt>
      <trkpt lat="44.32246" lon="6.85901">
        <time>2023-04-10T06:07:15+00:00</time>
        <ele>1862.0</ele>
      </trkpt>
      <trkpt lat="44.32246" lon="6.85901">
        <time>2023-04-10T06:07:16+00:00</time>
        <ele>1862.0</ele>
      </trkpt>
      <trkpt lat="44.32246" lon="6.85901">
        <time>2023-04-10T06:07:17+00:00</time>
        <ele>1862.0</ele>
      </trkpt>
      <trkpt lat="44.32246" lon="6.85901">
        <time>2023-04-10T06:07:18+00:00</time>
        <ele>1862.0</ele>
      </trkpt>
      <trkpt lat="44.32246" lon="6.85901">
        <time>2023-04-10T06:07:19+00:00</time>
        <ele>1862.0</ele>
      </trkpt>
      <trkpt lat="44.32246" lon="6.85898">
        <time>2023-04-10T06:07:20+00:00</time>
        <ele>1862.0</ele>
      </trkpt>
      <trkpt lat="44.32246" lon="6.85898">
        <time>2023-04-10T06:07:21+00:00</time>
        <ele>1862.0</ele>
      </trkpt>
      <trkpt lat="44.32247" lon="6.85895">
        <time>2023-04-10T06:07:22+00:00</time>
        <ele>1862.0</ele>
      </trkpt>
      <trkpt lat="44.32247" lon="6.85895">
        <time>2023-04-10T06:07:23+00:00</time>
        <ele>1862.0</ele>
      </trkpt>
      <trkpt lat="44.32248" lon="6.85892">
        <time>2023-04-10T06:07:24+00:00</time>
        <ele>1862.0</ele>
      </trkpt>
      <trkpt lat="44.32248" lon="6.85892">
        <time>2023-04-10T06:07:25+00:00</time>
        <ele>1862.0</ele>
      </trkpt>
      <trkpt lat="44.32248" lon="6.85889">
        <time>2023-04-10T06:07:26+00:00</time>
        <ele>1861.0</ele>
      </trkpt>
      <trkpt lat="44.32248" lon="6.85889">
        <time>2023-04-10T06:07:27+00:00</time>
        <ele>1861.0</ele>
      </trkpt>
      <trkpt lat="44.32249" lon="6.85886">
        <time>2023-04-10T06:07:28+00:00</time>
        <ele>1861.0</ele>
      </trkpt>
      <trkpt lat="44.32249" lon="6.85886">
        <time>2023-04-10T06:07:29+00:00</time>
        <ele>1861.0</ele>
      </trkpt>
      <trkpt lat="44.3225" lon="6.85883">
        <time>2023-04-10T06:07:30+00:00</time>
        <ele>1861.0</ele>
      </trkpt>
      <trkpt lat="44.3225" lon="6.85883">
        <time>2023-04-10T06:07:31+00:00</time>
        <ele>1861.0</ele>
      </trkpt>
      <trkpt lat="44.3225" lon="6.85881">
        <time>2023-04-10T06:07:32+00:00</time>
        <ele>1861.0</ele>
      </trkpt>
      <trkpt lat="44.3225" lon="6.85881">
        <time>2023-04-10T06:07:33+00:00</time>
        <ele>1861.0</ele>
      </trkpt>
      <trkpt lat="44.32251" lon="6.85878">
        <time>2023-04-10T06:07:34+00:00</time>
        <ele>1861.0</ele>
      </trkpt>
      <trkpt lat="44.32251" lon="6.85878">
        <time>2023-04-10T06:07:35+00:00</time>
        <ele>1861.0</ele>
      </trkpt>
      <trkpt lat="44.32252" lon="6.85875">
        <time>2023-04-10T06:07:36+00:00</time>
        <ele>1861.0</ele>
      </trkpt>
      <trkpt lat="44.32252" lon="6.85875">
        <time>2023-04-10T06:07:37+00:00</time>
        <ele>1861.0</ele>
      </trkpt>
      <trkpt lat="44.32253" lon="6.85872">
        <time>2023-04-10T06:07:38+00:00</time>
        <ele>1861.0</ele>
      </trkpt>
      <trkpt lat="44.32253" lon="6.85872">
        <time>2023-04-10T06:07:39+00:00</time>
        <ele>1861.0</ele>
      </trkpt>
      <trkpt lat="44.32254" lon="6.85869">
        <time>2023-04-10T06:07:40+00:00</time>
        <ele>1861.0</ele>
      </trkpt>
      <trkpt lat="44.32254" lon="6.85869">
        <time>2023-04-10T06:07:41+00:00</time>
        <ele>1861.0</ele>
      </trkpt>
      <trkpt lat="44.32256" lon="6.85867">
        <time>2023-04-10T06:07:42+00:00</time>
        <ele>1861.0</ele>
      </trkpt>
      <trkpt lat="44.32256" lon="6.85867">
        <time>2023-04-10T06:07:43+00:00</time>
        <ele>1861.0</ele>
      </trkpt>
      <trkpt lat="44.32257" lon="6.85864">
        <time>2023-04-10T06:07:44+00:00</time>
        <ele>1861.0</ele>
      </trkpt>
      <trkpt lat="44.32257" lon="6.85864">
        <time>2023-04-10T06:07:45+00:00</time>
        <ele>1861.0</ele>
      </trkpt>
      <trkpt lat="44.32258" lon="6.85861">
        <time>2023-04-10T06:07:46+00:00</time>
        <ele>1861.0</ele>
      </trkpt>
      <trkpt lat="44.32258" lon="6.85861">
        <time>2023-04-10T06:07:47+00:00</time>
        <ele>1861.0</ele>
      </trkpt>
      <trkpt lat="44.32259" lon="6.85858">
        <time>2023-04-10T06:07:48+00:00</time>
        <ele>1861.0</ele>
      </trkpt>
      <trkpt lat="44.32259" lon="6.85858">
        <time>2023-04-10T06:07:49+00:00</time>
        <ele>1861.0</ele>
      </trkpt>
      <trkpt lat="44.3226" lon="6.85856">
        <time>2023-04-10T06:07:50+00:00</time>
        <ele>1861.0</ele>
      </trkpt>
      <trkpt lat="44.3226" lon="6.85856">
        <time>2023-04-10T06:07:51+00:00</time>
        <ele>1861.0</ele>
      </trkpt>
      <trkpt lat="44.32261" lon="6.85852">
        <time>2023-04-10T06:07:52+00:00</time>
        <ele>1861.0</ele>
      </trkpt>
      <trkpt lat="44.32261" lon="6.85852">
        <time>2023-04-10T06:07:53+00:00</time>
        <ele>1861.0</ele>
      </trkpt>
      <trkpt lat="44.32262" lon="6.85849">
        <time>2023-04-10T06:07:54+00:00</time>
        <ele>1861.0</ele>
      </trkpt>
      <trkpt lat="44.32262" lon="6.85849">
        <time>2023-04-10T06:07:55+00:00</time>
        <ele>1861.0</ele>
      </trkpt>
      <trkpt lat="44.32264" lon="6.85847">
        <time>2023-04-10T06:07:56+00:00</time>
        <ele>1862.0</ele>
      </trkpt>
      <trkpt lat="44.32264" lon="6.85847">
        <time>2023-04-10T06:07:57+00:00</time>
        <ele>1862.0</ele>
      </trkpt>
      <trkpt lat="44.32265" lon="6.85844">
        <time>2023-04-10T06:07:58+00:00</time>
        <ele>1862.0</ele>
      </trkpt>
      <trkpt lat="44.32265" lon="6.85844">
        <time>2023-04-10T06:07:59+00:00</time>
        <ele>1862.0</ele>
      </trkpt>
      <trkpt lat="44.32266" lon="6.85841">
        <time>2023-04-10T06:08:00+00:00</time>
        <ele>1862.0</ele>
      </trkpt>
      <trkpt lat="44.32266" lon="6.85841">
        <time>2023-04-10T06:08:01+00:00</time>
        <ele>1862.0</ele>
      </trkpt>
      <trkpt lat="44.32267" lon="6.85838">
        <time>2023-04-10T06:08:02+00:00</time>
        <ele>1862.0</ele>
      </trkpt>
      <trkpt lat="44.32267" lon="6.85838">
        <time>2023-04-10T06:08:03+00:00</time>
        <ele>1862.0</ele>
      </trkpt>
      <trkpt lat="44.32268" lon="6.85835">
        <time>2023-04-10T06:08:04+00:00</time>
        <ele>1862.0</ele>
      </trkpt>
      <trkpt lat="44.32268" lon="6.85835">
        <time>2023-04-10T06:08:05+00:00</time>
        <ele>1862.0</ele>
      </trkpt>
      <trkpt lat="44.32269" lon="6.85833">
        <time>2023-04-10T06:08:06+00:00</time>
        <ele>1862.0</ele>
      </trkpt>
      <trkpt lat="44.32269" lon="6.85833">
        <time>2023-04-10T06:08:07+00:00</time>
        <ele>1862.0</ele>
      </trkpt>
      <trkpt lat="44.3227" lon="6.8583">
        <time>2023-04-10T06:08:08+00:00</time>
        <ele>1862.0</ele>
      </trkpt>
      <trkpt lat="44.3227" lon="6.8583">
        <time>2023-04-10T06:08:09+00:00</time>
        <ele>1862.0</ele>
      </trkpt>
      <trkpt lat="44.3227" lon="6.85827">
        <time>2023-04-10T06:08:10+00:00</time>
        <ele>1861.0</ele>
      </trkpt>
      <trkpt lat="44.3227" lon="6.85827">
        <time>2023-04-10T06:08:11+00:00</time>
        <ele>1861.0</ele>
      </trkpt>
      <trkpt lat="44.32271" lon="6.85824">
        <time>2023-04-10T06:08:12+00:00</time>
        <ele>1861.0</ele>
      </trkpt>
      <trkpt lat="44.32271" lon="6.85824">
        <time>2023-04-10T06:08:13+00:00</time>
        <ele>1861.0</ele>
      </trkpt>
      <trkpt lat="44.32272" lon="6.85821">
        <time>2023-04-10T06:08:14+00:00</time>
        <ele>1861.0</ele>
      </trkpt>
      <trkpt lat="44.32272" lon="6.85821">
        <time>2023-04-10T06:08:15+00:00</time>
        <ele>1861.0</ele>
      </trkpt>
      <trkpt lat="44.32273" lon="6.85818">
        <time>2023-04-10T06:08:16+00:00</time>
        <ele>1861.0</ele>
      </trkpt>
      <trkpt lat="44.32273" lon="6.85818">
        <time>2023-04-10T06:08:17+00:00</time>
        <ele>1861.0</ele>
      </trkpt>
      <trkpt lat="44.32274" lon="6.85815">
        <time>2023-04-10T06:08:18+00:00</time>
        <ele>1861.0</ele>
      </trkpt>
      <trkpt lat="44.32274" lon="6.85815">
        <time>2023-04-10T06:08:19+00:00</time>
        <ele>1861.0</ele>
      </trkpt>
      <trkpt lat="44.32274" lon="6.85811">
        <time>2023-04-10T06:08:20+00:00</time>
        <ele>1861.0</ele>
      </trkpt>
      <trkpt lat="44.32274" lon="6.85811">
        <time>2023-04-10T06:08:21+00:00</time>
        <ele>1861.0</ele>
      </trkpt>
      <trkpt lat="44.32275" lon="6.85808">
        <time>2023-04-10T06:08:22+00:00</time>
        <ele>1861.0</ele>
      </trkpt>
      <trkpt lat="44.32275" lon="6.85808">
        <time>2023-04-10T06:08:23+00:00</time>
        <ele>1861.0</ele>
      </trkpt>
      <trkpt lat="44.32276" lon="6.85805">
        <time>2023-04-10T06:08:24+00:00</time>
        <ele>1861.0</ele>
      </trkpt>
      <trkpt lat="44.32276" lon="6.85805">
        <time>2023-04-10T06:08:25+00:00</time>
        <ele>1861.0</ele>
      </trkpt>
      <trkpt lat="44.32276" lon="6.85801">
        <time>2023-04-10T06:08:26+00:00</time>
        <ele>1860.0</ele>
      </trkpt>
      <trkpt lat="44.32276" lon="6.85801">
        <time>2023-04-10T06:08:27+00:00</time>
        <ele>1860.0</ele>
      </trkpt>
      <trkpt lat="44.32276" lon="6.85798">
        <time>2023-04-10T06:08:28+00:00</time>
        <ele>1860.0</ele>
      </trkpt>
      <trkpt lat="44.32276" lon="6.85798">
        <time>2023-04-10T06:08:29+00:00</time>
        <ele>1860.0</ele>
      </trkpt>
      <trkpt lat="44.32277" lon="6.85795">
        <time>2023-04-10T06:08:30+00:00</time>
        <ele>1860.0</ele>
      </trkpt>
      <trkpt lat="44.32277" lon="6.85795">
        <time>2023-04-10T06:08:31+00:00</time>
        <ele>1860.0</ele>
      </trkpt>
      <trkpt lat="44.32277" lon="6.85792">
        <time>2023-04-10T06:08:32+00:00</time>
        <ele>1860.0</ele>
      </trkpt>
      <trkpt lat="44.32277" lon="6.85792">
        <time>2023-04-10T06:08:33+00:00</time>
        <ele>1860.0</ele>
      </trkpt>
      <trkpt lat="44.32278" lon="6.85789">
        <time>2023-04-10T06:08:34+00:00</time>
        <ele>1859.0</ele>
      </trkpt>
      <trkpt lat="44.32278" lon="6.85789">
        <time>2023-04-10T06:08:35+00:00</time>
        <ele>1859.0</ele>
      </trkpt>
      <trkpt lat="44.32278" lon="6.85786">
        <time>2023-04-10T06:08:36+00:00</time>
        <ele>1859.0</ele>
      </trkpt>
      <trkpt lat="44.32278" lon="6.85786">
        <time>2023-04-10T06:08:37+00:00</time>
        <ele>1859.0</ele>
      </trkpt>
      <trkpt lat="44.32278" lon="6.85783">
        <time>2023-04-10T06:08:38+00:00</time>
        <ele>1859.0</ele>
      </trkpt>
      <trkpt lat="44.32278" lon="6.85783">
        <time>2023-04-10T06:08:39+00:00</time>
        <ele>1859.0</ele>
      </trkpt>
      <trkpt lat="44.32278" lon="6.8578">
        <time>2023-04-10T06:08:40+00:00</time>
        <ele>1859.0</ele>
      </trkpt>
      <trkpt lat="44.32278" lon="6.8578">
        <time>2023-04-10T06:08:41+00:00</time>
        <ele>1859.0</ele>
      </trkpt>
      <trkpt lat="44.32277" lon="6.85777">
        <time>2023-04-10T06:08:42+00:00</time>
        <ele>1858.0</ele>
      </trkpt>
      <trkpt lat="44.32277" lon="6.85777">
        <time>2023-04-10T06:08:43+00:00</time>
        <ele>1858.0</ele>
      </trkpt>
      <trkpt lat="44.32276" lon="6.85774">
        <time>2023-04-10T06:08:44+00:00</time>
        <ele>1858.0</ele>
      </trkpt>
      <trkpt lat="44.32276" lon="6.85774">
        <time>2023-04-10T06:08:45+00:00</time>
        <ele>1858.0</ele>
      </trkpt>
      <trkpt lat="44.32275" lon="6.85772">
        <time>2023-04-10T06:08:46+00:00</time>
        <ele>1858.0</ele>
      </trkpt>
      <trkpt lat="44.32275" lon="6.85772">
        <time>2023-04-10T06:08:47+00:00</time>
        <ele>1858.0</ele>
      </trkpt>
      <trkpt lat="44.32275" lon="6.85772">
        <time>2023-04-10T06:08:48+00:00</time>
        <ele>1858.0</ele>
      </trkpt>
      <trkpt lat="44.32272" lon="6.8577">
        <time>2023-04-10T06:08:49+00:00</time>
        <ele>1857.0</ele>
      </trkpt>
      <trkpt lat="44.32272" lon="6.8577">
        <time>2023-04-10T06:08:50+00:00</time>
        <ele>1857.0</ele>
      </trkpt>
      <trkpt lat="44.3227" lon="6.85768">
        <time>2023-04-10T06:08:51+00:00</time>
        <ele>1857.0</ele>
      </trkpt>
      <trkpt lat="44.3227" lon="6.85768">
        <time>2023-04-10T06:08:52+00:00</time>
        <ele>1857.0</ele>
      </trkpt>
      <trkpt lat="44.32269" lon="6.85766">
        <time>2023-04-10T06:08:53+00:00</time>
        <ele>1857.0</ele>
      </trkpt>
      <trkpt lat="44.32269" lon="6.85766">
        <time>2023-04-10T06:08:54+00:00</time>
        <ele>1857.0</ele>
      </trkpt>
      <trkpt lat="44.32267" lon="6.85764">
        <time>2023-04-10T06:08:55+00:00</time>
        <ele>1857.0</ele>
      </trkpt>
      <trkpt lat="44.32267" lon="6.85764">
        <time>2023-04-10T06:08:56+00:00</time>
        <ele>1857.0</ele>
      </trkpt>
      <trkpt lat="44.32267" lon="6.85764">
        <time>2023-04-10T06:08:57+00:00</time>
        <ele>1857.0</ele>
      </trkpt>
      <trkpt lat="44.32265" lon="6.85762">
        <time>2023-04-10T06:08:58+00:00</time>
        <ele>1857.0</ele>
      </trkpt>
      <trkpt lat="44.32265" lon="6.85762">
        <time>2023-04-10T06:08:59+00:00</time>
        <ele>1857.0</ele>
      </trkpt>
      <trkpt lat="44.32265" lon="6.85762">
        <time>2023-04-10T06:09:00+00:00</time>
        <ele>1857.0</ele>
      </trkpt>
      <trkpt lat="44.32264" lon="6.85759">
        <time>2023-04-10T06:09:01+00:00</time>
        <ele>1857.0</ele>
      </trkpt>
      <trkpt lat="44.32264" lon="6.85759">
        <time>2023-04-10T06:09:02+00:00</time>
        <ele>1857.0</ele>
      </trkpt>
      <trkpt lat="44.32263" lon="6.85757">
        <time>2023-04-10T06:09:03+00:00</time>
        <ele>1857.0</ele>
      </trkpt>
      <trkpt lat="44.32263" lon="6.85757">
        <time>2023-04-10T06:09:04+00:00</time>
        <ele>1857.0</ele>
      </trkpt>
      <trkpt lat="44.32263" lon="6.85757">
        <time>2023-04-10T06:09:05+00:00</time>
        <ele>1857.0</ele>
      </trkpt>
      <trkpt lat="44.32262" lon="6.85753">
        <time>2023-04-10T06:09:06+00:00</time>
        <ele>1858.0</ele>
      </trkpt>
      <trkpt lat="44.32262" lon="6.85753">
        <time>2023-04-10T06:09:07+00:00</time>
        <ele>1858.0</ele>
      </trkpt>
      <trkpt lat="44.32262" lon="6.85753">
        <time>2023-04-10T06:09:08+00:00</time>
        <ele>1858.0</ele>
      </trkpt>
      <trkpt lat="44.32262" lon="6.8575">
        <time>2023-04-10T06:09:09+00:00</time>
        <ele>1858.0</ele>
      </trkpt>
      <trkpt lat="44.32262" lon="6.8575">
        <time>2023-04-10T06:09:10+00:00</time>
        <ele>1858.0</ele>
      </trkpt>
      <trkpt lat="44.32261" lon="6.85748">
        <time>2023-04-10T06:09:11+00:00</time>
        <ele>1859.0</ele>
      </trkpt>
      <trkpt lat="44.32261" lon="6.85748">
        <time>2023-04-10T06:09:12+00:00</time>
        <ele>1859.0</ele>
      </trkpt>
      <trkpt lat="44.32261" lon="6.85748">
        <time>2023-04-10T06:09:13+00:00</time>
        <ele>1859.0</ele>
      </trkpt>
      <trkpt lat="44.32261" lon="6.85744">
        <time>2023-04-10T06:09:14+00:00</time>
        <ele>1860.0</ele>
      </trkpt>
      <trkpt lat="44.32261" lon="6.85744">
        <time>2023-04-10T06:09:15+00:00</time>
        <ele>1860.0</ele>
      </trkpt>
      <trkpt lat="44.32261" lon="6.85744">
        <time>2023-04-10T06:09:16+00:00</time>
        <ele>1860.0</ele>
      </trkpt>
      <trkpt lat="44.32261" lon="6.85741">
        <time>2023-04-10T06:09:17+00:00</time>
        <ele>1860.0</ele>
      </trkpt>
      <trkpt lat="44.32261" lon="6.85741">
        <time>2023-04-10T06:09:18+00:00</time>
        <ele>1860.0</ele>
      </trkpt>
      <trkpt lat="44.32261" lon="6.85741">
        <time>2023-04-10T06:09:19+00:00</time>
        <ele>1860.0</ele>
      </trkpt>
      <trkpt lat="44.3226" lon="6.85738">
        <time>2023-04-10T06:09:20+00:00</time>
        <ele>1861.0</ele>
      </trkpt>
      <trkpt lat="44.3226" lon="6.85738">
        <time>2023-04-10T06:09:21+00:00</time>
        <ele>1861.0</ele>
      </trkpt>
      <trkpt lat="44.3226" lon="6.85738">
        <time>2023-04-10T06:09:22+00:00</time>
        <ele>1861.0</ele>
      </trkpt>
      <trkpt lat="44.3226" lon="6.85735">
        <time>2023-04-10T06:09:23+00:00</time>
        <ele>1862.0</ele>
      </trkpt>
      <trkpt lat="44.3226" lon="6.85735">
        <time>2023-04-10T06:09:24+00:00</time>
        <ele>1862.0</ele>
      </trkpt>
      <trkpt lat="44.32259" lon="6.85732">
        <time>2023-04-10T06:09:25+00:00</time>
        <ele>1863.0</ele>
      </trkpt>
      <trkpt lat="44.32259" lon="6.85732">
        <time>2023-04-10T06:09:26+00:00</time>
        <ele>1863.0</ele>
      </trkpt>
      <trkpt lat="44.32258" lon="6.85728">
        <time>2023-04-10T06:09:27+00:00</time>
        <ele>1864.0</ele>
      </trkpt>
      <trkpt lat="44.32258" lon="6.85728">
        <time>2023-04-10T06:09:28+00:00</time>
        <ele>1864.0</ele>
      </trkpt>
      <trkpt lat="44.32258" lon="6.85726">
        <time>2023-04-10T06:09:29+00:00</time>
        <ele>1864.0</ele>
      </trkpt>
      <trkpt lat="44.32258" lon="6.85726">
        <time>2023-04-10T06:09:30+00:00</time>
        <ele>1864.0</ele>
      </trkpt>
      <trkpt lat="44.32258" lon="6.85723">
        <time>2023-04-10T06:09:31+00:00</time>
        <ele>1865.0</ele>
      </trkpt>
      <trkpt lat="44.32258" lon="6.85723">
        <time>2023-04-10T06:09:32+00:00</time>
        <ele>1865.0</ele>
      </trkpt>
      <trkpt lat="44.32258" lon="6.85723">
        <time>2023-04-10T06:09:33+00:00</time>
        <ele>1865.0</ele>
      </trkpt>
      <trkpt lat="44.32258" lon="6.8572">
        <time>2023-04-10T06:09:34+00:00</time>
        <ele>1865.0</ele>
      </trkpt>
      <trkpt lat="44.32258" lon="6.8572">
        <time>2023-04-10T06:09:35+00:00</time>
        <ele>1865.0</ele>
      </trkpt>
      <trkpt lat="44.32258" lon="6.8572">
        <time>2023-04-10T06:09:36+00:00</time>
        <ele>1865.0</ele>
      </trkpt>
      <trkpt lat="44.32258" lon="6.85716">
        <time>2023-04-10T06:09:37+00:00</time>
        <ele>1866.0</ele>
      </trkpt>
      <trkpt lat="44.32258" lon="6.85716">
        <time>2023-04-10T06:09:38+00:00</time>
        <ele>1866.0</ele>
      </trkpt>
      <trkpt lat="44.32258" lon="6.85716">
        <time>2023-04-10T06:09:39+00:00</time>
        <ele>1866.0</ele>
      </trkpt>
      <trkpt lat="44.32257" lon="6.85713">
        <time>2023-04-10T06:09:40+00:00</time>
        <ele>1867.0</ele>
      </trkpt>
      <trkpt lat="44.32257" lon="6.85713">
        <time>2023-04-10T06:09:41+00:00</time>
        <ele>1867.0</ele>
      </trkpt>
      <trkpt lat="44.32257" lon="6.85713">
        <time>2023-04-10T06:09:42+00:00</time>
        <ele>1867.0</ele>
      </trkpt>
      <trkpt lat="44.32256" lon="6.8571">
        <time>2023-04-10T06:09:43+00:00</time>
        <ele>1868.0</ele>
      </trkpt>
      <trkpt lat="44.32256" lon="6.8571">
        <time>2023-04-10T06:09:44+00:00</time>
        <ele>1868.0</ele>
      </trkpt>
      <trkpt lat="44.32257" lon="6.85707">
        <time>2023-04-10T06:09:45+00:00</time>
        <ele>1868.0</ele>
      </trkpt>
      <trkpt lat="44.32257" lon="6.85707">
        <time>2023-04-10T06:09:46+00:00</time>
        <ele>1868.0</ele>
      </trkpt>
      <trkpt lat="44.32257" lon="6.85704">
        <time>2023-04-10T06:09:47+00:00</time>
        <ele>1869.0</ele>
      </trkpt>
      <trkpt lat="44.32257" lon="6.85704">
        <time>2023-04-10T06:09:48+00:00</time>
        <ele>1869.0</ele>
      </trkpt>
      <trkpt lat="44.32257" lon="6.85704">
        <time>2023-04-10T06:09:49+00:00</time>
        <ele>1869.0</ele>
      </trkpt>
      <trkpt lat="44.32258" lon="6.85701">
        <time>2023-04-10T06:09:50+00:00</time>
        <ele>1869.0</ele>
      </trkpt>
      <trkpt lat="44.32258" lon="6.85701">
        <time>2023-04-10T06:09:51+00:00</time>
        <ele>1869.0</ele>
      </trkpt>
      <trkpt lat="44.32258" lon="6.85701">
        <time>2023-04-10T06:09:52+00:00</time>
        <ele>1869.0</ele>
      </trkpt>
      <trkpt lat="44.32258" lon="6.85697">
        <time>2023-04-10T06:09:53+00:00</time>
        <ele>1869.0</ele>
      </trkpt>
      <trkpt lat="44.32258" lon="6.85697">
        <time>2023-04-10T06:09:54+00:00</time>
        <ele>1869.0</ele>
      </trkpt>
      <trkpt lat="44.32258" lon="6.85697">
        <time>2023-04-10T06:09:55+00:00</time>
        <ele>1869.0</ele>
      </trkpt>
      <trkpt lat="44.32258" lon="6.85694">
        <time>2023-04-10T06:09:56+00:00</time>
        <ele>1870.0</ele>
      </trkpt>
      <trkpt lat="44.32258" lon="6.85694">
        <time>2023-04-10T06:09:57+00:00</time>
        <ele>1870.0</ele>
      </trkpt>
      <trkpt lat="44.32258" lon="6.85691">
        <time>2023-04-10T06:09:58+00:00</time>
        <ele>1870.0</ele>
      </trkpt>
      <trkpt lat="44.32258" lon="6.85691">
        <time>2023-04-10T06:09:59+00:00</time>
        <ele>1870.0</ele>
      </trkpt>
      <trkpt lat="44.32258" lon="6.85688">
        <time>2023-04-10T06:10:00+00:00</time>
        <ele>1871.0</ele>
      </trkpt>
      <trkpt lat="44.32258" lon="6.85688">
        <time>2023-04-10T06:10:02+00:00</time>
        <ele>1871.0</ele>
      </trkpt>
      <trkpt lat="44.32258" lon="6.85685">
        <time>2023-04-10T06:10:03+00:00</time>
        <ele>1871.0</ele>
      </trkpt>
      <trkpt lat="44.32258" lon="6.85685">
        <time>2023-04-10T06:10:04+00:00</time>
        <ele>1871.0</ele>
      </trkpt>
      <trkpt lat="44.32258" lon="6.85682">
        <time>2023-04-10T06:10:05+00:00</time>
        <ele>1871.0</ele>
      </trkpt>
      <trkpt lat="44.32258" lon="6.85682">
        <time>2023-04-10T06:10:06+00:00</time>
        <ele>1871.0</ele>
      </trkpt>
      <trkpt lat="44.32258" lon="6.85682">
        <time>2023-04-10T06:10:07+00:00</time>
        <ele>1871.0</ele>
      </trkpt>
      <trkpt lat="44.32258" lon="6.85682">
        <time>2023-04-10T06:10:08+00:00</time>
        <ele>1871.0</ele>
      </trkpt>
      <trkpt lat="44.3226" lon="6.85677">
        <time>2023-04-10T06:10:09+00:00</time>
        <ele>1872.0</ele>
      </trkpt>
      <trkpt lat="44.3226" lon="6.85677">
        <time>2023-04-10T06:10:10+00:00</time>
        <ele>1872.0</ele>
      </trkpt>
      <trkpt lat="44.3226" lon="6.85677">
        <time>2023-04-10T06:10:11+00:00</time>
        <ele>1872.0</ele>
      </trkpt>
      <trkpt lat="44.32261" lon="6.85674">
        <time>2023-04-10T06:10:12+00:00</time>
        <ele>1871.0</ele>
      </trkpt>
      <trkpt lat="44.32261" lon="6.85674">
        <time>2023-04-10T06:10:13+00:00</time>
        <ele>1871.0</ele>
      </trkpt>
      <trkpt lat="44.32261" lon="6.85674">
        <time>2023-04-10T06:10:14+00:00</time>
        <ele>1871.0</ele>
      </trkpt>
      <trkpt lat="44.32261" lon="6.8567">
        <time>2023-04-10T06:10:15+00:00</time>
        <ele>1872.0</ele>
      </trkpt>
      <trkpt lat="44.32261" lon="6.8567">
        <time>2023-04-10T06:10:16+00:00</time>
        <ele>1872.0</ele>
      </trkpt>
      <trkpt lat="44.32261" lon="6.85667">
        <time>2023-04-10T06:10:17+00:00</time>
        <ele>1872.0</ele>
      </trkpt>
      <trkpt lat="44.32261" lon="6.85667">
        <time>2023-04-10T06:10:18+00:00</time>
        <ele>1872.0</ele>
      </trkpt>
      <trkpt lat="44.32262" lon="6.85665">
        <time>2023-04-10T06:10:19+00:00</time>
        <ele>1872.0</ele>
      </trkpt>
      <trkpt lat="44.32262" lon="6.85665">
        <time>2023-04-10T06:10:20+00:00</time>
        <ele>1872.0</ele>
      </trkpt>
      <trkpt lat="44.32262" lon="6.85665">
        <time>2023-04-10T06:10:21+00:00</time>
        <ele>1872.0</ele>
      </trkpt>
      <trkpt lat="44.32262" lon="6.8566">
        <time>2023-04-10T06:10:22+00:00</time>
        <ele>1872.0</ele>
      </trkpt>
      <trkpt lat="44.32262" lon="6.8566">
        <time>2023-04-10T06:10:23+00:00</time>
        <ele>1872.0</ele>
      </trkpt>
      <trkpt lat="44.32261" lon="6.85658">
        <time>2023-04-10T06:10:24+00:00</time>
        <ele>1873.0</ele>
      </trkpt>
      <trkpt lat="44.32261" lon="6.85658">
        <time>2023-04-10T06:10:25+00:00</time>
        <ele>1873.0</ele>
      </trkpt>
      <trkpt lat="44.32261" lon="6.85655">
        <time>2023-04-10T06:10:26+00:00</time>
        <ele>1873.0</ele>
      </trkpt>
      <trkpt lat="44.32261" lon="6.85655">
        <time>2023-04-10T06:10:27+00:00</time>
        <ele>1873.0</ele>
      </trkpt>
      <trkpt lat="44.32261" lon="6.85655">
        <time>2023-04-10T06:10:28+00:00</time>
        <ele>1873.0</ele>
      </trkpt>
      <trkpt lat="44.32261" lon="6.85652">
        <time>2023-04-10T06:10:29+00:00</time>
        <ele>1873.0</ele>
      </trkpt>
      <trkpt lat="44.32261" lon="6.85652">
        <time>2023-04-10T06:10:30+00:00</time>
        <ele>1873.0</ele>
      </trkpt>
      <trkpt lat="44.32261" lon="6.85652">
        <time>2023-04-10T06:10:31+00:00</time>
        <ele>1873.0</ele>
      </trkpt>
      <trkpt lat="44.32259" lon="6.85649">
        <time>2023-04-10T06:10:32+00:00</time>
        <ele>1874.0</ele>
      </trkpt>
      <trkpt lat="44.32259" lon="6.85649">
        <time>2023-04-10T06:10:33+00:00</time>
        <ele>1874.0</ele>
      </trkpt>
      <trkpt lat="44.32259" lon="6.85649">
        <time>2023-04-10T06:10:34+00:00</time>
        <ele>1874.0</ele>
      </trkpt>
      <trkpt lat="44.32257" lon="6.85647">
        <time>2023-04-10T06:10:35+00:00</time>
        <ele>1874.0</ele>
      </trkpt>
      <trkpt lat="44.32257" lon="6.85647">
        <time>2023-04-10T06:10:36+00:00</time>
        <ele>1874.0</ele>
      </trkpt>
      <trkpt lat="44.32257" lon="6.85647">
        <time>2023-04-10T06:10:37+00:00</time>
        <ele>1874.0</ele>
      </trkpt>
      <trkpt lat="44.32254" lon="6.85645">
        <time>2023-04-10T06:10:38+00:00</time>
        <ele>1875.0</ele>
      </trkpt>
      <trkpt lat="44.32254" lon="6.85645">
        <time>2023-04-10T06:10:39+00:00</time>
        <ele>1875.0</ele>
      </trkpt>
      <trkpt lat="44.32254" lon="6.85645">
        <time>2023-04-10T06:10:40+00:00</time>
        <ele>1875.0</ele>
      </trkpt>
      <trkpt lat="44.32252" lon="6.85646">
        <time>2023-04-10T06:10:41+00:00</time>
        <ele>1876.0</ele>
      </trkpt>
      <trkpt lat="44.32252" lon="6.85646">
        <time>2023-04-10T06:10:42+00:00</time>
        <ele>1876.0</ele>
      </trkpt>
      <trkpt lat="44.32251" lon="6.85648">
        <time>2023-04-10T06:10:43+00:00</time>
        <ele>1876.0</ele>
      </trkpt>
      <trkpt lat="44.32251" lon="6.85648">
        <time>2023-04-10T06:10:44+00:00</time>
        <ele>1876.0</ele>
      </trkpt>
      <trkpt lat="44.32249" lon="6.8565">
        <time>2023-04-10T06:10:45+00:00</time>
        <ele>1876.0</ele>
      </trkpt>
      <trkpt lat="44.32249" lon="6.8565">
        <time>2023-04-10T06:10:46+00:00</time>
        <ele>1876.0</ele>
      </trkpt>
      <trkpt lat="44.32248" lon="6.85652">
        <time>2023-04-10T06:10:47+00:00</time>
        <ele>1876.0</ele>
      </trkpt>
      <trkpt lat="44.32248" lon="6.85652">
        <time>2023-04-10T06:10:48+00:00</time>
        <ele>1876.0</ele>
      </trkpt>
      <trkpt lat="44.32247" lon="6.85655">
        <time>2023-04-10T06:10:49+00:00</time>
        <ele>1876.0</ele>
      </trkpt>
      <trkpt lat="44.32247" lon="6.85655">
        <time>2023-04-10T06:10:50+00:00</time>
        <ele>1876.0</ele>
      </trkpt>
      <trkpt lat="44.32245" lon="6.85657">
        <time>2023-04-10T06:10:51+00:00</time>
        <ele>1876.0</ele>
      </trkpt>
      <trkpt lat="44.32245" lon="6.85657">
        <time>2023-04-10T06:10:52+00:00</time>
        <ele>1876.0</ele>
      </trkpt>
      <trkpt lat="44.32243" lon="6.85659">
        <time>2023-04-10T06:10:53+00:00</time>
        <ele>1876.0</ele>
      </trkpt>
      <trkpt lat="44.32243" lon="6.85659">
        <time>2023-04-10T06:10:54+00:00</time>
        <ele>1876.0</ele>
      </trkpt>
      <trkpt lat="44.32243" lon="6.85659">
        <time>2023-04-10T06:10:55+00:00</time>
        <ele>1876.0</ele>
      </trkpt>
      <trkpt lat="44.32241" lon="6.85661">
        <time>2023-04-10T06:10:56+00:00</time>
        <ele>1877.0</ele>
      </trkpt>
      <trkpt lat="44.32241" lon="6.85661">
        <time>2023-04-10T06:10:57+00:00</time>
        <ele>1877.0</ele>
      </trkpt>
      <trkpt lat="44.3224" lon="6.85663">
        <time>2023-04-10T06:10:58+00:00</time>
        <ele>1877.0</ele>
      </trkpt>
      <trkpt lat="44.3224" lon="6.85663">
        <time>2023-04-10T06:10:59+00:00</time>
        <ele>1877.0</ele>
      </trkpt>
      <trkpt lat="44.3224" lon="6.85663">
        <time>2023-04-10T06:11:00+00:00</time>
        <ele>1877.0</ele>
      </trkpt>
      <trkpt lat="44.32238" lon="6.85665">
        <time>2023-04-10T06:11:01+00:00</time>
        <ele>1877.0</ele>
      </trkpt>
      <trkpt lat="44.32238" lon="6.85665">
        <time>2023-04-10T06:11:02+00:00</time>
        <ele>1877.0</ele>
      </trkpt>
      <trkpt lat="44.32236" lon="6.85665">
        <time>2023-04-10T06:11:03+00:00</time>
        <ele>1878.0</ele>
      </trkpt>
      <trkpt lat="44.32236" lon="6.85665">
        <time>2023-04-10T06:11:04+00:00</time>
        <ele>1878.0</ele>
      </trkpt>
      <trkpt lat="44.32236" lon="6.85665">
        <time>2023-04-10T06:11:05+00:00</time>
        <ele>1878.0</ele>
      </trkpt>
      <trkpt lat="44.32236" lon="6.85665">
        <time>2023-04-10T06:11:06+00:00</time>
        <ele>1878.0</ele>
      </trkpt>
      <trkpt lat="44.32235" lon="6.85668">
        <time>2023-04-10T06:11:07+00:00</time>
        <ele>1878.0</ele>
      </trkpt>
      <trkpt lat="44.32235" lon="6.85668">
        <time>2023-04-10T06:11:08+00:00</time>
        <ele>1878.0</ele>
      </trkpt>
      <trkpt lat="44.32235" lon="6.85668">
        <time>2023-04-10T06:11:09+00:00</time>
        <ele>1878.0</ele>
      </trkpt>
      <trkpt lat="44.32233" lon="6.8567">
        <time>2023-04-10T06:11:10+00:00</time>
        <ele>1878.0</ele>
      </trkpt>
      <trkpt lat="44.32233" lon="6.8567">
        <time>2023-04-10T06:11:11+00:00</time>
        <ele>1878.0</ele>
      </trkpt>
      <trkpt lat="44.3223" lon="6.8567">
        <time>2023-04-10T06:11:12+00:00</time>
        <ele>1879.0</ele>
      </trkpt>
      <trkpt lat="44.3223" lon="6.8567">
        <time>2023-04-10T06:11:13+00:00</time>
        <ele>1879.0</ele>
      </trkpt>
      <trkpt lat="44.3223" lon="6.8567">
        <time>2023-04-10T06:11:14+00:00</time>
        <ele>1879.0</ele>
      </trkpt>
      <trkpt lat="44.32229" lon="6.85672">
        <time>2023-04-10T06:11:15+00:00</time>
        <ele>1879.0</ele>
      </trkpt>
      <trkpt lat="44.32229" lon="6.85672">
        <time>2023-04-10T06:11:16+00:00</time>
        <ele>1879.0</ele>
      </trkpt>
      <trkpt lat="44.32229" lon="6.85672">
        <time>2023-04-10T06:11:17+00:00</time>
        <ele>1879.0</ele>
      </trkpt>
      <trkpt lat="44.32227" lon="6.85674">
        <time>2023-04-10T06:11:18+00:00</time>
        <ele>1879.0</ele>
      </trkpt>
      <trkpt lat="44.32227" lon="6.85674">
        <time>2023-04-10T06:11:19+00:00</time>
        <ele>1879.0</ele>
      </trkpt>
      <trkpt lat="44.32227" lon="6.85674">
        <time>2023-04-10T06:11:20+00:00</time>
        <ele>1879.0</ele>
      </trkpt>
      <trkpt lat="44.32224" lon="6.85675">
        <time>2023-04-10T06:11:21+00:00</time>
        <ele>1880.0</ele>
      </trkpt>
      <trkpt lat="44.32224" lon="6.85675">
        <time>2023-04-10T06:11:22+00:00</time>
        <ele>1880.0</ele>
      </trkpt>
      <trkpt lat="44.32224" lon="6.85675">
        <time>2023-04-10T06:11:23+00:00</time>
        <ele>1880.0</ele>
      </trkpt>
      <trkpt lat="44.32222" lon="6.85676">
        <time>2023-04-10T06:11:24+00:00</time>
        <ele>1880.0</ele>
      </trkpt>
      <trkpt lat="44.32222" lon="6.85676">
        <time>2023-04-10T06:11:25+00:00</time>
        <ele>1880.0</ele>
      </trkpt>
      <trkpt lat="44.32222" lon="6.85676">
        <time>2023-04-10T06:11:27+00:00</time>
        <ele>1880.0</ele>
      </trkpt>
      <trkpt lat="44.3222" lon="6.85677">
        <time>2023-04-10T06:11:28+00:00</time>
        <ele>1881.0</ele>
      </trkpt>
      <trkpt lat="44.3222" lon="6.85677">
        <time>2023-04-10T06:11:29+00:00</time>
        <ele>1881.0</ele>
      </trkpt>
      <trkpt lat="44.3222" lon="6.85677">
        <time>2023-04-10T06:11:30+00:00</time>
        <ele>1881.0</ele>
      </trkpt>
      <trkpt lat="44.32218" lon="6.85678">
        <time>2023-04-10T06:11:31+00:00</time>
        <ele>1881.0</ele>
      </trkpt>
      <trkpt lat="44.32218" lon="6.85678">
        <time>2023-04-10T06:11:32+00:00</time>
        <ele>1881.0</ele>
      </trkpt>
      <trkpt lat="44.32218" lon="6.85678">
        <time>2023-04-10T06:11:33+00:00</time>
        <ele>1881.0</ele>
      </trkpt>
      <trkpt lat="44.32215" lon="6.8568">
        <time>2023-04-10T06:11:34+00:00</time>
        <ele>1881.0</ele>
      </trkpt>
      <trkpt lat="44.32215" lon="6.8568">
        <time>2023-04-10T06:11:35+00:00</time>
        <ele>1881.0</ele>
      </trkpt>
      <trkpt lat="44.32215" lon="6.8568">
        <time>2023-04-10T06:11:36+00:00</time>
        <ele>1881.0</ele>
      </trkpt>
      <trkpt lat="44.32213" lon="6.85681">
        <time>2023-04-10T06:11:37+00:00</time>
        <ele>1882.0</ele>
      </trkpt>
      <trkpt lat="44.32213" lon="6.85681">
        <time>2023-04-10T06:11:38+00:00</time>
        <ele>1882.0</ele>
      </trkpt>
      <trkpt lat="44.32213" lon="6.85681">
        <time>2023-04-10T06:11:39+00:00</time>
        <ele>1882.0</ele>
      </trkpt>
      <trkpt lat="44.32211" lon="6.85682">
        <time>2023-04-10T06:11:40+00:00</time>
        <ele>1882.0</ele>
      </trkpt>
      <trkpt lat="44.32211" lon="6.85682">
        <time>2023-04-10T06:11:41+00:00</time>
        <ele>1882.0</ele>
      </trkpt>
      <trkpt lat="44.32209" lon="6.85683">
        <time>2023-04-10T06:11:42+00:00</time>
        <ele>1882.0</ele>
      </trkpt>
      <trkpt lat="44.32209" lon="6.85683">
        <time>2023-04-10T06:11:43+00:00</time>
        <ele>1882.0</ele>
      </trkpt>
      <trkpt lat="44.32209" lon="6.85683">
        <time>2023-04-10T06:11:44+00:00</time>
        <ele>1882.0</ele>
      </trkpt>
      <trkpt lat="44.32206" lon="6.85684">
        <time>2023-04-10T06:11:45+00:00</time>
        <ele>1882.0</ele>
      </trkpt>
      <trkpt lat="44.32206" lon="6.85684">
        <time>2023-04-10T06:11:46+00:00</time>
        <ele>1882.0</ele>
      </trkpt>
      <trkpt lat="44.32206" lon="6.85684">
        <time>2023-04-10T06:11:47+00:00</time>
        <ele>1882.0</ele>
      </trkpt>
      <trkpt lat="44.32204" lon="6.85685">
        <time>2023-04-10T06:11:48+00:00</time>
        <ele>1883.0</ele>
      </trkpt>
      <trkpt lat="44.32204" lon="6.85685">
        <time>2023-04-10T06:11:49+00:00</time>
        <ele>1883.0</ele>
      </trkpt>
      <trkpt lat="44.32204" lon="6.85685">
        <time>2023-04-10T06:11:50+00:00</time>
        <ele>1883.0</ele>
      </trkpt>
      <trkpt lat="44.32202" lon="6.85686">
        <time>2023-04-10T06:11:51+00:00</time>
        <ele>1883.0</ele>
      </trkpt>
      <trkpt lat="44.32202" lon="6.85686">
        <time>2023-04-10T06:11:52+00:00</time>
        <ele>1883.0</ele>
      </trkpt>
      <trkpt lat="44.32199" lon="6.85687">
        <time>2023-04-10T06:11:53+00:00</time>
        <ele>1883.0</ele>
      </trkpt>
      <trkpt lat="44.32199" lon="6.85687">
        <time>2023-04-10T06:11:54+00:00</time>
        <ele>1883.0</ele>
      </trkpt>
      <trkpt lat="44.32197" lon="6.85688">
        <time>2023-04-10T06:11:55+00:00</time>
        <ele>1884.0</ele>
      </trkpt>
      <trkpt lat="44.32197" lon="6.85688">
        <time>2023-04-10T06:11:56+00:00</time>
        <ele>1884.0</ele>
      </trkpt>
      <trkpt lat="44.32196" lon="6.85689">
        <time>2023-04-10T06:11:57+00:00</time>
        <ele>1884.0</ele>
      </trkpt>
      <trkpt lat="44.32196" lon="6.85689">
        <time>2023-04-10T06:11:58+00:00</time>
        <ele>1884.0</ele>
      </trkpt>
      <trkpt lat="44.32196" lon="6.85689">
        <time>2023-04-10T06:11:59+00:00</time>
        <ele>1884.0</ele>
      </trkpt>
      <trkpt lat="44.32193" lon="6.8569">
        <time>2023-04-10T06:12:00+00:00</time>
        <ele>1884.0</ele>
      </trkpt>
      <trkpt lat="44.32193" lon="6.8569">
        <time>2023-04-10T06:12:01+00:00</time>
        <ele>1884.0</ele>
      </trkpt>
      <trkpt lat="44.32193" lon="6.8569">
        <time>2023-04-10T06:12:02+00:00</time>
        <ele>1884.0</ele>
      </trkpt>
      <trkpt lat="44.32191" lon="6.85691">
        <time>2023-04-10T06:12:03+00:00</time>
        <ele>1885.0</ele>
      </trkpt>
      <trkpt lat="44.32191" lon="6.85691">
        <time>2023-04-10T06:12:04+00:00</time>
        <ele>1885.0</ele>
      </trkpt>
      <trkpt lat="44.32191" lon="6.85691">
        <time>2023-04-10T06:12:05+00:00</time>
        <ele>1885.0</ele>
      </trkpt>
      <trkpt lat="44.32188" lon="6.85693">
        <time>2023-04-10T06:12:06+00:00</time>
        <ele>1885.0</ele>
      </trkpt>
      <trkpt lat="44.32188" lon="6.85693">
        <time>2023-04-10T06:12:07+00:00</time>
        <ele>1885.0</ele>
      </trkpt>
      <trkpt lat="44.32187" lon="6.85694">
        <time>2023-04-10T06:12:08+00:00</time>
        <ele>1885.0</ele>
      </trkpt>
      <trkpt lat="44.32187" lon="6.85694">
        <time>2023-04-10T06:12:09+00:00</time>
        <ele>1885.0</ele>
      </trkpt>
      <trkpt lat="44.32187" lon="6.85694">
        <time>2023-04-10T06:12:10+00:00</time>
        <ele>1885.0</ele>
      </trkpt>
      <trkpt lat="44.32185" lon="6.85697">
        <time>2023-04-10T06:12:11+00:00</time>
        <ele>1885.0</ele>
      </trkpt>
      <trkpt lat="44.32185" lon="6.85697">
        <time>2023-04-10T06:12:12+00:00</time>
        <ele>1885.0</ele>
      </trkpt>
      <trkpt lat="44.32183" lon="6.85699">
        <time>2023-04-10T06:12:13+00:00</time>
        <ele>1885.0</ele>
      </trkpt>
      <trkpt lat="44.32183" lon="6.85699">
        <time>2023-04-10T06:12:14+00:00</time>
        <ele>1885.0</ele>
      </trkpt>
      <trkpt lat="44.32181" lon="6.857">
        <time>2023-04-10T06:12:15+00:00</time>
        <ele>1885.0</ele>
      </trkpt>
      <trkpt lat="44.32181" lon="6.857">
        <time>2023-04-10T06:12:16+00:00</time>
        <ele>1885.0</ele>
      </trkpt>
      <trkpt lat="44.32179" lon="6.857">
        <time>2023-04-10T06:12:17+00:00</time>
        <ele>1886.0</ele>
      </trkpt>
      <trkpt lat="44.32179" lon="6.857">
        <time>2023-04-10T06:12:18+00:00</time>
        <ele>1886.0</ele>
      </trkpt>
      <trkpt lat="44.32177" lon="6.85701">
        <time>2023-04-10T06:12:19+00:00</time>
        <ele>1886.0</ele>
      </trkpt>
      <trkpt lat="44.32177" lon="6.85701">
        <time>2023-04-10T06:12:20+00:00</time>
        <ele>1886.0</ele>
      </trkpt>
      <trkpt lat="44.32175" lon="6.85702">
        <time>2023-04-10T06:12:21+00:00</time>
        <ele>1887.0</ele>
      </trkpt>
      <trkpt lat="44.32175" lon="6.85702">
        <time>2023-04-10T06:12:22+00:00</time>
        <ele>1887.0</ele>
      </trkpt>
      <trkpt lat="44.32173" lon="6.85702">
        <time>2023-04-10T06:12:23+00:00</time>
        <ele>1887.0</ele>
      </trkpt>
      <trkpt lat="44.32173" lon="6.85702">
        <time>2023-04-10T06:12:24+00:00</time>
        <ele>1887.0</ele>
      </trkpt>
      <trkpt lat="44.32173" lon="6.85702">
        <time>2023-04-10T06:12:25+00:00</time>
        <ele>1887.0</ele>
      </trkpt>
      <trkpt lat="44.32171" lon="6.85704">
        <time>2023-04-10T06:12:26+00:00</time>
        <ele>1887.0</ele>
      </trkpt>
      <trkpt lat="44.32171" lon="6.85704">
        <time>2023-04-10T06:12:27+00:00</time>
        <ele>1887.0</ele>
      </trkpt>
      <trkpt lat="44.32169" lon="6.85706">
        <time>2023-04-10T06:12:28+00:00</time>
        <ele>1887.0</ele>
      </trkpt>
      <trkpt lat="44.32169" lon="6.85706">
        <time>2023-04-10T06:12:29+00:00</time>
        <ele>1887.0</ele>
      </trkpt>
      <trkpt lat="44.32167" lon="6.85706">
        <time>2023-04-10T06:12:30+00:00</time>
        <ele>1888.0</ele>
      </trkpt>
      <trkpt lat="44.32167" lon="6.85706">
        <time>2023-04-10T06:12:31+00:00</time>
        <ele>1888.0</ele>
      </trkpt>
      <trkpt lat="44.32165" lon="6.85707">
        <time>2023-04-10T06:12:32+00:00</time>
        <ele>1888.0</ele>
      </trkpt>
      <trkpt lat="44.32165" lon="6.85707">
        <time>2023-04-10T06:12:33+00:00</time>
        <ele>1888.0</ele>
      </trkpt>
      <trkpt lat="44.32164" lon="6.85708">
        <time>2023-04-10T06:12:34+00:00</time>
        <ele>1888.0</ele>
      </trkpt>
      <trkpt lat="44.32164" lon="6.85708">
        <time>2023-04-10T06:12:35+00:00</time>
        <ele>1888.0</ele>
      </trkpt>
      <trkpt lat="44.32164" lon="6.85708">
        <time>2023-04-10T06:12:36+00:00</time>
        <ele>1888.0</ele>
      </trkpt>
      <trkpt lat="44.32162" lon="6.85709">
        <time>2023-04-10T06:12:37+00:00</time>
        <ele>1888.0</ele>
      </trkpt>
      <trkpt lat="44.32162" lon="6.85709">
        <time>2023-04-10T06:12:38+00:00</time>
        <ele>1888.0</ele>
      </trkpt>
      <trkpt lat="44.3216" lon="6.85709">
        <time>2023-04-10T06:12:39+00:00</time>
        <ele>1888.0</ele>
      </trkpt>
      <trkpt lat="44.3216" lon="6.85709">
        <time>2023-04-10T06:12:40+00:00</time>
        <ele>1888.0</ele>
      </trkpt>
      <trkpt lat="44.32158" lon="6.85709">
        <time>2023-04-10T06:12:41+00:00</time>
        <ele>1888.0</ele>
      </trkpt>
      <trkpt lat="44.32158" lon="6.85709">
        <time>2023-04-10T06:12:42+00:00</time>
        <ele>1888.0</ele>
      </trkpt>
      <trkpt lat="44.32158" lon="6.85709">
        <time>2023-04-10T06:12:43+00:00</time>
        <ele>1888.0</ele>
      </trkpt>
      <trkpt lat="44.32156" lon="6.85711">
        <time>2023-04-10T06:12:44+00:00</time>
        <ele>1888.0</ele>
      </trkpt>
      <trkpt lat="44.32156" lon="6.85711">
        <time>2023-04-10T06:12:45+00:00</time>
        <ele>1888.0</ele>
      </trkpt>
      <trkpt lat="44.32153" lon="6.85712">
        <time>2023-04-10T06:12:46+00:00</time>
        <ele>1888.0</ele>
      </trkpt>
      <trkpt lat="44.32153" lon="6.85712">
        <time>2023-04-10T06:12:47+00:00</time>
        <ele>1888.0</ele>
      </trkpt>
      <trkpt lat="44.32151" lon="6.85713">
        <time>2023-04-10T06:12:48+00:00</time>
        <ele>1889.0</ele>
      </trkpt>
      <trkpt lat="44.32151" lon="6.85713">
        <time>2023-04-10T06:12:49+00:00</time>
        <ele>1889.0</ele>
      </trkpt>
      <trkpt lat="44.32151" lon="6.85713">
        <time>2023-04-10T06:12:50+00:00</time>
        <ele>1889.0</ele>
      </trkpt>
      <trkpt lat="44.32149" lon="6.85714">
        <time>2023-04-10T06:12:51+00:00</time>
        <ele>1889.0</ele>
      </trkpt>
      <trkpt lat="44.32149" lon="6.85714">
        <time>2023-04-10T06:12:52+00:00</time>
        <ele>1889.0</ele>
      </trkpt>
      <trkpt lat="44.32146" lon="6.85716">
        <time>2023-04-10T06:12:53+00:00</time>
        <ele>1889.0</ele>
      </trkpt>
      <trkpt lat="44.32146" lon="6.85716">
        <time>2023-04-10T06:12:54+00:00</time>
        <ele>1889.0</ele>
      </trkpt>
      <trkpt lat="44.32144" lon="6.85717">
        <time>2023-04-10T06:12:55+00:00</time>
        <ele>1889.0</ele>
      </trkpt>
      <trkpt lat="44.32144" lon="6.85717">
        <time>2023-04-10T06:12:56+00:00</time>
        <ele>1889.0</ele>
      </trkpt>
      <trkpt lat="44.32142" lon="6.85718">
        <time>2023-04-10T06:12:57+00:00</time>
        <ele>1889.0</ele>
      </trkpt>
      <trkpt lat="44.32142" lon="6.85718">
        <time>2023-04-10T06:12:58+00:00</time>
        <ele>1889.0</ele>
      </trkpt>
      <trkpt lat="44.32142" lon="6.85718">
        <time>2023-04-10T06:12:59+00:00</time>
        <ele>1889.0</ele>
      </trkpt>
      <trkpt lat="44.32142" lon="6.85718">
        <time>2023-04-10T06:13:00+00:00</time>
        <ele>1889.0</ele>
      </trkpt>
      <trkpt lat="44.32142" lon="6.85718">
        <time>2023-04-10T06:13:01+00:00</time>
        <ele>1889.0</ele>
      </trkpt>
      <trkpt lat="44.32142" lon="6.85718">
        <time>2023-04-10T06:13:02+00:00</time>
        <ele>1889.0</ele>
      </trkpt>
      <trkpt lat="44.32142" lon="6.85718">
        <time>2023-04-10T06:13:03+00:00</time>
        <ele>1889.0</ele>
      </trkpt>
      <trkpt lat="44.3214" lon="6.85719">
        <time>2023-04-10T06:13:04+00:00</time>
        <ele>1889.0</ele>
      </trkpt>
      <trkpt lat="44.3214" lon="6.85719">
        <time>2023-04-10T06:13:05+00:00</time>
        <ele>1889.0</ele>
      </trkpt>
      <trkpt lat="44.3214" lon="6.85719">
        <time>2023-04-10T06:13:06+00:00</time>
        <ele>1889.0</ele>
      </trkpt>
      <trkpt lat="44.32137" lon="6.85721">
        <time>2023-04-10T06:13:07+00:00</time>
        <ele>1889.0</ele>
      </trkpt>
      <trkpt lat="44.32137" lon="6.85721">
        <time>2023-04-10T06:13:08+00:00</time>
        <ele>1889.0</ele>
      </trkpt>
      <trkpt lat="44.32135" lon="6.85722">
        <time>2023-04-10T06:13:09+00:00</time>
        <ele>1889.0</ele>
      </trkpt>
      <trkpt lat="44.32135" lon="6.85722">
        <time>2023-04-10T06:13:10+00:00</time>
        <ele>1889.0</ele>
      </trkpt>
      <trkpt lat="44.32133" lon="6.85724">
        <time>2023-04-10T06:13:11+00:00</time>
        <ele>1889.0</ele>
      </trkpt>
      <trkpt lat="44.32133" lon="6.85724">
        <time>2023-04-10T06:13:12+00:00</time>
        <ele>1889.0</ele>
      </trkpt>
      <trkpt lat="44.32131" lon="6.85725">
        <time>2023-04-10T06:13:13+00:00</time>
        <ele>1890.0</ele>
      </trkpt>
      <trkpt lat="44.32131" lon="6.85725">
        <time>2023-04-10T06:13:14+00:00</time>
        <ele>1890.0</ele>
      </trkpt>
      <trkpt lat="44.32129" lon="6.85727">
        <time>2023-04-10T06:13:15+00:00</time>
        <ele>1890.0</ele>
      </trkpt>
      <trkpt lat="44.32129" lon="6.85727">
        <time>2023-04-10T06:13:16+00:00</time>
        <ele>1890.0</ele>
      </trkpt>
      <trkpt lat="44.32127" lon="6.85729">
        <time>2023-04-10T06:13:17+00:00</time>
        <ele>1890.0</ele>
      </trkpt>
      <trkpt lat="44.32127" lon="6.85729">
        <time>2023-04-10T06:13:18+00:00</time>
        <ele>1890.0</ele>
      </trkpt>
      <trkpt lat="44.32125" lon="6.85732">
        <time>2023-04-10T06:13:19+00:00</time>
        <ele>1890.0</ele>
      </trkpt>
      <trkpt lat="44.32125" lon="6.85732">
        <time>2023-04-10T06:13:20+00:00</time>
        <ele>1890.0</ele>
      </trkpt>
      <trkpt lat="44.32123" lon="6.85734">
        <time>2023-04-10T06:13:21+00:00</time>
        <ele>1889.0</ele>
      </trkpt>
      <trkpt lat="44.32123" lon="6.85734">
        <time>2023-04-10T06:13:22+00:00</time>
        <ele>1889.0</ele>
      </trkpt>
      <trkpt lat="44.32122" lon="6.85735">
        <time>2023-04-10T06:13:23+00:00</time>
        <ele>1889.0</ele>
      </trkpt>
      <trkpt lat="44.32122" lon="6.85735">
        <time>2023-04-10T06:13:24+00:00</time>
        <ele>1889.0</ele>
      </trkpt>
      <trkpt lat="44.3212" lon="6.85736">
        <time>2023-04-10T06:13:25+00:00</time>
        <ele>1889.0</ele>
      </trkpt>
      <trkpt lat="44.3212" lon="6.85736">
        <time>2023-04-10T06:13:26+00:00</time>
        <ele>1889.0</ele>
      </trkpt>
      <trkpt lat="44.32119" lon="6.85738">
        <time>2023-04-10T06:13:27+00:00</time>
        <ele>1889.0</ele>
      </trkpt>
      <trkpt lat="44.32119" lon="6.85738">
        <time>2023-04-10T06:13:28+00:00</time>
        <ele>1889.0</ele>
      </trkpt>
      <trkpt lat="44.32116" lon="6.8574">
        <time>2023-04-10T06:13:29+00:00</time>
        <ele>1889.0</ele>
      </trkpt>
      <trkpt lat="44.32116" lon="6.8574">
        <time>2023-04-10T06:13:30+00:00</time>
        <ele>1889.0</ele>
      </trkpt>
      <trkpt lat="44.32114" lon="6.85742">
        <time>2023-04-10T06:13:31+00:00</time>
        <ele>1889.0</ele>
      </trkpt>
      <trkpt lat="44.32114" lon="6.85742">
        <time>2023-04-10T06:13:32+00:00</time>
        <ele>1889.0</ele>
      </trkpt>
      <trkpt lat="44.32112" lon="6.85743">
        <time>2023-04-10T06:13:33+00:00</time>
        <ele>1889.0</ele>
      </trkpt>
      <trkpt lat="44.32112" lon="6.85743">
        <time>2023-04-10T06:13:34+00:00</time>
        <ele>1889.0</ele>
      </trkpt>
      <trkpt lat="44.3211" lon="6.85744">
        <time>2023-04-10T06:13:35+00:00</time>
        <ele>1889.0</ele>
      </trkpt>
      <trkpt lat="44.3211" lon="6.85744">
        <time>2023-04-10T06:13:36+00:00</time>
        <ele>1889.0</ele>
      </trkpt>
      <trkpt lat="44.32108" lon="6.85746">
        <time>2023-04-10T06:13:37+00:00</time>
        <ele>1889.0</ele>
      </trkpt>
      <trkpt lat="44.32108" lon="6.85746">
        <time>2023-04-10T06:13:38+00:00</time>
        <ele>1889.0</ele>
      </trkpt>
      <trkpt lat="44.32107" lon="6.85748">
        <time>2023-04-10T06:13:39+00:00</time>
        <ele>1889.0</ele>
      </trkpt>
      <trkpt lat="44.32107" lon="6.85748">
        <time>2023-04-10T06:13:40+00:00</time>
        <ele>1889.0</ele>
      </trkpt>
      <trkpt lat="44.32105" lon="6.85749">
        <time>2023-04-10T06:13:41+00:00</time>
        <ele>1889.0</ele>
      </trkpt>
      <trkpt lat="44.32105" lon="6.85749">
        <time>2023-04-10T06:13:42+00:00</time>
        <ele>1889.0</ele>
      </trkpt>
      <trkpt lat="44.32102" lon="6.85751">
        <time>2023-04-10T06:13:43+00:00</time>
        <ele>1889.0</ele>
      </trkpt>
      <trkpt lat="44.32102" lon="6.85751">
        <time>2023-04-10T06:13:44+00:00</time>
        <ele>1889.0</ele>
      </trkpt>
      <trkpt lat="44.321" lon="6.85752">
        <time>2023-04-10T06:13:45+00:00</time>
        <ele>1889.0</ele>
      </trkpt>
      <trkpt lat="44.321" lon="6.85752">
        <time>2023-04-10T06:13:46+00:00</time>
        <ele>1889.0</ele>
      </trkpt>
      <trkpt lat="44.32098" lon="6.85754">
        <time>2023-04-10T06:13:47+00:00</time>
        <ele>1889.0</ele>
      </trkpt>
      <trkpt lat="44.32098" lon="6.85754">
        <time>2023-04-10T06:13:48+00:00</time>
        <ele>1889.0</ele>
      </trkpt>
      <trkpt lat="44.32096" lon="6.85755">
        <time>2023-04-10T06:13:49+00:00</time>
        <ele>1889.0</ele>
      </trkpt>
      <trkpt lat="44.32096" lon="6.85755">
        <time>2023-04-10T06:13:50+00:00</time>
        <ele>1889.0</ele>
      </trkpt>
      <trkpt lat="44.32094" lon="6.85757">
        <time>2023-04-10T06:13:51+00:00</time>
        <ele>1889.0</ele>
      </trkpt>
      <trkpt lat="44.32094" lon="6.85757">
        <time>2023-04-10T06:13:52+00:00</time>
        <ele>1889.0</ele>
      </trkpt>
      <trkpt lat="44.32091" lon="6.85759">
        <time>2023-04-10T06:13:53+00:00</time>
        <ele>1889.0</ele>
      </trkpt>
      <trkpt lat="44.32091" lon="6.85759">
        <time>2023-04-10T06:13:54+00:00</time>
        <ele>1889.0</ele>
      </trkpt>
      <trkpt lat="44.32089" lon="6.8576">
        <time>2023-04-10T06:13:55+00:00</time>
        <ele>1889.0</ele>
      </trkpt>
      <trkpt lat="44.32089" lon="6.8576">
        <time>2023-04-10T06:13:56+00:00</time>
        <ele>1889.0</ele>
      </trkpt>
      <trkpt lat="44.32086" lon="6.85761">
        <time>2023-04-10T06:13:57+00:00</time>
        <ele>1889.0</ele>
      </trkpt>
      <trkpt lat="44.32086" lon="6.85761">
        <time>2023-04-10T06:13:58+00:00</time>
        <ele>1889.0</ele>
      </trkpt>
      <trkpt lat="44.32086" lon="6.85761">
        <time>2023-04-10T06:13:59+00:00</time>
        <ele>1889.0</ele>
      </trkpt>
      <trkpt lat="44.32084" lon="6.85762">
        <time>2023-04-10T06:14:00+00:00</time>
        <ele>1889.0</ele>
      </trkpt>
      <trkpt lat="44.32084" lon="6.85762">
        <time>2023-04-10T06:14:01+00:00</time>
        <ele>1889.0</ele>
      </trkpt>
      <trkpt lat="44.32082" lon="6.85763">
        <time>2023-04-10T06:14:02+00:00</time>
        <ele>1889.0</ele>
      </trkpt>
      <trkpt lat="44.32082" lon="6.85763">
        <time>2023-04-10T06:14:03+00:00</time>
        <ele>1889.0</ele>
      </trkpt>
      <trkpt lat="44.32079" lon="6.85764">
        <time>2023-04-10T06:14:04+00:00</time>
        <ele>1890.0</ele>
      </trkpt>
      <trkpt lat="44.32079" lon="6.85764">
        <time>2023-04-10T06:14:05+00:00</time>
        <ele>1890.0</ele>
      </trkpt>
      <trkpt lat="44.32077" lon="6.85765">
        <time>2023-04-10T06:14:06+00:00</time>
        <ele>1890.0</ele>
      </trkpt>
      <trkpt lat="44.32077" lon="6.85765">
        <time>2023-04-10T06:14:07+00:00</time>
        <ele>1890.0</ele>
      </trkpt>
      <trkpt lat="44.32074" lon="6.85767">
        <time>2023-04-10T06:14:08+00:00</time>
        <ele>1890.0</ele>
      </trkpt>
      <trkpt lat="44.32074" lon="6.85767">
        <time>2023-04-10T06:14:09+00:00</time>
        <ele>1890.0</ele>
      </trkpt>
      <trkpt lat="44.32071" lon="6.85768">
        <time>2023-04-10T06:14:10+00:00</time>
        <ele>1890.0</ele>
      </trkpt>
      <trkpt lat="44.32071" lon="6.85768">
        <time>2023-04-10T06:14:11+00:00</time>
        <ele>1890.0</ele>
      </trkpt>
      <trkpt lat="44.32069" lon="6.85769">
        <time>2023-04-10T06:14:12+00:00</time>
        <ele>1890.0</ele>
      </trkpt>
      <trkpt lat="44.32069" lon="6.85769">
        <time>2023-04-10T06:14:13+00:00</time>
        <ele>1890.0</ele>
      </trkpt>
      <trkpt lat="44.32067" lon="6.8577">
        <time>2023-04-10T06:14:14+00:00</time>
        <ele>1890.0</ele>
      </trkpt>
      <trkpt lat="44.32067" lon="6.8577">
        <time>2023-04-10T06:14:15+00:00</time>
        <ele>1890.0</ele>
      </trkpt>
      <trkpt lat="44.32064" lon="6.85771">
        <time>2023-04-10T06:14:16+00:00</time>
        <ele>1891.0</ele>
      </trkpt>
      <trkpt lat="44.32064" lon="6.85771">
        <time>2023-04-10T06:14:17+00:00</time>
        <ele>1891.0</ele>
      </trkpt>
      <trkpt lat="44.32061" lon="6.85772">
        <time>2023-04-10T06:14:18+00:00</time>
        <ele>1891.0</ele>
      </trkpt>
      <trkpt lat="44.32061" lon="6.85772">
        <time>2023-04-10T06:14:19+00:00</time>
        <ele>1891.0</ele>
      </trkpt>
      <trkpt lat="44.32059" lon="6.85773">
        <time>2023-04-10T06:14:20+00:00</time>
        <ele>1891.0</ele>
      </trkpt>
      <trkpt lat="44.32059" lon="6.85773">
        <time>2023-04-10T06:14:21+00:00</time>
        <ele>1891.0</ele>
      </trkpt>
      <trkpt lat="44.32059" lon="6.85773">
        <time>2023-04-10T06:14:22+00:00</time>
        <ele>1891.0</ele>
      </trkpt>
      <trkpt lat="44.32059" lon="6.85773">
        <time>2023-04-10T06:14:23+00:00</time>
        <ele>1891.0</ele>
      </trkpt>
      <trkpt lat="44.32056" lon="6.85772">
        <time>2023-04-10T06:14:24+00:00</time>
        <ele>1892.0</ele>
      </trkpt>
      <trkpt lat="44.32056" lon="6.85772">
        <time>2023-04-10T06:14:25+00:00</time>
        <ele>1892.0</ele>
      </trkpt>
      <trkpt lat="44.32053" lon="6.85774">
        <time>2023-04-10T06:14:26+00:00</time>
        <ele>1892.0</ele>
      </trkpt>
      <trkpt lat="44.32053" lon="6.85774">
        <time>2023-04-10T06:14:27+00:00</time>
        <ele>1892.0</ele>
      </trkpt>
      <trkpt lat="44.3205" lon="6.85775">
        <time>2023-04-10T06:14:28+00:00</time>
        <ele>1893.0</ele>
      </trkpt>
      <trkpt lat="44.3205" lon="6.85775">
        <time>2023-04-10T06:14:29+00:00</time>
        <ele>1893.0</ele>
      </trkpt>
      <trkpt lat="44.32048" lon="6.85775">
        <time>2023-04-10T06:14:30+00:00</time>
        <ele>1893.0</ele>
      </trkpt>
      <trkpt lat="44.32048" lon="6.85775">
        <time>2023-04-10T06:14:31+00:00</time>
        <ele>1893.0</ele>
      </trkpt>
      <trkpt lat="44.32045" lon="6.85775">
        <time>2023-04-10T06:14:32+00:00</time>
        <ele>1894.0</ele>
      </trkpt>
      <trkpt lat="44.32045" lon="6.85775">
        <time>2023-04-10T06:14:33+00:00</time>
        <ele>1894.0</ele>
      </trkpt>
      <trkpt lat="44.32045" lon="6.85775">
        <time>2023-04-10T06:14:34+00:00</time>
        <ele>1894.0</ele>
      </trkpt>
      <trkpt lat="44.32043" lon="6.85776">
        <time>2023-04-10T06:14:35+00:00</time>
        <ele>1895.0</ele>
      </trkpt>
      <trkpt lat="44.32043" lon="6.85776">
        <time>2023-04-10T06:14:36+00:00</time>
        <ele>1895.0</ele>
      </trkpt>
      <trkpt lat="44.3204" lon="6.85777">
        <time>2023-04-10T06:14:37+00:00</time>
        <ele>1896.0</ele>
      </trkpt>
      <trkpt lat="44.3204" lon="6.85777">
        <time>2023-04-10T06:14:38+00:00</time>
        <ele>1896.0</ele>
      </trkpt>
      <trkpt lat="44.32038" lon="6.85778">
        <time>2023-04-10T06:14:39+00:00</time>
        <ele>1896.0</ele>
      </trkpt>
      <trkpt lat="44.32038" lon="6.85778">
        <time>2023-04-10T06:14:40+00:00</time>
        <ele>1896.0</ele>
      </trkpt>
      <trkpt lat="44.32038" lon="6.85778">
        <time>2023-04-10T06:14:41+00:00</time>
        <ele>1896.0</ele>
      </trkpt>
      <trkpt lat="44.32037" lon="6.8578">
        <time>2023-04-10T06:14:42+00:00</time>
        <ele>1896.0</ele>
      </trkpt>
      <trkpt lat="44.32037" lon="6.8578">
        <time>2023-04-10T06:14:43+00:00</time>
        <ele>1896.0</ele>
      </trkpt>
      <trkpt lat="44.32035" lon="6.85782">
        <time>2023-04-10T06:14:44+00:00</time>
        <ele>1896.0</ele>
      </trkpt>
      <trkpt lat="44.32035" lon="6.85782">
        <time>2023-04-10T06:14:45+00:00</time>
        <ele>1896.0</ele>
      </trkpt>
      <trkpt lat="44.32034" lon="6.85785">
        <time>2023-04-10T06:14:46+00:00</time>
        <ele>1896.0</ele>
      </trkpt>
      <trkpt lat="44.32034" lon="6.85785">
        <time>2023-04-10T06:14:47+00:00</time>
        <ele>1896.0</ele>
      </trkpt>
      <trkpt lat="44.32033" lon="6.85787">
        <time>2023-04-10T06:14:48+00:00</time>
        <ele>1896.0</ele>
      </trkpt>
      <trkpt lat="44.32033" lon="6.85787">
        <time>2023-04-10T06:14:49+00:00</time>
        <ele>1896.0</ele>
      </trkpt>
      <trkpt lat="44.32031" lon="6.8579">
        <time>2023-04-10T06:14:50+00:00</time>
        <ele>1895.0</ele>
      </trkpt>
      <trkpt lat="44.32031" lon="6.8579">
        <time>2023-04-10T06:14:51+00:00</time>
        <ele>1895.0</ele>
      </trkpt>
      <trkpt lat="44.32031" lon="6.8579">
        <time>2023-04-10T06:14:52+00:00</time>
        <ele>1895.0</ele>
      </trkpt>
      <trkpt lat="44.3203" lon="6.85794">
        <time>2023-04-10T06:14:53+00:00</time>
        <ele>1894.0</ele>
      </trkpt>
      <trkpt lat="44.3203" lon="6.85794">
        <time>2023-04-10T06:14:54+00:00</time>
        <ele>1894.0</ele>
      </trkpt>
      <trkpt lat="44.32029" lon="6.85796">
        <time>2023-04-10T06:14:55+00:00</time>
        <ele>1894.0</ele>
      </trkpt>
      <trkpt lat="44.32029" lon="6.85796">
        <time>2023-04-10T06:14:56+00:00</time>
        <ele>1894.0</ele>
      </trkpt>
      <trkpt lat="44.32029" lon="6.85798">
        <time>2023-04-10T06:14:57+00:00</time>
        <ele>1893.0</ele>
      </trkpt>
      <trkpt lat="44.32029" lon="6.85799">
        <time>2023-04-10T06:14:58+00:00</time>
        <ele>1893.0</ele>
      </trkpt>
      <trkpt lat="44.32029" lon="6.85799">
        <time>2023-04-10T06:14:59+00:00</time>
        <ele>1893.0</ele>
      </trkpt>
      <trkpt lat="44.32026" lon="6.85801">
        <time>2023-04-10T06:15:00+00:00</time>
        <ele>1893.0</ele>
      </trkpt>
      <trkpt lat="44.32026" lon="6.85801">
        <time>2023-04-10T06:15:01+00:00</time>
        <ele>1893.0</ele>
      </trkpt>
      <trkpt lat="44.32025" lon="6.85804">
        <time>2023-04-10T06:15:02+00:00</time>
        <ele>1893.0</ele>
      </trkpt>
      <trkpt lat="44.32025" lon="6.85804">
        <time>2023-04-10T06:15:03+00:00</time>
        <ele>1893.0</ele>
      </trkpt>
      <trkpt lat="44.32021" lon="6.85806">
        <time>2023-04-10T06:15:04+00:00</time>
        <ele>1893.0</ele>
      </trkpt>
      <trkpt lat="44.32021" lon="6.85806">
        <time>2023-04-10T06:15:05+00:00</time>
        <ele>1893.0</ele>
      </trkpt>
      <trkpt lat="44.32021" lon="6.85806">
        <time>2023-04-10T06:15:06+00:00</time>
        <ele>1893.0</ele>
      </trkpt>
      <trkpt lat="44.3202" lon="6.85808">
        <time>2023-04-10T06:15:07+00:00</time>
        <ele>1893.0</ele>
      </trkpt>
      <trkpt lat="44.3202" lon="6.85808">
        <time>2023-04-10T06:15:08+00:00</time>
        <ele>1893.0</ele>
      </trkpt>
      <trkpt lat="44.32019" lon="6.8581">
        <time>2023-04-10T06:15:09+00:00</time>
        <ele>1893.0</ele>
      </trkpt>
      <trkpt lat="44.32019" lon="6.8581">
        <time>2023-04-10T06:15:10+00:00</time>
        <ele>1893.0</ele>
      </trkpt>
      <trkpt lat="44.32018" lon="6.85812">
        <time>2023-04-10T06:15:11+00:00</time>
        <ele>1892.0</ele>
      </trkpt>
      <trkpt lat="44.32018" lon="6.85812">
        <time>2023-04-10T06:15:12+00:00</time>
        <ele>1892.0</ele>
      </trkpt>
      <trkpt lat="44.32016" lon="6.85814">
        <time>2023-04-10T06:15:13+00:00</time>
        <ele>1892.0</ele>
      </trkpt>
      <trkpt lat="44.32016" lon="6.85814">
        <time>2023-04-10T06:15:14+00:00</time>
        <ele>1892.0</ele>
      </trkpt>
      <trkpt lat="44.32014" lon="6.85816">
        <time>2023-04-10T06:15:15+00:00</time>
        <ele>1892.0</ele>
      </trkpt>
      <trkpt lat="44.32014" lon="6.85816">
        <time>2023-04-10T06:15:16+00:00</time>
        <ele>1892.0</ele>
      </trkpt>
      <trkpt lat="44.32012" lon="6.85818">
        <time>2023-04-10T06:15:17+00:00</time>
        <ele>1892.0</ele>
      </trkpt>
      <trkpt lat="44.32012" lon="6.85818">
        <time>2023-04-10T06:15:18+00:00</time>
        <ele>1892.0</ele>
      </trkpt>
      <trkpt lat="44.32012" lon="6.85818">
        <time>2023-04-10T06:15:19+00:00</time>
        <ele>1892.0</ele>
      </trkpt>
      <trkpt lat="44.3201" lon="6.85819">
        <time>2023-04-10T06:15:20+00:00</time>
        <ele>1893.0</ele>
      </trkpt>
      <trkpt lat="44.3201" lon="6.85819">
        <time>2023-04-10T06:15:21+00:00</time>
        <ele>1893.0</ele>
      </trkpt>
      <trkpt lat="44.3201" lon="6.85819">
        <time>2023-04-10T06:15:22+00:00</time>
        <ele>1893.0</ele>
      </trkpt>
      <trkpt lat="44.32008" lon="6.85821">
        <time>2023-04-10T06:15:23+00:00</time>
        <ele>1892.0</ele>
      </trkpt>
      <trkpt lat="44.32008" lon="6.85821">
        <time>2023-04-10T06:15:24+00:00</time>
        <ele>1892.0</ele>
      </trkpt>
      <trkpt lat="44.32008" lon="6.85821">
        <time>2023-04-10T06:15:25+00:00</time>
        <ele>1892.0</ele>
      </trkpt>
      <trkpt lat="44.32006" lon="6.85824">
        <time>2023-04-10T06:15:26+00:00</time>
        <ele>1892.0</ele>
      </trkpt>
      <trkpt lat="44.32006" lon="6.85824">
        <time>2023-04-10T06:15:27+00:00</time>
        <ele>1892.0</ele>
      </trkpt>
      <trkpt lat="44.32004" lon="6.85825">
        <time>2023-04-10T06:15:28+00:00</time>
        <ele>1892.0</ele>
      </trkpt>
      <trkpt lat="44.32004" lon="6.85825">
        <time>2023-04-10T06:15:29+00:00</time>
        <ele>1892.0</ele>
      </trkpt>
      <trkpt lat="44.32002" lon="6.85827">
        <time>2023-04-10T06:15:30+00:00</time>
        <ele>1892.0</ele>
      </trkpt>
      <trkpt lat="44.32002" lon="6.85827">
        <time>2023-04-10T06:15:31+00:00</time>
        <ele>1892.0</ele>
      </trkpt>
      <trkpt lat="44.32" lon="6.85829">
        <time>2023-04-10T06:15:32+00:00</time>
        <ele>1892.0</ele>
      </trkpt>
      <trkpt lat="44.32" lon="6.85829">
        <time>2023-04-10T06:15:33+00:00</time>
        <ele>1892.0</ele>
      </trkpt>
      <trkpt lat="44.32" lon="6.85829">
        <time>2023-04-10T06:15:34+00:00</time>
        <ele>1892.0</ele>
      </trkpt>
      <trkpt lat="44.31999" lon="6.85831">
        <time>2023-04-10T06:15:35+00:00</time>
        <ele>1891.0</ele>
      </trkpt>
      <trkpt lat="44.31999" lon="6.85831">
        <time>2023-04-10T06:15:36+00:00</time>
        <ele>1891.0</ele>
      </trkpt>
      <trkpt lat="44.31996" lon="6.85835">
        <time>2023-04-10T06:15:37+00:00</time>
        <ele>1890.0</ele>
      </trkpt>
      <trkpt lat="44.31995" lon="6.85838">
        <time>2023-04-10T06:15:38+00:00</time>
        <ele>1889.0</ele>
      </trkpt>
      <trkpt lat="44.31995" lon="6.85838">
        <time>2023-04-10T06:15:39+00:00</time>
        <ele>1889.0</ele>
      </trkpt>
      <trkpt lat="44.31993" lon="6.8584">
        <time>2023-04-10T06:15:40+00:00</time>
        <ele>1889.0</ele>
      </trkpt>
      <trkpt lat="44.31991" lon="6.8584">
        <time>2023-04-10T06:15:41+00:00</time>
        <ele>1889.0</ele>
      </trkpt>
      <trkpt lat="44.31991" lon="6.8584">
        <time>2023-04-10T06:15:42+00:00</time>
        <ele>1889.0</ele>
      </trkpt>
      <trkpt lat="44.31988" lon="6.85841">
        <time>2023-04-10T06:15:43+00:00</time>
        <ele>1889.0</ele>
      </trkpt>
      <trkpt lat="44.31988" lon="6.85841">
        <time>2023-04-10T06:15:44+00:00</time>
        <ele>1889.0</ele>
      </trkpt>
      <trkpt lat="44.31988" lon="6.85841">
        <time>2023-04-10T06:15:45+00:00</time>
        <ele>1889.0</ele>
      </trkpt>
      <trkpt lat="44.31986" lon="6.85841">
        <time>2023-04-10T06:15:46+00:00</time>
        <ele>1889.0</ele>
      </trkpt>
      <trkpt lat="44.31986" lon="6.85841">
        <time>2023-04-10T06:15:47+00:00</time>
        <ele>1889.0</ele>
      </trkpt>
      <trkpt lat="44.31982" lon="6.8584">
        <time>2023-04-10T06:15:48+00:00</time>
        <ele>1890.0</ele>
      </trkpt>
      <trkpt lat="44.3198" lon="6.85841">
        <time>2023-04-10T06:15:49+00:00</time>
        <ele>1890.0</ele>
      </trkpt>
      <trkpt lat="44.3198" lon="6.85841">
        <time>2023-04-10T06:15:50+00:00</time>
        <ele>1890.0</ele>
      </trkpt>
      <trkpt lat="44.31978" lon="6.85842">
        <time>2023-04-10T06:15:51+00:00</time>
        <ele>1889.0</ele>
      </trkpt>
      <trkpt lat="44.31978" lon="6.85842">
        <time>2023-04-10T06:15:52+00:00</time>
        <ele>1889.0</ele>
      </trkpt>
      <trkpt lat="44.31976" lon="6.85842">
        <time>2023-04-10T06:15:53+00:00</time>
        <ele>1889.0</ele>
      </trkpt>
      <trkpt lat="44.31976" lon="6.85842">
        <time>2023-04-10T06:15:54+00:00</time>
        <ele>1889.0</ele>
      </trkpt>
      <trkpt lat="44.31973" lon="6.85843">
        <time>2023-04-10T06:15:55+00:00</time>
        <ele>1889.0</ele>
      </trkpt>
      <trkpt lat="44.31973" lon="6.85843">
        <time>2023-04-10T06:15:56+00:00</time>
        <ele>1889.0</ele>
      </trkpt>
      <trkpt lat="44.31971" lon="6.85843">
        <time>2023-04-10T06:15:57+00:00</time>
        <ele>1889.0</ele>
      </trkpt>
      <trkpt lat="44.31971" lon="6.85843">
        <time>2023-04-10T06:15:58+00:00</time>
        <ele>1889.0</ele>
      </trkpt>
      <trkpt lat="44.31968" lon="6.85844">
        <time>2023-04-10T06:15:59+00:00</time>
        <ele>1889.0</ele>
      </trkpt>
      <trkpt lat="44.31968" lon="6.85844">
        <time>2023-04-10T06:16:00+00:00</time>
        <ele>1889.0</ele>
      </trkpt>
      <trkpt lat="44.31965" lon="6.85844">
        <time>2023-04-10T06:16:01+00:00</time>
        <ele>1889.0</ele>
      </trkpt>
      <trkpt lat="44.31965" lon="6.85844">
        <time>2023-04-10T06:16:02+00:00</time>
        <ele>1889.0</ele>
      </trkpt>
      <trkpt lat="44.31963" lon="6.85844">
        <time>2023-04-10T06:16:03+00:00</time>
        <ele>1889.0</ele>
      </trkpt>
      <trkpt lat="44.31963" lon="6.85844">
        <time>2023-04-10T06:16:04+00:00</time>
        <ele>1889.0</ele>
      </trkpt>
      <trkpt lat="44.31961" lon="6.85842">
        <time>2023-04-10T06:16:05+00:00</time>
        <ele>1890.0</ele>
      </trkpt>
      <trkpt lat="44.31961" lon="6.85842">
        <time>2023-04-10T06:16:06+00:00</time>
        <ele>1890.0</ele>
      </trkpt>
      <trkpt lat="44.31959" lon="6.8584">
        <time>2023-04-10T06:16:07+00:00</time>
        <ele>1890.0</ele>
      </trkpt>
      <trkpt lat="44.31959" lon="6.8584">
        <time>2023-04-10T06:16:08+00:00</time>
        <ele>1890.0</ele>
      </trkpt>
      <trkpt lat="44.31956" lon="6.85838">
        <time>2023-04-10T06:16:09+00:00</time>
        <ele>1891.0</ele>
      </trkpt>
      <trkpt lat="44.31954" lon="6.85837">
        <time>2023-04-10T06:16:10+00:00</time>
        <ele>1892.0</ele>
      </trkpt>
      <trkpt lat="44.31954" lon="6.85837">
        <time>2023-04-10T06:16:11+00:00</time>
        <ele>1892.0</ele>
      </trkpt>
      <trkpt lat="44.31954" lon="6.85837">
        <time>2023-04-10T06:16:12+00:00</time>
        <ele>1892.0</ele>
      </trkpt>
      <trkpt lat="44.31951" lon="6.85836">
        <time>2023-04-10T06:16:13+00:00</time>
        <ele>1892.0</ele>
      </trkpt>
      <trkpt lat="44.31951" lon="6.85836">
        <time>2023-04-10T06:16:14+00:00</time>
        <ele>1892.0</ele>
      </trkpt>
      <trkpt lat="44.31949" lon="6.85837">
        <time>2023-04-10T06:16:15+00:00</time>
        <ele>1892.0</ele>
      </trkpt>
      <trkpt lat="44.31949" lon="6.85837">
        <time>2023-04-10T06:16:16+00:00</time>
        <ele>1892.0</ele>
      </trkpt>
      <trkpt lat="44.31946" lon="6.85838">
        <time>2023-04-10T06:16:17+00:00</time>
        <ele>1891.0</ele>
      </trkpt>
      <trkpt lat="44.31946" lon="6.85838">
        <time>2023-04-10T06:16:18+00:00</time>
        <ele>1891.0</ele>
      </trkpt>
      <trkpt lat="44.31943" lon="6.85838">
        <time>2023-04-10T06:16:19+00:00</time>
        <ele>1891.0</ele>
      </trkpt>
      <trkpt lat="44.31943" lon="6.85838">
        <time>2023-04-10T06:16:20+00:00</time>
        <ele>1891.0</ele>
      </trkpt>
      <trkpt lat="44.31941" lon="6.85838">
        <time>2023-04-10T06:16:21+00:00</time>
        <ele>1891.0</ele>
      </trkpt>
      <trkpt lat="44.31941" lon="6.85838">
        <time>2023-04-10T06:16:22+00:00</time>
        <ele>1891.0</ele>
      </trkpt>
      <trkpt lat="44.31939" lon="6.85837">
        <time>2023-04-10T06:16:23+00:00</time>
        <ele>1891.0</ele>
      </trkpt>
      <trkpt lat="44.31939" lon="6.85837">
        <time>2023-04-10T06:16:24+00:00</time>
        <ele>1891.0</ele>
      </trkpt>
      <trkpt lat="44.31937" lon="6.85837">
        <time>2023-04-10T06:16:25+00:00</time>
        <ele>1891.0</ele>
      </trkpt>
      <trkpt lat="44.31937" lon="6.85837">
        <time>2023-04-10T06:16:26+00:00</time>
        <ele>1891.0</ele>
      </trkpt>
      <trkpt lat="44.31935" lon="6.85838">
        <time>2023-04-10T06:16:27+00:00</time>
        <ele>1891.0</ele>
      </trkpt>
      <trkpt lat="44.31935" lon="6.85838">
        <time>2023-04-10T06:16:28+00:00</time>
        <ele>1891.0</ele>
      </trkpt>
      <trkpt lat="44.31933" lon="6.85838">
        <time>2023-04-10T06:16:29+00:00</time>
        <ele>1890.0</ele>
      </trkpt>
      <trkpt lat="44.31933" lon="6.85838">
        <time>2023-04-10T06:16:30+00:00</time>
        <ele>1890.0</ele>
      </trkpt>
      <trkpt lat="44.3193" lon="6.85837">
        <time>2023-04-10T06:16:31+00:00</time>
        <ele>1892.0</ele>
      </trkpt>
      <trkpt lat="44.3193" lon="6.85837">
        <time>2023-04-10T06:16:32+00:00</time>
        <ele>1892.0</ele>
      </trkpt>
      <trkpt lat="44.31928" lon="6.85836">
        <time>2023-04-10T06:16:33+00:00</time>
        <ele>1893.0</ele>
      </trkpt>
      <trkpt lat="44.31928" lon="6.85836">
        <time>2023-04-10T06:16:34+00:00</time>
        <ele>1893.0</ele>
      </trkpt>
      <trkpt lat="44.31926" lon="6.85835">
        <time>2023-04-10T06:16:35+00:00</time>
        <ele>1895.0</ele>
      </trkpt>
      <trkpt lat="44.31926" lon="6.85835">
        <time>2023-04-10T06:16:36+00:00</time>
        <ele>1895.0</ele>
      </trkpt>
      <trkpt lat="44.31924" lon="6.85834">
        <time>2023-04-10T06:16:37+00:00</time>
        <ele>1896.0</ele>
      </trkpt>
      <trkpt lat="44.31924" lon="6.85834">
        <time>2023-04-10T06:16:38+00:00</time>
        <ele>1896.0</ele>
      </trkpt>
      <trkpt lat="44.31921" lon="6.85834">
        <time>2023-04-10T06:16:39+00:00</time>
        <ele>1897.0</ele>
      </trkpt>
      <trkpt lat="44.31921" lon="6.85834">
        <time>2023-04-10T06:16:40+00:00</time>
        <ele>1897.0</ele>
      </trkpt>
      <trkpt lat="44.31919" lon="6.85832">
        <time>2023-04-10T06:16:41+00:00</time>
        <ele>1899.0</ele>
      </trkpt>
      <trkpt lat="44.31919" lon="6.85832">
        <time>2023-04-10T06:16:42+00:00</time>
        <ele>1899.0</ele>
      </trkpt>
      <trkpt lat="44.31917" lon="6.85831">
        <time>2023-04-10T06:16:43+00:00</time>
        <ele>1900.0</ele>
      </trkpt>
      <trkpt lat="44.31917" lon="6.85831">
        <time>2023-04-10T06:16:44+00:00</time>
        <ele>1900.0</ele>
      </trkpt>
      <trkpt lat="44.31915" lon="6.8583">
        <time>2023-04-10T06:16:45+00:00</time>
        <ele>1901.0</ele>
      </trkpt>
      <trkpt lat="44.31915" lon="6.8583">
        <time>2023-04-10T06:16:46+00:00</time>
        <ele>1901.0</ele>
      </trkpt>
      <trkpt lat="44.31912" lon="6.85831">
        <time>2023-04-10T06:16:47+00:00</time>
        <ele>1903.0</ele>
      </trkpt>
      <trkpt lat="44.31912" lon="6.85831">
        <time>2023-04-10T06:16:48+00:00</time>
        <ele>1903.0</ele>
      </trkpt>
      <trkpt lat="44.31912" lon="6.85831">
        <time>2023-04-10T06:16:49+00:00</time>
        <ele>1903.0</ele>
      </trkpt>
      <trkpt lat="44.3191" lon="6.85833">
        <time>2023-04-10T06:16:50+00:00</time>
        <ele>1903.0</ele>
      </trkpt>
      <trkpt lat="44.3191" lon="6.85833">
        <time>2023-04-10T06:16:51+00:00</time>
        <ele>1903.0</ele>
      </trkpt>
      <trkpt lat="44.31909" lon="6.85835">
        <time>2023-04-10T06:16:52+00:00</time>
        <ele>1904.0</ele>
      </trkpt>
      <trkpt lat="44.31909" lon="6.85835">
        <time>2023-04-10T06:16:53+00:00</time>
        <ele>1904.0</ele>
      </trkpt>
      <trkpt lat="44.31907" lon="6.85838">
        <time>2023-04-10T06:16:54+00:00</time>
        <ele>1904.0</ele>
      </trkpt>
      <trkpt lat="44.31907" lon="6.85838">
        <time>2023-04-10T06:16:55+00:00</time>
        <ele>1904.0</ele>
      </trkpt>
      <trkpt lat="44.31907" lon="6.8584">
        <time>2023-04-10T06:16:56+00:00</time>
        <ele>1904.0</ele>
      </trkpt>
      <trkpt lat="44.31907" lon="6.8584">
        <time>2023-04-10T06:16:57+00:00</time>
        <ele>1904.0</ele>
      </trkpt>
      <trkpt lat="44.31906" lon="6.85843">
        <time>2023-04-10T06:16:58+00:00</time>
        <ele>1904.0</ele>
      </trkpt>
      <trkpt lat="44.31906" lon="6.85843">
        <time>2023-04-10T06:16:59+00:00</time>
        <ele>1904.0</ele>
      </trkpt>
      <trkpt lat="44.31905" lon="6.85846">
        <time>2023-04-10T06:17:00+00:00</time>
        <ele>1905.0</ele>
      </trkpt>
      <trkpt lat="44.31905" lon="6.85846">
        <time>2023-04-10T06:17:01+00:00</time>
        <ele>1905.0</ele>
      </trkpt>
      <trkpt lat="44.31906" lon="6.85849">
        <time>2023-04-10T06:17:02+00:00</time>
        <ele>1904.0</ele>
      </trkpt>
      <trkpt lat="44.31906" lon="6.85849">
        <time>2023-04-10T06:17:03+00:00</time>
        <ele>1904.0</ele>
      </trkpt>
      <trkpt lat="44.31908" lon="6.85853">
        <time>2023-04-10T06:17:04+00:00</time>
        <ele>1903.0</ele>
      </trkpt>
      <trkpt lat="44.31908" lon="6.85853">
        <time>2023-04-10T06:17:05+00:00</time>
        <ele>1903.0</ele>
      </trkpt>
      <trkpt lat="44.31907" lon="6.85855">
        <time>2023-04-10T06:17:06+00:00</time>
        <ele>1903.0</ele>
      </trkpt>
      <trkpt lat="44.31908" lon="6.85858">
        <time>2023-04-10T06:17:07+00:00</time>
        <ele>1902.0</ele>
      </trkpt>
      <trkpt lat="44.31908" lon="6.85858">
        <time>2023-04-10T06:17:08+00:00</time>
        <ele>1902.0</ele>
      </trkpt>
      <trkpt lat="44.31909" lon="6.85861">
        <time>2023-04-10T06:17:09+00:00</time>
        <ele>1902.0</ele>
      </trkpt>
      <trkpt lat="44.31909" lon="6.85861">
        <time>2023-04-10T06:17:10+00:00</time>
        <ele>1902.0</ele>
      </trkpt>
      <trkpt lat="44.31907" lon="6.85864">
        <time>2023-04-10T06:17:11+00:00</time>
        <ele>1903.0</ele>
      </trkpt>
      <trkpt lat="44.31907" lon="6.85864">
        <time>2023-04-10T06:17:12+00:00</time>
        <ele>1903.0</ele>
      </trkpt>
      <trkpt lat="44.31907" lon="6.85864">
        <time>2023-04-10T06:17:13+00:00</time>
        <ele>1903.0</ele>
      </trkpt>
      <trkpt lat="44.31907" lon="6.85867">
        <time>2023-04-10T06:17:14+00:00</time>
        <ele>1903.0</ele>
      </trkpt>
      <trkpt lat="44.31907" lon="6.85867">
        <time>2023-04-10T06:17:15+00:00</time>
        <ele>1903.0</ele>
      </trkpt>
      <trkpt lat="44.31909" lon="6.85868">
        <time>2023-04-10T06:17:16+00:00</time>
        <ele>1902.0</ele>
      </trkpt>
      <trkpt lat="44.31909" lon="6.85868">
        <time>2023-04-10T06:17:17+00:00</time>
        <ele>1902.0</ele>
      </trkpt>
      <trkpt lat="44.31909" lon="6.85871">
        <time>2023-04-10T06:17:18+00:00</time>
        <ele>1901.0</ele>
      </trkpt>
      <trkpt lat="44.31909" lon="6.85871">
        <time>2023-04-10T06:17:19+00:00</time>
        <ele>1901.0</ele>
      </trkpt>
      <trkpt lat="44.3191" lon="6.85874">
        <time>2023-04-10T06:17:20+00:00</time>
        <ele>1901.0</ele>
      </trkpt>
      <trkpt lat="44.3191" lon="6.85874">
        <time>2023-04-10T06:17:21+00:00</time>
        <ele>1901.0</ele>
      </trkpt>
      <trkpt lat="44.3191" lon="6.85874">
        <time>2023-04-10T06:17:22+00:00</time>
        <ele>1901.0</ele>
      </trkpt>
      <trkpt lat="44.3191" lon="6.85878">
        <time>2023-04-10T06:17:23+00:00</time>
        <ele>1901.0</ele>
      </trkpt>
      <trkpt lat="44.3191" lon="6.85878">
        <time>2023-04-10T06:17:24+00:00</time>
        <ele>1901.0</ele>
      </trkpt>
      <trkpt lat="44.3191" lon="6.85881">
        <time>2023-04-10T06:17:25+00:00</time>
        <ele>1901.0</ele>
      </trkpt>
      <trkpt lat="44.3191" lon="6.85881">
        <time>2023-04-10T06:17:26+00:00</time>
        <ele>1901.0</ele>
      </trkpt>
      <trkpt lat="44.3191" lon="6.85881">
        <time>2023-04-10T06:17:27+00:00</time>
        <ele>1901.0</ele>
      </trkpt>
      <trkpt lat="44.31911" lon="6.85885">
        <time>2023-04-10T06:17:28+00:00</time>
        <ele>1900.0</ele>
      </trkpt>
      <trkpt lat="44.31911" lon="6.85885">
        <time>2023-04-10T06:17:29+00:00</time>
        <ele>1900.0</ele>
      </trkpt>
      <trkpt lat="44.31911" lon="6.85887">
        <time>2023-04-10T06:17:30+00:00</time>
        <ele>1900.0</ele>
      </trkpt>
      <trkpt lat="44.31911" lon="6.85887">
        <time>2023-04-10T06:17:31+00:00</time>
        <ele>1900.0</ele>
      </trkpt>
      <trkpt lat="44.31911" lon="6.85887">
        <time>2023-04-10T06:17:32+00:00</time>
        <ele>1900.0</ele>
      </trkpt>
      <trkpt lat="44.3191" lon="6.85891">
        <time>2023-04-10T06:17:33+00:00</time>
        <ele>1900.0</ele>
      </trkpt>
      <trkpt lat="44.3191" lon="6.85891">
        <time>2023-04-10T06:17:34+00:00</time>
        <ele>1900.0</ele>
      </trkpt>
      <trkpt lat="44.3191" lon="6.85893">
        <time>2023-04-10T06:17:35+00:00</time>
        <ele>1900.0</ele>
      </trkpt>
      <trkpt lat="44.3191" lon="6.85893">
        <time>2023-04-10T06:17:36+00:00</time>
        <ele>1900.0</ele>
      </trkpt>
      <trkpt lat="44.3191" lon="6.85893">
        <time>2023-04-10T06:17:37+00:00</time>
        <ele>1900.0</ele>
      </trkpt>
      <trkpt lat="44.31911" lon="6.85897">
        <time>2023-04-10T06:17:38+00:00</time>
        <ele>1899.0</ele>
      </trkpt>
      <trkpt lat="44.31911" lon="6.85897">
        <time>2023-04-10T06:17:39+00:00</time>
        <ele>1899.0</ele>
      </trkpt>
      <trkpt lat="44.3191" lon="6.85899">
        <time>2023-04-10T06:17:40+00:00</time>
        <ele>1899.0</ele>
      </trkpt>
      <trkpt lat="44.3191" lon="6.85899">
        <time>2023-04-10T06:17:41+00:00</time>
        <ele>1899.0</ele>
      </trkpt>
      <trkpt lat="44.31909" lon="6.85902">
        <time>2023-04-10T06:17:42+00:00</time>
        <ele>1898.0</ele>
      </trkpt>
      <trkpt lat="44.31909" lon="6.85902">
        <time>2023-04-10T06:17:43+00:00</time>
        <ele>1898.0</ele>
      </trkpt>
      <trkpt lat="44.31908" lon="6.85905">
        <time>2023-04-10T06:17:44+00:00</time>
        <ele>1897.0</ele>
      </trkpt>
      <trkpt lat="44.31908" lon="6.85905">
        <time>2023-04-10T06:17:45+00:00</time>
        <ele>1897.0</ele>
      </trkpt>
      <trkpt lat="44.31907" lon="6.85908">
        <time>2023-04-10T06:17:46+00:00</time>
        <ele>1897.0</ele>
      </trkpt>
      <trkpt lat="44.31907" lon="6.85908">
        <time>2023-04-10T06:17:47+00:00</time>
        <ele>1897.0</ele>
      </trkpt>
      <trkpt lat="44.31905" lon="6.8591">
        <time>2023-04-10T06:17:48+00:00</time>
        <ele>1896.0</ele>
      </trkpt>
      <trkpt lat="44.31905" lon="6.8591">
        <time>2023-04-10T06:17:49+00:00</time>
        <ele>1896.0</ele>
      </trkpt>
      <trkpt lat="44.31903" lon="6.85912">
        <time>2023-04-10T06:17:50+00:00</time>
        <ele>1896.0</ele>
      </trkpt>
      <trkpt lat="44.31901" lon="6.85912">
        <time>2023-04-10T06:17:51+00:00</time>
        <ele>1897.0</ele>
      </trkpt>
      <trkpt lat="44.31901" lon="6.85912">
        <time>2023-04-10T06:17:52+00:00</time>
        <ele>1897.0</ele>
      </trkpt>
      <trkpt lat="44.31899" lon="6.85912">
        <time>2023-04-10T06:17:53+00:00</time>
        <ele>1897.0</ele>
      </trkpt>
      <trkpt lat="44.31899" lon="6.85912">
        <time>2023-04-10T06:17:54+00:00</time>
        <ele>1897.0</ele>
      </trkpt>
      <trkpt lat="44.31897" lon="6.85913">
        <time>2023-04-10T06:17:55+00:00</time>
        <ele>1897.0</ele>
      </trkpt>
      <trkpt lat="44.31897" lon="6.85913">
        <time>2023-04-10T06:17:56+00:00</time>
        <ele>1897.0</ele>
      </trkpt>
      <trkpt lat="44.31893" lon="6.85914">
        <time>2023-04-10T06:17:57+00:00</time>
        <ele>1898.0</ele>
      </trkpt>
      <trkpt lat="44.31893" lon="6.85914">
        <time>2023-04-10T06:17:58+00:00</time>
        <ele>1898.0</ele>
      </trkpt>
      <trkpt lat="44.31891" lon="6.85915">
        <time>2023-04-10T06:17:59+00:00</time>
        <ele>1897.0</ele>
      </trkpt>
      <trkpt lat="44.31891" lon="6.85915">
        <time>2023-04-10T06:18:00+00:00</time>
        <ele>1897.0</ele>
      </trkpt>
      <trkpt lat="44.31888" lon="6.85915">
        <time>2023-04-10T06:18:01+00:00</time>
        <ele>1898.0</ele>
      </trkpt>
      <trkpt lat="44.31888" lon="6.85915">
        <time>2023-04-10T06:18:02+00:00</time>
        <ele>1898.0</ele>
      </trkpt>
      <trkpt lat="44.31885" lon="6.85915">
        <time>2023-04-10T06:18:03+00:00</time>
        <ele>1898.0</ele>
      </trkpt>
      <trkpt lat="44.31885" lon="6.85915">
        <time>2023-04-10T06:18:04+00:00</time>
        <ele>1898.0</ele>
      </trkpt>
      <trkpt lat="44.31883" lon="6.85915">
        <time>2023-04-10T06:18:05+00:00</time>
        <ele>1898.0</ele>
      </trkpt>
      <trkpt lat="44.31883" lon="6.85915">
        <time>2023-04-10T06:18:06+00:00</time>
        <ele>1898.0</ele>
      </trkpt>
      <trkpt lat="44.31881" lon="6.85914">
        <time>2023-04-10T06:18:07+00:00</time>
        <ele>1899.0</ele>
      </trkpt>
      <trkpt lat="44.31881" lon="6.85914">
        <time>2023-04-10T06:18:08+00:00</time>
        <ele>1899.0</ele>
      </trkpt>
      <trkpt lat="44.31878" lon="6.85914">
        <time>2023-04-10T06:18:09+00:00</time>
        <ele>1899.0</ele>
      </trkpt>
      <trkpt lat="44.31878" lon="6.85914">
        <time>2023-04-10T06:18:10+00:00</time>
        <ele>1899.0</ele>
      </trkpt>
      <trkpt lat="44.31876" lon="6.85913">
        <time>2023-04-10T06:18:11+00:00</time>
        <ele>1899.0</ele>
      </trkpt>
      <trkpt lat="44.31876" lon="6.85913">
        <time>2023-04-10T06:18:12+00:00</time>
        <ele>1899.0</ele>
      </trkpt>
      <trkpt lat="44.31876" lon="6.85913">
        <time>2023-04-10T06:18:13+00:00</time>
        <ele>1899.0</ele>
      </trkpt>
      <trkpt lat="44.31873" lon="6.85911">
        <time>2023-04-10T06:18:14+00:00</time>
        <ele>1900.0</ele>
      </trkpt>
      <trkpt lat="44.31873" lon="6.85911">
        <time>2023-04-10T06:18:15+00:00</time>
        <ele>1900.0</ele>
      </trkpt>
      <trkpt lat="44.31871" lon="6.85909">
        <time>2023-04-10T06:18:16+00:00</time>
        <ele>1901.0</ele>
      </trkpt>
      <trkpt lat="44.31871" lon="6.85909">
        <time>2023-04-10T06:18:17+00:00</time>
        <ele>1901.0</ele>
      </trkpt>
      <trkpt lat="44.31869" lon="6.85908">
        <time>2023-04-10T06:18:18+00:00</time>
        <ele>1902.0</ele>
      </trkpt>
      <trkpt lat="44.31869" lon="6.85908">
        <time>2023-04-10T06:18:19+00:00</time>
        <ele>1902.0</ele>
      </trkpt>
      <trkpt lat="44.31867" lon="6.85906">
        <time>2023-04-10T06:18:20+00:00</time>
        <ele>1902.0</ele>
      </trkpt>
      <trkpt lat="44.31867" lon="6.85906">
        <time>2023-04-10T06:18:21+00:00</time>
        <ele>1902.0</ele>
      </trkpt>
      <trkpt lat="44.31864" lon="6.85904">
        <time>2023-04-10T06:18:22+00:00</time>
        <ele>1903.0</ele>
      </trkpt>
      <trkpt lat="44.31864" lon="6.85904">
        <time>2023-04-10T06:18:23+00:00</time>
        <ele>1903.0</ele>
      </trkpt>
      <trkpt lat="44.31863" lon="6.85903">
        <time>2023-04-10T06:18:24+00:00</time>
        <ele>1904.0</ele>
      </trkpt>
      <trkpt lat="44.31863" lon="6.85903">
        <time>2023-04-10T06:18:25+00:00</time>
        <ele>1904.0</ele>
      </trkpt>
      <trkpt lat="44.31861" lon="6.85901">
        <time>2023-04-10T06:18:26+00:00</time>
        <ele>1904.0</ele>
      </trkpt>
      <trkpt lat="44.31861" lon="6.85901">
        <time>2023-04-10T06:18:27+00:00</time>
        <ele>1904.0</ele>
      </trkpt>
      <trkpt lat="44.31858" lon="6.85901">
        <time>2023-04-10T06:18:28+00:00</time>
        <ele>1904.0</ele>
      </trkpt>
      <trkpt lat="44.31858" lon="6.85901">
        <time>2023-04-10T06:18:29+00:00</time>
        <ele>1904.0</ele>
      </trkpt>
      <trkpt lat="44.31856" lon="6.85899">
        <time>2023-04-10T06:18:30+00:00</time>
        <ele>1905.0</ele>
      </trkpt>
      <trkpt lat="44.31856" lon="6.85899">
        <time>2023-04-10T06:18:31+00:00</time>
        <ele>1905.0</ele>
      </trkpt>
      <trkpt lat="44.31855" lon="6.85897">
        <time>2023-04-10T06:18:32+00:00</time>
        <ele>1905.0</ele>
      </trkpt>
      <trkpt lat="44.31855" lon="6.85897">
        <time>2023-04-10T06:18:33+00:00</time>
        <ele>1905.0</ele>
      </trkpt>
      <trkpt lat="44.31853" lon="6.85896">
        <time>2023-04-10T06:18:34+00:00</time>
        <ele>1906.0</ele>
      </trkpt>
      <trkpt lat="44.31853" lon="6.85896">
        <time>2023-04-10T06:18:35+00:00</time>
        <ele>1906.0</ele>
      </trkpt>
      <trkpt lat="44.3185" lon="6.85896">
        <time>2023-04-10T06:18:36+00:00</time>
        <ele>1907.0</ele>
      </trkpt>
      <trkpt lat="44.3185" lon="6.85896">
        <time>2023-04-10T06:18:37+00:00</time>
        <ele>1907.0</ele>
      </trkpt>
      <trkpt lat="44.31848" lon="6.85897">
        <time>2023-04-10T06:18:38+00:00</time>
        <ele>1907.0</ele>
      </trkpt>
      <trkpt lat="44.31848" lon="6.85897">
        <time>2023-04-10T06:18:39+00:00</time>
        <ele>1907.0</ele>
      </trkpt>
      <trkpt lat="44.31848" lon="6.85897">
        <time>2023-04-10T06:18:40+00:00</time>
        <ele>1907.0</ele>
      </trkpt>
      <trkpt lat="44.31845" lon="6.85898">
        <time>2023-04-10T06:18:41+00:00</time>
        <ele>1908.0</ele>
      </trkpt>
      <trkpt lat="44.31845" lon="6.85898">
        <time>2023-04-10T06:18:42+00:00</time>
        <ele>1908.0</ele>
      </trkpt>
      <trkpt lat="44.31843" lon="6.85899">
        <time>2023-04-10T06:18:43+00:00</time>
        <ele>1908.0</ele>
      </trkpt>
      <trkpt lat="44.31843" lon="6.85899">
        <time>2023-04-10T06:18:44+00:00</time>
        <ele>1908.0</ele>
      </trkpt>
      <trkpt lat="44.31841" lon="6.859">
        <time>2023-04-10T06:18:45+00:00</time>
        <ele>1909.0</ele>
      </trkpt>
      <trkpt lat="44.31841" lon="6.859">
        <time>2023-04-10T06:18:46+00:00</time>
        <ele>1909.0</ele>
      </trkpt>
      <trkpt lat="44.31839" lon="6.85901">
        <time>2023-04-10T06:18:47+00:00</time>
        <ele>1909.0</ele>
      </trkpt>
      <trkpt lat="44.31839" lon="6.85901">
        <time>2023-04-10T06:18:48+00:00</time>
        <ele>1909.0</ele>
      </trkpt>
      <trkpt lat="44.31837" lon="6.85903">
        <time>2023-04-10T06:18:49+00:00</time>
        <ele>1909.0</ele>
      </trkpt>
      <trkpt lat="44.31837" lon="6.85903">
        <time>2023-04-10T06:18:50+00:00</time>
        <ele>1909.0</ele>
      </trkpt>
      <trkpt lat="44.31836" lon="6.85905">
        <time>2023-04-10T06:18:51+00:00</time>
        <ele>1909.0</ele>
      </trkpt>
      <trkpt lat="44.31836" lon="6.85905">
        <time>2023-04-10T06:18:52+00:00</time>
        <ele>1909.0</ele>
      </trkpt>
      <trkpt lat="44.31836" lon="6.85905">
        <time>2023-04-10T06:18:53+00:00</time>
        <ele>1909.0</ele>
      </trkpt>
      <trkpt lat="44.31835" lon="6.85907">
        <time>2023-04-10T06:18:54+00:00</time>
        <ele>1909.0</ele>
      </trkpt>
      <trkpt lat="44.31835" lon="6.85907">
        <time>2023-04-10T06:18:55+00:00</time>
        <ele>1909.0</ele>
      </trkpt>
      <trkpt lat="44.31834" lon="6.85909">
        <time>2023-04-10T06:18:56+00:00</time>
        <ele>1909.0</ele>
      </trkpt>
      <trkpt lat="44.31834" lon="6.85909">
        <time>2023-04-10T06:18:57+00:00</time>
        <ele>1909.0</ele>
      </trkpt>
      <trkpt lat="44.31834" lon="6.85909">
        <time>2023-04-10T06:18:58+00:00</time>
        <ele>1909.0</ele>
      </trkpt>
      <trkpt lat="44.31833" lon="6.85913">
        <time>2023-04-10T06:18:59+00:00</time>
        <ele>1909.0</ele>
      </trkpt>
      <trkpt lat="44.31833" lon="6.85913">
        <time>2023-04-10T06:19:00+00:00</time>
        <ele>1909.0</ele>
      </trkpt>
      <trkpt lat="44.31831" lon="6.85914">
        <time>2023-04-10T06:19:01+00:00</time>
        <ele>1910.0</ele>
      </trkpt>
      <trkpt lat="44.31831" lon="6.85914">
        <time>2023-04-10T06:19:02+00:00</time>
        <ele>1910.0</ele>
      </trkpt>
      <trkpt lat="44.3183" lon="6.85916">
        <time>2023-04-10T06:19:03+00:00</time>
        <ele>1910.0</ele>
      </trkpt>
      <trkpt lat="44.3183" lon="6.85916">
        <time>2023-04-10T06:19:04+00:00</time>
        <ele>1910.0</ele>
      </trkpt>
      <trkpt lat="44.3183" lon="6.85916">
        <time>2023-04-10T06:19:05+00:00</time>
        <ele>1910.0</ele>
      </trkpt>
      <trkpt lat="44.3183" lon="6.85919">
        <time>2023-04-10T06:19:06+00:00</time>
        <ele>1910.0</ele>
      </trkpt>
      <trkpt lat="44.3183" lon="6.85919">
        <time>2023-04-10T06:19:07+00:00</time>
        <ele>1910.0</ele>
      </trkpt>
      <trkpt lat="44.31829" lon="6.85922">
        <time>2023-04-10T06:19:08+00:00</time>
        <ele>1910.0</ele>
      </trkpt>
      <trkpt lat="44.31829" lon="6.85922">
        <time>2023-04-10T06:19:09+00:00</time>
        <ele>1910.0</ele>
      </trkpt>
      <trkpt lat="44.31829" lon="6.85922">
        <time>2023-04-10T06:19:10+00:00</time>
        <ele>1910.0</ele>
      </trkpt>
      <trkpt lat="44.31828" lon="6.85925">
        <time>2023-04-10T06:19:11+00:00</time>
        <ele>1910.0</ele>
      </trkpt>
      <trkpt lat="44.31828" lon="6.85925">
        <time>2023-04-10T06:19:12+00:00</time>
        <ele>1910.0</ele>
      </trkpt>
      <trkpt lat="44.31828" lon="6.85928">
        <time>2023-04-10T06:19:13+00:00</time>
        <ele>1909.0</ele>
      </trkpt>
      <trkpt lat="44.31828" lon="6.85928">
        <time>2023-04-10T06:19:14+00:00</time>
        <ele>1909.0</ele>
      </trkpt>
      <trkpt lat="44.31827" lon="6.85931">
        <time>2023-04-10T06:19:15+00:00</time>
        <ele>1909.0</ele>
      </trkpt>
      <trkpt lat="44.31827" lon="6.85931">
        <time>2023-04-10T06:19:16+00:00</time>
        <ele>1909.0</ele>
      </trkpt>
      <trkpt lat="44.31826" lon="6.85934">
        <time>2023-04-10T06:19:17+00:00</time>
        <ele>1909.0</ele>
      </trkpt>
      <trkpt lat="44.31826" lon="6.85934">
        <time>2023-04-10T06:19:18+00:00</time>
        <ele>1909.0</ele>
      </trkpt>
      <trkpt lat="44.31823" lon="6.85936">
        <time>2023-04-10T06:19:19+00:00</time>
        <ele>1910.0</ele>
      </trkpt>
      <trkpt lat="44.31823" lon="6.85936">
        <time>2023-04-10T06:19:20+00:00</time>
        <ele>1910.0</ele>
      </trkpt>
      <trkpt lat="44.31822" lon="6.85938">
        <time>2023-04-10T06:19:21+00:00</time>
        <ele>1910.0</ele>
      </trkpt>
      <trkpt lat="44.31822" lon="6.85938">
        <time>2023-04-10T06:19:22+00:00</time>
        <ele>1910.0</ele>
      </trkpt>
      <trkpt lat="44.31822" lon="6.85938">
        <time>2023-04-10T06:19:23+00:00</time>
        <ele>1910.0</ele>
      </trkpt>
      <trkpt lat="44.3182" lon="6.8594">
        <time>2023-04-10T06:19:24+00:00</time>
        <ele>1910.0</ele>
      </trkpt>
      <trkpt lat="44.3182" lon="6.8594">
        <time>2023-04-10T06:19:25+00:00</time>
        <ele>1910.0</ele>
      </trkpt>
      <trkpt lat="44.3182" lon="6.8594">
        <time>2023-04-10T06:19:26+00:00</time>
        <ele>1910.0</ele>
      </trkpt>
      <trkpt lat="44.31818" lon="6.85943">
        <time>2023-04-10T06:19:27+00:00</time>
        <ele>1911.0</ele>
      </trkpt>
      <trkpt lat="44.31818" lon="6.85943">
        <time>2023-04-10T06:19:28+00:00</time>
        <ele>1911.0</ele>
      </trkpt>
      <trkpt lat="44.31817" lon="6.85945">
        <time>2023-04-10T06:19:29+00:00</time>
        <ele>1911.0</ele>
      </trkpt>
      <trkpt lat="44.31817" lon="6.85945">
        <time>2023-04-10T06:19:30+00:00</time>
        <ele>1911.0</ele>
      </trkpt>
      <trkpt lat="44.31815" lon="6.85946">
        <time>2023-04-10T06:19:31+00:00</time>
        <ele>1911.0</ele>
      </trkpt>
      <trkpt lat="44.31815" lon="6.85946">
        <time>2023-04-10T06:19:32+00:00</time>
        <ele>1911.0</ele>
      </trkpt>
      <trkpt lat="44.31813" lon="6.85948">
        <time>2023-04-10T06:19:33+00:00</time>
        <ele>1911.0</ele>
      </trkpt>
      <trkpt lat="44.31813" lon="6.85948">
        <time>2023-04-10T06:19:34+00:00</time>
        <ele>1911.0</ele>
      </trkpt>
      <trkpt lat="44.31812" lon="6.8595">
        <time>2023-04-10T06:19:35+00:00</time>
        <ele>1911.0</ele>
      </trkpt>
      <trkpt lat="44.31812" lon="6.8595">
        <time>2023-04-10T06:19:36+00:00</time>
        <ele>1911.0</ele>
      </trkpt>
      <trkpt lat="44.31809" lon="6.85953">
        <time>2023-04-10T06:19:37+00:00</time>
        <ele>1912.0</ele>
      </trkpt>
      <trkpt lat="44.31809" lon="6.85953">
        <time>2023-04-10T06:19:38+00:00</time>
        <ele>1912.0</ele>
      </trkpt>
      <trkpt lat="44.31807" lon="6.85954">
        <time>2023-04-10T06:19:39+00:00</time>
        <ele>1912.0</ele>
      </trkpt>
      <trkpt lat="44.31807" lon="6.85954">
        <time>2023-04-10T06:19:40+00:00</time>
        <ele>1912.0</ele>
      </trkpt>
      <trkpt lat="44.31806" lon="6.85956">
        <time>2023-04-10T06:19:41+00:00</time>
        <ele>1912.0</ele>
      </trkpt>
      <trkpt lat="44.31806" lon="6.85956">
        <time>2023-04-10T06:19:42+00:00</time>
        <ele>1912.0</ele>
      </trkpt>
      <trkpt lat="44.31804" lon="6.85957">
        <time>2023-04-10T06:19:43+00:00</time>
        <ele>1912.0</ele>
      </trkpt>
      <trkpt lat="44.31804" lon="6.85957">
        <time>2023-04-10T06:19:44+00:00</time>
        <ele>1912.0</ele>
      </trkpt>
      <trkpt lat="44.31802" lon="6.85959">
        <time>2023-04-10T06:19:45+00:00</time>
        <ele>1912.0</ele>
      </trkpt>
      <trkpt lat="44.31802" lon="6.85959">
        <time>2023-04-10T06:19:46+00:00</time>
        <ele>1912.0</ele>
      </trkpt>
      <trkpt lat="44.318" lon="6.85961">
        <time>2023-04-10T06:19:47+00:00</time>
        <ele>1912.0</ele>
      </trkpt>
      <trkpt lat="44.318" lon="6.85961">
        <time>2023-04-10T06:19:48+00:00</time>
        <ele>1912.0</ele>
      </trkpt>
      <trkpt lat="44.31798" lon="6.85963">
        <time>2023-04-10T06:19:49+00:00</time>
        <ele>1913.0</ele>
      </trkpt>
      <trkpt lat="44.31798" lon="6.85963">
        <time>2023-04-10T06:19:50+00:00</time>
        <ele>1913.0</ele>
      </trkpt>
      <trkpt lat="44.31796" lon="6.85965">
        <time>2023-04-10T06:19:51+00:00</time>
        <ele>1913.0</ele>
      </trkpt>
      <trkpt lat="44.31795" lon="6.85965">
        <time>2023-04-10T06:19:52+00:00</time>
        <ele>1913.0</ele>
      </trkpt>
      <trkpt lat="44.31794" lon="6.85965">
        <time>2023-04-10T06:19:53+00:00</time>
        <ele>1913.0</ele>
      </trkpt>
      <trkpt lat="44.31794" lon="6.85965">
        <time>2023-04-10T06:19:54+00:00</time>
        <ele>1913.0</ele>
      </trkpt>
      <trkpt lat="44.31791" lon="6.85966">
        <time>2023-04-10T06:19:55+00:00</time>
        <ele>1914.0</ele>
      </trkpt>
      <trkpt lat="44.31791" lon="6.85966">
        <time>2023-04-10T06:19:56+00:00</time>
        <ele>1914.0</ele>
      </trkpt>
      <trkpt lat="44.31789" lon="6.85968">
        <time>2023-04-10T06:19:57+00:00</time>
        <ele>1914.0</ele>
      </trkpt>
      <trkpt lat="44.31789" lon="6.85968">
        <time>2023-04-10T06:19:58+00:00</time>
        <ele>1914.0</ele>
      </trkpt>
      <trkpt lat="44.31786" lon="6.85968">
        <time>2023-04-10T06:19:59+00:00</time>
        <ele>1914.0</ele>
      </trkpt>
      <trkpt lat="44.31784" lon="6.85969">
        <time>2023-04-10T06:20:00+00:00</time>
        <ele>1914.0</ele>
      </trkpt>
      <trkpt lat="44.31781" lon="6.85969">
        <time>2023-04-10T06:20:02+00:00</time>
        <ele>1915.0</ele>
      </trkpt>
      <trkpt lat="44.31781" lon="6.85969">
        <time>2023-04-10T06:20:03+00:00</time>
        <ele>1915.0</ele>
      </trkpt>
      <trkpt lat="44.31779" lon="6.8597">
        <time>2023-04-10T06:20:04+00:00</time>
        <ele>1915.0</ele>
      </trkpt>
      <trkpt lat="44.31779" lon="6.8597">
        <time>2023-04-10T06:20:05+00:00</time>
        <ele>1915.0</ele>
      </trkpt>
      <trkpt lat="44.31777" lon="6.85971">
        <time>2023-04-10T06:20:06+00:00</time>
        <ele>1915.0</ele>
      </trkpt>
      <trkpt lat="44.31777" lon="6.85971">
        <time>2023-04-10T06:20:07+00:00</time>
        <ele>1915.0</ele>
      </trkpt>
      <trkpt lat="44.31777" lon="6.85971">
        <time>2023-04-10T06:20:08+00:00</time>
        <ele>1915.0</ele>
      </trkpt>
      <trkpt lat="44.31775" lon="6.85973">
        <time>2023-04-10T06:20:09+00:00</time>
        <ele>1915.0</ele>
      </trkpt>
      <trkpt lat="44.31775" lon="6.85973">
        <time>2023-04-10T06:20:10+00:00</time>
        <ele>1915.0</ele>
      </trkpt>
      <trkpt lat="44.31773" lon="6.85975">
        <time>2023-04-10T06:20:11+00:00</time>
        <ele>1915.0</ele>
      </trkpt>
      <trkpt lat="44.31773" lon="6.85975">
        <time>2023-04-10T06:20:12+00:00</time>
        <ele>1915.0</ele>
      </trkpt>
      <trkpt lat="44.31773" lon="6.85975">
        <time>2023-04-10T06:20:13+00:00</time>
        <ele>1915.0</ele>
      </trkpt>
      <trkpt lat="44.3177" lon="6.85977">
        <time>2023-04-10T06:20:14+00:00</time>
        <ele>1915.0</ele>
      </trkpt>
      <trkpt lat="44.3177" lon="6.85977">
        <time>2023-04-10T06:20:15+00:00</time>
        <ele>1915.0</ele>
      </trkpt>
      <trkpt lat="44.31769" lon="6.85978">
        <time>2023-04-10T06:20:16+00:00</time>
        <ele>1915.0</ele>
      </trkpt>
      <trkpt lat="44.31769" lon="6.85978">
        <time>2023-04-10T06:20:17+00:00</time>
        <ele>1915.0</ele>
      </trkpt>
      <trkpt lat="44.31769" lon="6.85978">
        <time>2023-04-10T06:20:18+00:00</time>
        <ele>1915.0</ele>
      </trkpt>
      <trkpt lat="44.31766" lon="6.8598">
        <time>2023-04-10T06:20:19+00:00</time>
        <ele>1915.0</ele>
      </trkpt>
      <trkpt lat="44.31766" lon="6.8598">
        <time>2023-04-10T06:20:20+00:00</time>
        <ele>1915.0</ele>
      </trkpt>
      <trkpt lat="44.31765" lon="6.85983">
        <time>2023-04-10T06:20:21+00:00</time>
        <ele>1914.0</ele>
      </trkpt>
      <trkpt lat="44.31765" lon="6.85983">
        <time>2023-04-10T06:20:22+00:00</time>
        <ele>1914.0</ele>
      </trkpt>
      <trkpt lat="44.31764" lon="6.85984">
        <time>2023-04-10T06:20:23+00:00</time>
        <ele>1914.0</ele>
      </trkpt>
      <trkpt lat="44.31764" lon="6.85984">
        <time>2023-04-10T06:20:24+00:00</time>
        <ele>1914.0</ele>
      </trkpt>
      <trkpt lat="44.31764" lon="6.85984">
        <time>2023-04-10T06:20:25+00:00</time>
        <ele>1914.0</ele>
      </trkpt>
      <trkpt lat="44.31761" lon="6.85986">
        <time>2023-04-10T06:20:26+00:00</time>
        <ele>1914.0</ele>
      </trkpt>
      <trkpt lat="44.31761" lon="6.85986">
        <time>2023-04-10T06:20:27+00:00</time>
        <ele>1914.0</ele>
      </trkpt>
      <trkpt lat="44.3176" lon="6.85988">
        <time>2023-04-10T06:20:28+00:00</time>
        <ele>1913.0</ele>
      </trkpt>
      <trkpt lat="44.3176" lon="6.85988">
        <time>2023-04-10T06:20:29+00:00</time>
        <ele>1913.0</ele>
      </trkpt>
      <trkpt lat="44.31758" lon="6.85989">
        <time>2023-04-10T06:20:30+00:00</time>
        <ele>1913.0</ele>
      </trkpt>
      <trkpt lat="44.31758" lon="6.85989">
        <time>2023-04-10T06:20:31+00:00</time>
        <ele>1913.0</ele>
      </trkpt>
      <trkpt lat="44.31756" lon="6.85991">
        <time>2023-04-10T06:20:32+00:00</time>
        <ele>1912.0</ele>
      </trkpt>
      <trkpt lat="44.31756" lon="6.85991">
        <time>2023-04-10T06:20:33+00:00</time>
        <ele>1912.0</ele>
      </trkpt>
      <trkpt lat="44.31754" lon="6.85992">
        <time>2023-04-10T06:20:34+00:00</time>
        <ele>1911.0</ele>
      </trkpt>
      <trkpt lat="44.31754" lon="6.85992">
        <time>2023-04-10T06:20:35+00:00</time>
        <ele>1911.0</ele>
      </trkpt>
      <trkpt lat="44.31751" lon="6.85993">
        <time>2023-04-10T06:20:36+00:00</time>
        <ele>1910.0</ele>
      </trkpt>
      <trkpt lat="44.31751" lon="6.85993">
        <time>2023-04-10T06:20:37+00:00</time>
        <ele>1910.0</ele>
      </trkpt>
      <trkpt lat="44.31749" lon="6.85995">
        <time>2023-04-10T06:20:38+00:00</time>
        <ele>1909.0</ele>
      </trkpt>
      <trkpt lat="44.31749" lon="6.85995">
        <time>2023-04-10T06:20:39+00:00</time>
        <ele>1909.0</ele>
      </trkpt>
      <trkpt lat="44.31747" lon="6.85995">
        <time>2023-04-10T06:20:40+00:00</time>
        <ele>1909.0</ele>
      </trkpt>
      <trkpt lat="44.31747" lon="6.85995">
        <time>2023-04-10T06:20:41+00:00</time>
        <ele>1909.0</ele>
      </trkpt>
      <trkpt lat="44.31744" lon="6.85993">
        <time>2023-04-10T06:20:42+00:00</time>
        <ele>1909.0</ele>
      </trkpt>
      <trkpt lat="44.31744" lon="6.85993">
        <time>2023-04-10T06:20:43+00:00</time>
        <ele>1909.0</ele>
      </trkpt>
      <trkpt lat="44.31742" lon="6.85992">
        <time>2023-04-10T06:20:44+00:00</time>
        <ele>1909.0</ele>
      </trkpt>
      <trkpt lat="44.31742" lon="6.85992">
        <time>2023-04-10T06:20:45+00:00</time>
        <ele>1909.0</ele>
      </trkpt>
      <trkpt lat="44.31742" lon="6.85992">
        <time>2023-04-10T06:20:46+00:00</time>
        <ele>1909.0</ele>
      </trkpt>
      <trkpt lat="44.31741" lon="6.8599">
        <time>2023-04-10T06:20:47+00:00</time>
        <ele>1910.0</ele>
      </trkpt>
      <trkpt lat="44.31741" lon="6.8599">
        <time>2023-04-10T06:20:48+00:00</time>
        <ele>1910.0</ele>
      </trkpt>
      <trkpt lat="44.31741" lon="6.8599">
        <time>2023-04-10T06:20:49+00:00</time>
        <ele>1910.0</ele>
      </trkpt>
      <trkpt lat="44.31738" lon="6.85988">
        <time>2023-04-10T06:20:50+00:00</time>
        <ele>1910.0</ele>
      </trkpt>
      <trkpt lat="44.31738" lon="6.85988">
        <time>2023-04-10T06:20:51+00:00</time>
        <ele>1910.0</ele>
      </trkpt>
      <trkpt lat="44.31736" lon="6.85985">
        <time>2023-04-10T06:20:52+00:00</time>
        <ele>1911.0</ele>
      </trkpt>
      <trkpt lat="44.31736" lon="6.85985">
        <time>2023-04-10T06:20:53+00:00</time>
        <ele>1911.0</ele>
      </trkpt>
      <trkpt lat="44.31735" lon="6.85983">
        <time>2023-04-10T06:20:54+00:00</time>
        <ele>1911.0</ele>
      </trkpt>
      <trkpt lat="44.31735" lon="6.85983">
        <time>2023-04-10T06:20:55+00:00</time>
        <ele>1911.0</ele>
      </trkpt>
      <trkpt lat="44.31733" lon="6.85984">
        <time>2023-04-10T06:20:56+00:00</time>
        <ele>1910.0</ele>
      </trkpt>
      <trkpt lat="44.31733" lon="6.85984">
        <time>2023-04-10T06:20:57+00:00</time>
        <ele>1910.0</ele>
      </trkpt>
      <trkpt lat="44.31733" lon="6.85984">
        <time>2023-04-10T06:20:58+00:00</time>
        <ele>1910.0</ele>
      </trkpt>
      <trkpt lat="44.31732" lon="6.85982">
        <time>2023-04-10T06:20:59+00:00</time>
        <ele>1911.0</ele>
      </trkpt>
      <trkpt lat="44.31732" lon="6.85982">
        <time>2023-04-10T06:21:00+00:00</time>
        <ele>1911.0</ele>
      </trkpt>
      <trkpt lat="44.31732" lon="6.85982">
        <time>2023-04-10T06:21:01+00:00</time>
        <ele>1911.0</ele>
      </trkpt>
      <trkpt lat="44.31732" lon="6.85982">
        <time>2023-04-10T06:21:02+00:00</time>
        <ele>1911.0</ele>
      </trkpt>
      <trkpt lat="44.31732" lon="6.85982">
        <time>2023-04-10T06:21:03+00:00</time>
        <ele>1911.0</ele>
      </trkpt>
      <trkpt lat="44.31732" lon="6.85982">
        <time>2023-04-10T06:21:04+00:00</time>
        <ele>1911.0</ele>
      </trkpt>
      <trkpt lat="44.31732" lon="6.85982">
        <time>2023-04-10T06:21:05+00:00</time>
        <ele>1911.0</ele>
      </trkpt>
      <trkpt lat="44.31732" lon="6.85982">
        <time>2023-04-10T06:21:06+00:00</time>
        <ele>1911.0</ele>
      </trkpt>
      <trkpt lat="44.3173" lon="6.8598">
        <time>2023-04-10T06:21:07+00:00</time>
        <ele>1912.0</ele>
      </trkpt>
      <trkpt lat="44.3173" lon="6.8598">
        <time>2023-04-10T06:21:08+00:00</time>
        <ele>1912.0</ele>
      </trkpt>
      <trkpt lat="44.3173" lon="6.8598">
        <time>2023-04-10T06:21:09+00:00</time>
        <ele>1912.0</ele>
      </trkpt>
      <trkpt lat="44.3173" lon="6.8598">
        <time>2023-04-10T06:21:10+00:00</time>
        <ele>1912.0</ele>
      </trkpt>
      <trkpt lat="44.31732" lon="6.8598">
        <time>2023-04-10T06:21:11+00:00</time>
        <ele>1912.0</ele>
      </trkpt>
      <trkpt lat="44.31732" lon="6.8598">
        <time>2023-04-10T06:21:12+00:00</time>
        <ele>1912.0</ele>
      </trkpt>
      <trkpt lat="44.31734" lon="6.85982">
        <time>2023-04-10T06:21:13+00:00</time>
        <ele>1911.0</ele>
      </trkpt>
      <trkpt lat="44.31734" lon="6.85982">
        <time>2023-04-10T06:21:14+00:00</time>
        <ele>1911.0</ele>
      </trkpt>
      <trkpt lat="44.31737" lon="6.85983">
        <time>2023-04-10T06:21:15+00:00</time>
        <ele>1911.0</ele>
      </trkpt>
      <trkpt lat="44.31737" lon="6.85983">
        <time>2023-04-10T06:21:16+00:00</time>
        <ele>1911.0</ele>
      </trkpt>
      <trkpt lat="44.31739" lon="6.85985">
        <time>2023-04-10T06:21:17+00:00</time>
        <ele>1911.0</ele>
      </trkpt>
      <trkpt lat="44.31739" lon="6.85985">
        <time>2023-04-10T06:21:18+00:00</time>
        <ele>1911.0</ele>
      </trkpt>
      <trkpt lat="44.31741" lon="6.85987">
        <time>2023-04-10T06:21:19+00:00</time>
        <ele>1911.0</ele>
      </trkpt>
      <trkpt lat="44.31741" lon="6.85987">
        <time>2023-04-10T06:21:20+00:00</time>
        <ele>1911.0</ele>
      </trkpt>
      <trkpt lat="44.31744" lon="6.85988">
        <time>2023-04-10T06:21:21+00:00</time>
        <ele>1911.0</ele>
      </trkpt>
      <trkpt lat="44.31744" lon="6.85988">
        <time>2023-04-10T06:21:22+00:00</time>
        <ele>1911.0</ele>
      </trkpt>
      <trkpt lat="44.31746" lon="6.8599">
        <time>2023-04-10T06:21:23+00:00</time>
        <ele>1910.0</ele>
      </trkpt>
      <trkpt lat="44.31746" lon="6.8599">
        <time>2023-04-10T06:21:24+00:00</time>
        <ele>1910.0</ele>
      </trkpt>
      <trkpt lat="44.31749" lon="6.8599">
        <time>2023-04-10T06:21:25+00:00</time>
        <ele>1911.0</ele>
      </trkpt>
      <trkpt lat="44.31749" lon="6.8599">
        <time>2023-04-10T06:21:26+00:00</time>
        <ele>1911.0</ele>
      </trkpt>
      <trkpt lat="44.31751" lon="6.8599">
        <time>2023-04-10T06:21:27+00:00</time>
        <ele>1911.0</ele>
      </trkpt>
      <trkpt lat="44.31751" lon="6.8599">
        <time>2023-04-10T06:21:28+00:00</time>
        <ele>1911.0</ele>
      </trkpt>
      <trkpt lat="44.31753" lon="6.85989">
        <time>2023-04-10T06:21:29+00:00</time>
        <ele>1912.0</ele>
      </trkpt>
      <trkpt lat="44.31753" lon="6.85989">
        <time>2023-04-10T06:21:30+00:00</time>
        <ele>1912.0</ele>
      </trkpt>
      <trkpt lat="44.31755" lon="6.85989">
        <time>2023-04-10T06:21:31+00:00</time>
        <ele>1912.0</ele>
      </trkpt>
      <trkpt lat="44.31755" lon="6.85989">
        <time>2023-04-10T06:21:32+00:00</time>
        <ele>1912.0</ele>
      </trkpt>
      <trkpt lat="44.31757" lon="6.85988">
        <time>2023-04-10T06:21:33+00:00</time>
        <ele>1913.0</ele>
      </trkpt>
      <trkpt lat="44.31757" lon="6.85988">
        <time>2023-04-10T06:21:34+00:00</time>
        <ele>1913.0</ele>
      </trkpt>
      <trkpt lat="44.31758" lon="6.85987">
        <time>2023-04-10T06:21:35+00:00</time>
        <ele>1913.0</ele>
      </trkpt>
      <trkpt lat="44.31758" lon="6.85987">
        <time>2023-04-10T06:21:36+00:00</time>
        <ele>1913.0</ele>
      </trkpt>
      <trkpt lat="44.3176" lon="6.85984">
        <time>2023-04-10T06:21:37+00:00</time>
        <ele>1914.0</ele>
      </trkpt>
      <trkpt lat="44.3176" lon="6.85984">
        <time>2023-04-10T06:21:38+00:00</time>
        <ele>1914.0</ele>
      </trkpt>
      <trkpt lat="44.31762" lon="6.85983">
        <time>2023-04-10T06:21:39+00:00</time>
        <ele>1914.0</ele>
      </trkpt>
      <trkpt lat="44.31762" lon="6.85983">
        <time>2023-04-10T06:21:40+00:00</time>
        <ele>1914.0</ele>
      </trkpt>
      <trkpt lat="44.31762" lon="6.85983">
        <time>2023-04-10T06:21:41+00:00</time>
        <ele>1914.0</ele>
      </trkpt>
      <trkpt lat="44.31764" lon="6.85981">
        <time>2023-04-10T06:21:42+00:00</time>
        <ele>1915.0</ele>
      </trkpt>
      <trkpt lat="44.31764" lon="6.85981">
        <time>2023-04-10T06:21:43+00:00</time>
        <ele>1915.0</ele>
      </trkpt>
      <trkpt lat="44.31766" lon="6.8598">
        <time>2023-04-10T06:21:44+00:00</time>
        <ele>1915.0</ele>
      </trkpt>
      <trkpt lat="44.31766" lon="6.8598">
        <time>2023-04-10T06:21:45+00:00</time>
        <ele>1915.0</ele>
      </trkpt>
      <trkpt lat="44.31766" lon="6.8598">
        <time>2023-04-10T06:21:46+00:00</time>
        <ele>1915.0</ele>
      </trkpt>
      <trkpt lat="44.31768" lon="6.85978">
        <time>2023-04-10T06:21:47+00:00</time>
        <ele>1915.0</ele>
      </trkpt>
      <trkpt lat="44.31768" lon="6.85978">
        <time>2023-04-10T06:21:48+00:00</time>
        <ele>1915.0</ele>
      </trkpt>
      <trkpt lat="44.31768" lon="6.85978">
        <time>2023-04-10T06:21:49+00:00</time>
        <ele>1915.0</ele>
      </trkpt>
      <trkpt lat="44.31768" lon="6.85978">
        <time>2023-04-10T06:21:50+00:00</time>
        <ele>1915.0</ele>
      </trkpt>
      <trkpt lat="44.31768" lon="6.85978">
        <time>2023-04-10T06:21:51+00:00</time>
        <ele>1915.0</ele>
      </trkpt>
      <trkpt lat="44.31768" lon="6.85978">
        <time>2023-04-10T06:21:52+00:00</time>
        <ele>1915.0</ele>
      </trkpt>
      <trkpt lat="44.31768" lon="6.85978">
        <time>2023-04-10T06:21:53+00:00</time>
        <ele>1915.0</ele>
      </trkpt>
      <trkpt lat="44.31768" lon="6.85978">
        <time>2023-04-10T06:21:54+00:00</time>
        <ele>1915.0</ele>
      </trkpt>
      <trkpt lat="44.31768" lon="6.85978">
        <time>2023-04-10T06:21:55+00:00</time>
        <ele>1915.0</ele>
      </trkpt>
      <trkpt lat="44.31768" lon="6.85978">
        <time>2023-04-10T06:21:56+00:00</time>
        <ele>1915.0</ele>
      </trkpt>
      <trkpt lat="44.31768" lon="6.85978">
        <time>2023-04-10T06:21:57+00:00</time>
        <ele>1915.0</ele>
      </trkpt>
      <trkpt lat="44.31768" lon="6.85978">
        <time>2023-04-10T06:21:58+00:00</time>
        <ele>1915.0</ele>
      </trkpt>
      <trkpt lat="44.31768" lon="6.85978">
        <time>2023-04-10T06:21:59+00:00</time>
        <ele>1915.0</ele>
      </trkpt>
      <trkpt lat="44.31768" lon="6.85978">
        <time>2023-04-10T06:22:00+00:00</time>
        <ele>1915.0</ele>
      </trkpt>
      <trkpt lat="44.31768" lon="6.85978">
        <time>2023-04-10T06:22:01+00:00</time>
        <ele>1915.0</ele>
      </trkpt>
      <trkpt lat="44.31768" lon="6.85978">
        <time>2023-04-10T06:22:02+00:00</time>
        <ele>1915.0</ele>
      </trkpt>
      <trkpt lat="44.31768" lon="6.85978">
        <time>2023-04-10T06:22:03+00:00</time>
        <ele>1915.0</ele>
      </trkpt>
      <trkpt lat="44.31768" lon="6.85978">
        <time>2023-04-10T06:22:04+00:00</time>
        <ele>1915.0</ele>
      </trkpt>
      <trkpt lat="44.31768" lon="6.85978">
        <time>2023-04-10T06:22:05+00:00</time>
        <ele>1915.0</ele>
      </trkpt>
      <trkpt lat="44.31768" lon="6.85978">
        <time>2023-04-10T06:22:06+00:00</time>
        <ele>1915.0</ele>
      </trkpt>
      <trkpt lat="44.31768" lon="6.85978">
        <time>2023-04-10T06:22:07+00:00</time>
        <ele>1915.0</ele>
      </trkpt>
      <trkpt lat="44.31768" lon="6.85978">
        <time>2023-04-10T06:22:08+00:00</time>
        <ele>1915.0</ele>
      </trkpt>
      <trkpt lat="44.31768" lon="6.85978">
        <time>2023-04-10T06:22:09+00:00</time>
        <ele>1915.0</ele>
      </trkpt>
      <trkpt lat="44.31768" lon="6.85978">
        <time>2023-04-10T06:22:10+00:00</time>
        <ele>1915.0</ele>
      </trkpt>
      <trkpt lat="44.31768" lon="6.85978">
        <time>2023-04-10T06:22:11+00:00</time>
        <ele>1915.0</ele>
      </trkpt>
      <trkpt lat="44.31768" lon="6.85978">
        <time>2023-04-10T06:22:12+00:00</time>
        <ele>1915.0</ele>
      </trkpt>
      <trkpt lat="44.31768" lon="6.85978">
        <time>2023-04-10T06:22:13+00:00</time>
        <ele>1915.0</ele>
      </trkpt>
      <trkpt lat="44.31768" lon="6.85978">
        <time>2023-04-10T06:22:14+00:00</time>
        <ele>1915.0</ele>
      </trkpt>
      <trkpt lat="44.31768" lon="6.85978">
        <time>2023-04-10T06:22:15+00:00</time>
        <ele>1915.0</ele>
      </trkpt>
      <trkpt lat="44.31768" lon="6.85978">
        <time>2023-04-10T06:22:16+00:00</time>
        <ele>1915.0</ele>
      </trkpt>
      <trkpt lat="44.31768" lon="6.85978">
        <time>2023-04-10T06:22:17+00:00</time>
        <ele>1915.0</ele>
      </trkpt>
      <trkpt lat="44.31768" lon="6.85978">
        <time>2023-04-10T06:22:18+00:00</time>
        <ele>1915.0</ele>
      </trkpt>
      <trkpt lat="44.31768" lon="6.85978">
        <time>2023-04-10T06:22:19+00:00</time>
        <ele>1915.0</ele>
      </trkpt>
      <trkpt lat="44.31768" lon="6.85978">
        <time>2023-04-10T06:22:20+00:00</time>
        <ele>1915.0</ele>
      </trkpt>
      <trkpt lat="44.31768" lon="6.85978">
        <time>2023-04-10T06:22:21+00:00</time>
        <ele>1915.0</ele>
      </trkpt>
      <trkpt lat="44.31768" lon="6.85978">
        <time>2023-04-10T06:22:22+00:00</time>
        <ele>1915.0</ele>
      </trkpt>
      <trkpt lat="44.31768" lon="6.85978">
        <time>2023-04-10T06:22:23+00:00</time>
        <ele>1915.0</ele>
      </trkpt>
      <trkpt lat="44.31768" lon="6.85978">
        <time>2023-04-10T06:22:24+00:00</time>
        <ele>1915.0</ele>
      </trkpt>
      <trkpt lat="44.31768" lon="6.85978">
        <time>2023-04-10T06:22:25+00:00</time>
        <ele>1915.0</ele>
      </trkpt>
      <trkpt lat="44.31768" lon="6.85978">
        <time>2023-04-10T06:22:26+00:00</time>
        <ele>1915.0</ele>
      </trkpt>
      <trkpt lat="44.31768" lon="6.85978">
        <time>2023-04-10T06:22:27+00:00</time>
        <ele>1915.0</ele>
      </trkpt>
      <trkpt lat="44.31768" lon="6.85978">
        <time>2023-04-10T06:22:28+00:00</time>
        <ele>1915.0</ele>
      </trkpt>
      <trkpt lat="44.31768" lon="6.85978">
        <time>2023-04-10T06:22:29+00:00</time>
        <ele>1915.0</ele>
      </trkpt>
      <trkpt lat="44.31768" lon="6.85978">
        <time>2023-04-10T06:22:30+00:00</time>
        <ele>1915.0</ele>
      </trkpt>
      <trkpt lat="44.31768" lon="6.85978">
        <time>2023-04-10T06:22:31+00:00</time>
        <ele>1915.0</ele>
      </trkpt>
      <trkpt lat="44.31768" lon="6.85978">
        <time>2023-04-10T06:22:32+00:00</time>
        <ele>1915.0</ele>
      </trkpt>
      <trkpt lat="44.31768" lon="6.85978">
        <time>2023-04-10T06:22:33+00:00</time>
        <ele>1915.0</ele>
      </trkpt>
      <trkpt lat="44.31768" lon="6.85978">
        <time>2023-04-10T06:22:34+00:00</time>
        <ele>1915.0</ele>
      </trkpt>
      <trkpt lat="44.31768" lon="6.85978">
        <time>2023-04-10T06:22:35+00:00</time>
        <ele>1915.0</ele>
      </trkpt>
      <trkpt lat="44.31768" lon="6.85978">
        <time>2023-04-10T06:22:36+00:00</time>
        <ele>1915.0</ele>
      </trkpt>
      <trkpt lat="44.31768" lon="6.85978">
        <time>2023-04-10T06:22:37+00:00</time>
        <ele>1915.0</ele>
      </trkpt>
      <trkpt lat="44.31768" lon="6.85978">
        <time>2023-04-10T06:22:38+00:00</time>
        <ele>1915.0</ele>
      </trkpt>
      <trkpt lat="44.31768" lon="6.85978">
        <time>2023-04-10T06:22:39+00:00</time>
        <ele>1915.0</ele>
      </trkpt>
      <trkpt lat="44.31768" lon="6.85978">
        <time>2023-04-10T06:22:40+00:00</time>
        <ele>1915.0</ele>
      </trkpt>
      <trkpt lat="44.31768" lon="6.85978">
        <time>2023-04-10T06:22:41+00:00</time>
        <ele>1915.0</ele>
      </trkpt>
      <trkpt lat="44.31768" lon="6.85978">
        <time>2023-04-10T06:22:42+00:00</time>
        <ele>1915.0</ele>
      </trkpt>
      <trkpt lat="44.31768" lon="6.85978">
        <time>2023-04-10T06:22:43+00:00</time>
        <ele>1915.0</ele>
      </trkpt>
      <trkpt lat="44.31768" lon="6.85978">
        <time>2023-04-10T06:22:44+00:00</time>
        <ele>1915.0</ele>
      </trkpt>
      <trkpt lat="44.31768" lon="6.85978">
        <time>2023-04-10T06:22:45+00:00</time>
        <ele>1915.0</ele>
      </trkpt>
      <trkpt lat="44.31768" lon="6.85978">
        <time>2023-04-10T06:22:46+00:00</time>
        <ele>1915.0</ele>
      </trkpt>
      <trkpt lat="44.31768" lon="6.85978">
        <time>2023-04-10T06:22:47+00:00</time>
        <ele>1915.0</ele>
      </trkpt>
      <trkpt lat="44.31768" lon="6.85978">
        <time>2023-04-10T06:22:48+00:00</time>
        <ele>1915.0</ele>
      </trkpt>
      <trkpt lat="44.31768" lon="6.85978">
        <time>2023-04-10T06:22:49+00:00</time>
        <ele>1915.0</ele>
      </trkpt>
      <trkpt lat="44.31768" lon="6.85978">
        <time>2023-04-10T06:22:50+00:00</time>
        <ele>1915.0</ele>
      </trkpt>
      <trkpt lat="44.31768" lon="6.85978">
        <time>2023-04-10T06:22:51+00:00</time>
        <ele>1915.0</ele>
      </trkpt>
      <trkpt lat="44.31768" lon="6.85978">
        <time>2023-04-10T06:22:52+00:00</time>
        <ele>1915.0</ele>
      </trkpt>
      <trkpt lat="44.31768" lon="6.85978">
        <time>2023-04-10T06:22:53+00:00</time>
        <ele>1915.0</ele>
      </trkpt>
      <trkpt lat="44.31768" lon="6.85978">
        <time>2023-04-10T06:22:54+00:00</time>
        <ele>1915.0</ele>
      </trkpt>
      <trkpt lat="44.31768" lon="6.85978">
        <time>2023-04-10T06:22:55+00:00</time>
        <ele>1915.0</ele>
      </trkpt>
      <trkpt lat="44.31768" lon="6.85978">
        <time>2023-04-10T06:22:56+00:00</time>
        <ele>1915.0</ele>
      </trkpt>
      <trkpt lat="44.31768" lon="6.85978">
        <time>2023-04-10T06:22:57+00:00</time>
        <ele>1915.0</ele>
      </trkpt>
      <trkpt lat="44.31768" lon="6.85978">
        <time>2023-04-10T06:22:58+00:00</time>
        <ele>1915.0</ele>
      </trkpt>
      <trkpt lat="44.31768" lon="6.85978">
        <time>2023-04-10T06:22:59+00:00</time>
        <ele>1915.0</ele>
      </trkpt>
      <trkpt lat="44.31768" lon="6.85978">
        <time>2023-04-10T06:23:00+00:00</time>
        <ele>1915.0</ele>
      </trkpt>
      <trkpt lat="44.31768" lon="6.85978">
        <time>2023-04-10T06:23:01+00:00</time>
        <ele>1915.0</ele>
      </trkpt>
      <trkpt lat="44.31768" lon="6.85978">
        <time>2023-04-10T06:23:02+00:00</time>
        <ele>1915.0</ele>
      </trkpt>
      <trkpt lat="44.31768" lon="6.85978">
        <time>2023-04-10T06:23:03+00:00</time>
        <ele>1915.0</ele>
      </trkpt>
      <trkpt lat="44.31768" lon="6.85978">
        <time>2023-04-10T06:23:04+00:00</time>
        <ele>1915.0</ele>
      </trkpt>
      <trkpt lat="44.31768" lon="6.85978">
        <time>2023-04-10T06:23:05+00:00</time>
        <ele>1915.0</ele>
      </trkpt>
      <trkpt lat="44.31768" lon="6.85978">
        <time>2023-04-10T06:23:06+00:00</time>
        <ele>1915.0</ele>
      </trkpt>
      <trkpt lat="44.31768" lon="6.85978">
        <time>2023-04-10T06:23:07+00:00</time>
        <ele>1915.0</ele>
      </trkpt>
      <trkpt lat="44.31768" lon="6.85978">
        <time>2023-04-10T06:23:08+00:00</time>
        <ele>1915.0</ele>
      </trkpt>
      <trkpt lat="44.31768" lon="6.85978">
        <time>2023-04-10T06:23:09+00:00</time>
        <ele>1915.0</ele>
      </trkpt>
      <trkpt lat="44.31768" lon="6.85978">
        <time>2023-04-10T06:23:10+00:00</time>
        <ele>1915.0</ele>
      </trkpt>
      <trkpt lat="44.31768" lon="6.85978">
        <time>2023-04-10T06:23:11+00:00</time>
        <ele>1915.0</ele>
      </trkpt>
      <trkpt lat="44.31768" lon="6.85978">
        <time>2023-04-10T06:23:12+00:00</time>
        <ele>1915.0</ele>
      </trkpt>
      <trkpt lat="44.31768" lon="6.85978">
        <time>2023-04-10T06:23:13+00:00</time>
        <ele>1915.0</ele>
      </trkpt>
      <trkpt lat="44.31768" lon="6.85978">
        <time>2023-04-10T06:23:14+00:00</time>
        <ele>1915.0</ele>
      </trkpt>
      <trkpt lat="44.31768" lon="6.85978">
        <time>2023-04-10T06:23:15+00:00</time>
        <ele>1915.0</ele>
      </trkpt>
      <trkpt lat="44.31768" lon="6.85978">
        <time>2023-04-10T06:23:16+00:00</time>
        <ele>1915.0</ele>
      </trkpt>
      <trkpt lat="44.31768" lon="6.85978">
        <time>2023-04-10T06:23:17+00:00</time>
        <ele>1915.0</ele>
      </trkpt>
      <trkpt lat="44.31768" lon="6.85978">
        <time>2023-04-10T06:23:18+00:00</time>
        <ele>1915.0</ele>
      </trkpt>
      <trkpt lat="44.31768" lon="6.85978">
        <time>2023-04-10T06:23:19+00:00</time>
        <ele>1915.0</ele>
      </trkpt>
      <trkpt lat="44.31768" lon="6.85978">
        <time>2023-04-10T06:23:20+00:00</time>
        <ele>1915.0</ele>
      </trkpt>
      <trkpt lat="44.31768" lon="6.85978">
        <time>2023-04-10T06:23:21+00:00</time>
        <ele>1915.0</ele>
      </trkpt>
      <trkpt lat="44.31768" lon="6.85978">
        <time>2023-04-10T06:23:22+00:00</time>
        <ele>1915.0</ele>
      </trkpt>
      <trkpt lat="44.31768" lon="6.85978">
        <time>2023-04-10T06:23:23+00:00</time>
        <ele>1915.0</ele>
      </trkpt>
      <trkpt lat="44.31768" lon="6.85978">
        <time>2023-04-10T06:23:24+00:00</time>
        <ele>1915.0</ele>
      </trkpt>
      <trkpt lat="44.31768" lon="6.85978">
        <time>2023-04-10T06:23:25+00:00</time>
        <ele>1915.0</ele>
      </trkpt>
      <trkpt lat="44.31768" lon="6.85978">
        <time>2023-04-10T06:23:26+00:00</time>
        <ele>1915.0</ele>
      </trkpt>
      <trkpt lat="44.31768" lon="6.85978">
        <time>2023-04-10T06:23:27+00:00</time>
        <ele>1915.0</ele>
      </trkpt>
      <trkpt lat="44.31768" lon="6.85978">
        <time>2023-04-10T06:23:28+00:00</time>
        <ele>1915.0</ele>
      </trkpt>
      <trkpt lat="44.31768" lon="6.85978">
        <time>2023-04-10T06:23:29+00:00</time>
        <ele>1915.0</ele>
      </trkpt>
      <trkpt lat="44.31768" lon="6.85978">
        <time>2023-04-10T06:23:30+00:00</time>
        <ele>1915.0</ele>
      </trkpt>
      <trkpt lat="44.31768" lon="6.85978">
        <time>2023-04-10T06:23:31+00:00</time>
        <ele>1915.0</ele>
      </trkpt>
      <trkpt lat="44.31768" lon="6.85978">
        <time>2023-04-10T06:23:32+00:00</time>
        <ele>1915.0</ele>
      </trkpt>
      <trkpt lat="44.31768" lon="6.85978">
        <time>2023-04-10T06:23:33+00:00</time>
        <ele>1915.0</ele>
      </trkpt>
      <trkpt lat="44.31768" lon="6.85978">
        <time>2023-04-10T06:23:34+00:00</time>
        <ele>1915.0</ele>
      </trkpt>
      <trkpt lat="44.31768" lon="6.85978">
        <time>2023-04-10T06:23:35+00:00</time>
        <ele>1915.0</ele>
      </trkpt>
      <trkpt lat="44.31768" lon="6.85978">
        <time>2023-04-10T06:23:36+00:00</time>
        <ele>1915.0</ele>
      </trkpt>
      <trkpt lat="44.31768" lon="6.85978">
        <time>2023-04-10T06:23:37+00:00</time>
        <ele>1915.0</ele>
      </trkpt>
      <trkpt lat="44.31768" lon="6.85978">
        <time>2023-04-10T06:23:38+00:00</time>
        <ele>1915.0</ele>
      </trkpt>
      <trkpt lat="44.31768" lon="6.85978">
        <time>2023-04-10T06:23:39+00:00</time>
        <ele>1915.0</ele>
      </trkpt>
      <trkpt lat="44.31768" lon="6.85978">
        <time>2023-04-10T06:23:40+00:00</time>
        <ele>1915.0</ele>
      </trkpt>
      <trkpt lat="44.31768" lon="6.85978">
        <time>2023-04-10T06:23:41+00:00</time>
        <ele>1915.0</ele>
      </trkpt>
      <trkpt lat="44.31768" lon="6.85978">
        <time>2023-04-10T06:23:42+00:00</time>
        <ele>1915.0</ele>
      </trkpt>
      <trkpt lat="44.31768" lon="6.85978">
        <time>2023-04-10T06:23:43+00:00</time>
        <ele>1915.0</ele>
      </trkpt>
      <trkpt lat="44.31768" lon="6.85978">
        <time>2023-04-10T06:23:44+00:00</time>
        <ele>1915.0</ele>
      </trkpt>
      <trkpt lat="44.31768" lon="6.85978">
        <time>2023-04-10T06:23:45+00:00</time>
        <ele>1915.0</ele>
      </trkpt>
      <trkpt lat="44.31768" lon="6.85978">
        <time>2023-04-10T06:23:46+00:00</time>
        <ele>1915.0</ele>
      </trkpt>
      <trkpt lat="44.31768" lon="6.85978">
        <time>2023-04-10T06:23:47+00:00</time>
        <ele>1915.0</ele>
      </trkpt>
      <trkpt lat="44.31768" lon="6.85978">
        <time>2023-04-10T06:23:48+00:00</time>
        <ele>1915.0</ele>
      </trkpt>
      <trkpt lat="44.31768" lon="6.85978">
        <time>2023-04-10T06:23:49+00:00</time>
        <ele>1915.0</ele>
      </trkpt>
      <trkpt lat="44.31768" lon="6.85978">
        <time>2023-04-10T06:23:50+00:00</time>
        <ele>1915.0</ele>
      </trkpt>
      <trkpt lat="44.31768" lon="6.85978">
        <time>2023-04-10T06:23:51+00:00</time>
        <ele>1915.0</ele>
      </trkpt>
      <trkpt lat="44.31768" lon="6.85978">
        <time>2023-04-10T06:23:52+00:00</time>
        <ele>1915.0</ele>
      </trkpt>
      <trkpt lat="44.31768" lon="6.85978">
        <time>2023-04-10T06:23:53+00:00</time>
        <ele>1915.0</ele>
      </trkpt>
      <trkpt lat="44.31768" lon="6.85978">
        <time>2023-04-10T06:23:54+00:00</time>
        <ele>1915.0</ele>
      </trkpt>
      <trkpt lat="44.31768" lon="6.85978">
        <time>2023-04-10T06:23:55+00:00</time>
        <ele>1915.0</ele>
      </trkpt>
      <trkpt lat="44.31768" lon="6.85978">
        <time>2023-04-10T06:23:56+00:00</time>
        <ele>1915.0</ele>
      </trkpt>
      <trkpt lat="44.31768" lon="6.85978">
        <time>2023-04-10T06:23:57+00:00</time>
        <ele>1915.0</ele>
      </trkpt>
      <trkpt lat="44.31768" lon="6.85978">
        <time>2023-04-10T06:23:58+00:00</time>
        <ele>1915.0</ele>
      </trkpt>
      <trkpt lat="44.31768" lon="6.85978">
        <time>2023-04-10T06:23:59+00:00</time>
        <ele>1915.0</ele>
      </trkpt>
      <trkpt lat="44.31768" lon="6.85978">
        <time>2023-04-10T06:24:00+00:00</time>
        <ele>1915.0</ele>
      </trkpt>
      <trkpt lat="44.31768" lon="6.85978">
        <time>2023-04-10T06:24:01+00:00</time>
        <ele>1915.0</ele>
      </trkpt>
      <trkpt lat="44.31768" lon="6.85978">
        <time>2023-04-10T06:24:02+00:00</time>
        <ele>1915.0</ele>
      </trkpt>
      <trkpt lat="44.31768" lon="6.85978">
        <time>2023-04-10T06:24:03+00:00</time>
        <ele>1915.0</ele>
      </trkpt>
      <trkpt lat="44.31768" lon="6.85978">
        <time>2023-04-10T06:24:04+00:00</time>
        <ele>1915.0</ele>
      </trkpt>
      <trkpt lat="44.31768" lon="6.85978">
        <time>2023-04-10T06:24:05+00:00</time>
        <ele>1915.0</ele>
      </trkpt>
      <trkpt lat="44.31768" lon="6.85978">
        <time>2023-04-10T06:24:06+00:00</time>
        <ele>1915.0</ele>
      </trkpt>
      <trkpt lat="44.31768" lon="6.85978">
        <time>2023-04-10T06:24:07+00:00</time>
        <ele>1915.0</ele>
      </trkpt>
      <trkpt lat="44.31768" lon="6.85978">
        <time>2023-04-10T06:24:08+00:00</time>
        <ele>1915.0</ele>
      </trkpt>
      <trkpt lat="44.31768" lon="6.85978">
        <time>2023-04-10T06:24:09+00:00</time>
        <ele>1915.0</ele>
      </trkpt>
      <trkpt lat="44.31768" lon="6.85978">
        <time>2023-04-10T06:24:10+00:00</time>
        <ele>1915.0</ele>
      </trkpt>
      <trkpt lat="44.31768" lon="6.85978">
        <time>2023-04-10T06:24:11+00:00</time>
        <ele>1915.0</ele>
      </trkpt>
      <trkpt lat="44.31768" lon="6.85978">
        <time>2023-04-10T06:24:12+00:00</time>
        <ele>1915.0</ele>
      </trkpt>
      <trkpt lat="44.31768" lon="6.85978">
        <time>2023-04-10T06:24:13+00:00</time>
        <ele>1915.0</ele>
      </trkpt>
      <trkpt lat="44.31768" lon="6.85978">
        <time>2023-04-10T06:24:14+00:00</time>
        <ele>1915.0</ele>
      </trkpt>
      <trkpt lat="44.31768" lon="6.85978">
        <time>2023-04-10T06:24:15+00:00</time>
        <ele>1915.0</ele>
      </trkpt>
      <trkpt lat="44.31768" lon="6.85978">
        <time>2023-04-10T06:24:16+00:00</time>
        <ele>1915.0</ele>
      </trkpt>
      <trkpt lat="44.31768" lon="6.85978">
        <time>2023-04-10T06:24:17+00:00</time>
        <ele>1915.0</ele>
      </trkpt>
      <trkpt lat="44.31768" lon="6.85978">
        <time>2023-04-10T06:24:18+00:00</time>
        <ele>1915.0</ele>
      </trkpt>
      <trkpt lat="44.31768" lon="6.85978">
        <time>2023-04-10T06:24:19+00:00</time>
        <ele>1915.0</ele>
      </trkpt>
      <trkpt lat="44.31768" lon="6.85978">
        <time>2023-04-10T06:24:20+00:00</time>
        <ele>1915.0</ele>
      </trkpt>
      <trkpt lat="44.31768" lon="6.85978">
        <time>2023-04-10T06:24:21+00:00</time>
        <ele>1915.0</ele>
      </trkpt>
      <trkpt lat="44.31768" lon="6.85978">
        <time>2023-04-10T06:24:22+00:00</time>
        <ele>1915.0</ele>
      </trkpt>
      <trkpt lat="44.31768" lon="6.85978">
        <time>2023-04-10T06:24:23+00:00</time>
        <ele>1915.0</ele>
      </trkpt>
      <trkpt lat="44.31768" lon="6.85978">
        <time>2023-04-10T06:24:24+00:00</time>
        <ele>1915.0</ele>
      </trkpt>
      <trkpt lat="44.31768" lon="6.85978">
        <time>2023-04-10T06:24:25+00:00</time>
        <ele>1915.0</ele>
      </trkpt>
      <trkpt lat="44.31768" lon="6.85978">
        <time>2023-04-10T06:24:26+00:00</time>
        <ele>1915.0</ele>
      </trkpt>
      <trkpt lat="44.31768" lon="6.85978">
        <time>2023-04-10T06:24:27+00:00</time>
        <ele>1915.0</ele>
      </trkpt>
      <trkpt lat="44.31768" lon="6.85978">
        <time>2023-04-10T06:24:28+00:00</time>
        <ele>1915.0</ele>
      </trkpt>
      <trkpt lat="44.31768" lon="6.85978">
        <time>2023-04-10T06:24:29+00:00</time>
        <ele>1915.0</ele>
      </trkpt>
      <trkpt lat="44.31768" lon="6.85978">
        <time>2023-04-10T06:24:30+00:00</time>
        <ele>1915.0</ele>
      </trkpt>
      <trkpt lat="44.31768" lon="6.85978">
        <time>2023-04-10T06:24:31+00:00</time>
        <ele>1915.0</ele>
      </trkpt>
      <trkpt lat="44.31768" lon="6.85978">
        <time>2023-04-10T06:24:32+00:00</time>
        <ele>1915.0</ele>
      </trkpt>
      <trkpt lat="44.31768" lon="6.85978">
        <time>2023-04-10T06:24:33+00:00</time>
        <ele>1915.0</ele>
      </trkpt>
      <trkpt lat="44.31768" lon="6.85978">
        <time>2023-04-10T06:24:34+00:00</time>
        <ele>1915.0</ele>
      </trkpt>
      <trkpt lat="44.31768" lon="6.85978">
        <time>2023-04-10T06:24:35+00:00</time>
        <ele>1915.0</ele>
      </trkpt>
      <trkpt lat="44.31768" lon="6.85978">
        <time>2023-04-10T06:24:36+00:00</time>
        <ele>1915.0</ele>
      </trkpt>
      <trkpt lat="44.31768" lon="6.85978">
        <time>2023-04-10T06:24:37+00:00</time>
        <ele>1915.0</ele>
      </trkpt>
      <trkpt lat="44.31768" lon="6.85978">
        <time>2023-04-10T06:24:38+00:00</time>
        <ele>1915.0</ele>
      </trkpt>
      <trkpt lat="44.31768" lon="6.85978">
        <time>2023-04-10T06:24:39+00:00</time>
        <ele>1915.0</ele>
      </trkpt>
      <trkpt lat="44.31768" lon="6.85978">
        <time>2023-04-10T06:24:40+00:00</time>
        <ele>1915.0</ele>
      </trkpt>
      <trkpt lat="44.31768" lon="6.85978">
        <time>2023-04-10T06:24:41+00:00</time>
        <ele>1915.0</ele>
      </trkpt>
      <trkpt lat="44.31768" lon="6.85978">
        <time>2023-04-10T06:24:42+00:00</time>
        <ele>1915.0</ele>
      </trkpt>
      <trkpt lat="44.31768" lon="6.85978">
        <time>2023-04-10T06:24:43+00:00</time>
        <ele>1915.0</ele>
      </trkpt>
      <trkpt lat="44.31768" lon="6.85978">
        <time>2023-04-10T06:24:44+00:00</time>
        <ele>1915.0</ele>
      </trkpt>
      <trkpt lat="44.31768" lon="6.85978">
        <time>2023-04-10T06:24:45+00:00</time>
        <ele>1915.0</ele>
      </trkpt>
      <trkpt lat="44.31768" lon="6.85978">
        <time>2023-04-10T06:24:46+00:00</time>
        <ele>1915.0</ele>
      </trkpt>
      <trkpt lat="44.31768" lon="6.85978">
        <time>2023-04-10T06:24:47+00:00</time>
        <ele>1915.0</ele>
      </trkpt>
      <trkpt lat="44.31768" lon="6.85978">
        <time>2023-04-10T06:24:48+00:00</time>
        <ele>1915.0</ele>
      </trkpt>
      <trkpt lat="44.31768" lon="6.85978">
        <time>2023-04-10T06:24:49+00:00</time>
        <ele>1915.0</ele>
      </trkpt>
      <trkpt lat="44.31768" lon="6.85978">
        <time>2023-04-10T06:24:50+00:00</time>
        <ele>1915.0</ele>
      </trkpt>
      <trkpt lat="44.31768" lon="6.85978">
        <time>2023-04-10T06:24:51+00:00</time>
        <ele>1915.0</ele>
      </trkpt>
      <trkpt lat="44.31768" lon="6.85978">
        <time>2023-04-10T06:24:52+00:00</time>
        <ele>1915.0</ele>
      </trkpt>
      <trkpt lat="44.31768" lon="6.85978">
        <time>2023-04-10T06:24:53+00:00</time>
        <ele>1915.0</ele>
      </trkpt>
      <trkpt lat="44.31768" lon="6.85978">
        <time>2023-04-10T06:24:54+00:00</time>
        <ele>1915.0</ele>
      </trkpt>
      <trkpt lat="44.31768" lon="6.85978">
        <time>2023-04-10T06:24:55+00:00</time>
        <ele>1915.0</ele>
      </trkpt>
      <trkpt lat="44.31768" lon="6.85978">
        <time>2023-04-10T06:24:56+00:00</time>
        <ele>1915.0</ele>
      </trkpt>
      <trkpt lat="44.31768" lon="6.85978">
        <time>2023-04-10T06:24:57+00:00</time>
        <ele>1915.0</ele>
      </trkpt>
      <trkpt lat="44.31768" lon="6.85978">
        <time>2023-04-10T06:24:58+00:00</time>
        <ele>1915.0</ele>
      </trkpt>
      <trkpt lat="44.31768" lon="6.85978">
        <time>2023-04-10T06:24:59+00:00</time>
        <ele>1915.0</ele>
      </trkpt>
      <trkpt lat="44.31768" lon="6.85978">
        <time>2023-04-10T06:25:00+00:00</time>
        <ele>1915.0</ele>
      </trkpt>
      <trkpt lat="44.31768" lon="6.85978">
        <time>2023-04-10T06:25:01+00:00</time>
        <ele>1915.0</ele>
      </trkpt>
      <trkpt lat="44.31768" lon="6.85978">
        <time>2023-04-10T06:25:02+00:00</time>
        <ele>1915.0</ele>
      </trkpt>
      <trkpt lat="44.31768" lon="6.85978">
        <time>2023-04-10T06:25:03+00:00</time>
        <ele>1915.0</ele>
      </trkpt>
      <trkpt lat="44.31768" lon="6.85978">
        <time>2023-04-10T06:25:04+00:00</time>
        <ele>1915.0</ele>
      </trkpt>
      <trkpt lat="44.31768" lon="6.85978">
        <time>2023-04-10T06:25:05+00:00</time>
        <ele>1915.0</ele>
      </trkpt>
      <trkpt lat="44.31768" lon="6.85978">
        <time>2023-04-10T06:25:06+00:00</time>
        <ele>1915.0</ele>
      </trkpt>
      <trkpt lat="44.31768" lon="6.85978">
        <time>2023-04-10T06:25:07+00:00</time>
        <ele>1915.0</ele>
      </trkpt>
      <trkpt lat="44.31768" lon="6.85978">
        <time>2023-04-10T06:25:08+00:00</time>
        <ele>1915.0</ele>
      </trkpt>
      <trkpt lat="44.31768" lon="6.85978">
        <time>2023-04-10T06:25:09+00:00</time>
        <ele>1915.0</ele>
      </trkpt>
      <trkpt lat="44.31768" lon="6.85978">
        <time>2023-04-10T06:25:10+00:00</time>
        <ele>1915.0</ele>
      </trkpt>
      <trkpt lat="44.31768" lon="6.85978">
        <time>2023-04-10T06:25:11+00:00</time>
        <ele>1915.0</ele>
      </trkpt>
      <trkpt lat="44.31768" lon="6.85978">
        <time>2023-04-10T06:25:12+00:00</time>
        <ele>1915.0</ele>
      </trkpt>
      <trkpt lat="44.31768" lon="6.85978">
        <time>2023-04-10T06:25:13+00:00</time>
        <ele>1915.0</ele>
      </trkpt>
      <trkpt lat="44.31768" lon="6.85978">
        <time>2023-04-10T06:25:14+00:00</time>
        <ele>1915.0</ele>
      </trkpt>
      <trkpt lat="44.31768" lon="6.85978">
        <time>2023-04-10T06:25:15+00:00</time>
        <ele>1915.0</ele>
      </trkpt>
      <trkpt lat="44.31768" lon="6.85978">
        <time>2023-04-10T06:25:16+00:00</time>
        <ele>1915.0</ele>
      </trkpt>
      <trkpt lat="44.31768" lon="6.85978">
        <time>2023-04-10T06:25:17+00:00</time>
        <ele>1915.0</ele>
      </trkpt>
      <trkpt lat="44.31768" lon="6.85978">
        <time>2023-04-10T06:25:18+00:00</time>
        <ele>1915.0</ele>
      </trkpt>
      <trkpt lat="44.31768" lon="6.85978">
        <time>2023-04-10T06:25:19+00:00</time>
        <ele>1915.0</ele>
      </trkpt>
      <trkpt lat="44.31768" lon="6.85978">
        <time>2023-04-10T06:25:20+00:00</time>
        <ele>1915.0</ele>
      </trkpt>
      <trkpt lat="44.31768" lon="6.85978">
        <time>2023-04-10T06:25:21+00:00</time>
        <ele>1915.0</ele>
      </trkpt>
      <trkpt lat="44.31768" lon="6.85978">
        <time>2023-04-10T06:25:22+00:00</time>
        <ele>1915.0</ele>
      </trkpt>
      <trkpt lat="44.31768" lon="6.85978">
        <time>2023-04-10T06:25:23+00:00</time>
        <ele>1915.0</ele>
      </trkpt>
      <trkpt lat="44.31768" lon="6.85978">
        <time>2023-04-10T06:25:24+00:00</time>
        <ele>1915.0</ele>
      </trkpt>
      <trkpt lat="44.31768" lon="6.85978">
        <time>2023-04-10T06:25:25+00:00</time>
        <ele>1915.0</ele>
      </trkpt>
      <trkpt lat="44.31768" lon="6.85978">
        <time>2023-04-10T06:25:26+00:00</time>
        <ele>1915.0</ele>
      </trkpt>
      <trkpt lat="44.31768" lon="6.85978">
        <time>2023-04-10T06:25:27+00:00</time>
        <ele>1915.0</ele>
      </trkpt>
      <trkpt lat="44.31768" lon="6.85978">
        <time>2023-04-10T06:25:28+00:00</time>
        <ele>1915.0</ele>
      </trkpt>
      <trkpt lat="44.31767" lon="6.85975">
        <time>2023-04-10T06:25:29+00:00</time>
        <ele>1916.0</ele>
      </trkpt>
      <trkpt lat="44.31767" lon="6.85975">
        <time>2023-04-10T06:25:30+00:00</time>
        <ele>1916.0</ele>
      </trkpt>
      <trkpt lat="44.31765" lon="6.85974">
        <time>2023-04-10T06:25:31+00:00</time>
        <ele>1916.0</ele>
      </trkpt>
      <trkpt lat="44.31765" lon="6.85974">
        <time>2023-04-10T06:25:32+00:00</time>
        <ele>1916.0</ele>
      </trkpt>
      <trkpt lat="44.31762" lon="6.85973">
        <time>2023-04-10T06:25:33+00:00</time>
        <ele>1917.0</ele>
      </trkpt>
      <trkpt lat="44.31762" lon="6.85973">
        <time>2023-04-10T06:25:34+00:00</time>
        <ele>1917.0</ele>
      </trkpt>
      <trkpt lat="44.31762" lon="6.85973">
        <time>2023-04-10T06:25:35+00:00</time>
        <ele>1917.0</ele>
      </trkpt>
      <trkpt lat="44.31759" lon="6.85973">
        <time>2023-04-10T06:25:36+00:00</time>
        <ele>1917.0</ele>
      </trkpt>
      <trkpt lat="44.31759" lon="6.85973">
        <time>2023-04-10T06:25:37+00:00</time>
        <ele>1917.0</ele>
      </trkpt>
      <trkpt lat="44.31757" lon="6.85972">
        <time>2023-04-10T06:25:38+00:00</time>
        <ele>1917.0</ele>
      </trkpt>
      <trkpt lat="44.31757" lon="6.85972">
        <time>2023-04-10T06:25:39+00:00</time>
        <ele>1917.0</ele>
      </trkpt>
      <trkpt lat="44.31757" lon="6.85972">
        <time>2023-04-10T06:25:40+00:00</time>
        <ele>1917.0</ele>
      </trkpt>
      <trkpt lat="44.31755" lon="6.85971">
        <time>2023-04-10T06:25:41+00:00</time>
        <ele>1917.0</ele>
      </trkpt>
      <trkpt lat="44.31755" lon="6.85971">
        <time>2023-04-10T06:25:42+00:00</time>
        <ele>1917.0</ele>
      </trkpt>
      <trkpt lat="44.31755" lon="6.85971">
        <time>2023-04-10T06:25:43+00:00</time>
        <ele>1917.0</ele>
      </trkpt>
      <trkpt lat="44.31754" lon="6.85969">
        <time>2023-04-10T06:25:44+00:00</time>
        <ele>1918.0</ele>
      </trkpt>
      <trkpt lat="44.31754" lon="6.85969">
        <time>2023-04-10T06:25:45+00:00</time>
        <ele>1918.0</ele>
      </trkpt>
      <trkpt lat="44.31754" lon="6.85969">
        <time>2023-04-10T06:25:46+00:00</time>
        <ele>1918.0</ele>
      </trkpt>
      <trkpt lat="44.31753" lon="6.85965">
        <time>2023-04-10T06:25:47+00:00</time>
        <ele>1919.0</ele>
      </trkpt>
      <trkpt lat="44.31753" lon="6.85965">
        <time>2023-04-10T06:25:48+00:00</time>
        <ele>1919.0</ele>
      </trkpt>
      <trkpt lat="44.31753" lon="6.85965">
        <time>2023-04-10T06:25:49+00:00</time>
        <ele>1919.0</ele>
      </trkpt>
      <trkpt lat="44.31753" lon="6.85962">
        <time>2023-04-10T06:25:50+00:00</time>
        <ele>1919.0</ele>
      </trkpt>
      <trkpt lat="44.31753" lon="6.85962">
        <time>2023-04-10T06:25:51+00:00</time>
        <ele>1919.0</ele>
      </trkpt>
      <trkpt lat="44.31753" lon="6.85962">
        <time>2023-04-10T06:25:52+00:00</time>
        <ele>1919.0</ele>
      </trkpt>
      <trkpt lat="44.31753" lon="6.8596">
        <time>2023-04-10T06:25:53+00:00</time>
        <ele>1920.0</ele>
      </trkpt>
      <trkpt lat="44.31753" lon="6.8596">
        <time>2023-04-10T06:25:54+00:00</time>
        <ele>1920.0</ele>
      </trkpt>
      <trkpt lat="44.31753" lon="6.8596">
        <time>2023-04-10T06:25:55+00:00</time>
        <ele>1920.0</ele>
      </trkpt>
      <trkpt lat="44.31753" lon="6.85957">
        <time>2023-04-10T06:25:56+00:00</time>
        <ele>1921.0</ele>
      </trkpt>
      <trkpt lat="44.31753" lon="6.85957">
        <time>2023-04-10T06:25:57+00:00</time>
        <ele>1921.0</ele>
      </trkpt>
      <trkpt lat="44.31753" lon="6.85957">
        <time>2023-04-10T06:25:58+00:00</time>
        <ele>1921.0</ele>
      </trkpt>
      <trkpt lat="44.31753" lon="6.85957">
        <time>2023-04-10T06:25:59+00:00</time>
        <ele>1921.0</ele>
      </trkpt>
      <trkpt lat="44.31753" lon="6.85957">
        <time>2023-04-10T06:26:00+00:00</time>
        <ele>1921.0</ele>
      </trkpt>
      <trkpt lat="44.31753" lon="6.85954">
        <time>2023-04-10T06:26:01+00:00</time>
        <ele>1922.0</ele>
      </trkpt>
      <trkpt lat="44.31753" lon="6.85954">
        <time>2023-04-10T06:26:02+00:00</time>
        <ele>1922.0</ele>
      </trkpt>
      <trkpt lat="44.31753" lon="6.85954">
        <time>2023-04-10T06:26:03+00:00</time>
        <ele>1922.0</ele>
      </trkpt>
      <trkpt lat="44.31753" lon="6.85951">
        <time>2023-04-10T06:26:04+00:00</time>
        <ele>1922.0</ele>
      </trkpt>
      <trkpt lat="44.31753" lon="6.85951">
        <time>2023-04-10T06:26:05+00:00</time>
        <ele>1922.0</ele>
      </trkpt>
      <trkpt lat="44.31753" lon="6.85951">
        <time>2023-04-10T06:26:06+00:00</time>
        <ele>1922.0</ele>
      </trkpt>
      <trkpt lat="44.31754" lon="6.85948">
        <time>2023-04-10T06:26:07+00:00</time>
        <ele>1923.0</ele>
      </trkpt>
      <trkpt lat="44.31754" lon="6.85948">
        <time>2023-04-10T06:26:08+00:00</time>
        <ele>1923.0</ele>
      </trkpt>
      <trkpt lat="44.31754" lon="6.85948">
        <time>2023-04-10T06:26:09+00:00</time>
        <ele>1923.0</ele>
      </trkpt>
      <trkpt lat="44.31754" lon="6.85945">
        <time>2023-04-10T06:26:10+00:00</time>
        <ele>1924.0</ele>
      </trkpt>
      <trkpt lat="44.31754" lon="6.85945">
        <time>2023-04-10T06:26:11+00:00</time>
        <ele>1924.0</ele>
      </trkpt>
      <trkpt lat="44.31754" lon="6.85945">
        <time>2023-04-10T06:26:12+00:00</time>
        <ele>1924.0</ele>
      </trkpt>
      <trkpt lat="44.31754" lon="6.85945">
        <time>2023-04-10T06:26:13+00:00</time>
        <ele>1924.0</ele>
      </trkpt>
      <trkpt lat="44.31753" lon="6.85942">
        <time>2023-04-10T06:26:14+00:00</time>
        <ele>1925.0</ele>
      </trkpt>
      <trkpt lat="44.31753" lon="6.85942">
        <time>2023-04-10T06:26:15+00:00</time>
        <ele>1925.0</ele>
      </trkpt>
      <trkpt lat="44.31753" lon="6.85942">
        <time>2023-04-10T06:26:16+00:00</time>
        <ele>1925.0</ele>
      </trkpt>
      <trkpt lat="44.31753" lon="6.85942">
        <time>2023-04-10T06:26:17+00:00</time>
        <ele>1925.0</ele>
      </trkpt>
      <trkpt lat="44.31753" lon="6.85939">
        <time>2023-04-10T06:26:18+00:00</time>
        <ele>1926.0</ele>
      </trkpt>
      <trkpt lat="44.31753" lon="6.85939">
        <time>2023-04-10T06:26:19+00:00</time>
        <ele>1926.0</ele>
      </trkpt>
      <trkpt lat="44.31753" lon="6.85939">
        <time>2023-04-10T06:26:20+00:00</time>
        <ele>1926.0</ele>
      </trkpt>
      <trkpt lat="44.31753" lon="6.85936">
        <time>2023-04-10T06:26:21+00:00</time>
        <ele>1927.0</ele>
      </trkpt>
      <trkpt lat="44.31753" lon="6.85936">
        <time>2023-04-10T06:26:22+00:00</time>
        <ele>1927.0</ele>
      </trkpt>
      <trkpt lat="44.31753" lon="6.85936">
        <time>2023-04-10T06:26:23+00:00</time>
        <ele>1927.0</ele>
      </trkpt>
      <trkpt lat="44.31753" lon="6.85932">
        <time>2023-04-10T06:26:24+00:00</time>
        <ele>1928.0</ele>
      </trkpt>
      <trkpt lat="44.31753" lon="6.85932">
        <time>2023-04-10T06:26:25+00:00</time>
        <ele>1928.0</ele>
      </trkpt>
      <trkpt lat="44.31753" lon="6.85932">
        <time>2023-04-10T06:26:26+00:00</time>
        <ele>1928.0</ele>
      </trkpt>
      <trkpt lat="44.31754" lon="6.8593">
        <time>2023-04-10T06:26:27+00:00</time>
        <ele>1928.0</ele>
      </trkpt>
      <trkpt lat="44.31754" lon="6.8593">
        <time>2023-04-10T06:26:28+00:00</time>
        <ele>1928.0</ele>
      </trkpt>
      <trkpt lat="44.31754" lon="6.8593">
        <time>2023-04-10T06:26:29+00:00</time>
        <ele>1928.0</ele>
      </trkpt>
      <trkpt lat="44.31755" lon="6.85926">
        <time>2023-04-10T06:26:30+00:00</time>
        <ele>1929.0</ele>
      </trkpt>
      <trkpt lat="44.31755" lon="6.85926">
        <time>2023-04-10T06:26:31+00:00</time>
        <ele>1929.0</ele>
      </trkpt>
      <trkpt lat="44.31755" lon="6.85926">
        <time>2023-04-10T06:26:32+00:00</time>
        <ele>1929.0</ele>
      </trkpt>
      <trkpt lat="44.31756" lon="6.85924">
        <time>2023-04-10T06:26:33+00:00</time>
        <ele>1929.0</ele>
      </trkpt>
      <trkpt lat="44.31756" lon="6.85924">
        <time>2023-04-10T06:26:34+00:00</time>
        <ele>1929.0</ele>
      </trkpt>
      <trkpt lat="44.31756" lon="6.85924">
        <time>2023-04-10T06:26:35+00:00</time>
        <ele>1929.0</ele>
      </trkpt>
      <trkpt lat="44.31757" lon="6.85921">
        <time>2023-04-10T06:26:36+00:00</time>
        <ele>1930.0</ele>
      </trkpt>
      <trkpt lat="44.31757" lon="6.85921">
        <time>2023-04-10T06:26:37+00:00</time>
        <ele>1930.0</ele>
      </trkpt>
      <trkpt lat="44.31757" lon="6.85921">
        <time>2023-04-10T06:26:38+00:00</time>
        <ele>1930.0</ele>
      </trkpt>
      <trkpt lat="44.31757" lon="6.85918">
        <time>2023-04-10T06:26:39+00:00</time>
        <ele>1930.0</ele>
      </trkpt>
      <trkpt lat="44.31757" lon="6.85918">
        <time>2023-04-10T06:26:40+00:00</time>
        <ele>1930.0</ele>
      </trkpt>
      <trkpt lat="44.31757" lon="6.85918">
        <time>2023-04-10T06:26:41+00:00</time>
        <ele>1930.0</ele>
      </trkpt>
      <trkpt lat="44.31757" lon="6.85915">
        <time>2023-04-10T06:26:42+00:00</time>
        <ele>1931.0</ele>
      </trkpt>
      <trkpt lat="44.31757" lon="6.85915">
        <time>2023-04-10T06:26:43+00:00</time>
        <ele>1931.0</ele>
      </trkpt>
      <trkpt lat="44.31757" lon="6.85915">
        <time>2023-04-10T06:26:44+00:00</time>
        <ele>1931.0</ele>
      </trkpt>
      <trkpt lat="44.31757" lon="6.85912">
        <time>2023-04-10T06:26:45+00:00</time>
        <ele>1932.0</ele>
      </trkpt>
      <trkpt lat="44.31757" lon="6.85912">
        <time>2023-04-10T06:26:46+00:00</time>
        <ele>1932.0</ele>
      </trkpt>
      <trkpt lat="44.31757" lon="6.85912">
        <time>2023-04-10T06:26:47+00:00</time>
        <ele>1932.0</ele>
      </trkpt>
      <trkpt lat="44.31757" lon="6.85909">
        <time>2023-04-10T06:26:48+00:00</time>
        <ele>1932.0</ele>
      </trkpt>
      <trkpt lat="44.31757" lon="6.85909">
        <time>2023-04-10T06:26:49+00:00</time>
        <ele>1932.0</ele>
      </trkpt>
      <trkpt lat="44.31757" lon="6.85909">
        <time>2023-04-10T06:26:50+00:00</time>
        <ele>1932.0</ele>
      </trkpt>
      <trkpt lat="44.31756" lon="6.85906">
        <time>2023-04-10T06:26:51+00:00</time>
        <ele>1933.0</ele>
      </trkpt>
      <trkpt lat="44.31756" lon="6.85906">
        <time>2023-04-10T06:26:52+00:00</time>
        <ele>1933.0</ele>
      </trkpt>
      <trkpt lat="44.31756" lon="6.85903">
        <time>2023-04-10T06:26:53+00:00</time>
        <ele>1934.0</ele>
      </trkpt>
      <trkpt lat="44.31756" lon="6.85903">
        <time>2023-04-10T06:26:54+00:00</time>
        <ele>1934.0</ele>
      </trkpt>
      <trkpt lat="44.31756" lon="6.85903">
        <time>2023-04-10T06:26:55+00:00</time>
        <ele>1934.0</ele>
      </trkpt>
      <trkpt lat="44.31756" lon="6.859">
        <time>2023-04-10T06:26:56+00:00</time>
        <ele>1934.0</ele>
      </trkpt>
      <trkpt lat="44.31756" lon="6.859">
        <time>2023-04-10T06:26:57+00:00</time>
        <ele>1934.0</ele>
      </trkpt>
      <trkpt lat="44.31756" lon="6.859">
        <time>2023-04-10T06:26:58+00:00</time>
        <ele>1934.0</ele>
      </trkpt>
      <trkpt lat="44.31755" lon="6.85897">
        <time>2023-04-10T06:26:59+00:00</time>
        <ele>1935.0</ele>
      </trkpt>
      <trkpt lat="44.31755" lon="6.85897">
        <time>2023-04-10T06:27:00+00:00</time>
        <ele>1935.0</ele>
      </trkpt>
      <trkpt lat="44.31755" lon="6.85897">
        <time>2023-04-10T06:27:01+00:00</time>
        <ele>1935.0</ele>
      </trkpt>
      <trkpt lat="44.31754" lon="6.85894">
        <time>2023-04-10T06:27:02+00:00</time>
        <ele>1936.0</ele>
      </trkpt>
      <trkpt lat="44.31754" lon="6.85894">
        <time>2023-04-10T06:27:03+00:00</time>
        <ele>1936.0</ele>
      </trkpt>
      <trkpt lat="44.31754" lon="6.85891">
        <time>2023-04-10T06:27:04+00:00</time>
        <ele>1936.0</ele>
      </trkpt>
      <trkpt lat="44.31754" lon="6.85891">
        <time>2023-04-10T06:27:05+00:00</time>
        <ele>1936.0</ele>
      </trkpt>
      <trkpt lat="44.31754" lon="6.85891">
        <time>2023-04-10T06:27:06+00:00</time>
        <ele>1936.0</ele>
      </trkpt>
      <trkpt lat="44.31754" lon="6.85891">
        <time>2023-04-10T06:27:07+00:00</time>
        <ele>1936.0</ele>
      </trkpt>
      <trkpt lat="44.31753" lon="6.85888">
        <time>2023-04-10T06:27:08+00:00</time>
        <ele>1937.0</ele>
      </trkpt>
      <trkpt lat="44.31753" lon="6.85888">
        <time>2023-04-10T06:27:09+00:00</time>
        <ele>1937.0</ele>
      </trkpt>
      <trkpt lat="44.31753" lon="6.85888">
        <time>2023-04-10T06:27:10+00:00</time>
        <ele>1937.0</ele>
      </trkpt>
      <trkpt lat="44.31752" lon="6.85885">
        <time>2023-04-10T06:27:11+00:00</time>
        <ele>1938.0</ele>
      </trkpt>
      <trkpt lat="44.31752" lon="6.85885">
        <time>2023-04-10T06:27:12+00:00</time>
        <ele>1938.0</ele>
      </trkpt>
      <trkpt lat="44.31751" lon="6.85883">
        <time>2023-04-10T06:27:13+00:00</time>
        <ele>1938.0</ele>
      </trkpt>
      <trkpt lat="44.31751" lon="6.85883">
        <time>2023-04-10T06:27:14+00:00</time>
        <ele>1938.0</ele>
      </trkpt>
      <trkpt lat="44.31751" lon="6.85883">
        <time>2023-04-10T06:27:15+00:00</time>
        <ele>1938.0</ele>
      </trkpt>
      <trkpt lat="44.3175" lon="6.8588">
        <time>2023-04-10T06:27:16+00:00</time>
        <ele>1939.0</ele>
      </trkpt>
      <trkpt lat="44.3175" lon="6.8588">
        <time>2023-04-10T06:27:17+00:00</time>
        <ele>1939.0</ele>
      </trkpt>
      <trkpt lat="44.3175" lon="6.8588">
        <time>2023-04-10T06:27:18+00:00</time>
        <ele>1939.0</ele>
      </trkpt>
      <trkpt lat="44.31749" lon="6.85878">
        <time>2023-04-10T06:27:19+00:00</time>
        <ele>1940.0</ele>
      </trkpt>
      <trkpt lat="44.31749" lon="6.85878">
        <time>2023-04-10T06:27:20+00:00</time>
        <ele>1940.0</ele>
      </trkpt>
      <trkpt lat="44.31749" lon="6.85878">
        <time>2023-04-10T06:27:21+00:00</time>
        <ele>1940.0</ele>
      </trkpt>
      <trkpt lat="44.31747" lon="6.85875">
        <time>2023-04-10T06:27:22+00:00</time>
        <ele>1941.0</ele>
      </trkpt>
      <trkpt lat="44.31747" lon="6.85875">
        <time>2023-04-10T06:27:23+00:00</time>
        <ele>1941.0</ele>
      </trkpt>
      <trkpt lat="44.31746" lon="6.85873">
        <time>2023-04-10T06:27:24+00:00</time>
        <ele>1941.0</ele>
      </trkpt>
      <trkpt lat="44.31746" lon="6.85873">
        <time>2023-04-10T06:27:25+00:00</time>
        <ele>1941.0</ele>
      </trkpt>
      <trkpt lat="44.31746" lon="6.85873">
        <time>2023-04-10T06:27:26+00:00</time>
        <ele>1941.0</ele>
      </trkpt>
      <trkpt lat="44.31744" lon="6.85871">
        <time>2023-04-10T06:27:27+00:00</time>
        <ele>1942.0</ele>
      </trkpt>
      <trkpt lat="44.31744" lon="6.85871">
        <time>2023-04-10T06:27:28+00:00</time>
        <ele>1942.0</ele>
      </trkpt>
      <trkpt lat="44.31743" lon="6.8587">
        <time>2023-04-10T06:27:29+00:00</time>
        <ele>1943.0</ele>
      </trkpt>
      <trkpt lat="44.31743" lon="6.8587">
        <time>2023-04-10T06:27:30+00:00</time>
        <ele>1943.0</ele>
      </trkpt>
      <trkpt lat="44.31743" lon="6.8587">
        <time>2023-04-10T06:27:31+00:00</time>
        <ele>1943.0</ele>
      </trkpt>
      <trkpt lat="44.31741" lon="6.85867">
        <time>2023-04-10T06:27:32+00:00</time>
        <ele>1944.0</ele>
      </trkpt>
      <trkpt lat="44.31741" lon="6.85867">
        <time>2023-04-10T06:27:33+00:00</time>
        <ele>1944.0</ele>
      </trkpt>
      <trkpt lat="44.31741" lon="6.85867">
        <time>2023-04-10T06:27:34+00:00</time>
        <ele>1944.0</ele>
      </trkpt>
      <trkpt lat="44.3174" lon="6.85864">
        <time>2023-04-10T06:27:35+00:00</time>
        <ele>1944.0</ele>
      </trkpt>
      <trkpt lat="44.3174" lon="6.85864">
        <time>2023-04-10T06:27:36+00:00</time>
        <ele>1944.0</ele>
      </trkpt>
      <trkpt lat="44.3174" lon="6.85864">
        <time>2023-04-10T06:27:37+00:00</time>
        <ele>1944.0</ele>
      </trkpt>
      <trkpt lat="44.31739" lon="6.85862">
        <time>2023-04-10T06:27:38+00:00</time>
        <ele>1945.0</ele>
      </trkpt>
      <trkpt lat="44.31739" lon="6.85862">
        <time>2023-04-10T06:27:39+00:00</time>
        <ele>1945.0</ele>
      </trkpt>
      <trkpt lat="44.31739" lon="6.85862">
        <time>2023-04-10T06:27:40+00:00</time>
        <ele>1945.0</ele>
      </trkpt>
      <trkpt lat="44.31739" lon="6.85862">
        <time>2023-04-10T06:27:41+00:00</time>
        <ele>1945.0</ele>
      </trkpt>
      <trkpt lat="44.31738" lon="6.85859">
        <time>2023-04-10T06:27:42+00:00</time>
        <ele>1945.0</ele>
      </trkpt>
      <trkpt lat="44.31738" lon="6.85859">
        <time>2023-04-10T06:27:43+00:00</time>
        <ele>1945.0</ele>
      </trkpt>
      <trkpt lat="44.31736" lon="6.85857">
        <time>2023-04-10T06:27:44+00:00</time>
        <ele>1946.0</ele>
      </trkpt>
      <trkpt lat="44.31736" lon="6.85857">
        <time>2023-04-10T06:27:45+00:00</time>
        <ele>1946.0</ele>
      </trkpt>
      <trkpt lat="44.31736" lon="6.85857">
        <time>2023-04-10T06:27:46+00:00</time>
        <ele>1946.0</ele>
      </trkpt>
      <trkpt lat="44.31735" lon="6.85854">
        <time>2023-04-10T06:27:47+00:00</time>
        <ele>1947.0</ele>
      </trkpt>
      <trkpt lat="44.31735" lon="6.85854">
        <time>2023-04-10T06:27:48+00:00</time>
        <ele>1947.0</ele>
      </trkpt>
      <trkpt lat="44.31735" lon="6.85854">
        <time>2023-04-10T06:27:49+00:00</time>
        <ele>1947.0</ele>
      </trkpt>
      <trkpt lat="44.31733" lon="6.85852">
        <time>2023-04-10T06:27:50+00:00</time>
        <ele>1948.0</ele>
      </trkpt>
      <trkpt lat="44.31733" lon="6.85852">
        <time>2023-04-10T06:27:51+00:00</time>
        <ele>1948.0</ele>
      </trkpt>
      <trkpt lat="44.31733" lon="6.85852">
        <time>2023-04-10T06:27:52+00:00</time>
        <ele>1948.0</ele>
      </trkpt>
      <trkpt lat="44.31732" lon="6.85851">
        <time>2023-04-10T06:27:53+00:00</time>
        <ele>1949.0</ele>
      </trkpt>
      <trkpt lat="44.31732" lon="6.85851">
        <time>2023-04-10T06:27:54+00:00</time>
        <ele>1949.0</ele>
      </trkpt>
      <trkpt lat="44.31732" lon="6.85851">
        <time>2023-04-10T06:27:55+00:00</time>
        <ele>1949.0</ele>
      </trkpt>
      <trkpt lat="44.3173" lon="6.85849">
        <time>2023-04-10T06:27:56+00:00</time>
        <ele>1950.0</ele>
      </trkpt>
      <trkpt lat="44.3173" lon="6.85849">
        <time>2023-04-10T06:27:57+00:00</time>
        <ele>1950.0</ele>
      </trkpt>
      <trkpt lat="44.3173" lon="6.85849">
        <time>2023-04-10T06:27:58+00:00</time>
        <ele>1950.0</ele>
      </trkpt>
      <trkpt lat="44.31728" lon="6.85847">
        <time>2023-04-10T06:27:59+00:00</time>
        <ele>1951.0</ele>
      </trkpt>
      <trkpt lat="44.31728" lon="6.85847">
        <time>2023-04-10T06:28:00+00:00</time>
        <ele>1951.0</ele>
      </trkpt>
      <trkpt lat="44.31728" lon="6.85847">
        <time>2023-04-10T06:28:01+00:00</time>
        <ele>1951.0</ele>
      </trkpt>
      <trkpt lat="44.31726" lon="6.85845">
        <time>2023-04-10T06:28:02+00:00</time>
        <ele>1952.0</ele>
      </trkpt>
      <trkpt lat="44.31726" lon="6.85845">
        <time>2023-04-10T06:28:03+00:00</time>
        <ele>1952.0</ele>
      </trkpt>
      <trkpt lat="44.31726" lon="6.85845">
        <time>2023-04-10T06:28:04+00:00</time>
        <ele>1952.0</ele>
      </trkpt>
      <trkpt lat="44.31726" lon="6.85845">
        <time>2023-04-10T06:28:05+00:00</time>
        <ele>1952.0</ele>
      </trkpt>
      <trkpt lat="44.31725" lon="6.85842">
        <time>2023-04-10T06:28:06+00:00</time>
        <ele>1953.0</ele>
      </trkpt>
      <trkpt lat="44.31725" lon="6.85842">
        <time>2023-04-10T06:28:07+00:00</time>
        <ele>1953.0</ele>
      </trkpt>
      <trkpt lat="44.31725" lon="6.85842">
        <time>2023-04-10T06:28:08+00:00</time>
        <ele>1953.0</ele>
      </trkpt>
      <trkpt lat="44.31724" lon="6.85839">
        <time>2023-04-10T06:28:09+00:00</time>
        <ele>1953.0</ele>
      </trkpt>
      <trkpt lat="44.31724" lon="6.85839">
        <time>2023-04-10T06:28:10+00:00</time>
        <ele>1953.0</ele>
      </trkpt>
      <trkpt lat="44.31724" lon="6.85839">
        <time>2023-04-10T06:28:11+00:00</time>
        <ele>1953.0</ele>
      </trkpt>
      <trkpt lat="44.31723" lon="6.85837">
        <time>2023-04-10T06:28:12+00:00</time>
        <ele>1954.0</ele>
      </trkpt>
      <trkpt lat="44.31723" lon="6.85837">
        <time>2023-04-10T06:28:13+00:00</time>
        <ele>1954.0</ele>
      </trkpt>
      <trkpt lat="44.31723" lon="6.85837">
        <time>2023-04-10T06:28:14+00:00</time>
        <ele>1954.0</ele>
      </trkpt>
      <trkpt lat="44.31722" lon="6.85834">
        <time>2023-04-10T06:28:15+00:00</time>
        <ele>1955.0</ele>
      </trkpt>
      <trkpt lat="44.31722" lon="6.85834">
        <time>2023-04-10T06:28:16+00:00</time>
        <ele>1955.0</ele>
      </trkpt>
      <trkpt lat="44.31722" lon="6.85834">
        <time>2023-04-10T06:28:17+00:00</time>
        <ele>1955.0</ele>
      </trkpt>
      <trkpt lat="44.3172" lon="6.85833">
        <time>2023-04-10T06:28:18+00:00</time>
        <ele>1956.0</ele>
      </trkpt>
      <trkpt lat="44.3172" lon="6.85833">
        <time>2023-04-10T06:28:19+00:00</time>
        <ele>1956.0</ele>
      </trkpt>
      <trkpt lat="44.3172" lon="6.85833">
        <time>2023-04-10T06:28:20+00:00</time>
        <ele>1956.0</ele>
      </trkpt>
      <trkpt lat="44.31718" lon="6.85833">
        <time>2023-04-10T06:28:21+00:00</time>
        <ele>1957.0</ele>
      </trkpt>
      <trkpt lat="44.31718" lon="6.85833">
        <time>2023-04-10T06:28:22+00:00</time>
        <ele>1957.0</ele>
      </trkpt>
      <trkpt lat="44.31718" lon="6.85833">
        <time>2023-04-10T06:28:23+00:00</time>
        <ele>1957.0</ele>
      </trkpt>
      <trkpt lat="44.31716" lon="6.85834">
        <time>2023-04-10T06:28:24+00:00</time>
        <ele>1958.0</ele>
      </trkpt>
      <trkpt lat="44.31716" lon="6.85834">
        <time>2023-04-10T06:28:25+00:00</time>
        <ele>1958.0</ele>
      </trkpt>
      <trkpt lat="44.31716" lon="6.85834">
        <time>2023-04-10T06:28:26+00:00</time>
        <ele>1958.0</ele>
      </trkpt>
      <trkpt lat="44.31714" lon="6.85835">
        <time>2023-04-10T06:28:27+00:00</time>
        <ele>1959.0</ele>
      </trkpt>
      <trkpt lat="44.31714" lon="6.85835">
        <time>2023-04-10T06:28:28+00:00</time>
        <ele>1959.0</ele>
      </trkpt>
      <trkpt lat="44.31714" lon="6.85835">
        <time>2023-04-10T06:28:29+00:00</time>
        <ele>1959.0</ele>
      </trkpt>
      <trkpt lat="44.31713" lon="6.85837">
        <time>2023-04-10T06:28:30+00:00</time>
        <ele>1959.0</ele>
      </trkpt>
      <trkpt lat="44.31713" lon="6.85837">
        <time>2023-04-10T06:28:31+00:00</time>
        <ele>1959.0</ele>
      </trkpt>
      <trkpt lat="44.31713" lon="6.85837">
        <time>2023-04-10T06:28:32+00:00</time>
        <ele>1959.0</ele>
      </trkpt>
      <trkpt lat="44.31711" lon="6.85839">
        <time>2023-04-10T06:28:33+00:00</time>
        <ele>1960.0</ele>
      </trkpt>
      <trkpt lat="44.31711" lon="6.85839">
        <time>2023-04-10T06:28:34+00:00</time>
        <ele>1960.0</ele>
      </trkpt>
      <trkpt lat="44.31711" lon="6.85839">
        <time>2023-04-10T06:28:35+00:00</time>
        <ele>1960.0</ele>
      </trkpt>
      <trkpt lat="44.31711" lon="6.85839">
        <time>2023-04-10T06:28:36+00:00</time>
        <ele>1960.0</ele>
      </trkpt>
      <trkpt lat="44.31708" lon="6.85839">
        <time>2023-04-10T06:28:37+00:00</time>
        <ele>1962.0</ele>
      </trkpt>
      <trkpt lat="44.31708" lon="6.85839">
        <time>2023-04-10T06:28:38+00:00</time>
        <ele>1962.0</ele>
      </trkpt>
      <trkpt lat="44.31708" lon="6.85839">
        <time>2023-04-10T06:28:39+00:00</time>
        <ele>1962.0</ele>
      </trkpt>
      <trkpt lat="44.31706" lon="6.85837">
        <time>2023-04-10T06:28:40+00:00</time>
        <ele>1963.0</ele>
      </trkpt>
      <trkpt lat="44.31706" lon="6.85837">
        <time>2023-04-10T06:28:41+00:00</time>
        <ele>1963.0</ele>
      </trkpt>
      <trkpt lat="44.31706" lon="6.85837">
        <time>2023-04-10T06:28:42+00:00</time>
        <ele>1963.0</ele>
      </trkpt>
      <trkpt lat="44.31705" lon="6.85835">
        <time>2023-04-10T06:28:43+00:00</time>
        <ele>1963.0</ele>
      </trkpt>
      <trkpt lat="44.31705" lon="6.85835">
        <time>2023-04-10T06:28:44+00:00</time>
        <ele>1963.0</ele>
      </trkpt>
      <trkpt lat="44.31705" lon="6.85835">
        <time>2023-04-10T06:28:45+00:00</time>
        <ele>1963.0</ele>
      </trkpt>
      <trkpt lat="44.31705" lon="6.85831">
        <time>2023-04-10T06:28:46+00:00</time>
        <ele>1963.0</ele>
      </trkpt>
      <trkpt lat="44.31705" lon="6.85831">
        <time>2023-04-10T06:28:47+00:00</time>
        <ele>1963.0</ele>
      </trkpt>
      <trkpt lat="44.31705" lon="6.85831">
        <time>2023-04-10T06:28:48+00:00</time>
        <ele>1963.0</ele>
      </trkpt>
      <trkpt lat="44.31705" lon="6.85828">
        <time>2023-04-10T06:28:49+00:00</time>
        <ele>1963.0</ele>
      </trkpt>
      <trkpt lat="44.31705" lon="6.85828">
        <time>2023-04-10T06:28:50+00:00</time>
        <ele>1963.0</ele>
      </trkpt>
      <trkpt lat="44.31705" lon="6.85828">
        <time>2023-04-10T06:28:51+00:00</time>
        <ele>1963.0</ele>
      </trkpt>
      <trkpt lat="44.31703" lon="6.85825">
        <time>2023-04-10T06:28:52+00:00</time>
        <ele>1964.0</ele>
      </trkpt>
      <trkpt lat="44.31703" lon="6.85825">
        <time>2023-04-10T06:28:53+00:00</time>
        <ele>1964.0</ele>
      </trkpt>
      <trkpt lat="44.31703" lon="6.85825">
        <time>2023-04-10T06:28:54+00:00</time>
        <ele>1964.0</ele>
      </trkpt>
      <trkpt lat="44.31702" lon="6.85823">
        <time>2023-04-10T06:28:55+00:00</time>
        <ele>1965.0</ele>
      </trkpt>
      <trkpt lat="44.31702" lon="6.85823">
        <time>2023-04-10T06:28:56+00:00</time>
        <ele>1965.0</ele>
      </trkpt>
      <trkpt lat="44.31702" lon="6.85823">
        <time>2023-04-10T06:28:57+00:00</time>
        <ele>1965.0</ele>
      </trkpt>
      <trkpt lat="44.31702" lon="6.85823">
        <time>2023-04-10T06:28:58+00:00</time>
        <ele>1965.0</ele>
      </trkpt>
      <trkpt lat="44.31701" lon="6.8582">
        <time>2023-04-10T06:28:59+00:00</time>
        <ele>1966.0</ele>
      </trkpt>
      <trkpt lat="44.31701" lon="6.8582">
        <time>2023-04-10T06:29:00+00:00</time>
        <ele>1966.0</ele>
      </trkpt>
      <trkpt lat="44.31701" lon="6.8582">
        <time>2023-04-10T06:29:01+00:00</time>
        <ele>1966.0</ele>
      </trkpt>
      <trkpt lat="44.31701" lon="6.8582">
        <time>2023-04-10T06:29:02+00:00</time>
        <ele>1966.0</ele>
      </trkpt>
      <trkpt lat="44.317" lon="6.85817">
        <time>2023-04-10T06:29:03+00:00</time>
        <ele>1966.0</ele>
      </trkpt>
      <trkpt lat="44.317" lon="6.85817">
        <time>2023-04-10T06:29:04+00:00</time>
        <ele>1966.0</ele>
      </trkpt>
      <trkpt lat="44.317" lon="6.85817">
        <time>2023-04-10T06:29:05+00:00</time>
        <ele>1966.0</ele>
      </trkpt>
      <trkpt lat="44.317" lon="6.85817">
        <time>2023-04-10T06:29:06+00:00</time>
        <ele>1966.0</ele>
      </trkpt>
      <trkpt lat="44.31697" lon="6.85815">
        <time>2023-04-10T06:29:07+00:00</time>
        <ele>1967.0</ele>
      </trkpt>
      <trkpt lat="44.31697" lon="6.85815">
        <time>2023-04-10T06:29:08+00:00</time>
        <ele>1967.0</ele>
      </trkpt>
      <trkpt lat="44.31697" lon="6.85815">
        <time>2023-04-10T06:29:09+00:00</time>
        <ele>1967.0</ele>
      </trkpt>
      <trkpt lat="44.31695" lon="6.85814">
        <time>2023-04-10T06:29:10+00:00</time>
        <ele>1967.0</ele>
      </trkpt>
      <trkpt lat="44.31695" lon="6.85814">
        <time>2023-04-10T06:29:11+00:00</time>
        <ele>1967.0</ele>
      </trkpt>
      <trkpt lat="44.31695" lon="6.85814">
        <time>2023-04-10T06:29:12+00:00</time>
        <ele>1967.0</ele>
      </trkpt>
      <trkpt lat="44.31694" lon="6.85811">
        <time>2023-04-10T06:29:13+00:00</time>
        <ele>1968.0</ele>
      </trkpt>
      <trkpt lat="44.31694" lon="6.85811">
        <time>2023-04-10T06:29:14+00:00</time>
        <ele>1968.0</ele>
      </trkpt>
      <trkpt lat="44.31694" lon="6.85811">
        <time>2023-04-10T06:29:15+00:00</time>
        <ele>1968.0</ele>
      </trkpt>
      <trkpt lat="44.31692" lon="6.85808">
        <time>2023-04-10T06:29:16+00:00</time>
        <ele>1968.0</ele>
      </trkpt>
      <trkpt lat="44.31692" lon="6.85808">
        <time>2023-04-10T06:29:17+00:00</time>
        <ele>1968.0</ele>
      </trkpt>
      <trkpt lat="44.31691" lon="6.85806">
        <time>2023-04-10T06:29:18+00:00</time>
        <ele>1969.0</ele>
      </trkpt>
      <trkpt lat="44.31691" lon="6.85806">
        <time>2023-04-10T06:29:19+00:00</time>
        <ele>1969.0</ele>
      </trkpt>
      <trkpt lat="44.31691" lon="6.85806">
        <time>2023-04-10T06:29:20+00:00</time>
        <ele>1969.0</ele>
      </trkpt>
      <trkpt lat="44.3169" lon="6.85804">
        <time>2023-04-10T06:29:21+00:00</time>
        <ele>1969.0</ele>
      </trkpt>
      <trkpt lat="44.3169" lon="6.85804">
        <time>2023-04-10T06:29:22+00:00</time>
        <ele>1969.0</ele>
      </trkpt>
      <trkpt lat="44.3169" lon="6.85804">
        <time>2023-04-10T06:29:23+00:00</time>
        <ele>1969.0</ele>
      </trkpt>
      <trkpt lat="44.31689" lon="6.85801">
        <time>2023-04-10T06:29:24+00:00</time>
        <ele>1970.0</ele>
      </trkpt>
      <trkpt lat="44.31689" lon="6.85801">
        <time>2023-04-10T06:29:25+00:00</time>
        <ele>1970.0</ele>
      </trkpt>
      <trkpt lat="44.31689" lon="6.85801">
        <time>2023-04-10T06:29:26+00:00</time>
        <ele>1970.0</ele>
      </trkpt>
      <trkpt lat="44.31688" lon="6.85797">
        <time>2023-04-10T06:29:27+00:00</time>
        <ele>1970.0</ele>
      </trkpt>
      <trkpt lat="44.31688" lon="6.85797">
        <time>2023-04-10T06:29:28+00:00</time>
        <ele>1970.0</ele>
      </trkpt>
      <trkpt lat="44.31687" lon="6.85794">
        <time>2023-04-10T06:29:29+00:00</time>
        <ele>1970.0</ele>
      </trkpt>
      <trkpt lat="44.31687" lon="6.85794">
        <time>2023-04-10T06:29:30+00:00</time>
        <ele>1970.0</ele>
      </trkpt>
      <trkpt lat="44.31687" lon="6.85794">
        <time>2023-04-10T06:29:31+00:00</time>
        <ele>1970.0</ele>
      </trkpt>
      <trkpt lat="44.31686" lon="6.85792">
        <time>2023-04-10T06:29:32+00:00</time>
        <ele>1971.0</ele>
      </trkpt>
      <trkpt lat="44.31686" lon="6.85792">
        <time>2023-04-10T06:29:33+00:00</time>
        <ele>1971.0</ele>
      </trkpt>
      <trkpt lat="44.31686" lon="6.85792">
        <time>2023-04-10T06:29:34+00:00</time>
        <ele>1971.0</ele>
      </trkpt>
      <trkpt lat="44.31685" lon="6.8579">
        <time>2023-04-10T06:29:35+00:00</time>
        <ele>1971.0</ele>
      </trkpt>
      <trkpt lat="44.31685" lon="6.8579">
        <time>2023-04-10T06:29:36+00:00</time>
        <ele>1971.0</ele>
      </trkpt>
      <trkpt lat="44.31685" lon="6.8579">
        <time>2023-04-10T06:29:37+00:00</time>
        <ele>1971.0</ele>
      </trkpt>
      <trkpt lat="44.31685" lon="6.85787">
        <time>2023-04-10T06:29:38+00:00</time>
        <ele>1971.0</ele>
      </trkpt>
      <trkpt lat="44.31685" lon="6.85787">
        <time>2023-04-10T06:29:39+00:00</time>
        <ele>1971.0</ele>
      </trkpt>
      <trkpt lat="44.31685" lon="6.85787">
        <time>2023-04-10T06:29:40+00:00</time>
        <ele>1971.0</ele>
      </trkpt>
      <trkpt lat="44.31683" lon="6.85785">
        <time>2023-04-10T06:29:41+00:00</time>
        <ele>1972.0</ele>
      </trkpt>
      <trkpt lat="44.31683" lon="6.85785">
        <time>2023-04-10T06:29:42+00:00</time>
        <ele>1972.0</ele>
      </trkpt>
      <trkpt lat="44.31683" lon="6.85785">
        <time>2023-04-10T06:29:43+00:00</time>
        <ele>1972.0</ele>
      </trkpt>
      <trkpt lat="44.31682" lon="6.85782">
        <time>2023-04-10T06:29:44+00:00</time>
        <ele>1973.0</ele>
      </trkpt>
      <trkpt lat="44.31682" lon="6.85782">
        <time>2023-04-10T06:29:45+00:00</time>
        <ele>1973.0</ele>
      </trkpt>
      <trkpt lat="44.31682" lon="6.85782">
        <time>2023-04-10T06:29:46+00:00</time>
        <ele>1973.0</ele>
      </trkpt>
      <trkpt lat="44.3168" lon="6.85781">
        <time>2023-04-10T06:29:47+00:00</time>
        <ele>1974.0</ele>
      </trkpt>
      <trkpt lat="44.3168" lon="6.85781">
        <time>2023-04-10T06:29:48+00:00</time>
        <ele>1974.0</ele>
      </trkpt>
      <trkpt lat="44.3168" lon="6.85781">
        <time>2023-04-10T06:29:49+00:00</time>
        <ele>1974.0</ele>
      </trkpt>
      <trkpt lat="44.31678" lon="6.8578">
        <time>2023-04-10T06:29:50+00:00</time>
        <ele>1974.0</ele>
      </trkpt>
      <trkpt lat="44.31678" lon="6.8578">
        <time>2023-04-10T06:29:51+00:00</time>
        <ele>1974.0</ele>
      </trkpt>
      <trkpt lat="44.31678" lon="6.8578">
        <time>2023-04-10T06:29:52+00:00</time>
        <ele>1974.0</ele>
      </trkpt>
      <trkpt lat="44.31676" lon="6.8578">
        <time>2023-04-10T06:29:53+00:00</time>
        <ele>1975.0</ele>
      </trkpt>
      <trkpt lat="44.31676" lon="6.8578">
        <time>2023-04-10T06:29:54+00:00</time>
        <ele>1975.0</ele>
      </trkpt>
      <trkpt lat="44.31676" lon="6.8578">
        <time>2023-04-10T06:29:55+00:00</time>
        <ele>1975.0</ele>
      </trkpt>
      <trkpt lat="44.31673" lon="6.8578">
        <time>2023-04-10T06:29:56+00:00</time>
        <ele>1976.0</ele>
      </trkpt>
      <trkpt lat="44.31673" lon="6.8578">
        <time>2023-04-10T06:29:57+00:00</time>
        <ele>1976.0</ele>
      </trkpt>
      <trkpt lat="44.31673" lon="6.8578">
        <time>2023-04-10T06:29:58+00:00</time>
        <ele>1976.0</ele>
      </trkpt>
      <trkpt lat="44.31672" lon="6.85779">
        <time>2023-04-10T06:29:59+00:00</time>
        <ele>1977.0</ele>
      </trkpt>
      <trkpt lat="44.31672" lon="6.85779">
        <time>2023-04-10T06:30:01+00:00</time>
        <ele>1977.0</ele>
      </trkpt>
      <trkpt lat="44.31672" lon="6.85779">
        <time>2023-04-10T06:30:03+00:00</time>
        <ele>1977.0</ele>
      </trkpt>
      <trkpt lat="44.31669" lon="6.85779">
        <time>2023-04-10T06:30:04+00:00</time>
        <ele>1978.0</ele>
      </trkpt>
      <trkpt lat="44.31669" lon="6.85779">
        <time>2023-04-10T06:30:05+00:00</time>
        <ele>1978.0</ele>
      </trkpt>
      <trkpt lat="44.31669" lon="6.85779">
        <time>2023-04-10T06:30:06+00:00</time>
        <ele>1978.0</ele>
      </trkpt>
      <trkpt lat="44.31667" lon="6.85777">
        <time>2023-04-10T06:30:07+00:00</time>
        <ele>1979.0</ele>
      </trkpt>
      <trkpt lat="44.31667" lon="6.85777">
        <time>2023-04-10T06:30:08+00:00</time>
        <ele>1979.0</ele>
      </trkpt>
      <trkpt lat="44.31667" lon="6.85777">
        <time>2023-04-10T06:30:09+00:00</time>
        <ele>1979.0</ele>
      </trkpt>
      <trkpt lat="44.31666" lon="6.85774">
        <time>2023-04-10T06:30:10+00:00</time>
        <ele>1979.0</ele>
      </trkpt>
      <trkpt lat="44.31666" lon="6.85774">
        <time>2023-04-10T06:30:11+00:00</time>
        <ele>1979.0</ele>
      </trkpt>
      <trkpt lat="44.31666" lon="6.85774">
        <time>2023-04-10T06:30:12+00:00</time>
        <ele>1979.0</ele>
      </trkpt>
      <trkpt lat="44.31665" lon="6.85771">
        <time>2023-04-10T06:30:13+00:00</time>
        <ele>1980.0</ele>
      </trkpt>
      <trkpt lat="44.31665" lon="6.85771">
        <time>2023-04-10T06:30:14+00:00</time>
        <ele>1980.0</ele>
      </trkpt>
      <trkpt lat="44.31665" lon="6.85771">
        <time>2023-04-10T06:30:15+00:00</time>
        <ele>1980.0</ele>
      </trkpt>
      <trkpt lat="44.31665" lon="6.85768">
        <time>2023-04-10T06:30:16+00:00</time>
        <ele>1980.0</ele>
      </trkpt>
      <trkpt lat="44.31665" lon="6.85768">
        <time>2023-04-10T06:30:17+00:00</time>
        <ele>1980.0</ele>
      </trkpt>
      <trkpt lat="44.31665" lon="6.85768">
        <time>2023-04-10T06:30:18+00:00</time>
        <ele>1980.0</ele>
      </trkpt>
      <trkpt lat="44.31664" lon="6.85765">
        <time>2023-04-10T06:30:19+00:00</time>
        <ele>1980.0</ele>
      </trkpt>
      <trkpt lat="44.31664" lon="6.85765">
        <time>2023-04-10T06:30:20+00:00</time>
        <ele>1980.0</ele>
      </trkpt>
      <trkpt lat="44.31664" lon="6.85765">
        <time>2023-04-10T06:30:21+00:00</time>
        <ele>1980.0</ele>
      </trkpt>
      <trkpt lat="44.31663" lon="6.85763">
        <time>2023-04-10T06:30:22+00:00</time>
        <ele>1981.0</ele>
      </trkpt>
      <trkpt lat="44.31663" lon="6.85763">
        <time>2023-04-10T06:30:23+00:00</time>
        <ele>1981.0</ele>
      </trkpt>
      <trkpt lat="44.31663" lon="6.85763">
        <time>2023-04-10T06:30:24+00:00</time>
        <ele>1981.0</ele>
      </trkpt>
      <trkpt lat="44.31663" lon="6.8576">
        <time>2023-04-10T06:30:25+00:00</time>
        <ele>1981.0</ele>
      </trkpt>
      <trkpt lat="44.31663" lon="6.8576">
        <time>2023-04-10T06:30:26+00:00</time>
        <ele>1981.0</ele>
      </trkpt>
      <trkpt lat="44.31663" lon="6.8576">
        <time>2023-04-10T06:30:27+00:00</time>
        <ele>1981.0</ele>
      </trkpt>
      <trkpt lat="44.31662" lon="6.85758">
        <time>2023-04-10T06:30:28+00:00</time>
        <ele>1982.0</ele>
      </trkpt>
      <trkpt lat="44.31662" lon="6.85758">
        <time>2023-04-10T06:30:29+00:00</time>
        <ele>1982.0</ele>
      </trkpt>
      <trkpt lat="44.31662" lon="6.85758">
        <time>2023-04-10T06:30:30+00:00</time>
        <ele>1982.0</ele>
      </trkpt>
      <trkpt lat="44.31661" lon="6.85755">
        <time>2023-04-10T06:30:31+00:00</time>
        <ele>1983.0</ele>
      </trkpt>
      <trkpt lat="44.31661" lon="6.85755">
        <time>2023-04-10T06:30:32+00:00</time>
        <ele>1983.0</ele>
      </trkpt>
      <trkpt lat="44.31661" lon="6.85755">
        <time>2023-04-10T06:30:34+00:00</time>
        <ele>1983.0</ele>
      </trkpt>
      <trkpt lat="44.31659" lon="6.85753">
        <time>2023-04-10T06:30:35+00:00</time>
        <ele>1984.0</ele>
      </trkpt>
      <trkpt lat="44.31659" lon="6.85753">
        <time>2023-04-10T06:30:36+00:00</time>
        <ele>1984.0</ele>
      </trkpt>
      <trkpt lat="44.31659" lon="6.85753">
        <time>2023-04-10T06:30:37+00:00</time>
        <ele>1984.0</ele>
      </trkpt>
      <trkpt lat="44.31657" lon="6.85753">
        <time>2023-04-10T06:30:38+00:00</time>
        <ele>1984.0</ele>
      </trkpt>
      <trkpt lat="44.31657" lon="6.85753">
        <time>2023-04-10T06:30:39+00:00</time>
        <ele>1984.0</ele>
      </trkpt>
      <trkpt lat="44.31657" lon="6.85753">
        <time>2023-04-10T06:30:40+00:00</time>
        <ele>1984.0</ele>
      </trkpt>
      <trkpt lat="44.31655" lon="6.85753">
        <time>2023-04-10T06:30:41+00:00</time>
        <ele>1985.0</ele>
      </trkpt>
      <trkpt lat="44.31655" lon="6.85753">
        <time>2023-04-10T06:30:42+00:00</time>
        <ele>1985.0</ele>
      </trkpt>
      <trkpt lat="44.31655" lon="6.85753">
        <time>2023-04-10T06:30:43+00:00</time>
        <ele>1985.0</ele>
      </trkpt>
      <trkpt lat="44.31655" lon="6.85753">
        <time>2023-04-10T06:30:44+00:00</time>
        <ele>1985.0</ele>
      </trkpt>
      <trkpt lat="44.31655" lon="6.85753">
        <time>2023-04-10T06:30:45+00:00</time>
        <ele>1985.0</ele>
      </trkpt>
      <trkpt lat="44.31653" lon="6.85753">
        <time>2023-04-10T06:30:46+00:00</time>
        <ele>1986.0</ele>
      </trkpt>
      <trkpt lat="44.31653" lon="6.85753">
        <time>2023-04-10T06:30:47+00:00</time>
        <ele>1986.0</ele>
      </trkpt>
      <trkpt lat="44.31653" lon="6.85753">
        <time>2023-04-10T06:30:48+00:00</time>
        <ele>1986.0</ele>
      </trkpt>
      <trkpt lat="44.31651" lon="6.85755">
        <time>2023-04-10T06:30:49+00:00</time>
        <ele>1986.0</ele>
      </trkpt>
      <trkpt lat="44.31651" lon="6.85755">
        <time>2023-04-10T06:30:50+00:00</time>
        <ele>1986.0</ele>
      </trkpt>
      <trkpt lat="44.31651" lon="6.85755">
        <time>2023-04-10T06:30:51+00:00</time>
        <ele>1986.0</ele>
      </trkpt>
      <trkpt lat="44.3165" lon="6.85756">
        <time>2023-04-10T06:30:52+00:00</time>
        <ele>1986.0</ele>
      </trkpt>
      <trkpt lat="44.3165" lon="6.85756">
        <time>2023-04-10T06:30:53+00:00</time>
        <ele>1986.0</ele>
      </trkpt>
      <trkpt lat="44.3165" lon="6.85756">
        <time>2023-04-10T06:30:55+00:00</time>
        <ele>1986.0</ele>
      </trkpt>
      <trkpt lat="44.31648" lon="6.85757">
        <time>2023-04-10T06:30:56+00:00</time>
        <ele>1987.0</ele>
      </trkpt>
      <trkpt lat="44.31648" lon="6.85757">
        <time>2023-04-10T06:30:57+00:00</time>
        <ele>1987.0</ele>
      </trkpt>
      <trkpt lat="44.31648" lon="6.85757">
        <time>2023-04-10T06:30:58+00:00</time>
        <ele>1987.0</ele>
      </trkpt>
      <trkpt lat="44.31648" lon="6.85757">
        <time>2023-04-10T06:30:59+00:00</time>
        <ele>1987.0</ele>
      </trkpt>
      <trkpt lat="44.31646" lon="6.85754">
        <time>2023-04-10T06:31:00+00:00</time>
        <ele>1988.0</ele>
      </trkpt>
      <trkpt lat="44.31646" lon="6.85754">
        <time>2023-04-10T06:31:01+00:00</time>
        <ele>1988.0</ele>
      </trkpt>
      <trkpt lat="44.31645" lon="6.85752">
        <time>2023-04-10T06:31:02+00:00</time>
        <ele>1989.0</ele>
      </trkpt>
      <trkpt lat="44.31645" lon="6.85752">
        <time>2023-04-10T06:31:03+00:00</time>
        <ele>1989.0</ele>
      </trkpt>
      <trkpt lat="44.31645" lon="6.85752">
        <time>2023-04-10T06:31:04+00:00</time>
        <ele>1989.0</ele>
      </trkpt>
      <trkpt lat="44.31644" lon="6.85749">
        <time>2023-04-10T06:31:05+00:00</time>
        <ele>1989.0</ele>
      </trkpt>
      <trkpt lat="44.31644" lon="6.85749">
        <time>2023-04-10T06:31:06+00:00</time>
        <ele>1989.0</ele>
      </trkpt>
      <trkpt lat="44.31644" lon="6.85749">
        <time>2023-04-10T06:31:07+00:00</time>
        <ele>1989.0</ele>
      </trkpt>
      <trkpt lat="44.31643" lon="6.85747">
        <time>2023-04-10T06:31:08+00:00</time>
        <ele>1990.0</ele>
      </trkpt>
      <trkpt lat="44.31643" lon="6.85747">
        <time>2023-04-10T06:31:09+00:00</time>
        <ele>1990.0</ele>
      </trkpt>
      <trkpt lat="44.31643" lon="6.85747">
        <time>2023-04-10T06:31:10+00:00</time>
        <ele>1990.0</ele>
      </trkpt>
      <trkpt lat="44.31643" lon="6.85747">
        <time>2023-04-10T06:31:11+00:00</time>
        <ele>1990.0</ele>
      </trkpt>
      <trkpt lat="44.31642" lon="6.85744">
        <time>2023-04-10T06:31:12+00:00</time>
        <ele>1991.0</ele>
      </trkpt>
      <trkpt lat="44.31642" lon="6.85744">
        <time>2023-04-10T06:31:13+00:00</time>
        <ele>1991.0</ele>
      </trkpt>
      <trkpt lat="44.31642" lon="6.85744">
        <time>2023-04-10T06:31:14+00:00</time>
        <ele>1991.0</ele>
      </trkpt>
      <trkpt lat="44.3164" lon="6.85744">
        <time>2023-04-10T06:31:15+00:00</time>
        <ele>1991.0</ele>
      </trkpt>
      <trkpt lat="44.3164" lon="6.85744">
        <time>2023-04-10T06:31:16+00:00</time>
        <ele>1991.0</ele>
      </trkpt>
      <trkpt lat="44.3164" lon="6.85744">
        <time>2023-04-10T06:31:17+00:00</time>
        <ele>1991.0</ele>
      </trkpt>
      <trkpt lat="44.3164" lon="6.85744">
        <time>2023-04-10T06:31:18+00:00</time>
        <ele>1991.0</ele>
      </trkpt>
      <trkpt lat="44.31637" lon="6.85744">
        <time>2023-04-10T06:31:19+00:00</time>
        <ele>1992.0</ele>
      </trkpt>
      <trkpt lat="44.31637" lon="6.85744">
        <time>2023-04-10T06:31:20+00:00</time>
        <ele>1992.0</ele>
      </trkpt>
      <trkpt lat="44.31637" lon="6.85744">
        <time>2023-04-10T06:31:21+00:00</time>
        <ele>1992.0</ele>
      </trkpt>
      <trkpt lat="44.31636" lon="6.85745">
        <time>2023-04-10T06:31:22+00:00</time>
        <ele>1992.0</ele>
      </trkpt>
      <trkpt lat="44.31636" lon="6.85745">
        <time>2023-04-10T06:31:23+00:00</time>
        <ele>1992.0</ele>
      </trkpt>
      <trkpt lat="44.31636" lon="6.85745">
        <time>2023-04-10T06:31:24+00:00</time>
        <ele>1992.0</ele>
      </trkpt>
      <trkpt lat="44.31634" lon="6.85744">
        <time>2023-04-10T06:31:25+00:00</time>
        <ele>1993.0</ele>
      </trkpt>
      <trkpt lat="44.31634" lon="6.85744">
        <time>2023-04-10T06:31:26+00:00</time>
        <ele>1993.0</ele>
      </trkpt>
      <trkpt lat="44.31634" lon="6.85744">
        <time>2023-04-10T06:31:27+00:00</time>
        <ele>1993.0</ele>
      </trkpt>
      <trkpt lat="44.31634" lon="6.85744">
        <time>2023-04-10T06:31:28+00:00</time>
        <ele>1993.0</ele>
      </trkpt>
      <trkpt lat="44.3163" lon="6.85745">
        <time>2023-04-10T06:31:29+00:00</time>
        <ele>1994.0</ele>
      </trkpt>
      <trkpt lat="44.3163" lon="6.85745">
        <time>2023-04-10T06:31:30+00:00</time>
        <ele>1994.0</ele>
      </trkpt>
      <trkpt lat="44.3163" lon="6.85745">
        <time>2023-04-10T06:31:31+00:00</time>
        <ele>1994.0</ele>
      </trkpt>
      <trkpt lat="44.3163" lon="6.85745">
        <time>2023-04-10T06:31:32+00:00</time>
        <ele>1994.0</ele>
      </trkpt>
      <trkpt lat="44.31628" lon="6.85743">
        <time>2023-04-10T06:31:33+00:00</time>
        <ele>1995.0</ele>
      </trkpt>
      <trkpt lat="44.31628" lon="6.85743">
        <time>2023-04-10T06:31:34+00:00</time>
        <ele>1995.0</ele>
      </trkpt>
      <trkpt lat="44.31628" lon="6.85743">
        <time>2023-04-10T06:31:35+00:00</time>
        <ele>1995.0</ele>
      </trkpt>
      <trkpt lat="44.31627" lon="6.85742">
        <time>2023-04-10T06:31:36+00:00</time>
        <ele>1995.0</ele>
      </trkpt>
      <trkpt lat="44.31627" lon="6.85742">
        <time>2023-04-10T06:31:37+00:00</time>
        <ele>1995.0</ele>
      </trkpt>
      <trkpt lat="44.31627" lon="6.85742">
        <time>2023-04-10T06:31:38+00:00</time>
        <ele>1995.0</ele>
      </trkpt>
      <trkpt lat="44.31627" lon="6.85742">
        <time>2023-04-10T06:31:39+00:00</time>
        <ele>1995.0</ele>
      </trkpt>
      <trkpt lat="44.31625" lon="6.8574">
        <time>2023-04-10T06:31:40+00:00</time>
        <ele>1996.0</ele>
      </trkpt>
      <trkpt lat="44.31625" lon="6.8574">
        <time>2023-04-10T06:31:41+00:00</time>
        <ele>1996.0</ele>
      </trkpt>
      <trkpt lat="44.31625" lon="6.8574">
        <time>2023-04-10T06:31:42+00:00</time>
        <ele>1996.0</ele>
      </trkpt>
      <trkpt lat="44.31625" lon="6.8574">
        <time>2023-04-10T06:31:43+00:00</time>
        <ele>1996.0</ele>
      </trkpt>
      <trkpt lat="44.31625" lon="6.8574">
        <time>2023-04-10T06:31:44+00:00</time>
        <ele>1996.0</ele>
      </trkpt>
      <trkpt lat="44.31625" lon="6.8574">
        <time>2023-04-10T06:31:45+00:00</time>
        <ele>1996.0</ele>
      </trkpt>
      <trkpt lat="44.31625" lon="6.8574">
        <time>2023-04-10T06:31:46+00:00</time>
        <ele>1996.0</ele>
      </trkpt>
      <trkpt lat="44.31625" lon="6.8574">
        <time>2023-04-10T06:31:47+00:00</time>
        <ele>1996.0</ele>
      </trkpt>
      <trkpt lat="44.31625" lon="6.8574">
        <time>2023-04-10T06:31:48+00:00</time>
        <ele>1996.0</ele>
      </trkpt>
      <trkpt lat="44.31625" lon="6.8574">
        <time>2023-04-10T06:31:49+00:00</time>
        <ele>1996.0</ele>
      </trkpt>
      <trkpt lat="44.31625" lon="6.8574">
        <time>2023-04-10T06:31:50+00:00</time>
        <ele>1996.0</ele>
      </trkpt>
      <trkpt lat="44.31625" lon="6.8574">
        <time>2023-04-10T06:31:51+00:00</time>
        <ele>1996.0</ele>
      </trkpt>
      <trkpt lat="44.31625" lon="6.8574">
        <time>2023-04-10T06:31:52+00:00</time>
        <ele>1996.0</ele>
      </trkpt>
      <trkpt lat="44.31625" lon="6.8574">
        <time>2023-04-10T06:31:53+00:00</time>
        <ele>1996.0</ele>
      </trkpt>
      <trkpt lat="44.31625" lon="6.8574">
        <time>2023-04-10T06:31:54+00:00</time>
        <ele>1996.0</ele>
      </trkpt>
      <trkpt lat="44.31625" lon="6.8574">
        <time>2023-04-10T06:31:55+00:00</time>
        <ele>1996.0</ele>
      </trkpt>
      <trkpt lat="44.31625" lon="6.8574">
        <time>2023-04-10T06:31:56+00:00</time>
        <ele>1996.0</ele>
      </trkpt>
      <trkpt lat="44.31625" lon="6.8574">
        <time>2023-04-10T06:31:57+00:00</time>
        <ele>1996.0</ele>
      </trkpt>
      <trkpt lat="44.31625" lon="6.8574">
        <time>2023-04-10T06:31:58+00:00</time>
        <ele>1996.0</ele>
      </trkpt>
      <trkpt lat="44.31625" lon="6.8574">
        <time>2023-04-10T06:31:59+00:00</time>
        <ele>1996.0</ele>
      </trkpt>
      <trkpt lat="44.31625" lon="6.8574">
        <time>2023-04-10T06:32:00+00:00</time>
        <ele>1996.0</ele>
      </trkpt>
      <trkpt lat="44.31625" lon="6.8574">
        <time>2023-04-10T06:32:01+00:00</time>
        <ele>1996.0</ele>
      </trkpt>
      <trkpt lat="44.31625" lon="6.8574">
        <time>2023-04-10T06:32:02+00:00</time>
        <ele>1996.0</ele>
      </trkpt>
      <trkpt lat="44.31625" lon="6.8574">
        <time>2023-04-10T06:32:03+00:00</time>
        <ele>1996.0</ele>
      </trkpt>
      <trkpt lat="44.31625" lon="6.8574">
        <time>2023-04-10T06:32:04+00:00</time>
        <ele>1996.0</ele>
      </trkpt>
      <trkpt lat="44.31625" lon="6.8574">
        <time>2023-04-10T06:32:05+00:00</time>
        <ele>1996.0</ele>
      </trkpt>
      <trkpt lat="44.31625" lon="6.8574">
        <time>2023-04-10T06:32:06+00:00</time>
        <ele>1996.0</ele>
      </trkpt>
      <trkpt lat="44.31625" lon="6.8574">
        <time>2023-04-10T06:32:07+00:00</time>
        <ele>1996.0</ele>
      </trkpt>
      <trkpt lat="44.31625" lon="6.8574">
        <time>2023-04-10T06:32:08+00:00</time>
        <ele>1996.0</ele>
      </trkpt>
      <trkpt lat="44.31625" lon="6.8574">
        <time>2023-04-10T06:32:09+00:00</time>
        <ele>1996.0</ele>
      </trkpt>
      <trkpt lat="44.31625" lon="6.8574">
        <time>2023-04-10T06:32:10+00:00</time>
        <ele>1996.0</ele>
      </trkpt>
      <trkpt lat="44.31625" lon="6.8574">
        <time>2023-04-10T06:32:11+00:00</time>
        <ele>1996.0</ele>
      </trkpt>
      <trkpt lat="44.31625" lon="6.8574">
        <time>2023-04-10T06:32:12+00:00</time>
        <ele>1996.0</ele>
      </trkpt>
      <trkpt lat="44.31625" lon="6.8574">
        <time>2023-04-10T06:32:13+00:00</time>
        <ele>1996.0</ele>
      </trkpt>
      <trkpt lat="44.31622" lon="6.8574">
        <time>2023-04-10T06:32:14+00:00</time>
        <ele>1997.0</ele>
      </trkpt>
      <trkpt lat="44.31622" lon="6.8574">
        <time>2023-04-10T06:32:15+00:00</time>
        <ele>1997.0</ele>
      </trkpt>
      <trkpt lat="44.3162" lon="6.8574">
        <time>2023-04-10T06:32:16+00:00</time>
        <ele>1998.0</ele>
      </trkpt>
      <trkpt lat="44.3162" lon="6.8574">
        <time>2023-04-10T06:32:17+00:00</time>
        <ele>1998.0</ele>
      </trkpt>
      <trkpt lat="44.31617" lon="6.8574">
        <time>2023-04-10T06:32:18+00:00</time>
        <ele>1999.0</ele>
      </trkpt>
      <trkpt lat="44.31617" lon="6.8574">
        <time>2023-04-10T06:32:19+00:00</time>
        <ele>1999.0</ele>
      </trkpt>
      <trkpt lat="44.31615" lon="6.85741">
        <time>2023-04-10T06:32:20+00:00</time>
        <ele>1999.0</ele>
      </trkpt>
      <trkpt lat="44.31615" lon="6.85741">
        <time>2023-04-10T06:32:21+00:00</time>
        <ele>1999.0</ele>
      </trkpt>
      <trkpt lat="44.31613" lon="6.85741">
        <time>2023-04-10T06:32:22+00:00</time>
        <ele>2000.0</ele>
      </trkpt>
      <trkpt lat="44.31613" lon="6.85741">
        <time>2023-04-10T06:32:23+00:00</time>
        <ele>2000.0</ele>
      </trkpt>
      <trkpt lat="44.31613" lon="6.85741">
        <time>2023-04-10T06:32:24+00:00</time>
        <ele>2000.0</ele>
      </trkpt>
      <trkpt lat="44.3161" lon="6.85741">
        <time>2023-04-10T06:32:25+00:00</time>
        <ele>2001.0</ele>
      </trkpt>
      <trkpt lat="44.3161" lon="6.85741">
        <time>2023-04-10T06:32:26+00:00</time>
        <ele>2001.0</ele>
      </trkpt>
      <trkpt lat="44.31608" lon="6.85742">
        <time>2023-04-10T06:32:27+00:00</time>
        <ele>2001.0</ele>
      </trkpt>
      <trkpt lat="44.31608" lon="6.85742">
        <time>2023-04-10T06:32:28+00:00</time>
        <ele>2001.0</ele>
      </trkpt>
      <trkpt lat="44.31608" lon="6.85742">
        <time>2023-04-10T06:32:29+00:00</time>
        <ele>2001.0</ele>
      </trkpt>
      <trkpt lat="44.31606" lon="6.85742">
        <time>2023-04-10T06:32:30+00:00</time>
        <ele>2002.0</ele>
      </trkpt>
      <trkpt lat="44.31606" lon="6.85742">
        <time>2023-04-10T06:32:31+00:00</time>
        <ele>2002.0</ele>
      </trkpt>
      <trkpt lat="44.31606" lon="6.85742">
        <time>2023-04-10T06:32:32+00:00</time>
        <ele>2002.0</ele>
      </trkpt>
      <trkpt lat="44.31604" lon="6.85741">
        <time>2023-04-10T06:32:33+00:00</time>
        <ele>2002.0</ele>
      </trkpt>
      <trkpt lat="44.31604" lon="6.85741">
        <time>2023-04-10T06:32:34+00:00</time>
        <ele>2002.0</ele>
      </trkpt>
      <trkpt lat="44.31604" lon="6.85741">
        <time>2023-04-10T06:32:35+00:00</time>
        <ele>2002.0</ele>
      </trkpt>
      <trkpt lat="44.31601" lon="6.85741">
        <time>2023-04-10T06:32:36+00:00</time>
        <ele>2003.0</ele>
      </trkpt>
      <trkpt lat="44.31601" lon="6.85741">
        <time>2023-04-10T06:32:37+00:00</time>
        <ele>2003.0</ele>
      </trkpt>
      <trkpt lat="44.31601" lon="6.85741">
        <time>2023-04-10T06:32:38+00:00</time>
        <ele>2003.0</ele>
      </trkpt>
      <trkpt lat="44.31599" lon="6.8574">
        <time>2023-04-10T06:32:39+00:00</time>
        <ele>2004.0</ele>
      </trkpt>
      <trkpt lat="44.31599" lon="6.8574">
        <time>2023-04-10T06:32:40+00:00</time>
        <ele>2004.0</ele>
      </trkpt>
      <trkpt lat="44.31599" lon="6.8574">
        <time>2023-04-10T06:32:41+00:00</time>
        <ele>2004.0</ele>
      </trkpt>
      <trkpt lat="44.31597" lon="6.85738">
        <time>2023-04-10T06:32:42+00:00</time>
        <ele>2004.0</ele>
      </trkpt>
      <trkpt lat="44.31597" lon="6.85738">
        <time>2023-04-10T06:32:43+00:00</time>
        <ele>2004.0</ele>
      </trkpt>
      <trkpt lat="44.31595" lon="6.85738">
        <time>2023-04-10T06:32:44+00:00</time>
        <ele>2005.0</ele>
      </trkpt>
      <trkpt lat="44.31595" lon="6.85738">
        <time>2023-04-10T06:32:45+00:00</time>
        <ele>2005.0</ele>
      </trkpt>
      <trkpt lat="44.31593" lon="6.85738">
        <time>2023-04-10T06:32:46+00:00</time>
        <ele>2006.0</ele>
      </trkpt>
      <trkpt lat="44.31593" lon="6.85738">
        <time>2023-04-10T06:32:47+00:00</time>
        <ele>2006.0</ele>
      </trkpt>
      <trkpt lat="44.31591" lon="6.85737">
        <time>2023-04-10T06:32:48+00:00</time>
        <ele>2006.0</ele>
      </trkpt>
      <trkpt lat="44.31591" lon="6.85737">
        <time>2023-04-10T06:32:49+00:00</time>
        <ele>2006.0</ele>
      </trkpt>
      <trkpt lat="44.31589" lon="6.85736">
        <time>2023-04-10T06:32:50+00:00</time>
        <ele>2007.0</ele>
      </trkpt>
      <trkpt lat="44.31589" lon="6.85736">
        <time>2023-04-10T06:32:51+00:00</time>
        <ele>2007.0</ele>
      </trkpt>
      <trkpt lat="44.31587" lon="6.85736">
        <time>2023-04-10T06:32:52+00:00</time>
        <ele>2007.0</ele>
      </trkpt>
      <trkpt lat="44.31587" lon="6.85736">
        <time>2023-04-10T06:32:53+00:00</time>
        <ele>2007.0</ele>
      </trkpt>
      <trkpt lat="44.31587" lon="6.85736">
        <time>2023-04-10T06:32:54+00:00</time>
        <ele>2007.0</ele>
      </trkpt>
      <trkpt lat="44.31585" lon="6.85735">
        <time>2023-04-10T06:32:55+00:00</time>
        <ele>2008.0</ele>
      </trkpt>
      <trkpt lat="44.31585" lon="6.85735">
        <time>2023-04-10T06:32:56+00:00</time>
        <ele>2008.0</ele>
      </trkpt>
      <trkpt lat="44.31583" lon="6.85735">
        <time>2023-04-10T06:32:57+00:00</time>
        <ele>2008.0</ele>
      </trkpt>
      <trkpt lat="44.31583" lon="6.85735">
        <time>2023-04-10T06:32:58+00:00</time>
        <ele>2008.0</ele>
      </trkpt>
      <trkpt lat="44.31581" lon="6.85735">
        <time>2023-04-10T06:32:59+00:00</time>
        <ele>2009.0</ele>
      </trkpt>
      <trkpt lat="44.31581" lon="6.85735">
        <time>2023-04-10T06:33:00+00:00</time>
        <ele>2009.0</ele>
      </trkpt>
      <trkpt lat="44.31579" lon="6.85734">
        <time>2023-04-10T06:33:01+00:00</time>
        <ele>2009.0</ele>
      </trkpt>
      <trkpt lat="44.31579" lon="6.85734">
        <time>2023-04-10T06:33:02+00:00</time>
        <ele>2009.0</ele>
      </trkpt>
      <trkpt lat="44.31577" lon="6.85734">
        <time>2023-04-10T06:33:03+00:00</time>
        <ele>2010.0</ele>
      </trkpt>
      <trkpt lat="44.31577" lon="6.85734">
        <time>2023-04-10T06:33:04+00:00</time>
        <ele>2010.0</ele>
      </trkpt>
      <trkpt lat="44.31577" lon="6.85734">
        <time>2023-04-10T06:33:05+00:00</time>
        <ele>2010.0</ele>
      </trkpt>
      <trkpt lat="44.31575" lon="6.85733">
        <time>2023-04-10T06:33:06+00:00</time>
        <ele>2010.0</ele>
      </trkpt>
      <trkpt lat="44.31575" lon="6.85733">
        <time>2023-04-10T06:33:07+00:00</time>
        <ele>2010.0</ele>
      </trkpt>
      <trkpt lat="44.31575" lon="6.85733">
        <time>2023-04-10T06:33:08+00:00</time>
        <ele>2010.0</ele>
      </trkpt>
      <trkpt lat="44.31573" lon="6.85732">
        <time>2023-04-10T06:33:09+00:00</time>
        <ele>2011.0</ele>
      </trkpt>
      <trkpt lat="44.31573" lon="6.85732">
        <time>2023-04-10T06:33:10+00:00</time>
        <ele>2011.0</ele>
      </trkpt>
      <trkpt lat="44.31573" lon="6.85732">
        <time>2023-04-10T06:33:11+00:00</time>
        <ele>2011.0</ele>
      </trkpt>
      <trkpt lat="44.3157" lon="6.85731">
        <time>2023-04-10T06:33:12+00:00</time>
        <ele>2011.0</ele>
      </trkpt>
      <trkpt lat="44.3157" lon="6.85731">
        <time>2023-04-10T06:33:13+00:00</time>
        <ele>2011.0</ele>
      </trkpt>
      <trkpt lat="44.3157" lon="6.85731">
        <time>2023-04-10T06:33:14+00:00</time>
        <ele>2011.0</ele>
      </trkpt>
      <trkpt lat="44.31567" lon="6.8573">
        <time>2023-04-10T06:33:15+00:00</time>
        <ele>2012.0</ele>
      </trkpt>
      <trkpt lat="44.31567" lon="6.8573">
        <time>2023-04-10T06:33:16+00:00</time>
        <ele>2012.0</ele>
      </trkpt>
      <trkpt lat="44.31567" lon="6.8573">
        <time>2023-04-10T06:33:17+00:00</time>
        <ele>2012.0</ele>
      </trkpt>
      <trkpt lat="44.31565" lon="6.8573">
        <time>2023-04-10T06:33:18+00:00</time>
        <ele>2012.0</ele>
      </trkpt>
      <trkpt lat="44.31565" lon="6.8573">
        <time>2023-04-10T06:33:19+00:00</time>
        <ele>2012.0</ele>
      </trkpt>
      <trkpt lat="44.31565" lon="6.8573">
        <time>2023-04-10T06:33:20+00:00</time>
        <ele>2012.0</ele>
      </trkpt>
      <trkpt lat="44.31563" lon="6.85729">
        <time>2023-04-10T06:33:21+00:00</time>
        <ele>2013.0</ele>
      </trkpt>
      <trkpt lat="44.31563" lon="6.85729">
        <time>2023-04-10T06:33:22+00:00</time>
        <ele>2013.0</ele>
      </trkpt>
      <trkpt lat="44.31563" lon="6.85729">
        <time>2023-04-10T06:33:23+00:00</time>
        <ele>2013.0</ele>
      </trkpt>
      <trkpt lat="44.31561" lon="6.85727">
        <time>2023-04-10T06:33:24+00:00</time>
        <ele>2013.0</ele>
      </trkpt>
      <trkpt lat="44.31561" lon="6.85727">
        <time>2023-04-10T06:33:25+00:00</time>
        <ele>2013.0</ele>
      </trkpt>
      <trkpt lat="44.31561" lon="6.85727">
        <time>2023-04-10T06:33:26+00:00</time>
        <ele>2013.0</ele>
      </trkpt>
      <trkpt lat="44.31559" lon="6.85725">
        <time>2023-04-10T06:33:27+00:00</time>
        <ele>2013.0</ele>
      </trkpt>
      <trkpt lat="44.31559" lon="6.85725">
        <time>2023-04-10T06:33:28+00:00</time>
        <ele>2013.0</ele>
      </trkpt>
      <trkpt lat="44.31559" lon="6.85725">
        <time>2023-04-10T06:33:29+00:00</time>
        <ele>2013.0</ele>
      </trkpt>
      <trkpt lat="44.31557" lon="6.85724">
        <time>2023-04-10T06:33:30+00:00</time>
        <ele>2013.0</ele>
      </trkpt>
      <trkpt lat="44.31557" lon="6.85724">
        <time>2023-04-10T06:33:31+00:00</time>
        <ele>2013.0</ele>
      </trkpt>
      <trkpt lat="44.31557" lon="6.85724">
        <time>2023-04-10T06:33:32+00:00</time>
        <ele>2013.0</ele>
      </trkpt>
      <trkpt lat="44.31555" lon="6.85722">
        <time>2023-04-10T06:33:33+00:00</time>
        <ele>2013.0</ele>
      </trkpt>
      <trkpt lat="44.31555" lon="6.85722">
        <time>2023-04-10T06:33:34+00:00</time>
        <ele>2013.0</ele>
      </trkpt>
      <trkpt lat="44.31554" lon="6.8572">
        <time>2023-04-10T06:33:35+00:00</time>
        <ele>2013.0</ele>
      </trkpt>
      <trkpt lat="44.31554" lon="6.8572">
        <time>2023-04-10T06:33:36+00:00</time>
        <ele>2013.0</ele>
      </trkpt>
      <trkpt lat="44.31552" lon="6.85719">
        <time>2023-04-10T06:33:37+00:00</time>
        <ele>2014.0</ele>
      </trkpt>
      <trkpt lat="44.31552" lon="6.85719">
        <time>2023-04-10T06:33:38+00:00</time>
        <ele>2014.0</ele>
      </trkpt>
      <trkpt lat="44.31552" lon="6.85719">
        <time>2023-04-10T06:33:39+00:00</time>
        <ele>2014.0</ele>
      </trkpt>
      <trkpt lat="44.3155" lon="6.85716">
        <time>2023-04-10T06:33:40+00:00</time>
        <ele>2014.0</ele>
      </trkpt>
      <trkpt lat="44.3155" lon="6.85716">
        <time>2023-04-10T06:33:41+00:00</time>
        <ele>2014.0</ele>
      </trkpt>
      <trkpt lat="44.3155" lon="6.85716">
        <time>2023-04-10T06:33:42+00:00</time>
        <ele>2014.0</ele>
      </trkpt>
      <trkpt lat="44.31548" lon="6.85713">
        <time>2023-04-10T06:33:43+00:00</time>
        <ele>2014.0</ele>
      </trkpt>
      <trkpt lat="44.31548" lon="6.85713">
        <time>2023-04-10T06:33:44+00:00</time>
        <ele>2014.0</ele>
      </trkpt>
      <trkpt lat="44.31548" lon="6.85713">
        <time>2023-04-10T06:33:45+00:00</time>
        <ele>2014.0</ele>
      </trkpt>
      <trkpt lat="44.31546" lon="6.85711">
        <time>2023-04-10T06:33:46+00:00</time>
        <ele>2015.0</ele>
      </trkpt>
      <trkpt lat="44.31546" lon="6.85711">
        <time>2023-04-10T06:33:47+00:00</time>
        <ele>2015.0</ele>
      </trkpt>
      <trkpt lat="44.31544" lon="6.8571">
        <time>2023-04-10T06:33:48+00:00</time>
        <ele>2015.0</ele>
      </trkpt>
      <trkpt lat="44.31544" lon="6.8571">
        <time>2023-04-10T06:33:49+00:00</time>
        <ele>2015.0</ele>
      </trkpt>
      <trkpt lat="44.31542" lon="6.85708">
        <time>2023-04-10T06:33:50+00:00</time>
        <ele>2015.0</ele>
      </trkpt>
      <trkpt lat="44.31542" lon="6.85708">
        <time>2023-04-10T06:33:51+00:00</time>
        <ele>2015.0</ele>
      </trkpt>
      <trkpt lat="44.31541" lon="6.85705">
        <time>2023-04-10T06:33:52+00:00</time>
        <ele>2016.0</ele>
      </trkpt>
      <trkpt lat="44.31541" lon="6.85705">
        <time>2023-04-10T06:33:53+00:00</time>
        <ele>2016.0</ele>
      </trkpt>
      <trkpt lat="44.31541" lon="6.85705">
        <time>2023-04-10T06:33:54+00:00</time>
        <ele>2016.0</ele>
      </trkpt>
      <trkpt lat="44.3154" lon="6.85703">
        <time>2023-04-10T06:33:55+00:00</time>
        <ele>2016.0</ele>
      </trkpt>
      <trkpt lat="44.3154" lon="6.85703">
        <time>2023-04-10T06:33:56+00:00</time>
        <ele>2016.0</ele>
      </trkpt>
      <trkpt lat="44.3154" lon="6.85703">
        <time>2023-04-10T06:33:57+00:00</time>
        <ele>2016.0</ele>
      </trkpt>
      <trkpt lat="44.31538" lon="6.85701">
        <time>2023-04-10T06:33:58+00:00</time>
        <ele>2017.0</ele>
      </trkpt>
      <trkpt lat="44.31538" lon="6.85701">
        <time>2023-04-10T06:33:59+00:00</time>
        <ele>2017.0</ele>
      </trkpt>
      <trkpt lat="44.31538" lon="6.85701">
        <time>2023-04-10T06:34:00+00:00</time>
        <ele>2017.0</ele>
      </trkpt>
      <trkpt lat="44.31537" lon="6.85699">
        <time>2023-04-10T06:34:01+00:00</time>
        <ele>2017.0</ele>
      </trkpt>
      <trkpt lat="44.31537" lon="6.85699">
        <time>2023-04-10T06:34:02+00:00</time>
        <ele>2017.0</ele>
      </trkpt>
      <trkpt lat="44.31537" lon="6.85699">
        <time>2023-04-10T06:34:03+00:00</time>
        <ele>2017.0</ele>
      </trkpt>
      <trkpt lat="44.31534" lon="6.85697">
        <time>2023-04-10T06:34:04+00:00</time>
        <ele>2018.0</ele>
      </trkpt>
      <trkpt lat="44.31534" lon="6.85697">
        <time>2023-04-10T06:34:05+00:00</time>
        <ele>2018.0</ele>
      </trkpt>
      <trkpt lat="44.31534" lon="6.85697">
        <time>2023-04-10T06:34:06+00:00</time>
        <ele>2018.0</ele>
      </trkpt>
      <trkpt lat="44.31533" lon="6.85695">
        <time>2023-04-10T06:34:07+00:00</time>
        <ele>2018.0</ele>
      </trkpt>
      <trkpt lat="44.31533" lon="6.85695">
        <time>2023-04-10T06:34:08+00:00</time>
        <ele>2018.0</ele>
      </trkpt>
      <trkpt lat="44.31533" lon="6.85695">
        <time>2023-04-10T06:34:09+00:00</time>
        <ele>2018.0</ele>
      </trkpt>
      <trkpt lat="44.3153" lon="6.85694">
        <time>2023-04-10T06:34:10+00:00</time>
        <ele>2019.0</ele>
      </trkpt>
      <trkpt lat="44.3153" lon="6.85694">
        <time>2023-04-10T06:34:11+00:00</time>
        <ele>2019.0</ele>
      </trkpt>
      <trkpt lat="44.3153" lon="6.85694">
        <time>2023-04-10T06:34:12+00:00</time>
        <ele>2019.0</ele>
      </trkpt>
      <trkpt lat="44.31528" lon="6.85692">
        <time>2023-04-10T06:34:13+00:00</time>
        <ele>2019.0</ele>
      </trkpt>
      <trkpt lat="44.31528" lon="6.85692">
        <time>2023-04-10T06:34:14+00:00</time>
        <ele>2019.0</ele>
      </trkpt>
      <trkpt lat="44.31528" lon="6.85692">
        <time>2023-04-10T06:34:15+00:00</time>
        <ele>2019.0</ele>
      </trkpt>
      <trkpt lat="44.31527" lon="6.8569">
        <time>2023-04-10T06:34:16+00:00</time>
        <ele>2020.0</ele>
      </trkpt>
      <trkpt lat="44.31527" lon="6.8569">
        <time>2023-04-10T06:34:17+00:00</time>
        <ele>2020.0</ele>
      </trkpt>
      <trkpt lat="44.31525" lon="6.8569">
        <time>2023-04-10T06:34:18+00:00</time>
        <ele>2020.0</ele>
      </trkpt>
      <trkpt lat="44.31525" lon="6.8569">
        <time>2023-04-10T06:34:19+00:00</time>
        <ele>2020.0</ele>
      </trkpt>
      <trkpt lat="44.31525" lon="6.8569">
        <time>2023-04-10T06:34:20+00:00</time>
        <ele>2020.0</ele>
      </trkpt>
      <trkpt lat="44.31523" lon="6.85688">
        <time>2023-04-10T06:34:21+00:00</time>
        <ele>2020.0</ele>
      </trkpt>
      <trkpt lat="44.31523" lon="6.85688">
        <time>2023-04-10T06:34:22+00:00</time>
        <ele>2020.0</ele>
      </trkpt>
      <trkpt lat="44.31523" lon="6.85688">
        <time>2023-04-10T06:34:23+00:00</time>
        <ele>2020.0</ele>
      </trkpt>
      <trkpt lat="44.3152" lon="6.85688">
        <time>2023-04-10T06:34:24+00:00</time>
        <ele>2020.0</ele>
      </trkpt>
      <trkpt lat="44.3152" lon="6.85688">
        <time>2023-04-10T06:34:25+00:00</time>
        <ele>2020.0</ele>
      </trkpt>
      <trkpt lat="44.3152" lon="6.85688">
        <time>2023-04-10T06:34:26+00:00</time>
        <ele>2020.0</ele>
      </trkpt>
      <trkpt lat="44.31518" lon="6.85685">
        <time>2023-04-10T06:34:27+00:00</time>
        <ele>2021.0</ele>
      </trkpt>
      <trkpt lat="44.31518" lon="6.85685">
        <time>2023-04-10T06:34:28+00:00</time>
        <ele>2021.0</ele>
      </trkpt>
      <trkpt lat="44.31518" lon="6.85685">
        <time>2023-04-10T06:34:29+00:00</time>
        <ele>2021.0</ele>
      </trkpt>
      <trkpt lat="44.31517" lon="6.85684">
        <time>2023-04-10T06:34:30+00:00</time>
        <ele>2021.0</ele>
      </trkpt>
      <trkpt lat="44.31517" lon="6.85684">
        <time>2023-04-10T06:34:31+00:00</time>
        <ele>2021.0</ele>
      </trkpt>
      <trkpt lat="44.31517" lon="6.85684">
        <time>2023-04-10T06:34:32+00:00</time>
        <ele>2021.0</ele>
      </trkpt>
      <trkpt lat="44.31515" lon="6.85682">
        <time>2023-04-10T06:34:33+00:00</time>
        <ele>2022.0</ele>
      </trkpt>
      <trkpt lat="44.31515" lon="6.85682">
        <time>2023-04-10T06:34:34+00:00</time>
        <ele>2022.0</ele>
      </trkpt>
      <trkpt lat="44.31515" lon="6.85682">
        <time>2023-04-10T06:34:35+00:00</time>
        <ele>2022.0</ele>
      </trkpt>
      <trkpt lat="44.31513" lon="6.85681">
        <time>2023-04-10T06:34:36+00:00</time>
        <ele>2023.0</ele>
      </trkpt>
      <trkpt lat="44.31513" lon="6.85681">
        <time>2023-04-10T06:34:37+00:00</time>
        <ele>2023.0</ele>
      </trkpt>
      <trkpt lat="44.31513" lon="6.85681">
        <time>2023-04-10T06:34:38+00:00</time>
        <ele>2023.0</ele>
      </trkpt>
      <trkpt lat="44.31511" lon="6.8568">
        <time>2023-04-10T06:34:39+00:00</time>
        <ele>2023.0</ele>
      </trkpt>
      <trkpt lat="44.31511" lon="6.8568">
        <time>2023-04-10T06:34:40+00:00</time>
        <ele>2023.0</ele>
      </trkpt>
      <trkpt lat="44.31509" lon="6.85679">
        <time>2023-04-10T06:34:41+00:00</time>
        <ele>2024.0</ele>
      </trkpt>
      <trkpt lat="44.31509" lon="6.85679">
        <time>2023-04-10T06:34:42+00:00</time>
        <ele>2024.0</ele>
      </trkpt>
      <trkpt lat="44.31509" lon="6.85679">
        <time>2023-04-10T06:34:43+00:00</time>
        <ele>2024.0</ele>
      </trkpt>
      <trkpt lat="44.31508" lon="6.85676">
        <time>2023-04-10T06:34:44+00:00</time>
        <ele>2025.0</ele>
      </trkpt>
      <trkpt lat="44.31508" lon="6.85676">
        <time>2023-04-10T06:34:45+00:00</time>
        <ele>2025.0</ele>
      </trkpt>
      <trkpt lat="44.31508" lon="6.85676">
        <time>2023-04-10T06:34:46+00:00</time>
        <ele>2025.0</ele>
      </trkpt>
      <trkpt lat="44.31506" lon="6.85675">
        <time>2023-04-10T06:34:47+00:00</time>
        <ele>2025.0</ele>
      </trkpt>
      <trkpt lat="44.31506" lon="6.85675">
        <time>2023-04-10T06:34:48+00:00</time>
        <ele>2025.0</ele>
      </trkpt>
      <trkpt lat="44.31504" lon="6.85674">
        <time>2023-04-10T06:34:49+00:00</time>
        <ele>2025.0</ele>
      </trkpt>
      <trkpt lat="44.31504" lon="6.85674">
        <time>2023-04-10T06:34:50+00:00</time>
        <ele>2025.0</ele>
      </trkpt>
      <trkpt lat="44.31504" lon="6.85674">
        <time>2023-04-10T06:34:51+00:00</time>
        <ele>2025.0</ele>
      </trkpt>
      <trkpt lat="44.31502" lon="6.85672">
        <time>2023-04-10T06:34:52+00:00</time>
        <ele>2025.0</ele>
      </trkpt>
      <trkpt lat="44.31502" lon="6.85672">
        <time>2023-04-10T06:34:53+00:00</time>
        <ele>2025.0</ele>
      </trkpt>
      <trkpt lat="44.31502" lon="6.85672">
        <time>2023-04-10T06:34:54+00:00</time>
        <ele>2025.0</ele>
      </trkpt>
      <trkpt lat="44.31501" lon="6.8567">
        <time>2023-04-10T06:34:55+00:00</time>
        <ele>2025.0</ele>
      </trkpt>
      <trkpt lat="44.31501" lon="6.8567">
        <time>2023-04-10T06:34:56+00:00</time>
        <ele>2025.0</ele>
      </trkpt>
      <trkpt lat="44.31499" lon="6.85668">
        <time>2023-04-10T06:34:57+00:00</time>
        <ele>2026.0</ele>
      </trkpt>
      <trkpt lat="44.31499" lon="6.85668">
        <time>2023-04-10T06:34:58+00:00</time>
        <ele>2026.0</ele>
      </trkpt>
      <trkpt lat="44.31498" lon="6.85666">
        <time>2023-04-10T06:34:59+00:00</time>
        <ele>2026.0</ele>
      </trkpt>
      <trkpt lat="44.31498" lon="6.85666">
        <time>2023-04-10T06:35:00+00:00</time>
        <ele>2026.0</ele>
      </trkpt>
      <trkpt lat="44.31498" lon="6.85666">
        <time>2023-04-10T06:35:01+00:00</time>
        <ele>2026.0</ele>
      </trkpt>
      <trkpt lat="44.31496" lon="6.85663">
        <time>2023-04-10T06:35:02+00:00</time>
        <ele>2027.0</ele>
      </trkpt>
      <trkpt lat="44.31496" lon="6.85663">
        <time>2023-04-10T06:35:03+00:00</time>
        <ele>2027.0</ele>
      </trkpt>
      <trkpt lat="44.31496" lon="6.85663">
        <time>2023-04-10T06:35:04+00:00</time>
        <ele>2027.0</ele>
      </trkpt>
      <trkpt lat="44.31494" lon="6.85662">
        <time>2023-04-10T06:35:05+00:00</time>
        <ele>2027.0</ele>
      </trkpt>
      <trkpt lat="44.31494" lon="6.85662">
        <time>2023-04-10T06:35:06+00:00</time>
        <ele>2027.0</ele>
      </trkpt>
      <trkpt lat="44.31494" lon="6.85662">
        <time>2023-04-10T06:35:07+00:00</time>
        <ele>2027.0</ele>
      </trkpt>
      <trkpt lat="44.31493" lon="6.85659">
        <time>2023-04-10T06:35:08+00:00</time>
        <ele>2028.0</ele>
      </trkpt>
      <trkpt lat="44.31493" lon="6.85659">
        <time>2023-04-10T06:35:09+00:00</time>
        <ele>2028.0</ele>
      </trkpt>
      <trkpt lat="44.31493" lon="6.85659">
        <time>2023-04-10T06:35:10+00:00</time>
        <ele>2028.0</ele>
      </trkpt>
      <trkpt lat="44.31493" lon="6.85659">
        <time>2023-04-10T06:35:11+00:00</time>
        <ele>2028.0</ele>
      </trkpt>
      <trkpt lat="44.31493" lon="6.85659">
        <time>2023-04-10T06:35:12+00:00</time>
        <ele>2028.0</ele>
      </trkpt>
      <trkpt lat="44.31491" lon="6.85656">
        <time>2023-04-10T06:35:13+00:00</time>
        <ele>2030.0</ele>
      </trkpt>
      <trkpt lat="44.31491" lon="6.85656">
        <time>2023-04-10T06:35:14+00:00</time>
        <ele>2030.0</ele>
      </trkpt>
      <trkpt lat="44.31491" lon="6.85656">
        <time>2023-04-10T06:35:15+00:00</time>
        <ele>2030.0</ele>
      </trkpt>
      <trkpt lat="44.31489" lon="6.85653">
        <time>2023-04-10T06:35:16+00:00</time>
        <ele>2031.0</ele>
      </trkpt>
      <trkpt lat="44.31489" lon="6.85653">
        <time>2023-04-10T06:35:17+00:00</time>
        <ele>2031.0</ele>
      </trkpt>
      <trkpt lat="44.31489" lon="6.85653">
        <time>2023-04-10T06:35:18+00:00</time>
        <ele>2031.0</ele>
      </trkpt>
      <trkpt lat="44.31488" lon="6.85651">
        <time>2023-04-10T06:35:19+00:00</time>
        <ele>2031.0</ele>
      </trkpt>
      <trkpt lat="44.31488" lon="6.85651">
        <time>2023-04-10T06:35:20+00:00</time>
        <ele>2031.0</ele>
      </trkpt>
      <trkpt lat="44.31488" lon="6.85651">
        <time>2023-04-10T06:35:21+00:00</time>
        <ele>2031.0</ele>
      </trkpt>
      <trkpt lat="44.31485" lon="6.8565">
        <time>2023-04-10T06:35:22+00:00</time>
        <ele>2031.0</ele>
      </trkpt>
      <trkpt lat="44.31485" lon="6.8565">
        <time>2023-04-10T06:35:23+00:00</time>
        <ele>2031.0</ele>
      </trkpt>
      <trkpt lat="44.31485" lon="6.8565">
        <time>2023-04-10T06:35:24+00:00</time>
        <ele>2031.0</ele>
      </trkpt>
      <trkpt lat="44.31485" lon="6.8565">
        <time>2023-04-10T06:35:25+00:00</time>
        <ele>2031.0</ele>
      </trkpt>
      <trkpt lat="44.31484" lon="6.85649">
        <time>2023-04-10T06:35:26+00:00</time>
        <ele>2032.0</ele>
      </trkpt>
      <trkpt lat="44.31484" lon="6.85649">
        <time>2023-04-10T06:35:27+00:00</time>
        <ele>2032.0</ele>
      </trkpt>
      <trkpt lat="44.31484" lon="6.85649">
        <time>2023-04-10T06:35:28+00:00</time>
        <ele>2032.0</ele>
      </trkpt>
      <trkpt lat="44.31482" lon="6.85647">
        <time>2023-04-10T06:35:29+00:00</time>
        <ele>2032.0</ele>
      </trkpt>
      <trkpt lat="44.31482" lon="6.85647">
        <time>2023-04-10T06:35:30+00:00</time>
        <ele>2032.0</ele>
      </trkpt>
      <trkpt lat="44.31482" lon="6.85647">
        <time>2023-04-10T06:35:31+00:00</time>
        <ele>2032.0</ele>
      </trkpt>
      <trkpt lat="44.31482" lon="6.85647">
        <time>2023-04-10T06:35:32+00:00</time>
        <ele>2032.0</ele>
      </trkpt>
      <trkpt lat="44.3148" lon="6.85644">
        <time>2023-04-10T06:35:33+00:00</time>
        <ele>2033.0</ele>
      </trkpt>
      <trkpt lat="44.3148" lon="6.85644">
        <time>2023-04-10T06:35:34+00:00</time>
        <ele>2033.0</ele>
      </trkpt>
      <trkpt lat="44.3148" lon="6.85644">
        <time>2023-04-10T06:35:35+00:00</time>
        <ele>2033.0</ele>
      </trkpt>
      <trkpt lat="44.3148" lon="6.85644">
        <time>2023-04-10T06:35:36+00:00</time>
        <ele>2033.0</ele>
      </trkpt>
      <trkpt lat="44.31478" lon="6.85642">
        <time>2023-04-10T06:35:37+00:00</time>
        <ele>2033.0</ele>
      </trkpt>
      <trkpt lat="44.31478" lon="6.85642">
        <time>2023-04-10T06:35:38+00:00</time>
        <ele>2033.0</ele>
      </trkpt>
      <trkpt lat="44.31478" lon="6.85642">
        <time>2023-04-10T06:35:39+00:00</time>
        <ele>2033.0</ele>
      </trkpt>
      <trkpt lat="44.31476" lon="6.8564">
        <time>2023-04-10T06:35:40+00:00</time>
        <ele>2034.0</ele>
      </trkpt>
      <trkpt lat="44.31476" lon="6.8564">
        <time>2023-04-10T06:35:41+00:00</time>
        <ele>2034.0</ele>
      </trkpt>
      <trkpt lat="44.31476" lon="6.8564">
        <time>2023-04-10T06:35:42+00:00</time>
        <ele>2034.0</ele>
      </trkpt>
      <trkpt lat="44.31475" lon="6.85637">
        <time>2023-04-10T06:35:43+00:00</time>
        <ele>2035.0</ele>
      </trkpt>
      <trkpt lat="44.31475" lon="6.85637">
        <time>2023-04-10T06:35:44+00:00</time>
        <ele>2035.0</ele>
      </trkpt>
      <trkpt lat="44.31475" lon="6.85637">
        <time>2023-04-10T06:35:45+00:00</time>
        <ele>2035.0</ele>
      </trkpt>
      <trkpt lat="44.31473" lon="6.85637">
        <time>2023-04-10T06:35:46+00:00</time>
        <ele>2035.0</ele>
      </trkpt>
      <trkpt lat="44.31473" lon="6.85637">
        <time>2023-04-10T06:35:47+00:00</time>
        <ele>2035.0</ele>
      </trkpt>
      <trkpt lat="44.31473" lon="6.85637">
        <time>2023-04-10T06:35:48+00:00</time>
        <ele>2035.0</ele>
      </trkpt>
      <trkpt lat="44.3147" lon="6.85636">
        <time>2023-04-10T06:35:49+00:00</time>
        <ele>2035.0</ele>
      </trkpt>
      <trkpt lat="44.3147" lon="6.85636">
        <time>2023-04-10T06:35:50+00:00</time>
        <ele>2035.0</ele>
      </trkpt>
      <trkpt lat="44.3147" lon="6.85636">
        <time>2023-04-10T06:35:51+00:00</time>
        <ele>2035.0</ele>
      </trkpt>
      <trkpt lat="44.31469" lon="6.85636">
        <time>2023-04-10T06:35:52+00:00</time>
        <ele>2035.0</ele>
      </trkpt>
      <trkpt lat="44.31469" lon="6.85636">
        <time>2023-04-10T06:35:53+00:00</time>
        <ele>2035.0</ele>
      </trkpt>
      <trkpt lat="44.31469" lon="6.85636">
        <time>2023-04-10T06:35:54+00:00</time>
        <ele>2035.0</ele>
      </trkpt>
      <trkpt lat="44.31467" lon="6.85635">
        <time>2023-04-10T06:35:55+00:00</time>
        <ele>2035.0</ele>
      </trkpt>
      <trkpt lat="44.31467" lon="6.85635">
        <time>2023-04-10T06:35:56+00:00</time>
        <ele>2035.0</ele>
      </trkpt>
      <trkpt lat="44.31467" lon="6.85635">
        <time>2023-04-10T06:35:57+00:00</time>
        <ele>2035.0</ele>
      </trkpt>
      <trkpt lat="44.31464" lon="6.85635">
        <time>2023-04-10T06:35:58+00:00</time>
        <ele>2035.0</ele>
      </trkpt>
      <trkpt lat="44.31464" lon="6.85635">
        <time>2023-04-10T06:35:59+00:00</time>
        <ele>2035.0</ele>
      </trkpt>
      <trkpt lat="44.31464" lon="6.85635">
        <time>2023-04-10T06:36:00+00:00</time>
        <ele>2035.0</ele>
      </trkpt>
      <trkpt lat="44.31463" lon="6.85634">
        <time>2023-04-10T06:36:01+00:00</time>
        <ele>2035.0</ele>
      </trkpt>
      <trkpt lat="44.31463" lon="6.85634">
        <time>2023-04-10T06:36:02+00:00</time>
        <ele>2035.0</ele>
      </trkpt>
      <trkpt lat="44.31463" lon="6.85634">
        <time>2023-04-10T06:36:03+00:00</time>
        <ele>2035.0</ele>
      </trkpt>
      <trkpt lat="44.31463" lon="6.85634">
        <time>2023-04-10T06:36:04+00:00</time>
        <ele>2035.0</ele>
      </trkpt>
      <trkpt lat="44.31463" lon="6.85634">
        <time>2023-04-10T06:36:05+00:00</time>
        <ele>2035.0</ele>
      </trkpt>
      <trkpt lat="44.31461" lon="6.85633">
        <time>2023-04-10T06:36:06+00:00</time>
        <ele>2035.0</ele>
      </trkpt>
      <trkpt lat="44.31461" lon="6.85633">
        <time>2023-04-10T06:36:07+00:00</time>
        <ele>2035.0</ele>
      </trkpt>
      <trkpt lat="44.31461" lon="6.85633">
        <time>2023-04-10T06:36:08+00:00</time>
        <ele>2035.0</ele>
      </trkpt>
      <trkpt lat="44.31461" lon="6.85633">
        <time>2023-04-10T06:36:09+00:00</time>
        <ele>2035.0</ele>
      </trkpt>
      <trkpt lat="44.31461" lon="6.85633">
        <time>2023-04-10T06:36:10+00:00</time>
        <ele>2035.0</ele>
      </trkpt>
      <trkpt lat="44.31461" lon="6.85633">
        <time>2023-04-10T06:36:11+00:00</time>
        <ele>2035.0</ele>
      </trkpt>
      <trkpt lat="44.31461" lon="6.85633">
        <time>2023-04-10T06:36:12+00:00</time>
        <ele>2035.0</ele>
      </trkpt>
      <trkpt lat="44.31461" lon="6.85633">
        <time>2023-04-10T06:36:13+00:00</time>
        <ele>2035.0</ele>
      </trkpt>
      <trkpt lat="44.31461" lon="6.85633">
        <time>2023-04-10T06:36:14+00:00</time>
        <ele>2035.0</ele>
      </trkpt>
      <trkpt lat="44.31461" lon="6.85633">
        <time>2023-04-10T06:36:15+00:00</time>
        <ele>2035.0</ele>
      </trkpt>
      <trkpt lat="44.31461" lon="6.85633">
        <time>2023-04-10T06:36:16+00:00</time>
        <ele>2035.0</ele>
      </trkpt>
      <trkpt lat="44.31461" lon="6.85633">
        <time>2023-04-10T06:36:17+00:00</time>
        <ele>2035.0</ele>
      </trkpt>
      <trkpt lat="44.31461" lon="6.85633">
        <time>2023-04-10T06:36:18+00:00</time>
        <ele>2035.0</ele>
      </trkpt>
      <trkpt lat="44.31461" lon="6.85633">
        <time>2023-04-10T06:36:19+00:00</time>
        <ele>2035.0</ele>
      </trkpt>
      <trkpt lat="44.31461" lon="6.85633">
        <time>2023-04-10T06:36:20+00:00</time>
        <ele>2035.0</ele>
      </trkpt>
      <trkpt lat="44.31461" lon="6.85633">
        <time>2023-04-10T06:36:21+00:00</time>
        <ele>2035.0</ele>
      </trkpt>
      <trkpt lat="44.31461" lon="6.85633">
        <time>2023-04-10T06:36:22+00:00</time>
        <ele>2035.0</ele>
      </trkpt>
      <trkpt lat="44.31461" lon="6.85633">
        <time>2023-04-10T06:36:23+00:00</time>
        <ele>2035.0</ele>
      </trkpt>
      <trkpt lat="44.31461" lon="6.85633">
        <time>2023-04-10T06:36:24+00:00</time>
        <ele>2035.0</ele>
      </trkpt>
      <trkpt lat="44.31461" lon="6.85633">
        <time>2023-04-10T06:36:25+00:00</time>
        <ele>2035.0</ele>
      </trkpt>
      <trkpt lat="44.31461" lon="6.85633">
        <time>2023-04-10T06:36:26+00:00</time>
        <ele>2035.0</ele>
      </trkpt>
      <trkpt lat="44.31461" lon="6.85633">
        <time>2023-04-10T06:36:27+00:00</time>
        <ele>2035.0</ele>
      </trkpt>
      <trkpt lat="44.31461" lon="6.85633">
        <time>2023-04-10T06:36:28+00:00</time>
        <ele>2035.0</ele>
      </trkpt>
      <trkpt lat="44.31461" lon="6.85633">
        <time>2023-04-10T06:36:29+00:00</time>
        <ele>2035.0</ele>
      </trkpt>
      <trkpt lat="44.31461" lon="6.85633">
        <time>2023-04-10T06:36:30+00:00</time>
        <ele>2035.0</ele>
      </trkpt>
      <trkpt lat="44.31461" lon="6.85633">
        <time>2023-04-10T06:36:31+00:00</time>
        <ele>2035.0</ele>
      </trkpt>
      <trkpt lat="44.31461" lon="6.85633">
        <time>2023-04-10T06:36:32+00:00</time>
        <ele>2035.0</ele>
      </trkpt>
      <trkpt lat="44.31461" lon="6.85633">
        <time>2023-04-10T06:36:33+00:00</time>
        <ele>2035.0</ele>
      </trkpt>
      <trkpt lat="44.31461" lon="6.85633">
        <time>2023-04-10T06:36:34+00:00</time>
        <ele>2035.0</ele>
      </trkpt>
      <trkpt lat="44.31461" lon="6.85633">
        <time>2023-04-10T06:36:35+00:00</time>
        <ele>2035.0</ele>
      </trkpt>
      <trkpt lat="44.31461" lon="6.85633">
        <time>2023-04-10T06:36:36+00:00</time>
        <ele>2035.0</ele>
      </trkpt>
      <trkpt lat="44.31461" lon="6.85633">
        <time>2023-04-10T06:36:37+00:00</time>
        <ele>2035.0</ele>
      </trkpt>
      <trkpt lat="44.31461" lon="6.85633">
        <time>2023-04-10T06:36:38+00:00</time>
        <ele>2035.0</ele>
      </trkpt>
      <trkpt lat="44.31461" lon="6.85633">
        <time>2023-04-10T06:36:39+00:00</time>
        <ele>2035.0</ele>
      </trkpt>
      <trkpt lat="44.31461" lon="6.85633">
        <time>2023-04-10T06:36:40+00:00</time>
        <ele>2035.0</ele>
      </trkpt>
      <trkpt lat="44.31461" lon="6.85633">
        <time>2023-04-10T06:36:41+00:00</time>
        <ele>2035.0</ele>
      </trkpt>
      <trkpt lat="44.31461" lon="6.85633">
        <time>2023-04-10T06:36:42+00:00</time>
        <ele>2035.0</ele>
      </trkpt>
      <trkpt lat="44.31461" lon="6.85633">
        <time>2023-04-10T06:36:43+00:00</time>
        <ele>2035.0</ele>
      </trkpt>
      <trkpt lat="44.31461" lon="6.85633">
        <time>2023-04-10T06:36:44+00:00</time>
        <ele>2035.0</ele>
      </trkpt>
      <trkpt lat="44.31461" lon="6.85633">
        <time>2023-04-10T06:36:45+00:00</time>
        <ele>2035.0</ele>
      </trkpt>
      <trkpt lat="44.31461" lon="6.85633">
        <time>2023-04-10T06:36:46+00:00</time>
        <ele>2035.0</ele>
      </trkpt>
      <trkpt lat="44.31461" lon="6.85633">
        <time>2023-04-10T06:36:47+00:00</time>
        <ele>2035.0</ele>
      </trkpt>
      <trkpt lat="44.31461" lon="6.85633">
        <time>2023-04-10T06:36:48+00:00</time>
        <ele>2035.0</ele>
      </trkpt>
      <trkpt lat="44.31461" lon="6.85633">
        <time>2023-04-10T06:36:49+00:00</time>
        <ele>2035.0</ele>
      </trkpt>
      <trkpt lat="44.31461" lon="6.85633">
        <time>2023-04-10T06:36:50+00:00</time>
        <ele>2035.0</ele>
      </trkpt>
      <trkpt lat="44.31461" lon="6.85633">
        <time>2023-04-10T06:36:51+00:00</time>
        <ele>2035.0</ele>
      </trkpt>
      <trkpt lat="44.31461" lon="6.85633">
        <time>2023-04-10T06:36:52+00:00</time>
        <ele>2035.0</ele>
      </trkpt>
      <trkpt lat="44.31461" lon="6.85633">
        <time>2023-04-10T06:36:53+00:00</time>
        <ele>2035.0</ele>
      </trkpt>
      <trkpt lat="44.31461" lon="6.85633">
        <time>2023-04-10T06:36:54+00:00</time>
        <ele>2035.0</ele>
      </trkpt>
      <trkpt lat="44.31461" lon="6.85633">
        <time>2023-04-10T06:36:55+00:00</time>
        <ele>2035.0</ele>
      </trkpt>
      <trkpt lat="44.31461" lon="6.85633">
        <time>2023-04-10T06:36:56+00:00</time>
        <ele>2035.0</ele>
      </trkpt>
      <trkpt lat="44.31461" lon="6.85633">
        <time>2023-04-10T06:36:57+00:00</time>
        <ele>2035.0</ele>
      </trkpt>
      <trkpt lat="44.31461" lon="6.85633">
        <time>2023-04-10T06:36:58+00:00</time>
        <ele>2035.0</ele>
      </trkpt>
      <trkpt lat="44.31461" lon="6.85633">
        <time>2023-04-10T06:36:59+00:00</time>
        <ele>2035.0</ele>
      </trkpt>
      <trkpt lat="44.31461" lon="6.85633">
        <time>2023-04-10T06:37:00+00:00</time>
        <ele>2035.0</ele>
      </trkpt>
      <trkpt lat="44.31461" lon="6.85633">
        <time>2023-04-10T06:37:01+00:00</time>
        <ele>2035.0</ele>
      </trkpt>
      <trkpt lat="44.31461" lon="6.85633">
        <time>2023-04-10T06:37:02+00:00</time>
        <ele>2035.0</ele>
      </trkpt>
      <trkpt lat="44.31461" lon="6.85633">
        <time>2023-04-10T06:37:03+00:00</time>
        <ele>2035.0</ele>
      </trkpt>
      <trkpt lat="44.31461" lon="6.85633">
        <time>2023-04-10T06:37:04+00:00</time>
        <ele>2035.0</ele>
      </trkpt>
      <trkpt lat="44.31461" lon="6.85633">
        <time>2023-04-10T06:37:05+00:00</time>
        <ele>2035.0</ele>
      </trkpt>
      <trkpt lat="44.31461" lon="6.85633">
        <time>2023-04-10T06:37:06+00:00</time>
        <ele>2035.0</ele>
      </trkpt>
      <trkpt lat="44.31461" lon="6.85633">
        <time>2023-04-10T06:37:07+00:00</time>
        <ele>2035.0</ele>
      </trkpt>
      <trkpt lat="44.31461" lon="6.85633">
        <time>2023-04-10T06:37:08+00:00</time>
        <ele>2035.0</ele>
      </trkpt>
      <trkpt lat="44.31461" lon="6.85633">
        <time>2023-04-10T06:37:09+00:00</time>
        <ele>2035.0</ele>
      </trkpt>
      <trkpt lat="44.31461" lon="6.85633">
        <time>2023-04-10T06:37:10+00:00</time>
        <ele>2035.0</ele>
      </trkpt>
      <trkpt lat="44.31461" lon="6.85633">
        <time>2023-04-10T06:37:11+00:00</time>
        <ele>2035.0</ele>
      </trkpt>
      <trkpt lat="44.31461" lon="6.85633">
        <time>2023-04-10T06:37:12+00:00</time>
        <ele>2035.0</ele>
      </trkpt>
      <trkpt lat="44.31461" lon="6.85633">
        <time>2023-04-10T06:37:13+00:00</time>
        <ele>2035.0</ele>
      </trkpt>
      <trkpt lat="44.31461" lon="6.85633">
        <time>2023-04-10T06:37:14+00:00</time>
        <ele>2035.0</ele>
      </trkpt>
      <trkpt lat="44.31461" lon="6.85633">
        <time>2023-04-10T06:37:15+00:00</time>
        <ele>2035.0</ele>
      </trkpt>
      <trkpt lat="44.31461" lon="6.85633">
        <time>2023-04-10T06:37:16+00:00</time>
        <ele>2035.0</ele>
      </trkpt>
      <trkpt lat="44.31461" lon="6.85633">
        <time>2023-04-10T06:37:17+00:00</time>
        <ele>2035.0</ele>
      </trkpt>
      <trkpt lat="44.31461" lon="6.85633">
        <time>2023-04-10T06:37:18+00:00</time>
        <ele>2035.0</ele>
      </trkpt>
      <trkpt lat="44.31461" lon="6.85633">
        <time>2023-04-10T06:37:19+00:00</time>
        <ele>2035.0</ele>
      </trkpt>
      <trkpt lat="44.31461" lon="6.85633">
        <time>2023-04-10T06:37:20+00:00</time>
        <ele>2035.0</ele>
      </trkpt>
      <trkpt lat="44.31461" lon="6.85633">
        <time>2023-04-10T06:37:21+00:00</time>
        <ele>2035.0</ele>
      </trkpt>
      <trkpt lat="44.31461" lon="6.85633">
        <time>2023-04-10T06:37:22+00:00</time>
        <ele>2035.0</ele>
      </trkpt>
      <trkpt lat="44.31461" lon="6.85633">
        <time>2023-04-10T06:37:23+00:00</time>
        <ele>2035.0</ele>
      </trkpt>
      <trkpt lat="44.31461" lon="6.85633">
        <time>2023-04-10T06:37:24+00:00</time>
        <ele>2035.0</ele>
      </trkpt>
      <trkpt lat="44.31461" lon="6.85633">
        <time>2023-04-10T06:37:25+00:00</time>
        <ele>2035.0</ele>
      </trkpt>
      <trkpt lat="44.31461" lon="6.85633">
        <time>2023-04-10T06:37:26+00:00</time>
        <ele>2035.0</ele>
      </trkpt>
      <trkpt lat="44.31461" lon="6.85633">
        <time>2023-04-10T06:37:27+00:00</time>
        <ele>2035.0</ele>
      </trkpt>
      <trkpt lat="44.31461" lon="6.85633">
        <time>2023-04-10T06:37:28+00:00</time>
        <ele>2035.0</ele>
      </trkpt>
      <trkpt lat="44.31461" lon="6.85633">
        <time>2023-04-10T06:37:29+00:00</time>
        <ele>2035.0</ele>
      </trkpt>
      <trkpt lat="44.31461" lon="6.85633">
        <time>2023-04-10T06:37:30+00:00</time>
        <ele>2035.0</ele>
      </trkpt>
      <trkpt lat="44.31461" lon="6.85633">
        <time>2023-04-10T06:37:31+00:00</time>
        <ele>2035.0</ele>
      </trkpt>
      <trkpt lat="44.31461" lon="6.85633">
        <time>2023-04-10T06:37:32+00:00</time>
        <ele>2035.0</ele>
      </trkpt>
      <trkpt lat="44.31461" lon="6.85633">
        <time>2023-04-10T06:37:33+00:00</time>
        <ele>2035.0</ele>
      </trkpt>
      <trkpt lat="44.31461" lon="6.85633">
        <time>2023-04-10T06:37:34+00:00</time>
        <ele>2035.0</ele>
      </trkpt>
      <trkpt lat="44.31461" lon="6.85633">
        <time>2023-04-10T06:37:35+00:00</time>
        <ele>2035.0</ele>
      </trkpt>
      <trkpt lat="44.31461" lon="6.85633">
        <time>2023-04-10T06:37:36+00:00</time>
        <ele>2035.0</ele>
      </trkpt>
      <trkpt lat="44.31461" lon="6.85633">
        <time>2023-04-10T06:37:37+00:00</time>
        <ele>2035.0</ele>
      </trkpt>
      <trkpt lat="44.31461" lon="6.85633">
        <time>2023-04-10T06:37:38+00:00</time>
        <ele>2035.0</ele>
      </trkpt>
      <trkpt lat="44.31461" lon="6.85633">
        <time>2023-04-10T06:37:39+00:00</time>
        <ele>2035.0</ele>
      </trkpt>
      <trkpt lat="44.31461" lon="6.85633">
        <time>2023-04-10T06:37:40+00:00</time>
        <ele>2035.0</ele>
      </trkpt>
      <trkpt lat="44.31461" lon="6.85633">
        <time>2023-04-10T06:37:41+00:00</time>
        <ele>2035.0</ele>
      </trkpt>
      <trkpt lat="44.31461" lon="6.85633">
        <time>2023-04-10T06:37:42+00:00</time>
        <ele>2035.0</ele>
      </trkpt>
      <trkpt lat="44.31461" lon="6.85633">
        <time>2023-04-10T06:37:43+00:00</time>
        <ele>2035.0</ele>
      </trkpt>
      <trkpt lat="44.31461" lon="6.85633">
        <time>2023-04-10T06:37:44+00:00</time>
        <ele>2035.0</ele>
      </trkpt>
      <trkpt lat="44.31461" lon="6.85633">
        <time>2023-04-10T06:37:45+00:00</time>
        <ele>2035.0</ele>
      </trkpt>
      <trkpt lat="44.31461" lon="6.85633">
        <time>2023-04-10T06:37:46+00:00</time>
        <ele>2035.0</ele>
      </trkpt>
      <trkpt lat="44.31461" lon="6.85633">
        <time>2023-04-10T06:37:47+00:00</time>
        <ele>2035.0</ele>
      </trkpt>
      <trkpt lat="44.31461" lon="6.85633">
        <time>2023-04-10T06:37:48+00:00</time>
        <ele>2035.0</ele>
      </trkpt>
      <trkpt lat="44.31461" lon="6.85633">
        <time>2023-04-10T06:37:49+00:00</time>
        <ele>2035.0</ele>
      </trkpt>
      <trkpt lat="44.31461" lon="6.85633">
        <time>2023-04-10T06:37:50+00:00</time>
        <ele>2035.0</ele>
      </trkpt>
      <trkpt lat="44.31461" lon="6.85633">
        <time>2023-04-10T06:37:51+00:00</time>
        <ele>2035.0</ele>
      </trkpt>
      <trkpt lat="44.31461" lon="6.85633">
        <time>2023-04-10T06:37:52+00:00</time>
        <ele>2035.0</ele>
      </trkpt>
      <trkpt lat="44.31461" lon="6.85633">
        <time>2023-04-10T06:37:53+00:00</time>
        <ele>2035.0</ele>
      </trkpt>
      <trkpt lat="44.31461" lon="6.85633">
        <time>2023-04-10T06:37:54+00:00</time>
        <ele>2035.0</ele>
      </trkpt>
      <trkpt lat="44.31461" lon="6.85633">
        <time>2023-04-10T06:37:55+00:00</time>
        <ele>2035.0</ele>
      </trkpt>
      <trkpt lat="44.31461" lon="6.85633">
        <time>2023-04-10T06:37:56+00:00</time>
        <ele>2035.0</ele>
      </trkpt>
      <trkpt lat="44.31461" lon="6.85633">
        <time>2023-04-10T06:37:57+00:00</time>
        <ele>2035.0</ele>
      </trkpt>
      <trkpt lat="44.31461" lon="6.85633">
        <time>2023-04-10T06:37:58+00:00</time>
        <ele>2035.0</ele>
      </trkpt>
      <trkpt lat="44.31461" lon="6.85633">
        <time>2023-04-10T06:37:59+00:00</time>
        <ele>2035.0</ele>
      </trkpt>
      <trkpt lat="44.31461" lon="6.85633">
        <time>2023-04-10T06:38:00+00:00</time>
        <ele>2035.0</ele>
      </trkpt>
      <trkpt lat="44.31461" lon="6.85633">
        <time>2023-04-10T06:38:01+00:00</time>
        <ele>2035.0</ele>
      </trkpt>
      <trkpt lat="44.31461" lon="6.85633">
        <time>2023-04-10T06:38:02+00:00</time>
        <ele>2035.0</ele>
      </trkpt>
      <trkpt lat="44.31461" lon="6.85633">
        <time>2023-04-10T06:38:03+00:00</time>
        <ele>2035.0</ele>
      </trkpt>
      <trkpt lat="44.31461" lon="6.85633">
        <time>2023-04-10T06:38:04+00:00</time>
        <ele>2035.0</ele>
      </trkpt>
      <trkpt lat="44.31461" lon="6.85633">
        <time>2023-04-10T06:38:05+00:00</time>
        <ele>2035.0</ele>
      </trkpt>
      <trkpt lat="44.31461" lon="6.85633">
        <time>2023-04-10T06:38:06+00:00</time>
        <ele>2035.0</ele>
      </trkpt>
      <trkpt lat="44.31461" lon="6.85633">
        <time>2023-04-10T06:38:07+00:00</time>
        <ele>2035.0</ele>
      </trkpt>
      <trkpt lat="44.31461" lon="6.85633">
        <time>2023-04-10T06:38:08+00:00</time>
        <ele>2035.0</ele>
      </trkpt>
      <trkpt lat="44.31461" lon="6.85633">
        <time>2023-04-10T06:38:09+00:00</time>
        <ele>2035.0</ele>
      </trkpt>
      <trkpt lat="44.31461" lon="6.85633">
        <time>2023-04-10T06:38:10+00:00</time>
        <ele>2035.0</ele>
      </trkpt>
      <trkpt lat="44.31461" lon="6.85633">
        <time>2023-04-10T06:38:11+00:00</time>
        <ele>2035.0</ele>
      </trkpt>
      <trkpt lat="44.31461" lon="6.85633">
        <time>2023-04-10T06:38:12+00:00</time>
        <ele>2035.0</ele>
      </trkpt>
      <trkpt lat="44.31461" lon="6.85633">
        <time>2023-04-10T06:38:13+00:00</time>
        <ele>2035.0</ele>
      </trkpt>
      <trkpt lat="44.31461" lon="6.85633">
        <time>2023-04-10T06:38:14+00:00</time>
        <ele>2035.0</ele>
      </trkpt>
      <trkpt lat="44.31461" lon="6.85633">
        <time>2023-04-10T06:38:15+00:00</time>
        <ele>2035.0</ele>
      </trkpt>
      <trkpt lat="44.31461" lon="6.85633">
        <time>2023-04-10T06:38:16+00:00</time>
        <ele>2035.0</ele>
      </trkpt>
      <trkpt lat="44.31461" lon="6.85633">
        <time>2023-04-10T06:38:17+00:00</time>
        <ele>2035.0</ele>
      </trkpt>
      <trkpt lat="44.31461" lon="6.85633">
        <time>2023-04-10T06:38:18+00:00</time>
        <ele>2035.0</ele>
      </trkpt>
      <trkpt lat="44.31461" lon="6.85633">
        <time>2023-04-10T06:38:19+00:00</time>
        <ele>2035.0</ele>
      </trkpt>
      <trkpt lat="44.31461" lon="6.85633">
        <time>2023-04-10T06:38:20+00:00</time>
        <ele>2035.0</ele>
      </trkpt>
      <trkpt lat="44.31461" lon="6.85633">
        <time>2023-04-10T06:38:21+00:00</time>
        <ele>2035.0</ele>
      </trkpt>
      <trkpt lat="44.31461" lon="6.85633">
        <time>2023-04-10T06:38:22+00:00</time>
        <ele>2035.0</ele>
      </trkpt>
      <trkpt lat="44.31461" lon="6.85633">
        <time>2023-04-10T06:38:23+00:00</time>
        <ele>2035.0</ele>
      </trkpt>
      <trkpt lat="44.31461" lon="6.85633">
        <time>2023-04-10T06:38:24+00:00</time>
        <ele>2035.0</ele>
      </trkpt>
      <trkpt lat="44.31461" lon="6.85633">
        <time>2023-04-10T06:38:25+00:00</time>
        <ele>2035.0</ele>
      </trkpt>
      <trkpt lat="44.31461" lon="6.85633">
        <time>2023-04-10T06:38:26+00:00</time>
        <ele>2035.0</ele>
      </trkpt>
      <trkpt lat="44.31461" lon="6.85633">
        <time>2023-04-10T06:38:27+00:00</time>
        <ele>2035.0</ele>
      </trkpt>
      <trkpt lat="44.31461" lon="6.85633">
        <time>2023-04-10T06:38:28+00:00</time>
        <ele>2035.0</ele>
      </trkpt>
      <trkpt lat="44.31461" lon="6.85633">
        <time>2023-04-10T06:38:29+00:00</time>
        <ele>2035.0</ele>
      </trkpt>
      <trkpt lat="44.31461" lon="6.85633">
        <time>2023-04-10T06:38:30+00:00</time>
        <ele>2035.0</ele>
      </trkpt>
      <trkpt lat="44.31461" lon="6.85633">
        <time>2023-04-10T06:38:31+00:00</time>
        <ele>2035.0</ele>
      </trkpt>
      <trkpt lat="44.31461" lon="6.85633">
        <time>2023-04-10T06:38:32+00:00</time>
        <ele>2035.0</ele>
      </trkpt>
      <trkpt lat="44.31461" lon="6.85633">
        <time>2023-04-10T06:38:33+00:00</time>
        <ele>2035.0</ele>
      </trkpt>
      <trkpt lat="44.31461" lon="6.85633">
        <time>2023-04-10T06:38:34+00:00</time>
        <ele>2035.0</ele>
      </trkpt>
      <trkpt lat="44.31461" lon="6.85633">
        <time>2023-04-10T06:38:35+00:00</time>
        <ele>2035.0</ele>
      </trkpt>
      <trkpt lat="44.31461" lon="6.85633">
        <time>2023-04-10T06:38:36+00:00</time>
        <ele>2035.0</ele>
      </trkpt>
      <trkpt lat="44.31461" lon="6.85633">
        <time>2023-04-10T06:38:37+00:00</time>
        <ele>2035.0</ele>
      </trkpt>
      <trkpt lat="44.31461" lon="6.85633">
        <time>2023-04-10T06:38:38+00:00</time>
        <ele>2035.0</ele>
      </trkpt>
      <trkpt lat="44.31461" lon="6.85633">
        <time>2023-04-10T06:38:39+00:00</time>
        <ele>2035.0</ele>
      </trkpt>
      <trkpt lat="44.31461" lon="6.85633">
        <time>2023-04-10T06:38:40+00:00</time>
        <ele>2035.0</ele>
      </trkpt>
      <trkpt lat="44.31461" lon="6.85633">
        <time>2023-04-10T06:38:41+00:00</time>
        <ele>2035.0</ele>
      </trkpt>
      <trkpt lat="44.31461" lon="6.85633">
        <time>2023-04-10T06:38:42+00:00</time>
        <ele>2035.0</ele>
      </trkpt>
      <trkpt lat="44.31461" lon="6.85633">
        <time>2023-04-10T06:38:43+00:00</time>
        <ele>2035.0</ele>
      </trkpt>
      <trkpt lat="44.31461" lon="6.85633">
        <time>2023-04-10T06:38:44+00:00</time>
        <ele>2035.0</ele>
      </trkpt>
      <trkpt lat="44.31461" lon="6.85633">
        <time>2023-04-10T06:38:45+00:00</time>
        <ele>2035.0</ele>
      </trkpt>
      <trkpt lat="44.31461" lon="6.85633">
        <time>2023-04-10T06:38:46+00:00</time>
        <ele>2035.0</ele>
      </trkpt>
      <trkpt lat="44.31461" lon="6.85633">
        <time>2023-04-10T06:38:47+00:00</time>
        <ele>2035.0</ele>
      </trkpt>
      <trkpt lat="44.31461" lon="6.85633">
        <time>2023-04-10T06:38:48+00:00</time>
        <ele>2035.0</ele>
      </trkpt>
      <trkpt lat="44.31461" lon="6.85633">
        <time>2023-04-10T06:38:49+00:00</time>
        <ele>2035.0</ele>
      </trkpt>
      <trkpt lat="44.31461" lon="6.85633">
        <time>2023-04-10T06:38:50+00:00</time>
        <ele>2035.0</ele>
      </trkpt>
      <trkpt lat="44.31461" lon="6.85633">
        <time>2023-04-10T06:38:51+00:00</time>
        <ele>2035.0</ele>
      </trkpt>
      <trkpt lat="44.31461" lon="6.85633">
        <time>2023-04-10T06:38:52+00:00</time>
        <ele>2035.0</ele>
      </trkpt>
      <trkpt lat="44.31461" lon="6.85633">
        <time>2023-04-10T06:38:53+00:00</time>
        <ele>2035.0</ele>
      </trkpt>
      <trkpt lat="44.31461" lon="6.85633">
        <time>2023-04-10T06:38:54+00:00</time>
        <ele>2035.0</ele>
      </trkpt>
      <trkpt lat="44.31461" lon="6.85633">
        <time>2023-04-10T06:38:55+00:00</time>
        <ele>2035.0</ele>
      </trkpt>
      <trkpt lat="44.31461" lon="6.85633">
        <time>2023-04-10T06:38:56+00:00</time>
        <ele>2035.0</ele>
      </trkpt>
      <trkpt lat="44.31461" lon="6.85633">
        <time>2023-04-10T06:38:57+00:00</time>
        <ele>2035.0</ele>
      </trkpt>
      <trkpt lat="44.31461" lon="6.85633">
        <time>2023-04-10T06:38:58+00:00</time>
        <ele>2035.0</ele>
      </trkpt>
      <trkpt lat="44.31461" lon="6.85633">
        <time>2023-04-10T06:38:59+00:00</time>
        <ele>2035.0</ele>
      </trkpt>
      <trkpt lat="44.31461" lon="6.85633">
        <time>2023-04-10T06:39:00+00:00</time>
        <ele>2035.0</ele>
      </trkpt>
      <trkpt lat="44.31461" lon="6.85633">
        <time>2023-04-10T06:39:01+00:00</time>
        <ele>2035.0</ele>
      </trkpt>
      <trkpt lat="44.31461" lon="6.85633">
        <time>2023-04-10T06:39:02+00:00</time>
        <ele>2035.0</ele>
      </trkpt>
      <trkpt lat="44.31461" lon="6.85633">
        <time>2023-04-10T06:39:03+00:00</time>
        <ele>2035.0</ele>
      </trkpt>
      <trkpt lat="44.31461" lon="6.85633">
        <time>2023-04-10T06:39:04+00:00</time>
        <ele>2035.0</ele>
      </trkpt>
      <trkpt lat="44.31461" lon="6.85633">
        <time>2023-04-10T06:39:05+00:00</time>
        <ele>2035.0</ele>
      </trkpt>
      <trkpt lat="44.31461" lon="6.85633">
        <time>2023-04-10T06:39:06+00:00</time>
        <ele>2035.0</ele>
      </trkpt>
      <trkpt lat="44.31461" lon="6.85633">
        <time>2023-04-10T06:39:07+00:00</time>
        <ele>2035.0</ele>
      </trkpt>
      <trkpt lat="44.31461" lon="6.85633">
        <time>2023-04-10T06:39:08+00:00</time>
        <ele>2035.0</ele>
      </trkpt>
      <trkpt lat="44.31461" lon="6.85633">
        <time>2023-04-10T06:39:09+00:00</time>
        <ele>2035.0</ele>
      </trkpt>
      <trkpt lat="44.31461" lon="6.85633">
        <time>2023-04-10T06:39:10+00:00</time>
        <ele>2035.0</ele>
      </trkpt>
      <trkpt lat="44.31461" lon="6.85633">
        <time>2023-04-10T06:39:11+00:00</time>
        <ele>2035.0</ele>
      </trkpt>
      <trkpt lat="44.31461" lon="6.85633">
        <time>2023-04-10T06:39:12+00:00</time>
        <ele>2035.0</ele>
      </trkpt>
      <trkpt lat="44.31461" lon="6.85633">
        <time>2023-04-10T06:39:13+00:00</time>
        <ele>2035.0</ele>
      </trkpt>
      <trkpt lat="44.31461" lon="6.85633">
        <time>2023-04-10T06:39:14+00:00</time>
        <ele>2035.0</ele>
      </trkpt>
      <trkpt lat="44.31461" lon="6.85633">
        <time>2023-04-10T06:39:15+00:00</time>
        <ele>2035.0</ele>
      </trkpt>
      <trkpt lat="44.31461" lon="6.85633">
        <time>2023-04-10T06:39:16+00:00</time>
        <ele>2035.0</ele>
      </trkpt>
      <trkpt lat="44.31461" lon="6.85633">
        <time>2023-04-10T06:39:17+00:00</time>
        <ele>2035.0</ele>
      </trkpt>
      <trkpt lat="44.31461" lon="6.85633">
        <time>2023-04-10T06:39:18+00:00</time>
        <ele>2035.0</ele>
      </trkpt>
      <trkpt lat="44.31461" lon="6.85633">
        <time>2023-04-10T06:39:19+00:00</time>
        <ele>2035.0</ele>
      </trkpt>
      <trkpt lat="44.31461" lon="6.85633">
        <time>2023-04-10T06:39:20+00:00</time>
        <ele>2035.0</ele>
      </trkpt>
      <trkpt lat="44.31461" lon="6.85633">
        <time>2023-04-10T06:39:21+00:00</time>
        <ele>2035.0</ele>
      </trkpt>
      <trkpt lat="44.31461" lon="6.85633">
        <time>2023-04-10T06:39:22+00:00</time>
        <ele>2035.0</ele>
      </trkpt>
      <trkpt lat="44.31461" lon="6.85633">
        <time>2023-04-10T06:39:23+00:00</time>
        <ele>2035.0</ele>
      </trkpt>
      <trkpt lat="44.31461" lon="6.85633">
        <time>2023-04-10T06:39:24+00:00</time>
        <ele>2035.0</ele>
      </trkpt>
      <trkpt lat="44.31461" lon="6.85633">
        <time>2023-04-10T06:39:25+00:00</time>
        <ele>2035.0</ele>
      </trkpt>
      <trkpt lat="44.31461" lon="6.85633">
        <time>2023-04-10T06:39:26+00:00</time>
        <ele>2035.0</ele>
      </trkpt>
      <trkpt lat="44.31461" lon="6.85633">
        <time>2023-04-10T06:39:27+00:00</time>
        <ele>2035.0</ele>
      </trkpt>
      <trkpt lat="44.31461" lon="6.85633">
        <time>2023-04-10T06:39:28+00:00</time>
        <ele>2035.0</ele>
      </trkpt>
      <trkpt lat="44.31461" lon="6.85633">
        <time>2023-04-10T06:39:29+00:00</time>
        <ele>2035.0</ele>
      </trkpt>
      <trkpt lat="44.31461" lon="6.85633">
        <time>2023-04-10T06:39:30+00:00</time>
        <ele>2035.0</ele>
      </trkpt>
      <trkpt lat="44.31461" lon="6.85633">
        <time>2023-04-10T06:39:31+00:00</time>
        <ele>2035.0</ele>
      </trkpt>
      <trkpt lat="44.31461" lon="6.85633">
        <time>2023-04-10T06:39:32+00:00</time>
        <ele>2035.0</ele>
      </trkpt>
      <trkpt lat="44.31461" lon="6.85633">
        <time>2023-04-10T06:39:33+00:00</time>
        <ele>2035.0</ele>
      </trkpt>
      <trkpt lat="44.31461" lon="6.85633">
        <time>2023-04-10T06:39:34+00:00</time>
        <ele>2035.0</ele>
      </trkpt>
      <trkpt lat="44.31461" lon="6.85633">
        <time>2023-04-10T06:39:35+00:00</time>
        <ele>2035.0</ele>
      </trkpt>
      <trkpt lat="44.31461" lon="6.85633">
        <time>2023-04-10T06:39:36+00:00</time>
        <ele>2035.0</ele>
      </trkpt>
      <trkpt lat="44.31461" lon="6.85633">
        <time>2023-04-10T06:39:37+00:00</time>
        <ele>2035.0</ele>
      </trkpt>
      <trkpt lat="44.31461" lon="6.85633">
        <time>2023-04-10T06:39:38+00:00</time>
        <ele>2035.0</ele>
      </trkpt>
      <trkpt lat="44.31461" lon="6.85633">
        <time>2023-04-10T06:39:39+00:00</time>
        <ele>2035.0</ele>
      </trkpt>
      <trkpt lat="44.31461" lon="6.85633">
        <time>2023-04-10T06:39:40+00:00</time>
        <ele>2035.0</ele>
      </trkpt>
      <trkpt lat="44.31461" lon="6.85633">
        <time>2023-04-10T06:39:41+00:00</time>
        <ele>2035.0</ele>
      </trkpt>
      <trkpt lat="44.31461" lon="6.85633">
        <time>2023-04-10T06:39:42+00:00</time>
        <ele>2035.0</ele>
      </trkpt>
      <trkpt lat="44.31461" lon="6.85633">
        <time>2023-04-10T06:39:43+00:00</time>
        <ele>2035.0</ele>
      </trkpt>
      <trkpt lat="44.31461" lon="6.85633">
        <time>2023-04-10T06:39:44+00:00</time>
        <ele>2035.0</ele>
      </trkpt>
      <trkpt lat="44.31461" lon="6.85633">
        <time>2023-04-10T06:39:45+00:00</time>
        <ele>2035.0</ele>
      </trkpt>
      <trkpt lat="44.31461" lon="6.85633">
        <time>2023-04-10T06:39:46+00:00</time>
        <ele>2035.0</ele>
      </trkpt>
      <trkpt lat="44.31461" lon="6.85633">
        <time>2023-04-10T06:39:47+00:00</time>
        <ele>2035.0</ele>
      </trkpt>
      <trkpt lat="44.31461" lon="6.85633">
        <time>2023-04-10T06:39:48+00:00</time>
        <ele>2035.0</ele>
      </trkpt>
      <trkpt lat="44.31461" lon="6.85633">
        <time>2023-04-10T06:39:49+00:00</time>
        <ele>2035.0</ele>
      </trkpt>
      <trkpt lat="44.31461" lon="6.85633">
        <time>2023-04-10T06:39:50+00:00</time>
        <ele>2035.0</ele>
      </trkpt>
      <trkpt lat="44.31461" lon="6.85633">
        <time>2023-04-10T06:39:51+00:00</time>
        <ele>2035.0</ele>
      </trkpt>
      <trkpt lat="44.31461" lon="6.85633">
        <time>2023-04-10T06:39:52+00:00</time>
        <ele>2035.0</ele>
      </trkpt>
      <trkpt lat="44.31461" lon="6.85633">
        <time>2023-04-10T06:39:53+00:00</time>
        <ele>2035.0</ele>
      </trkpt>
      <trkpt lat="44.31461" lon="6.85633">
        <time>2023-04-10T06:39:54+00:00</time>
        <ele>2035.0</ele>
      </trkpt>
      <trkpt lat="44.31461" lon="6.85633">
        <time>2023-04-10T06:39:55+00:00</time>
        <ele>2035.0</ele>
      </trkpt>
      <trkpt lat="44.31461" lon="6.85633">
        <time>2023-04-10T06:39:56+00:00</time>
        <ele>2035.0</ele>
      </trkpt>
      <trkpt lat="44.31461" lon="6.85633">
        <time>2023-04-10T06:39:57+00:00</time>
        <ele>2035.0</ele>
      </trkpt>
      <trkpt lat="44.31461" lon="6.85633">
        <time>2023-04-10T06:39:58+00:00</time>
        <ele>2035.0</ele>
      </trkpt>
      <trkpt lat="44.31461" lon="6.85633">
        <time>2023-04-10T06:39:59+00:00</time>
        <ele>2035.0</ele>
      </trkpt>
      <trkpt lat="44.31461" lon="6.85633">
        <time>2023-04-10T06:40:03+00:00</time>
        <ele>2035.0</ele>
      </trkpt>
      <trkpt lat="44.31461" lon="6.85633">
        <time>2023-04-10T06:40:04+00:00</time>
        <ele>2035.0</ele>
      </trkpt>
      <trkpt lat="44.31461" lon="6.85633">
        <time>2023-04-10T06:40:05+00:00</time>
        <ele>2035.0</ele>
      </trkpt>
      <trkpt lat="44.31461" lon="6.85633">
        <time>2023-04-10T06:40:06+00:00</time>
        <ele>2035.0</ele>
      </trkpt>
      <trkpt lat="44.31461" lon="6.85633">
        <time>2023-04-10T06:40:07+00:00</time>
        <ele>2035.0</ele>
      </trkpt>
      <trkpt lat="44.31461" lon="6.85633">
        <time>2023-04-10T06:40:08+00:00</time>
        <ele>2035.0</ele>
      </trkpt>
      <trkpt lat="44.31461" lon="6.85633">
        <time>2023-04-10T06:40:09+00:00</time>
        <ele>2035.0</ele>
      </trkpt>
      <trkpt lat="44.31461" lon="6.85633">
        <time>2023-04-10T06:40:10+00:00</time>
        <ele>2035.0</ele>
      </trkpt>
      <trkpt lat="44.31461" lon="6.85633">
        <time>2023-04-10T06:40:11+00:00</time>
        <ele>2035.0</ele>
      </trkpt>
      <trkpt lat="44.3146" lon="6.8563">
        <time>2023-04-10T06:40:12+00:00</time>
        <ele>2036.0</ele>
      </trkpt>
      <trkpt lat="44.31459" lon="6.85629">
        <time>2023-04-10T06:40:13+00:00</time>
        <ele>2036.0</ele>
      </trkpt>
      <trkpt lat="44.31459" lon="6.85629">
        <time>2023-04-10T06:40:14+00:00</time>
        <ele>2036.0</ele>
      </trkpt>
      <trkpt lat="44.31456" lon="6.85625">
        <time>2023-04-10T06:40:15+00:00</time>
        <ele>2037.0</ele>
      </trkpt>
      <trkpt lat="44.31455" lon="6.85623">
        <time>2023-04-10T06:40:16+00:00</time>
        <ele>2038.0</ele>
      </trkpt>
      <trkpt lat="44.31453" lon="6.85622">
        <time>2023-04-10T06:40:17+00:00</time>
        <ele>2038.0</ele>
      </trkpt>
      <trkpt lat="44.31453" lon="6.85622">
        <time>2023-04-10T06:40:18+00:00</time>
        <ele>2038.0</ele>
      </trkpt>
      <trkpt lat="44.3145" lon="6.8562">
        <time>2023-04-10T06:40:19+00:00</time>
        <ele>2038.0</ele>
      </trkpt>
      <trkpt lat="44.3145" lon="6.8562">
        <time>2023-04-10T06:40:20+00:00</time>
        <ele>2038.0</ele>
      </trkpt>
      <trkpt lat="44.31448" lon="6.85619">
        <time>2023-04-10T06:40:21+00:00</time>
        <ele>2038.0</ele>
      </trkpt>
      <trkpt lat="44.31448" lon="6.85619">
        <time>2023-04-10T06:40:22+00:00</time>
        <ele>2038.0</ele>
      </trkpt>
      <trkpt lat="44.31446" lon="6.85619">
        <time>2023-04-10T06:40:23+00:00</time>
        <ele>2037.0</ele>
      </trkpt>
      <trkpt lat="44.31446" lon="6.85619">
        <time>2023-04-10T06:40:24+00:00</time>
        <ele>2037.0</ele>
      </trkpt>
      <trkpt lat="44.31446" lon="6.85619">
        <time>2023-04-10T06:40:25+00:00</time>
        <ele>2037.0</ele>
      </trkpt>
      <trkpt lat="44.31444" lon="6.85617">
        <time>2023-04-10T06:40:26+00:00</time>
        <ele>2037.0</ele>
      </trkpt>
      <trkpt lat="44.31444" lon="6.85617">
        <time>2023-04-10T06:40:27+00:00</time>
        <ele>2037.0</ele>
      </trkpt>
      <trkpt lat="44.31442" lon="6.85616">
        <time>2023-04-10T06:40:28+00:00</time>
        <ele>2037.0</ele>
      </trkpt>
      <trkpt lat="44.31442" lon="6.85616">
        <time>2023-04-10T06:40:29+00:00</time>
        <ele>2037.0</ele>
      </trkpt>
      <trkpt lat="44.31442" lon="6.85616">
        <time>2023-04-10T06:40:30+00:00</time>
        <ele>2037.0</ele>
      </trkpt>
      <trkpt lat="44.31441" lon="6.85614">
        <time>2023-04-10T06:40:31+00:00</time>
        <ele>2038.0</ele>
      </trkpt>
      <trkpt lat="44.31441" lon="6.85614">
        <time>2023-04-10T06:40:32+00:00</time>
        <ele>2038.0</ele>
      </trkpt>
      <trkpt lat="44.31441" lon="6.85614">
        <time>2023-04-10T06:40:33+00:00</time>
        <ele>2038.0</ele>
      </trkpt>
      <trkpt lat="44.3144" lon="6.85611">
        <time>2023-04-10T06:40:34+00:00</time>
        <ele>2038.0</ele>
      </trkpt>
      <trkpt lat="44.3144" lon="6.85611">
        <time>2023-04-10T06:40:35+00:00</time>
        <ele>2038.0</ele>
      </trkpt>
      <trkpt lat="44.31439" lon="6.85609">
        <time>2023-04-10T06:40:36+00:00</time>
        <ele>2039.0</ele>
      </trkpt>
      <trkpt lat="44.31439" lon="6.85609">
        <time>2023-04-10T06:40:37+00:00</time>
        <ele>2039.0</ele>
      </trkpt>
      <trkpt lat="44.31439" lon="6.85609">
        <time>2023-04-10T06:40:38+00:00</time>
        <ele>2039.0</ele>
      </trkpt>
      <trkpt lat="44.31437" lon="6.85606">
        <time>2023-04-10T06:40:39+00:00</time>
        <ele>2039.0</ele>
      </trkpt>
      <trkpt lat="44.31437" lon="6.85606">
        <time>2023-04-10T06:40:40+00:00</time>
        <ele>2039.0</ele>
      </trkpt>
      <trkpt lat="44.31435" lon="6.85605">
        <time>2023-04-10T06:40:41+00:00</time>
        <ele>2039.0</ele>
      </trkpt>
      <trkpt lat="44.31435" lon="6.85604">
        <time>2023-04-10T06:40:42+00:00</time>
        <ele>2039.0</ele>
      </trkpt>
      <trkpt lat="44.31434" lon="6.85603">
        <time>2023-04-10T06:40:43+00:00</time>
        <ele>2039.0</ele>
      </trkpt>
      <trkpt lat="44.31434" lon="6.85602">
        <time>2023-04-10T06:40:44+00:00</time>
        <ele>2040.0</ele>
      </trkpt>
      <trkpt lat="44.31433" lon="6.85601">
        <time>2023-04-10T06:40:45+00:00</time>
        <ele>2040.0</ele>
      </trkpt>
      <trkpt lat="44.31433" lon="6.856">
        <time>2023-04-10T06:40:47+00:00</time>
        <ele>2040.0</ele>
      </trkpt>
      <trkpt lat="44.31433" lon="6.856">
        <time>2023-04-10T06:40:48+00:00</time>
        <ele>2040.0</ele>
      </trkpt>
      <trkpt lat="44.31433" lon="6.856">
        <time>2023-04-10T06:40:49+00:00</time>
        <ele>2040.0</ele>
      </trkpt>
      <trkpt lat="44.31433" lon="6.856">
        <time>2023-04-10T06:40:50+00:00</time>
        <ele>2040.0</ele>
      </trkpt>
      <trkpt lat="44.31433" lon="6.856">
        <time>2023-04-10T06:40:51+00:00</time>
        <ele>2040.0</ele>
      </trkpt>
      <trkpt lat="44.31433" lon="6.856">
        <time>2023-04-10T06:40:52+00:00</time>
        <ele>2040.0</ele>
      </trkpt>
      <trkpt lat="44.31433" lon="6.856">
        <time>2023-04-10T06:40:53+00:00</time>
        <ele>2040.0</ele>
      </trkpt>
      <trkpt lat="44.3143" lon="6.85595">
        <time>2023-04-10T06:40:54+00:00</time>
        <ele>2041.0</ele>
      </trkpt>
      <trkpt lat="44.3143" lon="6.85595">
        <time>2023-04-10T06:40:55+00:00</time>
        <ele>2041.0</ele>
      </trkpt>
      <trkpt lat="44.31428" lon="6.85595">
        <time>2023-04-10T06:40:56+00:00</time>
        <ele>2041.0</ele>
      </trkpt>
      <trkpt lat="44.31428" lon="6.85595">
        <time>2023-04-10T06:40:57+00:00</time>
        <ele>2041.0</ele>
      </trkpt>
      <trkpt lat="44.31428" lon="6.85595">
        <time>2023-04-10T06:40:58+00:00</time>
        <ele>2041.0</ele>
      </trkpt>
      <trkpt lat="44.31426" lon="6.85594">
        <time>2023-04-10T06:40:59+00:00</time>
        <ele>2041.0</ele>
      </trkpt>
      <trkpt lat="44.31426" lon="6.85594">
        <time>2023-04-10T06:41:00+00:00</time>
        <ele>2041.0</ele>
      </trkpt>
      <trkpt lat="44.31426" lon="6.85594">
        <time>2023-04-10T06:41:01+00:00</time>
        <ele>2041.0</ele>
      </trkpt>
      <trkpt lat="44.31426" lon="6.85594">
        <time>2023-04-10T06:41:02+00:00</time>
        <ele>2041.0</ele>
      </trkpt>
      <trkpt lat="44.31425" lon="6.85591">
        <time>2023-04-10T06:41:03+00:00</time>
        <ele>2042.0</ele>
      </trkpt>
      <trkpt lat="44.31425" lon="6.85591">
        <time>2023-04-10T06:41:04+00:00</time>
        <ele>2042.0</ele>
      </trkpt>
      <trkpt lat="44.31425" lon="6.85591">
        <time>2023-04-10T06:41:05+00:00</time>
        <ele>2042.0</ele>
      </trkpt>
      <trkpt lat="44.31423" lon="6.85589">
        <time>2023-04-10T06:41:06+00:00</time>
        <ele>2043.0</ele>
      </trkpt>
      <trkpt lat="44.31423" lon="6.85589">
        <time>2023-04-10T06:41:07+00:00</time>
        <ele>2043.0</ele>
      </trkpt>
      <trkpt lat="44.31423" lon="6.85589">
        <time>2023-04-10T06:41:08+00:00</time>
        <ele>2043.0</ele>
      </trkpt>
      <trkpt lat="44.31423" lon="6.85589">
        <time>2023-04-10T06:41:09+00:00</time>
        <ele>2043.0</ele>
      </trkpt>
      <trkpt lat="44.31422" lon="6.85587">
        <time>2023-04-10T06:41:10+00:00</time>
        <ele>2043.0</ele>
      </trkpt>
      <trkpt lat="44.31422" lon="6.85587">
        <time>2023-04-10T06:41:11+00:00</time>
        <ele>2043.0</ele>
      </trkpt>
      <trkpt lat="44.31422" lon="6.85587">
        <time>2023-04-10T06:41:12+00:00</time>
        <ele>2043.0</ele>
      </trkpt>
      <trkpt lat="44.31422" lon="6.85587">
        <time>2023-04-10T06:41:13+00:00</time>
        <ele>2043.0</ele>
      </trkpt>
      <trkpt lat="44.31422" lon="6.85587">
        <time>2023-04-10T06:41:14+00:00</time>
        <ele>2043.0</ele>
      </trkpt>
      <trkpt lat="44.3142" lon="6.85585">
        <time>2023-04-10T06:41:15+00:00</time>
        <ele>2044.0</ele>
      </trkpt>
      <trkpt lat="44.3142" lon="6.85585">
        <time>2023-04-10T06:41:16+00:00</time>
        <ele>2044.0</ele>
      </trkpt>
      <trkpt lat="44.31418" lon="6.85584">
        <time>2023-04-10T06:41:17+00:00</time>
        <ele>2044.0</ele>
      </trkpt>
      <trkpt lat="44.31418" lon="6.85584">
        <time>2023-04-10T06:41:18+00:00</time>
        <ele>2044.0</ele>
      </trkpt>
      <trkpt lat="44.31418" lon="6.85584">
        <time>2023-04-10T06:41:19+00:00</time>
        <ele>2044.0</ele>
      </trkpt>
      <trkpt lat="44.31416" lon="6.85582">
        <time>2023-04-10T06:41:20+00:00</time>
        <ele>2044.0</ele>
      </trkpt>
      <trkpt lat="44.31416" lon="6.85582">
        <time>2023-04-10T06:41:21+00:00</time>
        <ele>2044.0</ele>
      </trkpt>
      <trkpt lat="44.31416" lon="6.85582">
        <time>2023-04-10T06:41:22+00:00</time>
        <ele>2044.0</ele>
      </trkpt>
      <trkpt lat="44.31415" lon="6.8558">
        <time>2023-04-10T06:41:23+00:00</time>
        <ele>2045.0</ele>
      </trkpt>
      <trkpt lat="44.31415" lon="6.8558">
        <time>2023-04-10T06:41:24+00:00</time>
        <ele>2045.0</ele>
      </trkpt>
      <trkpt lat="44.31415" lon="6.8558">
        <time>2023-04-10T06:41:25+00:00</time>
        <ele>2045.0</ele>
      </trkpt>
      <trkpt lat="44.31415" lon="6.8558">
        <time>2023-04-10T06:41:26+00:00</time>
        <ele>2045.0</ele>
      </trkpt>
      <trkpt lat="44.31415" lon="6.8558">
        <time>2023-04-10T06:41:27+00:00</time>
        <ele>2045.0</ele>
      </trkpt>
      <trkpt lat="44.31413" lon="6.85578">
        <time>2023-04-10T06:41:28+00:00</time>
        <ele>2045.0</ele>
      </trkpt>
      <trkpt lat="44.31413" lon="6.85578">
        <time>2023-04-10T06:41:29+00:00</time>
        <ele>2045.0</ele>
      </trkpt>
      <trkpt lat="44.31411" lon="6.85578">
        <time>2023-04-10T06:41:30+00:00</time>
        <ele>2045.0</ele>
      </trkpt>
      <trkpt lat="44.31411" lon="6.85578">
        <time>2023-04-10T06:41:31+00:00</time>
        <ele>2045.0</ele>
      </trkpt>
      <trkpt lat="44.31409" lon="6.85577">
        <time>2023-04-10T06:41:32+00:00</time>
        <ele>2045.0</ele>
      </trkpt>
      <trkpt lat="44.31409" lon="6.85577">
        <time>2023-04-10T06:41:33+00:00</time>
        <ele>2045.0</ele>
      </trkpt>
      <trkpt lat="44.31407" lon="6.85577">
        <time>2023-04-10T06:41:34+00:00</time>
        <ele>2045.0</ele>
      </trkpt>
      <trkpt lat="44.31407" lon="6.85577">
        <time>2023-04-10T06:41:35+00:00</time>
        <ele>2045.0</ele>
      </trkpt>
      <trkpt lat="44.31407" lon="6.85577">
        <time>2023-04-10T06:41:36+00:00</time>
        <ele>2045.0</ele>
      </trkpt>
      <trkpt lat="44.31405" lon="6.85575">
        <time>2023-04-10T06:41:37+00:00</time>
        <ele>2046.0</ele>
      </trkpt>
      <trkpt lat="44.31405" lon="6.85575">
        <time>2023-04-10T06:41:38+00:00</time>
        <ele>2046.0</ele>
      </trkpt>
      <trkpt lat="44.31405" lon="6.85575">
        <time>2023-04-10T06:41:39+00:00</time>
        <ele>2046.0</ele>
      </trkpt>
      <trkpt lat="44.31403" lon="6.85573">
        <time>2023-04-10T06:41:40+00:00</time>
        <ele>2046.0</ele>
      </trkpt>
      <trkpt lat="44.31403" lon="6.85573">
        <time>2023-04-10T06:41:41+00:00</time>
        <ele>2046.0</ele>
      </trkpt>
      <trkpt lat="44.31403" lon="6.85573">
        <time>2023-04-10T06:41:42+00:00</time>
        <ele>2046.0</ele>
      </trkpt>
      <trkpt lat="44.31401" lon="6.85571">
        <time>2023-04-10T06:41:43+00:00</time>
        <ele>2047.0</ele>
      </trkpt>
      <trkpt lat="44.31401" lon="6.85571">
        <time>2023-04-10T06:41:44+00:00</time>
        <ele>2047.0</ele>
      </trkpt>
      <trkpt lat="44.31401" lon="6.85571">
        <time>2023-04-10T06:41:45+00:00</time>
        <ele>2047.0</ele>
      </trkpt>
      <trkpt lat="44.31398" lon="6.85571">
        <time>2023-04-10T06:41:46+00:00</time>
        <ele>2047.0</ele>
      </trkpt>
      <trkpt lat="44.31398" lon="6.85571">
        <time>2023-04-10T06:41:47+00:00</time>
        <ele>2047.0</ele>
      </trkpt>
      <trkpt lat="44.31398" lon="6.85571">
        <time>2023-04-10T06:41:48+00:00</time>
        <ele>2047.0</ele>
      </trkpt>
      <trkpt lat="44.31397" lon="6.85569">
        <time>2023-04-10T06:41:49+00:00</time>
        <ele>2048.0</ele>
      </trkpt>
      <trkpt lat="44.31397" lon="6.85569">
        <time>2023-04-10T06:41:50+00:00</time>
        <ele>2048.0</ele>
      </trkpt>
      <trkpt lat="44.31397" lon="6.85569">
        <time>2023-04-10T06:41:51+00:00</time>
        <ele>2048.0</ele>
      </trkpt>
      <trkpt lat="44.31394" lon="6.85568">
        <time>2023-04-10T06:41:52+00:00</time>
        <ele>2048.0</ele>
      </trkpt>
      <trkpt lat="44.31394" lon="6.85568">
        <time>2023-04-10T06:41:53+00:00</time>
        <ele>2048.0</ele>
      </trkpt>
      <trkpt lat="44.31394" lon="6.85568">
        <time>2023-04-10T06:41:54+00:00</time>
        <ele>2048.0</ele>
      </trkpt>
      <trkpt lat="44.31392" lon="6.85568">
        <time>2023-04-10T06:41:55+00:00</time>
        <ele>2047.0</ele>
      </trkpt>
      <trkpt lat="44.31392" lon="6.85568">
        <time>2023-04-10T06:41:56+00:00</time>
        <ele>2047.0</ele>
      </trkpt>
      <trkpt lat="44.31392" lon="6.85568">
        <time>2023-04-10T06:41:57+00:00</time>
        <ele>2047.0</ele>
      </trkpt>
      <trkpt lat="44.3139" lon="6.85567">
        <time>2023-04-10T06:41:58+00:00</time>
        <ele>2048.0</ele>
      </trkpt>
      <trkpt lat="44.3139" lon="6.85567">
        <time>2023-04-10T06:41:59+00:00</time>
        <ele>2048.0</ele>
      </trkpt>
      <trkpt lat="44.3139" lon="6.85567">
        <time>2023-04-10T06:42:00+00:00</time>
        <ele>2048.0</ele>
      </trkpt>
      <trkpt lat="44.3139" lon="6.85567">
        <time>2023-04-10T06:42:01+00:00</time>
        <ele>2048.0</ele>
      </trkpt>
      <trkpt lat="44.31389" lon="6.85565">
        <time>2023-04-10T06:42:02+00:00</time>
        <ele>2048.0</ele>
      </trkpt>
      <trkpt lat="44.31389" lon="6.85565">
        <time>2023-04-10T06:42:03+00:00</time>
        <ele>2048.0</ele>
      </trkpt>
      <trkpt lat="44.31389" lon="6.85565">
        <time>2023-04-10T06:42:04+00:00</time>
        <ele>2048.0</ele>
      </trkpt>
      <trkpt lat="44.31387" lon="6.85563">
        <time>2023-04-10T06:42:05+00:00</time>
        <ele>2049.0</ele>
      </trkpt>
      <trkpt lat="44.31387" lon="6.85563">
        <time>2023-04-10T06:42:06+00:00</time>
        <ele>2049.0</ele>
      </trkpt>
      <trkpt lat="44.31387" lon="6.85563">
        <time>2023-04-10T06:42:07+00:00</time>
        <ele>2049.0</ele>
      </trkpt>
      <trkpt lat="44.31385" lon="6.85562">
        <time>2023-04-10T06:42:08+00:00</time>
        <ele>2049.0</ele>
      </trkpt>
      <trkpt lat="44.31385" lon="6.85562">
        <time>2023-04-10T06:42:09+00:00</time>
        <ele>2049.0</ele>
      </trkpt>
      <trkpt lat="44.31385" lon="6.85562">
        <time>2023-04-10T06:42:10+00:00</time>
        <ele>2049.0</ele>
      </trkpt>
      <trkpt lat="44.31384" lon="6.85559">
        <time>2023-04-10T06:42:11+00:00</time>
        <ele>2051.0</ele>
      </trkpt>
      <trkpt lat="44.31384" lon="6.85559">
        <time>2023-04-10T06:42:12+00:00</time>
        <ele>2051.0</ele>
      </trkpt>
      <trkpt lat="44.31384" lon="6.85559">
        <time>2023-04-10T06:42:13+00:00</time>
        <ele>2051.0</ele>
      </trkpt>
      <trkpt lat="44.31384" lon="6.85559">
        <time>2023-04-10T06:42:14+00:00</time>
        <ele>2051.0</ele>
      </trkpt>
      <trkpt lat="44.31382" lon="6.85558">
        <time>2023-04-10T06:42:15+00:00</time>
        <ele>2051.0</ele>
      </trkpt>
      <trkpt lat="44.31382" lon="6.85558">
        <time>2023-04-10T06:42:16+00:00</time>
        <ele>2051.0</ele>
      </trkpt>
      <trkpt lat="44.31382" lon="6.85558">
        <time>2023-04-10T06:42:17+00:00</time>
        <ele>2051.0</ele>
      </trkpt>
      <trkpt lat="44.31382" lon="6.85558">
        <time>2023-04-10T06:42:18+00:00</time>
        <ele>2051.0</ele>
      </trkpt>
      <trkpt lat="44.3138" lon="6.85557">
        <time>2023-04-10T06:42:19+00:00</time>
        <ele>2051.0</ele>
      </trkpt>
      <trkpt lat="44.3138" lon="6.85557">
        <time>2023-04-10T06:42:20+00:00</time>
        <ele>2051.0</ele>
      </trkpt>
      <trkpt lat="44.3138" lon="6.85557">
        <time>2023-04-10T06:42:21+00:00</time>
        <ele>2051.0</ele>
      </trkpt>
      <trkpt lat="44.3138" lon="6.85557">
        <time>2023-04-10T06:42:22+00:00</time>
        <ele>2051.0</ele>
      </trkpt>
      <trkpt lat="44.3138" lon="6.85557">
        <time>2023-04-10T06:42:23+00:00</time>
        <ele>2051.0</ele>
      </trkpt>
      <trkpt lat="44.31378" lon="6.85556">
        <time>2023-04-10T06:42:24+00:00</time>
        <ele>2051.0</ele>
      </trkpt>
      <trkpt lat="44.31378" lon="6.85556">
        <time>2023-04-10T06:42:25+00:00</time>
        <ele>2051.0</ele>
      </trkpt>
      <trkpt lat="44.31378" lon="6.85556">
        <time>2023-04-10T06:42:26+00:00</time>
        <ele>2051.0</ele>
      </trkpt>
      <trkpt lat="44.31376" lon="6.85555">
        <time>2023-04-10T06:42:27+00:00</time>
        <ele>2051.0</ele>
      </trkpt>
      <trkpt lat="44.31376" lon="6.85555">
        <time>2023-04-10T06:42:28+00:00</time>
        <ele>2051.0</ele>
      </trkpt>
      <trkpt lat="44.31376" lon="6.85555">
        <time>2023-04-10T06:42:29+00:00</time>
        <ele>2051.0</ele>
      </trkpt>
      <trkpt lat="44.31376" lon="6.85555">
        <time>2023-04-10T06:42:30+00:00</time>
        <ele>2051.0</ele>
      </trkpt>
      <trkpt lat="44.31375" lon="6.85553">
        <time>2023-04-10T06:42:31+00:00</time>
        <ele>2052.0</ele>
      </trkpt>
      <trkpt lat="44.31375" lon="6.85553">
        <time>2023-04-10T06:42:32+00:00</time>
        <ele>2052.0</ele>
      </trkpt>
      <trkpt lat="44.31375" lon="6.85553">
        <time>2023-04-10T06:42:33+00:00</time>
        <ele>2052.0</ele>
      </trkpt>
      <trkpt lat="44.31375" lon="6.85553">
        <time>2023-04-10T06:42:34+00:00</time>
        <ele>2052.0</ele>
      </trkpt>
      <trkpt lat="44.31373" lon="6.85554">
        <time>2023-04-10T06:42:35+00:00</time>
        <ele>2052.0</ele>
      </trkpt>
      <trkpt lat="44.31373" lon="6.85554">
        <time>2023-04-10T06:42:36+00:00</time>
        <ele>2052.0</ele>
      </trkpt>
      <trkpt lat="44.31373" lon="6.85554">
        <time>2023-04-10T06:42:37+00:00</time>
        <ele>2052.0</ele>
      </trkpt>
      <trkpt lat="44.31373" lon="6.85554">
        <time>2023-04-10T06:42:38+00:00</time>
        <ele>2052.0</ele>
      </trkpt>
      <trkpt lat="44.31373" lon="6.85554">
        <time>2023-04-10T06:42:39+00:00</time>
        <ele>2052.0</ele>
      </trkpt>
      <trkpt lat="44.31371" lon="6.85554">
        <time>2023-04-10T06:42:40+00:00</time>
        <ele>2051.0</ele>
      </trkpt>
      <trkpt lat="44.31371" lon="6.85554">
        <time>2023-04-10T06:42:41+00:00</time>
        <ele>2051.0</ele>
      </trkpt>
      <trkpt lat="44.31371" lon="6.85554">
        <time>2023-04-10T06:42:42+00:00</time>
        <ele>2051.0</ele>
      </trkpt>
      <trkpt lat="44.31371" lon="6.85554">
        <time>2023-04-10T06:42:43+00:00</time>
        <ele>2051.0</ele>
      </trkpt>
      <trkpt lat="44.31369" lon="6.85555">
        <time>2023-04-10T06:42:44+00:00</time>
        <ele>2051.0</ele>
      </trkpt>
      <trkpt lat="44.31369" lon="6.85555">
        <time>2023-04-10T06:42:45+00:00</time>
        <ele>2051.0</ele>
      </trkpt>
      <trkpt lat="44.31369" lon="6.85555">
        <time>2023-04-10T06:42:46+00:00</time>
        <ele>2051.0</ele>
      </trkpt>
      <trkpt lat="44.31369" lon="6.85555">
        <time>2023-04-10T06:42:47+00:00</time>
        <ele>2051.0</ele>
      </trkpt>
      <trkpt lat="44.31369" lon="6.85555">
        <time>2023-04-10T06:42:48+00:00</time>
        <ele>2051.0</ele>
      </trkpt>
      <trkpt lat="44.31369" lon="6.85555">
        <time>2023-04-10T06:42:49+00:00</time>
        <ele>2051.0</ele>
      </trkpt>
      <trkpt lat="44.31369" lon="6.85555">
        <time>2023-04-10T06:42:50+00:00</time>
        <ele>2051.0</ele>
      </trkpt>
      <trkpt lat="44.31367" lon="6.85555">
        <time>2023-04-10T06:42:51+00:00</time>
        <ele>2050.0</ele>
      </trkpt>
      <trkpt lat="44.31367" lon="6.85555">
        <time>2023-04-10T06:42:52+00:00</time>
        <ele>2050.0</ele>
      </trkpt>
      <trkpt lat="44.31367" lon="6.85555">
        <time>2023-04-10T06:42:53+00:00</time>
        <ele>2050.0</ele>
      </trkpt>
      <trkpt lat="44.31367" lon="6.85555">
        <time>2023-04-10T06:42:54+00:00</time>
        <ele>2050.0</ele>
      </trkpt>
      <trkpt lat="44.31367" lon="6.85555">
        <time>2023-04-10T06:42:55+00:00</time>
        <ele>2050.0</ele>
      </trkpt>
      <trkpt lat="44.31365" lon="6.85552">
        <time>2023-04-10T06:42:56+00:00</time>
        <ele>2051.0</ele>
      </trkpt>
      <trkpt lat="44.31365" lon="6.85552">
        <time>2023-04-10T06:42:57+00:00</time>
        <ele>2051.0</ele>
      </trkpt>
      <trkpt lat="44.31365" lon="6.85552">
        <time>2023-04-10T06:42:58+00:00</time>
        <ele>2051.0</ele>
      </trkpt>
      <trkpt lat="44.31365" lon="6.85549">
        <time>2023-04-10T06:42:59+00:00</time>
        <ele>2052.0</ele>
      </trkpt>
      <trkpt lat="44.31365" lon="6.85549">
        <time>2023-04-10T06:43:00+00:00</time>
        <ele>2052.0</ele>
      </trkpt>
      <trkpt lat="44.31365" lon="6.85549">
        <time>2023-04-10T06:43:01+00:00</time>
        <ele>2052.0</ele>
      </trkpt>
      <trkpt lat="44.31364" lon="6.85547">
        <time>2023-04-10T06:43:02+00:00</time>
        <ele>2053.0</ele>
      </trkpt>
      <trkpt lat="44.31364" lon="6.85547">
        <time>2023-04-10T06:43:03+00:00</time>
        <ele>2053.0</ele>
      </trkpt>
      <trkpt lat="44.31364" lon="6.85547">
        <time>2023-04-10T06:43:04+00:00</time>
        <ele>2053.0</ele>
      </trkpt>
      <trkpt lat="44.31364" lon="6.85547">
        <time>2023-04-10T06:43:05+00:00</time>
        <ele>2053.0</ele>
      </trkpt>
      <trkpt lat="44.31362" lon="6.85545">
        <time>2023-04-10T06:43:06+00:00</time>
        <ele>2053.0</ele>
      </trkpt>
      <trkpt lat="44.31362" lon="6.85545">
        <time>2023-04-10T06:43:07+00:00</time>
        <ele>2053.0</ele>
      </trkpt>
      <trkpt lat="44.31362" lon="6.85545">
        <time>2023-04-10T06:43:08+00:00</time>
        <ele>2053.0</ele>
      </trkpt>
      <trkpt lat="44.31361" lon="6.85543">
        <time>2023-04-10T06:43:09+00:00</time>
        <ele>2054.0</ele>
      </trkpt>
      <trkpt lat="44.31361" lon="6.85543">
        <time>2023-04-10T06:43:10+00:00</time>
        <ele>2054.0</ele>
      </trkpt>
      <trkpt lat="44.31361" lon="6.85543">
        <time>2023-04-10T06:43:11+00:00</time>
        <ele>2054.0</ele>
      </trkpt>
      <trkpt lat="44.31359" lon="6.85541">
        <time>2023-04-10T06:43:12+00:00</time>
        <ele>2054.0</ele>
      </trkpt>
      <trkpt lat="44.31359" lon="6.85541">
        <time>2023-04-10T06:43:13+00:00</time>
        <ele>2054.0</ele>
      </trkpt>
      <trkpt lat="44.31359" lon="6.85541">
        <time>2023-04-10T06:43:14+00:00</time>
        <ele>2054.0</ele>
      </trkpt>
      <trkpt lat="44.31357" lon="6.85539">
        <time>2023-04-10T06:43:15+00:00</time>
        <ele>2055.0</ele>
      </trkpt>
      <trkpt lat="44.31357" lon="6.85539">
        <time>2023-04-10T06:43:16+00:00</time>
        <ele>2055.0</ele>
      </trkpt>
      <trkpt lat="44.31357" lon="6.85539">
        <time>2023-04-10T06:43:17+00:00</time>
        <ele>2055.0</ele>
      </trkpt>
      <trkpt lat="44.31357" lon="6.85539">
        <time>2023-04-10T06:43:18+00:00</time>
        <ele>2055.0</ele>
      </trkpt>
      <trkpt lat="44.31357" lon="6.85536">
        <time>2023-04-10T06:43:19+00:00</time>
        <ele>2056.0</ele>
      </trkpt>
      <trkpt lat="44.31357" lon="6.85536">
        <time>2023-04-10T06:43:20+00:00</time>
        <ele>2056.0</ele>
      </trkpt>
      <trkpt lat="44.31357" lon="6.85536">
        <time>2023-04-10T06:43:21+00:00</time>
        <ele>2056.0</ele>
      </trkpt>
      <trkpt lat="44.31355" lon="6.85534">
        <time>2023-04-10T06:43:22+00:00</time>
        <ele>2057.0</ele>
      </trkpt>
      <trkpt lat="44.31355" lon="6.85534">
        <time>2023-04-10T06:43:23+00:00</time>
        <ele>2057.0</ele>
      </trkpt>
      <trkpt lat="44.31355" lon="6.85534">
        <time>2023-04-10T06:43:24+00:00</time>
        <ele>2057.0</ele>
      </trkpt>
      <trkpt lat="44.31353" lon="6.85532">
        <time>2023-04-10T06:43:25+00:00</time>
        <ele>2057.0</ele>
      </trkpt>
      <trkpt lat="44.31353" lon="6.85532">
        <time>2023-04-10T06:43:26+00:00</time>
        <ele>2057.0</ele>
      </trkpt>
      <trkpt lat="44.31353" lon="6.85532">
        <time>2023-04-10T06:43:27+00:00</time>
        <ele>2057.0</ele>
      </trkpt>
      <trkpt lat="44.31353" lon="6.85532">
        <time>2023-04-10T06:43:28+00:00</time>
        <ele>2057.0</ele>
      </trkpt>
      <trkpt lat="44.31353" lon="6.85529">
        <time>2023-04-10T06:43:29+00:00</time>
        <ele>2058.0</ele>
      </trkpt>
      <trkpt lat="44.31353" lon="6.85529">
        <time>2023-04-10T06:43:30+00:00</time>
        <ele>2058.0</ele>
      </trkpt>
      <trkpt lat="44.31353" lon="6.85529">
        <time>2023-04-10T06:43:31+00:00</time>
        <ele>2058.0</ele>
      </trkpt>
      <trkpt lat="44.31351" lon="6.85527">
        <time>2023-04-10T06:43:32+00:00</time>
        <ele>2059.0</ele>
      </trkpt>
      <trkpt lat="44.31351" lon="6.85527">
        <time>2023-04-10T06:43:33+00:00</time>
        <ele>2059.0</ele>
      </trkpt>
      <trkpt lat="44.31351" lon="6.85527">
        <time>2023-04-10T06:43:34+00:00</time>
        <ele>2059.0</ele>
      </trkpt>
      <trkpt lat="44.31349" lon="6.85525">
        <time>2023-04-10T06:43:35+00:00</time>
        <ele>2059.0</ele>
      </trkpt>
      <trkpt lat="44.31349" lon="6.85525">
        <time>2023-04-10T06:43:36+00:00</time>
        <ele>2059.0</ele>
      </trkpt>
      <trkpt lat="44.31349" lon="6.85525">
        <time>2023-04-10T06:43:37+00:00</time>
        <ele>2059.0</ele>
      </trkpt>
      <trkpt lat="44.31347" lon="6.85524">
        <time>2023-04-10T06:43:38+00:00</time>
        <ele>2059.0</ele>
      </trkpt>
      <trkpt lat="44.31347" lon="6.85524">
        <time>2023-04-10T06:43:39+00:00</time>
        <ele>2059.0</ele>
      </trkpt>
      <trkpt lat="44.31347" lon="6.85524">
        <time>2023-04-10T06:43:40+00:00</time>
        <ele>2059.0</ele>
      </trkpt>
      <trkpt lat="44.31346" lon="6.85521">
        <time>2023-04-10T06:43:41+00:00</time>
        <ele>2060.0</ele>
      </trkpt>
      <trkpt lat="44.31346" lon="6.85521">
        <time>2023-04-10T06:43:42+00:00</time>
        <ele>2060.0</ele>
      </trkpt>
      <trkpt lat="44.31346" lon="6.85521">
        <time>2023-04-10T06:43:43+00:00</time>
        <ele>2060.0</ele>
      </trkpt>
      <trkpt lat="44.31343" lon="6.8552">
        <time>2023-04-10T06:43:44+00:00</time>
        <ele>2060.0</ele>
      </trkpt>
      <trkpt lat="44.31343" lon="6.8552">
        <time>2023-04-10T06:43:45+00:00</time>
        <ele>2060.0</ele>
      </trkpt>
      <trkpt lat="44.31343" lon="6.8552">
        <time>2023-04-10T06:43:46+00:00</time>
        <ele>2060.0</ele>
      </trkpt>
      <trkpt lat="44.31341" lon="6.85518">
        <time>2023-04-10T06:43:47+00:00</time>
        <ele>2060.0</ele>
      </trkpt>
      <trkpt lat="44.31341" lon="6.85518">
        <time>2023-04-10T06:43:48+00:00</time>
        <ele>2060.0</ele>
      </trkpt>
      <trkpt lat="44.31341" lon="6.85518">
        <time>2023-04-10T06:43:49+00:00</time>
        <ele>2060.0</ele>
      </trkpt>
      <trkpt lat="44.31341" lon="6.85518">
        <time>2023-04-10T06:43:50+00:00</time>
        <ele>2060.0</ele>
      </trkpt>
      <trkpt lat="44.31339" lon="6.85517">
        <time>2023-04-10T06:43:51+00:00</time>
        <ele>2060.0</ele>
      </trkpt>
      <trkpt lat="44.31339" lon="6.85517">
        <time>2023-04-10T06:43:52+00:00</time>
        <ele>2060.0</ele>
      </trkpt>
      <trkpt lat="44.31339" lon="6.85517">
        <time>2023-04-10T06:43:53+00:00</time>
        <ele>2060.0</ele>
      </trkpt>
      <trkpt lat="44.31339" lon="6.85517">
        <time>2023-04-10T06:43:54+00:00</time>
        <ele>2060.0</ele>
      </trkpt>
      <trkpt lat="44.31337" lon="6.85515">
        <time>2023-04-10T06:43:55+00:00</time>
        <ele>2061.0</ele>
      </trkpt>
      <trkpt lat="44.31337" lon="6.85515">
        <time>2023-04-10T06:43:56+00:00</time>
        <ele>2061.0</ele>
      </trkpt>
      <trkpt lat="44.31337" lon="6.85515">
        <time>2023-04-10T06:43:57+00:00</time>
        <ele>2061.0</ele>
      </trkpt>
      <trkpt lat="44.31337" lon="6.85515">
        <time>2023-04-10T06:43:58+00:00</time>
        <ele>2061.0</ele>
      </trkpt>
      <trkpt lat="44.31337" lon="6.85515">
        <time>2023-04-10T06:43:59+00:00</time>
        <ele>2061.0</ele>
      </trkpt>
      <trkpt lat="44.31337" lon="6.85512">
        <time>2023-04-10T06:44:00+00:00</time>
        <ele>2062.0</ele>
      </trkpt>
      <trkpt lat="44.31337" lon="6.85512">
        <time>2023-04-10T06:44:01+00:00</time>
        <ele>2062.0</ele>
      </trkpt>
      <trkpt lat="44.31337" lon="6.85512">
        <time>2023-04-10T06:44:02+00:00</time>
        <ele>2062.0</ele>
      </trkpt>
      <trkpt lat="44.31335" lon="6.8551">
        <time>2023-04-10T06:44:03+00:00</time>
        <ele>2062.0</ele>
      </trkpt>
      <trkpt lat="44.31335" lon="6.8551">
        <time>2023-04-10T06:44:04+00:00</time>
        <ele>2062.0</ele>
      </trkpt>
      <trkpt lat="44.31335" lon="6.8551">
        <time>2023-04-10T06:44:05+00:00</time>
        <ele>2062.0</ele>
      </trkpt>
      <trkpt lat="44.31335" lon="6.8551">
        <time>2023-04-10T06:44:06+00:00</time>
        <ele>2062.0</ele>
      </trkpt>
      <trkpt lat="44.31335" lon="6.8551">
        <time>2023-04-10T06:44:07+00:00</time>
        <ele>2062.0</ele>
      </trkpt>
      <trkpt lat="44.31334" lon="6.85508">
        <time>2023-04-10T06:44:08+00:00</time>
        <ele>2063.0</ele>
      </trkpt>
      <trkpt lat="44.31334" lon="6.85508">
        <time>2023-04-10T06:44:09+00:00</time>
        <ele>2063.0</ele>
      </trkpt>
      <trkpt lat="44.31334" lon="6.85508">
        <time>2023-04-10T06:44:10+00:00</time>
        <ele>2063.0</ele>
      </trkpt>
      <trkpt lat="44.31333" lon="6.85506">
        <time>2023-04-10T06:44:11+00:00</time>
        <ele>2063.0</ele>
      </trkpt>
      <trkpt lat="44.31333" lon="6.85506">
        <time>2023-04-10T06:44:12+00:00</time>
        <ele>2063.0</ele>
      </trkpt>
      <trkpt lat="44.31333" lon="6.85506">
        <time>2023-04-10T06:44:13+00:00</time>
        <ele>2063.0</ele>
      </trkpt>
      <trkpt lat="44.31332" lon="6.85503">
        <time>2023-04-10T06:44:14+00:00</time>
        <ele>2064.0</ele>
      </trkpt>
      <trkpt lat="44.31332" lon="6.85503">
        <time>2023-04-10T06:44:15+00:00</time>
        <ele>2064.0</ele>
      </trkpt>
      <trkpt lat="44.31332" lon="6.85503">
        <time>2023-04-10T06:44:16+00:00</time>
        <ele>2064.0</ele>
      </trkpt>
      <trkpt lat="44.31332" lon="6.85503">
        <time>2023-04-10T06:44:17+00:00</time>
        <ele>2064.0</ele>
      </trkpt>
      <trkpt lat="44.31332" lon="6.85499">
        <time>2023-04-10T06:44:18+00:00</time>
        <ele>2066.0</ele>
      </trkpt>
      <trkpt lat="44.31332" lon="6.85499">
        <time>2023-04-10T06:44:19+00:00</time>
        <ele>2066.0</ele>
      </trkpt>
      <trkpt lat="44.31332" lon="6.85499">
        <time>2023-04-10T06:44:20+00:00</time>
        <ele>2066.0</ele>
      </trkpt>
      <trkpt lat="44.31332" lon="6.85499">
        <time>2023-04-10T06:44:21+00:00</time>
        <ele>2066.0</ele>
      </trkpt>
      <trkpt lat="44.3133" lon="6.85498">
        <time>2023-04-10T06:44:22+00:00</time>
        <ele>2065.0</ele>
      </trkpt>
      <trkpt lat="44.3133" lon="6.85498">
        <time>2023-04-10T06:44:23+00:00</time>
        <ele>2065.0</ele>
      </trkpt>
      <trkpt lat="44.3133" lon="6.85498">
        <time>2023-04-10T06:44:24+00:00</time>
        <ele>2065.0</ele>
      </trkpt>
      <trkpt lat="44.31329" lon="6.85496">
        <time>2023-04-10T06:44:25+00:00</time>
        <ele>2066.0</ele>
      </trkpt>
      <trkpt lat="44.31329" lon="6.85496">
        <time>2023-04-10T06:44:26+00:00</time>
        <ele>2066.0</ele>
      </trkpt>
      <trkpt lat="44.31329" lon="6.85496">
        <time>2023-04-10T06:44:27+00:00</time>
        <ele>2066.0</ele>
      </trkpt>
      <trkpt lat="44.31327" lon="6.85493">
        <time>2023-04-10T06:44:28+00:00</time>
        <ele>2066.0</ele>
      </trkpt>
      <trkpt lat="44.31327" lon="6.85493">
        <time>2023-04-10T06:44:29+00:00</time>
        <ele>2066.0</ele>
      </trkpt>
      <trkpt lat="44.31327" lon="6.8549">
        <time>2023-04-10T06:44:30+00:00</time>
        <ele>2067.0</ele>
      </trkpt>
      <trkpt lat="44.31327" lon="6.8549">
        <time>2023-04-10T06:44:31+00:00</time>
        <ele>2067.0</ele>
      </trkpt>
      <trkpt lat="44.31326" lon="6.85487">
        <time>2023-04-10T06:44:32+00:00</time>
        <ele>2068.0</ele>
      </trkpt>
      <trkpt lat="44.31326" lon="6.85487">
        <time>2023-04-10T06:44:33+00:00</time>
        <ele>2068.0</ele>
      </trkpt>
      <trkpt lat="44.31326" lon="6.85487">
        <time>2023-04-10T06:44:34+00:00</time>
        <ele>2068.0</ele>
      </trkpt>
      <trkpt lat="44.31325" lon="6.85484">
        <time>2023-04-10T06:44:35+00:00</time>
        <ele>2069.0</ele>
      </trkpt>
      <trkpt lat="44.31325" lon="6.85484">
        <time>2023-04-10T06:44:36+00:00</time>
        <ele>2069.0</ele>
      </trkpt>
      <trkpt lat="44.31325" lon="6.85484">
        <time>2023-04-10T06:44:37+00:00</time>
        <ele>2069.0</ele>
      </trkpt>
      <trkpt lat="44.31323" lon="6.85482">
        <time>2023-04-10T06:44:38+00:00</time>
        <ele>2069.0</ele>
      </trkpt>
      <trkpt lat="44.31323" lon="6.85482">
        <time>2023-04-10T06:44:39+00:00</time>
        <ele>2069.0</ele>
      </trkpt>
      <trkpt lat="44.31321" lon="6.8548">
        <time>2023-04-10T06:44:40+00:00</time>
        <ele>2069.0</ele>
      </trkpt>
      <trkpt lat="44.31321" lon="6.8548">
        <time>2023-04-10T06:44:41+00:00</time>
        <ele>2069.0</ele>
      </trkpt>
      <trkpt lat="44.31321" lon="6.8548">
        <time>2023-04-10T06:44:42+00:00</time>
        <ele>2069.0</ele>
      </trkpt>
      <trkpt lat="44.31319" lon="6.85478">
        <time>2023-04-10T06:44:43+00:00</time>
        <ele>2069.0</ele>
      </trkpt>
      <trkpt lat="44.31319" lon="6.85478">
        <time>2023-04-10T06:44:44+00:00</time>
        <ele>2069.0</ele>
      </trkpt>
      <trkpt lat="44.31319" lon="6.85478">
        <time>2023-04-10T06:44:45+00:00</time>
        <ele>2069.0</ele>
      </trkpt>
      <trkpt lat="44.31317" lon="6.85476">
        <time>2023-04-10T06:44:46+00:00</time>
        <ele>2069.0</ele>
      </trkpt>
      <trkpt lat="44.31317" lon="6.85476">
        <time>2023-04-10T06:44:47+00:00</time>
        <ele>2069.0</ele>
      </trkpt>
      <trkpt lat="44.31315" lon="6.85475">
        <time>2023-04-10T06:44:48+00:00</time>
        <ele>2068.0</ele>
      </trkpt>
      <trkpt lat="44.31315" lon="6.85475">
        <time>2023-04-10T06:44:49+00:00</time>
        <ele>2068.0</ele>
      </trkpt>
      <trkpt lat="44.31315" lon="6.85475">
        <time>2023-04-10T06:44:50+00:00</time>
        <ele>2068.0</ele>
      </trkpt>
      <trkpt lat="44.31314" lon="6.85472">
        <time>2023-04-10T06:44:51+00:00</time>
        <ele>2069.0</ele>
      </trkpt>
      <trkpt lat="44.31314" lon="6.85472">
        <time>2023-04-10T06:44:52+00:00</time>
        <ele>2069.0</ele>
      </trkpt>
      <trkpt lat="44.31313" lon="6.8547">
        <time>2023-04-10T06:44:53+00:00</time>
        <ele>2070.0</ele>
      </trkpt>
      <trkpt lat="44.31313" lon="6.8547">
        <time>2023-04-10T06:44:54+00:00</time>
        <ele>2070.0</ele>
      </trkpt>
      <trkpt lat="44.31311" lon="6.85468">
        <time>2023-04-10T06:44:55+00:00</time>
        <ele>2070.0</ele>
      </trkpt>
      <trkpt lat="44.31311" lon="6.85468">
        <time>2023-04-10T06:44:56+00:00</time>
        <ele>2070.0</ele>
      </trkpt>
      <trkpt lat="44.31309" lon="6.85467">
        <time>2023-04-10T06:44:57+00:00</time>
        <ele>2069.0</ele>
      </trkpt>
      <trkpt lat="44.31309" lon="6.85467">
        <time>2023-04-10T06:44:58+00:00</time>
        <ele>2069.0</ele>
      </trkpt>
      <trkpt lat="44.31309" lon="6.85467">
        <time>2023-04-10T06:44:59+00:00</time>
        <ele>2069.0</ele>
      </trkpt>
      <trkpt lat="44.31308" lon="6.85464">
        <time>2023-04-10T06:45:00+00:00</time>
        <ele>2070.0</ele>
      </trkpt>
      <trkpt lat="44.31308" lon="6.85464">
        <time>2023-04-10T06:45:01+00:00</time>
        <ele>2070.0</ele>
      </trkpt>
      <trkpt lat="44.31308" lon="6.85464">
        <time>2023-04-10T06:45:02+00:00</time>
        <ele>2070.0</ele>
      </trkpt>
      <trkpt lat="44.31306" lon="6.85462">
        <time>2023-04-10T06:45:03+00:00</time>
        <ele>2070.0</ele>
      </trkpt>
      <trkpt lat="44.31306" lon="6.85462">
        <time>2023-04-10T06:45:04+00:00</time>
        <ele>2070.0</ele>
      </trkpt>
      <trkpt lat="44.31305" lon="6.8546">
        <time>2023-04-10T06:45:05+00:00</time>
        <ele>2071.0</ele>
      </trkpt>
      <trkpt lat="44.31305" lon="6.8546">
        <time>2023-04-10T06:45:06+00:00</time>
        <ele>2071.0</ele>
      </trkpt>
      <trkpt lat="44.31304" lon="6.85457">
        <time>2023-04-10T06:45:07+00:00</time>
        <ele>2071.0</ele>
      </trkpt>
      <trkpt lat="44.31304" lon="6.85457">
        <time>2023-04-10T06:45:08+00:00</time>
        <ele>2071.0</ele>
      </trkpt>
      <trkpt lat="44.31304" lon="6.85457">
        <time>2023-04-10T06:45:09+00:00</time>
        <ele>2071.0</ele>
      </trkpt>
      <trkpt lat="44.31303" lon="6.85456">
        <time>2023-04-10T06:45:10+00:00</time>
        <ele>2071.0</ele>
      </trkpt>
      <trkpt lat="44.31303" lon="6.85456">
        <time>2023-04-10T06:45:11+00:00</time>
        <ele>2071.0</ele>
      </trkpt>
      <trkpt lat="44.31301" lon="6.85455">
        <time>2023-04-10T06:45:12+00:00</time>
        <ele>2071.0</ele>
      </trkpt>
      <trkpt lat="44.31301" lon="6.85455">
        <time>2023-04-10T06:45:13+00:00</time>
        <ele>2071.0</ele>
      </trkpt>
      <trkpt lat="44.31299" lon="6.85453">
        <time>2023-04-10T06:45:14+00:00</time>
        <ele>2071.0</ele>
      </trkpt>
      <trkpt lat="44.31299" lon="6.85453">
        <time>2023-04-10T06:45:15+00:00</time>
        <ele>2071.0</ele>
      </trkpt>
      <trkpt lat="44.31299" lon="6.85453">
        <time>2023-04-10T06:45:16+00:00</time>
        <ele>2071.0</ele>
      </trkpt>
      <trkpt lat="44.31299" lon="6.85453">
        <time>2023-04-10T06:45:17+00:00</time>
        <ele>2071.0</ele>
      </trkpt>
      <trkpt lat="44.31299" lon="6.8545">
        <time>2023-04-10T06:45:18+00:00</time>
        <ele>2072.0</ele>
      </trkpt>
      <trkpt lat="44.31299" lon="6.8545">
        <time>2023-04-10T06:45:19+00:00</time>
        <ele>2072.0</ele>
      </trkpt>
      <trkpt lat="44.31298" lon="6.85448">
        <time>2023-04-10T06:45:20+00:00</time>
        <ele>2073.0</ele>
      </trkpt>
      <trkpt lat="44.31298" lon="6.85448">
        <time>2023-04-10T06:45:21+00:00</time>
        <ele>2073.0</ele>
      </trkpt>
      <trkpt lat="44.31298" lon="6.85448">
        <time>2023-04-10T06:45:22+00:00</time>
        <ele>2073.0</ele>
      </trkpt>
      <trkpt lat="44.31298" lon="6.85448">
        <time>2023-04-10T06:45:23+00:00</time>
        <ele>2073.0</ele>
      </trkpt>
      <trkpt lat="44.31296" lon="6.85447">
        <time>2023-04-10T06:45:24+00:00</time>
        <ele>2072.0</ele>
      </trkpt>
      <trkpt lat="44.31296" lon="6.85447">
        <time>2023-04-10T06:45:25+00:00</time>
        <ele>2072.0</ele>
      </trkpt>
      <trkpt lat="44.31296" lon="6.85447">
        <time>2023-04-10T06:45:26+00:00</time>
        <ele>2072.0</ele>
      </trkpt>
      <trkpt lat="44.31294" lon="6.85445">
        <time>2023-04-10T06:45:27+00:00</time>
        <ele>2072.0</ele>
      </trkpt>
      <trkpt lat="44.31294" lon="6.85445">
        <time>2023-04-10T06:45:28+00:00</time>
        <ele>2072.0</ele>
      </trkpt>
      <trkpt lat="44.31292" lon="6.85444">
        <time>2023-04-10T06:45:29+00:00</time>
        <ele>2072.0</ele>
      </trkpt>
      <trkpt lat="44.31292" lon="6.85444">
        <time>2023-04-10T06:45:30+00:00</time>
        <ele>2072.0</ele>
      </trkpt>
      <trkpt lat="44.31292" lon="6.85444">
        <time>2023-04-10T06:45:31+00:00</time>
        <ele>2072.0</ele>
      </trkpt>
      <trkpt lat="44.31291" lon="6.85441">
        <time>2023-04-10T06:45:32+00:00</time>
        <ele>2073.0</ele>
      </trkpt>
      <trkpt lat="44.31291" lon="6.85441">
        <time>2023-04-10T06:45:33+00:00</time>
        <ele>2073.0</ele>
      </trkpt>
      <trkpt lat="44.31291" lon="6.85441">
        <time>2023-04-10T06:45:34+00:00</time>
        <ele>2073.0</ele>
      </trkpt>
      <trkpt lat="44.31289" lon="6.85439">
        <time>2023-04-10T06:45:35+00:00</time>
        <ele>2073.0</ele>
      </trkpt>
      <trkpt lat="44.31289" lon="6.85439">
        <time>2023-04-10T06:45:36+00:00</time>
        <ele>2073.0</ele>
      </trkpt>
      <trkpt lat="44.31287" lon="6.85437">
        <time>2023-04-10T06:45:37+00:00</time>
        <ele>2073.0</ele>
      </trkpt>
      <trkpt lat="44.31287" lon="6.85437">
        <time>2023-04-10T06:45:38+00:00</time>
        <ele>2073.0</ele>
      </trkpt>
      <trkpt lat="44.31286" lon="6.85435">
        <time>2023-04-10T06:45:39+00:00</time>
        <ele>2073.0</ele>
      </trkpt>
      <trkpt lat="44.31286" lon="6.85435">
        <time>2023-04-10T06:45:40+00:00</time>
        <ele>2073.0</ele>
      </trkpt>
      <trkpt lat="44.31286" lon="6.85435">
        <time>2023-04-10T06:45:41+00:00</time>
        <ele>2073.0</ele>
      </trkpt>
      <trkpt lat="44.31285" lon="6.85433">
        <time>2023-04-10T06:45:42+00:00</time>
        <ele>2074.0</ele>
      </trkpt>
      <trkpt lat="44.31285" lon="6.85433">
        <time>2023-04-10T06:45:43+00:00</time>
        <ele>2074.0</ele>
      </trkpt>
      <trkpt lat="44.31285" lon="6.85433">
        <time>2023-04-10T06:45:44+00:00</time>
        <ele>2074.0</ele>
      </trkpt>
      <trkpt lat="44.31283" lon="6.85431">
        <time>2023-04-10T06:45:45+00:00</time>
        <ele>2074.0</ele>
      </trkpt>
      <trkpt lat="44.31283" lon="6.85431">
        <time>2023-04-10T06:45:46+00:00</time>
        <ele>2074.0</ele>
      </trkpt>
      <trkpt lat="44.31283" lon="6.85431">
        <time>2023-04-10T06:45:47+00:00</time>
        <ele>2074.0</ele>
      </trkpt>
      <trkpt lat="44.31282" lon="6.85429">
        <time>2023-04-10T06:45:48+00:00</time>
        <ele>2074.0</ele>
      </trkpt>
      <trkpt lat="44.31282" lon="6.85429">
        <time>2023-04-10T06:45:49+00:00</time>
        <ele>2074.0</ele>
      </trkpt>
      <trkpt lat="44.31282" lon="6.85429">
        <time>2023-04-10T06:45:50+00:00</time>
        <ele>2074.0</ele>
      </trkpt>
      <trkpt lat="44.31282" lon="6.85429">
        <time>2023-04-10T06:45:51+00:00</time>
        <ele>2074.0</ele>
      </trkpt>
      <trkpt lat="44.3128" lon="6.85427">
        <time>2023-04-10T06:45:52+00:00</time>
        <ele>2074.0</ele>
      </trkpt>
      <trkpt lat="44.3128" lon="6.85427">
        <time>2023-04-10T06:45:53+00:00</time>
        <ele>2074.0</ele>
      </trkpt>
      <trkpt lat="44.3128" lon="6.85427">
        <time>2023-04-10T06:45:54+00:00</time>
        <ele>2074.0</ele>
      </trkpt>
      <trkpt lat="44.3128" lon="6.85427">
        <time>2023-04-10T06:45:55+00:00</time>
        <ele>2074.0</ele>
      </trkpt>
      <trkpt lat="44.31278" lon="6.85425">
        <time>2023-04-10T06:45:56+00:00</time>
        <ele>2074.0</ele>
      </trkpt>
      <trkpt lat="44.31278" lon="6.85425">
        <time>2023-04-10T06:45:57+00:00</time>
        <ele>2074.0</ele>
      </trkpt>
      <trkpt lat="44.31278" lon="6.85425">
        <time>2023-04-10T06:45:58+00:00</time>
        <ele>2074.0</ele>
      </trkpt>
      <trkpt lat="44.31277" lon="6.85423">
        <time>2023-04-10T06:45:59+00:00</time>
        <ele>2075.0</ele>
      </trkpt>
      <trkpt lat="44.31277" lon="6.85423">
        <time>2023-04-10T06:46:00+00:00</time>
        <ele>2075.0</ele>
      </trkpt>
      <trkpt lat="44.31277" lon="6.85423">
        <time>2023-04-10T06:46:01+00:00</time>
        <ele>2075.0</ele>
      </trkpt>
      <trkpt lat="44.31275" lon="6.85421">
        <time>2023-04-10T06:46:02+00:00</time>
        <ele>2075.0</ele>
      </trkpt>
      <trkpt lat="44.31275" lon="6.85421">
        <time>2023-04-10T06:46:03+00:00</time>
        <ele>2075.0</ele>
      </trkpt>
      <trkpt lat="44.31274" lon="6.85419">
        <time>2023-04-10T06:46:04+00:00</time>
        <ele>2075.0</ele>
      </trkpt>
      <trkpt lat="44.31274" lon="6.85419">
        <time>2023-04-10T06:46:05+00:00</time>
        <ele>2075.0</ele>
      </trkpt>
      <trkpt lat="44.31274" lon="6.85419">
        <time>2023-04-10T06:46:06+00:00</time>
        <ele>2075.0</ele>
      </trkpt>
      <trkpt lat="44.31272" lon="6.85417">
        <time>2023-04-10T06:46:07+00:00</time>
        <ele>2075.0</ele>
      </trkpt>
      <trkpt lat="44.31272" lon="6.85417">
        <time>2023-04-10T06:46:08+00:00</time>
        <ele>2075.0</ele>
      </trkpt>
      <trkpt lat="44.31272" lon="6.85417">
        <time>2023-04-10T06:46:09+00:00</time>
        <ele>2075.0</ele>
      </trkpt>
      <trkpt lat="44.31272" lon="6.85417">
        <time>2023-04-10T06:46:10+00:00</time>
        <ele>2075.0</ele>
      </trkpt>
      <trkpt lat="44.3127" lon="6.85416">
        <time>2023-04-10T06:46:11+00:00</time>
        <ele>2075.0</ele>
      </trkpt>
      <trkpt lat="44.3127" lon="6.85416">
        <time>2023-04-10T06:46:12+00:00</time>
        <ele>2075.0</ele>
      </trkpt>
      <trkpt lat="44.3127" lon="6.85416">
        <time>2023-04-10T06:46:13+00:00</time>
        <ele>2075.0</ele>
      </trkpt>
      <trkpt lat="44.3127" lon="6.85416">
        <time>2023-04-10T06:46:14+00:00</time>
        <ele>2075.0</ele>
      </trkpt>
      <trkpt lat="44.31269" lon="6.85413">
        <time>2023-04-10T06:46:15+00:00</time>
        <ele>2075.0</ele>
      </trkpt>
      <trkpt lat="44.31269" lon="6.85413">
        <time>2023-04-10T06:46:16+00:00</time>
        <ele>2075.0</ele>
      </trkpt>
      <trkpt lat="44.31269" lon="6.85413">
        <time>2023-04-10T06:46:17+00:00</time>
        <ele>2075.0</ele>
      </trkpt>
      <trkpt lat="44.31269" lon="6.85413">
        <time>2023-04-10T06:46:18+00:00</time>
        <ele>2075.0</ele>
      </trkpt>
      <trkpt lat="44.31268" lon="6.8541">
        <time>2023-04-10T06:46:19+00:00</time>
        <ele>2076.0</ele>
      </trkpt>
      <trkpt lat="44.31268" lon="6.8541">
        <time>2023-04-10T06:46:20+00:00</time>
        <ele>2076.0</ele>
      </trkpt>
      <trkpt lat="44.31268" lon="6.8541">
        <time>2023-04-10T06:46:21+00:00</time>
        <ele>2076.0</ele>
      </trkpt>
      <trkpt lat="44.31268" lon="6.8541">
        <time>2023-04-10T06:46:22+00:00</time>
        <ele>2076.0</ele>
      </trkpt>
      <trkpt lat="44.31267" lon="6.85407">
        <time>2023-04-10T06:46:23+00:00</time>
        <ele>2077.0</ele>
      </trkpt>
      <trkpt lat="44.31267" lon="6.85407">
        <time>2023-04-10T06:46:24+00:00</time>
        <ele>2077.0</ele>
      </trkpt>
      <trkpt lat="44.31267" lon="6.85407">
        <time>2023-04-10T06:46:25+00:00</time>
        <ele>2077.0</ele>
      </trkpt>
      <trkpt lat="44.31266" lon="6.85404">
        <time>2023-04-10T06:46:26+00:00</time>
        <ele>2077.0</ele>
      </trkpt>
      <trkpt lat="44.31266" lon="6.85404">
        <time>2023-04-10T06:46:27+00:00</time>
        <ele>2077.0</ele>
      </trkpt>
      <trkpt lat="44.31266" lon="6.85404">
        <time>2023-04-10T06:46:28+00:00</time>
        <ele>2077.0</ele>
      </trkpt>
      <trkpt lat="44.31264" lon="6.85401">
        <time>2023-04-10T06:46:29+00:00</time>
        <ele>2078.0</ele>
      </trkpt>
      <trkpt lat="44.31264" lon="6.85401">
        <time>2023-04-10T06:46:30+00:00</time>
        <ele>2078.0</ele>
      </trkpt>
      <trkpt lat="44.31264" lon="6.85401">
        <time>2023-04-10T06:46:31+00:00</time>
        <ele>2078.0</ele>
      </trkpt>
      <trkpt lat="44.31263" lon="6.85398">
        <time>2023-04-10T06:46:32+00:00</time>
        <ele>2078.0</ele>
      </trkpt>
      <trkpt lat="44.31263" lon="6.85398">
        <time>2023-04-10T06:46:33+00:00</time>
        <ele>2078.0</ele>
      </trkpt>
      <trkpt lat="44.31263" lon="6.85398">
        <time>2023-04-10T06:46:34+00:00</time>
        <ele>2078.0</ele>
      </trkpt>
      <trkpt lat="44.31262" lon="6.85395">
        <time>2023-04-10T06:46:35+00:00</time>
        <ele>2079.0</ele>
      </trkpt>
      <trkpt lat="44.31262" lon="6.85395">
        <time>2023-04-10T06:46:36+00:00</time>
        <ele>2079.0</ele>
      </trkpt>
      <trkpt lat="44.31262" lon="6.85395">
        <time>2023-04-10T06:46:37+00:00</time>
        <ele>2079.0</ele>
      </trkpt>
      <trkpt lat="44.31262" lon="6.85395">
        <time>2023-04-10T06:46:38+00:00</time>
        <ele>2079.0</ele>
      </trkpt>
      <trkpt lat="44.31262" lon="6.85392">
        <time>2023-04-10T06:46:39+00:00</time>
        <ele>2080.0</ele>
      </trkpt>
      <trkpt lat="44.31262" lon="6.85392">
        <time>2023-04-10T06:46:40+00:00</time>
        <ele>2080.0</ele>
      </trkpt>
      <trkpt lat="44.31262" lon="6.85392">
        <time>2023-04-10T06:46:41+00:00</time>
        <ele>2080.0</ele>
      </trkpt>
      <trkpt lat="44.31262" lon="6.85392">
        <time>2023-04-10T06:46:42+00:00</time>
        <ele>2080.0</ele>
      </trkpt>
      <trkpt lat="44.31261" lon="6.8539">
        <time>2023-04-10T06:46:43+00:00</time>
        <ele>2081.0</ele>
      </trkpt>
      <trkpt lat="44.31261" lon="6.8539">
        <time>2023-04-10T06:46:44+00:00</time>
        <ele>2081.0</ele>
      </trkpt>
      <trkpt lat="44.31261" lon="6.8539">
        <time>2023-04-10T06:46:45+00:00</time>
        <ele>2081.0</ele>
      </trkpt>
      <trkpt lat="44.31261" lon="6.8539">
        <time>2023-04-10T06:46:46+00:00</time>
        <ele>2081.0</ele>
      </trkpt>
      <trkpt lat="44.3126" lon="6.85388">
        <time>2023-04-10T06:46:47+00:00</time>
        <ele>2081.0</ele>
      </trkpt>
      <trkpt lat="44.3126" lon="6.85388">
        <time>2023-04-10T06:46:48+00:00</time>
        <ele>2081.0</ele>
      </trkpt>
      <trkpt lat="44.3126" lon="6.85388">
        <time>2023-04-10T06:46:49+00:00</time>
        <ele>2081.0</ele>
      </trkpt>
      <trkpt lat="44.31258" lon="6.85386">
        <time>2023-04-10T06:46:50+00:00</time>
        <ele>2081.0</ele>
      </trkpt>
      <trkpt lat="44.31258" lon="6.85386">
        <time>2023-04-10T06:46:51+00:00</time>
        <ele>2081.0</ele>
      </trkpt>
      <trkpt lat="44.31257" lon="6.85384">
        <time>2023-04-10T06:46:52+00:00</time>
        <ele>2082.0</ele>
      </trkpt>
      <trkpt lat="44.31257" lon="6.85384">
        <time>2023-04-10T06:46:53+00:00</time>
        <ele>2082.0</ele>
      </trkpt>
      <trkpt lat="44.31257" lon="6.85384">
        <time>2023-04-10T06:46:54+00:00</time>
        <ele>2082.0</ele>
      </trkpt>
      <trkpt lat="44.31256" lon="6.85381">
        <time>2023-04-10T06:46:55+00:00</time>
        <ele>2083.0</ele>
      </trkpt>
      <trkpt lat="44.31256" lon="6.85381">
        <time>2023-04-10T06:46:56+00:00</time>
        <ele>2083.0</ele>
      </trkpt>
      <trkpt lat="44.31256" lon="6.85381">
        <time>2023-04-10T06:46:57+00:00</time>
        <ele>2083.0</ele>
      </trkpt>
      <trkpt lat="44.31254" lon="6.85378">
        <time>2023-04-10T06:46:58+00:00</time>
        <ele>2084.0</ele>
      </trkpt>
      <trkpt lat="44.31254" lon="6.85378">
        <time>2023-04-10T06:46:59+00:00</time>
        <ele>2084.0</ele>
      </trkpt>
      <trkpt lat="44.31254" lon="6.85378">
        <time>2023-04-10T06:47:00+00:00</time>
        <ele>2084.0</ele>
      </trkpt>
      <trkpt lat="44.31253" lon="6.85375">
        <time>2023-04-10T06:47:01+00:00</time>
        <ele>2084.0</ele>
      </trkpt>
      <trkpt lat="44.31253" lon="6.85375">
        <time>2023-04-10T06:47:02+00:00</time>
        <ele>2084.0</ele>
      </trkpt>
      <trkpt lat="44.31253" lon="6.85375">
        <time>2023-04-10T06:47:03+00:00</time>
        <ele>2084.0</ele>
      </trkpt>
      <trkpt lat="44.31253" lon="6.85372">
        <time>2023-04-10T06:47:04+00:00</time>
        <ele>2085.0</ele>
      </trkpt>
      <trkpt lat="44.31253" lon="6.85372">
        <time>2023-04-10T06:47:05+00:00</time>
        <ele>2085.0</ele>
      </trkpt>
      <trkpt lat="44.31252" lon="6.85369">
        <time>2023-04-10T06:47:06+00:00</time>
        <ele>2086.0</ele>
      </trkpt>
      <trkpt lat="44.31252" lon="6.85369">
        <time>2023-04-10T06:47:07+00:00</time>
        <ele>2086.0</ele>
      </trkpt>
      <trkpt lat="44.31252" lon="6.85369">
        <time>2023-04-10T06:47:08+00:00</time>
        <ele>2086.0</ele>
      </trkpt>
      <trkpt lat="44.31252" lon="6.85369">
        <time>2023-04-10T06:47:09+00:00</time>
        <ele>2086.0</ele>
      </trkpt>
      <trkpt lat="44.31251" lon="6.85367">
        <time>2023-04-10T06:47:10+00:00</time>
        <ele>2087.0</ele>
      </trkpt>
      <trkpt lat="44.31251" lon="6.85367">
        <time>2023-04-10T06:47:11+00:00</time>
        <ele>2087.0</ele>
      </trkpt>
      <trkpt lat="44.31251" lon="6.85367">
        <time>2023-04-10T06:47:12+00:00</time>
        <ele>2087.0</ele>
      </trkpt>
      <trkpt lat="44.31251" lon="6.85367">
        <time>2023-04-10T06:47:13+00:00</time>
        <ele>2087.0</ele>
      </trkpt>
      <trkpt lat="44.3125" lon="6.85364">
        <time>2023-04-10T06:47:14+00:00</time>
        <ele>2088.0</ele>
      </trkpt>
      <trkpt lat="44.3125" lon="6.85364">
        <time>2023-04-10T06:47:15+00:00</time>
        <ele>2088.0</ele>
      </trkpt>
      <trkpt lat="44.3125" lon="6.85364">
        <time>2023-04-10T06:47:16+00:00</time>
        <ele>2088.0</ele>
      </trkpt>
      <trkpt lat="44.3125" lon="6.85364">
        <time>2023-04-10T06:47:17+00:00</time>
        <ele>2088.0</ele>
      </trkpt>
      <trkpt lat="44.3125" lon="6.85362">
        <time>2023-04-10T06:47:18+00:00</time>
        <ele>2089.0</ele>
      </trkpt>
      <trkpt lat="44.3125" lon="6.85362">
        <time>2023-04-10T06:47:19+00:00</time>
        <ele>2089.0</ele>
      </trkpt>
      <trkpt lat="44.3125" lon="6.85359">
        <time>2023-04-10T06:47:20+00:00</time>
        <ele>2090.0</ele>
      </trkpt>
      <trkpt lat="44.3125" lon="6.85359">
        <time>2023-04-10T06:47:21+00:00</time>
        <ele>2090.0</ele>
      </trkpt>
      <trkpt lat="44.3125" lon="6.85359">
        <time>2023-04-10T06:47:22+00:00</time>
        <ele>2090.0</ele>
      </trkpt>
      <trkpt lat="44.3125" lon="6.85359">
        <time>2023-04-10T06:47:23+00:00</time>
        <ele>2090.0</ele>
      </trkpt>
      <trkpt lat="44.3125" lon="6.85359">
        <time>2023-04-10T06:47:24+00:00</time>
        <ele>2090.0</ele>
      </trkpt>
      <trkpt lat="44.31247" lon="6.85358">
        <time>2023-04-10T06:47:25+00:00</time>
        <ele>2090.0</ele>
      </trkpt>
      <trkpt lat="44.31247" lon="6.85358">
        <time>2023-04-10T06:47:26+00:00</time>
        <ele>2090.0</ele>
      </trkpt>
      <trkpt lat="44.31247" lon="6.85358">
        <time>2023-04-10T06:47:27+00:00</time>
        <ele>2090.0</ele>
      </trkpt>
      <trkpt lat="44.31247" lon="6.85358">
        <time>2023-04-10T06:47:28+00:00</time>
        <ele>2090.0</ele>
      </trkpt>
      <trkpt lat="44.31247" lon="6.85358">
        <time>2023-04-10T06:47:29+00:00</time>
        <ele>2090.0</ele>
      </trkpt>
      <trkpt lat="44.31247" lon="6.85358">
        <time>2023-04-10T06:47:30+00:00</time>
        <ele>2090.0</ele>
      </trkpt>
      <trkpt lat="44.31247" lon="6.85358">
        <time>2023-04-10T06:47:31+00:00</time>
        <ele>2090.0</ele>
      </trkpt>
      <trkpt lat="44.31247" lon="6.85358">
        <time>2023-04-10T06:47:32+00:00</time>
        <ele>2090.0</ele>
      </trkpt>
      <trkpt lat="44.31247" lon="6.85358">
        <time>2023-04-10T06:47:33+00:00</time>
        <ele>2090.0</ele>
      </trkpt>
      <trkpt lat="44.31246" lon="6.8536">
        <time>2023-04-10T06:47:34+00:00</time>
        <ele>2090.0</ele>
      </trkpt>
      <trkpt lat="44.31246" lon="6.8536">
        <time>2023-04-10T06:47:35+00:00</time>
        <ele>2090.0</ele>
      </trkpt>
      <trkpt lat="44.31246" lon="6.8536">
        <time>2023-04-10T06:47:36+00:00</time>
        <ele>2090.0</ele>
      </trkpt>
      <trkpt lat="44.31246" lon="6.8536">
        <time>2023-04-10T06:47:37+00:00</time>
        <ele>2090.0</ele>
      </trkpt>
      <trkpt lat="44.31246" lon="6.8536">
        <time>2023-04-10T06:47:38+00:00</time>
        <ele>2090.0</ele>
      </trkpt>
      <trkpt lat="44.31246" lon="6.8536">
        <time>2023-04-10T06:47:39+00:00</time>
        <ele>2090.0</ele>
      </trkpt>
      <trkpt lat="44.31244" lon="6.85362">
        <time>2023-04-10T06:47:40+00:00</time>
        <ele>2089.0</ele>
      </trkpt>
      <trkpt lat="44.31244" lon="6.85362">
        <time>2023-04-10T06:47:41+00:00</time>
        <ele>2089.0</ele>
      </trkpt>
      <trkpt lat="44.31244" lon="6.85362">
        <time>2023-04-10T06:47:42+00:00</time>
        <ele>2089.0</ele>
      </trkpt>
      <trkpt lat="44.31244" lon="6.85362">
        <time>2023-04-10T06:47:43+00:00</time>
        <ele>2089.0</ele>
      </trkpt>
      <trkpt lat="44.31242" lon="6.85363">
        <time>2023-04-10T06:47:44+00:00</time>
        <ele>2089.0</ele>
      </trkpt>
      <trkpt lat="44.31242" lon="6.85363">
        <time>2023-04-10T06:47:45+00:00</time>
        <ele>2089.0</ele>
      </trkpt>
      <trkpt lat="44.31242" lon="6.85363">
        <time>2023-04-10T06:47:46+00:00</time>
        <ele>2089.0</ele>
      </trkpt>
      <trkpt lat="44.31242" lon="6.85363">
        <time>2023-04-10T06:47:47+00:00</time>
        <ele>2089.0</ele>
      </trkpt>
      <trkpt lat="44.31242" lon="6.85363">
        <time>2023-04-10T06:47:48+00:00</time>
        <ele>2089.0</ele>
      </trkpt>
      <trkpt lat="44.31242" lon="6.85363">
        <time>2023-04-10T06:47:49+00:00</time>
        <ele>2089.0</ele>
      </trkpt>
      <trkpt lat="44.31242" lon="6.85363">
        <time>2023-04-10T06:47:50+00:00</time>
        <ele>2089.0</ele>
      </trkpt>
      <trkpt lat="44.31242" lon="6.85363">
        <time>2023-04-10T06:47:51+00:00</time>
        <ele>2089.0</ele>
      </trkpt>
      <trkpt lat="44.31242" lon="6.85363">
        <time>2023-04-10T06:47:52+00:00</time>
        <ele>2089.0</ele>
      </trkpt>
      <trkpt lat="44.31242" lon="6.85363">
        <time>2023-04-10T06:47:53+00:00</time>
        <ele>2089.0</ele>
      </trkpt>
      <trkpt lat="44.31242" lon="6.85363">
        <time>2023-04-10T06:47:54+00:00</time>
        <ele>2089.0</ele>
      </trkpt>
      <trkpt lat="44.31242" lon="6.85363">
        <time>2023-04-10T06:47:55+00:00</time>
        <ele>2089.0</ele>
      </trkpt>
      <trkpt lat="44.31242" lon="6.85363">
        <time>2023-04-10T06:47:56+00:00</time>
        <ele>2089.0</ele>
      </trkpt>
      <trkpt lat="44.31242" lon="6.85363">
        <time>2023-04-10T06:47:57+00:00</time>
        <ele>2089.0</ele>
      </trkpt>
      <trkpt lat="44.31242" lon="6.85363">
        <time>2023-04-10T06:47:58+00:00</time>
        <ele>2089.0</ele>
      </trkpt>
      <trkpt lat="44.31242" lon="6.85363">
        <time>2023-04-10T06:47:59+00:00</time>
        <ele>2089.0</ele>
      </trkpt>
      <trkpt lat="44.31242" lon="6.85363">
        <time>2023-04-10T06:48:00+00:00</time>
        <ele>2089.0</ele>
      </trkpt>
      <trkpt lat="44.31242" lon="6.85363">
        <time>2023-04-10T06:48:01+00:00</time>
        <ele>2089.0</ele>
      </trkpt>
      <trkpt lat="44.31242" lon="6.85363">
        <time>2023-04-10T06:48:02+00:00</time>
        <ele>2089.0</ele>
      </trkpt>
      <trkpt lat="44.31242" lon="6.85363">
        <time>2023-04-10T06:48:03+00:00</time>
        <ele>2089.0</ele>
      </trkpt>
      <trkpt lat="44.31242" lon="6.85363">
        <time>2023-04-10T06:48:04+00:00</time>
        <ele>2089.0</ele>
      </trkpt>
      <trkpt lat="44.31242" lon="6.85363">
        <time>2023-04-10T06:48:05+00:00</time>
        <ele>2089.0</ele>
      </trkpt>
      <trkpt lat="44.31242" lon="6.85363">
        <time>2023-04-10T06:48:06+00:00</time>
        <ele>2089.0</ele>
      </trkpt>
      <trkpt lat="44.31242" lon="6.85363">
        <time>2023-04-10T06:48:07+00:00</time>
        <ele>2089.0</ele>
      </trkpt>
      <trkpt lat="44.31242" lon="6.85363">
        <time>2023-04-10T06:48:08+00:00</time>
        <ele>2089.0</ele>
      </trkpt>
      <trkpt lat="44.31242" lon="6.85363">
        <time>2023-04-10T06:48:09+00:00</time>
        <ele>2089.0</ele>
      </trkpt>
      <trkpt lat="44.31242" lon="6.85363">
        <time>2023-04-10T06:48:10+00:00</time>
        <ele>2089.0</ele>
      </trkpt>
      <trkpt lat="44.31242" lon="6.85363">
        <time>2023-04-10T06:48:11+00:00</time>
        <ele>2089.0</ele>
      </trkpt>
      <trkpt lat="44.31242" lon="6.85363">
        <time>2023-04-10T06:48:12+00:00</time>
        <ele>2089.0</ele>
      </trkpt>
      <trkpt lat="44.31242" lon="6.85363">
        <time>2023-04-10T06:48:13+00:00</time>
        <ele>2089.0</ele>
      </trkpt>
      <trkpt lat="44.31242" lon="6.85363">
        <time>2023-04-10T06:48:14+00:00</time>
        <ele>2089.0</ele>
      </trkpt>
      <trkpt lat="44.31242" lon="6.85363">
        <time>2023-04-10T06:48:15+00:00</time>
        <ele>2089.0</ele>
      </trkpt>
      <trkpt lat="44.31242" lon="6.85363">
        <time>2023-04-10T06:48:16+00:00</time>
        <ele>2089.0</ele>
      </trkpt>
      <trkpt lat="44.31242" lon="6.85363">
        <time>2023-04-10T06:48:17+00:00</time>
        <ele>2089.0</ele>
      </trkpt>
      <trkpt lat="44.31242" lon="6.85363">
        <time>2023-04-10T06:48:18+00:00</time>
        <ele>2089.0</ele>
      </trkpt>
      <trkpt lat="44.31242" lon="6.85363">
        <time>2023-04-10T06:48:19+00:00</time>
        <ele>2089.0</ele>
      </trkpt>
      <trkpt lat="44.31242" lon="6.85363">
        <time>2023-04-10T06:48:20+00:00</time>
        <ele>2089.0</ele>
      </trkpt>
      <trkpt lat="44.31242" lon="6.85363">
        <time>2023-04-10T06:48:21+00:00</time>
        <ele>2089.0</ele>
      </trkpt>
      <trkpt lat="44.31241" lon="6.85363">
        <time>2023-04-10T06:48:22+00:00</time>
        <ele>2089.0</ele>
      </trkpt>
      <trkpt lat="44.31241" lon="6.85363">
        <time>2023-04-10T06:48:23+00:00</time>
        <ele>2089.0</ele>
      </trkpt>
      <trkpt lat="44.31241" lon="6.85363">
        <time>2023-04-10T06:48:24+00:00</time>
        <ele>2089.0</ele>
      </trkpt>
      <trkpt lat="44.31241" lon="6.85363">
        <time>2023-04-10T06:48:25+00:00</time>
        <ele>2089.0</ele>
      </trkpt>
      <trkpt lat="44.31241" lon="6.85363">
        <time>2023-04-10T06:48:26+00:00</time>
        <ele>2089.0</ele>
      </trkpt>
      <trkpt lat="44.31241" lon="6.85363">
        <time>2023-04-10T06:48:27+00:00</time>
        <ele>2089.0</ele>
      </trkpt>
      <trkpt lat="44.31241" lon="6.85363">
        <time>2023-04-10T06:48:28+00:00</time>
        <ele>2089.0</ele>
      </trkpt>
      <trkpt lat="44.31241" lon="6.85363">
        <time>2023-04-10T06:48:29+00:00</time>
        <ele>2089.0</ele>
      </trkpt>
      <trkpt lat="44.31241" lon="6.85363">
        <time>2023-04-10T06:48:30+00:00</time>
        <ele>2089.0</ele>
      </trkpt>
      <trkpt lat="44.31241" lon="6.85363">
        <time>2023-04-10T06:48:31+00:00</time>
        <ele>2089.0</ele>
      </trkpt>
      <trkpt lat="44.31241" lon="6.85363">
        <time>2023-04-10T06:48:32+00:00</time>
        <ele>2089.0</ele>
      </trkpt>
      <trkpt lat="44.31241" lon="6.85363">
        <time>2023-04-10T06:48:33+00:00</time>
        <ele>2089.0</ele>
      </trkpt>
      <trkpt lat="44.31241" lon="6.85363">
        <time>2023-04-10T06:48:34+00:00</time>
        <ele>2089.0</ele>
      </trkpt>
      <trkpt lat="44.31241" lon="6.85363">
        <time>2023-04-10T06:48:35+00:00</time>
        <ele>2089.0</ele>
      </trkpt>
      <trkpt lat="44.31241" lon="6.85363">
        <time>2023-04-10T06:48:36+00:00</time>
        <ele>2089.0</ele>
      </trkpt>
      <trkpt lat="44.31241" lon="6.85363">
        <time>2023-04-10T06:48:37+00:00</time>
        <ele>2089.0</ele>
      </trkpt>
      <trkpt lat="44.31241" lon="6.85363">
        <time>2023-04-10T06:48:38+00:00</time>
        <ele>2089.0</ele>
      </trkpt>
      <trkpt lat="44.31241" lon="6.85363">
        <time>2023-04-10T06:48:39+00:00</time>
        <ele>2089.0</ele>
      </trkpt>
      <trkpt lat="44.31241" lon="6.85363">
        <time>2023-04-10T06:48:40+00:00</time>
        <ele>2089.0</ele>
      </trkpt>
      <trkpt lat="44.31241" lon="6.85363">
        <time>2023-04-10T06:48:41+00:00</time>
        <ele>2089.0</ele>
      </trkpt>
      <trkpt lat="44.31241" lon="6.85363">
        <time>2023-04-10T06:48:42+00:00</time>
        <ele>2089.0</ele>
      </trkpt>
      <trkpt lat="44.31241" lon="6.85363">
        <time>2023-04-10T06:48:43+00:00</time>
        <ele>2089.0</ele>
      </trkpt>
      <trkpt lat="44.31241" lon="6.85363">
        <time>2023-04-10T06:48:44+00:00</time>
        <ele>2089.0</ele>
      </trkpt>
      <trkpt lat="44.31241" lon="6.85363">
        <time>2023-04-10T06:48:45+00:00</time>
        <ele>2089.0</ele>
      </trkpt>
      <trkpt lat="44.31241" lon="6.85363">
        <time>2023-04-10T06:48:46+00:00</time>
        <ele>2089.0</ele>
      </trkpt>
      <trkpt lat="44.31241" lon="6.85363">
        <time>2023-04-10T06:48:47+00:00</time>
        <ele>2089.0</ele>
      </trkpt>
      <trkpt lat="44.31241" lon="6.85363">
        <time>2023-04-10T06:48:48+00:00</time>
        <ele>2089.0</ele>
      </trkpt>
      <trkpt lat="44.31241" lon="6.85363">
        <time>2023-04-10T06:48:49+00:00</time>
        <ele>2089.0</ele>
      </trkpt>
      <trkpt lat="44.31241" lon="6.85363">
        <time>2023-04-10T06:48:50+00:00</time>
        <ele>2089.0</ele>
      </trkpt>
      <trkpt lat="44.31241" lon="6.85363">
        <time>2023-04-10T06:48:51+00:00</time>
        <ele>2089.0</ele>
      </trkpt>
      <trkpt lat="44.31241" lon="6.85363">
        <time>2023-04-10T06:48:52+00:00</time>
        <ele>2089.0</ele>
      </trkpt>
      <trkpt lat="44.31241" lon="6.85363">
        <time>2023-04-10T06:48:53+00:00</time>
        <ele>2089.0</ele>
      </trkpt>
      <trkpt lat="44.31241" lon="6.85363">
        <time>2023-04-10T06:48:54+00:00</time>
        <ele>2089.0</ele>
      </trkpt>
      <trkpt lat="44.31241" lon="6.85363">
        <time>2023-04-10T06:48:55+00:00</time>
        <ele>2089.0</ele>
      </trkpt>
      <trkpt lat="44.31241" lon="6.85363">
        <time>2023-04-10T06:48:56+00:00</time>
        <ele>2089.0</ele>
      </trkpt>
      <trkpt lat="44.31241" lon="6.85363">
        <time>2023-04-10T06:48:57+00:00</time>
        <ele>2089.0</ele>
      </trkpt>
      <trkpt lat="44.31241" lon="6.85363">
        <time>2023-04-10T06:48:58+00:00</time>
        <ele>2089.0</ele>
      </trkpt>
      <trkpt lat="44.31241" lon="6.85363">
        <time>2023-04-10T06:48:59+00:00</time>
        <ele>2089.0</ele>
      </trkpt>
      <trkpt lat="44.31241" lon="6.85363">
        <time>2023-04-10T06:49:00+00:00</time>
        <ele>2089.0</ele>
      </trkpt>
      <trkpt lat="44.31241" lon="6.85363">
        <time>2023-04-10T06:49:01+00:00</time>
        <ele>2089.0</ele>
      </trkpt>
      <trkpt lat="44.31241" lon="6.85363">
        <time>2023-04-10T06:49:02+00:00</time>
        <ele>2089.0</ele>
      </trkpt>
      <trkpt lat="44.3124" lon="6.85363">
        <time>2023-04-10T06:49:03+00:00</time>
        <ele>2089.0</ele>
      </trkpt>
      <trkpt lat="44.3124" lon="6.85363">
        <time>2023-04-10T06:49:04+00:00</time>
        <ele>2089.0</ele>
      </trkpt>
      <trkpt lat="44.3124" lon="6.85363">
        <time>2023-04-10T06:49:05+00:00</time>
        <ele>2089.0</ele>
      </trkpt>
      <trkpt lat="44.3124" lon="6.85363">
        <time>2023-04-10T06:49:06+00:00</time>
        <ele>2089.0</ele>
      </trkpt>
      <trkpt lat="44.3124" lon="6.85363">
        <time>2023-04-10T06:49:07+00:00</time>
        <ele>2089.0</ele>
      </trkpt>
      <trkpt lat="44.3124" lon="6.85363">
        <time>2023-04-10T06:49:08+00:00</time>
        <ele>2089.0</ele>
      </trkpt>
      <trkpt lat="44.3124" lon="6.85363">
        <time>2023-04-10T06:49:09+00:00</time>
        <ele>2089.0</ele>
      </trkpt>
      <trkpt lat="44.3124" lon="6.85363">
        <time>2023-04-10T06:49:10+00:00</time>
        <ele>2089.0</ele>
      </trkpt>
      <trkpt lat="44.3124" lon="6.85363">
        <time>2023-04-10T06:49:11+00:00</time>
        <ele>2089.0</ele>
      </trkpt>
      <trkpt lat="44.3124" lon="6.85363">
        <time>2023-04-10T06:49:12+00:00</time>
        <ele>2089.0</ele>
      </trkpt>
      <trkpt lat="44.3124" lon="6.85363">
        <time>2023-04-10T06:49:13+00:00</time>
        <ele>2089.0</ele>
      </trkpt>
      <trkpt lat="44.3124" lon="6.85363">
        <time>2023-04-10T06:49:14+00:00</time>
        <ele>2089.0</ele>
      </trkpt>
      <trkpt lat="44.3124" lon="6.85363">
        <time>2023-04-10T06:49:15+00:00</time>
        <ele>2089.0</ele>
      </trkpt>
      <trkpt lat="44.3124" lon="6.85363">
        <time>2023-04-10T06:49:16+00:00</time>
        <ele>2089.0</ele>
      </trkpt>
      <trkpt lat="44.3124" lon="6.85363">
        <time>2023-04-10T06:49:17+00:00</time>
        <ele>2089.0</ele>
      </trkpt>
      <trkpt lat="44.3124" lon="6.85363">
        <time>2023-04-10T06:49:18+00:00</time>
        <ele>2089.0</ele>
      </trkpt>
      <trkpt lat="44.3124" lon="6.85363">
        <time>2023-04-10T06:49:19+00:00</time>
        <ele>2089.0</ele>
      </trkpt>
      <trkpt lat="44.3124" lon="6.85363">
        <time>2023-04-10T06:49:20+00:00</time>
        <ele>2089.0</ele>
      </trkpt>
      <trkpt lat="44.3124" lon="6.85363">
        <time>2023-04-10T06:49:21+00:00</time>
        <ele>2089.0</ele>
      </trkpt>
      <trkpt lat="44.3124" lon="6.85363">
        <time>2023-04-10T06:49:22+00:00</time>
        <ele>2089.0</ele>
      </trkpt>
      <trkpt lat="44.3124" lon="6.85363">
        <time>2023-04-10T06:49:23+00:00</time>
        <ele>2089.0</ele>
      </trkpt>
      <trkpt lat="44.3124" lon="6.85363">
        <time>2023-04-10T06:49:24+00:00</time>
        <ele>2089.0</ele>
      </trkpt>
      <trkpt lat="44.3124" lon="6.85363">
        <time>2023-04-10T06:49:25+00:00</time>
        <ele>2089.0</ele>
      </trkpt>
      <trkpt lat="44.3124" lon="6.85363">
        <time>2023-04-10T06:49:26+00:00</time>
        <ele>2089.0</ele>
      </trkpt>
      <trkpt lat="44.3124" lon="6.85363">
        <time>2023-04-10T06:49:27+00:00</time>
        <ele>2089.0</ele>
      </trkpt>
      <trkpt lat="44.3124" lon="6.85363">
        <time>2023-04-10T06:49:28+00:00</time>
        <ele>2089.0</ele>
      </trkpt>
      <trkpt lat="44.3124" lon="6.85363">
        <time>2023-04-10T06:49:29+00:00</time>
        <ele>2089.0</ele>
      </trkpt>
      <trkpt lat="44.3124" lon="6.85363">
        <time>2023-04-10T06:49:30+00:00</time>
        <ele>2089.0</ele>
      </trkpt>
      <trkpt lat="44.3124" lon="6.85363">
        <time>2023-04-10T06:49:31+00:00</time>
        <ele>2089.0</ele>
      </trkpt>
      <trkpt lat="44.3124" lon="6.85363">
        <time>2023-04-10T06:49:32+00:00</time>
        <ele>2089.0</ele>
      </trkpt>
      <trkpt lat="44.3124" lon="6.85363">
        <time>2023-04-10T06:49:33+00:00</time>
        <ele>2089.0</ele>
      </trkpt>
      <trkpt lat="44.3124" lon="6.85363">
        <time>2023-04-10T06:49:34+00:00</time>
        <ele>2089.0</ele>
      </trkpt>
      <trkpt lat="44.3124" lon="6.85363">
        <time>2023-04-10T06:49:35+00:00</time>
        <ele>2089.0</ele>
      </trkpt>
      <trkpt lat="44.3124" lon="6.85363">
        <time>2023-04-10T06:49:36+00:00</time>
        <ele>2089.0</ele>
      </trkpt>
      <trkpt lat="44.3124" lon="6.85363">
        <time>2023-04-10T06:49:37+00:00</time>
        <ele>2089.0</ele>
      </trkpt>
      <trkpt lat="44.3124" lon="6.85363">
        <time>2023-04-10T06:49:38+00:00</time>
        <ele>2089.0</ele>
      </trkpt>
      <trkpt lat="44.3124" lon="6.85363">
        <time>2023-04-10T06:49:39+00:00</time>
        <ele>2089.0</ele>
      </trkpt>
      <trkpt lat="44.3124" lon="6.85363">
        <time>2023-04-10T06:49:40+00:00</time>
        <ele>2089.0</ele>
      </trkpt>
      <trkpt lat="44.3124" lon="6.85363">
        <time>2023-04-10T06:49:41+00:00</time>
        <ele>2089.0</ele>
      </trkpt>
      <trkpt lat="44.3124" lon="6.85363">
        <time>2023-04-10T06:49:42+00:00</time>
        <ele>2089.0</ele>
      </trkpt>
      <trkpt lat="44.31239" lon="6.85363">
        <time>2023-04-10T06:49:43+00:00</time>
        <ele>2089.0</ele>
      </trkpt>
      <trkpt lat="44.31239" lon="6.85363">
        <time>2023-04-10T06:49:44+00:00</time>
        <ele>2089.0</ele>
      </trkpt>
      <trkpt lat="44.31239" lon="6.85363">
        <time>2023-04-10T06:49:45+00:00</time>
        <ele>2089.0</ele>
      </trkpt>
      <trkpt lat="44.31239" lon="6.85363">
        <time>2023-04-10T06:49:46+00:00</time>
        <ele>2089.0</ele>
      </trkpt>
      <trkpt lat="44.31239" lon="6.85363">
        <time>2023-04-10T06:49:47+00:00</time>
        <ele>2089.0</ele>
      </trkpt>
      <trkpt lat="44.31239" lon="6.85363">
        <time>2023-04-10T06:49:48+00:00</time>
        <ele>2089.0</ele>
      </trkpt>
      <trkpt lat="44.31239" lon="6.85363">
        <time>2023-04-10T06:49:49+00:00</time>
        <ele>2089.0</ele>
      </trkpt>
      <trkpt lat="44.31239" lon="6.85363">
        <time>2023-04-10T06:49:50+00:00</time>
        <ele>2089.0</ele>
      </trkpt>
      <trkpt lat="44.31239" lon="6.85363">
        <time>2023-04-10T06:49:51+00:00</time>
        <ele>2089.0</ele>
      </trkpt>
      <trkpt lat="44.31239" lon="6.85363">
        <time>2023-04-10T06:49:52+00:00</time>
        <ele>2089.0</ele>
      </trkpt>
      <trkpt lat="44.31239" lon="6.85363">
        <time>2023-04-10T06:49:53+00:00</time>
        <ele>2089.0</ele>
      </trkpt>
      <trkpt lat="44.31239" lon="6.85363">
        <time>2023-04-10T06:49:54+00:00</time>
        <ele>2089.0</ele>
      </trkpt>
      <trkpt lat="44.31239" lon="6.85363">
        <time>2023-04-10T06:49:55+00:00</time>
        <ele>2089.0</ele>
      </trkpt>
      <trkpt lat="44.31239" lon="6.85363">
        <time>2023-04-10T06:49:56+00:00</time>
        <ele>2089.0</ele>
      </trkpt>
      <trkpt lat="44.31239" lon="6.85363">
        <time>2023-04-10T06:49:57+00:00</time>
        <ele>2089.0</ele>
      </trkpt>
      <trkpt lat="44.31239" lon="6.85363">
        <time>2023-04-10T06:49:58+00:00</time>
        <ele>2089.0</ele>
      </trkpt>
      <trkpt lat="44.31239" lon="6.85363">
        <time>2023-04-10T06:49:59+00:00</time>
        <ele>2089.0</ele>
      </trkpt>
      <trkpt lat="44.31239" lon="6.85363">
        <time>2023-04-10T06:50:02+00:00</time>
        <ele>2089.0</ele>
      </trkpt>
      <trkpt lat="44.31239" lon="6.85363">
        <time>2023-04-10T06:50:03+00:00</time>
        <ele>2089.0</ele>
      </trkpt>
      <trkpt lat="44.31239" lon="6.85363">
        <time>2023-04-10T06:50:04+00:00</time>
        <ele>2089.0</ele>
      </trkpt>
      <trkpt lat="44.31239" lon="6.85363">
        <time>2023-04-10T06:50:05+00:00</time>
        <ele>2089.0</ele>
      </trkpt>
      <trkpt lat="44.31239" lon="6.85363">
        <time>2023-04-10T06:50:06+00:00</time>
        <ele>2089.0</ele>
      </trkpt>
      <trkpt lat="44.31239" lon="6.85363">
        <time>2023-04-10T06:50:07+00:00</time>
        <ele>2089.0</ele>
      </trkpt>
      <trkpt lat="44.31239" lon="6.85363">
        <time>2023-04-10T06:50:08+00:00</time>
        <ele>2089.0</ele>
      </trkpt>
      <trkpt lat="44.31239" lon="6.85363">
        <time>2023-04-10T06:50:09+00:00</time>
        <ele>2089.0</ele>
      </trkpt>
      <trkpt lat="44.31239" lon="6.85363">
        <time>2023-04-10T06:50:10+00:00</time>
        <ele>2089.0</ele>
      </trkpt>
      <trkpt lat="44.31239" lon="6.85363">
        <time>2023-04-10T06:50:11+00:00</time>
        <ele>2089.0</ele>
      </trkpt>
      <trkpt lat="44.31239" lon="6.85363">
        <time>2023-04-10T06:50:12+00:00</time>
        <ele>2089.0</ele>
      </trkpt>
      <trkpt lat="44.31239" lon="6.85363">
        <time>2023-04-10T06:50:13+00:00</time>
        <ele>2089.0</ele>
      </trkpt>
      <trkpt lat="44.31239" lon="6.85363">
        <time>2023-04-10T06:50:14+00:00</time>
        <ele>2089.0</ele>
      </trkpt>
      <trkpt lat="44.31239" lon="6.85363">
        <time>2023-04-10T06:50:15+00:00</time>
        <ele>2089.0</ele>
      </trkpt>
      <trkpt lat="44.31239" lon="6.85363">
        <time>2023-04-10T06:50:16+00:00</time>
        <ele>2089.0</ele>
      </trkpt>
      <trkpt lat="44.31239" lon="6.85363">
        <time>2023-04-10T06:50:17+00:00</time>
        <ele>2089.0</ele>
      </trkpt>
      <trkpt lat="44.31239" lon="6.85363">
        <time>2023-04-10T06:50:18+00:00</time>
        <ele>2089.0</ele>
      </trkpt>
      <trkpt lat="44.31239" lon="6.85363">
        <time>2023-04-10T06:50:19+00:00</time>
        <ele>2089.0</ele>
      </trkpt>
      <trkpt lat="44.31239" lon="6.85363">
        <time>2023-04-10T06:50:23+00:00</time>
        <ele>2089.0</ele>
      </trkpt>
      <trkpt lat="44.31239" lon="6.85363">
        <time>2023-04-10T06:50:24+00:00</time>
        <ele>2089.0</ele>
      </trkpt>
      <trkpt lat="44.31239" lon="6.85363">
        <time>2023-04-10T06:50:25+00:00</time>
        <ele>2089.0</ele>
      </trkpt>
      <trkpt lat="44.31239" lon="6.85363">
        <time>2023-04-10T06:50:26+00:00</time>
        <ele>2089.0</ele>
      </trkpt>
      <trkpt lat="44.31239" lon="6.85363">
        <time>2023-04-10T06:50:27+00:00</time>
        <ele>2089.0</ele>
      </trkpt>
      <trkpt lat="44.31239" lon="6.85363">
        <time>2023-04-10T06:50:28+00:00</time>
        <ele>2089.0</ele>
      </trkpt>
      <trkpt lat="44.31238" lon="6.85363">
        <time>2023-04-10T06:50:29+00:00</time>
        <ele>2089.0</ele>
      </trkpt>
      <trkpt lat="44.31238" lon="6.85363">
        <time>2023-04-10T06:50:30+00:00</time>
        <ele>2089.0</ele>
      </trkpt>
      <trkpt lat="44.31238" lon="6.85363">
        <time>2023-04-10T06:50:31+00:00</time>
        <ele>2089.0</ele>
      </trkpt>
      <trkpt lat="44.31238" lon="6.85363">
        <time>2023-04-10T06:50:32+00:00</time>
        <ele>2089.0</ele>
      </trkpt>
      <trkpt lat="44.31238" lon="6.85363">
        <time>2023-04-10T06:50:33+00:00</time>
        <ele>2089.0</ele>
      </trkpt>
      <trkpt lat="44.31238" lon="6.85363">
        <time>2023-04-10T06:50:34+00:00</time>
        <ele>2089.0</ele>
      </trkpt>
      <trkpt lat="44.31238" lon="6.85363">
        <time>2023-04-10T06:50:35+00:00</time>
        <ele>2089.0</ele>
      </trkpt>
      <trkpt lat="44.31241" lon="6.85349">
        <time>2023-04-10T06:50:36+00:00</time>
        <ele>2094.0</ele>
      </trkpt>
      <trkpt lat="44.31239" lon="6.85348">
        <time>2023-04-10T06:50:37+00:00</time>
        <ele>2095.0</ele>
      </trkpt>
      <trkpt lat="44.31239" lon="6.85348">
        <time>2023-04-10T06:50:38+00:00</time>
        <ele>2095.0</ele>
      </trkpt>
      <trkpt lat="44.31236" lon="6.85345">
        <time>2023-04-10T06:50:39+00:00</time>
        <ele>2096.0</ele>
      </trkpt>
      <trkpt lat="44.31236" lon="6.85345">
        <time>2023-04-10T06:50:40+00:00</time>
        <ele>2096.0</ele>
      </trkpt>
      <trkpt lat="44.31233" lon="6.85343">
        <time>2023-04-10T06:50:41+00:00</time>
        <ele>2097.0</ele>
      </trkpt>
      <trkpt lat="44.31233" lon="6.85343">
        <time>2023-04-10T06:50:42+00:00</time>
        <ele>2097.0</ele>
      </trkpt>
      <trkpt lat="44.3123" lon="6.85341">
        <time>2023-04-10T06:50:43+00:00</time>
        <ele>2097.0</ele>
      </trkpt>
      <trkpt lat="44.3123" lon="6.85341">
        <time>2023-04-10T06:50:44+00:00</time>
        <ele>2097.0</ele>
      </trkpt>
      <trkpt lat="44.31228" lon="6.85339">
        <time>2023-04-10T06:50:45+00:00</time>
        <ele>2098.0</ele>
      </trkpt>
      <trkpt lat="44.31228" lon="6.85339">
        <time>2023-04-10T06:50:46+00:00</time>
        <ele>2098.0</ele>
      </trkpt>
      <trkpt lat="44.31226" lon="6.85338">
        <time>2023-04-10T06:50:47+00:00</time>
        <ele>2098.0</ele>
      </trkpt>
      <trkpt lat="44.31226" lon="6.85338">
        <time>2023-04-10T06:50:48+00:00</time>
        <ele>2098.0</ele>
      </trkpt>
      <trkpt lat="44.31226" lon="6.85338">
        <time>2023-04-10T06:50:49+00:00</time>
        <ele>2098.0</ele>
      </trkpt>
      <trkpt lat="44.31224" lon="6.85336">
        <time>2023-04-10T06:50:50+00:00</time>
        <ele>2099.0</ele>
      </trkpt>
      <trkpt lat="44.31224" lon="6.85336">
        <time>2023-04-10T06:50:51+00:00</time>
        <ele>2099.0</ele>
      </trkpt>
      <trkpt lat="44.31224" lon="6.85336">
        <time>2023-04-10T06:50:52+00:00</time>
        <ele>2099.0</ele>
      </trkpt>
      <trkpt lat="44.31222" lon="6.85335">
        <time>2023-04-10T06:50:53+00:00</time>
        <ele>2099.0</ele>
      </trkpt>
      <trkpt lat="44.31222" lon="6.85335">
        <time>2023-04-10T06:50:54+00:00</time>
        <ele>2099.0</ele>
      </trkpt>
      <trkpt lat="44.31222" lon="6.85335">
        <time>2023-04-10T06:50:55+00:00</time>
        <ele>2099.0</ele>
      </trkpt>
      <trkpt lat="44.3122" lon="6.85334">
        <time>2023-04-10T06:50:56+00:00</time>
        <ele>2099.0</ele>
      </trkpt>
      <trkpt lat="44.3122" lon="6.85334">
        <time>2023-04-10T06:50:57+00:00</time>
        <ele>2099.0</ele>
      </trkpt>
      <trkpt lat="44.31218" lon="6.85333">
        <time>2023-04-10T06:50:58+00:00</time>
        <ele>2100.0</ele>
      </trkpt>
      <trkpt lat="44.31218" lon="6.85333">
        <time>2023-04-10T06:50:59+00:00</time>
        <ele>2100.0</ele>
      </trkpt>
      <trkpt lat="44.31218" lon="6.85333">
        <time>2023-04-10T06:51:00+00:00</time>
        <ele>2100.0</ele>
      </trkpt>
      <trkpt lat="44.31216" lon="6.85331">
        <time>2023-04-10T06:51:01+00:00</time>
        <ele>2100.0</ele>
      </trkpt>
      <trkpt lat="44.31216" lon="6.85331">
        <time>2023-04-10T06:51:02+00:00</time>
        <ele>2100.0</ele>
      </trkpt>
      <trkpt lat="44.31216" lon="6.85331">
        <time>2023-04-10T06:51:03+00:00</time>
        <ele>2100.0</ele>
      </trkpt>
      <trkpt lat="44.31214" lon="6.8533">
        <time>2023-04-10T06:51:04+00:00</time>
        <ele>2099.0</ele>
      </trkpt>
      <trkpt lat="44.31214" lon="6.8533">
        <time>2023-04-10T06:51:05+00:00</time>
        <ele>2099.0</ele>
      </trkpt>
      <trkpt lat="44.31212" lon="6.85328">
        <time>2023-04-10T06:51:06+00:00</time>
        <ele>2100.0</ele>
      </trkpt>
      <trkpt lat="44.31212" lon="6.85328">
        <time>2023-04-10T06:51:07+00:00</time>
        <ele>2100.0</ele>
      </trkpt>
      <trkpt lat="44.3121" lon="6.85327">
        <time>2023-04-10T06:51:08+00:00</time>
        <ele>2099.0</ele>
      </trkpt>
      <trkpt lat="44.3121" lon="6.85327">
        <time>2023-04-10T06:51:09+00:00</time>
        <ele>2099.0</ele>
      </trkpt>
      <trkpt lat="44.31208" lon="6.85327">
        <time>2023-04-10T06:51:10+00:00</time>
        <ele>2099.0</ele>
      </trkpt>
      <trkpt lat="44.31208" lon="6.85327">
        <time>2023-04-10T06:51:11+00:00</time>
        <ele>2099.0</ele>
      </trkpt>
      <trkpt lat="44.31206" lon="6.85325">
        <time>2023-04-10T06:51:12+00:00</time>
        <ele>2099.0</ele>
      </trkpt>
      <trkpt lat="44.31206" lon="6.85325">
        <time>2023-04-10T06:51:13+00:00</time>
        <ele>2099.0</ele>
      </trkpt>
      <trkpt lat="44.31206" lon="6.85325">
        <time>2023-04-10T06:51:14+00:00</time>
        <ele>2099.0</ele>
      </trkpt>
      <trkpt lat="44.31204" lon="6.85324">
        <time>2023-04-10T06:51:15+00:00</time>
        <ele>2099.0</ele>
      </trkpt>
      <trkpt lat="44.31204" lon="6.85324">
        <time>2023-04-10T06:51:16+00:00</time>
        <ele>2099.0</ele>
      </trkpt>
      <trkpt lat="44.31204" lon="6.85324">
        <time>2023-04-10T06:51:17+00:00</time>
        <ele>2099.0</ele>
      </trkpt>
      <trkpt lat="44.31202" lon="6.85322">
        <time>2023-04-10T06:51:18+00:00</time>
        <ele>2099.0</ele>
      </trkpt>
      <trkpt lat="44.31202" lon="6.85322">
        <time>2023-04-10T06:51:19+00:00</time>
        <ele>2099.0</ele>
      </trkpt>
      <trkpt lat="44.312" lon="6.85322">
        <time>2023-04-10T06:51:20+00:00</time>
        <ele>2098.0</ele>
      </trkpt>
      <trkpt lat="44.312" lon="6.85322">
        <time>2023-04-10T06:51:21+00:00</time>
        <ele>2098.0</ele>
      </trkpt>
      <trkpt lat="44.312" lon="6.85322">
        <time>2023-04-10T06:51:22+00:00</time>
        <ele>2098.0</ele>
      </trkpt>
      <trkpt lat="44.312" lon="6.85322">
        <time>2023-04-10T06:51:23+00:00</time>
        <ele>2098.0</ele>
      </trkpt>
      <trkpt lat="44.312" lon="6.85322">
        <time>2023-04-10T06:51:24+00:00</time>
        <ele>2098.0</ele>
      </trkpt>
      <trkpt lat="44.312" lon="6.85322">
        <time>2023-04-10T06:51:25+00:00</time>
        <ele>2098.0</ele>
      </trkpt>
      <trkpt lat="44.312" lon="6.85322">
        <time>2023-04-10T06:51:26+00:00</time>
        <ele>2098.0</ele>
      </trkpt>
      <trkpt lat="44.312" lon="6.85322">
        <time>2023-04-10T06:51:27+00:00</time>
        <ele>2098.0</ele>
      </trkpt>
      <trkpt lat="44.312" lon="6.85322">
        <time>2023-04-10T06:51:28+00:00</time>
        <ele>2098.0</ele>
      </trkpt>
      <trkpt lat="44.312" lon="6.85322">
        <time>2023-04-10T06:51:29+00:00</time>
        <ele>2098.0</ele>
      </trkpt>
      <trkpt lat="44.312" lon="6.85322">
        <time>2023-04-10T06:51:30+00:00</time>
        <ele>2098.0</ele>
      </trkpt>
      <trkpt lat="44.312" lon="6.85322">
        <time>2023-04-10T06:51:31+00:00</time>
        <ele>2098.0</ele>
      </trkpt>
      <trkpt lat="44.312" lon="6.85322">
        <time>2023-04-10T06:51:32+00:00</time>
        <ele>2098.0</ele>
      </trkpt>
      <trkpt lat="44.312" lon="6.85322">
        <time>2023-04-10T06:51:33+00:00</time>
        <ele>2098.0</ele>
      </trkpt>
      <trkpt lat="44.312" lon="6.85322">
        <time>2023-04-10T06:51:34+00:00</time>
        <ele>2098.0</ele>
      </trkpt>
      <trkpt lat="44.312" lon="6.85322">
        <time>2023-04-10T06:51:35+00:00</time>
        <ele>2098.0</ele>
      </trkpt>
      <trkpt lat="44.312" lon="6.85322">
        <time>2023-04-10T06:51:36+00:00</time>
        <ele>2098.0</ele>
      </trkpt>
      <trkpt lat="44.312" lon="6.85322">
        <time>2023-04-10T06:51:37+00:00</time>
        <ele>2098.0</ele>
      </trkpt>
      <trkpt lat="44.312" lon="6.85322">
        <time>2023-04-10T06:51:38+00:00</time>
        <ele>2098.0</ele>
      </trkpt>
      <trkpt lat="44.312" lon="6.85322">
        <time>2023-04-10T06:51:39+00:00</time>
        <ele>2098.0</ele>
      </trkpt>
      <trkpt lat="44.312" lon="6.85322">
        <time>2023-04-10T06:51:40+00:00</time>
        <ele>2098.0</ele>
      </trkpt>
      <trkpt lat="44.312" lon="6.85322">
        <time>2023-04-10T06:51:41+00:00</time>
        <ele>2098.0</ele>
      </trkpt>
      <trkpt lat="44.312" lon="6.85322">
        <time>2023-04-10T06:51:42+00:00</time>
        <ele>2098.0</ele>
      </trkpt>
      <trkpt lat="44.312" lon="6.85322">
        <time>2023-04-10T06:51:43+00:00</time>
        <ele>2098.0</ele>
      </trkpt>
      <trkpt lat="44.312" lon="6.85322">
        <time>2023-04-10T06:51:44+00:00</time>
        <ele>2098.0</ele>
      </trkpt>
      <trkpt lat="44.312" lon="6.85322">
        <time>2023-04-10T06:51:45+00:00</time>
        <ele>2098.0</ele>
      </trkpt>
      <trkpt lat="44.312" lon="6.85322">
        <time>2023-04-10T06:51:46+00:00</time>
        <ele>2098.0</ele>
      </trkpt>
      <trkpt lat="44.312" lon="6.85322">
        <time>2023-04-10T06:51:47+00:00</time>
        <ele>2098.0</ele>
      </trkpt>
      <trkpt lat="44.312" lon="6.85322">
        <time>2023-04-10T06:51:48+00:00</time>
        <ele>2098.0</ele>
      </trkpt>
      <trkpt lat="44.312" lon="6.85322">
        <time>2023-04-10T06:51:49+00:00</time>
        <ele>2098.0</ele>
      </trkpt>
      <trkpt lat="44.312" lon="6.85322">
        <time>2023-04-10T06:51:50+00:00</time>
        <ele>2098.0</ele>
      </trkpt>
      <trkpt lat="44.312" lon="6.85322">
        <time>2023-04-10T06:51:51+00:00</time>
        <ele>2098.0</ele>
      </trkpt>
      <trkpt lat="44.312" lon="6.85322">
        <time>2023-04-10T06:51:52+00:00</time>
        <ele>2098.0</ele>
      </trkpt>
      <trkpt lat="44.312" lon="6.85322">
        <time>2023-04-10T06:51:53+00:00</time>
        <ele>2098.0</ele>
      </trkpt>
      <trkpt lat="44.312" lon="6.85322">
        <time>2023-04-10T06:51:54+00:00</time>
        <ele>2098.0</ele>
      </trkpt>
      <trkpt lat="44.312" lon="6.85322">
        <time>2023-04-10T06:51:55+00:00</time>
        <ele>2098.0</ele>
      </trkpt>
      <trkpt lat="44.312" lon="6.85322">
        <time>2023-04-10T06:51:56+00:00</time>
        <ele>2098.0</ele>
      </trkpt>
      <trkpt lat="44.312" lon="6.85322">
        <time>2023-04-10T06:51:57+00:00</time>
        <ele>2098.0</ele>
      </trkpt>
      <trkpt lat="44.312" lon="6.85322">
        <time>2023-04-10T06:51:58+00:00</time>
        <ele>2098.0</ele>
      </trkpt>
      <trkpt lat="44.312" lon="6.85322">
        <time>2023-04-10T06:51:59+00:00</time>
        <ele>2098.0</ele>
      </trkpt>
      <trkpt lat="44.312" lon="6.85322">
        <time>2023-04-10T06:52:00+00:00</time>
        <ele>2098.0</ele>
      </trkpt>
      <trkpt lat="44.312" lon="6.85322">
        <time>2023-04-10T06:52:01+00:00</time>
        <ele>2098.0</ele>
      </trkpt>
      <trkpt lat="44.312" lon="6.85322">
        <time>2023-04-10T06:52:02+00:00</time>
        <ele>2098.0</ele>
      </trkpt>
      <trkpt lat="44.312" lon="6.85322">
        <time>2023-04-10T06:52:03+00:00</time>
        <ele>2098.0</ele>
      </trkpt>
      <trkpt lat="44.312" lon="6.85322">
        <time>2023-04-10T06:52:04+00:00</time>
        <ele>2098.0</ele>
      </trkpt>
      <trkpt lat="44.312" lon="6.85322">
        <time>2023-04-10T06:52:05+00:00</time>
        <ele>2098.0</ele>
      </trkpt>
      <trkpt lat="44.312" lon="6.85322">
        <time>2023-04-10T06:52:06+00:00</time>
        <ele>2098.0</ele>
      </trkpt>
      <trkpt lat="44.312" lon="6.85322">
        <time>2023-04-10T06:52:07+00:00</time>
        <ele>2098.0</ele>
      </trkpt>
      <trkpt lat="44.312" lon="6.85322">
        <time>2023-04-10T06:52:08+00:00</time>
        <ele>2098.0</ele>
      </trkpt>
      <trkpt lat="44.312" lon="6.85322">
        <time>2023-04-10T06:52:09+00:00</time>
        <ele>2098.0</ele>
      </trkpt>
      <trkpt lat="44.312" lon="6.85322">
        <time>2023-04-10T06:52:10+00:00</time>
        <ele>2098.0</ele>
      </trkpt>
      <trkpt lat="44.312" lon="6.85322">
        <time>2023-04-10T06:52:11+00:00</time>
        <ele>2098.0</ele>
      </trkpt>
      <trkpt lat="44.312" lon="6.85322">
        <time>2023-04-10T06:52:12+00:00</time>
        <ele>2098.0</ele>
      </trkpt>
      <trkpt lat="44.312" lon="6.85322">
        <time>2023-04-10T06:52:13+00:00</time>
        <ele>2098.0</ele>
      </trkpt>
      <trkpt lat="44.312" lon="6.85322">
        <time>2023-04-10T06:52:14+00:00</time>
        <ele>2098.0</ele>
      </trkpt>
      <trkpt lat="44.312" lon="6.85322">
        <time>2023-04-10T06:52:15+00:00</time>
        <ele>2098.0</ele>
      </trkpt>
      <trkpt lat="44.312" lon="6.85322">
        <time>2023-04-10T06:52:16+00:00</time>
        <ele>2098.0</ele>
      </trkpt>
      <trkpt lat="44.312" lon="6.85322">
        <time>2023-04-10T06:52:17+00:00</time>
        <ele>2098.0</ele>
      </trkpt>
      <trkpt lat="44.312" lon="6.85322">
        <time>2023-04-10T06:52:18+00:00</time>
        <ele>2098.0</ele>
      </trkpt>
      <trkpt lat="44.312" lon="6.85322">
        <time>2023-04-10T06:52:19+00:00</time>
        <ele>2098.0</ele>
      </trkpt>
      <trkpt lat="44.312" lon="6.85322">
        <time>2023-04-10T06:52:20+00:00</time>
        <ele>2098.0</ele>
      </trkpt>
      <trkpt lat="44.312" lon="6.85322">
        <time>2023-04-10T06:52:21+00:00</time>
        <ele>2098.0</ele>
      </trkpt>
      <trkpt lat="44.312" lon="6.85322">
        <time>2023-04-10T06:52:22+00:00</time>
        <ele>2098.0</ele>
      </trkpt>
      <trkpt lat="44.312" lon="6.85322">
        <time>2023-04-10T06:52:23+00:00</time>
        <ele>2098.0</ele>
      </trkpt>
      <trkpt lat="44.312" lon="6.85322">
        <time>2023-04-10T06:52:24+00:00</time>
        <ele>2098.0</ele>
      </trkpt>
      <trkpt lat="44.312" lon="6.85322">
        <time>2023-04-10T06:52:25+00:00</time>
        <ele>2098.0</ele>
      </trkpt>
      <trkpt lat="44.312" lon="6.85322">
        <time>2023-04-10T06:52:26+00:00</time>
        <ele>2098.0</ele>
      </trkpt>
      <trkpt lat="44.312" lon="6.85322">
        <time>2023-04-10T06:52:27+00:00</time>
        <ele>2098.0</ele>
      </trkpt>
      <trkpt lat="44.312" lon="6.85322">
        <time>2023-04-10T06:52:28+00:00</time>
        <ele>2098.0</ele>
      </trkpt>
      <trkpt lat="44.312" lon="6.85322">
        <time>2023-04-10T06:52:29+00:00</time>
        <ele>2098.0</ele>
      </trkpt>
      <trkpt lat="44.312" lon="6.85322">
        <time>2023-04-10T06:52:30+00:00</time>
        <ele>2098.0</ele>
      </trkpt>
      <trkpt lat="44.312" lon="6.85322">
        <time>2023-04-10T06:52:31+00:00</time>
        <ele>2098.0</ele>
      </trkpt>
      <trkpt lat="44.312" lon="6.85322">
        <time>2023-04-10T06:52:32+00:00</time>
        <ele>2098.0</ele>
      </trkpt>
      <trkpt lat="44.312" lon="6.85322">
        <time>2023-04-10T06:52:33+00:00</time>
        <ele>2098.0</ele>
      </trkpt>
      <trkpt lat="44.312" lon="6.85322">
        <time>2023-04-10T06:52:34+00:00</time>
        <ele>2098.0</ele>
      </trkpt>
      <trkpt lat="44.312" lon="6.85322">
        <time>2023-04-10T06:52:35+00:00</time>
        <ele>2098.0</ele>
      </trkpt>
      <trkpt lat="44.312" lon="6.85322">
        <time>2023-04-10T06:52:36+00:00</time>
        <ele>2098.0</ele>
      </trkpt>
      <trkpt lat="44.312" lon="6.85322">
        <time>2023-04-10T06:52:37+00:00</time>
        <ele>2098.0</ele>
      </trkpt>
      <trkpt lat="44.312" lon="6.85322">
        <time>2023-04-10T06:52:38+00:00</time>
        <ele>2098.0</ele>
      </trkpt>
      <trkpt lat="44.312" lon="6.85322">
        <time>2023-04-10T06:52:39+00:00</time>
        <ele>2098.0</ele>
      </trkpt>
      <trkpt lat="44.312" lon="6.85322">
        <time>2023-04-10T06:52:40+00:00</time>
        <ele>2098.0</ele>
      </trkpt>
      <trkpt lat="44.312" lon="6.85322">
        <time>2023-04-10T06:52:41+00:00</time>
        <ele>2098.0</ele>
      </trkpt>
      <trkpt lat="44.312" lon="6.85322">
        <time>2023-04-10T06:52:42+00:00</time>
        <ele>2098.0</ele>
      </trkpt>
      <trkpt lat="44.312" lon="6.85322">
        <time>2023-04-10T06:52:43+00:00</time>
        <ele>2098.0</ele>
      </trkpt>
      <trkpt lat="44.312" lon="6.85322">
        <time>2023-04-10T06:52:44+00:00</time>
        <ele>2098.0</ele>
      </trkpt>
      <trkpt lat="44.312" lon="6.85322">
        <time>2023-04-10T06:52:45+00:00</time>
        <ele>2098.0</ele>
      </trkpt>
      <trkpt lat="44.312" lon="6.85322">
        <time>2023-04-10T06:52:46+00:00</time>
        <ele>2098.0</ele>
      </trkpt>
      <trkpt lat="44.312" lon="6.85322">
        <time>2023-04-10T06:52:47+00:00</time>
        <ele>2098.0</ele>
      </trkpt>
      <trkpt lat="44.312" lon="6.85322">
        <time>2023-04-10T06:52:48+00:00</time>
        <ele>2098.0</ele>
      </trkpt>
      <trkpt lat="44.312" lon="6.85322">
        <time>2023-04-10T06:52:49+00:00</time>
        <ele>2098.0</ele>
      </trkpt>
      <trkpt lat="44.312" lon="6.85322">
        <time>2023-04-10T06:52:50+00:00</time>
        <ele>2098.0</ele>
      </trkpt>
      <trkpt lat="44.31196" lon="6.85322">
        <time>2023-04-10T06:52:51+00:00</time>
        <ele>2097.0</ele>
      </trkpt>
      <trkpt lat="44.31196" lon="6.85322">
        <time>2023-04-10T06:52:52+00:00</time>
        <ele>2097.0</ele>
      </trkpt>
      <trkpt lat="44.31196" lon="6.85322">
        <time>2023-04-10T06:52:53+00:00</time>
        <ele>2097.0</ele>
      </trkpt>
      <trkpt lat="44.31196" lon="6.85322">
        <time>2023-04-10T06:52:54+00:00</time>
        <ele>2097.0</ele>
      </trkpt>
      <trkpt lat="44.31196" lon="6.85322">
        <time>2023-04-10T06:52:55+00:00</time>
        <ele>2097.0</ele>
      </trkpt>
      <trkpt lat="44.31196" lon="6.85322">
        <time>2023-04-10T06:52:56+00:00</time>
        <ele>2097.0</ele>
      </trkpt>
      <trkpt lat="44.31196" lon="6.85322">
        <time>2023-04-10T06:52:57+00:00</time>
        <ele>2097.0</ele>
      </trkpt>
      <trkpt lat="44.31196" lon="6.85322">
        <time>2023-04-10T06:52:58+00:00</time>
        <ele>2097.0</ele>
      </trkpt>
      <trkpt lat="44.31196" lon="6.85322">
        <time>2023-04-10T06:52:59+00:00</time>
        <ele>2097.0</ele>
      </trkpt>
      <trkpt lat="44.31196" lon="6.85322">
        <time>2023-04-10T06:53:00+00:00</time>
        <ele>2097.0</ele>
      </trkpt>
      <trkpt lat="44.31196" lon="6.85322">
        <time>2023-04-10T06:53:01+00:00</time>
        <ele>2097.0</ele>
      </trkpt>
      <trkpt lat="44.31196" lon="6.85322">
        <time>2023-04-10T06:53:02+00:00</time>
        <ele>2097.0</ele>
      </trkpt>
      <trkpt lat="44.31196" lon="6.85322">
        <time>2023-04-10T06:53:03+00:00</time>
        <ele>2097.0</ele>
      </trkpt>
      <trkpt lat="44.31196" lon="6.85322">
        <time>2023-04-10T06:53:04+00:00</time>
        <ele>2097.0</ele>
      </trkpt>
      <trkpt lat="44.31196" lon="6.85322">
        <time>2023-04-10T06:53:05+00:00</time>
        <ele>2097.0</ele>
      </trkpt>
      <trkpt lat="44.31196" lon="6.85322">
        <time>2023-04-10T06:53:06+00:00</time>
        <ele>2097.0</ele>
      </trkpt>
      <trkpt lat="44.31197" lon="6.85319">
        <time>2023-04-10T06:53:07+00:00</time>
        <ele>2098.0</ele>
      </trkpt>
      <trkpt lat="44.31197" lon="6.85316">
        <time>2023-04-10T06:53:08+00:00</time>
        <ele>2099.0</ele>
      </trkpt>
      <trkpt lat="44.31197" lon="6.85316">
        <time>2023-04-10T06:53:09+00:00</time>
        <ele>2099.0</ele>
      </trkpt>
      <trkpt lat="44.31197" lon="6.85312">
        <time>2023-04-10T06:53:10+00:00</time>
        <ele>2100.0</ele>
      </trkpt>
      <trkpt lat="44.31197" lon="6.85312">
        <time>2023-04-10T06:53:11+00:00</time>
        <ele>2100.0</ele>
      </trkpt>
      <trkpt lat="44.31197" lon="6.85309">
        <time>2023-04-10T06:53:12+00:00</time>
        <ele>2101.0</ele>
      </trkpt>
      <trkpt lat="44.31198" lon="6.85306">
        <time>2023-04-10T06:53:14+00:00</time>
        <ele>2102.0</ele>
      </trkpt>
      <trkpt lat="44.31198" lon="6.85306">
        <time>2023-04-10T06:53:15+00:00</time>
        <ele>2102.0</ele>
      </trkpt>
      <trkpt lat="44.31198" lon="6.85306">
        <time>2023-04-10T06:53:16+00:00</time>
        <ele>2102.0</ele>
      </trkpt>
      <trkpt lat="44.31198" lon="6.85302">
        <time>2023-04-10T06:53:17+00:00</time>
        <ele>2104.0</ele>
      </trkpt>
      <trkpt lat="44.31198" lon="6.85302">
        <time>2023-04-10T06:53:18+00:00</time>
        <ele>2104.0</ele>
      </trkpt>
      <trkpt lat="44.31198" lon="6.85299">
        <time>2023-04-10T06:53:19+00:00</time>
        <ele>2104.0</ele>
      </trkpt>
      <trkpt lat="44.31198" lon="6.85299">
        <time>2023-04-10T06:53:20+00:00</time>
        <ele>2104.0</ele>
      </trkpt>
      <trkpt lat="44.31198" lon="6.85299">
        <time>2023-04-10T06:53:21+00:00</time>
        <ele>2104.0</ele>
      </trkpt>
      <trkpt lat="44.31197" lon="6.85296">
        <time>2023-04-10T06:53:22+00:00</time>
        <ele>2104.0</ele>
      </trkpt>
      <trkpt lat="44.31197" lon="6.85296">
        <time>2023-04-10T06:53:23+00:00</time>
        <ele>2104.0</ele>
      </trkpt>
      <trkpt lat="44.31197" lon="6.85296">
        <time>2023-04-10T06:53:24+00:00</time>
        <ele>2104.0</ele>
      </trkpt>
      <trkpt lat="44.31196" lon="6.85293">
        <time>2023-04-10T06:53:25+00:00</time>
        <ele>2104.0</ele>
      </trkpt>
      <trkpt lat="44.31196" lon="6.85293">
        <time>2023-04-10T06:53:26+00:00</time>
        <ele>2104.0</ele>
      </trkpt>
      <trkpt lat="44.31196" lon="6.85293">
        <time>2023-04-10T06:53:27+00:00</time>
        <ele>2104.0</ele>
      </trkpt>
      <trkpt lat="44.31194" lon="6.8529">
        <time>2023-04-10T06:53:28+00:00</time>
        <ele>2104.0</ele>
      </trkpt>
      <trkpt lat="44.31194" lon="6.8529">
        <time>2023-04-10T06:53:29+00:00</time>
        <ele>2104.0</ele>
      </trkpt>
      <trkpt lat="44.31194" lon="6.8529">
        <time>2023-04-10T06:53:30+00:00</time>
        <ele>2104.0</ele>
      </trkpt>
      <trkpt lat="44.31194" lon="6.85287">
        <time>2023-04-10T06:53:31+00:00</time>
        <ele>2105.0</ele>
      </trkpt>
      <trkpt lat="44.31194" lon="6.85287">
        <time>2023-04-10T06:53:32+00:00</time>
        <ele>2105.0</ele>
      </trkpt>
      <trkpt lat="44.31193" lon="6.85285">
        <time>2023-04-10T06:53:33+00:00</time>
        <ele>2105.0</ele>
      </trkpt>
      <trkpt lat="44.31193" lon="6.85285">
        <time>2023-04-10T06:53:34+00:00</time>
        <ele>2105.0</ele>
      </trkpt>
      <trkpt lat="44.31192" lon="6.85282">
        <time>2023-04-10T06:53:35+00:00</time>
        <ele>2105.0</ele>
      </trkpt>
      <trkpt lat="44.31192" lon="6.85282">
        <time>2023-04-10T06:53:36+00:00</time>
        <ele>2105.0</ele>
      </trkpt>
      <trkpt lat="44.31192" lon="6.85279">
        <time>2023-04-10T06:53:37+00:00</time>
        <ele>2106.0</ele>
      </trkpt>
      <trkpt lat="44.31192" lon="6.85279">
        <time>2023-04-10T06:53:38+00:00</time>
        <ele>2106.0</ele>
      </trkpt>
      <trkpt lat="44.31191" lon="6.85276">
        <time>2023-04-10T06:53:39+00:00</time>
        <ele>2106.0</ele>
      </trkpt>
      <trkpt lat="44.31191" lon="6.85276">
        <time>2023-04-10T06:53:40+00:00</time>
        <ele>2106.0</ele>
      </trkpt>
      <trkpt lat="44.31191" lon="6.85276">
        <time>2023-04-10T06:53:41+00:00</time>
        <ele>2106.0</ele>
      </trkpt>
      <trkpt lat="44.31192" lon="6.85273">
        <time>2023-04-10T06:53:42+00:00</time>
        <ele>2107.0</ele>
      </trkpt>
      <trkpt lat="44.31192" lon="6.85273">
        <time>2023-04-10T06:53:43+00:00</time>
        <ele>2107.0</ele>
      </trkpt>
      <trkpt lat="44.31192" lon="6.85273">
        <time>2023-04-10T06:53:44+00:00</time>
        <ele>2107.0</ele>
      </trkpt>
      <trkpt lat="44.31192" lon="6.85269">
        <time>2023-04-10T06:53:45+00:00</time>
        <ele>2107.0</ele>
      </trkpt>
      <trkpt lat="44.31192" lon="6.85269">
        <time>2023-04-10T06:53:46+00:00</time>
        <ele>2107.0</ele>
      </trkpt>
      <trkpt lat="44.31192" lon="6.85269">
        <time>2023-04-10T06:53:47+00:00</time>
        <ele>2107.0</ele>
      </trkpt>
      <trkpt lat="44.31192" lon="6.85267">
        <time>2023-04-10T06:53:48+00:00</time>
        <ele>2108.0</ele>
      </trkpt>
      <trkpt lat="44.31192" lon="6.85267">
        <time>2023-04-10T06:53:49+00:00</time>
        <ele>2108.0</ele>
      </trkpt>
      <trkpt lat="44.31192" lon="6.85267">
        <time>2023-04-10T06:53:50+00:00</time>
        <ele>2108.0</ele>
      </trkpt>
      <trkpt lat="44.31191" lon="6.85264">
        <time>2023-04-10T06:53:51+00:00</time>
        <ele>2108.0</ele>
      </trkpt>
      <trkpt lat="44.31191" lon="6.85264">
        <time>2023-04-10T06:53:52+00:00</time>
        <ele>2108.0</ele>
      </trkpt>
      <trkpt lat="44.31191" lon="6.85264">
        <time>2023-04-10T06:53:53+00:00</time>
        <ele>2108.0</ele>
      </trkpt>
      <trkpt lat="44.3119" lon="6.85261">
        <time>2023-04-10T06:53:54+00:00</time>
        <ele>2108.0</ele>
      </trkpt>
      <trkpt lat="44.3119" lon="6.85261">
        <time>2023-04-10T06:53:55+00:00</time>
        <ele>2108.0</ele>
      </trkpt>
      <trkpt lat="44.3119" lon="6.85261">
        <time>2023-04-10T06:53:56+00:00</time>
        <ele>2108.0</ele>
      </trkpt>
      <trkpt lat="44.31189" lon="6.85259">
        <time>2023-04-10T06:53:57+00:00</time>
        <ele>2108.0</ele>
      </trkpt>
      <trkpt lat="44.31189" lon="6.85259">
        <time>2023-04-10T06:53:58+00:00</time>
        <ele>2108.0</ele>
      </trkpt>
      <trkpt lat="44.31189" lon="6.85259">
        <time>2023-04-10T06:53:59+00:00</time>
        <ele>2108.0</ele>
      </trkpt>
      <trkpt lat="44.31189" lon="6.85259">
        <time>2023-04-10T06:54:00+00:00</time>
        <ele>2108.0</ele>
      </trkpt>
      <trkpt lat="44.31189" lon="6.85259">
        <time>2023-04-10T06:54:01+00:00</time>
        <ele>2108.0</ele>
      </trkpt>
      <trkpt lat="44.31189" lon="6.85259">
        <time>2023-04-10T06:54:02+00:00</time>
        <ele>2108.0</ele>
      </trkpt>
      <trkpt lat="44.31188" lon="6.85256">
        <time>2023-04-10T06:54:03+00:00</time>
        <ele>2109.0</ele>
      </trkpt>
      <trkpt lat="44.31188" lon="6.85256">
        <time>2023-04-10T06:54:04+00:00</time>
        <ele>2109.0</ele>
      </trkpt>
      <trkpt lat="44.31188" lon="6.85253">
        <time>2023-04-10T06:54:05+00:00</time>
        <ele>2109.0</ele>
      </trkpt>
      <trkpt lat="44.31188" lon="6.85253">
        <time>2023-04-10T06:54:06+00:00</time>
        <ele>2109.0</ele>
      </trkpt>
      <trkpt lat="44.31187" lon="6.8525">
        <time>2023-04-10T06:54:07+00:00</time>
        <ele>2109.0</ele>
      </trkpt>
      <trkpt lat="44.31187" lon="6.8525">
        <time>2023-04-10T06:54:08+00:00</time>
        <ele>2109.0</ele>
      </trkpt>
      <trkpt lat="44.31187" lon="6.8525">
        <time>2023-04-10T06:54:09+00:00</time>
        <ele>2109.0</ele>
      </trkpt>
      <trkpt lat="44.31185" lon="6.85248">
        <time>2023-04-10T06:54:10+00:00</time>
        <ele>2109.0</ele>
      </trkpt>
      <trkpt lat="44.31185" lon="6.85248">
        <time>2023-04-10T06:54:11+00:00</time>
        <ele>2109.0</ele>
      </trkpt>
      <trkpt lat="44.31183" lon="6.85246">
        <time>2023-04-10T06:54:12+00:00</time>
        <ele>2109.0</ele>
      </trkpt>
      <trkpt lat="44.31183" lon="6.85246">
        <time>2023-04-10T06:54:13+00:00</time>
        <ele>2109.0</ele>
      </trkpt>
      <trkpt lat="44.31182" lon="6.85244">
        <time>2023-04-10T06:54:14+00:00</time>
        <ele>2109.0</ele>
      </trkpt>
      <trkpt lat="44.31182" lon="6.85244">
        <time>2023-04-10T06:54:15+00:00</time>
        <ele>2109.0</ele>
      </trkpt>
      <trkpt lat="44.31182" lon="6.85244">
        <time>2023-04-10T06:54:16+00:00</time>
        <ele>2109.0</ele>
      </trkpt>
      <trkpt lat="44.31182" lon="6.85241">
        <time>2023-04-10T06:54:17+00:00</time>
        <ele>2110.0</ele>
      </trkpt>
      <trkpt lat="44.31182" lon="6.85241">
        <time>2023-04-10T06:54:18+00:00</time>
        <ele>2110.0</ele>
      </trkpt>
      <trkpt lat="44.31181" lon="6.85239">
        <time>2023-04-10T06:54:19+00:00</time>
        <ele>2110.0</ele>
      </trkpt>
      <trkpt lat="44.31181" lon="6.85239">
        <time>2023-04-10T06:54:20+00:00</time>
        <ele>2110.0</ele>
      </trkpt>
      <trkpt lat="44.31181" lon="6.85239">
        <time>2023-04-10T06:54:21+00:00</time>
        <ele>2110.0</ele>
      </trkpt>
      <trkpt lat="44.3118" lon="6.85237">
        <time>2023-04-10T06:54:22+00:00</time>
        <ele>2110.0</ele>
      </trkpt>
      <trkpt lat="44.3118" lon="6.85237">
        <time>2023-04-10T06:54:23+00:00</time>
        <ele>2110.0</ele>
      </trkpt>
      <trkpt lat="44.3118" lon="6.85237">
        <time>2023-04-10T06:54:24+00:00</time>
        <ele>2110.0</ele>
      </trkpt>
      <trkpt lat="44.31178" lon="6.85236">
        <time>2023-04-10T06:54:25+00:00</time>
        <ele>2110.0</ele>
      </trkpt>
      <trkpt lat="44.31178" lon="6.85236">
        <time>2023-04-10T06:54:26+00:00</time>
        <ele>2110.0</ele>
      </trkpt>
      <trkpt lat="44.31178" lon="6.85236">
        <time>2023-04-10T06:54:27+00:00</time>
        <ele>2110.0</ele>
      </trkpt>
      <trkpt lat="44.31175" lon="6.85233">
        <time>2023-04-10T06:54:28+00:00</time>
        <ele>2110.0</ele>
      </trkpt>
      <trkpt lat="44.31175" lon="6.85233">
        <time>2023-04-10T06:54:29+00:00</time>
        <ele>2110.0</ele>
      </trkpt>
      <trkpt lat="44.31174" lon="6.85231">
        <time>2023-04-10T06:54:30+00:00</time>
        <ele>2110.0</ele>
      </trkpt>
      <trkpt lat="44.31174" lon="6.85231">
        <time>2023-04-10T06:54:31+00:00</time>
        <ele>2110.0</ele>
      </trkpt>
      <trkpt lat="44.31174" lon="6.85231">
        <time>2023-04-10T06:54:32+00:00</time>
        <ele>2110.0</ele>
      </trkpt>
      <trkpt lat="44.31172" lon="6.85229">
        <time>2023-04-10T06:54:33+00:00</time>
        <ele>2110.0</ele>
      </trkpt>
      <trkpt lat="44.31172" lon="6.85229">
        <time>2023-04-10T06:54:34+00:00</time>
        <ele>2110.0</ele>
      </trkpt>
      <trkpt lat="44.31171" lon="6.85228">
        <time>2023-04-10T06:54:35+00:00</time>
        <ele>2110.0</ele>
      </trkpt>
      <trkpt lat="44.31171" lon="6.85228">
        <time>2023-04-10T06:54:36+00:00</time>
        <ele>2110.0</ele>
      </trkpt>
      <trkpt lat="44.31171" lon="6.85228">
        <time>2023-04-10T06:54:37+00:00</time>
        <ele>2110.0</ele>
      </trkpt>
      <trkpt lat="44.3117" lon="6.85225">
        <time>2023-04-10T06:54:38+00:00</time>
        <ele>2110.0</ele>
      </trkpt>
      <trkpt lat="44.3117" lon="6.85225">
        <time>2023-04-10T06:54:39+00:00</time>
        <ele>2110.0</ele>
      </trkpt>
      <trkpt lat="44.3117" lon="6.85225">
        <time>2023-04-10T06:54:40+00:00</time>
        <ele>2110.0</ele>
      </trkpt>
      <trkpt lat="44.31168" lon="6.85222">
        <time>2023-04-10T06:54:41+00:00</time>
        <ele>2111.0</ele>
      </trkpt>
      <trkpt lat="44.31168" lon="6.85222">
        <time>2023-04-10T06:54:42+00:00</time>
        <ele>2111.0</ele>
      </trkpt>
      <trkpt lat="44.31167" lon="6.8522">
        <time>2023-04-10T06:54:43+00:00</time>
        <ele>2111.0</ele>
      </trkpt>
      <trkpt lat="44.31167" lon="6.8522">
        <time>2023-04-10T06:54:44+00:00</time>
        <ele>2111.0</ele>
      </trkpt>
      <trkpt lat="44.31167" lon="6.8522">
        <time>2023-04-10T06:54:45+00:00</time>
        <ele>2111.0</ele>
      </trkpt>
      <trkpt lat="44.31165" lon="6.85217">
        <time>2023-04-10T06:54:46+00:00</time>
        <ele>2111.0</ele>
      </trkpt>
      <trkpt lat="44.31165" lon="6.85217">
        <time>2023-04-10T06:54:47+00:00</time>
        <ele>2111.0</ele>
      </trkpt>
      <trkpt lat="44.31164" lon="6.85215">
        <time>2023-04-10T06:54:48+00:00</time>
        <ele>2111.0</ele>
      </trkpt>
      <trkpt lat="44.31164" lon="6.85215">
        <time>2023-04-10T06:54:49+00:00</time>
        <ele>2111.0</ele>
      </trkpt>
      <trkpt lat="44.31164" lon="6.85215">
        <time>2023-04-10T06:54:50+00:00</time>
        <ele>2111.0</ele>
      </trkpt>
      <trkpt lat="44.31162" lon="6.85213">
        <time>2023-04-10T06:54:51+00:00</time>
        <ele>2112.0</ele>
      </trkpt>
      <trkpt lat="44.31162" lon="6.85213">
        <time>2023-04-10T06:54:52+00:00</time>
        <ele>2112.0</ele>
      </trkpt>
      <trkpt lat="44.31162" lon="6.85213">
        <time>2023-04-10T06:54:53+00:00</time>
        <ele>2112.0</ele>
      </trkpt>
      <trkpt lat="44.31161" lon="6.85211">
        <time>2023-04-10T06:54:54+00:00</time>
        <ele>2112.0</ele>
      </trkpt>
      <trkpt lat="44.31161" lon="6.85211">
        <time>2023-04-10T06:54:55+00:00</time>
        <ele>2112.0</ele>
      </trkpt>
      <trkpt lat="44.31161" lon="6.85211">
        <time>2023-04-10T06:54:56+00:00</time>
        <ele>2112.0</ele>
      </trkpt>
      <trkpt lat="44.31159" lon="6.85208">
        <time>2023-04-10T06:54:57+00:00</time>
        <ele>2113.0</ele>
      </trkpt>
      <trkpt lat="44.31159" lon="6.85208">
        <time>2023-04-10T06:54:58+00:00</time>
        <ele>2113.0</ele>
      </trkpt>
      <trkpt lat="44.31159" lon="6.85208">
        <time>2023-04-10T06:54:59+00:00</time>
        <ele>2113.0</ele>
      </trkpt>
      <trkpt lat="44.31157" lon="6.85206">
        <time>2023-04-10T06:55:00+00:00</time>
        <ele>2113.0</ele>
      </trkpt>
      <trkpt lat="44.31157" lon="6.85206">
        <time>2023-04-10T06:55:01+00:00</time>
        <ele>2113.0</ele>
      </trkpt>
      <trkpt lat="44.31156" lon="6.85205">
        <time>2023-04-10T06:55:02+00:00</time>
        <ele>2113.0</ele>
      </trkpt>
      <trkpt lat="44.31156" lon="6.85205">
        <time>2023-04-10T06:55:03+00:00</time>
        <ele>2113.0</ele>
      </trkpt>
      <trkpt lat="44.31153" lon="6.85204">
        <time>2023-04-10T06:55:04+00:00</time>
        <ele>2113.0</ele>
      </trkpt>
      <trkpt lat="44.31153" lon="6.85204">
        <time>2023-04-10T06:55:05+00:00</time>
        <ele>2113.0</ele>
      </trkpt>
      <trkpt lat="44.31151" lon="6.85203">
        <time>2023-04-10T06:55:06+00:00</time>
        <ele>2113.0</ele>
      </trkpt>
      <trkpt lat="44.31151" lon="6.85203">
        <time>2023-04-10T06:55:07+00:00</time>
        <ele>2113.0</ele>
      </trkpt>
      <trkpt lat="44.3115" lon="6.85201">
        <time>2023-04-10T06:55:08+00:00</time>
        <ele>2114.0</ele>
      </trkpt>
      <trkpt lat="44.3115" lon="6.85201">
        <time>2023-04-10T06:55:09+00:00</time>
        <ele>2114.0</ele>
      </trkpt>
      <trkpt lat="44.3115" lon="6.85201">
        <time>2023-04-10T06:55:10+00:00</time>
        <ele>2114.0</ele>
      </trkpt>
      <trkpt lat="44.31149" lon="6.85198">
        <time>2023-04-10T06:55:11+00:00</time>
        <ele>2114.0</ele>
      </trkpt>
      <trkpt lat="44.31149" lon="6.85198">
        <time>2023-04-10T06:55:12+00:00</time>
        <ele>2114.0</ele>
      </trkpt>
      <trkpt lat="44.31149" lon="6.85198">
        <time>2023-04-10T06:55:13+00:00</time>
        <ele>2114.0</ele>
      </trkpt>
      <trkpt lat="44.31148" lon="6.85195">
        <time>2023-04-10T06:55:14+00:00</time>
        <ele>2114.0</ele>
      </trkpt>
      <trkpt lat="44.31148" lon="6.85195">
        <time>2023-04-10T06:55:15+00:00</time>
        <ele>2114.0</ele>
      </trkpt>
      <trkpt lat="44.31147" lon="6.85192">
        <time>2023-04-10T06:55:16+00:00</time>
        <ele>2115.0</ele>
      </trkpt>
      <trkpt lat="44.31147" lon="6.85192">
        <time>2023-04-10T06:55:17+00:00</time>
        <ele>2115.0</ele>
      </trkpt>
      <trkpt lat="44.31147" lon="6.85192">
        <time>2023-04-10T06:55:18+00:00</time>
        <ele>2115.0</ele>
      </trkpt>
      <trkpt lat="44.31146" lon="6.8519">
        <time>2023-04-10T06:55:19+00:00</time>
        <ele>2115.0</ele>
      </trkpt>
      <trkpt lat="44.31146" lon="6.8519">
        <time>2023-04-10T06:55:20+00:00</time>
        <ele>2115.0</ele>
      </trkpt>
      <trkpt lat="44.31146" lon="6.8519">
        <time>2023-04-10T06:55:21+00:00</time>
        <ele>2115.0</ele>
      </trkpt>
      <trkpt lat="44.31144" lon="6.85188">
        <time>2023-04-10T06:55:22+00:00</time>
        <ele>2115.0</ele>
      </trkpt>
      <trkpt lat="44.31144" lon="6.85188">
        <time>2023-04-10T06:55:23+00:00</time>
        <ele>2115.0</ele>
      </trkpt>
      <trkpt lat="44.31144" lon="6.85188">
        <time>2023-04-10T06:55:24+00:00</time>
        <ele>2115.0</ele>
      </trkpt>
      <trkpt lat="44.31144" lon="6.85185">
        <time>2023-04-10T06:55:25+00:00</time>
        <ele>2116.0</ele>
      </trkpt>
      <trkpt lat="44.31144" lon="6.85185">
        <time>2023-04-10T06:55:26+00:00</time>
        <ele>2116.0</ele>
      </trkpt>
      <trkpt lat="44.31144" lon="6.85185">
        <time>2023-04-10T06:55:27+00:00</time>
        <ele>2116.0</ele>
      </trkpt>
      <trkpt lat="44.31143" lon="6.85183">
        <time>2023-04-10T06:55:28+00:00</time>
        <ele>2116.0</ele>
      </trkpt>
      <trkpt lat="44.31143" lon="6.85183">
        <time>2023-04-10T06:55:29+00:00</time>
        <ele>2116.0</ele>
      </trkpt>
      <trkpt lat="44.31143" lon="6.85183">
        <time>2023-04-10T06:55:30+00:00</time>
        <ele>2116.0</ele>
      </trkpt>
      <trkpt lat="44.31143" lon="6.85183">
        <time>2023-04-10T06:55:31+00:00</time>
        <ele>2116.0</ele>
      </trkpt>
      <trkpt lat="44.31141" lon="6.85182">
        <time>2023-04-10T06:55:32+00:00</time>
        <ele>2116.0</ele>
      </trkpt>
      <trkpt lat="44.31141" lon="6.85182">
        <time>2023-04-10T06:55:33+00:00</time>
        <ele>2116.0</ele>
      </trkpt>
      <trkpt lat="44.31139" lon="6.8518">
        <time>2023-04-10T06:55:34+00:00</time>
        <ele>2117.0</ele>
      </trkpt>
      <trkpt lat="44.31139" lon="6.8518">
        <time>2023-04-10T06:55:35+00:00</time>
        <ele>2117.0</ele>
      </trkpt>
      <trkpt lat="44.31139" lon="6.8518">
        <time>2023-04-10T06:55:36+00:00</time>
        <ele>2117.0</ele>
      </trkpt>
      <trkpt lat="44.31138" lon="6.85178">
        <time>2023-04-10T06:55:37+00:00</time>
        <ele>2117.0</ele>
      </trkpt>
      <trkpt lat="44.31138" lon="6.85178">
        <time>2023-04-10T06:55:38+00:00</time>
        <ele>2117.0</ele>
      </trkpt>
      <trkpt lat="44.31138" lon="6.85178">
        <time>2023-04-10T06:55:39+00:00</time>
        <ele>2117.0</ele>
      </trkpt>
      <trkpt lat="44.31138" lon="6.85178">
        <time>2023-04-10T06:55:40+00:00</time>
        <ele>2117.0</ele>
      </trkpt>
      <trkpt lat="44.31138" lon="6.85175">
        <time>2023-04-10T06:55:41+00:00</time>
        <ele>2118.0</ele>
      </trkpt>
      <trkpt lat="44.31138" lon="6.85175">
        <time>2023-04-10T06:55:42+00:00</time>
        <ele>2118.0</ele>
      </trkpt>
      <trkpt lat="44.31138" lon="6.85175">
        <time>2023-04-10T06:55:43+00:00</time>
        <ele>2118.0</ele>
      </trkpt>
      <trkpt lat="44.31136" lon="6.85173">
        <time>2023-04-10T06:55:44+00:00</time>
        <ele>2118.0</ele>
      </trkpt>
      <trkpt lat="44.31136" lon="6.85173">
        <time>2023-04-10T06:55:45+00:00</time>
        <ele>2118.0</ele>
      </trkpt>
      <trkpt lat="44.31136" lon="6.85173">
        <time>2023-04-10T06:55:46+00:00</time>
        <ele>2118.0</ele>
      </trkpt>
      <trkpt lat="44.31136" lon="6.85171">
        <time>2023-04-10T06:55:47+00:00</time>
        <ele>2118.0</ele>
      </trkpt>
      <trkpt lat="44.31136" lon="6.85171">
        <time>2023-04-10T06:55:48+00:00</time>
        <ele>2118.0</ele>
      </trkpt>
      <trkpt lat="44.31136" lon="6.85171">
        <time>2023-04-10T06:55:49+00:00</time>
        <ele>2118.0</ele>
      </trkpt>
      <trkpt lat="44.31136" lon="6.85168">
        <time>2023-04-10T06:55:50+00:00</time>
        <ele>2119.0</ele>
      </trkpt>
      <trkpt lat="44.31136" lon="6.85168">
        <time>2023-04-10T06:55:51+00:00</time>
        <ele>2119.0</ele>
      </trkpt>
      <trkpt lat="44.31136" lon="6.85168">
        <time>2023-04-10T06:55:52+00:00</time>
        <ele>2119.0</ele>
      </trkpt>
      <trkpt lat="44.31136" lon="6.85168">
        <time>2023-04-10T06:55:53+00:00</time>
        <ele>2119.0</ele>
      </trkpt>
      <trkpt lat="44.31135" lon="6.85166">
        <time>2023-04-10T06:55:54+00:00</time>
        <ele>2119.0</ele>
      </trkpt>
      <trkpt lat="44.31135" lon="6.85166">
        <time>2023-04-10T06:55:55+00:00</time>
        <ele>2119.0</ele>
      </trkpt>
      <trkpt lat="44.31135" lon="6.85166">
        <time>2023-04-10T06:55:56+00:00</time>
        <ele>2119.0</ele>
      </trkpt>
      <trkpt lat="44.31134" lon="6.85163">
        <time>2023-04-10T06:55:57+00:00</time>
        <ele>2120.0</ele>
      </trkpt>
      <trkpt lat="44.31134" lon="6.85163">
        <time>2023-04-10T06:55:58+00:00</time>
        <ele>2120.0</ele>
      </trkpt>
      <trkpt lat="44.31134" lon="6.85163">
        <time>2023-04-10T06:55:59+00:00</time>
        <ele>2120.0</ele>
      </trkpt>
      <trkpt lat="44.31133" lon="6.85161">
        <time>2023-04-10T06:56:00+00:00</time>
        <ele>2120.0</ele>
      </trkpt>
      <trkpt lat="44.31133" lon="6.85161">
        <time>2023-04-10T06:56:01+00:00</time>
        <ele>2120.0</ele>
      </trkpt>
      <trkpt lat="44.31133" lon="6.85161">
        <time>2023-04-10T06:56:02+00:00</time>
        <ele>2120.0</ele>
      </trkpt>
      <trkpt lat="44.31132" lon="6.85158">
        <time>2023-04-10T06:56:03+00:00</time>
        <ele>2121.0</ele>
      </trkpt>
      <trkpt lat="44.31132" lon="6.85158">
        <time>2023-04-10T06:56:04+00:00</time>
        <ele>2121.0</ele>
      </trkpt>
      <trkpt lat="44.31132" lon="6.85158">
        <time>2023-04-10T06:56:05+00:00</time>
        <ele>2121.0</ele>
      </trkpt>
      <trkpt lat="44.31132" lon="6.85154">
        <time>2023-04-10T06:56:06+00:00</time>
        <ele>2121.0</ele>
      </trkpt>
      <trkpt lat="44.31132" lon="6.85154">
        <time>2023-04-10T06:56:07+00:00</time>
        <ele>2121.0</ele>
      </trkpt>
      <trkpt lat="44.31132" lon="6.85154">
        <time>2023-04-10T06:56:08+00:00</time>
        <ele>2121.0</ele>
      </trkpt>
      <trkpt lat="44.31133" lon="6.85152">
        <time>2023-04-10T06:56:09+00:00</time>
        <ele>2122.0</ele>
      </trkpt>
      <trkpt lat="44.31133" lon="6.85152">
        <time>2023-04-10T06:56:10+00:00</time>
        <ele>2122.0</ele>
      </trkpt>
      <trkpt lat="44.31133" lon="6.85152">
        <time>2023-04-10T06:56:11+00:00</time>
        <ele>2122.0</ele>
      </trkpt>
      <trkpt lat="44.31133" lon="6.85152">
        <time>2023-04-10T06:56:12+00:00</time>
        <ele>2122.0</ele>
      </trkpt>
      <trkpt lat="44.31133" lon="6.85152">
        <time>2023-04-10T06:56:13+00:00</time>
        <ele>2122.0</ele>
      </trkpt>
      <trkpt lat="44.31133" lon="6.85152">
        <time>2023-04-10T06:56:14+00:00</time>
        <ele>2122.0</ele>
      </trkpt>
      <trkpt lat="44.31133" lon="6.85152">
        <time>2023-04-10T06:56:15+00:00</time>
        <ele>2122.0</ele>
      </trkpt>
      <trkpt lat="44.31131" lon="6.85151">
        <time>2023-04-10T06:56:16+00:00</time>
        <ele>2122.0</ele>
      </trkpt>
      <trkpt lat="44.31131" lon="6.85151">
        <time>2023-04-10T06:56:17+00:00</time>
        <ele>2122.0</ele>
      </trkpt>
      <trkpt lat="44.31131" lon="6.85151">
        <time>2023-04-10T06:56:18+00:00</time>
        <ele>2122.0</ele>
      </trkpt>
      <trkpt lat="44.31131" lon="6.85151">
        <time>2023-04-10T06:56:19+00:00</time>
        <ele>2122.0</ele>
      </trkpt>
      <trkpt lat="44.31129" lon="6.85149">
        <time>2023-04-10T06:56:20+00:00</time>
        <ele>2122.0</ele>
      </trkpt>
      <trkpt lat="44.31129" lon="6.85149">
        <time>2023-04-10T06:56:21+00:00</time>
        <ele>2122.0</ele>
      </trkpt>
      <trkpt lat="44.31129" lon="6.85149">
        <time>2023-04-10T06:56:22+00:00</time>
        <ele>2122.0</ele>
      </trkpt>
      <trkpt lat="44.3113" lon="6.85146">
        <time>2023-04-10T06:56:23+00:00</time>
        <ele>2122.0</ele>
      </trkpt>
      <trkpt lat="44.3113" lon="6.85146">
        <time>2023-04-10T06:56:24+00:00</time>
        <ele>2122.0</ele>
      </trkpt>
      <trkpt lat="44.3113" lon="6.85146">
        <time>2023-04-10T06:56:25+00:00</time>
        <ele>2122.0</ele>
      </trkpt>
      <trkpt lat="44.3113" lon="6.85143">
        <time>2023-04-10T06:56:26+00:00</time>
        <ele>2123.0</ele>
      </trkpt>
      <trkpt lat="44.3113" lon="6.85143">
        <time>2023-04-10T06:56:27+00:00</time>
        <ele>2123.0</ele>
      </trkpt>
      <trkpt lat="44.3113" lon="6.85143">
        <time>2023-04-10T06:56:28+00:00</time>
        <ele>2123.0</ele>
      </trkpt>
      <trkpt lat="44.3113" lon="6.85143">
        <time>2023-04-10T06:56:29+00:00</time>
        <ele>2123.0</ele>
      </trkpt>
      <trkpt lat="44.31128" lon="6.8514">
        <time>2023-04-10T06:56:30+00:00</time>
        <ele>2123.0</ele>
      </trkpt>
      <trkpt lat="44.31128" lon="6.8514">
        <time>2023-04-10T06:56:31+00:00</time>
        <ele>2123.0</ele>
      </trkpt>
      <trkpt lat="44.31128" lon="6.8514">
        <time>2023-04-10T06:56:32+00:00</time>
        <ele>2123.0</ele>
      </trkpt>
      <trkpt lat="44.31128" lon="6.8514">
        <time>2023-04-10T06:56:33+00:00</time>
        <ele>2123.0</ele>
      </trkpt>
      <trkpt lat="44.31128" lon="6.8514">
        <time>2023-04-10T06:56:34+00:00</time>
        <ele>2123.0</ele>
      </trkpt>
      <trkpt lat="44.31128" lon="6.85138">
        <time>2023-04-10T06:56:35+00:00</time>
        <ele>2124.0</ele>
      </trkpt>
      <trkpt lat="44.31128" lon="6.85138">
        <time>2023-04-10T06:56:36+00:00</time>
        <ele>2124.0</ele>
      </trkpt>
      <trkpt lat="44.31128" lon="6.85138">
        <time>2023-04-10T06:56:37+00:00</time>
        <ele>2124.0</ele>
      </trkpt>
      <trkpt lat="44.31127" lon="6.85136">
        <time>2023-04-10T06:56:38+00:00</time>
        <ele>2124.0</ele>
      </trkpt>
      <trkpt lat="44.31127" lon="6.85136">
        <time>2023-04-10T06:56:39+00:00</time>
        <ele>2124.0</ele>
      </trkpt>
      <trkpt lat="44.31127" lon="6.85136">
        <time>2023-04-10T06:56:40+00:00</time>
        <ele>2124.0</ele>
      </trkpt>
      <trkpt lat="44.31125" lon="6.85132">
        <time>2023-04-10T06:56:41+00:00</time>
        <ele>2125.0</ele>
      </trkpt>
      <trkpt lat="44.31125" lon="6.85132">
        <time>2023-04-10T06:56:42+00:00</time>
        <ele>2125.0</ele>
      </trkpt>
      <trkpt lat="44.31125" lon="6.85132">
        <time>2023-04-10T06:56:43+00:00</time>
        <ele>2125.0</ele>
      </trkpt>
      <trkpt lat="44.31124" lon="6.85129">
        <time>2023-04-10T06:56:44+00:00</time>
        <ele>2125.0</ele>
      </trkpt>
      <trkpt lat="44.31124" lon="6.85129">
        <time>2023-04-10T06:56:45+00:00</time>
        <ele>2125.0</ele>
      </trkpt>
      <trkpt lat="44.31124" lon="6.85129">
        <time>2023-04-10T06:56:46+00:00</time>
        <ele>2125.0</ele>
      </trkpt>
      <trkpt lat="44.31122" lon="6.85127">
        <time>2023-04-10T06:56:47+00:00</time>
        <ele>2125.0</ele>
      </trkpt>
      <trkpt lat="44.31122" lon="6.85127">
        <time>2023-04-10T06:56:48+00:00</time>
        <ele>2125.0</ele>
      </trkpt>
      <trkpt lat="44.31122" lon="6.85127">
        <time>2023-04-10T06:56:49+00:00</time>
        <ele>2125.0</ele>
      </trkpt>
      <trkpt lat="44.31121" lon="6.85125">
        <time>2023-04-10T06:56:50+00:00</time>
        <ele>2126.0</ele>
      </trkpt>
      <trkpt lat="44.31121" lon="6.85125">
        <time>2023-04-10T06:56:51+00:00</time>
        <ele>2126.0</ele>
      </trkpt>
      <trkpt lat="44.31119" lon="6.85124">
        <time>2023-04-10T06:56:52+00:00</time>
        <ele>2126.0</ele>
      </trkpt>
      <trkpt lat="44.31119" lon="6.85124">
        <time>2023-04-10T06:56:53+00:00</time>
        <ele>2126.0</ele>
      </trkpt>
      <trkpt lat="44.31119" lon="6.85124">
        <time>2023-04-10T06:56:54+00:00</time>
        <ele>2126.0</ele>
      </trkpt>
      <trkpt lat="44.31117" lon="6.85122">
        <time>2023-04-10T06:56:55+00:00</time>
        <ele>2127.0</ele>
      </trkpt>
      <trkpt lat="44.31117" lon="6.85122">
        <time>2023-04-10T06:56:56+00:00</time>
        <ele>2127.0</ele>
      </trkpt>
      <trkpt lat="44.31117" lon="6.85122">
        <time>2023-04-10T06:56:57+00:00</time>
        <ele>2127.0</ele>
      </trkpt>
      <trkpt lat="44.31117" lon="6.85122">
        <time>2023-04-10T06:56:58+00:00</time>
        <ele>2127.0</ele>
      </trkpt>
      <trkpt lat="44.31115" lon="6.85119">
        <time>2023-04-10T06:56:59+00:00</time>
        <ele>2128.0</ele>
      </trkpt>
      <trkpt lat="44.31115" lon="6.85119">
        <time>2023-04-10T06:57:00+00:00</time>
        <ele>2128.0</ele>
      </trkpt>
      <trkpt lat="44.31115" lon="6.85119">
        <time>2023-04-10T06:57:01+00:00</time>
        <ele>2128.0</ele>
      </trkpt>
      <trkpt lat="44.31113" lon="6.85117">
        <time>2023-04-10T06:57:02+00:00</time>
        <ele>2128.0</ele>
      </trkpt>
      <trkpt lat="44.31113" lon="6.85117">
        <time>2023-04-10T06:57:03+00:00</time>
        <ele>2128.0</ele>
      </trkpt>
      <trkpt lat="44.31113" lon="6.85117">
        <time>2023-04-10T06:57:04+00:00</time>
        <ele>2128.0</ele>
      </trkpt>
      <trkpt lat="44.31113" lon="6.85117">
        <time>2023-04-10T06:57:05+00:00</time>
        <ele>2128.0</ele>
      </trkpt>
      <trkpt lat="44.31113" lon="6.85117">
        <time>2023-04-10T06:57:06+00:00</time>
        <ele>2128.0</ele>
      </trkpt>
      <trkpt lat="44.31113" lon="6.85117">
        <time>2023-04-10T06:57:07+00:00</time>
        <ele>2128.0</ele>
      </trkpt>
      <trkpt lat="44.31113" lon="6.85117">
        <time>2023-04-10T06:57:08+00:00</time>
        <ele>2128.0</ele>
      </trkpt>
      <trkpt lat="44.31113" lon="6.85117">
        <time>2023-04-10T06:57:09+00:00</time>
        <ele>2128.0</ele>
      </trkpt>
      <trkpt lat="44.31113" lon="6.85117">
        <time>2023-04-10T06:57:10+00:00</time>
        <ele>2128.0</ele>
      </trkpt>
      <trkpt lat="44.31113" lon="6.85117">
        <time>2023-04-10T06:57:11+00:00</time>
        <ele>2128.0</ele>
      </trkpt>
      <trkpt lat="44.31113" lon="6.85117">
        <time>2023-04-10T06:57:12+00:00</time>
        <ele>2128.0</ele>
      </trkpt>
      <trkpt lat="44.31113" lon="6.85115">
        <time>2023-04-10T06:57:13+00:00</time>
        <ele>2128.0</ele>
      </trkpt>
      <trkpt lat="44.31113" lon="6.85115">
        <time>2023-04-10T06:57:14+00:00</time>
        <ele>2128.0</ele>
      </trkpt>
      <trkpt lat="44.31113" lon="6.85115">
        <time>2023-04-10T06:57:15+00:00</time>
        <ele>2128.0</ele>
      </trkpt>
      <trkpt lat="44.31113" lon="6.85115">
        <time>2023-04-10T06:57:16+00:00</time>
        <ele>2128.0</ele>
      </trkpt>
      <trkpt lat="44.31113" lon="6.85115">
        <time>2023-04-10T06:57:17+00:00</time>
        <ele>2128.0</ele>
      </trkpt>
      <trkpt lat="44.31112" lon="6.85112">
        <time>2023-04-10T06:57:18+00:00</time>
        <ele>2129.0</ele>
      </trkpt>
      <trkpt lat="44.31112" lon="6.85112">
        <time>2023-04-10T06:57:19+00:00</time>
        <ele>2129.0</ele>
      </trkpt>
      <trkpt lat="44.31112" lon="6.85112">
        <time>2023-04-10T06:57:20+00:00</time>
        <ele>2129.0</ele>
      </trkpt>
      <trkpt lat="44.3111" lon="6.85109">
        <time>2023-04-10T06:57:21+00:00</time>
        <ele>2129.0</ele>
      </trkpt>
      <trkpt lat="44.3111" lon="6.85109">
        <time>2023-04-10T06:57:22+00:00</time>
        <ele>2129.0</ele>
      </trkpt>
      <trkpt lat="44.3111" lon="6.85109">
        <time>2023-04-10T06:57:23+00:00</time>
        <ele>2129.0</ele>
      </trkpt>
      <trkpt lat="44.31109" lon="6.85107">
        <time>2023-04-10T06:57:24+00:00</time>
        <ele>2130.0</ele>
      </trkpt>
      <trkpt lat="44.31109" lon="6.85107">
        <time>2023-04-10T06:57:25+00:00</time>
        <ele>2130.0</ele>
      </trkpt>
      <trkpt lat="44.31109" lon="6.85107">
        <time>2023-04-10T06:57:26+00:00</time>
        <ele>2130.0</ele>
      </trkpt>
      <trkpt lat="44.31107" lon="6.85105">
        <time>2023-04-10T06:57:27+00:00</time>
        <ele>2130.0</ele>
      </trkpt>
      <trkpt lat="44.31107" lon="6.85105">
        <time>2023-04-10T06:57:28+00:00</time>
        <ele>2130.0</ele>
      </trkpt>
      <trkpt lat="44.31107" lon="6.85105">
        <time>2023-04-10T06:57:29+00:00</time>
        <ele>2130.0</ele>
      </trkpt>
      <trkpt lat="44.31106" lon="6.85102">
        <time>2023-04-10T06:57:30+00:00</time>
        <ele>2130.0</ele>
      </trkpt>
      <trkpt lat="44.31106" lon="6.85102">
        <time>2023-04-10T06:57:31+00:00</time>
        <ele>2130.0</ele>
      </trkpt>
      <trkpt lat="44.31106" lon="6.85102">
        <time>2023-04-10T06:57:32+00:00</time>
        <ele>2130.0</ele>
      </trkpt>
      <trkpt lat="44.31105" lon="6.85099">
        <time>2023-04-10T06:57:33+00:00</time>
        <ele>2131.0</ele>
      </trkpt>
      <trkpt lat="44.31105" lon="6.85099">
        <time>2023-04-10T06:57:34+00:00</time>
        <ele>2131.0</ele>
      </trkpt>
      <trkpt lat="44.31105" lon="6.85099">
        <time>2023-04-10T06:57:35+00:00</time>
        <ele>2131.0</ele>
      </trkpt>
      <trkpt lat="44.31105" lon="6.85099">
        <time>2023-04-10T06:57:36+00:00</time>
        <ele>2131.0</ele>
      </trkpt>
      <trkpt lat="44.31105" lon="6.85097">
        <time>2023-04-10T06:57:37+00:00</time>
        <ele>2131.0</ele>
      </trkpt>
      <trkpt lat="44.31105" lon="6.85097">
        <time>2023-04-10T06:57:38+00:00</time>
        <ele>2131.0</ele>
      </trkpt>
      <trkpt lat="44.31105" lon="6.85097">
        <time>2023-04-10T06:57:39+00:00</time>
        <ele>2131.0</ele>
      </trkpt>
      <trkpt lat="44.31104" lon="6.85094">
        <time>2023-04-10T06:57:40+00:00</time>
        <ele>2131.0</ele>
      </trkpt>
      <trkpt lat="44.31104" lon="6.85094">
        <time>2023-04-10T06:57:41+00:00</time>
        <ele>2131.0</ele>
      </trkpt>
      <trkpt lat="44.31104" lon="6.85094">
        <time>2023-04-10T06:57:42+00:00</time>
        <ele>2131.0</ele>
      </trkpt>
      <trkpt lat="44.31106" lon="6.85092">
        <time>2023-04-10T06:57:43+00:00</time>
        <ele>2132.0</ele>
      </trkpt>
      <trkpt lat="44.31106" lon="6.85092">
        <time>2023-04-10T06:57:44+00:00</time>
        <ele>2132.0</ele>
      </trkpt>
      <trkpt lat="44.31106" lon="6.85092">
        <time>2023-04-10T06:57:45+00:00</time>
        <ele>2132.0</ele>
      </trkpt>
      <trkpt lat="44.31106" lon="6.85092">
        <time>2023-04-10T06:57:46+00:00</time>
        <ele>2132.0</ele>
      </trkpt>
      <trkpt lat="44.31105" lon="6.8509">
        <time>2023-04-10T06:57:47+00:00</time>
        <ele>2132.0</ele>
      </trkpt>
      <trkpt lat="44.31105" lon="6.8509">
        <time>2023-04-10T06:57:48+00:00</time>
        <ele>2132.0</ele>
      </trkpt>
      <trkpt lat="44.31105" lon="6.8509">
        <time>2023-04-10T06:57:49+00:00</time>
        <ele>2132.0</ele>
      </trkpt>
      <trkpt lat="44.31105" lon="6.8509">
        <time>2023-04-10T06:57:50+00:00</time>
        <ele>2132.0</ele>
      </trkpt>
      <trkpt lat="44.31104" lon="6.85087">
        <time>2023-04-10T06:57:51+00:00</time>
        <ele>2132.0</ele>
      </trkpt>
      <trkpt lat="44.31104" lon="6.85087">
        <time>2023-04-10T06:57:52+00:00</time>
        <ele>2132.0</ele>
      </trkpt>
      <trkpt lat="44.31104" lon="6.85087">
        <time>2023-04-10T06:57:53+00:00</time>
        <ele>2132.0</ele>
      </trkpt>
      <trkpt lat="44.31103" lon="6.85084">
        <time>2023-04-10T06:57:54+00:00</time>
        <ele>2133.0</ele>
      </trkpt>
      <trkpt lat="44.31103" lon="6.85084">
        <time>2023-04-10T06:57:55+00:00</time>
        <ele>2133.0</ele>
      </trkpt>
      <trkpt lat="44.31102" lon="6.85081">
        <time>2023-04-10T06:57:56+00:00</time>
        <ele>2133.0</ele>
      </trkpt>
      <trkpt lat="44.31102" lon="6.85081">
        <time>2023-04-10T06:57:57+00:00</time>
        <ele>2133.0</ele>
      </trkpt>
      <trkpt lat="44.31102" lon="6.85081">
        <time>2023-04-10T06:57:58+00:00</time>
        <ele>2133.0</ele>
      </trkpt>
      <trkpt lat="44.31102" lon="6.85078">
        <time>2023-04-10T06:57:59+00:00</time>
        <ele>2134.0</ele>
      </trkpt>
      <trkpt lat="44.31102" lon="6.85078">
        <time>2023-04-10T06:58:00+00:00</time>
        <ele>2134.0</ele>
      </trkpt>
      <trkpt lat="44.31102" lon="6.85078">
        <time>2023-04-10T06:58:01+00:00</time>
        <ele>2134.0</ele>
      </trkpt>
      <trkpt lat="44.311" lon="6.85075">
        <time>2023-04-10T06:58:02+00:00</time>
        <ele>2135.0</ele>
      </trkpt>
      <trkpt lat="44.311" lon="6.85075">
        <time>2023-04-10T06:58:03+00:00</time>
        <ele>2135.0</ele>
      </trkpt>
      <trkpt lat="44.311" lon="6.85075">
        <time>2023-04-10T06:58:04+00:00</time>
        <ele>2135.0</ele>
      </trkpt>
      <trkpt lat="44.31099" lon="6.85072">
        <time>2023-04-10T06:58:05+00:00</time>
        <ele>2136.0</ele>
      </trkpt>
      <trkpt lat="44.31099" lon="6.85072">
        <time>2023-04-10T06:58:06+00:00</time>
        <ele>2136.0</ele>
      </trkpt>
      <trkpt lat="44.31099" lon="6.85072">
        <time>2023-04-10T06:58:07+00:00</time>
        <ele>2136.0</ele>
      </trkpt>
      <trkpt lat="44.31097" lon="6.8507">
        <time>2023-04-10T06:58:08+00:00</time>
        <ele>2136.0</ele>
      </trkpt>
      <trkpt lat="44.31097" lon="6.8507">
        <time>2023-04-10T06:58:09+00:00</time>
        <ele>2136.0</ele>
      </trkpt>
      <trkpt lat="44.31097" lon="6.8507">
        <time>2023-04-10T06:58:10+00:00</time>
        <ele>2136.0</ele>
      </trkpt>
      <trkpt lat="44.31096" lon="6.85067">
        <time>2023-04-10T06:58:11+00:00</time>
        <ele>2137.0</ele>
      </trkpt>
      <trkpt lat="44.31096" lon="6.85067">
        <time>2023-04-10T06:58:12+00:00</time>
        <ele>2137.0</ele>
      </trkpt>
      <trkpt lat="44.31096" lon="6.85067">
        <time>2023-04-10T06:58:13+00:00</time>
        <ele>2137.0</ele>
      </trkpt>
      <trkpt lat="44.31094" lon="6.85064">
        <time>2023-04-10T06:58:14+00:00</time>
        <ele>2138.0</ele>
      </trkpt>
      <trkpt lat="44.31094" lon="6.85064">
        <time>2023-04-10T06:58:15+00:00</time>
        <ele>2138.0</ele>
      </trkpt>
      <trkpt lat="44.31094" lon="6.85064">
        <time>2023-04-10T06:58:16+00:00</time>
        <ele>2138.0</ele>
      </trkpt>
      <trkpt lat="44.31093" lon="6.85062">
        <time>2023-04-10T06:58:17+00:00</time>
        <ele>2138.0</ele>
      </trkpt>
      <trkpt lat="44.31093" lon="6.85062">
        <time>2023-04-10T06:58:18+00:00</time>
        <ele>2138.0</ele>
      </trkpt>
      <trkpt lat="44.31093" lon="6.85062">
        <time>2023-04-10T06:58:19+00:00</time>
        <ele>2138.0</ele>
      </trkpt>
      <trkpt lat="44.31093" lon="6.85059">
        <time>2023-04-10T06:58:20+00:00</time>
        <ele>2138.0</ele>
      </trkpt>
      <trkpt lat="44.31093" lon="6.85059">
        <time>2023-04-10T06:58:21+00:00</time>
        <ele>2138.0</ele>
      </trkpt>
      <trkpt lat="44.31093" lon="6.85056">
        <time>2023-04-10T06:58:22+00:00</time>
        <ele>2139.0</ele>
      </trkpt>
      <trkpt lat="44.31093" lon="6.85056">
        <time>2023-04-10T06:58:23+00:00</time>
        <ele>2139.0</ele>
      </trkpt>
      <trkpt lat="44.31093" lon="6.85054">
        <time>2023-04-10T06:58:24+00:00</time>
        <ele>2139.0</ele>
      </trkpt>
      <trkpt lat="44.31093" lon="6.85054">
        <time>2023-04-10T06:58:25+00:00</time>
        <ele>2139.0</ele>
      </trkpt>
      <trkpt lat="44.31093" lon="6.85054">
        <time>2023-04-10T06:58:26+00:00</time>
        <ele>2139.0</ele>
      </trkpt>
      <trkpt lat="44.31092" lon="6.85051">
        <time>2023-04-10T06:58:27+00:00</time>
        <ele>2140.0</ele>
      </trkpt>
      <trkpt lat="44.31092" lon="6.85051">
        <time>2023-04-10T06:58:28+00:00</time>
        <ele>2140.0</ele>
      </trkpt>
      <trkpt lat="44.31092" lon="6.85051">
        <time>2023-04-10T06:58:29+00:00</time>
        <ele>2140.0</ele>
      </trkpt>
      <trkpt lat="44.31092" lon="6.85051">
        <time>2023-04-10T06:58:30+00:00</time>
        <ele>2140.0</ele>
      </trkpt>
      <trkpt lat="44.31092" lon="6.85051">
        <time>2023-04-10T06:58:31+00:00</time>
        <ele>2140.0</ele>
      </trkpt>
      <trkpt lat="44.31092" lon="6.85051">
        <time>2023-04-10T06:58:32+00:00</time>
        <ele>2140.0</ele>
      </trkpt>
      <trkpt lat="44.31092" lon="6.85051">
        <time>2023-04-10T06:58:33+00:00</time>
        <ele>2140.0</ele>
      </trkpt>
      <trkpt lat="44.31089" lon="6.8505">
        <time>2023-04-10T06:58:34+00:00</time>
        <ele>2140.0</ele>
      </trkpt>
      <trkpt lat="44.31089" lon="6.8505">
        <time>2023-04-10T06:58:35+00:00</time>
        <ele>2140.0</ele>
      </trkpt>
      <trkpt lat="44.31089" lon="6.8505">
        <time>2023-04-10T06:58:36+00:00</time>
        <ele>2140.0</ele>
      </trkpt>
      <trkpt lat="44.31087" lon="6.8505">
        <time>2023-04-10T06:58:37+00:00</time>
        <ele>2140.0</ele>
      </trkpt>
      <trkpt lat="44.31087" lon="6.8505">
        <time>2023-04-10T06:58:38+00:00</time>
        <ele>2140.0</ele>
      </trkpt>
      <trkpt lat="44.31087" lon="6.8505">
        <time>2023-04-10T06:58:39+00:00</time>
        <ele>2140.0</ele>
      </trkpt>
      <trkpt lat="44.31085" lon="6.8505">
        <time>2023-04-10T06:58:40+00:00</time>
        <ele>2141.0</ele>
      </trkpt>
      <trkpt lat="44.31085" lon="6.8505">
        <time>2023-04-10T06:58:41+00:00</time>
        <ele>2141.0</ele>
      </trkpt>
      <trkpt lat="44.31085" lon="6.8505">
        <time>2023-04-10T06:58:42+00:00</time>
        <ele>2141.0</ele>
      </trkpt>
      <trkpt lat="44.31085" lon="6.8505">
        <time>2023-04-10T06:58:43+00:00</time>
        <ele>2141.0</ele>
      </trkpt>
      <trkpt lat="44.31085" lon="6.8505">
        <time>2023-04-10T06:58:44+00:00</time>
        <ele>2141.0</ele>
      </trkpt>
      <trkpt lat="44.31085" lon="6.8505">
        <time>2023-04-10T06:58:45+00:00</time>
        <ele>2141.0</ele>
      </trkpt>
      <trkpt lat="44.31085" lon="6.8505">
        <time>2023-04-10T06:58:46+00:00</time>
        <ele>2141.0</ele>
      </trkpt>
      <trkpt lat="44.31085" lon="6.8505">
        <time>2023-04-10T06:58:47+00:00</time>
        <ele>2141.0</ele>
      </trkpt>
      <trkpt lat="44.31085" lon="6.8505">
        <time>2023-04-10T06:58:48+00:00</time>
        <ele>2141.0</ele>
      </trkpt>
      <trkpt lat="44.31085" lon="6.8505">
        <time>2023-04-10T06:58:49+00:00</time>
        <ele>2141.0</ele>
      </trkpt>
      <trkpt lat="44.31085" lon="6.8505">
        <time>2023-04-10T06:58:50+00:00</time>
        <ele>2141.0</ele>
      </trkpt>
      <trkpt lat="44.31085" lon="6.8505">
        <time>2023-04-10T06:58:51+00:00</time>
        <ele>2141.0</ele>
      </trkpt>
      <trkpt lat="44.31087" lon="6.85051">
        <time>2023-04-10T06:58:52+00:00</time>
        <ele>2140.0</ele>
      </trkpt>
      <trkpt lat="44.31087" lon="6.85051">
        <time>2023-04-10T06:58:53+00:00</time>
        <ele>2140.0</ele>
      </trkpt>
      <trkpt lat="44.31087" lon="6.85051">
        <time>2023-04-10T06:58:54+00:00</time>
        <ele>2140.0</ele>
      </trkpt>
      <trkpt lat="44.31087" lon="6.85051">
        <time>2023-04-10T06:58:55+00:00</time>
        <ele>2140.0</ele>
      </trkpt>
      <trkpt lat="44.31087" lon="6.85051">
        <time>2023-04-10T06:58:56+00:00</time>
        <ele>2140.0</ele>
      </trkpt>
      <trkpt lat="44.31087" lon="6.85051">
        <time>2023-04-10T06:58:57+00:00</time>
        <ele>2140.0</ele>
      </trkpt>
      <trkpt lat="44.31087" lon="6.85051">
        <time>2023-04-10T06:58:58+00:00</time>
        <ele>2140.0</ele>
      </trkpt>
      <trkpt lat="44.31087" lon="6.85051">
        <time>2023-04-10T06:58:59+00:00</time>
        <ele>2140.0</ele>
      </trkpt>
      <trkpt lat="44.31087" lon="6.85051">
        <time>2023-04-10T06:59:00+00:00</time>
        <ele>2140.0</ele>
      </trkpt>
      <trkpt lat="44.31087" lon="6.85051">
        <time>2023-04-10T06:59:01+00:00</time>
        <ele>2140.0</ele>
      </trkpt>
      <trkpt lat="44.31087" lon="6.85051">
        <time>2023-04-10T06:59:02+00:00</time>
        <ele>2140.0</ele>
      </trkpt>
      <trkpt lat="44.31087" lon="6.85051">
        <time>2023-04-10T06:59:03+00:00</time>
        <ele>2140.0</ele>
      </trkpt>
      <trkpt lat="44.31087" lon="6.85051">
        <time>2023-04-10T06:59:04+00:00</time>
        <ele>2140.0</ele>
      </trkpt>
      <trkpt lat="44.31087" lon="6.85051">
        <time>2023-04-10T06:59:05+00:00</time>
        <ele>2140.0</ele>
      </trkpt>
      <trkpt lat="44.31087" lon="6.85051">
        <time>2023-04-10T06:59:06+00:00</time>
        <ele>2140.0</ele>
      </trkpt>
      <trkpt lat="44.31087" lon="6.85051">
        <time>2023-04-10T06:59:07+00:00</time>
        <ele>2140.0</ele>
      </trkpt>
      <trkpt lat="44.31087" lon="6.85051">
        <time>2023-04-10T06:59:08+00:00</time>
        <ele>2140.0</ele>
      </trkpt>
      <trkpt lat="44.31087" lon="6.85051">
        <time>2023-04-10T06:59:09+00:00</time>
        <ele>2140.0</ele>
      </trkpt>
      <trkpt lat="44.31087" lon="6.85051">
        <time>2023-04-10T06:59:10+00:00</time>
        <ele>2140.0</ele>
      </trkpt>
      <trkpt lat="44.31087" lon="6.85051">
        <time>2023-04-10T06:59:11+00:00</time>
        <ele>2140.0</ele>
      </trkpt>
      <trkpt lat="44.31087" lon="6.85051">
        <time>2023-04-10T06:59:12+00:00</time>
        <ele>2140.0</ele>
      </trkpt>
      <trkpt lat="44.31087" lon="6.85051">
        <time>2023-04-10T06:59:13+00:00</time>
        <ele>2140.0</ele>
      </trkpt>
      <trkpt lat="44.31087" lon="6.85051">
        <time>2023-04-10T06:59:14+00:00</time>
        <ele>2140.0</ele>
      </trkpt>
      <trkpt lat="44.31087" lon="6.85051">
        <time>2023-04-10T06:59:15+00:00</time>
        <ele>2140.0</ele>
      </trkpt>
      <trkpt lat="44.31087" lon="6.85051">
        <time>2023-04-10T06:59:16+00:00</time>
        <ele>2140.0</ele>
      </trkpt>
      <trkpt lat="44.31087" lon="6.85051">
        <time>2023-04-10T06:59:17+00:00</time>
        <ele>2140.0</ele>
      </trkpt>
      <trkpt lat="44.31087" lon="6.85051">
        <time>2023-04-10T06:59:18+00:00</time>
        <ele>2140.0</ele>
      </trkpt>
      <trkpt lat="44.31087" lon="6.85051">
        <time>2023-04-10T06:59:19+00:00</time>
        <ele>2140.0</ele>
      </trkpt>
      <trkpt lat="44.31087" lon="6.85051">
        <time>2023-04-10T06:59:20+00:00</time>
        <ele>2140.0</ele>
      </trkpt>
      <trkpt lat="44.31087" lon="6.85051">
        <time>2023-04-10T06:59:21+00:00</time>
        <ele>2140.0</ele>
      </trkpt>
      <trkpt lat="44.31087" lon="6.85051">
        <time>2023-04-10T06:59:22+00:00</time>
        <ele>2140.0</ele>
      </trkpt>
      <trkpt lat="44.31087" lon="6.85051">
        <time>2023-04-10T06:59:23+00:00</time>
        <ele>2140.0</ele>
      </trkpt>
      <trkpt lat="44.31087" lon="6.85051">
        <time>2023-04-10T06:59:24+00:00</time>
        <ele>2140.0</ele>
      </trkpt>
      <trkpt lat="44.31087" lon="6.85051">
        <time>2023-04-10T06:59:25+00:00</time>
        <ele>2140.0</ele>
      </trkpt>
      <trkpt lat="44.31087" lon="6.85051">
        <time>2023-04-10T06:59:26+00:00</time>
        <ele>2140.0</ele>
      </trkpt>
      <trkpt lat="44.31087" lon="6.85051">
        <time>2023-04-10T06:59:27+00:00</time>
        <ele>2140.0</ele>
      </trkpt>
      <trkpt lat="44.31087" lon="6.85051">
        <time>2023-04-10T06:59:28+00:00</time>
        <ele>2140.0</ele>
      </trkpt>
      <trkpt lat="44.31087" lon="6.85051">
        <time>2023-04-10T06:59:29+00:00</time>
        <ele>2140.0</ele>
      </trkpt>
      <trkpt lat="44.31087" lon="6.85051">
        <time>2023-04-10T06:59:30+00:00</time>
        <ele>2140.0</ele>
      </trkpt>
      <trkpt lat="44.31087" lon="6.85051">
        <time>2023-04-10T06:59:31+00:00</time>
        <ele>2140.0</ele>
      </trkpt>
      <trkpt lat="44.31087" lon="6.85051">
        <time>2023-04-10T06:59:32+00:00</time>
        <ele>2140.0</ele>
      </trkpt>
      <trkpt lat="44.31087" lon="6.85051">
        <time>2023-04-10T06:59:33+00:00</time>
        <ele>2140.0</ele>
      </trkpt>
      <trkpt lat="44.31087" lon="6.85051">
        <time>2023-04-10T06:59:34+00:00</time>
        <ele>2140.0</ele>
      </trkpt>
      <trkpt lat="44.31087" lon="6.85051">
        <time>2023-04-10T06:59:35+00:00</time>
        <ele>2140.0</ele>
      </trkpt>
      <trkpt lat="44.31087" lon="6.85051">
        <time>2023-04-10T06:59:36+00:00</time>
        <ele>2140.0</ele>
      </trkpt>
      <trkpt lat="44.31087" lon="6.85051">
        <time>2023-04-10T06:59:37+00:00</time>
        <ele>2140.0</ele>
      </trkpt>
      <trkpt lat="44.31087" lon="6.85052">
        <time>2023-04-10T06:59:38+00:00</time>
        <ele>2140.0</ele>
      </trkpt>
      <trkpt lat="44.31087" lon="6.85052">
        <time>2023-04-10T06:59:39+00:00</time>
        <ele>2140.0</ele>
      </trkpt>
      <trkpt lat="44.31087" lon="6.85052">
        <time>2023-04-10T06:59:40+00:00</time>
        <ele>2140.0</ele>
      </trkpt>
      <trkpt lat="44.31087" lon="6.85052">
        <time>2023-04-10T06:59:41+00:00</time>
        <ele>2140.0</ele>
      </trkpt>
      <trkpt lat="44.31087" lon="6.85052">
        <time>2023-04-10T06:59:42+00:00</time>
        <ele>2140.0</ele>
      </trkpt>
      <trkpt lat="44.31087" lon="6.85052">
        <time>2023-04-10T06:59:43+00:00</time>
        <ele>2140.0</ele>
      </trkpt>
      <trkpt lat="44.31087" lon="6.85052">
        <time>2023-04-10T06:59:44+00:00</time>
        <ele>2140.0</ele>
      </trkpt>
      <trkpt lat="44.31087" lon="6.85052">
        <time>2023-04-10T06:59:45+00:00</time>
        <ele>2140.0</ele>
      </trkpt>
      <trkpt lat="44.31087" lon="6.85052">
        <time>2023-04-10T06:59:46+00:00</time>
        <ele>2140.0</ele>
      </trkpt>
      <trkpt lat="44.31087" lon="6.85052">
        <time>2023-04-10T06:59:47+00:00</time>
        <ele>2140.0</ele>
      </trkpt>
      <trkpt lat="44.31087" lon="6.85052">
        <time>2023-04-10T06:59:48+00:00</time>
        <ele>2140.0</ele>
      </trkpt>
      <trkpt lat="44.31087" lon="6.85052">
        <time>2023-04-10T06:59:49+00:00</time>
        <ele>2140.0</ele>
      </trkpt>
      <trkpt lat="44.31087" lon="6.85052">
        <time>2023-04-10T06:59:50+00:00</time>
        <ele>2140.0</ele>
      </trkpt>
      <trkpt lat="44.31087" lon="6.85052">
        <time>2023-04-10T06:59:51+00:00</time>
        <ele>2140.0</ele>
      </trkpt>
      <trkpt lat="44.31087" lon="6.85052">
        <time>2023-04-10T06:59:52+00:00</time>
        <ele>2140.0</ele>
      </trkpt>
      <trkpt lat="44.31087" lon="6.85052">
        <time>2023-04-10T06:59:53+00:00</time>
        <ele>2140.0</ele>
      </trkpt>
      <trkpt lat="44.31087" lon="6.85052">
        <time>2023-04-10T06:59:54+00:00</time>
        <ele>2140.0</ele>
      </trkpt>
      <trkpt lat="44.31087" lon="6.85052">
        <time>2023-04-10T06:59:55+00:00</time>
        <ele>2140.0</ele>
      </trkpt>
      <trkpt lat="44.31087" lon="6.85052">
        <time>2023-04-10T06:59:56+00:00</time>
        <ele>2140.0</ele>
      </trkpt>
      <trkpt lat="44.31087" lon="6.85052">
        <time>2023-04-10T06:59:57+00:00</time>
        <ele>2140.0</ele>
      </trkpt>
      <trkpt lat="44.31087" lon="6.85052">
        <time>2023-04-10T06:59:58+00:00</time>
        <ele>2140.0</ele>
      </trkpt>
      <trkpt lat="44.31087" lon="6.85052">
        <time>2023-04-10T06:59:59+00:00</time>
        <ele>2140.0</ele>
      </trkpt>
      <trkpt lat="44.31087" lon="6.85052">
        <time>2023-04-10T07:00:00+00:00</time>
        <ele>2140.0</ele>
      </trkpt>
      <trkpt lat="44.31087" lon="6.85052">
        <time>2023-04-10T07:00:03+00:00</time>
        <ele>2140.0</ele>
      </trkpt>
      <trkpt lat="44.31087" lon="6.85052">
        <time>2023-04-10T07:00:04+00:00</time>
        <ele>2140.0</ele>
      </trkpt>
      <trkpt lat="44.31087" lon="6.85052">
        <time>2023-04-10T07:00:05+00:00</time>
        <ele>2140.0</ele>
      </trkpt>
      <trkpt lat="44.31087" lon="6.85052">
        <time>2023-04-10T07:00:06+00:00</time>
        <ele>2140.0</ele>
      </trkpt>
      <trkpt lat="44.31087" lon="6.85052">
        <time>2023-04-10T07:00:07+00:00</time>
        <ele>2140.0</ele>
      </trkpt>
      <trkpt lat="44.31087" lon="6.85052">
        <time>2023-04-10T07:00:08+00:00</time>
        <ele>2140.0</ele>
      </trkpt>
      <trkpt lat="44.31087" lon="6.85052">
        <time>2023-04-10T07:00:09+00:00</time>
        <ele>2140.0</ele>
      </trkpt>
      <trkpt lat="44.31087" lon="6.85052">
        <time>2023-04-10T07:00:10+00:00</time>
        <ele>2140.0</ele>
      </trkpt>
      <trkpt lat="44.31087" lon="6.85052">
        <time>2023-04-10T07:00:11+00:00</time>
        <ele>2140.0</ele>
      </trkpt>
      <trkpt lat="44.31087" lon="6.85052">
        <time>2023-04-10T07:00:12+00:00</time>
        <ele>2140.0</ele>
      </trkpt>
      <trkpt lat="44.31087" lon="6.85052">
        <time>2023-04-10T07:00:13+00:00</time>
        <ele>2140.0</ele>
      </trkpt>
      <trkpt lat="44.31087" lon="6.85052">
        <time>2023-04-10T07:00:14+00:00</time>
        <ele>2140.0</ele>
      </trkpt>
      <trkpt lat="44.31087" lon="6.85052">
        <time>2023-04-10T07:00:15+00:00</time>
        <ele>2140.0</ele>
      </trkpt>
      <trkpt lat="44.31087" lon="6.85052">
        <time>2023-04-10T07:00:16+00:00</time>
        <ele>2140.0</ele>
      </trkpt>
      <trkpt lat="44.31087" lon="6.85052">
        <time>2023-04-10T07:00:17+00:00</time>
        <ele>2140.0</ele>
      </trkpt>
      <trkpt lat="44.31087" lon="6.85052">
        <time>2023-04-10T07:00:18+00:00</time>
        <ele>2140.0</ele>
      </trkpt>
      <trkpt lat="44.31087" lon="6.85052">
        <time>2023-04-10T07:00:19+00:00</time>
        <ele>2140.0</ele>
      </trkpt>
      <trkpt lat="44.31087" lon="6.85052">
        <time>2023-04-10T07:00:20+00:00</time>
        <ele>2140.0</ele>
      </trkpt>
      <trkpt lat="44.31087" lon="6.85052">
        <time>2023-04-10T07:00:21+00:00</time>
        <ele>2140.0</ele>
      </trkpt>
      <trkpt lat="44.31087" lon="6.85052">
        <time>2023-04-10T07:00:22+00:00</time>
        <ele>2140.0</ele>
      </trkpt>
      <trkpt lat="44.31087" lon="6.85052">
        <time>2023-04-10T07:00:23+00:00</time>
        <ele>2140.0</ele>
      </trkpt>
      <trkpt lat="44.31087" lon="6.85052">
        <time>2023-04-10T07:00:24+00:00</time>
        <ele>2140.0</ele>
      </trkpt>
      <trkpt lat="44.31087" lon="6.85052">
        <time>2023-04-10T07:00:25+00:00</time>
        <ele>2140.0</ele>
      </trkpt>
      <trkpt lat="44.31087" lon="6.85052">
        <time>2023-04-10T07:00:26+00:00</time>
        <ele>2140.0</ele>
      </trkpt>
      <trkpt lat="44.31087" lon="6.85052">
        <time>2023-04-10T07:00:27+00:00</time>
        <ele>2140.0</ele>
      </trkpt>
      <trkpt lat="44.31086" lon="6.85052">
        <time>2023-04-10T07:00:28+00:00</time>
        <ele>2140.0</ele>
      </trkpt>
      <trkpt lat="44.31086" lon="6.85052">
        <time>2023-04-10T07:00:29+00:00</time>
        <ele>2140.0</ele>
      </trkpt>
      <trkpt lat="44.31086" lon="6.85052">
        <time>2023-04-10T07:00:30+00:00</time>
        <ele>2140.0</ele>
      </trkpt>
      <trkpt lat="44.31086" lon="6.85052">
        <time>2023-04-10T07:00:31+00:00</time>
        <ele>2140.0</ele>
      </trkpt>
      <trkpt lat="44.31086" lon="6.85052">
        <time>2023-04-10T07:00:32+00:00</time>
        <ele>2140.0</ele>
      </trkpt>
      <trkpt lat="44.31086" lon="6.85052">
        <time>2023-04-10T07:00:34+00:00</time>
        <ele>2140.0</ele>
      </trkpt>
      <trkpt lat="44.31086" lon="6.85053">
        <time>2023-04-10T07:00:35+00:00</time>
        <ele>2140.0</ele>
      </trkpt>
      <trkpt lat="44.31086" lon="6.85053">
        <time>2023-04-10T07:00:36+00:00</time>
        <ele>2140.0</ele>
      </trkpt>
      <trkpt lat="44.31086" lon="6.85053">
        <time>2023-04-10T07:00:37+00:00</time>
        <ele>2140.0</ele>
      </trkpt>
      <trkpt lat="44.31086" lon="6.85053">
        <time>2023-04-10T07:00:38+00:00</time>
        <ele>2140.0</ele>
      </trkpt>
      <trkpt lat="44.31086" lon="6.85053">
        <time>2023-04-10T07:00:39+00:00</time>
        <ele>2140.0</ele>
      </trkpt>
      <trkpt lat="44.31086" lon="6.85053">
        <time>2023-04-10T07:00:40+00:00</time>
        <ele>2140.0</ele>
      </trkpt>
      <trkpt lat="44.31086" lon="6.85053">
        <time>2023-04-10T07:00:41+00:00</time>
        <ele>2140.0</ele>
      </trkpt>
      <trkpt lat="44.31086" lon="6.85053">
        <time>2023-04-10T07:00:42+00:00</time>
        <ele>2140.0</ele>
      </trkpt>
      <trkpt lat="44.31086" lon="6.85053">
        <time>2023-04-10T07:00:43+00:00</time>
        <ele>2140.0</ele>
      </trkpt>
      <trkpt lat="44.31086" lon="6.85053">
        <time>2023-04-10T07:00:44+00:00</time>
        <ele>2140.0</ele>
      </trkpt>
      <trkpt lat="44.31086" lon="6.85053">
        <time>2023-04-10T07:00:45+00:00</time>
        <ele>2140.0</ele>
      </trkpt>
      <trkpt lat="44.31086" lon="6.85053">
        <time>2023-04-10T07:00:46+00:00</time>
        <ele>2140.0</ele>
      </trkpt>
      <trkpt lat="44.31086" lon="6.85053">
        <time>2023-04-10T07:00:47+00:00</time>
        <ele>2140.0</ele>
      </trkpt>
      <trkpt lat="44.31086" lon="6.85053">
        <time>2023-04-10T07:00:48+00:00</time>
        <ele>2140.0</ele>
      </trkpt>
      <trkpt lat="44.31086" lon="6.85053">
        <time>2023-04-10T07:00:49+00:00</time>
        <ele>2140.0</ele>
      </trkpt>
      <trkpt lat="44.31086" lon="6.85053">
        <time>2023-04-10T07:00:50+00:00</time>
        <ele>2140.0</ele>
      </trkpt>
      <trkpt lat="44.31086" lon="6.85053">
        <time>2023-04-10T07:00:51+00:00</time>
        <ele>2140.0</ele>
      </trkpt>
      <trkpt lat="44.31086" lon="6.85053">
        <time>2023-04-10T07:00:52+00:00</time>
        <ele>2140.0</ele>
      </trkpt>
      <trkpt lat="44.31086" lon="6.85053">
        <time>2023-04-10T07:00:53+00:00</time>
        <ele>2140.0</ele>
      </trkpt>
      <trkpt lat="44.31086" lon="6.85053">
        <time>2023-04-10T07:00:54+00:00</time>
        <ele>2140.0</ele>
      </trkpt>
      <trkpt lat="44.31086" lon="6.85053">
        <time>2023-04-10T07:00:55+00:00</time>
        <ele>2140.0</ele>
      </trkpt>
      <trkpt lat="44.31086" lon="6.85053">
        <time>2023-04-10T07:00:56+00:00</time>
        <ele>2140.0</ele>
      </trkpt>
      <trkpt lat="44.31086" lon="6.85053">
        <time>2023-04-10T07:00:57+00:00</time>
        <ele>2140.0</ele>
      </trkpt>
      <trkpt lat="44.31086" lon="6.85053">
        <time>2023-04-10T07:00:58+00:00</time>
        <ele>2140.0</ele>
      </trkpt>
      <trkpt lat="44.31086" lon="6.85053">
        <time>2023-04-10T07:00:59+00:00</time>
        <ele>2140.0</ele>
      </trkpt>
      <trkpt lat="44.31086" lon="6.85053">
        <time>2023-04-10T07:01:00+00:00</time>
        <ele>2140.0</ele>
      </trkpt>
      <trkpt lat="44.31086" lon="6.85053">
        <time>2023-04-10T07:01:01+00:00</time>
        <ele>2140.0</ele>
      </trkpt>
      <trkpt lat="44.31086" lon="6.85053">
        <time>2023-04-10T07:01:02+00:00</time>
        <ele>2140.0</ele>
      </trkpt>
      <trkpt lat="44.31086" lon="6.85053">
        <time>2023-04-10T07:01:03+00:00</time>
        <ele>2140.0</ele>
      </trkpt>
      <trkpt lat="44.31086" lon="6.85053">
        <time>2023-04-10T07:01:04+00:00</time>
        <ele>2140.0</ele>
      </trkpt>
      <trkpt lat="44.31086" lon="6.85053">
        <time>2023-04-10T07:01:05+00:00</time>
        <ele>2140.0</ele>
      </trkpt>
      <trkpt lat="44.31086" lon="6.85053">
        <time>2023-04-10T07:01:06+00:00</time>
        <ele>2140.0</ele>
      </trkpt>
      <trkpt lat="44.31086" lon="6.85053">
        <time>2023-04-10T07:01:07+00:00</time>
        <ele>2140.0</ele>
      </trkpt>
      <trkpt lat="44.31086" lon="6.85053">
        <time>2023-04-10T07:01:08+00:00</time>
        <ele>2140.0</ele>
      </trkpt>
      <trkpt lat="44.31086" lon="6.85053">
        <time>2023-04-10T07:01:09+00:00</time>
        <ele>2140.0</ele>
      </trkpt>
      <trkpt lat="44.31086" lon="6.85053">
        <time>2023-04-10T07:01:10+00:00</time>
        <ele>2140.0</ele>
      </trkpt>
      <trkpt lat="44.31086" lon="6.85053">
        <time>2023-04-10T07:01:11+00:00</time>
        <ele>2140.0</ele>
      </trkpt>
      <trkpt lat="44.31086" lon="6.85053">
        <time>2023-04-10T07:01:12+00:00</time>
        <ele>2140.0</ele>
      </trkpt>
      <trkpt lat="44.31086" lon="6.85053">
        <time>2023-04-10T07:01:13+00:00</time>
        <ele>2140.0</ele>
      </trkpt>
      <trkpt lat="44.31086" lon="6.85053">
        <time>2023-04-10T07:01:14+00:00</time>
        <ele>2140.0</ele>
      </trkpt>
      <trkpt lat="44.31086" lon="6.85053">
        <time>2023-04-10T07:01:15+00:00</time>
        <ele>2140.0</ele>
      </trkpt>
      <trkpt lat="44.31086" lon="6.85053">
        <time>2023-04-10T07:01:16+00:00</time>
        <ele>2140.0</ele>
      </trkpt>
      <trkpt lat="44.31086" lon="6.85053">
        <time>2023-04-10T07:01:17+00:00</time>
        <ele>2140.0</ele>
      </trkpt>
      <trkpt lat="44.31086" lon="6.85053">
        <time>2023-04-10T07:01:18+00:00</time>
        <ele>2140.0</ele>
      </trkpt>
      <trkpt lat="44.31086" lon="6.85053">
        <time>2023-04-10T07:01:19+00:00</time>
        <ele>2140.0</ele>
      </trkpt>
      <trkpt lat="44.31086" lon="6.85053">
        <time>2023-04-10T07:01:20+00:00</time>
        <ele>2140.0</ele>
      </trkpt>
      <trkpt lat="44.31086" lon="6.85053">
        <time>2023-04-10T07:01:21+00:00</time>
        <ele>2140.0</ele>
      </trkpt>
      <trkpt lat="44.31086" lon="6.85053">
        <time>2023-04-10T07:01:22+00:00</time>
        <ele>2140.0</ele>
      </trkpt>
      <trkpt lat="44.31086" lon="6.85053">
        <time>2023-04-10T07:01:23+00:00</time>
        <ele>2140.0</ele>
      </trkpt>
      <trkpt lat="44.31086" lon="6.85053">
        <time>2023-04-10T07:01:24+00:00</time>
        <ele>2140.0</ele>
      </trkpt>
      <trkpt lat="44.31086" lon="6.85053">
        <time>2023-04-10T07:01:25+00:00</time>
        <ele>2140.0</ele>
      </trkpt>
      <trkpt lat="44.31086" lon="6.85053">
        <time>2023-04-10T07:01:26+00:00</time>
        <ele>2140.0</ele>
      </trkpt>
      <trkpt lat="44.31086" lon="6.85053">
        <time>2023-04-10T07:01:27+00:00</time>
        <ele>2140.0</ele>
      </trkpt>
      <trkpt lat="44.31086" lon="6.85053">
        <time>2023-04-10T07:01:28+00:00</time>
        <ele>2140.0</ele>
      </trkpt>
      <trkpt lat="44.31086" lon="6.85054">
        <time>2023-04-10T07:01:29+00:00</time>
        <ele>2140.0</ele>
      </trkpt>
      <trkpt lat="44.31086" lon="6.85054">
        <time>2023-04-10T07:01:30+00:00</time>
        <ele>2140.0</ele>
      </trkpt>
      <trkpt lat="44.31086" lon="6.85054">
        <time>2023-04-10T07:01:31+00:00</time>
        <ele>2140.0</ele>
      </trkpt>
      <trkpt lat="44.31086" lon="6.85054">
        <time>2023-04-10T07:01:32+00:00</time>
        <ele>2140.0</ele>
      </trkpt>
      <trkpt lat="44.31086" lon="6.85054">
        <time>2023-04-10T07:01:33+00:00</time>
        <ele>2140.0</ele>
      </trkpt>
      <trkpt lat="44.31086" lon="6.85054">
        <time>2023-04-10T07:01:34+00:00</time>
        <ele>2140.0</ele>
      </trkpt>
      <trkpt lat="44.31086" lon="6.85054">
        <time>2023-04-10T07:01:35+00:00</time>
        <ele>2140.0</ele>
      </trkpt>
      <trkpt lat="44.31086" lon="6.85054">
        <time>2023-04-10T07:01:36+00:00</time>
        <ele>2140.0</ele>
      </trkpt>
      <trkpt lat="44.31086" lon="6.85054">
        <time>2023-04-10T07:01:37+00:00</time>
        <ele>2140.0</ele>
      </trkpt>
      <trkpt lat="44.31086" lon="6.85054">
        <time>2023-04-10T07:01:38+00:00</time>
        <ele>2140.0</ele>
      </trkpt>
      <trkpt lat="44.31086" lon="6.85054">
        <time>2023-04-10T07:01:39+00:00</time>
        <ele>2140.0</ele>
      </trkpt>
      <trkpt lat="44.31086" lon="6.85054">
        <time>2023-04-10T07:01:40+00:00</time>
        <ele>2140.0</ele>
      </trkpt>
      <trkpt lat="44.31086" lon="6.85054">
        <time>2023-04-10T07:01:41+00:00</time>
        <ele>2140.0</ele>
      </trkpt>
      <trkpt lat="44.31086" lon="6.85054">
        <time>2023-04-10T07:01:42+00:00</time>
        <ele>2140.0</ele>
      </trkpt>
      <trkpt lat="44.31086" lon="6.85054">
        <time>2023-04-10T07:01:43+00:00</time>
        <ele>2140.0</ele>
      </trkpt>
      <trkpt lat="44.31086" lon="6.85054">
        <time>2023-04-10T07:01:44+00:00</time>
        <ele>2140.0</ele>
      </trkpt>
      <trkpt lat="44.31086" lon="6.85054">
        <time>2023-04-10T07:01:45+00:00</time>
        <ele>2140.0</ele>
      </trkpt>
      <trkpt lat="44.31086" lon="6.85054">
        <time>2023-04-10T07:01:46+00:00</time>
        <ele>2140.0</ele>
      </trkpt>
      <trkpt lat="44.31086" lon="6.85054">
        <time>2023-04-10T07:01:47+00:00</time>
        <ele>2140.0</ele>
      </trkpt>
      <trkpt lat="44.31086" lon="6.85054">
        <time>2023-04-10T07:01:48+00:00</time>
        <ele>2140.0</ele>
      </trkpt>
      <trkpt lat="44.31086" lon="6.85054">
        <time>2023-04-10T07:01:49+00:00</time>
        <ele>2140.0</ele>
      </trkpt>
      <trkpt lat="44.31086" lon="6.85054">
        <time>2023-04-10T07:01:50+00:00</time>
        <ele>2140.0</ele>
      </trkpt>
      <trkpt lat="44.31086" lon="6.85054">
        <time>2023-04-10T07:01:51+00:00</time>
        <ele>2140.0</ele>
      </trkpt>
      <trkpt lat="44.31086" lon="6.85054">
        <time>2023-04-10T07:01:52+00:00</time>
        <ele>2140.0</ele>
      </trkpt>
      <trkpt lat="44.31086" lon="6.85054">
        <time>2023-04-10T07:01:53+00:00</time>
        <ele>2140.0</ele>
      </trkpt>
      <trkpt lat="44.31086" lon="6.85054">
        <time>2023-04-10T07:01:54+00:00</time>
        <ele>2140.0</ele>
      </trkpt>
      <trkpt lat="44.31086" lon="6.85054">
        <time>2023-04-10T07:01:55+00:00</time>
        <ele>2140.0</ele>
      </trkpt>
      <trkpt lat="44.31086" lon="6.85054">
        <time>2023-04-10T07:01:56+00:00</time>
        <ele>2140.0</ele>
      </trkpt>
      <trkpt lat="44.31086" lon="6.85054">
        <time>2023-04-10T07:01:57+00:00</time>
        <ele>2140.0</ele>
      </trkpt>
      <trkpt lat="44.31086" lon="6.85054">
        <time>2023-04-10T07:01:58+00:00</time>
        <ele>2140.0</ele>
      </trkpt>
      <trkpt lat="44.31086" lon="6.85054">
        <time>2023-04-10T07:01:59+00:00</time>
        <ele>2140.0</ele>
      </trkpt>
      <trkpt lat="44.31086" lon="6.85054">
        <time>2023-04-10T07:02:00+00:00</time>
        <ele>2140.0</ele>
      </trkpt>
      <trkpt lat="44.31086" lon="6.85054">
        <time>2023-04-10T07:02:01+00:00</time>
        <ele>2140.0</ele>
      </trkpt>
      <trkpt lat="44.31086" lon="6.85054">
        <time>2023-04-10T07:02:02+00:00</time>
        <ele>2140.0</ele>
      </trkpt>
      <trkpt lat="44.31086" lon="6.85054">
        <time>2023-04-10T07:02:03+00:00</time>
        <ele>2140.0</ele>
      </trkpt>
      <trkpt lat="44.31086" lon="6.85054">
        <time>2023-04-10T07:02:04+00:00</time>
        <ele>2140.0</ele>
      </trkpt>
      <trkpt lat="44.31086" lon="6.85054">
        <time>2023-04-10T07:02:05+00:00</time>
        <ele>2140.0</ele>
      </trkpt>
      <trkpt lat="44.31086" lon="6.85054">
        <time>2023-04-10T07:02:06+00:00</time>
        <ele>2140.0</ele>
      </trkpt>
      <trkpt lat="44.31086" lon="6.85054">
        <time>2023-04-10T07:02:07+00:00</time>
        <ele>2140.0</ele>
      </trkpt>
      <trkpt lat="44.31086" lon="6.85054">
        <time>2023-04-10T07:02:08+00:00</time>
        <ele>2140.0</ele>
      </trkpt>
      <trkpt lat="44.31085" lon="6.85054">
        <time>2023-04-10T07:02:09+00:00</time>
        <ele>2140.0</ele>
      </trkpt>
      <trkpt lat="44.31085" lon="6.85054">
        <time>2023-04-10T07:02:10+00:00</time>
        <ele>2140.0</ele>
      </trkpt>
      <trkpt lat="44.31085" lon="6.85054">
        <time>2023-04-10T07:02:11+00:00</time>
        <ele>2140.0</ele>
      </trkpt>
      <trkpt lat="44.31085" lon="6.85054">
        <time>2023-04-10T07:02:12+00:00</time>
        <ele>2140.0</ele>
      </trkpt>
      <trkpt lat="44.31085" lon="6.85054">
        <time>2023-04-10T07:02:13+00:00</time>
        <ele>2140.0</ele>
      </trkpt>
      <trkpt lat="44.31085" lon="6.85054">
        <time>2023-04-10T07:02:14+00:00</time>
        <ele>2140.0</ele>
      </trkpt>
      <trkpt lat="44.31085" lon="6.85054">
        <time>2023-04-10T07:02:15+00:00</time>
        <ele>2140.0</ele>
      </trkpt>
      <trkpt lat="44.31085" lon="6.85054">
        <time>2023-04-10T07:02:16+00:00</time>
        <ele>2140.0</ele>
      </trkpt>
      <trkpt lat="44.31085" lon="6.85054">
        <time>2023-04-10T07:02:17+00:00</time>
        <ele>2140.0</ele>
      </trkpt>
      <trkpt lat="44.31085" lon="6.85054">
        <time>2023-04-10T07:02:18+00:00</time>
        <ele>2140.0</ele>
      </trkpt>
      <trkpt lat="44.31085" lon="6.85054">
        <time>2023-04-10T07:02:19+00:00</time>
        <ele>2140.0</ele>
      </trkpt>
      <trkpt lat="44.31085" lon="6.85054">
        <time>2023-04-10T07:02:20+00:00</time>
        <ele>2140.0</ele>
      </trkpt>
      <trkpt lat="44.31085" lon="6.85054">
        <time>2023-04-10T07:02:21+00:00</time>
        <ele>2140.0</ele>
      </trkpt>
      <trkpt lat="44.31085" lon="6.85054">
        <time>2023-04-10T07:02:22+00:00</time>
        <ele>2140.0</ele>
      </trkpt>
      <trkpt lat="44.31085" lon="6.85055">
        <time>2023-04-10T07:02:23+00:00</time>
        <ele>2140.0</ele>
      </trkpt>
      <trkpt lat="44.31085" lon="6.85055">
        <time>2023-04-10T07:02:24+00:00</time>
        <ele>2140.0</ele>
      </trkpt>
      <trkpt lat="44.31085" lon="6.85055">
        <time>2023-04-10T07:02:25+00:00</time>
        <ele>2140.0</ele>
      </trkpt>
      <trkpt lat="44.31085" lon="6.85055">
        <time>2023-04-10T07:02:26+00:00</time>
        <ele>2140.0</ele>
      </trkpt>
      <trkpt lat="44.31085" lon="6.85055">
        <time>2023-04-10T07:02:27+00:00</time>
        <ele>2140.0</ele>
      </trkpt>
      <trkpt lat="44.31085" lon="6.85055">
        <time>2023-04-10T07:02:28+00:00</time>
        <ele>2140.0</ele>
      </trkpt>
      <trkpt lat="44.31085" lon="6.85055">
        <time>2023-04-10T07:02:29+00:00</time>
        <ele>2140.0</ele>
      </trkpt>
      <trkpt lat="44.31085" lon="6.85055">
        <time>2023-04-10T07:02:30+00:00</time>
        <ele>2140.0</ele>
      </trkpt>
      <trkpt lat="44.31085" lon="6.85055">
        <time>2023-04-10T07:02:31+00:00</time>
        <ele>2140.0</ele>
      </trkpt>
      <trkpt lat="44.31085" lon="6.85055">
        <time>2023-04-10T07:02:32+00:00</time>
        <ele>2140.0</ele>
      </trkpt>
      <trkpt lat="44.31085" lon="6.85055">
        <time>2023-04-10T07:02:33+00:00</time>
        <ele>2140.0</ele>
      </trkpt>
      <trkpt lat="44.31085" lon="6.85055">
        <time>2023-04-10T07:02:34+00:00</time>
        <ele>2140.0</ele>
      </trkpt>
      <trkpt lat="44.31085" lon="6.85055">
        <time>2023-04-10T07:02:35+00:00</time>
        <ele>2140.0</ele>
      </trkpt>
      <trkpt lat="44.31085" lon="6.85055">
        <time>2023-04-10T07:02:36+00:00</time>
        <ele>2140.0</ele>
      </trkpt>
      <trkpt lat="44.31085" lon="6.85055">
        <time>2023-04-10T07:02:37+00:00</time>
        <ele>2140.0</ele>
      </trkpt>
      <trkpt lat="44.31085" lon="6.85055">
        <time>2023-04-10T07:02:38+00:00</time>
        <ele>2140.0</ele>
      </trkpt>
      <trkpt lat="44.31085" lon="6.85055">
        <time>2023-04-10T07:02:39+00:00</time>
        <ele>2140.0</ele>
      </trkpt>
      <trkpt lat="44.31085" lon="6.85055">
        <time>2023-04-10T07:02:40+00:00</time>
        <ele>2140.0</ele>
      </trkpt>
      <trkpt lat="44.31085" lon="6.85055">
        <time>2023-04-10T07:02:41+00:00</time>
        <ele>2140.0</ele>
      </trkpt>
      <trkpt lat="44.31085" lon="6.85055">
        <time>2023-04-10T07:02:42+00:00</time>
        <ele>2140.0</ele>
      </trkpt>
      <trkpt lat="44.31085" lon="6.85055">
        <time>2023-04-10T07:02:43+00:00</time>
        <ele>2140.0</ele>
      </trkpt>
      <trkpt lat="44.31085" lon="6.85055">
        <time>2023-04-10T07:02:44+00:00</time>
        <ele>2140.0</ele>
      </trkpt>
      <trkpt lat="44.31085" lon="6.85055">
        <time>2023-04-10T07:02:45+00:00</time>
        <ele>2140.0</ele>
      </trkpt>
      <trkpt lat="44.31085" lon="6.85055">
        <time>2023-04-10T07:02:46+00:00</time>
        <ele>2140.0</ele>
      </trkpt>
      <trkpt lat="44.31081" lon="6.85059">
        <time>2023-04-10T07:02:47+00:00</time>
        <ele>2140.0</ele>
      </trkpt>
      <trkpt lat="44.31081" lon="6.85059">
        <time>2023-04-10T07:02:48+00:00</time>
        <ele>2140.0</ele>
      </trkpt>
      <trkpt lat="44.31081" lon="6.85056">
        <time>2023-04-10T07:02:49+00:00</time>
        <ele>2141.0</ele>
      </trkpt>
      <trkpt lat="44.31081" lon="6.85056">
        <time>2023-04-10T07:02:50+00:00</time>
        <ele>2141.0</ele>
      </trkpt>
      <trkpt lat="44.3108" lon="6.85053">
        <time>2023-04-10T07:02:51+00:00</time>
        <ele>2141.0</ele>
      </trkpt>
      <trkpt lat="44.3108" lon="6.85053">
        <time>2023-04-10T07:02:52+00:00</time>
        <ele>2141.0</ele>
      </trkpt>
      <trkpt lat="44.3108" lon="6.85049">
        <time>2023-04-10T07:02:53+00:00</time>
        <ele>2142.0</ele>
      </trkpt>
      <trkpt lat="44.3108" lon="6.85049">
        <time>2023-04-10T07:02:54+00:00</time>
        <ele>2142.0</ele>
      </trkpt>
      <trkpt lat="44.31079" lon="6.85046">
        <time>2023-04-10T07:02:55+00:00</time>
        <ele>2143.0</ele>
      </trkpt>
      <trkpt lat="44.31079" lon="6.85046">
        <time>2023-04-10T07:02:56+00:00</time>
        <ele>2143.0</ele>
      </trkpt>
      <trkpt lat="44.31077" lon="6.85044">
        <time>2023-04-10T07:02:57+00:00</time>
        <ele>2143.0</ele>
      </trkpt>
      <trkpt lat="44.31077" lon="6.85044">
        <time>2023-04-10T07:02:58+00:00</time>
        <ele>2143.0</ele>
      </trkpt>
      <trkpt lat="44.31077" lon="6.85044">
        <time>2023-04-10T07:02:59+00:00</time>
        <ele>2143.0</ele>
      </trkpt>
      <trkpt lat="44.31076" lon="6.85042">
        <time>2023-04-10T07:03:00+00:00</time>
        <ele>2144.0</ele>
      </trkpt>
      <trkpt lat="44.31076" lon="6.85042">
        <time>2023-04-10T07:03:01+00:00</time>
        <ele>2144.0</ele>
      </trkpt>
      <trkpt lat="44.31076" lon="6.85042">
        <time>2023-04-10T07:03:02+00:00</time>
        <ele>2144.0</ele>
      </trkpt>
      <trkpt lat="44.31074" lon="6.8504">
        <time>2023-04-10T07:03:03+00:00</time>
        <ele>2145.0</ele>
      </trkpt>
      <trkpt lat="44.31074" lon="6.8504">
        <time>2023-04-10T07:03:04+00:00</time>
        <ele>2145.0</ele>
      </trkpt>
      <trkpt lat="44.31074" lon="6.8504">
        <time>2023-04-10T07:03:05+00:00</time>
        <ele>2145.0</ele>
      </trkpt>
      <trkpt lat="44.31074" lon="6.85037">
        <time>2023-04-10T07:03:06+00:00</time>
        <ele>2145.0</ele>
      </trkpt>
      <trkpt lat="44.31074" lon="6.85037">
        <time>2023-04-10T07:03:07+00:00</time>
        <ele>2145.0</ele>
      </trkpt>
      <trkpt lat="44.31074" lon="6.85037">
        <time>2023-04-10T07:03:08+00:00</time>
        <ele>2145.0</ele>
      </trkpt>
      <trkpt lat="44.31073" lon="6.85035">
        <time>2023-04-10T07:03:09+00:00</time>
        <ele>2146.0</ele>
      </trkpt>
      <trkpt lat="44.31073" lon="6.85035">
        <time>2023-04-10T07:03:10+00:00</time>
        <ele>2146.0</ele>
      </trkpt>
      <trkpt lat="44.31073" lon="6.85035">
        <time>2023-04-10T07:03:11+00:00</time>
        <ele>2146.0</ele>
      </trkpt>
      <trkpt lat="44.31073" lon="6.85035">
        <time>2023-04-10T07:03:12+00:00</time>
        <ele>2146.0</ele>
      </trkpt>
      <trkpt lat="44.31073" lon="6.85032">
        <time>2023-04-10T07:03:13+00:00</time>
        <ele>2146.0</ele>
      </trkpt>
      <trkpt lat="44.31073" lon="6.85032">
        <time>2023-04-10T07:03:14+00:00</time>
        <ele>2146.0</ele>
      </trkpt>
      <trkpt lat="44.31073" lon="6.85032">
        <time>2023-04-10T07:03:15+00:00</time>
        <ele>2146.0</ele>
      </trkpt>
      <trkpt lat="44.31073" lon="6.85032">
        <time>2023-04-10T07:03:16+00:00</time>
        <ele>2146.0</ele>
      </trkpt>
      <trkpt lat="44.31071" lon="6.85029">
        <time>2023-04-10T07:03:17+00:00</time>
        <ele>2147.0</ele>
      </trkpt>
      <trkpt lat="44.31071" lon="6.85029">
        <time>2023-04-10T07:03:18+00:00</time>
        <ele>2147.0</ele>
      </trkpt>
      <trkpt lat="44.31071" lon="6.85029">
        <time>2023-04-10T07:03:19+00:00</time>
        <ele>2147.0</ele>
      </trkpt>
      <trkpt lat="44.31071" lon="6.85029">
        <time>2023-04-10T07:03:20+00:00</time>
        <ele>2147.0</ele>
      </trkpt>
      <trkpt lat="44.31069" lon="6.85026">
        <time>2023-04-10T07:03:21+00:00</time>
        <ele>2148.0</ele>
      </trkpt>
      <trkpt lat="44.31069" lon="6.85026">
        <time>2023-04-10T07:03:22+00:00</time>
        <ele>2148.0</ele>
      </trkpt>
      <trkpt lat="44.31069" lon="6.85026">
        <time>2023-04-10T07:03:23+00:00</time>
        <ele>2148.0</ele>
      </trkpt>
      <trkpt lat="44.31068" lon="6.85025">
        <time>2023-04-10T07:03:24+00:00</time>
        <ele>2148.0</ele>
      </trkpt>
      <trkpt lat="44.31068" lon="6.85025">
        <time>2023-04-10T07:03:25+00:00</time>
        <ele>2148.0</ele>
      </trkpt>
      <trkpt lat="44.31068" lon="6.85025">
        <time>2023-04-10T07:03:26+00:00</time>
        <ele>2148.0</ele>
      </trkpt>
      <trkpt lat="44.31066" lon="6.85024">
        <time>2023-04-10T07:03:27+00:00</time>
        <ele>2149.0</ele>
      </trkpt>
      <trkpt lat="44.31066" lon="6.85024">
        <time>2023-04-10T07:03:28+00:00</time>
        <ele>2149.0</ele>
      </trkpt>
      <trkpt lat="44.31066" lon="6.85024">
        <time>2023-04-10T07:03:29+00:00</time>
        <ele>2149.0</ele>
      </trkpt>
      <trkpt lat="44.31064" lon="6.85021">
        <time>2023-04-10T07:03:30+00:00</time>
        <ele>2150.0</ele>
      </trkpt>
      <trkpt lat="44.31064" lon="6.85021">
        <time>2023-04-10T07:03:31+00:00</time>
        <ele>2150.0</ele>
      </trkpt>
      <trkpt lat="44.31064" lon="6.85021">
        <time>2023-04-10T07:03:32+00:00</time>
        <ele>2150.0</ele>
      </trkpt>
      <trkpt lat="44.31062" lon="6.85019">
        <time>2023-04-10T07:03:33+00:00</time>
        <ele>2151.0</ele>
      </trkpt>
      <trkpt lat="44.31062" lon="6.85019">
        <time>2023-04-10T07:03:34+00:00</time>
        <ele>2151.0</ele>
      </trkpt>
      <trkpt lat="44.31062" lon="6.85019">
        <time>2023-04-10T07:03:35+00:00</time>
        <ele>2151.0</ele>
      </trkpt>
      <trkpt lat="44.31061" lon="6.85016">
        <time>2023-04-10T07:03:36+00:00</time>
        <ele>2151.0</ele>
      </trkpt>
      <trkpt lat="44.31061" lon="6.85016">
        <time>2023-04-10T07:03:37+00:00</time>
        <ele>2151.0</ele>
      </trkpt>
      <trkpt lat="44.31061" lon="6.85016">
        <time>2023-04-10T07:03:38+00:00</time>
        <ele>2151.0</ele>
      </trkpt>
      <trkpt lat="44.31061" lon="6.85016">
        <time>2023-04-10T07:03:39+00:00</time>
        <ele>2151.0</ele>
      </trkpt>
      <trkpt lat="44.3106" lon="6.85014">
        <time>2023-04-10T07:03:40+00:00</time>
        <ele>2152.0</ele>
      </trkpt>
      <trkpt lat="44.3106" lon="6.85014">
        <time>2023-04-10T07:03:41+00:00</time>
        <ele>2152.0</ele>
      </trkpt>
      <trkpt lat="44.3106" lon="6.85014">
        <time>2023-04-10T07:03:42+00:00</time>
        <ele>2152.0</ele>
      </trkpt>
      <trkpt lat="44.3106" lon="6.85014">
        <time>2023-04-10T07:03:43+00:00</time>
        <ele>2152.0</ele>
      </trkpt>
      <trkpt lat="44.31058" lon="6.85011">
        <time>2023-04-10T07:03:44+00:00</time>
        <ele>2153.0</ele>
      </trkpt>
      <trkpt lat="44.31058" lon="6.85011">
        <time>2023-04-10T07:03:45+00:00</time>
        <ele>2153.0</ele>
      </trkpt>
      <trkpt lat="44.31056" lon="6.85011">
        <time>2023-04-10T07:03:46+00:00</time>
        <ele>2153.0</ele>
      </trkpt>
      <trkpt lat="44.31056" lon="6.85011">
        <time>2023-04-10T07:03:47+00:00</time>
        <ele>2153.0</ele>
      </trkpt>
      <trkpt lat="44.31056" lon="6.85011">
        <time>2023-04-10T07:03:48+00:00</time>
        <ele>2153.0</ele>
      </trkpt>
      <trkpt lat="44.31056" lon="6.85011">
        <time>2023-04-10T07:03:49+00:00</time>
        <ele>2153.0</ele>
      </trkpt>
      <trkpt lat="44.31053" lon="6.8501">
        <time>2023-04-10T07:03:50+00:00</time>
        <ele>2154.0</ele>
      </trkpt>
      <trkpt lat="44.31053" lon="6.8501">
        <time>2023-04-10T07:03:51+00:00</time>
        <ele>2154.0</ele>
      </trkpt>
      <trkpt lat="44.31053" lon="6.8501">
        <time>2023-04-10T07:03:52+00:00</time>
        <ele>2154.0</ele>
      </trkpt>
      <trkpt lat="44.31052" lon="6.85011">
        <time>2023-04-10T07:03:53+00:00</time>
        <ele>2154.0</ele>
      </trkpt>
      <trkpt lat="44.31052" lon="6.85011">
        <time>2023-04-10T07:03:54+00:00</time>
        <ele>2154.0</ele>
      </trkpt>
      <trkpt lat="44.31052" lon="6.85011">
        <time>2023-04-10T07:03:55+00:00</time>
        <ele>2154.0</ele>
      </trkpt>
      <trkpt lat="44.31052" lon="6.85011">
        <time>2023-04-10T07:03:56+00:00</time>
        <ele>2154.0</ele>
      </trkpt>
      <trkpt lat="44.31052" lon="6.85011">
        <time>2023-04-10T07:03:57+00:00</time>
        <ele>2154.0</ele>
      </trkpt>
      <trkpt lat="44.3105" lon="6.85013">
        <time>2023-04-10T07:03:58+00:00</time>
        <ele>2154.0</ele>
      </trkpt>
      <trkpt lat="44.3105" lon="6.85013">
        <time>2023-04-10T07:03:59+00:00</time>
        <ele>2154.0</ele>
      </trkpt>
      <trkpt lat="44.3105" lon="6.85013">
        <time>2023-04-10T07:04:00+00:00</time>
        <ele>2154.0</ele>
      </trkpt>
      <trkpt lat="44.31048" lon="6.85015">
        <time>2023-04-10T07:04:01+00:00</time>
        <ele>2155.0</ele>
      </trkpt>
      <trkpt lat="44.31048" lon="6.85015">
        <time>2023-04-10T07:04:02+00:00</time>
        <ele>2155.0</ele>
      </trkpt>
      <trkpt lat="44.31048" lon="6.85015">
        <time>2023-04-10T07:04:03+00:00</time>
        <ele>2155.0</ele>
      </trkpt>
      <trkpt lat="44.31046" lon="6.85016">
        <time>2023-04-10T07:04:04+00:00</time>
        <ele>2155.0</ele>
      </trkpt>
      <trkpt lat="44.31046" lon="6.85016">
        <time>2023-04-10T07:04:05+00:00</time>
        <ele>2155.0</ele>
      </trkpt>
      <trkpt lat="44.31046" lon="6.85016">
        <time>2023-04-10T07:04:06+00:00</time>
        <ele>2155.0</ele>
      </trkpt>
      <trkpt lat="44.31044" lon="6.85016">
        <time>2023-04-10T07:04:07+00:00</time>
        <ele>2156.0</ele>
      </trkpt>
      <trkpt lat="44.31044" lon="6.85016">
        <time>2023-04-10T07:04:08+00:00</time>
        <ele>2156.0</ele>
      </trkpt>
      <trkpt lat="44.31044" lon="6.85016">
        <time>2023-04-10T07:04:09+00:00</time>
        <ele>2156.0</ele>
      </trkpt>
      <trkpt lat="44.31042" lon="6.85017">
        <time>2023-04-10T07:04:10+00:00</time>
        <ele>2156.0</ele>
      </trkpt>
      <trkpt lat="44.31042" lon="6.85017">
        <time>2023-04-10T07:04:11+00:00</time>
        <ele>2156.0</ele>
      </trkpt>
      <trkpt lat="44.31042" lon="6.85017">
        <time>2023-04-10T07:04:12+00:00</time>
        <ele>2156.0</ele>
      </trkpt>
      <trkpt lat="44.31039" lon="6.85017">
        <time>2023-04-10T07:04:13+00:00</time>
        <ele>2157.0</ele>
      </trkpt>
      <trkpt lat="44.31039" lon="6.85017">
        <time>2023-04-10T07:04:14+00:00</time>
        <ele>2157.0</ele>
      </trkpt>
      <trkpt lat="44.31039" lon="6.85017">
        <time>2023-04-10T07:04:15+00:00</time>
        <ele>2157.0</ele>
      </trkpt>
      <trkpt lat="44.31037" lon="6.85018">
        <time>2023-04-10T07:04:16+00:00</time>
        <ele>2157.0</ele>
      </trkpt>
      <trkpt lat="44.31037" lon="6.85018">
        <time>2023-04-10T07:04:17+00:00</time>
        <ele>2157.0</ele>
      </trkpt>
      <trkpt lat="44.31037" lon="6.85018">
        <time>2023-04-10T07:04:18+00:00</time>
        <ele>2157.0</ele>
      </trkpt>
      <trkpt lat="44.31035" lon="6.85018">
        <time>2023-04-10T07:04:19+00:00</time>
        <ele>2158.0</ele>
      </trkpt>
      <trkpt lat="44.31035" lon="6.85018">
        <time>2023-04-10T07:04:20+00:00</time>
        <ele>2158.0</ele>
      </trkpt>
      <trkpt lat="44.31035" lon="6.85018">
        <time>2023-04-10T07:04:21+00:00</time>
        <ele>2158.0</ele>
      </trkpt>
      <trkpt lat="44.31033" lon="6.85017">
        <time>2023-04-10T07:04:22+00:00</time>
        <ele>2158.0</ele>
      </trkpt>
      <trkpt lat="44.31033" lon="6.85017">
        <time>2023-04-10T07:04:23+00:00</time>
        <ele>2158.0</ele>
      </trkpt>
      <trkpt lat="44.31031" lon="6.85017">
        <time>2023-04-10T07:04:24+00:00</time>
        <ele>2159.0</ele>
      </trkpt>
      <trkpt lat="44.31031" lon="6.85017">
        <time>2023-04-10T07:04:25+00:00</time>
        <ele>2159.0</ele>
      </trkpt>
      <trkpt lat="44.31031" lon="6.85017">
        <time>2023-04-10T07:04:26+00:00</time>
        <ele>2159.0</ele>
      </trkpt>
      <trkpt lat="44.31031" lon="6.85017">
        <time>2023-04-10T07:04:27+00:00</time>
        <ele>2159.0</ele>
      </trkpt>
      <trkpt lat="44.31029" lon="6.85016">
        <time>2023-04-10T07:04:28+00:00</time>
        <ele>2160.0</ele>
      </trkpt>
      <trkpt lat="44.31029" lon="6.85016">
        <time>2023-04-10T07:04:29+00:00</time>
        <ele>2160.0</ele>
      </trkpt>
      <trkpt lat="44.31029" lon="6.85016">
        <time>2023-04-10T07:04:30+00:00</time>
        <ele>2160.0</ele>
      </trkpt>
      <trkpt lat="44.31027" lon="6.85014">
        <time>2023-04-10T07:04:31+00:00</time>
        <ele>2160.0</ele>
      </trkpt>
      <trkpt lat="44.31027" lon="6.85014">
        <time>2023-04-10T07:04:32+00:00</time>
        <ele>2160.0</ele>
      </trkpt>
      <trkpt lat="44.31027" lon="6.85014">
        <time>2023-04-10T07:04:33+00:00</time>
        <ele>2160.0</ele>
      </trkpt>
      <trkpt lat="44.31027" lon="6.85014">
        <time>2023-04-10T07:04:34+00:00</time>
        <ele>2160.0</ele>
      </trkpt>
      <trkpt lat="44.31025" lon="6.85013">
        <time>2023-04-10T07:04:35+00:00</time>
        <ele>2161.0</ele>
      </trkpt>
      <trkpt lat="44.31025" lon="6.85013">
        <time>2023-04-10T07:04:36+00:00</time>
        <ele>2161.0</ele>
      </trkpt>
      <trkpt lat="44.31025" lon="6.85013">
        <time>2023-04-10T07:04:37+00:00</time>
        <ele>2161.0</ele>
      </trkpt>
      <trkpt lat="44.31023" lon="6.85013">
        <time>2023-04-10T07:04:38+00:00</time>
        <ele>2162.0</ele>
      </trkpt>
      <trkpt lat="44.31023" lon="6.85013">
        <time>2023-04-10T07:04:39+00:00</time>
        <ele>2162.0</ele>
      </trkpt>
      <trkpt lat="44.31023" lon="6.85013">
        <time>2023-04-10T07:04:40+00:00</time>
        <ele>2162.0</ele>
      </trkpt>
      <trkpt lat="44.31021" lon="6.85012">
        <time>2023-04-10T07:04:41+00:00</time>
        <ele>2162.0</ele>
      </trkpt>
      <trkpt lat="44.31021" lon="6.85012">
        <time>2023-04-10T07:04:42+00:00</time>
        <ele>2162.0</ele>
      </trkpt>
      <trkpt lat="44.31021" lon="6.85012">
        <time>2023-04-10T07:04:43+00:00</time>
        <ele>2162.0</ele>
      </trkpt>
      <trkpt lat="44.31019" lon="6.85012">
        <time>2023-04-10T07:04:44+00:00</time>
        <ele>2163.0</ele>
      </trkpt>
      <trkpt lat="44.31019" lon="6.85012">
        <time>2023-04-10T07:04:45+00:00</time>
        <ele>2163.0</ele>
      </trkpt>
      <trkpt lat="44.31017" lon="6.85012">
        <time>2023-04-10T07:04:46+00:00</time>
        <ele>2163.0</ele>
      </trkpt>
      <trkpt lat="44.31017" lon="6.85012">
        <time>2023-04-10T07:04:47+00:00</time>
        <ele>2163.0</ele>
      </trkpt>
      <trkpt lat="44.31017" lon="6.85012">
        <time>2023-04-10T07:04:48+00:00</time>
        <ele>2163.0</ele>
      </trkpt>
      <trkpt lat="44.31015" lon="6.85011">
        <time>2023-04-10T07:04:49+00:00</time>
        <ele>2164.0</ele>
      </trkpt>
      <trkpt lat="44.31015" lon="6.85011">
        <time>2023-04-10T07:04:50+00:00</time>
        <ele>2164.0</ele>
      </trkpt>
      <trkpt lat="44.31015" lon="6.85011">
        <time>2023-04-10T07:04:51+00:00</time>
        <ele>2164.0</ele>
      </trkpt>
      <trkpt lat="44.31013" lon="6.85011">
        <time>2023-04-10T07:04:52+00:00</time>
        <ele>2164.0</ele>
      </trkpt>
      <trkpt lat="44.31013" lon="6.85011">
        <time>2023-04-10T07:04:53+00:00</time>
        <ele>2164.0</ele>
      </trkpt>
      <trkpt lat="44.31013" lon="6.85011">
        <time>2023-04-10T07:04:54+00:00</time>
        <ele>2164.0</ele>
      </trkpt>
      <trkpt lat="44.31011" lon="6.8501">
        <time>2023-04-10T07:04:55+00:00</time>
        <ele>2165.0</ele>
      </trkpt>
      <trkpt lat="44.31011" lon="6.8501">
        <time>2023-04-10T07:04:56+00:00</time>
        <ele>2165.0</ele>
      </trkpt>
      <trkpt lat="44.31011" lon="6.8501">
        <time>2023-04-10T07:04:57+00:00</time>
        <ele>2165.0</ele>
      </trkpt>
      <trkpt lat="44.31009" lon="6.8501">
        <time>2023-04-10T07:04:58+00:00</time>
        <ele>2165.0</ele>
      </trkpt>
      <trkpt lat="44.31009" lon="6.8501">
        <time>2023-04-10T07:04:59+00:00</time>
        <ele>2165.0</ele>
      </trkpt>
      <trkpt lat="44.31009" lon="6.8501">
        <time>2023-04-10T07:05:00+00:00</time>
        <ele>2165.0</ele>
      </trkpt>
      <trkpt lat="44.31007" lon="6.8501">
        <time>2023-04-10T07:05:01+00:00</time>
        <ele>2165.0</ele>
      </trkpt>
      <trkpt lat="44.31007" lon="6.8501">
        <time>2023-04-10T07:05:02+00:00</time>
        <ele>2165.0</ele>
      </trkpt>
      <trkpt lat="44.31007" lon="6.8501">
        <time>2023-04-10T07:05:03+00:00</time>
        <ele>2165.0</ele>
      </trkpt>
      <trkpt lat="44.31007" lon="6.8501">
        <time>2023-04-10T07:05:04+00:00</time>
        <ele>2165.0</ele>
      </trkpt>
      <trkpt lat="44.31005" lon="6.8501">
        <time>2023-04-10T07:05:05+00:00</time>
        <ele>2166.0</ele>
      </trkpt>
      <trkpt lat="44.31005" lon="6.8501">
        <time>2023-04-10T07:05:06+00:00</time>
        <ele>2166.0</ele>
      </trkpt>
      <trkpt lat="44.31005" lon="6.8501">
        <time>2023-04-10T07:05:07+00:00</time>
        <ele>2166.0</ele>
      </trkpt>
      <trkpt lat="44.31003" lon="6.8501">
        <time>2023-04-10T07:05:08+00:00</time>
        <ele>2166.0</ele>
      </trkpt>
      <trkpt lat="44.31003" lon="6.8501">
        <time>2023-04-10T07:05:09+00:00</time>
        <ele>2166.0</ele>
      </trkpt>
      <trkpt lat="44.31001" lon="6.8501">
        <time>2023-04-10T07:05:10+00:00</time>
        <ele>2167.0</ele>
      </trkpt>
      <trkpt lat="44.31001" lon="6.8501">
        <time>2023-04-10T07:05:11+00:00</time>
        <ele>2167.0</ele>
      </trkpt>
      <trkpt lat="44.31001" lon="6.8501">
        <time>2023-04-10T07:05:12+00:00</time>
        <ele>2167.0</ele>
      </trkpt>
      <trkpt lat="44.30999" lon="6.8501">
        <time>2023-04-10T07:05:13+00:00</time>
        <ele>2168.0</ele>
      </trkpt>
      <trkpt lat="44.30999" lon="6.8501">
        <time>2023-04-10T07:05:14+00:00</time>
        <ele>2168.0</ele>
      </trkpt>
      <trkpt lat="44.30999" lon="6.8501">
        <time>2023-04-10T07:05:15+00:00</time>
        <ele>2168.0</ele>
      </trkpt>
      <trkpt lat="44.30997" lon="6.85009">
        <time>2023-04-10T07:05:16+00:00</time>
        <ele>2168.0</ele>
      </trkpt>
      <trkpt lat="44.30997" lon="6.85009">
        <time>2023-04-10T07:05:17+00:00</time>
        <ele>2168.0</ele>
      </trkpt>
      <trkpt lat="44.30997" lon="6.85009">
        <time>2023-04-10T07:05:18+00:00</time>
        <ele>2168.0</ele>
      </trkpt>
      <trkpt lat="44.30997" lon="6.85009">
        <time>2023-04-10T07:05:19+00:00</time>
        <ele>2168.0</ele>
      </trkpt>
      <trkpt lat="44.30994" lon="6.8501">
        <time>2023-04-10T07:05:20+00:00</time>
        <ele>2169.0</ele>
      </trkpt>
      <trkpt lat="44.30994" lon="6.8501">
        <time>2023-04-10T07:05:21+00:00</time>
        <ele>2169.0</ele>
      </trkpt>
      <trkpt lat="44.30994" lon="6.8501">
        <time>2023-04-10T07:05:22+00:00</time>
        <ele>2169.0</ele>
      </trkpt>
      <trkpt lat="44.30994" lon="6.8501">
        <time>2023-04-10T07:05:23+00:00</time>
        <ele>2169.0</ele>
      </trkpt>
      <trkpt lat="44.30992" lon="6.85009">
        <time>2023-04-10T07:05:24+00:00</time>
        <ele>2170.0</ele>
      </trkpt>
      <trkpt lat="44.30992" lon="6.85009">
        <time>2023-04-10T07:05:25+00:00</time>
        <ele>2170.0</ele>
      </trkpt>
      <trkpt lat="44.30992" lon="6.85009">
        <time>2023-04-10T07:05:26+00:00</time>
        <ele>2170.0</ele>
      </trkpt>
      <trkpt lat="44.30992" lon="6.85009">
        <time>2023-04-10T07:05:27+00:00</time>
        <ele>2170.0</ele>
      </trkpt>
      <trkpt lat="44.30989" lon="6.85009">
        <time>2023-04-10T07:05:28+00:00</time>
        <ele>2170.0</ele>
      </trkpt>
      <trkpt lat="44.30989" lon="6.85009">
        <time>2023-04-10T07:05:29+00:00</time>
        <ele>2170.0</ele>
      </trkpt>
      <trkpt lat="44.30989" lon="6.85009">
        <time>2023-04-10T07:05:30+00:00</time>
        <ele>2170.0</ele>
      </trkpt>
      <trkpt lat="44.30988" lon="6.85008">
        <time>2023-04-10T07:05:31+00:00</time>
        <ele>2171.0</ele>
      </trkpt>
      <trkpt lat="44.30988" lon="6.85008">
        <time>2023-04-10T07:05:32+00:00</time>
        <ele>2171.0</ele>
      </trkpt>
      <trkpt lat="44.30988" lon="6.85008">
        <time>2023-04-10T07:05:33+00:00</time>
        <ele>2171.0</ele>
      </trkpt>
      <trkpt lat="44.30988" lon="6.85008">
        <time>2023-04-10T07:05:34+00:00</time>
        <ele>2171.0</ele>
      </trkpt>
      <trkpt lat="44.30985" lon="6.85008">
        <time>2023-04-10T07:05:35+00:00</time>
        <ele>2171.0</ele>
      </trkpt>
      <trkpt lat="44.30985" lon="6.85008">
        <time>2023-04-10T07:05:36+00:00</time>
        <ele>2171.0</ele>
      </trkpt>
      <trkpt lat="44.30985" lon="6.85008">
        <time>2023-04-10T07:05:37+00:00</time>
        <ele>2171.0</ele>
      </trkpt>
      <trkpt lat="44.30983" lon="6.85008">
        <time>2023-04-10T07:05:38+00:00</time>
        <ele>2172.0</ele>
      </trkpt>
      <trkpt lat="44.30983" lon="6.85008">
        <time>2023-04-10T07:05:39+00:00</time>
        <ele>2172.0</ele>
      </trkpt>
      <trkpt lat="44.30983" lon="6.85008">
        <time>2023-04-10T07:05:40+00:00</time>
        <ele>2172.0</ele>
      </trkpt>
      <trkpt lat="44.30981" lon="6.85007">
        <time>2023-04-10T07:05:41+00:00</time>
        <ele>2172.0</ele>
      </trkpt>
      <trkpt lat="44.30981" lon="6.85007">
        <time>2023-04-10T07:05:42+00:00</time>
        <ele>2172.0</ele>
      </trkpt>
      <trkpt lat="44.30981" lon="6.85007">
        <time>2023-04-10T07:05:43+00:00</time>
        <ele>2172.0</ele>
      </trkpt>
      <trkpt lat="44.30979" lon="6.85005">
        <time>2023-04-10T07:05:44+00:00</time>
        <ele>2173.0</ele>
      </trkpt>
      <trkpt lat="44.30979" lon="6.85005">
        <time>2023-04-10T07:05:45+00:00</time>
        <ele>2173.0</ele>
      </trkpt>
      <trkpt lat="44.30979" lon="6.85005">
        <time>2023-04-10T07:05:46+00:00</time>
        <ele>2173.0</ele>
      </trkpt>
      <trkpt lat="44.30977" lon="6.85005">
        <time>2023-04-10T07:05:47+00:00</time>
        <ele>2174.0</ele>
      </trkpt>
      <trkpt lat="44.30977" lon="6.85005">
        <time>2023-04-10T07:05:48+00:00</time>
        <ele>2174.0</ele>
      </trkpt>
      <trkpt lat="44.30977" lon="6.85005">
        <time>2023-04-10T07:05:49+00:00</time>
        <ele>2174.0</ele>
      </trkpt>
      <trkpt lat="44.30977" lon="6.85005">
        <time>2023-04-10T07:05:50+00:00</time>
        <ele>2174.0</ele>
      </trkpt>
      <trkpt lat="44.30975" lon="6.85003">
        <time>2023-04-10T07:05:51+00:00</time>
        <ele>2174.0</ele>
      </trkpt>
      <trkpt lat="44.30975" lon="6.85003">
        <time>2023-04-10T07:05:52+00:00</time>
        <ele>2174.0</ele>
      </trkpt>
      <trkpt lat="44.30973" lon="6.85003">
        <time>2023-04-10T07:05:53+00:00</time>
        <ele>2175.0</ele>
      </trkpt>
      <trkpt lat="44.30973" lon="6.85003">
        <time>2023-04-10T07:05:54+00:00</time>
        <ele>2175.0</ele>
      </trkpt>
      <trkpt lat="44.30973" lon="6.85003">
        <time>2023-04-10T07:05:55+00:00</time>
        <ele>2175.0</ele>
      </trkpt>
      <trkpt lat="44.30971" lon="6.85003">
        <time>2023-04-10T07:05:56+00:00</time>
        <ele>2175.0</ele>
      </trkpt>
      <trkpt lat="44.30971" lon="6.85003">
        <time>2023-04-10T07:05:57+00:00</time>
        <ele>2175.0</ele>
      </trkpt>
      <trkpt lat="44.30971" lon="6.85003">
        <time>2023-04-10T07:05:58+00:00</time>
        <ele>2175.0</ele>
      </trkpt>
      <trkpt lat="44.30968" lon="6.85002">
        <time>2023-04-10T07:05:59+00:00</time>
        <ele>2176.0</ele>
      </trkpt>
      <trkpt lat="44.30968" lon="6.85002">
        <time>2023-04-10T07:06:00+00:00</time>
        <ele>2176.0</ele>
      </trkpt>
      <trkpt lat="44.30968" lon="6.85002">
        <time>2023-04-10T07:06:01+00:00</time>
        <ele>2176.0</ele>
      </trkpt>
      <trkpt lat="44.30968" lon="6.85002">
        <time>2023-04-10T07:06:02+00:00</time>
        <ele>2176.0</ele>
      </trkpt>
      <trkpt lat="44.30968" lon="6.85002">
        <time>2023-04-10T07:06:03+00:00</time>
        <ele>2176.0</ele>
      </trkpt>
      <trkpt lat="44.30966" lon="6.85002">
        <time>2023-04-10T07:06:04+00:00</time>
        <ele>2176.0</ele>
      </trkpt>
      <trkpt lat="44.30966" lon="6.85002">
        <time>2023-04-10T07:06:05+00:00</time>
        <ele>2176.0</ele>
      </trkpt>
      <trkpt lat="44.30964" lon="6.85002">
        <time>2023-04-10T07:06:06+00:00</time>
        <ele>2177.0</ele>
      </trkpt>
      <trkpt lat="44.30964" lon="6.85002">
        <time>2023-04-10T07:06:07+00:00</time>
        <ele>2177.0</ele>
      </trkpt>
      <trkpt lat="44.30964" lon="6.85002">
        <time>2023-04-10T07:06:08+00:00</time>
        <ele>2177.0</ele>
      </trkpt>
      <trkpt lat="44.30962" lon="6.85002">
        <time>2023-04-10T07:06:09+00:00</time>
        <ele>2177.0</ele>
      </trkpt>
      <trkpt lat="44.30962" lon="6.85002">
        <time>2023-04-10T07:06:10+00:00</time>
        <ele>2177.0</ele>
      </trkpt>
      <trkpt lat="44.30962" lon="6.85002">
        <time>2023-04-10T07:06:11+00:00</time>
        <ele>2177.0</ele>
      </trkpt>
      <trkpt lat="44.30959" lon="6.85001">
        <time>2023-04-10T07:06:12+00:00</time>
        <ele>2178.0</ele>
      </trkpt>
      <trkpt lat="44.30959" lon="6.85001">
        <time>2023-04-10T07:06:13+00:00</time>
        <ele>2178.0</ele>
      </trkpt>
      <trkpt lat="44.30959" lon="6.85001">
        <time>2023-04-10T07:06:14+00:00</time>
        <ele>2178.0</ele>
      </trkpt>
      <trkpt lat="44.30957" lon="6.85">
        <time>2023-04-10T07:06:15+00:00</time>
        <ele>2178.0</ele>
      </trkpt>
      <trkpt lat="44.30957" lon="6.85">
        <time>2023-04-10T07:06:16+00:00</time>
        <ele>2178.0</ele>
      </trkpt>
      <trkpt lat="44.30957" lon="6.85">
        <time>2023-04-10T07:06:17+00:00</time>
        <ele>2178.0</ele>
      </trkpt>
      <trkpt lat="44.30956" lon="6.84999">
        <time>2023-04-10T07:06:18+00:00</time>
        <ele>2178.0</ele>
      </trkpt>
      <trkpt lat="44.30956" lon="6.84999">
        <time>2023-04-10T07:06:19+00:00</time>
        <ele>2178.0</ele>
      </trkpt>
      <trkpt lat="44.30956" lon="6.84999">
        <time>2023-04-10T07:06:20+00:00</time>
        <ele>2178.0</ele>
      </trkpt>
      <trkpt lat="44.30954" lon="6.84998">
        <time>2023-04-10T07:06:21+00:00</time>
        <ele>2179.0</ele>
      </trkpt>
      <trkpt lat="44.30954" lon="6.84998">
        <time>2023-04-10T07:06:22+00:00</time>
        <ele>2179.0</ele>
      </trkpt>
      <trkpt lat="44.30954" lon="6.84998">
        <time>2023-04-10T07:06:23+00:00</time>
        <ele>2179.0</ele>
      </trkpt>
      <trkpt lat="44.30952" lon="6.84997">
        <time>2023-04-10T07:06:24+00:00</time>
        <ele>2179.0</ele>
      </trkpt>
      <trkpt lat="44.30952" lon="6.84997">
        <time>2023-04-10T07:06:25+00:00</time>
        <ele>2179.0</ele>
      </trkpt>
      <trkpt lat="44.30952" lon="6.84997">
        <time>2023-04-10T07:06:26+00:00</time>
        <ele>2179.0</ele>
      </trkpt>
      <trkpt lat="44.30952" lon="6.84997">
        <time>2023-04-10T07:06:27+00:00</time>
        <ele>2179.0</ele>
      </trkpt>
      <trkpt lat="44.30949" lon="6.84997">
        <time>2023-04-10T07:06:28+00:00</time>
        <ele>2180.0</ele>
      </trkpt>
      <trkpt lat="44.30949" lon="6.84997">
        <time>2023-04-10T07:06:29+00:00</time>
        <ele>2180.0</ele>
      </trkpt>
      <trkpt lat="44.30949" lon="6.84997">
        <time>2023-04-10T07:06:30+00:00</time>
        <ele>2180.0</ele>
      </trkpt>
      <trkpt lat="44.30948" lon="6.84996">
        <time>2023-04-10T07:06:31+00:00</time>
        <ele>2180.0</ele>
      </trkpt>
      <trkpt lat="44.30948" lon="6.84996">
        <time>2023-04-10T07:06:32+00:00</time>
        <ele>2180.0</ele>
      </trkpt>
      <trkpt lat="44.30948" lon="6.84996">
        <time>2023-04-10T07:06:33+00:00</time>
        <ele>2180.0</ele>
      </trkpt>
      <trkpt lat="44.30945" lon="6.84994">
        <time>2023-04-10T07:06:34+00:00</time>
        <ele>2181.0</ele>
      </trkpt>
      <trkpt lat="44.30945" lon="6.84994">
        <time>2023-04-10T07:06:35+00:00</time>
        <ele>2181.0</ele>
      </trkpt>
      <trkpt lat="44.30945" lon="6.84994">
        <time>2023-04-10T07:06:36+00:00</time>
        <ele>2181.0</ele>
      </trkpt>
      <trkpt lat="44.30943" lon="6.84993">
        <time>2023-04-10T07:06:37+00:00</time>
        <ele>2182.0</ele>
      </trkpt>
      <trkpt lat="44.30943" lon="6.84993">
        <time>2023-04-10T07:06:38+00:00</time>
        <ele>2182.0</ele>
      </trkpt>
      <trkpt lat="44.30943" lon="6.84993">
        <time>2023-04-10T07:06:39+00:00</time>
        <ele>2182.0</ele>
      </trkpt>
      <trkpt lat="44.30943" lon="6.84993">
        <time>2023-04-10T07:06:40+00:00</time>
        <ele>2182.0</ele>
      </trkpt>
      <trkpt lat="44.30941" lon="6.84992">
        <time>2023-04-10T07:06:41+00:00</time>
        <ele>2183.0</ele>
      </trkpt>
      <trkpt lat="44.30941" lon="6.84992">
        <time>2023-04-10T07:06:42+00:00</time>
        <ele>2183.0</ele>
      </trkpt>
      <trkpt lat="44.30941" lon="6.84992">
        <time>2023-04-10T07:06:43+00:00</time>
        <ele>2183.0</ele>
      </trkpt>
      <trkpt lat="44.30938" lon="6.84991">
        <time>2023-04-10T07:06:44+00:00</time>
        <ele>2184.0</ele>
      </trkpt>
      <trkpt lat="44.30938" lon="6.84991">
        <time>2023-04-10T07:06:45+00:00</time>
        <ele>2184.0</ele>
      </trkpt>
      <trkpt lat="44.30938" lon="6.84991">
        <time>2023-04-10T07:06:46+00:00</time>
        <ele>2184.0</ele>
      </trkpt>
      <trkpt lat="44.30938" lon="6.84991">
        <time>2023-04-10T07:06:47+00:00</time>
        <ele>2184.0</ele>
      </trkpt>
      <trkpt lat="44.30936" lon="6.8499">
        <time>2023-04-10T07:06:48+00:00</time>
        <ele>2185.0</ele>
      </trkpt>
      <trkpt lat="44.30936" lon="6.8499">
        <time>2023-04-10T07:06:49+00:00</time>
        <ele>2185.0</ele>
      </trkpt>
      <trkpt lat="44.30936" lon="6.8499">
        <time>2023-04-10T07:06:50+00:00</time>
        <ele>2185.0</ele>
      </trkpt>
      <trkpt lat="44.30936" lon="6.8499">
        <time>2023-04-10T07:06:51+00:00</time>
        <ele>2185.0</ele>
      </trkpt>
      <trkpt lat="44.30936" lon="6.8499">
        <time>2023-04-10T07:06:52+00:00</time>
        <ele>2185.0</ele>
      </trkpt>
      <trkpt lat="44.30933" lon="6.84989">
        <time>2023-04-10T07:06:53+00:00</time>
        <ele>2186.0</ele>
      </trkpt>
      <trkpt lat="44.30933" lon="6.84989">
        <time>2023-04-10T07:06:54+00:00</time>
        <ele>2186.0</ele>
      </trkpt>
      <trkpt lat="44.30931" lon="6.84988">
        <time>2023-04-10T07:06:55+00:00</time>
        <ele>2186.0</ele>
      </trkpt>
      <trkpt lat="44.30931" lon="6.84988">
        <time>2023-04-10T07:06:56+00:00</time>
        <ele>2186.0</ele>
      </trkpt>
      <trkpt lat="44.30931" lon="6.84988">
        <time>2023-04-10T07:06:57+00:00</time>
        <ele>2186.0</ele>
      </trkpt>
      <trkpt lat="44.30929" lon="6.84988">
        <time>2023-04-10T07:06:58+00:00</time>
        <ele>2187.0</ele>
      </trkpt>
      <trkpt lat="44.30929" lon="6.84988">
        <time>2023-04-10T07:06:59+00:00</time>
        <ele>2187.0</ele>
      </trkpt>
      <trkpt lat="44.30927" lon="6.84988">
        <time>2023-04-10T07:07:00+00:00</time>
        <ele>2187.0</ele>
      </trkpt>
      <trkpt lat="44.30927" lon="6.84988">
        <time>2023-04-10T07:07:01+00:00</time>
        <ele>2187.0</ele>
      </trkpt>
      <trkpt lat="44.30927" lon="6.84988">
        <time>2023-04-10T07:07:02+00:00</time>
        <ele>2187.0</ele>
      </trkpt>
      <trkpt lat="44.30925" lon="6.84988">
        <time>2023-04-10T07:07:03+00:00</time>
        <ele>2188.0</ele>
      </trkpt>
      <trkpt lat="44.30925" lon="6.84988">
        <time>2023-04-10T07:07:04+00:00</time>
        <ele>2188.0</ele>
      </trkpt>
      <trkpt lat="44.30925" lon="6.84988">
        <time>2023-04-10T07:07:05+00:00</time>
        <ele>2188.0</ele>
      </trkpt>
      <trkpt lat="44.30923" lon="6.84988">
        <time>2023-04-10T07:07:06+00:00</time>
        <ele>2189.0</ele>
      </trkpt>
      <trkpt lat="44.30923" lon="6.84988">
        <time>2023-04-10T07:07:07+00:00</time>
        <ele>2189.0</ele>
      </trkpt>
      <trkpt lat="44.30923" lon="6.84988">
        <time>2023-04-10T07:07:08+00:00</time>
        <ele>2189.0</ele>
      </trkpt>
      <trkpt lat="44.30921" lon="6.84987">
        <time>2023-04-10T07:07:09+00:00</time>
        <ele>2189.0</ele>
      </trkpt>
      <trkpt lat="44.30921" lon="6.84987">
        <time>2023-04-10T07:07:10+00:00</time>
        <ele>2189.0</ele>
      </trkpt>
      <trkpt lat="44.30921" lon="6.84987">
        <time>2023-04-10T07:07:11+00:00</time>
        <ele>2189.0</ele>
      </trkpt>
      <trkpt lat="44.30921" lon="6.84987">
        <time>2023-04-10T07:07:12+00:00</time>
        <ele>2189.0</ele>
      </trkpt>
      <trkpt lat="44.30918" lon="6.84985">
        <time>2023-04-10T07:07:13+00:00</time>
        <ele>2191.0</ele>
      </trkpt>
      <trkpt lat="44.30918" lon="6.84985">
        <time>2023-04-10T07:07:14+00:00</time>
        <ele>2191.0</ele>
      </trkpt>
      <trkpt lat="44.30918" lon="6.84985">
        <time>2023-04-10T07:07:15+00:00</time>
        <ele>2191.0</ele>
      </trkpt>
      <trkpt lat="44.30917" lon="6.84985">
        <time>2023-04-10T07:07:16+00:00</time>
        <ele>2191.0</ele>
      </trkpt>
      <trkpt lat="44.30917" lon="6.84985">
        <time>2023-04-10T07:07:17+00:00</time>
        <ele>2191.0</ele>
      </trkpt>
      <trkpt lat="44.30917" lon="6.84985">
        <time>2023-04-10T07:07:18+00:00</time>
        <ele>2191.0</ele>
      </trkpt>
      <trkpt lat="44.30914" lon="6.84984">
        <time>2023-04-10T07:07:19+00:00</time>
        <ele>2192.0</ele>
      </trkpt>
      <trkpt lat="44.30914" lon="6.84984">
        <time>2023-04-10T07:07:20+00:00</time>
        <ele>2192.0</ele>
      </trkpt>
      <trkpt lat="44.30914" lon="6.84984">
        <time>2023-04-10T07:07:21+00:00</time>
        <ele>2192.0</ele>
      </trkpt>
      <trkpt lat="44.30914" lon="6.84984">
        <time>2023-04-10T07:07:22+00:00</time>
        <ele>2192.0</ele>
      </trkpt>
      <trkpt lat="44.30912" lon="6.84984">
        <time>2023-04-10T07:07:23+00:00</time>
        <ele>2193.0</ele>
      </trkpt>
      <trkpt lat="44.30912" lon="6.84984">
        <time>2023-04-10T07:07:24+00:00</time>
        <ele>2193.0</ele>
      </trkpt>
      <trkpt lat="44.30912" lon="6.84984">
        <time>2023-04-10T07:07:25+00:00</time>
        <ele>2193.0</ele>
      </trkpt>
      <trkpt lat="44.3091" lon="6.84983">
        <time>2023-04-10T07:07:26+00:00</time>
        <ele>2194.0</ele>
      </trkpt>
      <trkpt lat="44.3091" lon="6.84983">
        <time>2023-04-10T07:07:27+00:00</time>
        <ele>2194.0</ele>
      </trkpt>
      <trkpt lat="44.3091" lon="6.84983">
        <time>2023-04-10T07:07:28+00:00</time>
        <ele>2194.0</ele>
      </trkpt>
      <trkpt lat="44.30908" lon="6.84982">
        <time>2023-04-10T07:07:29+00:00</time>
        <ele>2194.0</ele>
      </trkpt>
      <trkpt lat="44.30908" lon="6.84982">
        <time>2023-04-10T07:07:30+00:00</time>
        <ele>2194.0</ele>
      </trkpt>
      <trkpt lat="44.30908" lon="6.84982">
        <time>2023-04-10T07:07:31+00:00</time>
        <ele>2194.0</ele>
      </trkpt>
      <trkpt lat="44.30908" lon="6.84982">
        <time>2023-04-10T07:07:32+00:00</time>
        <ele>2194.0</ele>
      </trkpt>
      <trkpt lat="44.30906" lon="6.84981">
        <time>2023-04-10T07:07:33+00:00</time>
        <ele>2195.0</ele>
      </trkpt>
      <trkpt lat="44.30906" lon="6.84981">
        <time>2023-04-10T07:07:34+00:00</time>
        <ele>2195.0</ele>
      </trkpt>
      <trkpt lat="44.30906" lon="6.84981">
        <time>2023-04-10T07:07:35+00:00</time>
        <ele>2195.0</ele>
      </trkpt>
      <trkpt lat="44.30906" lon="6.84981">
        <time>2023-04-10T07:07:36+00:00</time>
        <ele>2195.0</ele>
      </trkpt>
      <trkpt lat="44.30904" lon="6.84979">
        <time>2023-04-10T07:07:37+00:00</time>
        <ele>2196.0</ele>
      </trkpt>
      <trkpt lat="44.30904" lon="6.84979">
        <time>2023-04-10T07:07:38+00:00</time>
        <ele>2196.0</ele>
      </trkpt>
      <trkpt lat="44.30904" lon="6.84979">
        <time>2023-04-10T07:07:39+00:00</time>
        <ele>2196.0</ele>
      </trkpt>
      <trkpt lat="44.30904" lon="6.84979">
        <time>2023-04-10T07:07:40+00:00</time>
        <ele>2196.0</ele>
      </trkpt>
      <trkpt lat="44.30902" lon="6.84978">
        <time>2023-04-10T07:07:41+00:00</time>
        <ele>2197.0</ele>
      </trkpt>
      <trkpt lat="44.30902" lon="6.84978">
        <time>2023-04-10T07:07:42+00:00</time>
        <ele>2197.0</ele>
      </trkpt>
      <trkpt lat="44.30902" lon="6.84978">
        <time>2023-04-10T07:07:43+00:00</time>
        <ele>2197.0</ele>
      </trkpt>
      <trkpt lat="44.30902" lon="6.84978">
        <time>2023-04-10T07:07:44+00:00</time>
        <ele>2197.0</ele>
      </trkpt>
      <trkpt lat="44.30901" lon="6.84975">
        <time>2023-04-10T07:07:45+00:00</time>
        <ele>2198.0</ele>
      </trkpt>
      <trkpt lat="44.30901" lon="6.84975">
        <time>2023-04-10T07:07:46+00:00</time>
        <ele>2198.0</ele>
      </trkpt>
      <trkpt lat="44.30901" lon="6.84975">
        <time>2023-04-10T07:07:47+00:00</time>
        <ele>2198.0</ele>
      </trkpt>
      <trkpt lat="44.30901" lon="6.84975">
        <time>2023-04-10T07:07:48+00:00</time>
        <ele>2198.0</ele>
      </trkpt>
      <trkpt lat="44.30898" lon="6.84974">
        <time>2023-04-10T07:07:49+00:00</time>
        <ele>2199.0</ele>
      </trkpt>
      <trkpt lat="44.30898" lon="6.84974">
        <time>2023-04-10T07:07:50+00:00</time>
        <ele>2199.0</ele>
      </trkpt>
      <trkpt lat="44.30898" lon="6.84974">
        <time>2023-04-10T07:07:51+00:00</time>
        <ele>2199.0</ele>
      </trkpt>
      <trkpt lat="44.30898" lon="6.84974">
        <time>2023-04-10T07:07:52+00:00</time>
        <ele>2199.0</ele>
      </trkpt>
      <trkpt lat="44.30896" lon="6.84973">
        <time>2023-04-10T07:07:53+00:00</time>
        <ele>2200.0</ele>
      </trkpt>
      <trkpt lat="44.30896" lon="6.84973">
        <time>2023-04-10T07:07:54+00:00</time>
        <ele>2200.0</ele>
      </trkpt>
      <trkpt lat="44.30896" lon="6.84973">
        <time>2023-04-10T07:07:55+00:00</time>
        <ele>2200.0</ele>
      </trkpt>
      <trkpt lat="44.30896" lon="6.84973">
        <time>2023-04-10T07:07:56+00:00</time>
        <ele>2200.0</ele>
      </trkpt>
      <trkpt lat="44.30894" lon="6.84971">
        <time>2023-04-10T07:07:57+00:00</time>
        <ele>2201.0</ele>
      </trkpt>
      <trkpt lat="44.30894" lon="6.84971">
        <time>2023-04-10T07:07:58+00:00</time>
        <ele>2201.0</ele>
      </trkpt>
      <trkpt lat="44.30894" lon="6.84971">
        <time>2023-04-10T07:07:59+00:00</time>
        <ele>2201.0</ele>
      </trkpt>
      <trkpt lat="44.30894" lon="6.84971">
        <time>2023-04-10T07:08:00+00:00</time>
        <ele>2201.0</ele>
      </trkpt>
      <trkpt lat="44.30893" lon="6.84971">
        <time>2023-04-10T07:08:01+00:00</time>
        <ele>2201.0</ele>
      </trkpt>
      <trkpt lat="44.30893" lon="6.84971">
        <time>2023-04-10T07:08:02+00:00</time>
        <ele>2201.0</ele>
      </trkpt>
      <trkpt lat="44.30893" lon="6.84971">
        <time>2023-04-10T07:08:03+00:00</time>
        <ele>2201.0</ele>
      </trkpt>
      <trkpt lat="44.30893" lon="6.84971">
        <time>2023-04-10T07:08:04+00:00</time>
        <ele>2201.0</ele>
      </trkpt>
      <trkpt lat="44.30891" lon="6.8497">
        <time>2023-04-10T07:08:05+00:00</time>
        <ele>2202.0</ele>
      </trkpt>
      <trkpt lat="44.30891" lon="6.8497">
        <time>2023-04-10T07:08:06+00:00</time>
        <ele>2202.0</ele>
      </trkpt>
      <trkpt lat="44.30891" lon="6.8497">
        <time>2023-04-10T07:08:07+00:00</time>
        <ele>2202.0</ele>
      </trkpt>
      <trkpt lat="44.30888" lon="6.8497">
        <time>2023-04-10T07:08:08+00:00</time>
        <ele>2203.0</ele>
      </trkpt>
      <trkpt lat="44.30888" lon="6.8497">
        <time>2023-04-10T07:08:09+00:00</time>
        <ele>2203.0</ele>
      </trkpt>
      <trkpt lat="44.30888" lon="6.8497">
        <time>2023-04-10T07:08:10+00:00</time>
        <ele>2203.0</ele>
      </trkpt>
      <trkpt lat="44.30888" lon="6.8497">
        <time>2023-04-10T07:08:11+00:00</time>
        <ele>2203.0</ele>
      </trkpt>
      <trkpt lat="44.30888" lon="6.8497">
        <time>2023-04-10T07:08:12+00:00</time>
        <ele>2203.0</ele>
      </trkpt>
      <trkpt lat="44.30886" lon="6.84969">
        <time>2023-04-10T07:08:13+00:00</time>
        <ele>2203.0</ele>
      </trkpt>
      <trkpt lat="44.30886" lon="6.84969">
        <time>2023-04-10T07:08:14+00:00</time>
        <ele>2203.0</ele>
      </trkpt>
      <trkpt lat="44.30886" lon="6.84969">
        <time>2023-04-10T07:08:15+00:00</time>
        <ele>2203.0</ele>
      </trkpt>
      <trkpt lat="44.30884" lon="6.84968">
        <time>2023-04-10T07:08:16+00:00</time>
        <ele>2204.0</ele>
      </trkpt>
      <trkpt lat="44.30884" lon="6.84968">
        <time>2023-04-10T07:08:17+00:00</time>
        <ele>2204.0</ele>
      </trkpt>
      <trkpt lat="44.30884" lon="6.84968">
        <time>2023-04-10T07:08:18+00:00</time>
        <ele>2204.0</ele>
      </trkpt>
      <trkpt lat="44.30882" lon="6.84967">
        <time>2023-04-10T07:08:19+00:00</time>
        <ele>2205.0</ele>
      </trkpt>
      <trkpt lat="44.30882" lon="6.84967">
        <time>2023-04-10T07:08:20+00:00</time>
        <ele>2205.0</ele>
      </trkpt>
      <trkpt lat="44.30882" lon="6.84967">
        <time>2023-04-10T07:08:21+00:00</time>
        <ele>2205.0</ele>
      </trkpt>
      <trkpt lat="44.3088" lon="6.84966">
        <time>2023-04-10T07:08:22+00:00</time>
        <ele>2206.0</ele>
      </trkpt>
      <trkpt lat="44.3088" lon="6.84966">
        <time>2023-04-10T07:08:23+00:00</time>
        <ele>2206.0</ele>
      </trkpt>
      <trkpt lat="44.30878" lon="6.84966">
        <time>2023-04-10T07:08:24+00:00</time>
        <ele>2206.0</ele>
      </trkpt>
      <trkpt lat="44.30878" lon="6.84966">
        <time>2023-04-10T07:08:25+00:00</time>
        <ele>2206.0</ele>
      </trkpt>
      <trkpt lat="44.30878" lon="6.84966">
        <time>2023-04-10T07:08:26+00:00</time>
        <ele>2206.0</ele>
      </trkpt>
      <trkpt lat="44.30877" lon="6.84965">
        <time>2023-04-10T07:08:27+00:00</time>
        <ele>2206.0</ele>
      </trkpt>
      <trkpt lat="44.30877" lon="6.84965">
        <time>2023-04-10T07:08:28+00:00</time>
        <ele>2206.0</ele>
      </trkpt>
      <trkpt lat="44.30877" lon="6.84965">
        <time>2023-04-10T07:08:29+00:00</time>
        <ele>2206.0</ele>
      </trkpt>
      <trkpt lat="44.30875" lon="6.84964">
        <time>2023-04-10T07:08:30+00:00</time>
        <ele>2207.0</ele>
      </trkpt>
      <trkpt lat="44.30875" lon="6.84964">
        <time>2023-04-10T07:08:31+00:00</time>
        <ele>2207.0</ele>
      </trkpt>
      <trkpt lat="44.30875" lon="6.84964">
        <time>2023-04-10T07:08:32+00:00</time>
        <ele>2207.0</ele>
      </trkpt>
      <trkpt lat="44.30875" lon="6.84964">
        <time>2023-04-10T07:08:33+00:00</time>
        <ele>2207.0</ele>
      </trkpt>
      <trkpt lat="44.30872" lon="6.84963">
        <time>2023-04-10T07:08:34+00:00</time>
        <ele>2208.0</ele>
      </trkpt>
      <trkpt lat="44.30872" lon="6.84963">
        <time>2023-04-10T07:08:35+00:00</time>
        <ele>2208.0</ele>
      </trkpt>
      <trkpt lat="44.30872" lon="6.84963">
        <time>2023-04-10T07:08:36+00:00</time>
        <ele>2208.0</ele>
      </trkpt>
      <trkpt lat="44.3087" lon="6.84962">
        <time>2023-04-10T07:08:37+00:00</time>
        <ele>2209.0</ele>
      </trkpt>
      <trkpt lat="44.3087" lon="6.84962">
        <time>2023-04-10T07:08:38+00:00</time>
        <ele>2209.0</ele>
      </trkpt>
      <trkpt lat="44.30868" lon="6.84962">
        <time>2023-04-10T07:08:39+00:00</time>
        <ele>2209.0</ele>
      </trkpt>
      <trkpt lat="44.30868" lon="6.84962">
        <time>2023-04-10T07:08:40+00:00</time>
        <ele>2209.0</ele>
      </trkpt>
      <trkpt lat="44.30868" lon="6.84962">
        <time>2023-04-10T07:08:41+00:00</time>
        <ele>2209.0</ele>
      </trkpt>
      <trkpt lat="44.30868" lon="6.84962">
        <time>2023-04-10T07:08:42+00:00</time>
        <ele>2209.0</ele>
      </trkpt>
      <trkpt lat="44.30866" lon="6.84961">
        <time>2023-04-10T07:08:43+00:00</time>
        <ele>2210.0</ele>
      </trkpt>
      <trkpt lat="44.30866" lon="6.84961">
        <time>2023-04-10T07:08:44+00:00</time>
        <ele>2210.0</ele>
      </trkpt>
      <trkpt lat="44.30864" lon="6.84961">
        <time>2023-04-10T07:08:45+00:00</time>
        <ele>2210.0</ele>
      </trkpt>
      <trkpt lat="44.30864" lon="6.84961">
        <time>2023-04-10T07:08:46+00:00</time>
        <ele>2210.0</ele>
      </trkpt>
      <trkpt lat="44.30864" lon="6.84961">
        <time>2023-04-10T07:08:47+00:00</time>
        <ele>2210.0</ele>
      </trkpt>
      <trkpt lat="44.30862" lon="6.84961">
        <time>2023-04-10T07:08:48+00:00</time>
        <ele>2211.0</ele>
      </trkpt>
      <trkpt lat="44.30862" lon="6.84961">
        <time>2023-04-10T07:08:49+00:00</time>
        <ele>2211.0</ele>
      </trkpt>
      <trkpt lat="44.30862" lon="6.84961">
        <time>2023-04-10T07:08:50+00:00</time>
        <ele>2211.0</ele>
      </trkpt>
      <trkpt lat="44.30862" lon="6.84961">
        <time>2023-04-10T07:08:51+00:00</time>
        <ele>2211.0</ele>
      </trkpt>
      <trkpt lat="44.30862" lon="6.84961">
        <time>2023-04-10T07:08:52+00:00</time>
        <ele>2211.0</ele>
      </trkpt>
      <trkpt lat="44.30862" lon="6.84961">
        <time>2023-04-10T07:08:53+00:00</time>
        <ele>2211.0</ele>
      </trkpt>
      <trkpt lat="44.30862" lon="6.84961">
        <time>2023-04-10T07:08:54+00:00</time>
        <ele>2211.0</ele>
      </trkpt>
      <trkpt lat="44.30862" lon="6.84961">
        <time>2023-04-10T07:08:55+00:00</time>
        <ele>2211.0</ele>
      </trkpt>
      <trkpt lat="44.30862" lon="6.84961">
        <time>2023-04-10T07:08:56+00:00</time>
        <ele>2211.0</ele>
      </trkpt>
      <trkpt lat="44.30862" lon="6.84961">
        <time>2023-04-10T07:08:57+00:00</time>
        <ele>2211.0</ele>
      </trkpt>
      <trkpt lat="44.30862" lon="6.84961">
        <time>2023-04-10T07:08:58+00:00</time>
        <ele>2211.0</ele>
      </trkpt>
      <trkpt lat="44.30862" lon="6.84961">
        <time>2023-04-10T07:08:59+00:00</time>
        <ele>2211.0</ele>
      </trkpt>
      <trkpt lat="44.30862" lon="6.84961">
        <time>2023-04-10T07:09:00+00:00</time>
        <ele>2211.0</ele>
      </trkpt>
      <trkpt lat="44.30862" lon="6.84961">
        <time>2023-04-10T07:09:01+00:00</time>
        <ele>2211.0</ele>
      </trkpt>
      <trkpt lat="44.30862" lon="6.84961">
        <time>2023-04-10T07:09:02+00:00</time>
        <ele>2211.0</ele>
      </trkpt>
      <trkpt lat="44.30861" lon="6.84961">
        <time>2023-04-10T07:09:03+00:00</time>
        <ele>2211.0</ele>
      </trkpt>
      <trkpt lat="44.30861" lon="6.84961">
        <time>2023-04-10T07:09:04+00:00</time>
        <ele>2211.0</ele>
      </trkpt>
      <trkpt lat="44.30861" lon="6.84961">
        <time>2023-04-10T07:09:05+00:00</time>
        <ele>2211.0</ele>
      </trkpt>
      <trkpt lat="44.30861" lon="6.84961">
        <time>2023-04-10T07:09:06+00:00</time>
        <ele>2211.0</ele>
      </trkpt>
      <trkpt lat="44.30861" lon="6.84961">
        <time>2023-04-10T07:09:07+00:00</time>
        <ele>2211.0</ele>
      </trkpt>
      <trkpt lat="44.30861" lon="6.84961">
        <time>2023-04-10T07:09:08+00:00</time>
        <ele>2211.0</ele>
      </trkpt>
      <trkpt lat="44.30861" lon="6.84961">
        <time>2023-04-10T07:09:09+00:00</time>
        <ele>2211.0</ele>
      </trkpt>
      <trkpt lat="44.30861" lon="6.84961">
        <time>2023-04-10T07:09:10+00:00</time>
        <ele>2211.0</ele>
      </trkpt>
      <trkpt lat="44.30861" lon="6.84961">
        <time>2023-04-10T07:09:11+00:00</time>
        <ele>2211.0</ele>
      </trkpt>
      <trkpt lat="44.30861" lon="6.84961">
        <time>2023-04-10T07:09:12+00:00</time>
        <ele>2211.0</ele>
      </trkpt>
      <trkpt lat="44.30861" lon="6.84961">
        <time>2023-04-10T07:09:13+00:00</time>
        <ele>2211.0</ele>
      </trkpt>
      <trkpt lat="44.30861" lon="6.84961">
        <time>2023-04-10T07:09:14+00:00</time>
        <ele>2211.0</ele>
      </trkpt>
      <trkpt lat="44.30861" lon="6.84961">
        <time>2023-04-10T07:09:15+00:00</time>
        <ele>2211.0</ele>
      </trkpt>
      <trkpt lat="44.30861" lon="6.84961">
        <time>2023-04-10T07:09:16+00:00</time>
        <ele>2211.0</ele>
      </trkpt>
      <trkpt lat="44.30861" lon="6.84961">
        <time>2023-04-10T07:09:17+00:00</time>
        <ele>2211.0</ele>
      </trkpt>
      <trkpt lat="44.30861" lon="6.84961">
        <time>2023-04-10T07:09:18+00:00</time>
        <ele>2211.0</ele>
      </trkpt>
      <trkpt lat="44.30861" lon="6.84961">
        <time>2023-04-10T07:09:19+00:00</time>
        <ele>2211.0</ele>
      </trkpt>
      <trkpt lat="44.30861" lon="6.84961">
        <time>2023-04-10T07:09:20+00:00</time>
        <ele>2211.0</ele>
      </trkpt>
      <trkpt lat="44.30861" lon="6.84961">
        <time>2023-04-10T07:09:21+00:00</time>
        <ele>2211.0</ele>
      </trkpt>
      <trkpt lat="44.30861" lon="6.84961">
        <time>2023-04-10T07:09:22+00:00</time>
        <ele>2211.0</ele>
      </trkpt>
      <trkpt lat="44.30861" lon="6.84961">
        <time>2023-04-10T07:09:23+00:00</time>
        <ele>2211.0</ele>
      </trkpt>
      <trkpt lat="44.30861" lon="6.84961">
        <time>2023-04-10T07:09:24+00:00</time>
        <ele>2211.0</ele>
      </trkpt>
      <trkpt lat="44.30861" lon="6.84961">
        <time>2023-04-10T07:09:25+00:00</time>
        <ele>2211.0</ele>
      </trkpt>
      <trkpt lat="44.30861" lon="6.84961">
        <time>2023-04-10T07:09:26+00:00</time>
        <ele>2211.0</ele>
      </trkpt>
      <trkpt lat="44.30861" lon="6.84961">
        <time>2023-04-10T07:09:27+00:00</time>
        <ele>2211.0</ele>
      </trkpt>
      <trkpt lat="44.30861" lon="6.84961">
        <time>2023-04-10T07:09:28+00:00</time>
        <ele>2211.0</ele>
      </trkpt>
      <trkpt lat="44.30861" lon="6.84961">
        <time>2023-04-10T07:09:29+00:00</time>
        <ele>2211.0</ele>
      </trkpt>
      <trkpt lat="44.30861" lon="6.84961">
        <time>2023-04-10T07:09:30+00:00</time>
        <ele>2211.0</ele>
      </trkpt>
      <trkpt lat="44.30861" lon="6.84961">
        <time>2023-04-10T07:09:31+00:00</time>
        <ele>2211.0</ele>
      </trkpt>
      <trkpt lat="44.30861" lon="6.84961">
        <time>2023-04-10T07:09:32+00:00</time>
        <ele>2211.0</ele>
      </trkpt>
      <trkpt lat="44.30861" lon="6.84961">
        <time>2023-04-10T07:09:33+00:00</time>
        <ele>2211.0</ele>
      </trkpt>
      <trkpt lat="44.30861" lon="6.84961">
        <time>2023-04-10T07:09:34+00:00</time>
        <ele>2211.0</ele>
      </trkpt>
      <trkpt lat="44.30861" lon="6.84961">
        <time>2023-04-10T07:09:35+00:00</time>
        <ele>2211.0</ele>
      </trkpt>
      <trkpt lat="44.30861" lon="6.84961">
        <time>2023-04-10T07:09:36+00:00</time>
        <ele>2211.0</ele>
      </trkpt>
      <trkpt lat="44.30861" lon="6.84961">
        <time>2023-04-10T07:09:37+00:00</time>
        <ele>2211.0</ele>
      </trkpt>
      <trkpt lat="44.30861" lon="6.84961">
        <time>2023-04-10T07:09:38+00:00</time>
        <ele>2211.0</ele>
      </trkpt>
      <trkpt lat="44.30861" lon="6.84961">
        <time>2023-04-10T07:09:39+00:00</time>
        <ele>2211.0</ele>
      </trkpt>
      <trkpt lat="44.30861" lon="6.84961">
        <time>2023-04-10T07:09:40+00:00</time>
        <ele>2211.0</ele>
      </trkpt>
      <trkpt lat="44.30861" lon="6.84961">
        <time>2023-04-10T07:09:41+00:00</time>
        <ele>2211.0</ele>
      </trkpt>
      <trkpt lat="44.30861" lon="6.84961">
        <time>2023-04-10T07:09:42+00:00</time>
        <ele>2211.0</ele>
      </trkpt>
      <trkpt lat="44.30861" lon="6.84961">
        <time>2023-04-10T07:09:43+00:00</time>
        <ele>2211.0</ele>
      </trkpt>
      <trkpt lat="44.30861" lon="6.84961">
        <time>2023-04-10T07:09:44+00:00</time>
        <ele>2211.0</ele>
      </trkpt>
      <trkpt lat="44.30861" lon="6.84961">
        <time>2023-04-10T07:09:45+00:00</time>
        <ele>2211.0</ele>
      </trkpt>
      <trkpt lat="44.30861" lon="6.84961">
        <time>2023-04-10T07:09:46+00:00</time>
        <ele>2211.0</ele>
      </trkpt>
      <trkpt lat="44.3086" lon="6.84961">
        <time>2023-04-10T07:09:47+00:00</time>
        <ele>2211.0</ele>
      </trkpt>
      <trkpt lat="44.3086" lon="6.84961">
        <time>2023-04-10T07:09:48+00:00</time>
        <ele>2211.0</ele>
      </trkpt>
      <trkpt lat="44.3086" lon="6.84961">
        <time>2023-04-10T07:09:49+00:00</time>
        <ele>2211.0</ele>
      </trkpt>
      <trkpt lat="44.3086" lon="6.84961">
        <time>2023-04-10T07:09:50+00:00</time>
        <ele>2211.0</ele>
      </trkpt>
      <trkpt lat="44.3086" lon="6.84961">
        <time>2023-04-10T07:09:51+00:00</time>
        <ele>2211.0</ele>
      </trkpt>
      <trkpt lat="44.3086" lon="6.84961">
        <time>2023-04-10T07:09:52+00:00</time>
        <ele>2211.0</ele>
      </trkpt>
      <trkpt lat="44.3086" lon="6.84961">
        <time>2023-04-10T07:09:53+00:00</time>
        <ele>2211.0</ele>
      </trkpt>
      <trkpt lat="44.3086" lon="6.84961">
        <time>2023-04-10T07:09:54+00:00</time>
        <ele>2211.0</ele>
      </trkpt>
      <trkpt lat="44.3086" lon="6.84961">
        <time>2023-04-10T07:09:55+00:00</time>
        <ele>2211.0</ele>
      </trkpt>
      <trkpt lat="44.3086" lon="6.84961">
        <time>2023-04-10T07:09:56+00:00</time>
        <ele>2211.0</ele>
      </trkpt>
      <trkpt lat="44.3086" lon="6.84961">
        <time>2023-04-10T07:09:57+00:00</time>
        <ele>2211.0</ele>
      </trkpt>
      <trkpt lat="44.3086" lon="6.84961">
        <time>2023-04-10T07:09:58+00:00</time>
        <ele>2211.0</ele>
      </trkpt>
      <trkpt lat="44.3086" lon="6.84961">
        <time>2023-04-10T07:09:59+00:00</time>
        <ele>2211.0</ele>
      </trkpt>
      <trkpt lat="44.3086" lon="6.84961">
        <time>2023-04-10T07:10:02+00:00</time>
        <ele>2211.0</ele>
      </trkpt>
      <trkpt lat="44.3086" lon="6.84961">
        <time>2023-04-10T07:10:03+00:00</time>
        <ele>2211.0</ele>
      </trkpt>
      <trkpt lat="44.3086" lon="6.84961">
        <time>2023-04-10T07:10:04+00:00</time>
        <ele>2211.0</ele>
      </trkpt>
      <trkpt lat="44.3086" lon="6.84961">
        <time>2023-04-10T07:10:05+00:00</time>
        <ele>2211.0</ele>
      </trkpt>
      <trkpt lat="44.3086" lon="6.84961">
        <time>2023-04-10T07:10:06+00:00</time>
        <ele>2211.0</ele>
      </trkpt>
      <trkpt lat="44.3086" lon="6.84961">
        <time>2023-04-10T07:10:08+00:00</time>
        <ele>2211.0</ele>
      </trkpt>
      <trkpt lat="44.3086" lon="6.84961">
        <time>2023-04-10T07:10:09+00:00</time>
        <ele>2211.0</ele>
      </trkpt>
      <trkpt lat="44.3086" lon="6.84961">
        <time>2023-04-10T07:10:10+00:00</time>
        <ele>2211.0</ele>
      </trkpt>
      <trkpt lat="44.3086" lon="6.84961">
        <time>2023-04-10T07:10:11+00:00</time>
        <ele>2211.0</ele>
      </trkpt>
      <trkpt lat="44.3086" lon="6.84961">
        <time>2023-04-10T07:10:12+00:00</time>
        <ele>2211.0</ele>
      </trkpt>
      <trkpt lat="44.3086" lon="6.84961">
        <time>2023-04-10T07:10:13+00:00</time>
        <ele>2211.0</ele>
      </trkpt>
      <trkpt lat="44.3086" lon="6.84961">
        <time>2023-04-10T07:10:14+00:00</time>
        <ele>2211.0</ele>
      </trkpt>
      <trkpt lat="44.3086" lon="6.84961">
        <time>2023-04-10T07:10:15+00:00</time>
        <ele>2211.0</ele>
      </trkpt>
      <trkpt lat="44.3086" lon="6.84961">
        <time>2023-04-10T07:10:16+00:00</time>
        <ele>2211.0</ele>
      </trkpt>
      <trkpt lat="44.3086" lon="6.84961">
        <time>2023-04-10T07:10:17+00:00</time>
        <ele>2211.0</ele>
      </trkpt>
      <trkpt lat="44.3086" lon="6.84961">
        <time>2023-04-10T07:10:18+00:00</time>
        <ele>2211.0</ele>
      </trkpt>
      <trkpt lat="44.3086" lon="6.84961">
        <time>2023-04-10T07:10:19+00:00</time>
        <ele>2211.0</ele>
      </trkpt>
      <trkpt lat="44.3086" lon="6.84961">
        <time>2023-04-10T07:10:20+00:00</time>
        <ele>2211.0</ele>
      </trkpt>
      <trkpt lat="44.3086" lon="6.84961">
        <time>2023-04-10T07:10:21+00:00</time>
        <ele>2211.0</ele>
      </trkpt>
      <trkpt lat="44.3086" lon="6.84961">
        <time>2023-04-10T07:10:22+00:00</time>
        <ele>2211.0</ele>
      </trkpt>
      <trkpt lat="44.3086" lon="6.84961">
        <time>2023-04-10T07:10:23+00:00</time>
        <ele>2211.0</ele>
      </trkpt>
      <trkpt lat="44.3086" lon="6.84961">
        <time>2023-04-10T07:10:24+00:00</time>
        <ele>2211.0</ele>
      </trkpt>
      <trkpt lat="44.3086" lon="6.84961">
        <time>2023-04-10T07:10:25+00:00</time>
        <ele>2211.0</ele>
      </trkpt>
      <trkpt lat="44.3086" lon="6.84961">
        <time>2023-04-10T07:10:26+00:00</time>
        <ele>2211.0</ele>
      </trkpt>
      <trkpt lat="44.3086" lon="6.84961">
        <time>2023-04-10T07:10:27+00:00</time>
        <ele>2211.0</ele>
      </trkpt>
      <trkpt lat="44.3086" lon="6.84961">
        <time>2023-04-10T07:10:28+00:00</time>
        <ele>2211.0</ele>
      </trkpt>
      <trkpt lat="44.3086" lon="6.84961">
        <time>2023-04-10T07:10:29+00:00</time>
        <ele>2211.0</ele>
      </trkpt>
      <trkpt lat="44.3086" lon="6.84961">
        <time>2023-04-10T07:10:30+00:00</time>
        <ele>2211.0</ele>
      </trkpt>
      <trkpt lat="44.3086" lon="6.84961">
        <time>2023-04-10T07:10:31+00:00</time>
        <ele>2211.0</ele>
      </trkpt>
      <trkpt lat="44.3086" lon="6.84961">
        <time>2023-04-10T07:10:32+00:00</time>
        <ele>2211.0</ele>
      </trkpt>
      <trkpt lat="44.3086" lon="6.84961">
        <time>2023-04-10T07:10:33+00:00</time>
        <ele>2211.0</ele>
      </trkpt>
      <trkpt lat="44.3086" lon="6.84961">
        <time>2023-04-10T07:10:34+00:00</time>
        <ele>2211.0</ele>
      </trkpt>
      <trkpt lat="44.3086" lon="6.84961">
        <time>2023-04-10T07:10:35+00:00</time>
        <ele>2211.0</ele>
      </trkpt>
      <trkpt lat="44.3086" lon="6.84961">
        <time>2023-04-10T07:10:36+00:00</time>
        <ele>2211.0</ele>
      </trkpt>
      <trkpt lat="44.30855" lon="6.84962">
        <time>2023-04-10T07:10:37+00:00</time>
        <ele>2212.0</ele>
      </trkpt>
      <trkpt lat="44.30855" lon="6.84962">
        <time>2023-04-10T07:10:38+00:00</time>
        <ele>2212.0</ele>
      </trkpt>
      <trkpt lat="44.30852" lon="6.84961">
        <time>2023-04-10T07:10:39+00:00</time>
        <ele>2213.0</ele>
      </trkpt>
      <trkpt lat="44.30852" lon="6.84961">
        <time>2023-04-10T07:10:40+00:00</time>
        <ele>2213.0</ele>
      </trkpt>
      <trkpt lat="44.3085" lon="6.8496">
        <time>2023-04-10T07:10:41+00:00</time>
        <ele>2214.0</ele>
      </trkpt>
      <trkpt lat="44.3085" lon="6.8496">
        <time>2023-04-10T07:10:42+00:00</time>
        <ele>2214.0</ele>
      </trkpt>
      <trkpt lat="44.30847" lon="6.84959">
        <time>2023-04-10T07:10:43+00:00</time>
        <ele>2215.0</ele>
      </trkpt>
      <trkpt lat="44.30847" lon="6.84959">
        <time>2023-04-10T07:10:44+00:00</time>
        <ele>2215.0</ele>
      </trkpt>
      <trkpt lat="44.30847" lon="6.84959">
        <time>2023-04-10T07:10:45+00:00</time>
        <ele>2215.0</ele>
      </trkpt>
      <trkpt lat="44.30845" lon="6.84958">
        <time>2023-04-10T07:10:46+00:00</time>
        <ele>2215.0</ele>
      </trkpt>
      <trkpt lat="44.30845" lon="6.84958">
        <time>2023-04-10T07:10:47+00:00</time>
        <ele>2215.0</ele>
      </trkpt>
      <trkpt lat="44.30845" lon="6.84958">
        <time>2023-04-10T07:10:48+00:00</time>
        <ele>2215.0</ele>
      </trkpt>
      <trkpt lat="44.30843" lon="6.84957">
        <time>2023-04-10T07:10:49+00:00</time>
        <ele>2216.0</ele>
      </trkpt>
      <trkpt lat="44.30843" lon="6.84957">
        <time>2023-04-10T07:10:50+00:00</time>
        <ele>2216.0</ele>
      </trkpt>
      <trkpt lat="44.30845" lon="6.84954">
        <time>2023-04-10T07:10:51+00:00</time>
        <ele>2216.0</ele>
      </trkpt>
      <trkpt lat="44.30845" lon="6.84954">
        <time>2023-04-10T07:10:52+00:00</time>
        <ele>2216.0</ele>
      </trkpt>
      <trkpt lat="44.30845" lon="6.84954">
        <time>2023-04-10T07:10:53+00:00</time>
        <ele>2216.0</ele>
      </trkpt>
      <trkpt lat="44.30845" lon="6.84954">
        <time>2023-04-10T07:10:54+00:00</time>
        <ele>2216.0</ele>
      </trkpt>
      <trkpt lat="44.30845" lon="6.84954">
        <time>2023-04-10T07:10:55+00:00</time>
        <ele>2216.0</ele>
      </trkpt>
      <trkpt lat="44.30843" lon="6.84951">
        <time>2023-04-10T07:10:56+00:00</time>
        <ele>2217.0</ele>
      </trkpt>
      <trkpt lat="44.30843" lon="6.84951">
        <time>2023-04-10T07:10:57+00:00</time>
        <ele>2217.0</ele>
      </trkpt>
      <trkpt lat="44.30841" lon="6.84952">
        <time>2023-04-10T07:10:58+00:00</time>
        <ele>2217.0</ele>
      </trkpt>
      <trkpt lat="44.30838" lon="6.84952">
        <time>2023-04-10T07:10:59+00:00</time>
        <ele>2218.0</ele>
      </trkpt>
      <trkpt lat="44.30838" lon="6.84952">
        <time>2023-04-10T07:11:00+00:00</time>
        <ele>2218.0</ele>
      </trkpt>
      <trkpt lat="44.30838" lon="6.84952">
        <time>2023-04-10T07:11:01+00:00</time>
        <ele>2218.0</ele>
      </trkpt>
      <trkpt lat="44.30836" lon="6.84952">
        <time>2023-04-10T07:11:02+00:00</time>
        <ele>2219.0</ele>
      </trkpt>
      <trkpt lat="44.30836" lon="6.84952">
        <time>2023-04-10T07:11:03+00:00</time>
        <ele>2219.0</ele>
      </trkpt>
      <trkpt lat="44.30836" lon="6.84952">
        <time>2023-04-10T07:11:04+00:00</time>
        <ele>2219.0</ele>
      </trkpt>
      <trkpt lat="44.30836" lon="6.8495">
        <time>2023-04-10T07:11:05+00:00</time>
        <ele>2219.0</ele>
      </trkpt>
      <trkpt lat="44.30836" lon="6.8495">
        <time>2023-04-10T07:11:06+00:00</time>
        <ele>2219.0</ele>
      </trkpt>
      <trkpt lat="44.30836" lon="6.8495">
        <time>2023-04-10T07:11:07+00:00</time>
        <ele>2219.0</ele>
      </trkpt>
      <trkpt lat="44.30836" lon="6.8495">
        <time>2023-04-10T07:11:08+00:00</time>
        <ele>2219.0</ele>
      </trkpt>
      <trkpt lat="44.30834" lon="6.84947">
        <time>2023-04-10T07:11:09+00:00</time>
        <ele>2220.0</ele>
      </trkpt>
      <trkpt lat="44.30834" lon="6.84947">
        <time>2023-04-10T07:11:10+00:00</time>
        <ele>2220.0</ele>
      </trkpt>
      <trkpt lat="44.30834" lon="6.84947">
        <time>2023-04-10T07:11:11+00:00</time>
        <ele>2220.0</ele>
      </trkpt>
      <trkpt lat="44.30834" lon="6.84947">
        <time>2023-04-10T07:11:12+00:00</time>
        <ele>2220.0</ele>
      </trkpt>
      <trkpt lat="44.30833" lon="6.84945">
        <time>2023-04-10T07:11:13+00:00</time>
        <ele>2220.0</ele>
      </trkpt>
      <trkpt lat="44.30833" lon="6.84945">
        <time>2023-04-10T07:11:14+00:00</time>
        <ele>2220.0</ele>
      </trkpt>
      <trkpt lat="44.30833" lon="6.84945">
        <time>2023-04-10T07:11:15+00:00</time>
        <ele>2220.0</ele>
      </trkpt>
      <trkpt lat="44.30833" lon="6.84945">
        <time>2023-04-10T07:11:16+00:00</time>
        <ele>2220.0</ele>
      </trkpt>
      <trkpt lat="44.30832" lon="6.84943">
        <time>2023-04-10T07:11:17+00:00</time>
        <ele>2221.0</ele>
      </trkpt>
      <trkpt lat="44.30832" lon="6.84943">
        <time>2023-04-10T07:11:18+00:00</time>
        <ele>2221.0</ele>
      </trkpt>
      <trkpt lat="44.30832" lon="6.84943">
        <time>2023-04-10T07:11:19+00:00</time>
        <ele>2221.0</ele>
      </trkpt>
      <trkpt lat="44.30832" lon="6.84943">
        <time>2023-04-10T07:11:20+00:00</time>
        <ele>2221.0</ele>
      </trkpt>
      <trkpt lat="44.3083" lon="6.84941">
        <time>2023-04-10T07:11:21+00:00</time>
        <ele>2222.0</ele>
      </trkpt>
      <trkpt lat="44.3083" lon="6.84941">
        <time>2023-04-10T07:11:22+00:00</time>
        <ele>2222.0</ele>
      </trkpt>
      <trkpt lat="44.3083" lon="6.84941">
        <time>2023-04-10T07:11:23+00:00</time>
        <ele>2222.0</ele>
      </trkpt>
      <trkpt lat="44.30827" lon="6.84941">
        <time>2023-04-10T07:11:24+00:00</time>
        <ele>2224.0</ele>
      </trkpt>
      <trkpt lat="44.30827" lon="6.84941">
        <time>2023-04-10T07:11:25+00:00</time>
        <ele>2224.0</ele>
      </trkpt>
      <trkpt lat="44.30827" lon="6.84941">
        <time>2023-04-10T07:11:26+00:00</time>
        <ele>2224.0</ele>
      </trkpt>
      <trkpt lat="44.30826" lon="6.84938">
        <time>2023-04-10T07:11:27+00:00</time>
        <ele>2224.0</ele>
      </trkpt>
      <trkpt lat="44.30826" lon="6.84938">
        <time>2023-04-10T07:11:28+00:00</time>
        <ele>2224.0</ele>
      </trkpt>
      <trkpt lat="44.30826" lon="6.84935">
        <time>2023-04-10T07:11:29+00:00</time>
        <ele>2225.0</ele>
      </trkpt>
      <trkpt lat="44.30826" lon="6.84935">
        <time>2023-04-10T07:11:30+00:00</time>
        <ele>2225.0</ele>
      </trkpt>
      <trkpt lat="44.30826" lon="6.84935">
        <time>2023-04-10T07:11:31+00:00</time>
        <ele>2225.0</ele>
      </trkpt>
      <trkpt lat="44.30826" lon="6.84935">
        <time>2023-04-10T07:11:32+00:00</time>
        <ele>2225.0</ele>
      </trkpt>
      <trkpt lat="44.30825" lon="6.84932">
        <time>2023-04-10T07:11:33+00:00</time>
        <ele>2226.0</ele>
      </trkpt>
      <trkpt lat="44.30825" lon="6.84932">
        <time>2023-04-10T07:11:34+00:00</time>
        <ele>2226.0</ele>
      </trkpt>
      <trkpt lat="44.30825" lon="6.84932">
        <time>2023-04-10T07:11:35+00:00</time>
        <ele>2226.0</ele>
      </trkpt>
      <trkpt lat="44.30823" lon="6.84931">
        <time>2023-04-10T07:11:36+00:00</time>
        <ele>2226.0</ele>
      </trkpt>
      <trkpt lat="44.30823" lon="6.84931">
        <time>2023-04-10T07:11:37+00:00</time>
        <ele>2226.0</ele>
      </trkpt>
      <trkpt lat="44.30823" lon="6.84931">
        <time>2023-04-10T07:11:38+00:00</time>
        <ele>2226.0</ele>
      </trkpt>
      <trkpt lat="44.30821" lon="6.8493">
        <time>2023-04-10T07:11:39+00:00</time>
        <ele>2227.0</ele>
      </trkpt>
      <trkpt lat="44.30821" lon="6.8493">
        <time>2023-04-10T07:11:40+00:00</time>
        <ele>2227.0</ele>
      </trkpt>
      <trkpt lat="44.30821" lon="6.8493">
        <time>2023-04-10T07:11:41+00:00</time>
        <ele>2227.0</ele>
      </trkpt>
      <trkpt lat="44.30819" lon="6.84929">
        <time>2023-04-10T07:11:42+00:00</time>
        <ele>2228.0</ele>
      </trkpt>
      <trkpt lat="44.30819" lon="6.84929">
        <time>2023-04-10T07:11:43+00:00</time>
        <ele>2228.0</ele>
      </trkpt>
      <trkpt lat="44.30819" lon="6.84929">
        <time>2023-04-10T07:11:44+00:00</time>
        <ele>2228.0</ele>
      </trkpt>
      <trkpt lat="44.30817" lon="6.84928">
        <time>2023-04-10T07:11:45+00:00</time>
        <ele>2229.0</ele>
      </trkpt>
      <trkpt lat="44.30817" lon="6.84928">
        <time>2023-04-10T07:11:46+00:00</time>
        <ele>2229.0</ele>
      </trkpt>
      <trkpt lat="44.30815" lon="6.84928">
        <time>2023-04-10T07:11:47+00:00</time>
        <ele>2230.0</ele>
      </trkpt>
      <trkpt lat="44.30815" lon="6.84928">
        <time>2023-04-10T07:11:48+00:00</time>
        <ele>2230.0</ele>
      </trkpt>
      <trkpt lat="44.30815" lon="6.84928">
        <time>2023-04-10T07:11:49+00:00</time>
        <ele>2230.0</ele>
      </trkpt>
      <trkpt lat="44.30814" lon="6.84925">
        <time>2023-04-10T07:11:50+00:00</time>
        <ele>2230.0</ele>
      </trkpt>
      <trkpt lat="44.30814" lon="6.84925">
        <time>2023-04-10T07:11:51+00:00</time>
        <ele>2230.0</ele>
      </trkpt>
      <trkpt lat="44.30814" lon="6.84925">
        <time>2023-04-10T07:11:52+00:00</time>
        <ele>2230.0</ele>
      </trkpt>
      <trkpt lat="44.30813" lon="6.84923">
        <time>2023-04-10T07:11:53+00:00</time>
        <ele>2231.0</ele>
      </trkpt>
      <trkpt lat="44.30813" lon="6.84923">
        <time>2023-04-10T07:11:54+00:00</time>
        <ele>2231.0</ele>
      </trkpt>
      <trkpt lat="44.30813" lon="6.84923">
        <time>2023-04-10T07:11:55+00:00</time>
        <ele>2231.0</ele>
      </trkpt>
      <trkpt lat="44.30813" lon="6.84921">
        <time>2023-04-10T07:11:56+00:00</time>
        <ele>2231.0</ele>
      </trkpt>
      <trkpt lat="44.30813" lon="6.84921">
        <time>2023-04-10T07:11:57+00:00</time>
        <ele>2231.0</ele>
      </trkpt>
      <trkpt lat="44.30813" lon="6.84921">
        <time>2023-04-10T07:11:58+00:00</time>
        <ele>2231.0</ele>
      </trkpt>
      <trkpt lat="44.30813" lon="6.84918">
        <time>2023-04-10T07:11:59+00:00</time>
        <ele>2232.0</ele>
      </trkpt>
      <trkpt lat="44.30813" lon="6.84918">
        <time>2023-04-10T07:12:00+00:00</time>
        <ele>2232.0</ele>
      </trkpt>
      <trkpt lat="44.30813" lon="6.84918">
        <time>2023-04-10T07:12:01+00:00</time>
        <ele>2232.0</ele>
      </trkpt>
      <trkpt lat="44.30813" lon="6.84918">
        <time>2023-04-10T07:12:02+00:00</time>
        <ele>2232.0</ele>
      </trkpt>
      <trkpt lat="44.30811" lon="6.84916">
        <time>2023-04-10T07:12:03+00:00</time>
        <ele>2233.0</ele>
      </trkpt>
      <trkpt lat="44.30811" lon="6.84916">
        <time>2023-04-10T07:12:04+00:00</time>
        <ele>2233.0</ele>
      </trkpt>
      <trkpt lat="44.30811" lon="6.84916">
        <time>2023-04-10T07:12:05+00:00</time>
        <ele>2233.0</ele>
      </trkpt>
      <trkpt lat="44.30811" lon="6.84916">
        <time>2023-04-10T07:12:06+00:00</time>
        <ele>2233.0</ele>
      </trkpt>
      <trkpt lat="44.30809" lon="6.84915">
        <time>2023-04-10T07:12:07+00:00</time>
        <ele>2234.0</ele>
      </trkpt>
      <trkpt lat="44.30809" lon="6.84915">
        <time>2023-04-10T07:12:08+00:00</time>
        <ele>2234.0</ele>
      </trkpt>
      <trkpt lat="44.30809" lon="6.84915">
        <time>2023-04-10T07:12:09+00:00</time>
        <ele>2234.0</ele>
      </trkpt>
      <trkpt lat="44.30809" lon="6.84915">
        <time>2023-04-10T07:12:10+00:00</time>
        <ele>2234.0</ele>
      </trkpt>
      <trkpt lat="44.30809" lon="6.84915">
        <time>2023-04-10T07:12:11+00:00</time>
        <ele>2234.0</ele>
      </trkpt>
      <trkpt lat="44.30809" lon="6.84913">
        <time>2023-04-10T07:12:12+00:00</time>
        <ele>2234.0</ele>
      </trkpt>
      <trkpt lat="44.30809" lon="6.84913">
        <time>2023-04-10T07:12:13+00:00</time>
        <ele>2234.0</ele>
      </trkpt>
      <trkpt lat="44.30809" lon="6.84913">
        <time>2023-04-10T07:12:14+00:00</time>
        <ele>2234.0</ele>
      </trkpt>
      <trkpt lat="44.30809" lon="6.84913">
        <time>2023-04-10T07:12:15+00:00</time>
        <ele>2234.0</ele>
      </trkpt>
      <trkpt lat="44.30807" lon="6.84911">
        <time>2023-04-10T07:12:16+00:00</time>
        <ele>2235.0</ele>
      </trkpt>
      <trkpt lat="44.30807" lon="6.84911">
        <time>2023-04-10T07:12:17+00:00</time>
        <ele>2235.0</ele>
      </trkpt>
      <trkpt lat="44.30807" lon="6.84911">
        <time>2023-04-10T07:12:18+00:00</time>
        <ele>2235.0</ele>
      </trkpt>
      <trkpt lat="44.30807" lon="6.84911">
        <time>2023-04-10T07:12:19+00:00</time>
        <ele>2235.0</ele>
      </trkpt>
      <trkpt lat="44.30805" lon="6.84909">
        <time>2023-04-10T07:12:20+00:00</time>
        <ele>2236.0</ele>
      </trkpt>
      <trkpt lat="44.30805" lon="6.84909">
        <time>2023-04-10T07:12:21+00:00</time>
        <ele>2236.0</ele>
      </trkpt>
      <trkpt lat="44.30805" lon="6.84909">
        <time>2023-04-10T07:12:22+00:00</time>
        <ele>2236.0</ele>
      </trkpt>
      <trkpt lat="44.30805" lon="6.84909">
        <time>2023-04-10T07:12:23+00:00</time>
        <ele>2236.0</ele>
      </trkpt>
      <trkpt lat="44.30804" lon="6.84907">
        <time>2023-04-10T07:12:24+00:00</time>
        <ele>2237.0</ele>
      </trkpt>
      <trkpt lat="44.30804" lon="6.84907">
        <time>2023-04-10T07:12:25+00:00</time>
        <ele>2237.0</ele>
      </trkpt>
      <trkpt lat="44.30804" lon="6.84907">
        <time>2023-04-10T07:12:26+00:00</time>
        <ele>2237.0</ele>
      </trkpt>
      <trkpt lat="44.30804" lon="6.84907">
        <time>2023-04-10T07:12:27+00:00</time>
        <ele>2237.0</ele>
      </trkpt>
      <trkpt lat="44.30804" lon="6.84907">
        <time>2023-04-10T07:12:28+00:00</time>
        <ele>2237.0</ele>
      </trkpt>
      <trkpt lat="44.30804" lon="6.84907">
        <time>2023-04-10T07:12:29+00:00</time>
        <ele>2237.0</ele>
      </trkpt>
      <trkpt lat="44.30803" lon="6.84905">
        <time>2023-04-10T07:12:30+00:00</time>
        <ele>2238.0</ele>
      </trkpt>
      <trkpt lat="44.30803" lon="6.84905">
        <time>2023-04-10T07:12:31+00:00</time>
        <ele>2238.0</ele>
      </trkpt>
      <trkpt lat="44.30803" lon="6.84905">
        <time>2023-04-10T07:12:32+00:00</time>
        <ele>2238.0</ele>
      </trkpt>
      <trkpt lat="44.30803" lon="6.84905">
        <time>2023-04-10T07:12:33+00:00</time>
        <ele>2238.0</ele>
      </trkpt>
      <trkpt lat="44.30803" lon="6.84905">
        <time>2023-04-10T07:12:34+00:00</time>
        <ele>2238.0</ele>
      </trkpt>
      <trkpt lat="44.30801" lon="6.84904">
        <time>2023-04-10T07:12:35+00:00</time>
        <ele>2239.0</ele>
      </trkpt>
      <trkpt lat="44.30801" lon="6.84904">
        <time>2023-04-10T07:12:36+00:00</time>
        <ele>2239.0</ele>
      </trkpt>
      <trkpt lat="44.30801" lon="6.84904">
        <time>2023-04-10T07:12:37+00:00</time>
        <ele>2239.0</ele>
      </trkpt>
      <trkpt lat="44.30801" lon="6.84904">
        <time>2023-04-10T07:12:38+00:00</time>
        <ele>2239.0</ele>
      </trkpt>
      <trkpt lat="44.30801" lon="6.84904">
        <time>2023-04-10T07:12:39+00:00</time>
        <ele>2239.0</ele>
      </trkpt>
      <trkpt lat="44.30798" lon="6.84904">
        <time>2023-04-10T07:12:40+00:00</time>
        <ele>2240.0</ele>
      </trkpt>
      <trkpt lat="44.30798" lon="6.84904">
        <time>2023-04-10T07:12:41+00:00</time>
        <ele>2240.0</ele>
      </trkpt>
      <trkpt lat="44.30798" lon="6.84904">
        <time>2023-04-10T07:12:42+00:00</time>
        <ele>2240.0</ele>
      </trkpt>
      <trkpt lat="44.30798" lon="6.84904">
        <time>2023-04-10T07:12:43+00:00</time>
        <ele>2240.0</ele>
      </trkpt>
      <trkpt lat="44.30798" lon="6.84904">
        <time>2023-04-10T07:12:44+00:00</time>
        <ele>2240.0</ele>
      </trkpt>
      <trkpt lat="44.30796" lon="6.84903">
        <time>2023-04-10T07:12:45+00:00</time>
        <ele>2241.0</ele>
      </trkpt>
      <trkpt lat="44.30796" lon="6.84903">
        <time>2023-04-10T07:12:46+00:00</time>
        <ele>2241.0</ele>
      </trkpt>
      <trkpt lat="44.30796" lon="6.84903">
        <time>2023-04-10T07:12:47+00:00</time>
        <ele>2241.0</ele>
      </trkpt>
      <trkpt lat="44.30794" lon="6.84902">
        <time>2023-04-10T07:12:48+00:00</time>
        <ele>2242.0</ele>
      </trkpt>
      <trkpt lat="44.30794" lon="6.84902">
        <time>2023-04-10T07:12:49+00:00</time>
        <ele>2242.0</ele>
      </trkpt>
      <trkpt lat="44.30794" lon="6.84902">
        <time>2023-04-10T07:12:50+00:00</time>
        <ele>2242.0</ele>
      </trkpt>
      <trkpt lat="44.30793" lon="6.849">
        <time>2023-04-10T07:12:51+00:00</time>
        <ele>2242.0</ele>
      </trkpt>
      <trkpt lat="44.30793" lon="6.849">
        <time>2023-04-10T07:12:52+00:00</time>
        <ele>2242.0</ele>
      </trkpt>
      <trkpt lat="44.30793" lon="6.849">
        <time>2023-04-10T07:12:53+00:00</time>
        <ele>2242.0</ele>
      </trkpt>
      <trkpt lat="44.30793" lon="6.849">
        <time>2023-04-10T07:12:54+00:00</time>
        <ele>2242.0</ele>
      </trkpt>
      <trkpt lat="44.30791" lon="6.84899">
        <time>2023-04-10T07:12:55+00:00</time>
        <ele>2243.0</ele>
      </trkpt>
      <trkpt lat="44.30791" lon="6.84899">
        <time>2023-04-10T07:12:56+00:00</time>
        <ele>2243.0</ele>
      </trkpt>
      <trkpt lat="44.30791" lon="6.84899">
        <time>2023-04-10T07:12:57+00:00</time>
        <ele>2243.0</ele>
      </trkpt>
      <trkpt lat="44.30789" lon="6.84898">
        <time>2023-04-10T07:12:58+00:00</time>
        <ele>2244.0</ele>
      </trkpt>
      <trkpt lat="44.30789" lon="6.84898">
        <time>2023-04-10T07:12:59+00:00</time>
        <ele>2244.0</ele>
      </trkpt>
      <trkpt lat="44.30789" lon="6.84898">
        <time>2023-04-10T07:13:00+00:00</time>
        <ele>2244.0</ele>
      </trkpt>
      <trkpt lat="44.30789" lon="6.84898">
        <time>2023-04-10T07:13:01+00:00</time>
        <ele>2244.0</ele>
      </trkpt>
      <trkpt lat="44.30789" lon="6.84898">
        <time>2023-04-10T07:13:02+00:00</time>
        <ele>2244.0</ele>
      </trkpt>
      <trkpt lat="44.30786" lon="6.84897">
        <time>2023-04-10T07:13:03+00:00</time>
        <ele>2246.0</ele>
      </trkpt>
      <trkpt lat="44.30786" lon="6.84897">
        <time>2023-04-10T07:13:04+00:00</time>
        <ele>2246.0</ele>
      </trkpt>
      <trkpt lat="44.30785" lon="6.84896">
        <time>2023-04-10T07:13:05+00:00</time>
        <ele>2247.0</ele>
      </trkpt>
      <trkpt lat="44.30785" lon="6.84896">
        <time>2023-04-10T07:13:06+00:00</time>
        <ele>2247.0</ele>
      </trkpt>
      <trkpt lat="44.30785" lon="6.84896">
        <time>2023-04-10T07:13:07+00:00</time>
        <ele>2247.0</ele>
      </trkpt>
      <trkpt lat="44.30785" lon="6.84896">
        <time>2023-04-10T07:13:08+00:00</time>
        <ele>2247.0</ele>
      </trkpt>
      <trkpt lat="44.30785" lon="6.84896">
        <time>2023-04-10T07:13:09+00:00</time>
        <ele>2247.0</ele>
      </trkpt>
      <trkpt lat="44.30783" lon="6.84894">
        <time>2023-04-10T07:13:10+00:00</time>
        <ele>2248.0</ele>
      </trkpt>
      <trkpt lat="44.30783" lon="6.84894">
        <time>2023-04-10T07:13:11+00:00</time>
        <ele>2248.0</ele>
      </trkpt>
      <trkpt lat="44.30783" lon="6.84894">
        <time>2023-04-10T07:13:12+00:00</time>
        <ele>2248.0</ele>
      </trkpt>
      <trkpt lat="44.30781" lon="6.84894">
        <time>2023-04-10T07:13:13+00:00</time>
        <ele>2249.0</ele>
      </trkpt>
      <trkpt lat="44.30781" lon="6.84894">
        <time>2023-04-10T07:13:14+00:00</time>
        <ele>2249.0</ele>
      </trkpt>
      <trkpt lat="44.30781" lon="6.84894">
        <time>2023-04-10T07:13:15+00:00</time>
        <ele>2249.0</ele>
      </trkpt>
      <trkpt lat="44.30781" lon="6.84894">
        <time>2023-04-10T07:13:16+00:00</time>
        <ele>2249.0</ele>
      </trkpt>
      <trkpt lat="44.3078" lon="6.84892">
        <time>2023-04-10T07:13:17+00:00</time>
        <ele>2249.0</ele>
      </trkpt>
      <trkpt lat="44.3078" lon="6.84892">
        <time>2023-04-10T07:13:18+00:00</time>
        <ele>2249.0</ele>
      </trkpt>
      <trkpt lat="44.30779" lon="6.8489">
        <time>2023-04-10T07:13:19+00:00</time>
        <ele>2250.0</ele>
      </trkpt>
      <trkpt lat="44.30779" lon="6.8489">
        <time>2023-04-10T07:13:20+00:00</time>
        <ele>2250.0</ele>
      </trkpt>
      <trkpt lat="44.30779" lon="6.8489">
        <time>2023-04-10T07:13:21+00:00</time>
        <ele>2250.0</ele>
      </trkpt>
      <trkpt lat="44.30779" lon="6.8489">
        <time>2023-04-10T07:13:22+00:00</time>
        <ele>2250.0</ele>
      </trkpt>
      <trkpt lat="44.30777" lon="6.84888">
        <time>2023-04-10T07:13:23+00:00</time>
        <ele>2251.0</ele>
      </trkpt>
      <trkpt lat="44.30777" lon="6.84888">
        <time>2023-04-10T07:13:24+00:00</time>
        <ele>2251.0</ele>
      </trkpt>
      <trkpt lat="44.30775" lon="6.84887">
        <time>2023-04-10T07:13:25+00:00</time>
        <ele>2252.0</ele>
      </trkpt>
      <trkpt lat="44.30775" lon="6.84887">
        <time>2023-04-10T07:13:26+00:00</time>
        <ele>2252.0</ele>
      </trkpt>
      <trkpt lat="44.30775" lon="6.84887">
        <time>2023-04-10T07:13:27+00:00</time>
        <ele>2252.0</ele>
      </trkpt>
      <trkpt lat="44.30773" lon="6.84886">
        <time>2023-04-10T07:13:28+00:00</time>
        <ele>2253.0</ele>
      </trkpt>
      <trkpt lat="44.30773" lon="6.84886">
        <time>2023-04-10T07:13:29+00:00</time>
        <ele>2253.0</ele>
      </trkpt>
      <trkpt lat="44.30773" lon="6.84886">
        <time>2023-04-10T07:13:30+00:00</time>
        <ele>2253.0</ele>
      </trkpt>
      <trkpt lat="44.30773" lon="6.84886">
        <time>2023-04-10T07:13:31+00:00</time>
        <ele>2253.0</ele>
      </trkpt>
      <trkpt lat="44.30773" lon="6.84886">
        <time>2023-04-10T07:13:32+00:00</time>
        <ele>2253.0</ele>
      </trkpt>
      <trkpt lat="44.30771" lon="6.84884">
        <time>2023-04-10T07:13:33+00:00</time>
        <ele>2253.0</ele>
      </trkpt>
      <trkpt lat="44.30771" lon="6.84884">
        <time>2023-04-10T07:13:34+00:00</time>
        <ele>2253.0</ele>
      </trkpt>
      <trkpt lat="44.3077" lon="6.84882">
        <time>2023-04-10T07:13:35+00:00</time>
        <ele>2254.0</ele>
      </trkpt>
      <trkpt lat="44.3077" lon="6.84882">
        <time>2023-04-10T07:13:36+00:00</time>
        <ele>2254.0</ele>
      </trkpt>
      <trkpt lat="44.3077" lon="6.84882">
        <time>2023-04-10T07:13:37+00:00</time>
        <ele>2254.0</ele>
      </trkpt>
      <trkpt lat="44.3077" lon="6.84882">
        <time>2023-04-10T07:13:38+00:00</time>
        <ele>2254.0</ele>
      </trkpt>
      <trkpt lat="44.30768" lon="6.8488">
        <time>2023-04-10T07:13:39+00:00</time>
        <ele>2254.0</ele>
      </trkpt>
      <trkpt lat="44.30768" lon="6.8488">
        <time>2023-04-10T07:13:40+00:00</time>
        <ele>2254.0</ele>
      </trkpt>
      <trkpt lat="44.30768" lon="6.8488">
        <time>2023-04-10T07:13:41+00:00</time>
        <ele>2254.0</ele>
      </trkpt>
      <trkpt lat="44.30765" lon="6.84881">
        <time>2023-04-10T07:13:42+00:00</time>
        <ele>2256.0</ele>
      </trkpt>
      <trkpt lat="44.30765" lon="6.84881">
        <time>2023-04-10T07:13:43+00:00</time>
        <ele>2256.0</ele>
      </trkpt>
      <trkpt lat="44.30763" lon="6.84881">
        <time>2023-04-10T07:13:44+00:00</time>
        <ele>2257.0</ele>
      </trkpt>
      <trkpt lat="44.30763" lon="6.84881">
        <time>2023-04-10T07:13:45+00:00</time>
        <ele>2257.0</ele>
      </trkpt>
      <trkpt lat="44.30761" lon="6.84881">
        <time>2023-04-10T07:13:46+00:00</time>
        <ele>2257.0</ele>
      </trkpt>
      <trkpt lat="44.30761" lon="6.84881">
        <time>2023-04-10T07:13:47+00:00</time>
        <ele>2257.0</ele>
      </trkpt>
      <trkpt lat="44.30759" lon="6.84881">
        <time>2023-04-10T07:13:48+00:00</time>
        <ele>2258.0</ele>
      </trkpt>
      <trkpt lat="44.30759" lon="6.84881">
        <time>2023-04-10T07:13:49+00:00</time>
        <ele>2258.0</ele>
      </trkpt>
      <trkpt lat="44.30759" lon="6.84881">
        <time>2023-04-10T07:13:50+00:00</time>
        <ele>2258.0</ele>
      </trkpt>
      <trkpt lat="44.30759" lon="6.84881">
        <time>2023-04-10T07:13:51+00:00</time>
        <ele>2258.0</ele>
      </trkpt>
      <trkpt lat="44.30757" lon="6.84877">
        <time>2023-04-10T07:13:52+00:00</time>
        <ele>2259.0</ele>
      </trkpt>
      <trkpt lat="44.30757" lon="6.84877">
        <time>2023-04-10T07:13:53+00:00</time>
        <ele>2259.0</ele>
      </trkpt>
      <trkpt lat="44.30757" lon="6.84877">
        <time>2023-04-10T07:13:54+00:00</time>
        <ele>2259.0</ele>
      </trkpt>
      <trkpt lat="44.30758" lon="6.84874">
        <time>2023-04-10T07:13:55+00:00</time>
        <ele>2258.0</ele>
      </trkpt>
      <trkpt lat="44.30758" lon="6.84874">
        <time>2023-04-10T07:13:56+00:00</time>
        <ele>2258.0</ele>
      </trkpt>
      <trkpt lat="44.30758" lon="6.84874">
        <time>2023-04-10T07:13:57+00:00</time>
        <ele>2258.0</ele>
      </trkpt>
      <trkpt lat="44.30758" lon="6.84874">
        <time>2023-04-10T07:13:58+00:00</time>
        <ele>2258.0</ele>
      </trkpt>
      <trkpt lat="44.30759" lon="6.84871">
        <time>2023-04-10T07:13:59+00:00</time>
        <ele>2258.0</ele>
      </trkpt>
      <trkpt lat="44.30759" lon="6.84871">
        <time>2023-04-10T07:14:00+00:00</time>
        <ele>2258.0</ele>
      </trkpt>
      <trkpt lat="44.3076" lon="6.84868">
        <time>2023-04-10T07:14:01+00:00</time>
        <ele>2257.0</ele>
      </trkpt>
      <trkpt lat="44.3076" lon="6.84868">
        <time>2023-04-10T07:14:02+00:00</time>
        <ele>2257.0</ele>
      </trkpt>
      <trkpt lat="44.3076" lon="6.84868">
        <time>2023-04-10T07:14:03+00:00</time>
        <ele>2257.0</ele>
      </trkpt>
      <trkpt lat="44.30762" lon="6.84864">
        <time>2023-04-10T07:14:04+00:00</time>
        <ele>2257.0</ele>
      </trkpt>
      <trkpt lat="44.30762" lon="6.84864">
        <time>2023-04-10T07:14:05+00:00</time>
        <ele>2257.0</ele>
      </trkpt>
      <trkpt lat="44.30762" lon="6.84864">
        <time>2023-04-10T07:14:06+00:00</time>
        <ele>2257.0</ele>
      </trkpt>
      <trkpt lat="44.30762" lon="6.84864">
        <time>2023-04-10T07:14:07+00:00</time>
        <ele>2257.0</ele>
      </trkpt>
      <trkpt lat="44.30762" lon="6.84861">
        <time>2023-04-10T07:14:08+00:00</time>
        <ele>2257.0</ele>
      </trkpt>
      <trkpt lat="44.30762" lon="6.84861">
        <time>2023-04-10T07:14:09+00:00</time>
        <ele>2257.0</ele>
      </trkpt>
      <trkpt lat="44.30762" lon="6.84861">
        <time>2023-04-10T07:14:10+00:00</time>
        <ele>2257.0</ele>
      </trkpt>
      <trkpt lat="44.30764" lon="6.84858">
        <time>2023-04-10T07:14:11+00:00</time>
        <ele>2256.0</ele>
      </trkpt>
      <trkpt lat="44.30764" lon="6.84858">
        <time>2023-04-10T07:14:12+00:00</time>
        <ele>2256.0</ele>
      </trkpt>
      <trkpt lat="44.30764" lon="6.84858">
        <time>2023-04-10T07:14:13+00:00</time>
        <ele>2256.0</ele>
      </trkpt>
      <trkpt lat="44.30766" lon="6.84854">
        <time>2023-04-10T07:14:14+00:00</time>
        <ele>2256.0</ele>
      </trkpt>
      <trkpt lat="44.30766" lon="6.84853">
        <time>2023-04-10T07:14:15+00:00</time>
        <ele>2256.0</ele>
      </trkpt>
      <trkpt lat="44.30766" lon="6.84853">
        <time>2023-04-10T07:14:16+00:00</time>
        <ele>2256.0</ele>
      </trkpt>
      <trkpt lat="44.30766" lon="6.84853">
        <time>2023-04-10T07:14:17+00:00</time>
        <ele>2256.0</ele>
      </trkpt>
      <trkpt lat="44.30768" lon="6.8485">
        <time>2023-04-10T07:14:18+00:00</time>
        <ele>2256.0</ele>
      </trkpt>
      <trkpt lat="44.30768" lon="6.8485">
        <time>2023-04-10T07:14:19+00:00</time>
        <ele>2256.0</ele>
      </trkpt>
      <trkpt lat="44.30768" lon="6.8485">
        <time>2023-04-10T07:14:20+00:00</time>
        <ele>2256.0</ele>
      </trkpt>
      <trkpt lat="44.3077" lon="6.84846">
        <time>2023-04-10T07:14:21+00:00</time>
        <ele>2256.0</ele>
      </trkpt>
      <trkpt lat="44.3077" lon="6.84846">
        <time>2023-04-10T07:14:22+00:00</time>
        <ele>2256.0</ele>
      </trkpt>
      <trkpt lat="44.3077" lon="6.84846">
        <time>2023-04-10T07:14:23+00:00</time>
        <ele>2256.0</ele>
      </trkpt>
      <trkpt lat="44.3077" lon="6.84844">
        <time>2023-04-10T07:14:24+00:00</time>
        <ele>2256.0</ele>
      </trkpt>
      <trkpt lat="44.3077" lon="6.84844">
        <time>2023-04-10T07:14:25+00:00</time>
        <ele>2256.0</ele>
      </trkpt>
      <trkpt lat="44.3077" lon="6.84844">
        <time>2023-04-10T07:14:26+00:00</time>
        <ele>2256.0</ele>
      </trkpt>
      <trkpt lat="44.3077" lon="6.84844">
        <time>2023-04-10T07:14:27+00:00</time>
        <ele>2256.0</ele>
      </trkpt>
      <trkpt lat="44.3077" lon="6.84844">
        <time>2023-04-10T07:14:28+00:00</time>
        <ele>2256.0</ele>
      </trkpt>
      <trkpt lat="44.3077" lon="6.84844">
        <time>2023-04-10T07:14:29+00:00</time>
        <ele>2256.0</ele>
      </trkpt>
      <trkpt lat="44.3077" lon="6.84844">
        <time>2023-04-10T07:14:30+00:00</time>
        <ele>2256.0</ele>
      </trkpt>
      <trkpt lat="44.3077" lon="6.84844">
        <time>2023-04-10T07:14:31+00:00</time>
        <ele>2256.0</ele>
      </trkpt>
      <trkpt lat="44.3077" lon="6.84844">
        <time>2023-04-10T07:14:32+00:00</time>
        <ele>2256.0</ele>
      </trkpt>
      <trkpt lat="44.3077" lon="6.84844">
        <time>2023-04-10T07:14:33+00:00</time>
        <ele>2256.0</ele>
      </trkpt>
      <trkpt lat="44.3077" lon="6.84844">
        <time>2023-04-10T07:14:34+00:00</time>
        <ele>2256.0</ele>
      </trkpt>
      <trkpt lat="44.3077" lon="6.84844">
        <time>2023-04-10T07:14:35+00:00</time>
        <ele>2256.0</ele>
      </trkpt>
      <trkpt lat="44.3077" lon="6.84844">
        <time>2023-04-10T07:14:36+00:00</time>
        <ele>2256.0</ele>
      </trkpt>
      <trkpt lat="44.3077" lon="6.84844">
        <time>2023-04-10T07:14:37+00:00</time>
        <ele>2256.0</ele>
      </trkpt>
      <trkpt lat="44.3077" lon="6.84844">
        <time>2023-04-10T07:14:38+00:00</time>
        <ele>2256.0</ele>
      </trkpt>
      <trkpt lat="44.3077" lon="6.84844">
        <time>2023-04-10T07:14:39+00:00</time>
        <ele>2256.0</ele>
      </trkpt>
      <trkpt lat="44.3077" lon="6.84844">
        <time>2023-04-10T07:14:40+00:00</time>
        <ele>2256.0</ele>
      </trkpt>
      <trkpt lat="44.3077" lon="6.84844">
        <time>2023-04-10T07:14:41+00:00</time>
        <ele>2256.0</ele>
      </trkpt>
      <trkpt lat="44.3077" lon="6.84844">
        <time>2023-04-10T07:14:42+00:00</time>
        <ele>2256.0</ele>
      </trkpt>
      <trkpt lat="44.3077" lon="6.84844">
        <time>2023-04-10T07:14:43+00:00</time>
        <ele>2256.0</ele>
      </trkpt>
      <trkpt lat="44.3077" lon="6.84844">
        <time>2023-04-10T07:14:44+00:00</time>
        <ele>2256.0</ele>
      </trkpt>
      <trkpt lat="44.3077" lon="6.84844">
        <time>2023-04-10T07:14:45+00:00</time>
        <ele>2256.0</ele>
      </trkpt>
      <trkpt lat="44.3077" lon="6.84844">
        <time>2023-04-10T07:14:46+00:00</time>
        <ele>2256.0</ele>
      </trkpt>
      <trkpt lat="44.3077" lon="6.84844">
        <time>2023-04-10T07:14:47+00:00</time>
        <ele>2256.0</ele>
      </trkpt>
      <trkpt lat="44.3077" lon="6.84844">
        <time>2023-04-10T07:14:48+00:00</time>
        <ele>2256.0</ele>
      </trkpt>
      <trkpt lat="44.3077" lon="6.84844">
        <time>2023-04-10T07:14:49+00:00</time>
        <ele>2256.0</ele>
      </trkpt>
      <trkpt lat="44.3077" lon="6.84844">
        <time>2023-04-10T07:14:50+00:00</time>
        <ele>2256.0</ele>
      </trkpt>
      <trkpt lat="44.3077" lon="6.84844">
        <time>2023-04-10T07:14:51+00:00</time>
        <ele>2256.0</ele>
      </trkpt>
      <trkpt lat="44.3077" lon="6.84844">
        <time>2023-04-10T07:14:52+00:00</time>
        <ele>2256.0</ele>
      </trkpt>
      <trkpt lat="44.3077" lon="6.84844">
        <time>2023-04-10T07:14:53+00:00</time>
        <ele>2256.0</ele>
      </trkpt>
      <trkpt lat="44.3077" lon="6.84844">
        <time>2023-04-10T07:14:54+00:00</time>
        <ele>2256.0</ele>
      </trkpt>
      <trkpt lat="44.3077" lon="6.84844">
        <time>2023-04-10T07:14:55+00:00</time>
        <ele>2256.0</ele>
      </trkpt>
      <trkpt lat="44.3077" lon="6.84844">
        <time>2023-04-10T07:14:56+00:00</time>
        <ele>2256.0</ele>
      </trkpt>
      <trkpt lat="44.3077" lon="6.84844">
        <time>2023-04-10T07:14:57+00:00</time>
        <ele>2256.0</ele>
      </trkpt>
      <trkpt lat="44.3077" lon="6.84844">
        <time>2023-04-10T07:14:58+00:00</time>
        <ele>2256.0</ele>
      </trkpt>
      <trkpt lat="44.3077" lon="6.84844">
        <time>2023-04-10T07:14:59+00:00</time>
        <ele>2256.0</ele>
      </trkpt>
      <trkpt lat="44.3077" lon="6.84844">
        <time>2023-04-10T07:15:00+00:00</time>
        <ele>2256.0</ele>
      </trkpt>
      <trkpt lat="44.3077" lon="6.84844">
        <time>2023-04-10T07:15:01+00:00</time>
        <ele>2256.0</ele>
      </trkpt>
      <trkpt lat="44.3077" lon="6.84844">
        <time>2023-04-10T07:15:02+00:00</time>
        <ele>2256.0</ele>
      </trkpt>
      <trkpt lat="44.3077" lon="6.84844">
        <time>2023-04-10T07:15:03+00:00</time>
        <ele>2256.0</ele>
      </trkpt>
      <trkpt lat="44.3077" lon="6.84844">
        <time>2023-04-10T07:15:04+00:00</time>
        <ele>2256.0</ele>
      </trkpt>
      <trkpt lat="44.3077" lon="6.84844">
        <time>2023-04-10T07:15:05+00:00</time>
        <ele>2256.0</ele>
      </trkpt>
      <trkpt lat="44.3077" lon="6.84844">
        <time>2023-04-10T07:15:06+00:00</time>
        <ele>2256.0</ele>
      </trkpt>
      <trkpt lat="44.3077" lon="6.84844">
        <time>2023-04-10T07:15:07+00:00</time>
        <ele>2256.0</ele>
      </trkpt>
      <trkpt lat="44.3077" lon="6.84844">
        <time>2023-04-10T07:15:08+00:00</time>
        <ele>2256.0</ele>
      </trkpt>
      <trkpt lat="44.3077" lon="6.84844">
        <time>2023-04-10T07:15:09+00:00</time>
        <ele>2256.0</ele>
      </trkpt>
      <trkpt lat="44.3077" lon="6.84844">
        <time>2023-04-10T07:15:10+00:00</time>
        <ele>2256.0</ele>
      </trkpt>
      <trkpt lat="44.3077" lon="6.84844">
        <time>2023-04-10T07:15:11+00:00</time>
        <ele>2256.0</ele>
      </trkpt>
      <trkpt lat="44.3077" lon="6.84844">
        <time>2023-04-10T07:15:12+00:00</time>
        <ele>2256.0</ele>
      </trkpt>
      <trkpt lat="44.3077" lon="6.84844">
        <time>2023-04-10T07:15:13+00:00</time>
        <ele>2256.0</ele>
      </trkpt>
      <trkpt lat="44.3077" lon="6.84844">
        <time>2023-04-10T07:15:14+00:00</time>
        <ele>2256.0</ele>
      </trkpt>
      <trkpt lat="44.3077" lon="6.84844">
        <time>2023-04-10T07:15:15+00:00</time>
        <ele>2256.0</ele>
      </trkpt>
      <trkpt lat="44.3077" lon="6.84844">
        <time>2023-04-10T07:15:16+00:00</time>
        <ele>2256.0</ele>
      </trkpt>
      <trkpt lat="44.3077" lon="6.84844">
        <time>2023-04-10T07:15:17+00:00</time>
        <ele>2256.0</ele>
      </trkpt>
      <trkpt lat="44.3077" lon="6.84844">
        <time>2023-04-10T07:15:18+00:00</time>
        <ele>2256.0</ele>
      </trkpt>
      <trkpt lat="44.3077" lon="6.84844">
        <time>2023-04-10T07:15:19+00:00</time>
        <ele>2256.0</ele>
      </trkpt>
      <trkpt lat="44.3077" lon="6.84844">
        <time>2023-04-10T07:15:20+00:00</time>
        <ele>2256.0</ele>
      </trkpt>
      <trkpt lat="44.3077" lon="6.84844">
        <time>2023-04-10T07:15:21+00:00</time>
        <ele>2256.0</ele>
      </trkpt>
      <trkpt lat="44.3077" lon="6.84844">
        <time>2023-04-10T07:15:22+00:00</time>
        <ele>2256.0</ele>
      </trkpt>
      <trkpt lat="44.3077" lon="6.84844">
        <time>2023-04-10T07:15:23+00:00</time>
        <ele>2256.0</ele>
      </trkpt>
      <trkpt lat="44.3077" lon="6.84844">
        <time>2023-04-10T07:15:24+00:00</time>
        <ele>2256.0</ele>
      </trkpt>
      <trkpt lat="44.3077" lon="6.84844">
        <time>2023-04-10T07:15:25+00:00</time>
        <ele>2256.0</ele>
      </trkpt>
      <trkpt lat="44.3077" lon="6.84844">
        <time>2023-04-10T07:15:26+00:00</time>
        <ele>2256.0</ele>
      </trkpt>
      <trkpt lat="44.3077" lon="6.84844">
        <time>2023-04-10T07:15:27+00:00</time>
        <ele>2256.0</ele>
      </trkpt>
      <trkpt lat="44.3077" lon="6.84844">
        <time>2023-04-10T07:15:28+00:00</time>
        <ele>2256.0</ele>
      </trkpt>
      <trkpt lat="44.3077" lon="6.84844">
        <time>2023-04-10T07:15:29+00:00</time>
        <ele>2256.0</ele>
      </trkpt>
      <trkpt lat="44.3077" lon="6.84844">
        <time>2023-04-10T07:15:30+00:00</time>
        <ele>2256.0</ele>
      </trkpt>
      <trkpt lat="44.3077" lon="6.84844">
        <time>2023-04-10T07:15:31+00:00</time>
        <ele>2256.0</ele>
      </trkpt>
      <trkpt lat="44.3077" lon="6.84844">
        <time>2023-04-10T07:15:32+00:00</time>
        <ele>2256.0</ele>
      </trkpt>
      <trkpt lat="44.3077" lon="6.84844">
        <time>2023-04-10T07:15:33+00:00</time>
        <ele>2256.0</ele>
      </trkpt>
      <trkpt lat="44.3077" lon="6.84844">
        <time>2023-04-10T07:15:34+00:00</time>
        <ele>2256.0</ele>
      </trkpt>
      <trkpt lat="44.3077" lon="6.84844">
        <time>2023-04-10T07:15:35+00:00</time>
        <ele>2256.0</ele>
      </trkpt>
      <trkpt lat="44.3077" lon="6.84844">
        <time>2023-04-10T07:15:36+00:00</time>
        <ele>2256.0</ele>
      </trkpt>
      <trkpt lat="44.3077" lon="6.84844">
        <time>2023-04-10T07:15:37+00:00</time>
        <ele>2256.0</ele>
      </trkpt>
      <trkpt lat="44.3077" lon="6.84844">
        <time>2023-04-10T07:15:38+00:00</time>
        <ele>2256.0</ele>
      </trkpt>
      <trkpt lat="44.3077" lon="6.84844">
        <time>2023-04-10T07:15:39+00:00</time>
        <ele>2256.0</ele>
      </trkpt>
      <trkpt lat="44.3077" lon="6.84844">
        <time>2023-04-10T07:15:40+00:00</time>
        <ele>2256.0</ele>
      </trkpt>
      <trkpt lat="44.3077" lon="6.84844">
        <time>2023-04-10T07:15:41+00:00</time>
        <ele>2256.0</ele>
      </trkpt>
      <trkpt lat="44.3077" lon="6.84844">
        <time>2023-04-10T07:15:42+00:00</time>
        <ele>2256.0</ele>
      </trkpt>
      <trkpt lat="44.3077" lon="6.84844">
        <time>2023-04-10T07:15:43+00:00</time>
        <ele>2256.0</ele>
      </trkpt>
      <trkpt lat="44.3077" lon="6.84844">
        <time>2023-04-10T07:15:44+00:00</time>
        <ele>2256.0</ele>
      </trkpt>
      <trkpt lat="44.3077" lon="6.84844">
        <time>2023-04-10T07:15:45+00:00</time>
        <ele>2256.0</ele>
      </trkpt>
      <trkpt lat="44.3077" lon="6.84844">
        <time>2023-04-10T07:15:46+00:00</time>
        <ele>2256.0</ele>
      </trkpt>
      <trkpt lat="44.3077" lon="6.84844">
        <time>2023-04-10T07:15:47+00:00</time>
        <ele>2256.0</ele>
      </trkpt>
      <trkpt lat="44.3077" lon="6.84844">
        <time>2023-04-10T07:15:48+00:00</time>
        <ele>2256.0</ele>
      </trkpt>
      <trkpt lat="44.3077" lon="6.84844">
        <time>2023-04-10T07:15:49+00:00</time>
        <ele>2256.0</ele>
      </trkpt>
      <trkpt lat="44.3077" lon="6.84844">
        <time>2023-04-10T07:15:50+00:00</time>
        <ele>2256.0</ele>
      </trkpt>
      <trkpt lat="44.3077" lon="6.84844">
        <time>2023-04-10T07:15:51+00:00</time>
        <ele>2256.0</ele>
      </trkpt>
      <trkpt lat="44.3077" lon="6.84844">
        <time>2023-04-10T07:15:52+00:00</time>
        <ele>2256.0</ele>
      </trkpt>
      <trkpt lat="44.3077" lon="6.84844">
        <time>2023-04-10T07:15:53+00:00</time>
        <ele>2256.0</ele>
      </trkpt>
      <trkpt lat="44.3077" lon="6.84844">
        <time>2023-04-10T07:15:54+00:00</time>
        <ele>2256.0</ele>
      </trkpt>
      <trkpt lat="44.3077" lon="6.84844">
        <time>2023-04-10T07:15:55+00:00</time>
        <ele>2256.0</ele>
      </trkpt>
      <trkpt lat="44.3077" lon="6.84844">
        <time>2023-04-10T07:15:56+00:00</time>
        <ele>2256.0</ele>
      </trkpt>
      <trkpt lat="44.3077" lon="6.84844">
        <time>2023-04-10T07:15:57+00:00</time>
        <ele>2256.0</ele>
      </trkpt>
      <trkpt lat="44.3077" lon="6.84844">
        <time>2023-04-10T07:15:58+00:00</time>
        <ele>2256.0</ele>
      </trkpt>
      <trkpt lat="44.3077" lon="6.84844">
        <time>2023-04-10T07:15:59+00:00</time>
        <ele>2256.0</ele>
      </trkpt>
      <trkpt lat="44.3077" lon="6.84844">
        <time>2023-04-10T07:16:00+00:00</time>
        <ele>2256.0</ele>
      </trkpt>
      <trkpt lat="44.3077" lon="6.84844">
        <time>2023-04-10T07:16:01+00:00</time>
        <ele>2256.0</ele>
      </trkpt>
      <trkpt lat="44.3077" lon="6.84844">
        <time>2023-04-10T07:16:02+00:00</time>
        <ele>2256.0</ele>
      </trkpt>
      <trkpt lat="44.3077" lon="6.84844">
        <time>2023-04-10T07:16:03+00:00</time>
        <ele>2256.0</ele>
      </trkpt>
      <trkpt lat="44.3077" lon="6.84844">
        <time>2023-04-10T07:16:04+00:00</time>
        <ele>2256.0</ele>
      </trkpt>
      <trkpt lat="44.3077" lon="6.84844">
        <time>2023-04-10T07:16:05+00:00</time>
        <ele>2256.0</ele>
      </trkpt>
      <trkpt lat="44.3077" lon="6.84844">
        <time>2023-04-10T07:16:06+00:00</time>
        <ele>2256.0</ele>
      </trkpt>
      <trkpt lat="44.3077" lon="6.84844">
        <time>2023-04-10T07:16:07+00:00</time>
        <ele>2256.0</ele>
      </trkpt>
      <trkpt lat="44.3077" lon="6.84844">
        <time>2023-04-10T07:16:08+00:00</time>
        <ele>2256.0</ele>
      </trkpt>
      <trkpt lat="44.3077" lon="6.84844">
        <time>2023-04-10T07:16:09+00:00</time>
        <ele>2256.0</ele>
      </trkpt>
      <trkpt lat="44.3077" lon="6.84844">
        <time>2023-04-10T07:16:10+00:00</time>
        <ele>2256.0</ele>
      </trkpt>
      <trkpt lat="44.3077" lon="6.84844">
        <time>2023-04-10T07:16:11+00:00</time>
        <ele>2256.0</ele>
      </trkpt>
      <trkpt lat="44.3077" lon="6.84844">
        <time>2023-04-10T07:16:12+00:00</time>
        <ele>2256.0</ele>
      </trkpt>
      <trkpt lat="44.3077" lon="6.84844">
        <time>2023-04-10T07:16:13+00:00</time>
        <ele>2256.0</ele>
      </trkpt>
      <trkpt lat="44.3077" lon="6.84844">
        <time>2023-04-10T07:16:14+00:00</time>
        <ele>2256.0</ele>
      </trkpt>
      <trkpt lat="44.3077" lon="6.84844">
        <time>2023-04-10T07:16:15+00:00</time>
        <ele>2256.0</ele>
      </trkpt>
      <trkpt lat="44.3077" lon="6.84844">
        <time>2023-04-10T07:16:16+00:00</time>
        <ele>2256.0</ele>
      </trkpt>
      <trkpt lat="44.3077" lon="6.84844">
        <time>2023-04-10T07:16:17+00:00</time>
        <ele>2256.0</ele>
      </trkpt>
      <trkpt lat="44.3077" lon="6.84844">
        <time>2023-04-10T07:16:18+00:00</time>
        <ele>2256.0</ele>
      </trkpt>
      <trkpt lat="44.3077" lon="6.84844">
        <time>2023-04-10T07:16:19+00:00</time>
        <ele>2256.0</ele>
      </trkpt>
      <trkpt lat="44.3077" lon="6.84844">
        <time>2023-04-10T07:16:20+00:00</time>
        <ele>2256.0</ele>
      </trkpt>
      <trkpt lat="44.3077" lon="6.84844">
        <time>2023-04-10T07:16:21+00:00</time>
        <ele>2256.0</ele>
      </trkpt>
      <trkpt lat="44.3077" lon="6.84844">
        <time>2023-04-10T07:16:22+00:00</time>
        <ele>2256.0</ele>
      </trkpt>
      <trkpt lat="44.3077" lon="6.84844">
        <time>2023-04-10T07:16:23+00:00</time>
        <ele>2256.0</ele>
      </trkpt>
      <trkpt lat="44.3077" lon="6.84844">
        <time>2023-04-10T07:16:24+00:00</time>
        <ele>2256.0</ele>
      </trkpt>
      <trkpt lat="44.3077" lon="6.84844">
        <time>2023-04-10T07:16:25+00:00</time>
        <ele>2256.0</ele>
      </trkpt>
      <trkpt lat="44.3077" lon="6.84844">
        <time>2023-04-10T07:16:26+00:00</time>
        <ele>2256.0</ele>
      </trkpt>
      <trkpt lat="44.3077" lon="6.84844">
        <time>2023-04-10T07:16:27+00:00</time>
        <ele>2256.0</ele>
      </trkpt>
      <trkpt lat="44.3077" lon="6.84844">
        <time>2023-04-10T07:16:28+00:00</time>
        <ele>2256.0</ele>
      </trkpt>
      <trkpt lat="44.3077" lon="6.84844">
        <time>2023-04-10T07:16:29+00:00</time>
        <ele>2256.0</ele>
      </trkpt>
      <trkpt lat="44.3077" lon="6.84844">
        <time>2023-04-10T07:16:30+00:00</time>
        <ele>2256.0</ele>
      </trkpt>
      <trkpt lat="44.3077" lon="6.84844">
        <time>2023-04-10T07:16:31+00:00</time>
        <ele>2256.0</ele>
      </trkpt>
      <trkpt lat="44.3077" lon="6.84844">
        <time>2023-04-10T07:16:32+00:00</time>
        <ele>2256.0</ele>
      </trkpt>
      <trkpt lat="44.3077" lon="6.84844">
        <time>2023-04-10T07:16:33+00:00</time>
        <ele>2256.0</ele>
      </trkpt>
      <trkpt lat="44.3077" lon="6.84844">
        <time>2023-04-10T07:16:34+00:00</time>
        <ele>2256.0</ele>
      </trkpt>
      <trkpt lat="44.3077" lon="6.84844">
        <time>2023-04-10T07:16:35+00:00</time>
        <ele>2256.0</ele>
      </trkpt>
      <trkpt lat="44.3077" lon="6.84844">
        <time>2023-04-10T07:16:36+00:00</time>
        <ele>2256.0</ele>
      </trkpt>
      <trkpt lat="44.3077" lon="6.84844">
        <time>2023-04-10T07:16:37+00:00</time>
        <ele>2256.0</ele>
      </trkpt>
      <trkpt lat="44.3077" lon="6.84844">
        <time>2023-04-10T07:16:38+00:00</time>
        <ele>2256.0</ele>
      </trkpt>
      <trkpt lat="44.3077" lon="6.84844">
        <time>2023-04-10T07:16:39+00:00</time>
        <ele>2256.0</ele>
      </trkpt>
      <trkpt lat="44.3077" lon="6.84844">
        <time>2023-04-10T07:16:40+00:00</time>
        <ele>2256.0</ele>
      </trkpt>
      <trkpt lat="44.3077" lon="6.84844">
        <time>2023-04-10T07:16:41+00:00</time>
        <ele>2256.0</ele>
      </trkpt>
      <trkpt lat="44.3077" lon="6.84844">
        <time>2023-04-10T07:16:42+00:00</time>
        <ele>2256.0</ele>
      </trkpt>
      <trkpt lat="44.3077" lon="6.84844">
        <time>2023-04-10T07:16:43+00:00</time>
        <ele>2256.0</ele>
      </trkpt>
      <trkpt lat="44.3077" lon="6.84844">
        <time>2023-04-10T07:16:44+00:00</time>
        <ele>2256.0</ele>
      </trkpt>
      <trkpt lat="44.3077" lon="6.84844">
        <time>2023-04-10T07:16:45+00:00</time>
        <ele>2256.0</ele>
      </trkpt>
      <trkpt lat="44.3077" lon="6.84844">
        <time>2023-04-10T07:16:46+00:00</time>
        <ele>2256.0</ele>
      </trkpt>
      <trkpt lat="44.3077" lon="6.84844">
        <time>2023-04-10T07:16:47+00:00</time>
        <ele>2256.0</ele>
      </trkpt>
      <trkpt lat="44.3077" lon="6.84844">
        <time>2023-04-10T07:16:48+00:00</time>
        <ele>2256.0</ele>
      </trkpt>
      <trkpt lat="44.3077" lon="6.84844">
        <time>2023-04-10T07:16:49+00:00</time>
        <ele>2256.0</ele>
      </trkpt>
      <trkpt lat="44.3077" lon="6.84844">
        <time>2023-04-10T07:16:50+00:00</time>
        <ele>2256.0</ele>
      </trkpt>
      <trkpt lat="44.3077" lon="6.84844">
        <time>2023-04-10T07:16:51+00:00</time>
        <ele>2256.0</ele>
      </trkpt>
      <trkpt lat="44.3077" lon="6.84844">
        <time>2023-04-10T07:16:52+00:00</time>
        <ele>2256.0</ele>
      </trkpt>
      <trkpt lat="44.3077" lon="6.84844">
        <time>2023-04-10T07:16:53+00:00</time>
        <ele>2256.0</ele>
      </trkpt>
      <trkpt lat="44.3077" lon="6.84844">
        <time>2023-04-10T07:16:54+00:00</time>
        <ele>2256.0</ele>
      </trkpt>
      <trkpt lat="44.3077" lon="6.84844">
        <time>2023-04-10T07:16:55+00:00</time>
        <ele>2256.0</ele>
      </trkpt>
      <trkpt lat="44.3077" lon="6.84844">
        <time>2023-04-10T07:16:56+00:00</time>
        <ele>2256.0</ele>
      </trkpt>
      <trkpt lat="44.3077" lon="6.84844">
        <time>2023-04-10T07:16:57+00:00</time>
        <ele>2256.0</ele>
      </trkpt>
      <trkpt lat="44.3077" lon="6.84844">
        <time>2023-04-10T07:16:58+00:00</time>
        <ele>2256.0</ele>
      </trkpt>
      <trkpt lat="44.3077" lon="6.84844">
        <time>2023-04-10T07:16:59+00:00</time>
        <ele>2256.0</ele>
      </trkpt>
      <trkpt lat="44.3077" lon="6.84844">
        <time>2023-04-10T07:17:00+00:00</time>
        <ele>2256.0</ele>
      </trkpt>
      <trkpt lat="44.3077" lon="6.84844">
        <time>2023-04-10T07:17:01+00:00</time>
        <ele>2256.0</ele>
      </trkpt>
      <trkpt lat="44.3077" lon="6.84844">
        <time>2023-04-10T07:17:02+00:00</time>
        <ele>2256.0</ele>
      </trkpt>
      <trkpt lat="44.3077" lon="6.84844">
        <time>2023-04-10T07:17:03+00:00</time>
        <ele>2256.0</ele>
      </trkpt>
      <trkpt lat="44.3077" lon="6.84844">
        <time>2023-04-10T07:17:04+00:00</time>
        <ele>2256.0</ele>
      </trkpt>
      <trkpt lat="44.3077" lon="6.84844">
        <time>2023-04-10T07:17:05+00:00</time>
        <ele>2256.0</ele>
      </trkpt>
      <trkpt lat="44.3077" lon="6.84844">
        <time>2023-04-10T07:17:06+00:00</time>
        <ele>2256.0</ele>
      </trkpt>
      <trkpt lat="44.3077" lon="6.84844">
        <time>2023-04-10T07:17:07+00:00</time>
        <ele>2256.0</ele>
      </trkpt>
      <trkpt lat="44.3077" lon="6.84844">
        <time>2023-04-10T07:17:08+00:00</time>
        <ele>2256.0</ele>
      </trkpt>
      <trkpt lat="44.3077" lon="6.84844">
        <time>2023-04-10T07:17:09+00:00</time>
        <ele>2256.0</ele>
      </trkpt>
      <trkpt lat="44.3077" lon="6.84844">
        <time>2023-04-10T07:17:10+00:00</time>
        <ele>2256.0</ele>
      </trkpt>
      <trkpt lat="44.3077" lon="6.84844">
        <time>2023-04-10T07:17:11+00:00</time>
        <ele>2256.0</ele>
      </trkpt>
      <trkpt lat="44.3077" lon="6.84844">
        <time>2023-04-10T07:17:12+00:00</time>
        <ele>2256.0</ele>
      </trkpt>
      <trkpt lat="44.3077" lon="6.84844">
        <time>2023-04-10T07:17:13+00:00</time>
        <ele>2256.0</ele>
      </trkpt>
      <trkpt lat="44.3077" lon="6.84844">
        <time>2023-04-10T07:17:14+00:00</time>
        <ele>2256.0</ele>
      </trkpt>
      <trkpt lat="44.3077" lon="6.84844">
        <time>2023-04-10T07:17:15+00:00</time>
        <ele>2256.0</ele>
      </trkpt>
      <trkpt lat="44.3077" lon="6.84844">
        <time>2023-04-10T07:17:16+00:00</time>
        <ele>2256.0</ele>
      </trkpt>
      <trkpt lat="44.3077" lon="6.84844">
        <time>2023-04-10T07:17:17+00:00</time>
        <ele>2256.0</ele>
      </trkpt>
      <trkpt lat="44.3077" lon="6.84844">
        <time>2023-04-10T07:17:18+00:00</time>
        <ele>2256.0</ele>
      </trkpt>
      <trkpt lat="44.3077" lon="6.84844">
        <time>2023-04-10T07:17:19+00:00</time>
        <ele>2256.0</ele>
      </trkpt>
      <trkpt lat="44.3077" lon="6.84844">
        <time>2023-04-10T07:17:20+00:00</time>
        <ele>2256.0</ele>
      </trkpt>
      <trkpt lat="44.3077" lon="6.84844">
        <time>2023-04-10T07:17:21+00:00</time>
        <ele>2256.0</ele>
      </trkpt>
      <trkpt lat="44.3077" lon="6.84844">
        <time>2023-04-10T07:17:22+00:00</time>
        <ele>2256.0</ele>
      </trkpt>
      <trkpt lat="44.3077" lon="6.84844">
        <time>2023-04-10T07:17:23+00:00</time>
        <ele>2256.0</ele>
      </trkpt>
      <trkpt lat="44.3077" lon="6.84844">
        <time>2023-04-10T07:17:24+00:00</time>
        <ele>2256.0</ele>
      </trkpt>
      <trkpt lat="44.3077" lon="6.84844">
        <time>2023-04-10T07:17:25+00:00</time>
        <ele>2256.0</ele>
      </trkpt>
      <trkpt lat="44.3077" lon="6.84844">
        <time>2023-04-10T07:17:26+00:00</time>
        <ele>2256.0</ele>
      </trkpt>
      <trkpt lat="44.3077" lon="6.84844">
        <time>2023-04-10T07:17:27+00:00</time>
        <ele>2256.0</ele>
      </trkpt>
      <trkpt lat="44.3077" lon="6.84844">
        <time>2023-04-10T07:17:28+00:00</time>
        <ele>2256.0</ele>
      </trkpt>
      <trkpt lat="44.3077" lon="6.84844">
        <time>2023-04-10T07:17:29+00:00</time>
        <ele>2256.0</ele>
      </trkpt>
      <trkpt lat="44.3077" lon="6.84844">
        <time>2023-04-10T07:17:30+00:00</time>
        <ele>2256.0</ele>
      </trkpt>
      <trkpt lat="44.3077" lon="6.84844">
        <time>2023-04-10T07:17:31+00:00</time>
        <ele>2256.0</ele>
      </trkpt>
      <trkpt lat="44.3077" lon="6.84844">
        <time>2023-04-10T07:17:32+00:00</time>
        <ele>2256.0</ele>
      </trkpt>
      <trkpt lat="44.3077" lon="6.84844">
        <time>2023-04-10T07:17:33+00:00</time>
        <ele>2256.0</ele>
      </trkpt>
      <trkpt lat="44.3077" lon="6.84844">
        <time>2023-04-10T07:17:34+00:00</time>
        <ele>2256.0</ele>
      </trkpt>
      <trkpt lat="44.3077" lon="6.84844">
        <time>2023-04-10T07:17:35+00:00</time>
        <ele>2256.0</ele>
      </trkpt>
      <trkpt lat="44.3077" lon="6.84844">
        <time>2023-04-10T07:17:36+00:00</time>
        <ele>2256.0</ele>
      </trkpt>
      <trkpt lat="44.3077" lon="6.84844">
        <time>2023-04-10T07:17:37+00:00</time>
        <ele>2256.0</ele>
      </trkpt>
      <trkpt lat="44.3077" lon="6.84844">
        <time>2023-04-10T07:17:38+00:00</time>
        <ele>2256.0</ele>
      </trkpt>
      <trkpt lat="44.3077" lon="6.84844">
        <time>2023-04-10T07:17:39+00:00</time>
        <ele>2256.0</ele>
      </trkpt>
      <trkpt lat="44.3077" lon="6.84844">
        <time>2023-04-10T07:17:40+00:00</time>
        <ele>2256.0</ele>
      </trkpt>
      <trkpt lat="44.3077" lon="6.84844">
        <time>2023-04-10T07:17:41+00:00</time>
        <ele>2256.0</ele>
      </trkpt>
      <trkpt lat="44.3077" lon="6.84844">
        <time>2023-04-10T07:17:42+00:00</time>
        <ele>2256.0</ele>
      </trkpt>
      <trkpt lat="44.3077" lon="6.84844">
        <time>2023-04-10T07:17:43+00:00</time>
        <ele>2256.0</ele>
      </trkpt>
      <trkpt lat="44.3077" lon="6.84844">
        <time>2023-04-10T07:17:44+00:00</time>
        <ele>2256.0</ele>
      </trkpt>
      <trkpt lat="44.3077" lon="6.84844">
        <time>2023-04-10T07:17:45+00:00</time>
        <ele>2256.0</ele>
      </trkpt>
      <trkpt lat="44.3077" lon="6.84844">
        <time>2023-04-10T07:17:46+00:00</time>
        <ele>2256.0</ele>
      </trkpt>
      <trkpt lat="44.3077" lon="6.84844">
        <time>2023-04-10T07:17:47+00:00</time>
        <ele>2256.0</ele>
      </trkpt>
      <trkpt lat="44.3077" lon="6.84844">
        <time>2023-04-10T07:17:48+00:00</time>
        <ele>2256.0</ele>
      </trkpt>
      <trkpt lat="44.3077" lon="6.84844">
        <time>2023-04-10T07:17:49+00:00</time>
        <ele>2256.0</ele>
      </trkpt>
      <trkpt lat="44.3077" lon="6.84844">
        <time>2023-04-10T07:17:50+00:00</time>
        <ele>2256.0</ele>
      </trkpt>
      <trkpt lat="44.3077" lon="6.84844">
        <time>2023-04-10T07:17:51+00:00</time>
        <ele>2256.0</ele>
      </trkpt>
      <trkpt lat="44.3077" lon="6.84844">
        <time>2023-04-10T07:17:52+00:00</time>
        <ele>2256.0</ele>
      </trkpt>
      <trkpt lat="44.3077" lon="6.84844">
        <time>2023-04-10T07:17:53+00:00</time>
        <ele>2256.0</ele>
      </trkpt>
      <trkpt lat="44.3077" lon="6.84844">
        <time>2023-04-10T07:17:54+00:00</time>
        <ele>2256.0</ele>
      </trkpt>
      <trkpt lat="44.3077" lon="6.84844">
        <time>2023-04-10T07:17:55+00:00</time>
        <ele>2256.0</ele>
      </trkpt>
      <trkpt lat="44.3077" lon="6.84844">
        <time>2023-04-10T07:17:56+00:00</time>
        <ele>2256.0</ele>
      </trkpt>
      <trkpt lat="44.3077" lon="6.84844">
        <time>2023-04-10T07:17:57+00:00</time>
        <ele>2256.0</ele>
      </trkpt>
      <trkpt lat="44.3077" lon="6.84844">
        <time>2023-04-10T07:17:58+00:00</time>
        <ele>2256.0</ele>
      </trkpt>
      <trkpt lat="44.3077" lon="6.84844">
        <time>2023-04-10T07:17:59+00:00</time>
        <ele>2256.0</ele>
      </trkpt>
      <trkpt lat="44.3077" lon="6.84844">
        <time>2023-04-10T07:18:00+00:00</time>
        <ele>2256.0</ele>
      </trkpt>
      <trkpt lat="44.3077" lon="6.84844">
        <time>2023-04-10T07:18:01+00:00</time>
        <ele>2256.0</ele>
      </trkpt>
      <trkpt lat="44.3077" lon="6.84844">
        <time>2023-04-10T07:18:02+00:00</time>
        <ele>2256.0</ele>
      </trkpt>
      <trkpt lat="44.3077" lon="6.84844">
        <time>2023-04-10T07:18:03+00:00</time>
        <ele>2256.0</ele>
      </trkpt>
      <trkpt lat="44.3077" lon="6.84844">
        <time>2023-04-10T07:18:04+00:00</time>
        <ele>2256.0</ele>
      </trkpt>
      <trkpt lat="44.3077" lon="6.84844">
        <time>2023-04-10T07:18:05+00:00</time>
        <ele>2256.0</ele>
      </trkpt>
      <trkpt lat="44.3077" lon="6.84844">
        <time>2023-04-10T07:18:06+00:00</time>
        <ele>2256.0</ele>
      </trkpt>
      <trkpt lat="44.3077" lon="6.84844">
        <time>2023-04-10T07:18:07+00:00</time>
        <ele>2256.0</ele>
      </trkpt>
      <trkpt lat="44.3077" lon="6.84844">
        <time>2023-04-10T07:18:08+00:00</time>
        <ele>2256.0</ele>
      </trkpt>
      <trkpt lat="44.3077" lon="6.84844">
        <time>2023-04-10T07:18:09+00:00</time>
        <ele>2256.0</ele>
      </trkpt>
      <trkpt lat="44.3077" lon="6.84844">
        <time>2023-04-10T07:18:10+00:00</time>
        <ele>2256.0</ele>
      </trkpt>
      <trkpt lat="44.3077" lon="6.84844">
        <time>2023-04-10T07:18:11+00:00</time>
        <ele>2256.0</ele>
      </trkpt>
      <trkpt lat="44.3077" lon="6.84844">
        <time>2023-04-10T07:18:12+00:00</time>
        <ele>2256.0</ele>
      </trkpt>
      <trkpt lat="44.3077" lon="6.84844">
        <time>2023-04-10T07:18:13+00:00</time>
        <ele>2256.0</ele>
      </trkpt>
      <trkpt lat="44.3077" lon="6.84844">
        <time>2023-04-10T07:18:14+00:00</time>
        <ele>2256.0</ele>
      </trkpt>
      <trkpt lat="44.3077" lon="6.84844">
        <time>2023-04-10T07:18:15+00:00</time>
        <ele>2256.0</ele>
      </trkpt>
      <trkpt lat="44.3077" lon="6.84844">
        <time>2023-04-10T07:18:16+00:00</time>
        <ele>2256.0</ele>
      </trkpt>
      <trkpt lat="44.3077" lon="6.84844">
        <time>2023-04-10T07:18:17+00:00</time>
        <ele>2256.0</ele>
      </trkpt>
      <trkpt lat="44.3077" lon="6.84844">
        <time>2023-04-10T07:18:18+00:00</time>
        <ele>2256.0</ele>
      </trkpt>
      <trkpt lat="44.30767" lon="6.84846">
        <time>2023-04-10T07:18:19+00:00</time>
        <ele>2256.0</ele>
      </trkpt>
      <trkpt lat="44.30769" lon="6.84843">
        <time>2023-04-10T07:18:20+00:00</time>
        <ele>2256.0</ele>
      </trkpt>
      <trkpt lat="44.30769" lon="6.84843">
        <time>2023-04-10T07:18:21+00:00</time>
        <ele>2256.0</ele>
      </trkpt>
      <trkpt lat="44.3077" lon="6.84839">
        <time>2023-04-10T07:18:22+00:00</time>
        <ele>2257.0</ele>
      </trkpt>
      <trkpt lat="44.3077" lon="6.84839">
        <time>2023-04-10T07:18:23+00:00</time>
        <ele>2257.0</ele>
      </trkpt>
      <trkpt lat="44.30771" lon="6.84836">
        <time>2023-04-10T07:18:24+00:00</time>
        <ele>2257.0</ele>
      </trkpt>
      <trkpt lat="44.30771" lon="6.84836">
        <time>2023-04-10T07:18:25+00:00</time>
        <ele>2257.0</ele>
      </trkpt>
      <trkpt lat="44.30772" lon="6.84832">
        <time>2023-04-10T07:18:26+00:00</time>
        <ele>2257.0</ele>
      </trkpt>
      <trkpt lat="44.30772" lon="6.84832">
        <time>2023-04-10T07:18:27+00:00</time>
        <ele>2257.0</ele>
      </trkpt>
      <trkpt lat="44.30772" lon="6.84832">
        <time>2023-04-10T07:18:28+00:00</time>
        <ele>2257.0</ele>
      </trkpt>
      <trkpt lat="44.30774" lon="6.84827">
        <time>2023-04-10T07:18:29+00:00</time>
        <ele>2258.0</ele>
      </trkpt>
      <trkpt lat="44.30774" lon="6.84826">
        <time>2023-04-10T07:18:30+00:00</time>
        <ele>2258.0</ele>
      </trkpt>
      <trkpt lat="44.30774" lon="6.84826">
        <time>2023-04-10T07:18:31+00:00</time>
        <ele>2258.0</ele>
      </trkpt>
      <trkpt lat="44.30774" lon="6.84826">
        <time>2023-04-10T07:18:32+00:00</time>
        <ele>2258.0</ele>
      </trkpt>
      <trkpt lat="44.30774" lon="6.84826">
        <time>2023-04-10T07:18:33+00:00</time>
        <ele>2258.0</ele>
      </trkpt>
      <trkpt lat="44.30774" lon="6.84822">
        <time>2023-04-10T07:18:34+00:00</time>
        <ele>2259.0</ele>
      </trkpt>
      <trkpt lat="44.30774" lon="6.84822">
        <time>2023-04-10T07:18:35+00:00</time>
        <ele>2259.0</ele>
      </trkpt>
      <trkpt lat="44.30776" lon="6.84819">
        <time>2023-04-10T07:18:36+00:00</time>
        <ele>2259.0</ele>
      </trkpt>
      <trkpt lat="44.30776" lon="6.84819">
        <time>2023-04-10T07:18:37+00:00</time>
        <ele>2259.0</ele>
      </trkpt>
      <trkpt lat="44.30776" lon="6.84819">
        <time>2023-04-10T07:18:38+00:00</time>
        <ele>2259.0</ele>
      </trkpt>
      <trkpt lat="44.30776" lon="6.84816">
        <time>2023-04-10T07:18:39+00:00</time>
        <ele>2259.0</ele>
      </trkpt>
      <trkpt lat="44.30776" lon="6.84816">
        <time>2023-04-10T07:18:40+00:00</time>
        <ele>2259.0</ele>
      </trkpt>
      <trkpt lat="44.30777" lon="6.84814">
        <time>2023-04-10T07:18:41+00:00</time>
        <ele>2260.0</ele>
      </trkpt>
      <trkpt lat="44.30777" lon="6.84814">
        <time>2023-04-10T07:18:42+00:00</time>
        <ele>2260.0</ele>
      </trkpt>
      <trkpt lat="44.30777" lon="6.84814">
        <time>2023-04-10T07:18:43+00:00</time>
        <ele>2260.0</ele>
      </trkpt>
      <trkpt lat="44.30778" lon="6.84811">
        <time>2023-04-10T07:18:44+00:00</time>
        <ele>2260.0</ele>
      </trkpt>
      <trkpt lat="44.30778" lon="6.84811">
        <time>2023-04-10T07:18:45+00:00</time>
        <ele>2260.0</ele>
      </trkpt>
      <trkpt lat="44.30778" lon="6.84811">
        <time>2023-04-10T07:18:46+00:00</time>
        <ele>2260.0</ele>
      </trkpt>
      <trkpt lat="44.30779" lon="6.84808">
        <time>2023-04-10T07:18:47+00:00</time>
        <ele>2261.0</ele>
      </trkpt>
      <trkpt lat="44.30779" lon="6.84808">
        <time>2023-04-10T07:18:48+00:00</time>
        <ele>2261.0</ele>
      </trkpt>
      <trkpt lat="44.30781" lon="6.84805">
        <time>2023-04-10T07:18:49+00:00</time>
        <ele>2261.0</ele>
      </trkpt>
      <trkpt lat="44.30781" lon="6.84805">
        <time>2023-04-10T07:18:50+00:00</time>
        <ele>2261.0</ele>
      </trkpt>
      <trkpt lat="44.30781" lon="6.84805">
        <time>2023-04-10T07:18:51+00:00</time>
        <ele>2261.0</ele>
      </trkpt>
      <trkpt lat="44.30782" lon="6.84802">
        <time>2023-04-10T07:18:52+00:00</time>
        <ele>2262.0</ele>
      </trkpt>
      <trkpt lat="44.30782" lon="6.84802">
        <time>2023-04-10T07:18:53+00:00</time>
        <ele>2262.0</ele>
      </trkpt>
      <trkpt lat="44.30782" lon="6.84802">
        <time>2023-04-10T07:18:54+00:00</time>
        <ele>2262.0</ele>
      </trkpt>
      <trkpt lat="44.30784" lon="6.84799">
        <time>2023-04-10T07:18:55+00:00</time>
        <ele>2262.0</ele>
      </trkpt>
      <trkpt lat="44.30784" lon="6.84799">
        <time>2023-04-10T07:18:56+00:00</time>
        <ele>2262.0</ele>
      </trkpt>
      <trkpt lat="44.30784" lon="6.84799">
        <time>2023-04-10T07:18:57+00:00</time>
        <ele>2262.0</ele>
      </trkpt>
      <trkpt lat="44.30784" lon="6.84795">
        <time>2023-04-10T07:18:58+00:00</time>
        <ele>2263.0</ele>
      </trkpt>
      <trkpt lat="44.30784" lon="6.84795">
        <time>2023-04-10T07:18:59+00:00</time>
        <ele>2263.0</ele>
      </trkpt>
      <trkpt lat="44.30784" lon="6.84795">
        <time>2023-04-10T07:19:00+00:00</time>
        <ele>2263.0</ele>
      </trkpt>
      <trkpt lat="44.30784" lon="6.84793">
        <time>2023-04-10T07:19:01+00:00</time>
        <ele>2264.0</ele>
      </trkpt>
      <trkpt lat="44.30784" lon="6.84793">
        <time>2023-04-10T07:19:02+00:00</time>
        <ele>2264.0</ele>
      </trkpt>
      <trkpt lat="44.30784" lon="6.84793">
        <time>2023-04-10T07:19:03+00:00</time>
        <ele>2264.0</ele>
      </trkpt>
      <trkpt lat="44.30784" lon="6.84793">
        <time>2023-04-10T07:19:04+00:00</time>
        <ele>2264.0</ele>
      </trkpt>
      <trkpt lat="44.30785" lon="6.84788">
        <time>2023-04-10T07:19:05+00:00</time>
        <ele>2265.0</ele>
      </trkpt>
      <trkpt lat="44.30785" lon="6.84787">
        <time>2023-04-10T07:19:06+00:00</time>
        <ele>2265.0</ele>
      </trkpt>
      <trkpt lat="44.30785" lon="6.84787">
        <time>2023-04-10T07:19:07+00:00</time>
        <ele>2265.0</ele>
      </trkpt>
      <trkpt lat="44.30786" lon="6.84784">
        <time>2023-04-10T07:19:08+00:00</time>
        <ele>2266.0</ele>
      </trkpt>
      <trkpt lat="44.30786" lon="6.84784">
        <time>2023-04-10T07:19:09+00:00</time>
        <ele>2266.0</ele>
      </trkpt>
      <trkpt lat="44.30786" lon="6.84784">
        <time>2023-04-10T07:19:10+00:00</time>
        <ele>2266.0</ele>
      </trkpt>
      <trkpt lat="44.30787" lon="6.84781">
        <time>2023-04-10T07:19:11+00:00</time>
        <ele>2266.0</ele>
      </trkpt>
      <trkpt lat="44.30787" lon="6.84781">
        <time>2023-04-10T07:19:12+00:00</time>
        <ele>2266.0</ele>
      </trkpt>
      <trkpt lat="44.30787" lon="6.84779">
        <time>2023-04-10T07:19:13+00:00</time>
        <ele>2267.0</ele>
      </trkpt>
      <trkpt lat="44.30787" lon="6.84779">
        <time>2023-04-10T07:19:14+00:00</time>
        <ele>2267.0</ele>
      </trkpt>
      <trkpt lat="44.30787" lon="6.84779">
        <time>2023-04-10T07:19:15+00:00</time>
        <ele>2267.0</ele>
      </trkpt>
      <trkpt lat="44.30787" lon="6.84776">
        <time>2023-04-10T07:19:16+00:00</time>
        <ele>2267.0</ele>
      </trkpt>
      <trkpt lat="44.30787" lon="6.84776">
        <time>2023-04-10T07:19:17+00:00</time>
        <ele>2267.0</ele>
      </trkpt>
      <trkpt lat="44.30787" lon="6.84776">
        <time>2023-04-10T07:19:18+00:00</time>
        <ele>2267.0</ele>
      </trkpt>
      <trkpt lat="44.30787" lon="6.84776">
        <time>2023-04-10T07:19:19+00:00</time>
        <ele>2267.0</ele>
      </trkpt>
      <trkpt lat="44.30787" lon="6.84776">
        <time>2023-04-10T07:19:20+00:00</time>
        <ele>2267.0</ele>
      </trkpt>
      <trkpt lat="44.30787" lon="6.84776">
        <time>2023-04-10T07:19:21+00:00</time>
        <ele>2267.0</ele>
      </trkpt>
      <trkpt lat="44.30787" lon="6.84776">
        <time>2023-04-10T07:19:22+00:00</time>
        <ele>2267.0</ele>
      </trkpt>
      <trkpt lat="44.30787" lon="6.84776">
        <time>2023-04-10T07:19:23+00:00</time>
        <ele>2267.0</ele>
      </trkpt>
      <trkpt lat="44.30787" lon="6.84776">
        <time>2023-04-10T07:19:24+00:00</time>
        <ele>2267.0</ele>
      </trkpt>
      <trkpt lat="44.30787" lon="6.84776">
        <time>2023-04-10T07:19:25+00:00</time>
        <ele>2267.0</ele>
      </trkpt>
      <trkpt lat="44.30787" lon="6.84774">
        <time>2023-04-10T07:19:26+00:00</time>
        <ele>2268.0</ele>
      </trkpt>
      <trkpt lat="44.30787" lon="6.84774">
        <time>2023-04-10T07:19:27+00:00</time>
        <ele>2268.0</ele>
      </trkpt>
      <trkpt lat="44.30787" lon="6.84774">
        <time>2023-04-10T07:19:28+00:00</time>
        <ele>2268.0</ele>
      </trkpt>
      <trkpt lat="44.30787" lon="6.84774">
        <time>2023-04-10T07:19:29+00:00</time>
        <ele>2268.0</ele>
      </trkpt>
      <trkpt lat="44.30787" lon="6.84774">
        <time>2023-04-10T07:19:30+00:00</time>
        <ele>2268.0</ele>
      </trkpt>
      <trkpt lat="44.30787" lon="6.84774">
        <time>2023-04-10T07:19:31+00:00</time>
        <ele>2268.0</ele>
      </trkpt>
      <trkpt lat="44.30787" lon="6.84774">
        <time>2023-04-10T07:19:32+00:00</time>
        <ele>2268.0</ele>
      </trkpt>
      <trkpt lat="44.30787" lon="6.84774">
        <time>2023-04-10T07:19:33+00:00</time>
        <ele>2268.0</ele>
      </trkpt>
      <trkpt lat="44.30787" lon="6.84774">
        <time>2023-04-10T07:19:34+00:00</time>
        <ele>2268.0</ele>
      </trkpt>
      <trkpt lat="44.30788" lon="6.84771">
        <time>2023-04-10T07:19:35+00:00</time>
        <ele>2268.0</ele>
      </trkpt>
      <trkpt lat="44.30788" lon="6.84771">
        <time>2023-04-10T07:19:36+00:00</time>
        <ele>2268.0</ele>
      </trkpt>
      <trkpt lat="44.30788" lon="6.84767">
        <time>2023-04-10T07:19:37+00:00</time>
        <ele>2270.0</ele>
      </trkpt>
      <trkpt lat="44.30788" lon="6.84767">
        <time>2023-04-10T07:19:38+00:00</time>
        <ele>2270.0</ele>
      </trkpt>
      <trkpt lat="44.30789" lon="6.84764">
        <time>2023-04-10T07:19:39+00:00</time>
        <ele>2270.0</ele>
      </trkpt>
      <trkpt lat="44.30789" lon="6.84764">
        <time>2023-04-10T07:19:40+00:00</time>
        <ele>2270.0</ele>
      </trkpt>
      <trkpt lat="44.30789" lon="6.84761">
        <time>2023-04-10T07:19:41+00:00</time>
        <ele>2271.0</ele>
      </trkpt>
      <trkpt lat="44.30789" lon="6.84761">
        <time>2023-04-10T07:19:42+00:00</time>
        <ele>2271.0</ele>
      </trkpt>
      <trkpt lat="44.30789" lon="6.84758">
        <time>2023-04-10T07:19:43+00:00</time>
        <ele>2271.0</ele>
      </trkpt>
      <trkpt lat="44.30789" lon="6.84758">
        <time>2023-04-10T07:19:44+00:00</time>
        <ele>2271.0</ele>
      </trkpt>
      <trkpt lat="44.3079" lon="6.84755">
        <time>2023-04-10T07:19:45+00:00</time>
        <ele>2271.0</ele>
      </trkpt>
      <trkpt lat="44.3079" lon="6.84755">
        <time>2023-04-10T07:19:46+00:00</time>
        <ele>2271.0</ele>
      </trkpt>
      <trkpt lat="44.3079" lon="6.84752">
        <time>2023-04-10T07:19:47+00:00</time>
        <ele>2271.0</ele>
      </trkpt>
      <trkpt lat="44.3079" lon="6.84752">
        <time>2023-04-10T07:19:48+00:00</time>
        <ele>2271.0</ele>
      </trkpt>
      <trkpt lat="44.3079" lon="6.8475">
        <time>2023-04-10T07:19:49+00:00</time>
        <ele>2272.0</ele>
      </trkpt>
      <trkpt lat="44.3079" lon="6.8475">
        <time>2023-04-10T07:19:50+00:00</time>
        <ele>2272.0</ele>
      </trkpt>
      <trkpt lat="44.30792" lon="6.84747">
        <time>2023-04-10T07:19:51+00:00</time>
        <ele>2271.0</ele>
      </trkpt>
      <trkpt lat="44.30792" lon="6.84747">
        <time>2023-04-10T07:19:52+00:00</time>
        <ele>2271.0</ele>
      </trkpt>
      <trkpt lat="44.30793" lon="6.84744">
        <time>2023-04-10T07:19:53+00:00</time>
        <ele>2271.0</ele>
      </trkpt>
      <trkpt lat="44.30793" lon="6.84744">
        <time>2023-04-10T07:19:54+00:00</time>
        <ele>2271.0</ele>
      </trkpt>
      <trkpt lat="44.30794" lon="6.84741">
        <time>2023-04-10T07:19:55+00:00</time>
        <ele>2271.0</ele>
      </trkpt>
      <trkpt lat="44.30794" lon="6.84741">
        <time>2023-04-10T07:19:56+00:00</time>
        <ele>2271.0</ele>
      </trkpt>
      <trkpt lat="44.30795" lon="6.84739">
        <time>2023-04-10T07:19:57+00:00</time>
        <ele>2271.0</ele>
      </trkpt>
      <trkpt lat="44.30795" lon="6.84739">
        <time>2023-04-10T07:19:58+00:00</time>
        <ele>2271.0</ele>
      </trkpt>
      <trkpt lat="44.30796" lon="6.84736">
        <time>2023-04-10T07:19:59+00:00</time>
        <ele>2271.0</ele>
      </trkpt>
      <trkpt lat="44.30797" lon="6.84733">
        <time>2023-04-10T07:20:02+00:00</time>
        <ele>2271.0</ele>
      </trkpt>
      <trkpt lat="44.30797" lon="6.84733">
        <time>2023-04-10T07:20:03+00:00</time>
        <ele>2271.0</ele>
      </trkpt>
      <trkpt lat="44.30799" lon="6.84731">
        <time>2023-04-10T07:20:04+00:00</time>
        <ele>2271.0</ele>
      </trkpt>
      <trkpt lat="44.30799" lon="6.84731">
        <time>2023-04-10T07:20:05+00:00</time>
        <ele>2271.0</ele>
      </trkpt>
      <trkpt lat="44.30799" lon="6.84728">
        <time>2023-04-10T07:20:06+00:00</time>
        <ele>2272.0</ele>
      </trkpt>
      <trkpt lat="44.30799" lon="6.84728">
        <time>2023-04-10T07:20:07+00:00</time>
        <ele>2272.0</ele>
      </trkpt>
      <trkpt lat="44.30799" lon="6.84728">
        <time>2023-04-10T07:20:08+00:00</time>
        <ele>2272.0</ele>
      </trkpt>
      <trkpt lat="44.308" lon="6.84725">
        <time>2023-04-10T07:20:09+00:00</time>
        <ele>2272.0</ele>
      </trkpt>
      <trkpt lat="44.308" lon="6.84725">
        <time>2023-04-10T07:20:10+00:00</time>
        <ele>2272.0</ele>
      </trkpt>
      <trkpt lat="44.308" lon="6.84725">
        <time>2023-04-10T07:20:11+00:00</time>
        <ele>2272.0</ele>
      </trkpt>
      <trkpt lat="44.30801" lon="6.84721">
        <time>2023-04-10T07:20:12+00:00</time>
        <ele>2273.0</ele>
      </trkpt>
      <trkpt lat="44.30801" lon="6.84721">
        <time>2023-04-10T07:20:13+00:00</time>
        <ele>2273.0</ele>
      </trkpt>
      <trkpt lat="44.30802" lon="6.84719">
        <time>2023-04-10T07:20:14+00:00</time>
        <ele>2273.0</ele>
      </trkpt>
      <trkpt lat="44.30802" lon="6.84719">
        <time>2023-04-10T07:20:15+00:00</time>
        <ele>2273.0</ele>
      </trkpt>
      <trkpt lat="44.30802" lon="6.84719">
        <time>2023-04-10T07:20:16+00:00</time>
        <ele>2273.0</ele>
      </trkpt>
      <trkpt lat="44.30803" lon="6.84717">
        <time>2023-04-10T07:20:17+00:00</time>
        <ele>2273.0</ele>
      </trkpt>
      <trkpt lat="44.30803" lon="6.84717">
        <time>2023-04-10T07:20:18+00:00</time>
        <ele>2273.0</ele>
      </trkpt>
      <trkpt lat="44.30804" lon="6.84713">
        <time>2023-04-10T07:20:21+00:00</time>
        <ele>2273.0</ele>
      </trkpt>
      <trkpt lat="44.30804" lon="6.84713">
        <time>2023-04-10T07:20:22+00:00</time>
        <ele>2273.0</ele>
      </trkpt>
      <trkpt lat="44.30804" lon="6.84713">
        <time>2023-04-10T07:20:23+00:00</time>
        <ele>2273.0</ele>
      </trkpt>
      <trkpt lat="44.30805" lon="6.8471">
        <time>2023-04-10T07:20:24+00:00</time>
        <ele>2274.0</ele>
      </trkpt>
      <trkpt lat="44.30805" lon="6.8471">
        <time>2023-04-10T07:20:25+00:00</time>
        <ele>2274.0</ele>
      </trkpt>
      <trkpt lat="44.30805" lon="6.8471">
        <time>2023-04-10T07:20:26+00:00</time>
        <ele>2274.0</ele>
      </trkpt>
      <trkpt lat="44.30805" lon="6.84707">
        <time>2023-04-10T07:20:27+00:00</time>
        <ele>2274.0</ele>
      </trkpt>
      <trkpt lat="44.30805" lon="6.84707">
        <time>2023-04-10T07:20:28+00:00</time>
        <ele>2274.0</ele>
      </trkpt>
      <trkpt lat="44.30805" lon="6.84707">
        <time>2023-04-10T07:20:29+00:00</time>
        <ele>2274.0</ele>
      </trkpt>
      <trkpt lat="44.30805" lon="6.84705">
        <time>2023-04-10T07:20:30+00:00</time>
        <ele>2275.0</ele>
      </trkpt>
      <trkpt lat="44.30805" lon="6.84705">
        <time>2023-04-10T07:20:31+00:00</time>
        <ele>2275.0</ele>
      </trkpt>
      <trkpt lat="44.30805" lon="6.84702">
        <time>2023-04-10T07:20:32+00:00</time>
        <ele>2275.0</ele>
      </trkpt>
      <trkpt lat="44.30805" lon="6.84702">
        <time>2023-04-10T07:20:33+00:00</time>
        <ele>2275.0</ele>
      </trkpt>
      <trkpt lat="44.30806" lon="6.847">
        <time>2023-04-10T07:20:34+00:00</time>
        <ele>2275.0</ele>
      </trkpt>
      <trkpt lat="44.30806" lon="6.847">
        <time>2023-04-10T07:20:35+00:00</time>
        <ele>2275.0</ele>
      </trkpt>
      <trkpt lat="44.30806" lon="6.847">
        <time>2023-04-10T07:20:36+00:00</time>
        <ele>2275.0</ele>
      </trkpt>
      <trkpt lat="44.30807" lon="6.84696">
        <time>2023-04-10T07:20:37+00:00</time>
        <ele>2276.0</ele>
      </trkpt>
      <trkpt lat="44.30807" lon="6.84696">
        <time>2023-04-10T07:20:38+00:00</time>
        <ele>2276.0</ele>
      </trkpt>
      <trkpt lat="44.30808" lon="6.84693">
        <time>2023-04-10T07:20:39+00:00</time>
        <ele>2276.0</ele>
      </trkpt>
      <trkpt lat="44.30808" lon="6.84693">
        <time>2023-04-10T07:20:40+00:00</time>
        <ele>2276.0</ele>
      </trkpt>
      <trkpt lat="44.30808" lon="6.8469">
        <time>2023-04-10T07:20:41+00:00</time>
        <ele>2276.0</ele>
      </trkpt>
      <trkpt lat="44.30808" lon="6.8469">
        <time>2023-04-10T07:20:42+00:00</time>
        <ele>2276.0</ele>
      </trkpt>
      <trkpt lat="44.30808" lon="6.8469">
        <time>2023-04-10T07:20:43+00:00</time>
        <ele>2276.0</ele>
      </trkpt>
      <trkpt lat="44.30808" lon="6.8469">
        <time>2023-04-10T07:20:44+00:00</time>
        <ele>2276.0</ele>
      </trkpt>
      <trkpt lat="44.30809" lon="6.84685">
        <time>2023-04-10T07:20:45+00:00</time>
        <ele>2277.0</ele>
      </trkpt>
      <trkpt lat="44.3081" lon="6.84683">
        <time>2023-04-10T07:20:46+00:00</time>
        <ele>2277.0</ele>
      </trkpt>
      <trkpt lat="44.3081" lon="6.84683">
        <time>2023-04-10T07:20:47+00:00</time>
        <ele>2277.0</ele>
      </trkpt>
      <trkpt lat="44.3081" lon="6.84683">
        <time>2023-04-10T07:20:48+00:00</time>
        <ele>2277.0</ele>
      </trkpt>
      <trkpt lat="44.30811" lon="6.8468">
        <time>2023-04-10T07:20:49+00:00</time>
        <ele>2277.0</ele>
      </trkpt>
      <trkpt lat="44.30811" lon="6.8468">
        <time>2023-04-10T07:20:50+00:00</time>
        <ele>2277.0</ele>
      </trkpt>
      <trkpt lat="44.30811" lon="6.8468">
        <time>2023-04-10T07:20:51+00:00</time>
        <ele>2277.0</ele>
      </trkpt>
      <trkpt lat="44.30811" lon="6.84676">
        <time>2023-04-10T07:20:52+00:00</time>
        <ele>2278.0</ele>
      </trkpt>
      <trkpt lat="44.30811" lon="6.84676">
        <time>2023-04-10T07:20:53+00:00</time>
        <ele>2278.0</ele>
      </trkpt>
      <trkpt lat="44.30812" lon="6.84674">
        <time>2023-04-10T07:20:54+00:00</time>
        <ele>2278.0</ele>
      </trkpt>
      <trkpt lat="44.30812" lon="6.84674">
        <time>2023-04-10T07:20:55+00:00</time>
        <ele>2278.0</ele>
      </trkpt>
      <trkpt lat="44.30812" lon="6.84674">
        <time>2023-04-10T07:20:56+00:00</time>
        <ele>2278.0</ele>
      </trkpt>
      <trkpt lat="44.30813" lon="6.84671">
        <time>2023-04-10T07:20:57+00:00</time>
        <ele>2279.0</ele>
      </trkpt>
      <trkpt lat="44.30813" lon="6.84671">
        <time>2023-04-10T07:20:58+00:00</time>
        <ele>2279.0</ele>
      </trkpt>
      <trkpt lat="44.30813" lon="6.84668">
        <time>2023-04-10T07:20:59+00:00</time>
        <ele>2279.0</ele>
      </trkpt>
      <trkpt lat="44.30813" lon="6.84668">
        <time>2023-04-10T07:21:00+00:00</time>
        <ele>2279.0</ele>
      </trkpt>
      <trkpt lat="44.30813" lon="6.84668">
        <time>2023-04-10T07:21:01+00:00</time>
        <ele>2279.0</ele>
      </trkpt>
      <trkpt lat="44.30813" lon="6.84665">
        <time>2023-04-10T07:21:02+00:00</time>
        <ele>2280.0</ele>
      </trkpt>
      <trkpt lat="44.30813" lon="6.84665">
        <time>2023-04-10T07:21:03+00:00</time>
        <ele>2280.0</ele>
      </trkpt>
      <trkpt lat="44.30814" lon="6.84662">
        <time>2023-04-10T07:21:04+00:00</time>
        <ele>2280.0</ele>
      </trkpt>
      <trkpt lat="44.30814" lon="6.84662">
        <time>2023-04-10T07:21:05+00:00</time>
        <ele>2280.0</ele>
      </trkpt>
      <trkpt lat="44.30814" lon="6.84662">
        <time>2023-04-10T07:21:06+00:00</time>
        <ele>2280.0</ele>
      </trkpt>
      <trkpt lat="44.30814" lon="6.84659">
        <time>2023-04-10T07:21:07+00:00</time>
        <ele>2281.0</ele>
      </trkpt>
      <trkpt lat="44.30814" lon="6.84659">
        <time>2023-04-10T07:21:08+00:00</time>
        <ele>2281.0</ele>
      </trkpt>
      <trkpt lat="44.30814" lon="6.84659">
        <time>2023-04-10T07:21:09+00:00</time>
        <ele>2281.0</ele>
      </trkpt>
      <trkpt lat="44.30814" lon="6.84656">
        <time>2023-04-10T07:21:10+00:00</time>
        <ele>2281.0</ele>
      </trkpt>
      <trkpt lat="44.30814" lon="6.84656">
        <time>2023-04-10T07:21:11+00:00</time>
        <ele>2281.0</ele>
      </trkpt>
      <trkpt lat="44.30814" lon="6.84656">
        <time>2023-04-10T07:21:12+00:00</time>
        <ele>2281.0</ele>
      </trkpt>
      <trkpt lat="44.30814" lon="6.84656">
        <time>2023-04-10T07:21:13+00:00</time>
        <ele>2281.0</ele>
      </trkpt>
      <trkpt lat="44.30815" lon="6.84652">
        <time>2023-04-10T07:21:14+00:00</time>
        <ele>2282.0</ele>
      </trkpt>
      <trkpt lat="44.30815" lon="6.84652">
        <time>2023-04-10T07:21:15+00:00</time>
        <ele>2282.0</ele>
      </trkpt>
      <trkpt lat="44.30815" lon="6.84652">
        <time>2023-04-10T07:21:16+00:00</time>
        <ele>2282.0</ele>
      </trkpt>
      <trkpt lat="44.30815" lon="6.8465">
        <time>2023-04-10T07:21:17+00:00</time>
        <ele>2282.0</ele>
      </trkpt>
      <trkpt lat="44.30815" lon="6.8465">
        <time>2023-04-10T07:21:18+00:00</time>
        <ele>2282.0</ele>
      </trkpt>
      <trkpt lat="44.30815" lon="6.8465">
        <time>2023-04-10T07:21:19+00:00</time>
        <ele>2282.0</ele>
      </trkpt>
      <trkpt lat="44.30813" lon="6.84648">
        <time>2023-04-10T07:21:20+00:00</time>
        <ele>2283.0</ele>
      </trkpt>
      <trkpt lat="44.30813" lon="6.84648">
        <time>2023-04-10T07:21:21+00:00</time>
        <ele>2283.0</ele>
      </trkpt>
      <trkpt lat="44.30813" lon="6.84648">
        <time>2023-04-10T07:21:22+00:00</time>
        <ele>2283.0</ele>
      </trkpt>
      <trkpt lat="44.30813" lon="6.84644">
        <time>2023-04-10T07:21:23+00:00</time>
        <ele>2284.0</ele>
      </trkpt>
      <trkpt lat="44.30813" lon="6.84644">
        <time>2023-04-10T07:21:24+00:00</time>
        <ele>2284.0</ele>
      </trkpt>
      <trkpt lat="44.30813" lon="6.84644">
        <time>2023-04-10T07:21:25+00:00</time>
        <ele>2284.0</ele>
      </trkpt>
      <trkpt lat="44.30814" lon="6.84641">
        <time>2023-04-10T07:21:26+00:00</time>
        <ele>2285.0</ele>
      </trkpt>
      <trkpt lat="44.30814" lon="6.84641">
        <time>2023-04-10T07:21:27+00:00</time>
        <ele>2285.0</ele>
      </trkpt>
      <trkpt lat="44.30814" lon="6.84641">
        <time>2023-04-10T07:21:28+00:00</time>
        <ele>2285.0</ele>
      </trkpt>
      <trkpt lat="44.30814" lon="6.84638">
        <time>2023-04-10T07:21:29+00:00</time>
        <ele>2286.0</ele>
      </trkpt>
      <trkpt lat="44.30814" lon="6.84638">
        <time>2023-04-10T07:21:30+00:00</time>
        <ele>2286.0</ele>
      </trkpt>
      <trkpt lat="44.30814" lon="6.84638">
        <time>2023-04-10T07:21:31+00:00</time>
        <ele>2286.0</ele>
      </trkpt>
      <trkpt lat="44.30814" lon="6.84634">
        <time>2023-04-10T07:21:32+00:00</time>
        <ele>2287.0</ele>
      </trkpt>
      <trkpt lat="44.30814" lon="6.84634">
        <time>2023-04-10T07:21:33+00:00</time>
        <ele>2287.0</ele>
      </trkpt>
      <trkpt lat="44.30814" lon="6.84634">
        <time>2023-04-10T07:21:34+00:00</time>
        <ele>2287.0</ele>
      </trkpt>
      <trkpt lat="44.30815" lon="6.84632">
        <time>2023-04-10T07:21:35+00:00</time>
        <ele>2287.0</ele>
      </trkpt>
      <trkpt lat="44.30815" lon="6.84632">
        <time>2023-04-10T07:21:36+00:00</time>
        <ele>2287.0</ele>
      </trkpt>
      <trkpt lat="44.30815" lon="6.84632">
        <time>2023-04-10T07:21:37+00:00</time>
        <ele>2287.0</ele>
      </trkpt>
      <trkpt lat="44.30815" lon="6.84632">
        <time>2023-04-10T07:21:38+00:00</time>
        <ele>2287.0</ele>
      </trkpt>
      <trkpt lat="44.30815" lon="6.84628">
        <time>2023-04-10T07:21:39+00:00</time>
        <ele>2288.0</ele>
      </trkpt>
      <trkpt lat="44.30815" lon="6.84628">
        <time>2023-04-10T07:21:40+00:00</time>
        <ele>2288.0</ele>
      </trkpt>
      <trkpt lat="44.30815" lon="6.84628">
        <time>2023-04-10T07:21:41+00:00</time>
        <ele>2288.0</ele>
      </trkpt>
      <trkpt lat="44.30815" lon="6.84628">
        <time>2023-04-10T07:21:42+00:00</time>
        <ele>2288.0</ele>
      </trkpt>
      <trkpt lat="44.30814" lon="6.84625">
        <time>2023-04-10T07:21:43+00:00</time>
        <ele>2289.0</ele>
      </trkpt>
      <trkpt lat="44.30814" lon="6.84625">
        <time>2023-04-10T07:21:44+00:00</time>
        <ele>2289.0</ele>
      </trkpt>
      <trkpt lat="44.30814" lon="6.84623">
        <time>2023-04-10T07:21:45+00:00</time>
        <ele>2289.0</ele>
      </trkpt>
      <trkpt lat="44.30814" lon="6.84623">
        <time>2023-04-10T07:21:46+00:00</time>
        <ele>2289.0</ele>
      </trkpt>
      <trkpt lat="44.30814" lon="6.84621">
        <time>2023-04-10T07:21:47+00:00</time>
        <ele>2290.0</ele>
      </trkpt>
      <trkpt lat="44.30814" lon="6.84621">
        <time>2023-04-10T07:21:48+00:00</time>
        <ele>2290.0</ele>
      </trkpt>
      <trkpt lat="44.30814" lon="6.84621">
        <time>2023-04-10T07:21:49+00:00</time>
        <ele>2290.0</ele>
      </trkpt>
      <trkpt lat="44.30814" lon="6.84617">
        <time>2023-04-10T07:21:50+00:00</time>
        <ele>2290.0</ele>
      </trkpt>
      <trkpt lat="44.30814" lon="6.84617">
        <time>2023-04-10T07:21:51+00:00</time>
        <ele>2290.0</ele>
      </trkpt>
      <trkpt lat="44.30814" lon="6.84617">
        <time>2023-04-10T07:21:52+00:00</time>
        <ele>2290.0</ele>
      </trkpt>
      <trkpt lat="44.30813" lon="6.84614">
        <time>2023-04-10T07:21:53+00:00</time>
        <ele>2291.0</ele>
      </trkpt>
      <trkpt lat="44.30813" lon="6.84614">
        <time>2023-04-10T07:21:54+00:00</time>
        <ele>2291.0</ele>
      </trkpt>
      <trkpt lat="44.30813" lon="6.84611">
        <time>2023-04-10T07:21:55+00:00</time>
        <ele>2292.0</ele>
      </trkpt>
      <trkpt lat="44.30813" lon="6.84611">
        <time>2023-04-10T07:21:56+00:00</time>
        <ele>2292.0</ele>
      </trkpt>
      <trkpt lat="44.30813" lon="6.84611">
        <time>2023-04-10T07:21:57+00:00</time>
        <ele>2292.0</ele>
      </trkpt>
      <trkpt lat="44.30813" lon="6.84607">
        <time>2023-04-10T07:21:58+00:00</time>
        <ele>2293.0</ele>
      </trkpt>
      <trkpt lat="44.30813" lon="6.84607">
        <time>2023-04-10T07:21:59+00:00</time>
        <ele>2293.0</ele>
      </trkpt>
      <trkpt lat="44.30813" lon="6.84607">
        <time>2023-04-10T07:22:00+00:00</time>
        <ele>2293.0</ele>
      </trkpt>
      <trkpt lat="44.30814" lon="6.84604">
        <time>2023-04-10T07:22:01+00:00</time>
        <ele>2293.0</ele>
      </trkpt>
      <trkpt lat="44.30814" lon="6.84604">
        <time>2023-04-10T07:22:02+00:00</time>
        <ele>2293.0</ele>
      </trkpt>
      <trkpt lat="44.30814" lon="6.84604">
        <time>2023-04-10T07:22:03+00:00</time>
        <ele>2293.0</ele>
      </trkpt>
      <trkpt lat="44.30814" lon="6.84601">
        <time>2023-04-10T07:22:04+00:00</time>
        <ele>2293.0</ele>
      </trkpt>
      <trkpt lat="44.30814" lon="6.84601">
        <time>2023-04-10T07:22:05+00:00</time>
        <ele>2293.0</ele>
      </trkpt>
      <trkpt lat="44.30814" lon="6.84601">
        <time>2023-04-10T07:22:06+00:00</time>
        <ele>2293.0</ele>
      </trkpt>
      <trkpt lat="44.30814" lon="6.84601">
        <time>2023-04-10T07:22:07+00:00</time>
        <ele>2293.0</ele>
      </trkpt>
      <trkpt lat="44.30816" lon="6.84598">
        <time>2023-04-10T07:22:08+00:00</time>
        <ele>2293.0</ele>
      </trkpt>
      <trkpt lat="44.30816" lon="6.84598">
        <time>2023-04-10T07:22:09+00:00</time>
        <ele>2293.0</ele>
      </trkpt>
      <trkpt lat="44.30816" lon="6.84598">
        <time>2023-04-10T07:22:10+00:00</time>
        <ele>2293.0</ele>
      </trkpt>
      <trkpt lat="44.30816" lon="6.84598">
        <time>2023-04-10T07:22:11+00:00</time>
        <ele>2293.0</ele>
      </trkpt>
      <trkpt lat="44.30817" lon="6.84594">
        <time>2023-04-10T07:22:12+00:00</time>
        <ele>2293.0</ele>
      </trkpt>
      <trkpt lat="44.30817" lon="6.84594">
        <time>2023-04-10T07:22:13+00:00</time>
        <ele>2293.0</ele>
      </trkpt>
      <trkpt lat="44.30817" lon="6.84591">
        <time>2023-04-10T07:22:14+00:00</time>
        <ele>2294.0</ele>
      </trkpt>
      <trkpt lat="44.30817" lon="6.84591">
        <time>2023-04-10T07:22:15+00:00</time>
        <ele>2294.0</ele>
      </trkpt>
      <trkpt lat="44.30817" lon="6.84591">
        <time>2023-04-10T07:22:16+00:00</time>
        <ele>2294.0</ele>
      </trkpt>
      <trkpt lat="44.30817" lon="6.84588">
        <time>2023-04-10T07:22:17+00:00</time>
        <ele>2294.0</ele>
      </trkpt>
      <trkpt lat="44.30817" lon="6.84588">
        <time>2023-04-10T07:22:18+00:00</time>
        <ele>2294.0</ele>
      </trkpt>
      <trkpt lat="44.30818" lon="6.84586">
        <time>2023-04-10T07:22:19+00:00</time>
        <ele>2294.0</ele>
      </trkpt>
      <trkpt lat="44.30818" lon="6.84586">
        <time>2023-04-10T07:22:20+00:00</time>
        <ele>2294.0</ele>
      </trkpt>
      <trkpt lat="44.30818" lon="6.84586">
        <time>2023-04-10T07:22:21+00:00</time>
        <ele>2294.0</ele>
      </trkpt>
      <trkpt lat="44.30818" lon="6.84583">
        <time>2023-04-10T07:22:22+00:00</time>
        <ele>2295.0</ele>
      </trkpt>
      <trkpt lat="44.30818" lon="6.84583">
        <time>2023-04-10T07:22:23+00:00</time>
        <ele>2295.0</ele>
      </trkpt>
      <trkpt lat="44.30819" lon="6.8458">
        <time>2023-04-10T07:22:24+00:00</time>
        <ele>2295.0</ele>
      </trkpt>
      <trkpt lat="44.30819" lon="6.8458">
        <time>2023-04-10T07:22:25+00:00</time>
        <ele>2295.0</ele>
      </trkpt>
      <trkpt lat="44.30819" lon="6.8458">
        <time>2023-04-10T07:22:26+00:00</time>
        <ele>2295.0</ele>
      </trkpt>
      <trkpt lat="44.30819" lon="6.84577">
        <time>2023-04-10T07:22:27+00:00</time>
        <ele>2295.0</ele>
      </trkpt>
      <trkpt lat="44.30819" lon="6.84577">
        <time>2023-04-10T07:22:28+00:00</time>
        <ele>2295.0</ele>
      </trkpt>
      <trkpt lat="44.30819" lon="6.84577">
        <time>2023-04-10T07:22:29+00:00</time>
        <ele>2295.0</ele>
      </trkpt>
      <trkpt lat="44.30819" lon="6.84577">
        <time>2023-04-10T07:22:30+00:00</time>
        <ele>2295.0</ele>
      </trkpt>
      <trkpt lat="44.30819" lon="6.84574">
        <time>2023-04-10T07:22:31+00:00</time>
        <ele>2296.0</ele>
      </trkpt>
      <trkpt lat="44.30819" lon="6.84574">
        <time>2023-04-10T07:22:32+00:00</time>
        <ele>2296.0</ele>
      </trkpt>
      <trkpt lat="44.30819" lon="6.84574">
        <time>2023-04-10T07:22:33+00:00</time>
        <ele>2296.0</ele>
      </trkpt>
      <trkpt lat="44.30819" lon="6.84571">
        <time>2023-04-10T07:22:34+00:00</time>
        <ele>2296.0</ele>
      </trkpt>
      <trkpt lat="44.30819" lon="6.84571">
        <time>2023-04-10T07:22:35+00:00</time>
        <ele>2296.0</ele>
      </trkpt>
      <trkpt lat="44.30819" lon="6.84571">
        <time>2023-04-10T07:22:36+00:00</time>
        <ele>2296.0</ele>
      </trkpt>
      <trkpt lat="44.30819" lon="6.84571">
        <time>2023-04-10T07:22:37+00:00</time>
        <ele>2296.0</ele>
      </trkpt>
      <trkpt lat="44.30819" lon="6.84568">
        <time>2023-04-10T07:22:38+00:00</time>
        <ele>2297.0</ele>
      </trkpt>
      <trkpt lat="44.30819" lon="6.84568">
        <time>2023-04-10T07:22:39+00:00</time>
        <ele>2297.0</ele>
      </trkpt>
      <trkpt lat="44.30819" lon="6.84568">
        <time>2023-04-10T07:22:40+00:00</time>
        <ele>2297.0</ele>
      </trkpt>
      <trkpt lat="44.30819" lon="6.84564">
        <time>2023-04-10T07:22:41+00:00</time>
        <ele>2298.0</ele>
      </trkpt>
      <trkpt lat="44.30819" lon="6.84564">
        <time>2023-04-10T07:22:42+00:00</time>
        <ele>2298.0</ele>
      </trkpt>
      <trkpt lat="44.30819" lon="6.84564">
        <time>2023-04-10T07:22:43+00:00</time>
        <ele>2298.0</ele>
      </trkpt>
      <trkpt lat="44.30819" lon="6.84564">
        <time>2023-04-10T07:22:44+00:00</time>
        <ele>2298.0</ele>
      </trkpt>
      <trkpt lat="44.30819" lon="6.8456">
        <time>2023-04-10T07:22:45+00:00</time>
        <ele>2298.0</ele>
      </trkpt>
      <trkpt lat="44.30819" lon="6.8456">
        <time>2023-04-10T07:22:46+00:00</time>
        <ele>2298.0</ele>
      </trkpt>
      <trkpt lat="44.30819" lon="6.84559">
        <time>2023-04-10T07:22:47+00:00</time>
        <ele>2299.0</ele>
      </trkpt>
      <trkpt lat="44.30819" lon="6.84559">
        <time>2023-04-10T07:22:48+00:00</time>
        <ele>2299.0</ele>
      </trkpt>
      <trkpt lat="44.30819" lon="6.84559">
        <time>2023-04-10T07:22:49+00:00</time>
        <ele>2299.0</ele>
      </trkpt>
      <trkpt lat="44.30819" lon="6.84556">
        <time>2023-04-10T07:22:50+00:00</time>
        <ele>2299.0</ele>
      </trkpt>
      <trkpt lat="44.30819" lon="6.84556">
        <time>2023-04-10T07:22:51+00:00</time>
        <ele>2299.0</ele>
      </trkpt>
      <trkpt lat="44.30819" lon="6.84553">
        <time>2023-04-10T07:22:52+00:00</time>
        <ele>2300.0</ele>
      </trkpt>
      <trkpt lat="44.30819" lon="6.84553">
        <time>2023-04-10T07:22:53+00:00</time>
        <ele>2300.0</ele>
      </trkpt>
      <trkpt lat="44.30819" lon="6.84553">
        <time>2023-04-10T07:22:54+00:00</time>
        <ele>2300.0</ele>
      </trkpt>
      <trkpt lat="44.30819" lon="6.8455">
        <time>2023-04-10T07:22:55+00:00</time>
        <ele>2300.0</ele>
      </trkpt>
      <trkpt lat="44.30819" lon="6.8455">
        <time>2023-04-10T07:22:56+00:00</time>
        <ele>2300.0</ele>
      </trkpt>
      <trkpt lat="44.30819" lon="6.8455">
        <time>2023-04-10T07:22:57+00:00</time>
        <ele>2300.0</ele>
      </trkpt>
      <trkpt lat="44.3082" lon="6.84547">
        <time>2023-04-10T07:22:58+00:00</time>
        <ele>2301.0</ele>
      </trkpt>
      <trkpt lat="44.3082" lon="6.84547">
        <time>2023-04-10T07:22:59+00:00</time>
        <ele>2301.0</ele>
      </trkpt>
      <trkpt lat="44.3082" lon="6.84547">
        <time>2023-04-10T07:23:00+00:00</time>
        <ele>2301.0</ele>
      </trkpt>
      <trkpt lat="44.3082" lon="6.84544">
        <time>2023-04-10T07:23:01+00:00</time>
        <ele>2301.0</ele>
      </trkpt>
      <trkpt lat="44.3082" lon="6.84544">
        <time>2023-04-10T07:23:02+00:00</time>
        <ele>2301.0</ele>
      </trkpt>
      <trkpt lat="44.3082" lon="6.84544">
        <time>2023-04-10T07:23:03+00:00</time>
        <ele>2301.0</ele>
      </trkpt>
      <trkpt lat="44.3082" lon="6.84543">
        <time>2023-04-10T07:23:04+00:00</time>
        <ele>2301.0</ele>
      </trkpt>
      <trkpt lat="44.3082" lon="6.84543">
        <time>2023-04-10T07:23:05+00:00</time>
        <ele>2301.0</ele>
      </trkpt>
      <trkpt lat="44.3082" lon="6.84542">
        <time>2023-04-10T07:23:06+00:00</time>
        <ele>2301.0</ele>
      </trkpt>
      <trkpt lat="44.3082" lon="6.84541">
        <time>2023-04-10T07:23:07+00:00</time>
        <ele>2302.0</ele>
      </trkpt>
      <trkpt lat="44.30821" lon="6.84541">
        <time>2023-04-10T07:23:08+00:00</time>
        <ele>2302.0</ele>
      </trkpt>
      <trkpt lat="44.30822" lon="6.84537">
        <time>2023-04-10T07:23:09+00:00</time>
        <ele>2302.0</ele>
      </trkpt>
      <trkpt lat="44.30822" lon="6.84537">
        <time>2023-04-10T07:23:10+00:00</time>
        <ele>2302.0</ele>
      </trkpt>
      <trkpt lat="44.30822" lon="6.84537">
        <time>2023-04-10T07:23:11+00:00</time>
        <ele>2302.0</ele>
      </trkpt>
      <trkpt lat="44.30822" lon="6.84537">
        <time>2023-04-10T07:23:12+00:00</time>
        <ele>2302.0</ele>
      </trkpt>
      <trkpt lat="44.30822" lon="6.84537">
        <time>2023-04-10T07:23:13+00:00</time>
        <ele>2302.0</ele>
      </trkpt>
      <trkpt lat="44.30822" lon="6.84537">
        <time>2023-04-10T07:23:14+00:00</time>
        <ele>2302.0</ele>
      </trkpt>
      <trkpt lat="44.30824" lon="6.84532">
        <time>2023-04-10T07:23:15+00:00</time>
        <ele>2303.0</ele>
      </trkpt>
      <trkpt lat="44.30824" lon="6.84532">
        <time>2023-04-10T07:23:16+00:00</time>
        <ele>2303.0</ele>
      </trkpt>
      <trkpt lat="44.30825" lon="6.8453">
        <time>2023-04-10T07:23:17+00:00</time>
        <ele>2303.0</ele>
      </trkpt>
      <trkpt lat="44.30825" lon="6.8453">
        <time>2023-04-10T07:23:18+00:00</time>
        <ele>2303.0</ele>
      </trkpt>
      <trkpt lat="44.30825" lon="6.8453">
        <time>2023-04-10T07:23:19+00:00</time>
        <ele>2303.0</ele>
      </trkpt>
      <trkpt lat="44.30827" lon="6.84527">
        <time>2023-04-10T07:23:20+00:00</time>
        <ele>2303.0</ele>
      </trkpt>
      <trkpt lat="44.30827" lon="6.84527">
        <time>2023-04-10T07:23:21+00:00</time>
        <ele>2303.0</ele>
      </trkpt>
      <trkpt lat="44.30827" lon="6.84527">
        <time>2023-04-10T07:23:22+00:00</time>
        <ele>2303.0</ele>
      </trkpt>
      <trkpt lat="44.30829" lon="6.84524">
        <time>2023-04-10T07:23:23+00:00</time>
        <ele>2304.0</ele>
      </trkpt>
      <trkpt lat="44.30829" lon="6.84524">
        <time>2023-04-10T07:23:24+00:00</time>
        <ele>2304.0</ele>
      </trkpt>
      <trkpt lat="44.3083" lon="6.84522">
        <time>2023-04-10T07:23:25+00:00</time>
        <ele>2304.0</ele>
      </trkpt>
      <trkpt lat="44.3083" lon="6.84522">
        <time>2023-04-10T07:23:26+00:00</time>
        <ele>2304.0</ele>
      </trkpt>
      <trkpt lat="44.3083" lon="6.84522">
        <time>2023-04-10T07:23:27+00:00</time>
        <ele>2304.0</ele>
      </trkpt>
      <trkpt lat="44.3083" lon="6.84522">
        <time>2023-04-10T07:23:28+00:00</time>
        <ele>2304.0</ele>
      </trkpt>
      <trkpt lat="44.30831" lon="6.84518">
        <time>2023-04-10T07:23:29+00:00</time>
        <ele>2305.0</ele>
      </trkpt>
      <trkpt lat="44.30831" lon="6.84518">
        <time>2023-04-10T07:23:30+00:00</time>
        <ele>2305.0</ele>
      </trkpt>
      <trkpt lat="44.30832" lon="6.84516">
        <time>2023-04-10T07:23:31+00:00</time>
        <ele>2305.0</ele>
      </trkpt>
      <trkpt lat="44.30832" lon="6.84516">
        <time>2023-04-10T07:23:32+00:00</time>
        <ele>2305.0</ele>
      </trkpt>
      <trkpt lat="44.30834" lon="6.84515">
        <time>2023-04-10T07:23:33+00:00</time>
        <ele>2305.0</ele>
      </trkpt>
      <trkpt lat="44.30834" lon="6.84515">
        <time>2023-04-10T07:23:34+00:00</time>
        <ele>2305.0</ele>
      </trkpt>
      <trkpt lat="44.30834" lon="6.84515">
        <time>2023-04-10T07:23:35+00:00</time>
        <ele>2305.0</ele>
      </trkpt>
      <trkpt lat="44.30835" lon="6.84511">
        <time>2023-04-10T07:23:36+00:00</time>
        <ele>2305.0</ele>
      </trkpt>
      <trkpt lat="44.30835" lon="6.84511">
        <time>2023-04-10T07:23:37+00:00</time>
        <ele>2305.0</ele>
      </trkpt>
      <trkpt lat="44.30835" lon="6.84511">
        <time>2023-04-10T07:23:38+00:00</time>
        <ele>2305.0</ele>
      </trkpt>
      <trkpt lat="44.30836" lon="6.84509">
        <time>2023-04-10T07:23:39+00:00</time>
        <ele>2306.0</ele>
      </trkpt>
      <trkpt lat="44.30836" lon="6.84509">
        <time>2023-04-10T07:23:40+00:00</time>
        <ele>2306.0</ele>
      </trkpt>
      <trkpt lat="44.30837" lon="6.84506">
        <time>2023-04-10T07:23:41+00:00</time>
        <ele>2306.0</ele>
      </trkpt>
      <trkpt lat="44.30837" lon="6.84506">
        <time>2023-04-10T07:23:42+00:00</time>
        <ele>2306.0</ele>
      </trkpt>
      <trkpt lat="44.30837" lon="6.84506">
        <time>2023-04-10T07:23:43+00:00</time>
        <ele>2306.0</ele>
      </trkpt>
      <trkpt lat="44.30837" lon="6.84506">
        <time>2023-04-10T07:23:44+00:00</time>
        <ele>2306.0</ele>
      </trkpt>
      <trkpt lat="44.30837" lon="6.84506">
        <time>2023-04-10T07:23:45+00:00</time>
        <ele>2306.0</ele>
      </trkpt>
      <trkpt lat="44.30836" lon="6.84504">
        <time>2023-04-10T07:23:46+00:00</time>
        <ele>2306.0</ele>
      </trkpt>
      <trkpt lat="44.30836" lon="6.84504">
        <time>2023-04-10T07:23:47+00:00</time>
        <ele>2306.0</ele>
      </trkpt>
      <trkpt lat="44.30836" lon="6.84504">
        <time>2023-04-10T07:23:48+00:00</time>
        <ele>2306.0</ele>
      </trkpt>
      <trkpt lat="44.30836" lon="6.84504">
        <time>2023-04-10T07:23:49+00:00</time>
        <ele>2306.0</ele>
      </trkpt>
      <trkpt lat="44.30836" lon="6.845">
        <time>2023-04-10T07:23:50+00:00</time>
        <ele>2307.0</ele>
      </trkpt>
      <trkpt lat="44.30836" lon="6.845">
        <time>2023-04-10T07:23:51+00:00</time>
        <ele>2307.0</ele>
      </trkpt>
      <trkpt lat="44.30836" lon="6.845">
        <time>2023-04-10T07:23:52+00:00</time>
        <ele>2307.0</ele>
      </trkpt>
      <trkpt lat="44.30837" lon="6.84498">
        <time>2023-04-10T07:23:53+00:00</time>
        <ele>2307.0</ele>
      </trkpt>
      <trkpt lat="44.30837" lon="6.84498">
        <time>2023-04-10T07:23:54+00:00</time>
        <ele>2307.0</ele>
      </trkpt>
      <trkpt lat="44.30837" lon="6.84498">
        <time>2023-04-10T07:23:55+00:00</time>
        <ele>2307.0</ele>
      </trkpt>
      <trkpt lat="44.30837" lon="6.84494">
        <time>2023-04-10T07:23:56+00:00</time>
        <ele>2308.0</ele>
      </trkpt>
      <trkpt lat="44.30837" lon="6.84494">
        <time>2023-04-10T07:23:57+00:00</time>
        <ele>2308.0</ele>
      </trkpt>
      <trkpt lat="44.30837" lon="6.84494">
        <time>2023-04-10T07:23:58+00:00</time>
        <ele>2308.0</ele>
      </trkpt>
      <trkpt lat="44.30837" lon="6.84491">
        <time>2023-04-10T07:23:59+00:00</time>
        <ele>2308.0</ele>
      </trkpt>
      <trkpt lat="44.30837" lon="6.84491">
        <time>2023-04-10T07:24:00+00:00</time>
        <ele>2308.0</ele>
      </trkpt>
      <trkpt lat="44.30837" lon="6.84491">
        <time>2023-04-10T07:24:01+00:00</time>
        <ele>2308.0</ele>
      </trkpt>
      <trkpt lat="44.30838" lon="6.84488">
        <time>2023-04-10T07:24:02+00:00</time>
        <ele>2308.0</ele>
      </trkpt>
      <trkpt lat="44.30838" lon="6.84488">
        <time>2023-04-10T07:24:03+00:00</time>
        <ele>2308.0</ele>
      </trkpt>
      <trkpt lat="44.30838" lon="6.84488">
        <time>2023-04-10T07:24:04+00:00</time>
        <ele>2308.0</ele>
      </trkpt>
      <trkpt lat="44.30837" lon="6.84485">
        <time>2023-04-10T07:24:05+00:00</time>
        <ele>2308.0</ele>
      </trkpt>
      <trkpt lat="44.30837" lon="6.84485">
        <time>2023-04-10T07:24:06+00:00</time>
        <ele>2308.0</ele>
      </trkpt>
      <trkpt lat="44.30837" lon="6.84485">
        <time>2023-04-10T07:24:07+00:00</time>
        <ele>2308.0</ele>
      </trkpt>
      <trkpt lat="44.30837" lon="6.84485">
        <time>2023-04-10T07:24:08+00:00</time>
        <ele>2308.0</ele>
      </trkpt>
      <trkpt lat="44.30837" lon="6.84481">
        <time>2023-04-10T07:24:09+00:00</time>
        <ele>2309.0</ele>
      </trkpt>
      <trkpt lat="44.30837" lon="6.84481">
        <time>2023-04-10T07:24:10+00:00</time>
        <ele>2309.0</ele>
      </trkpt>
      <trkpt lat="44.30838" lon="6.84479">
        <time>2023-04-10T07:24:11+00:00</time>
        <ele>2309.0</ele>
      </trkpt>
      <trkpt lat="44.30838" lon="6.84479">
        <time>2023-04-10T07:24:12+00:00</time>
        <ele>2309.0</ele>
      </trkpt>
      <trkpt lat="44.30838" lon="6.84476">
        <time>2023-04-10T07:24:13+00:00</time>
        <ele>2309.0</ele>
      </trkpt>
      <trkpt lat="44.30838" lon="6.84476">
        <time>2023-04-10T07:24:14+00:00</time>
        <ele>2309.0</ele>
      </trkpt>
      <trkpt lat="44.30838" lon="6.84473">
        <time>2023-04-10T07:24:15+00:00</time>
        <ele>2310.0</ele>
      </trkpt>
      <trkpt lat="44.30838" lon="6.84473">
        <time>2023-04-10T07:24:16+00:00</time>
        <ele>2310.0</ele>
      </trkpt>
      <trkpt lat="44.30838" lon="6.84473">
        <time>2023-04-10T07:24:17+00:00</time>
        <ele>2310.0</ele>
      </trkpt>
      <trkpt lat="44.30838" lon="6.84473">
        <time>2023-04-10T07:24:18+00:00</time>
        <ele>2310.0</ele>
      </trkpt>
      <trkpt lat="44.30837" lon="6.84469">
        <time>2023-04-10T07:24:19+00:00</time>
        <ele>2310.0</ele>
      </trkpt>
      <trkpt lat="44.30837" lon="6.84469">
        <time>2023-04-10T07:24:20+00:00</time>
        <ele>2310.0</ele>
      </trkpt>
      <trkpt lat="44.30837" lon="6.84467">
        <time>2023-04-10T07:24:21+00:00</time>
        <ele>2310.0</ele>
      </trkpt>
      <trkpt lat="44.30837" lon="6.84467">
        <time>2023-04-10T07:24:22+00:00</time>
        <ele>2310.0</ele>
      </trkpt>
      <trkpt lat="44.30837" lon="6.84464">
        <time>2023-04-10T07:24:23+00:00</time>
        <ele>2311.0</ele>
      </trkpt>
      <trkpt lat="44.30837" lon="6.84464">
        <time>2023-04-10T07:24:24+00:00</time>
        <ele>2311.0</ele>
      </trkpt>
      <trkpt lat="44.30837" lon="6.84462">
        <time>2023-04-10T07:24:25+00:00</time>
        <ele>2311.0</ele>
      </trkpt>
      <trkpt lat="44.30837" lon="6.84462">
        <time>2023-04-10T07:24:26+00:00</time>
        <ele>2311.0</ele>
      </trkpt>
      <trkpt lat="44.30837" lon="6.84462">
        <time>2023-04-10T07:24:27+00:00</time>
        <ele>2311.0</ele>
      </trkpt>
      <trkpt lat="44.30837" lon="6.84458">
        <time>2023-04-10T07:24:28+00:00</time>
        <ele>2311.0</ele>
      </trkpt>
      <trkpt lat="44.30837" lon="6.84458">
        <time>2023-04-10T07:24:29+00:00</time>
        <ele>2311.0</ele>
      </trkpt>
      <trkpt lat="44.30837" lon="6.84458">
        <time>2023-04-10T07:24:30+00:00</time>
        <ele>2311.0</ele>
      </trkpt>
      <trkpt lat="44.30837" lon="6.84454">
        <time>2023-04-10T07:24:31+00:00</time>
        <ele>2312.0</ele>
      </trkpt>
      <trkpt lat="44.30837" lon="6.84454">
        <time>2023-04-10T07:24:32+00:00</time>
        <ele>2312.0</ele>
      </trkpt>
      <trkpt lat="44.30837" lon="6.84454">
        <time>2023-04-10T07:24:33+00:00</time>
        <ele>2312.0</ele>
      </trkpt>
      <trkpt lat="44.30837" lon="6.84454">
        <time>2023-04-10T07:24:34+00:00</time>
        <ele>2312.0</ele>
      </trkpt>
      <trkpt lat="44.30838" lon="6.84449">
        <time>2023-04-10T07:24:35+00:00</time>
        <ele>2312.0</ele>
      </trkpt>
      <trkpt lat="44.30838" lon="6.84447">
        <time>2023-04-10T07:24:36+00:00</time>
        <ele>2312.0</ele>
      </trkpt>
      <trkpt lat="44.30838" lon="6.84447">
        <time>2023-04-10T07:24:37+00:00</time>
        <ele>2312.0</ele>
      </trkpt>
      <trkpt lat="44.30838" lon="6.84447">
        <time>2023-04-10T07:24:38+00:00</time>
        <ele>2312.0</ele>
      </trkpt>
      <trkpt lat="44.30838" lon="6.84443">
        <time>2023-04-10T07:24:39+00:00</time>
        <ele>2313.0</ele>
      </trkpt>
      <trkpt lat="44.30838" lon="6.84443">
        <time>2023-04-10T07:24:40+00:00</time>
        <ele>2313.0</ele>
      </trkpt>
      <trkpt lat="44.30838" lon="6.84443">
        <time>2023-04-10T07:24:41+00:00</time>
        <ele>2313.0</ele>
      </trkpt>
      <trkpt lat="44.30838" lon="6.8444">
        <time>2023-04-10T07:24:42+00:00</time>
        <ele>2313.0</ele>
      </trkpt>
      <trkpt lat="44.30838" lon="6.8444">
        <time>2023-04-10T07:24:43+00:00</time>
        <ele>2313.0</ele>
      </trkpt>
      <trkpt lat="44.30838" lon="6.84437">
        <time>2023-04-10T07:24:44+00:00</time>
        <ele>2313.0</ele>
      </trkpt>
      <trkpt lat="44.30838" lon="6.84437">
        <time>2023-04-10T07:24:45+00:00</time>
        <ele>2313.0</ele>
      </trkpt>
      <trkpt lat="44.30838" lon="6.84437">
        <time>2023-04-10T07:24:46+00:00</time>
        <ele>2313.0</ele>
      </trkpt>
      <trkpt lat="44.30838" lon="6.84434">
        <time>2023-04-10T07:24:47+00:00</time>
        <ele>2314.0</ele>
      </trkpt>
      <trkpt lat="44.30838" lon="6.84434">
        <time>2023-04-10T07:24:48+00:00</time>
        <ele>2314.0</ele>
      </trkpt>
      <trkpt lat="44.30838" lon="6.84431">
        <time>2023-04-10T07:24:49+00:00</time>
        <ele>2314.0</ele>
      </trkpt>
      <trkpt lat="44.30838" lon="6.84431">
        <time>2023-04-10T07:24:50+00:00</time>
        <ele>2314.0</ele>
      </trkpt>
      <trkpt lat="44.30837" lon="6.84428">
        <time>2023-04-10T07:24:51+00:00</time>
        <ele>2315.0</ele>
      </trkpt>
      <trkpt lat="44.30837" lon="6.84428">
        <time>2023-04-10T07:24:52+00:00</time>
        <ele>2315.0</ele>
      </trkpt>
      <trkpt lat="44.30837" lon="6.84426">
        <time>2023-04-10T07:24:53+00:00</time>
        <ele>2315.0</ele>
      </trkpt>
      <trkpt lat="44.30837" lon="6.84426">
        <time>2023-04-10T07:24:54+00:00</time>
        <ele>2315.0</ele>
      </trkpt>
      <trkpt lat="44.30837" lon="6.84426">
        <time>2023-04-10T07:24:55+00:00</time>
        <ele>2315.0</ele>
      </trkpt>
      <trkpt lat="44.30837" lon="6.84426">
        <time>2023-04-10T07:24:56+00:00</time>
        <ele>2315.0</ele>
      </trkpt>
      <trkpt lat="44.30837" lon="6.84421">
        <time>2023-04-10T07:24:57+00:00</time>
        <ele>2316.0</ele>
      </trkpt>
      <trkpt lat="44.30837" lon="6.84421">
        <time>2023-04-10T07:24:58+00:00</time>
        <ele>2316.0</ele>
      </trkpt>
      <trkpt lat="44.30837" lon="6.84418">
        <time>2023-04-10T07:24:59+00:00</time>
        <ele>2316.0</ele>
      </trkpt>
      <trkpt lat="44.30837" lon="6.84418">
        <time>2023-04-10T07:25:00+00:00</time>
        <ele>2316.0</ele>
      </trkpt>
      <trkpt lat="44.30836" lon="6.84416">
        <time>2023-04-10T07:25:01+00:00</time>
        <ele>2317.0</ele>
      </trkpt>
      <trkpt lat="44.30836" lon="6.84416">
        <time>2023-04-10T07:25:02+00:00</time>
        <ele>2317.0</ele>
      </trkpt>
      <trkpt lat="44.30836" lon="6.84413">
        <time>2023-04-10T07:25:03+00:00</time>
        <ele>2318.0</ele>
      </trkpt>
      <trkpt lat="44.30836" lon="6.84413">
        <time>2023-04-10T07:25:04+00:00</time>
        <ele>2318.0</ele>
      </trkpt>
      <trkpt lat="44.30836" lon="6.84411">
        <time>2023-04-10T07:25:05+00:00</time>
        <ele>2318.0</ele>
      </trkpt>
      <trkpt lat="44.30836" lon="6.84411">
        <time>2023-04-10T07:25:06+00:00</time>
        <ele>2318.0</ele>
      </trkpt>
      <trkpt lat="44.30836" lon="6.84408">
        <time>2023-04-10T07:25:07+00:00</time>
        <ele>2318.0</ele>
      </trkpt>
      <trkpt lat="44.30836" lon="6.84408">
        <time>2023-04-10T07:25:08+00:00</time>
        <ele>2318.0</ele>
      </trkpt>
      <trkpt lat="44.30837" lon="6.84405">
        <time>2023-04-10T07:25:09+00:00</time>
        <ele>2318.0</ele>
      </trkpt>
      <trkpt lat="44.30837" lon="6.84405">
        <time>2023-04-10T07:25:10+00:00</time>
        <ele>2318.0</ele>
      </trkpt>
      <trkpt lat="44.30837" lon="6.84405">
        <time>2023-04-10T07:25:11+00:00</time>
        <ele>2318.0</ele>
      </trkpt>
      <trkpt lat="44.30837" lon="6.84401">
        <time>2023-04-10T07:25:12+00:00</time>
        <ele>2319.0</ele>
      </trkpt>
      <trkpt lat="44.30837" lon="6.84401">
        <time>2023-04-10T07:25:13+00:00</time>
        <ele>2319.0</ele>
      </trkpt>
      <trkpt lat="44.30837" lon="6.84401">
        <time>2023-04-10T07:25:14+00:00</time>
        <ele>2319.0</ele>
      </trkpt>
      <trkpt lat="44.30836" lon="6.84398">
        <time>2023-04-10T07:25:15+00:00</time>
        <ele>2320.0</ele>
      </trkpt>
      <trkpt lat="44.30836" lon="6.84398">
        <time>2023-04-10T07:25:16+00:00</time>
        <ele>2320.0</ele>
      </trkpt>
      <trkpt lat="44.30835" lon="6.84395">
        <time>2023-04-10T07:25:17+00:00</time>
        <ele>2320.0</ele>
      </trkpt>
      <trkpt lat="44.30835" lon="6.84395">
        <time>2023-04-10T07:25:18+00:00</time>
        <ele>2320.0</ele>
      </trkpt>
      <trkpt lat="44.30837" lon="6.84393">
        <time>2023-04-10T07:25:19+00:00</time>
        <ele>2320.0</ele>
      </trkpt>
      <trkpt lat="44.30837" lon="6.84393">
        <time>2023-04-10T07:25:20+00:00</time>
        <ele>2320.0</ele>
      </trkpt>
      <trkpt lat="44.30834" lon="6.84391">
        <time>2023-04-10T07:25:21+00:00</time>
        <ele>2321.0</ele>
      </trkpt>
      <trkpt lat="44.30834" lon="6.84391">
        <time>2023-04-10T07:25:22+00:00</time>
        <ele>2321.0</ele>
      </trkpt>
      <trkpt lat="44.30835" lon="6.84389">
        <time>2023-04-10T07:25:23+00:00</time>
        <ele>2321.0</ele>
      </trkpt>
      <trkpt lat="44.30835" lon="6.84389">
        <time>2023-04-10T07:25:24+00:00</time>
        <ele>2321.0</ele>
      </trkpt>
      <trkpt lat="44.30833" lon="6.84386">
        <time>2023-04-10T07:25:25+00:00</time>
        <ele>2322.0</ele>
      </trkpt>
      <trkpt lat="44.30833" lon="6.84386">
        <time>2023-04-10T07:25:26+00:00</time>
        <ele>2322.0</ele>
      </trkpt>
      <trkpt lat="44.30833" lon="6.84386">
        <time>2023-04-10T07:25:27+00:00</time>
        <ele>2322.0</ele>
      </trkpt>
      <trkpt lat="44.30832" lon="6.84383">
        <time>2023-04-10T07:25:28+00:00</time>
        <ele>2323.0</ele>
      </trkpt>
      <trkpt lat="44.30832" lon="6.84383">
        <time>2023-04-10T07:25:29+00:00</time>
        <ele>2323.0</ele>
      </trkpt>
      <trkpt lat="44.30832" lon="6.84383">
        <time>2023-04-10T07:25:30+00:00</time>
        <ele>2323.0</ele>
      </trkpt>
      <trkpt lat="44.30831" lon="6.8438">
        <time>2023-04-10T07:25:31+00:00</time>
        <ele>2323.0</ele>
      </trkpt>
      <trkpt lat="44.30831" lon="6.8438">
        <time>2023-04-10T07:25:32+00:00</time>
        <ele>2323.0</ele>
      </trkpt>
      <trkpt lat="44.30831" lon="6.8438">
        <time>2023-04-10T07:25:33+00:00</time>
        <ele>2323.0</ele>
      </trkpt>
      <trkpt lat="44.3083" lon="6.84377">
        <time>2023-04-10T07:25:34+00:00</time>
        <ele>2324.0</ele>
      </trkpt>
      <trkpt lat="44.3083" lon="6.84377">
        <time>2023-04-10T07:25:35+00:00</time>
        <ele>2324.0</ele>
      </trkpt>
      <trkpt lat="44.30829" lon="6.84375">
        <time>2023-04-10T07:25:36+00:00</time>
        <ele>2324.0</ele>
      </trkpt>
      <trkpt lat="44.30829" lon="6.84375">
        <time>2023-04-10T07:25:37+00:00</time>
        <ele>2324.0</ele>
      </trkpt>
      <trkpt lat="44.30829" lon="6.84375">
        <time>2023-04-10T07:25:38+00:00</time>
        <ele>2324.0</ele>
      </trkpt>
      <trkpt lat="44.30827" lon="6.84372">
        <time>2023-04-10T07:25:39+00:00</time>
        <ele>2325.0</ele>
      </trkpt>
      <trkpt lat="44.30827" lon="6.84372">
        <time>2023-04-10T07:25:40+00:00</time>
        <ele>2325.0</ele>
      </trkpt>
      <trkpt lat="44.30827" lon="6.84372">
        <time>2023-04-10T07:25:41+00:00</time>
        <ele>2325.0</ele>
      </trkpt>
      <trkpt lat="44.30827" lon="6.8437">
        <time>2023-04-10T07:25:42+00:00</time>
        <ele>2325.0</ele>
      </trkpt>
      <trkpt lat="44.30827" lon="6.8437">
        <time>2023-04-10T07:25:43+00:00</time>
        <ele>2325.0</ele>
      </trkpt>
      <trkpt lat="44.30825" lon="6.84368">
        <time>2023-04-10T07:25:44+00:00</time>
        <ele>2325.0</ele>
      </trkpt>
      <trkpt lat="44.30825" lon="6.84368">
        <time>2023-04-10T07:25:45+00:00</time>
        <ele>2325.0</ele>
      </trkpt>
      <trkpt lat="44.30825" lon="6.84368">
        <time>2023-04-10T07:25:46+00:00</time>
        <ele>2325.0</ele>
      </trkpt>
      <trkpt lat="44.30825" lon="6.84364">
        <time>2023-04-10T07:25:47+00:00</time>
        <ele>2325.0</ele>
      </trkpt>
      <trkpt lat="44.30825" lon="6.84364">
        <time>2023-04-10T07:25:48+00:00</time>
        <ele>2325.0</ele>
      </trkpt>
      <trkpt lat="44.30825" lon="6.84364">
        <time>2023-04-10T07:25:49+00:00</time>
        <ele>2325.0</ele>
      </trkpt>
      <trkpt lat="44.30823" lon="6.84362">
        <time>2023-04-10T07:25:50+00:00</time>
        <ele>2326.0</ele>
      </trkpt>
      <trkpt lat="44.30823" lon="6.84362">
        <time>2023-04-10T07:25:51+00:00</time>
        <ele>2326.0</ele>
      </trkpt>
      <trkpt lat="44.30823" lon="6.84362">
        <time>2023-04-10T07:25:52+00:00</time>
        <ele>2326.0</ele>
      </trkpt>
      <trkpt lat="44.30821" lon="6.8436">
        <time>2023-04-10T07:25:53+00:00</time>
        <ele>2327.0</ele>
      </trkpt>
      <trkpt lat="44.30821" lon="6.8436">
        <time>2023-04-10T07:25:54+00:00</time>
        <ele>2327.0</ele>
      </trkpt>
      <trkpt lat="44.30821" lon="6.8436">
        <time>2023-04-10T07:25:55+00:00</time>
        <ele>2327.0</ele>
      </trkpt>
      <trkpt lat="44.30821" lon="6.84357">
        <time>2023-04-10T07:25:56+00:00</time>
        <ele>2327.0</ele>
      </trkpt>
      <trkpt lat="44.30821" lon="6.84357">
        <time>2023-04-10T07:25:57+00:00</time>
        <ele>2327.0</ele>
      </trkpt>
      <trkpt lat="44.30819" lon="6.84355">
        <time>2023-04-10T07:25:58+00:00</time>
        <ele>2328.0</ele>
      </trkpt>
      <trkpt lat="44.30819" lon="6.84355">
        <time>2023-04-10T07:25:59+00:00</time>
        <ele>2328.0</ele>
      </trkpt>
      <trkpt lat="44.30819" lon="6.84355">
        <time>2023-04-10T07:26:00+00:00</time>
        <ele>2328.0</ele>
      </trkpt>
      <trkpt lat="44.30819" lon="6.84355">
        <time>2023-04-10T07:26:01+00:00</time>
        <ele>2328.0</ele>
      </trkpt>
      <trkpt lat="44.30817" lon="6.84353">
        <time>2023-04-10T07:26:02+00:00</time>
        <ele>2328.0</ele>
      </trkpt>
      <trkpt lat="44.30817" lon="6.84353">
        <time>2023-04-10T07:26:03+00:00</time>
        <ele>2328.0</ele>
      </trkpt>
      <trkpt lat="44.30817" lon="6.84353">
        <time>2023-04-10T07:26:04+00:00</time>
        <ele>2328.0</ele>
      </trkpt>
      <trkpt lat="44.30817" lon="6.84353">
        <time>2023-04-10T07:26:05+00:00</time>
        <ele>2328.0</ele>
      </trkpt>
      <trkpt lat="44.30815" lon="6.84351">
        <time>2023-04-10T07:26:06+00:00</time>
        <ele>2329.0</ele>
      </trkpt>
      <trkpt lat="44.30815" lon="6.84351">
        <time>2023-04-10T07:26:07+00:00</time>
        <ele>2329.0</ele>
      </trkpt>
      <trkpt lat="44.30815" lon="6.84351">
        <time>2023-04-10T07:26:08+00:00</time>
        <ele>2329.0</ele>
      </trkpt>
      <trkpt lat="44.30814" lon="6.84349">
        <time>2023-04-10T07:26:09+00:00</time>
        <ele>2329.0</ele>
      </trkpt>
      <trkpt lat="44.30814" lon="6.84349">
        <time>2023-04-10T07:26:10+00:00</time>
        <ele>2329.0</ele>
      </trkpt>
      <trkpt lat="44.30812" lon="6.84348">
        <time>2023-04-10T07:26:11+00:00</time>
        <ele>2329.0</ele>
      </trkpt>
      <trkpt lat="44.30812" lon="6.84348">
        <time>2023-04-10T07:26:12+00:00</time>
        <ele>2329.0</ele>
      </trkpt>
      <trkpt lat="44.30812" lon="6.84348">
        <time>2023-04-10T07:26:13+00:00</time>
        <ele>2329.0</ele>
      </trkpt>
      <trkpt lat="44.30812" lon="6.84348">
        <time>2023-04-10T07:26:14+00:00</time>
        <ele>2329.0</ele>
      </trkpt>
      <trkpt lat="44.30812" lon="6.84348">
        <time>2023-04-10T07:26:15+00:00</time>
        <ele>2329.0</ele>
      </trkpt>
      <trkpt lat="44.30811" lon="6.84346">
        <time>2023-04-10T07:26:16+00:00</time>
        <ele>2330.0</ele>
      </trkpt>
      <trkpt lat="44.30811" lon="6.84346">
        <time>2023-04-10T07:26:17+00:00</time>
        <ele>2330.0</ele>
      </trkpt>
      <trkpt lat="44.30811" lon="6.84346">
        <time>2023-04-10T07:26:18+00:00</time>
        <ele>2330.0</ele>
      </trkpt>
      <trkpt lat="44.30811" lon="6.84346">
        <time>2023-04-10T07:26:19+00:00</time>
        <ele>2330.0</ele>
      </trkpt>
      <trkpt lat="44.30811" lon="6.84346">
        <time>2023-04-10T07:26:20+00:00</time>
        <ele>2330.0</ele>
      </trkpt>
      <trkpt lat="44.30811" lon="6.84346">
        <time>2023-04-10T07:26:21+00:00</time>
        <ele>2330.0</ele>
      </trkpt>
      <trkpt lat="44.30811" lon="6.84346">
        <time>2023-04-10T07:26:22+00:00</time>
        <ele>2330.0</ele>
      </trkpt>
      <trkpt lat="44.30811" lon="6.84346">
        <time>2023-04-10T07:26:23+00:00</time>
        <ele>2330.0</ele>
      </trkpt>
      <trkpt lat="44.30811" lon="6.84346">
        <time>2023-04-10T07:26:24+00:00</time>
        <ele>2330.0</ele>
      </trkpt>
      <trkpt lat="44.30811" lon="6.84346">
        <time>2023-04-10T07:26:25+00:00</time>
        <ele>2330.0</ele>
      </trkpt>
      <trkpt lat="44.30811" lon="6.84346">
        <time>2023-04-10T07:26:26+00:00</time>
        <ele>2330.0</ele>
      </trkpt>
      <trkpt lat="44.30811" lon="6.84346">
        <time>2023-04-10T07:26:27+00:00</time>
        <ele>2330.0</ele>
      </trkpt>
      <trkpt lat="44.30811" lon="6.84346">
        <time>2023-04-10T07:26:28+00:00</time>
        <ele>2330.0</ele>
      </trkpt>
      <trkpt lat="44.30811" lon="6.84346">
        <time>2023-04-10T07:26:29+00:00</time>
        <ele>2330.0</ele>
      </trkpt>
      <trkpt lat="44.30811" lon="6.84346">
        <time>2023-04-10T07:26:30+00:00</time>
        <ele>2330.0</ele>
      </trkpt>
      <trkpt lat="44.30811" lon="6.84346">
        <time>2023-04-10T07:26:31+00:00</time>
        <ele>2330.0</ele>
      </trkpt>
      <trkpt lat="44.30811" lon="6.84346">
        <time>2023-04-10T07:26:32+00:00</time>
        <ele>2330.0</ele>
      </trkpt>
      <trkpt lat="44.30811" lon="6.84346">
        <time>2023-04-10T07:26:33+00:00</time>
        <ele>2330.0</ele>
      </trkpt>
      <trkpt lat="44.30811" lon="6.84346">
        <time>2023-04-10T07:26:34+00:00</time>
        <ele>2330.0</ele>
      </trkpt>
      <trkpt lat="44.30811" lon="6.84346">
        <time>2023-04-10T07:26:35+00:00</time>
        <ele>2330.0</ele>
      </trkpt>
      <trkpt lat="44.30811" lon="6.84346">
        <time>2023-04-10T07:26:36+00:00</time>
        <ele>2330.0</ele>
      </trkpt>
      <trkpt lat="44.30811" lon="6.84346">
        <time>2023-04-10T07:26:37+00:00</time>
        <ele>2330.0</ele>
      </trkpt>
      <trkpt lat="44.30811" lon="6.84346">
        <time>2023-04-10T07:26:38+00:00</time>
        <ele>2330.0</ele>
      </trkpt>
      <trkpt lat="44.30811" lon="6.84346">
        <time>2023-04-10T07:26:39+00:00</time>
        <ele>2330.0</ele>
      </trkpt>
      <trkpt lat="44.30811" lon="6.84346">
        <time>2023-04-10T07:26:40+00:00</time>
        <ele>2330.0</ele>
      </trkpt>
      <trkpt lat="44.30811" lon="6.84346">
        <time>2023-04-10T07:26:41+00:00</time>
        <ele>2330.0</ele>
      </trkpt>
      <trkpt lat="44.30811" lon="6.84346">
        <time>2023-04-10T07:26:42+00:00</time>
        <ele>2330.0</ele>
      </trkpt>
      <trkpt lat="44.30811" lon="6.84346">
        <time>2023-04-10T07:26:43+00:00</time>
        <ele>2330.0</ele>
      </trkpt>
      <trkpt lat="44.30811" lon="6.84346">
        <time>2023-04-10T07:26:44+00:00</time>
        <ele>2330.0</ele>
      </trkpt>
      <trkpt lat="44.30811" lon="6.84346">
        <time>2023-04-10T07:26:45+00:00</time>
        <ele>2330.0</ele>
      </trkpt>
      <trkpt lat="44.30811" lon="6.84346">
        <time>2023-04-10T07:26:46+00:00</time>
        <ele>2330.0</ele>
      </trkpt>
      <trkpt lat="44.30811" lon="6.84346">
        <time>2023-04-10T07:26:47+00:00</time>
        <ele>2330.0</ele>
      </trkpt>
      <trkpt lat="44.30811" lon="6.84346">
        <time>2023-04-10T07:26:48+00:00</time>
        <ele>2330.0</ele>
      </trkpt>
      <trkpt lat="44.30811" lon="6.84346">
        <time>2023-04-10T07:26:49+00:00</time>
        <ele>2330.0</ele>
      </trkpt>
      <trkpt lat="44.30811" lon="6.84346">
        <time>2023-04-10T07:26:50+00:00</time>
        <ele>2330.0</ele>
      </trkpt>
      <trkpt lat="44.30811" lon="6.84346">
        <time>2023-04-10T07:26:51+00:00</time>
        <ele>2330.0</ele>
      </trkpt>
      <trkpt lat="44.30811" lon="6.84346">
        <time>2023-04-10T07:26:52+00:00</time>
        <ele>2330.0</ele>
      </trkpt>
      <trkpt lat="44.30811" lon="6.84346">
        <time>2023-04-10T07:26:53+00:00</time>
        <ele>2330.0</ele>
      </trkpt>
      <trkpt lat="44.30811" lon="6.84346">
        <time>2023-04-10T07:26:54+00:00</time>
        <ele>2330.0</ele>
      </trkpt>
      <trkpt lat="44.30811" lon="6.84346">
        <time>2023-04-10T07:26:55+00:00</time>
        <ele>2330.0</ele>
      </trkpt>
      <trkpt lat="44.30811" lon="6.84346">
        <time>2023-04-10T07:26:56+00:00</time>
        <ele>2330.0</ele>
      </trkpt>
      <trkpt lat="44.30811" lon="6.84346">
        <time>2023-04-10T07:26:57+00:00</time>
        <ele>2330.0</ele>
      </trkpt>
      <trkpt lat="44.30811" lon="6.84346">
        <time>2023-04-10T07:26:58+00:00</time>
        <ele>2330.0</ele>
      </trkpt>
      <trkpt lat="44.30811" lon="6.84346">
        <time>2023-04-10T07:26:59+00:00</time>
        <ele>2330.0</ele>
      </trkpt>
      <trkpt lat="44.30811" lon="6.84346">
        <time>2023-04-10T07:27:00+00:00</time>
        <ele>2330.0</ele>
      </trkpt>
      <trkpt lat="44.30811" lon="6.84346">
        <time>2023-04-10T07:27:01+00:00</time>
        <ele>2330.0</ele>
      </trkpt>
      <trkpt lat="44.30811" lon="6.84346">
        <time>2023-04-10T07:27:02+00:00</time>
        <ele>2330.0</ele>
      </trkpt>
      <trkpt lat="44.30811" lon="6.84346">
        <time>2023-04-10T07:27:03+00:00</time>
        <ele>2330.0</ele>
      </trkpt>
      <trkpt lat="44.30811" lon="6.84346">
        <time>2023-04-10T07:27:04+00:00</time>
        <ele>2330.0</ele>
      </trkpt>
      <trkpt lat="44.30811" lon="6.84346">
        <time>2023-04-10T07:27:05+00:00</time>
        <ele>2330.0</ele>
      </trkpt>
      <trkpt lat="44.30811" lon="6.84346">
        <time>2023-04-10T07:27:06+00:00</time>
        <ele>2330.0</ele>
      </trkpt>
      <trkpt lat="44.30811" lon="6.84346">
        <time>2023-04-10T07:27:07+00:00</time>
        <ele>2330.0</ele>
      </trkpt>
      <trkpt lat="44.30811" lon="6.84346">
        <time>2023-04-10T07:27:08+00:00</time>
        <ele>2330.0</ele>
      </trkpt>
      <trkpt lat="44.30811" lon="6.84346">
        <time>2023-04-10T07:27:09+00:00</time>
        <ele>2330.0</ele>
      </trkpt>
      <trkpt lat="44.30811" lon="6.84346">
        <time>2023-04-10T07:27:10+00:00</time>
        <ele>2330.0</ele>
      </trkpt>
      <trkpt lat="44.30811" lon="6.84346">
        <time>2023-04-10T07:27:11+00:00</time>
        <ele>2330.0</ele>
      </trkpt>
      <trkpt lat="44.30811" lon="6.84346">
        <time>2023-04-10T07:27:12+00:00</time>
        <ele>2330.0</ele>
      </trkpt>
      <trkpt lat="44.30811" lon="6.84346">
        <time>2023-04-10T07:27:13+00:00</time>
        <ele>2330.0</ele>
      </trkpt>
      <trkpt lat="44.30811" lon="6.84346">
        <time>2023-04-10T07:27:14+00:00</time>
        <ele>2330.0</ele>
      </trkpt>
      <trkpt lat="44.30811" lon="6.84346">
        <time>2023-04-10T07:27:15+00:00</time>
        <ele>2330.0</ele>
      </trkpt>
      <trkpt lat="44.30811" lon="6.84346">
        <time>2023-04-10T07:27:16+00:00</time>
        <ele>2330.0</ele>
      </trkpt>
      <trkpt lat="44.30811" lon="6.84346">
        <time>2023-04-10T07:27:17+00:00</time>
        <ele>2330.0</ele>
      </trkpt>
      <trkpt lat="44.30811" lon="6.84346">
        <time>2023-04-10T07:27:18+00:00</time>
        <ele>2330.0</ele>
      </trkpt>
      <trkpt lat="44.30811" lon="6.84346">
        <time>2023-04-10T07:27:19+00:00</time>
        <ele>2330.0</ele>
      </trkpt>
      <trkpt lat="44.30811" lon="6.84346">
        <time>2023-04-10T07:27:20+00:00</time>
        <ele>2330.0</ele>
      </trkpt>
      <trkpt lat="44.30811" lon="6.84346">
        <time>2023-04-10T07:27:21+00:00</time>
        <ele>2330.0</ele>
      </trkpt>
      <trkpt lat="44.30811" lon="6.84346">
        <time>2023-04-10T07:27:22+00:00</time>
        <ele>2330.0</ele>
      </trkpt>
      <trkpt lat="44.30811" lon="6.84346">
        <time>2023-04-10T07:27:23+00:00</time>
        <ele>2330.0</ele>
      </trkpt>
      <trkpt lat="44.30811" lon="6.84346">
        <time>2023-04-10T07:27:24+00:00</time>
        <ele>2330.0</ele>
      </trkpt>
      <trkpt lat="44.30811" lon="6.84346">
        <time>2023-04-10T07:27:25+00:00</time>
        <ele>2330.0</ele>
      </trkpt>
      <trkpt lat="44.30811" lon="6.84346">
        <time>2023-04-10T07:27:26+00:00</time>
        <ele>2330.0</ele>
      </trkpt>
      <trkpt lat="44.30811" lon="6.84346">
        <time>2023-04-10T07:27:27+00:00</time>
        <ele>2330.0</ele>
      </trkpt>
      <trkpt lat="44.30811" lon="6.84346">
        <time>2023-04-10T07:27:28+00:00</time>
        <ele>2330.0</ele>
      </trkpt>
      <trkpt lat="44.30811" lon="6.84346">
        <time>2023-04-10T07:27:29+00:00</time>
        <ele>2330.0</ele>
      </trkpt>
      <trkpt lat="44.30811" lon="6.84346">
        <time>2023-04-10T07:27:30+00:00</time>
        <ele>2330.0</ele>
      </trkpt>
      <trkpt lat="44.30811" lon="6.84346">
        <time>2023-04-10T07:27:31+00:00</time>
        <ele>2330.0</ele>
      </trkpt>
      <trkpt lat="44.30811" lon="6.84346">
        <time>2023-04-10T07:27:32+00:00</time>
        <ele>2330.0</ele>
      </trkpt>
      <trkpt lat="44.30811" lon="6.84346">
        <time>2023-04-10T07:27:33+00:00</time>
        <ele>2330.0</ele>
      </trkpt>
      <trkpt lat="44.30811" lon="6.84346">
        <time>2023-04-10T07:27:34+00:00</time>
        <ele>2330.0</ele>
      </trkpt>
      <trkpt lat="44.30811" lon="6.84346">
        <time>2023-04-10T07:27:35+00:00</time>
        <ele>2330.0</ele>
      </trkpt>
      <trkpt lat="44.30811" lon="6.84346">
        <time>2023-04-10T07:27:36+00:00</time>
        <ele>2330.0</ele>
      </trkpt>
      <trkpt lat="44.30811" lon="6.84346">
        <time>2023-04-10T07:27:37+00:00</time>
        <ele>2330.0</ele>
      </trkpt>
      <trkpt lat="44.30811" lon="6.84346">
        <time>2023-04-10T07:27:38+00:00</time>
        <ele>2330.0</ele>
      </trkpt>
      <trkpt lat="44.30811" lon="6.84346">
        <time>2023-04-10T07:27:39+00:00</time>
        <ele>2330.0</ele>
      </trkpt>
      <trkpt lat="44.30811" lon="6.84346">
        <time>2023-04-10T07:27:40+00:00</time>
        <ele>2330.0</ele>
      </trkpt>
      <trkpt lat="44.30811" lon="6.84346">
        <time>2023-04-10T07:27:41+00:00</time>
        <ele>2330.0</ele>
      </trkpt>
      <trkpt lat="44.30811" lon="6.84346">
        <time>2023-04-10T07:27:42+00:00</time>
        <ele>2330.0</ele>
      </trkpt>
      <trkpt lat="44.30811" lon="6.84346">
        <time>2023-04-10T07:27:43+00:00</time>
        <ele>2330.0</ele>
      </trkpt>
      <trkpt lat="44.30811" lon="6.84346">
        <time>2023-04-10T07:27:44+00:00</time>
        <ele>2330.0</ele>
      </trkpt>
      <trkpt lat="44.30811" lon="6.84346">
        <time>2023-04-10T07:27:45+00:00</time>
        <ele>2330.0</ele>
      </trkpt>
      <trkpt lat="44.30811" lon="6.84346">
        <time>2023-04-10T07:27:46+00:00</time>
        <ele>2330.0</ele>
      </trkpt>
      <trkpt lat="44.30811" lon="6.84346">
        <time>2023-04-10T07:27:47+00:00</time>
        <ele>2330.0</ele>
      </trkpt>
      <trkpt lat="44.30811" lon="6.84346">
        <time>2023-04-10T07:27:48+00:00</time>
        <ele>2330.0</ele>
      </trkpt>
      <trkpt lat="44.30811" lon="6.84346">
        <time>2023-04-10T07:27:49+00:00</time>
        <ele>2330.0</ele>
      </trkpt>
      <trkpt lat="44.30811" lon="6.84346">
        <time>2023-04-10T07:27:50+00:00</time>
        <ele>2330.0</ele>
      </trkpt>
      <trkpt lat="44.30809" lon="6.84344">
        <time>2023-04-10T07:27:51+00:00</time>
        <ele>2330.0</ele>
      </trkpt>
      <trkpt lat="44.30809" lon="6.84344">
        <time>2023-04-10T07:27:52+00:00</time>
        <ele>2330.0</ele>
      </trkpt>
      <trkpt lat="44.30807" lon="6.84343">
        <time>2023-04-10T07:27:53+00:00</time>
        <ele>2330.0</ele>
      </trkpt>
      <trkpt lat="44.30807" lon="6.84343">
        <time>2023-04-10T07:27:54+00:00</time>
        <ele>2330.0</ele>
      </trkpt>
      <trkpt lat="44.30804" lon="6.84341">
        <time>2023-04-10T07:27:55+00:00</time>
        <ele>2330.0</ele>
      </trkpt>
      <trkpt lat="44.30804" lon="6.84341">
        <time>2023-04-10T07:27:56+00:00</time>
        <ele>2330.0</ele>
      </trkpt>
      <trkpt lat="44.30801" lon="6.84341">
        <time>2023-04-10T07:27:57+00:00</time>
        <ele>2331.0</ele>
      </trkpt>
      <trkpt lat="44.30801" lon="6.84341">
        <time>2023-04-10T07:27:58+00:00</time>
        <ele>2331.0</ele>
      </trkpt>
      <trkpt lat="44.30798" lon="6.8434">
        <time>2023-04-10T07:27:59+00:00</time>
        <ele>2331.0</ele>
      </trkpt>
      <trkpt lat="44.30798" lon="6.8434">
        <time>2023-04-10T07:28:00+00:00</time>
        <ele>2331.0</ele>
      </trkpt>
      <trkpt lat="44.30796" lon="6.8434">
        <time>2023-04-10T07:28:01+00:00</time>
        <ele>2332.0</ele>
      </trkpt>
      <trkpt lat="44.30796" lon="6.8434">
        <time>2023-04-10T07:28:02+00:00</time>
        <ele>2332.0</ele>
      </trkpt>
      <trkpt lat="44.30796" lon="6.8434">
        <time>2023-04-10T07:28:03+00:00</time>
        <ele>2332.0</ele>
      </trkpt>
      <trkpt lat="44.30794" lon="6.84339">
        <time>2023-04-10T07:28:04+00:00</time>
        <ele>2332.0</ele>
      </trkpt>
      <trkpt lat="44.30794" lon="6.84339">
        <time>2023-04-10T07:28:05+00:00</time>
        <ele>2332.0</ele>
      </trkpt>
      <trkpt lat="44.30792" lon="6.84339">
        <time>2023-04-10T07:28:06+00:00</time>
        <ele>2332.0</ele>
      </trkpt>
      <trkpt lat="44.30792" lon="6.84339">
        <time>2023-04-10T07:28:07+00:00</time>
        <ele>2332.0</ele>
      </trkpt>
      <trkpt lat="44.3079" lon="6.84339">
        <time>2023-04-10T07:28:08+00:00</time>
        <ele>2332.0</ele>
      </trkpt>
      <trkpt lat="44.3079" lon="6.84339">
        <time>2023-04-10T07:28:09+00:00</time>
        <ele>2332.0</ele>
      </trkpt>
      <trkpt lat="44.30788" lon="6.84338">
        <time>2023-04-10T07:28:10+00:00</time>
        <ele>2332.0</ele>
      </trkpt>
      <trkpt lat="44.30788" lon="6.84338">
        <time>2023-04-10T07:28:11+00:00</time>
        <ele>2332.0</ele>
      </trkpt>
      <trkpt lat="44.30785" lon="6.84337">
        <time>2023-04-10T07:28:12+00:00</time>
        <ele>2332.0</ele>
      </trkpt>
      <trkpt lat="44.30785" lon="6.84337">
        <time>2023-04-10T07:28:13+00:00</time>
        <ele>2332.0</ele>
      </trkpt>
      <trkpt lat="44.30783" lon="6.84337">
        <time>2023-04-10T07:28:14+00:00</time>
        <ele>2332.0</ele>
      </trkpt>
      <trkpt lat="44.30783" lon="6.84337">
        <time>2023-04-10T07:28:15+00:00</time>
        <ele>2332.0</ele>
      </trkpt>
      <trkpt lat="44.30783" lon="6.84337">
        <time>2023-04-10T07:28:16+00:00</time>
        <ele>2332.0</ele>
      </trkpt>
      <trkpt lat="44.30783" lon="6.84337">
        <time>2023-04-10T07:28:17+00:00</time>
        <ele>2332.0</ele>
      </trkpt>
      <trkpt lat="44.3078" lon="6.84337">
        <time>2023-04-10T07:28:18+00:00</time>
        <ele>2332.0</ele>
      </trkpt>
      <trkpt lat="44.30779" lon="6.84336">
        <time>2023-04-10T07:28:19+00:00</time>
        <ele>2333.0</ele>
      </trkpt>
      <trkpt lat="44.30779" lon="6.84336">
        <time>2023-04-10T07:28:20+00:00</time>
        <ele>2333.0</ele>
      </trkpt>
      <trkpt lat="44.30779" lon="6.84336">
        <time>2023-04-10T07:28:21+00:00</time>
        <ele>2333.0</ele>
      </trkpt>
      <trkpt lat="44.30775" lon="6.84336">
        <time>2023-04-10T07:28:22+00:00</time>
        <ele>2333.0</ele>
      </trkpt>
      <trkpt lat="44.30773" lon="6.84336">
        <time>2023-04-10T07:28:23+00:00</time>
        <ele>2333.0</ele>
      </trkpt>
      <trkpt lat="44.30773" lon="6.84336">
        <time>2023-04-10T07:28:24+00:00</time>
        <ele>2333.0</ele>
      </trkpt>
      <trkpt lat="44.30771" lon="6.84335">
        <time>2023-04-10T07:28:25+00:00</time>
        <ele>2333.0</ele>
      </trkpt>
      <trkpt lat="44.30771" lon="6.84335">
        <time>2023-04-10T07:28:26+00:00</time>
        <ele>2333.0</ele>
      </trkpt>
      <trkpt lat="44.30768" lon="6.84333">
        <time>2023-04-10T07:28:27+00:00</time>
        <ele>2333.0</ele>
      </trkpt>
      <trkpt lat="44.30768" lon="6.84333">
        <time>2023-04-10T07:28:28+00:00</time>
        <ele>2333.0</ele>
      </trkpt>
      <trkpt lat="44.30765" lon="6.84332">
        <time>2023-04-10T07:28:29+00:00</time>
        <ele>2333.0</ele>
      </trkpt>
      <trkpt lat="44.30765" lon="6.84332">
        <time>2023-04-10T07:28:30+00:00</time>
        <ele>2333.0</ele>
      </trkpt>
      <trkpt lat="44.30765" lon="6.84332">
        <time>2023-04-10T07:28:31+00:00</time>
        <ele>2333.0</ele>
      </trkpt>
      <trkpt lat="44.30764" lon="6.8433">
        <time>2023-04-10T07:28:32+00:00</time>
        <ele>2333.0</ele>
      </trkpt>
      <trkpt lat="44.30764" lon="6.8433">
        <time>2023-04-10T07:28:33+00:00</time>
        <ele>2333.0</ele>
      </trkpt>
      <trkpt lat="44.30764" lon="6.8433">
        <time>2023-04-10T07:28:34+00:00</time>
        <ele>2333.0</ele>
      </trkpt>
      <trkpt lat="44.30761" lon="6.84329">
        <time>2023-04-10T07:28:35+00:00</time>
        <ele>2333.0</ele>
      </trkpt>
      <trkpt lat="44.30761" lon="6.84329">
        <time>2023-04-10T07:28:36+00:00</time>
        <ele>2333.0</ele>
      </trkpt>
      <trkpt lat="44.30759" lon="6.84327">
        <time>2023-04-10T07:28:37+00:00</time>
        <ele>2333.0</ele>
      </trkpt>
      <trkpt lat="44.30759" lon="6.84327">
        <time>2023-04-10T07:28:38+00:00</time>
        <ele>2333.0</ele>
      </trkpt>
      <trkpt lat="44.30757" lon="6.84326">
        <time>2023-04-10T07:28:39+00:00</time>
        <ele>2333.0</ele>
      </trkpt>
      <trkpt lat="44.30757" lon="6.84326">
        <time>2023-04-10T07:28:40+00:00</time>
        <ele>2333.0</ele>
      </trkpt>
      <trkpt lat="44.30757" lon="6.84326">
        <time>2023-04-10T07:28:41+00:00</time>
        <ele>2333.0</ele>
      </trkpt>
      <trkpt lat="44.30755" lon="6.84324">
        <time>2023-04-10T07:28:42+00:00</time>
        <ele>2334.0</ele>
      </trkpt>
      <trkpt lat="44.30755" lon="6.84324">
        <time>2023-04-10T07:28:43+00:00</time>
        <ele>2334.0</ele>
      </trkpt>
      <trkpt lat="44.30754" lon="6.84323">
        <time>2023-04-10T07:28:44+00:00</time>
        <ele>2334.0</ele>
      </trkpt>
      <trkpt lat="44.30754" lon="6.84323">
        <time>2023-04-10T07:28:45+00:00</time>
        <ele>2334.0</ele>
      </trkpt>
      <trkpt lat="44.30752" lon="6.84321">
        <time>2023-04-10T07:28:46+00:00</time>
        <ele>2334.0</ele>
      </trkpt>
      <trkpt lat="44.30752" lon="6.84321">
        <time>2023-04-10T07:28:47+00:00</time>
        <ele>2334.0</ele>
      </trkpt>
      <trkpt lat="44.30752" lon="6.84321">
        <time>2023-04-10T07:28:48+00:00</time>
        <ele>2334.0</ele>
      </trkpt>
      <trkpt lat="44.3075" lon="6.84319">
        <time>2023-04-10T07:28:49+00:00</time>
        <ele>2334.0</ele>
      </trkpt>
      <trkpt lat="44.3075" lon="6.84319">
        <time>2023-04-10T07:28:50+00:00</time>
        <ele>2334.0</ele>
      </trkpt>
      <trkpt lat="44.30748" lon="6.84318">
        <time>2023-04-10T07:28:51+00:00</time>
        <ele>2334.0</ele>
      </trkpt>
      <trkpt lat="44.30748" lon="6.84318">
        <time>2023-04-10T07:28:52+00:00</time>
        <ele>2334.0</ele>
      </trkpt>
      <trkpt lat="44.30748" lon="6.84318">
        <time>2023-04-10T07:28:53+00:00</time>
        <ele>2334.0</ele>
      </trkpt>
      <trkpt lat="44.30746" lon="6.84316">
        <time>2023-04-10T07:28:54+00:00</time>
        <ele>2334.0</ele>
      </trkpt>
      <trkpt lat="44.30746" lon="6.84316">
        <time>2023-04-10T07:28:55+00:00</time>
        <ele>2334.0</ele>
      </trkpt>
      <trkpt lat="44.30746" lon="6.84316">
        <time>2023-04-10T07:28:56+00:00</time>
        <ele>2334.0</ele>
      </trkpt>
      <trkpt lat="44.30743" lon="6.84314">
        <time>2023-04-10T07:28:57+00:00</time>
        <ele>2334.0</ele>
      </trkpt>
      <trkpt lat="44.30743" lon="6.84314">
        <time>2023-04-10T07:28:58+00:00</time>
        <ele>2334.0</ele>
      </trkpt>
      <trkpt lat="44.30741" lon="6.84312">
        <time>2023-04-10T07:28:59+00:00</time>
        <ele>2334.0</ele>
      </trkpt>
      <trkpt lat="44.30741" lon="6.84312">
        <time>2023-04-10T07:29:00+00:00</time>
        <ele>2334.0</ele>
      </trkpt>
      <trkpt lat="44.30741" lon="6.84312">
        <time>2023-04-10T07:29:01+00:00</time>
        <ele>2334.0</ele>
      </trkpt>
      <trkpt lat="44.30738" lon="6.8431">
        <time>2023-04-10T07:29:02+00:00</time>
        <ele>2334.0</ele>
      </trkpt>
      <trkpt lat="44.30737" lon="6.8431">
        <time>2023-04-10T07:29:03+00:00</time>
        <ele>2334.0</ele>
      </trkpt>
      <trkpt lat="44.30737" lon="6.8431">
        <time>2023-04-10T07:29:04+00:00</time>
        <ele>2334.0</ele>
      </trkpt>
      <trkpt lat="44.30735" lon="6.84309">
        <time>2023-04-10T07:29:05+00:00</time>
        <ele>2335.0</ele>
      </trkpt>
      <trkpt lat="44.30735" lon="6.84309">
        <time>2023-04-10T07:29:06+00:00</time>
        <ele>2335.0</ele>
      </trkpt>
      <trkpt lat="44.30733" lon="6.84307">
        <time>2023-04-10T07:29:07+00:00</time>
        <ele>2335.0</ele>
      </trkpt>
      <trkpt lat="44.30733" lon="6.84307">
        <time>2023-04-10T07:29:08+00:00</time>
        <ele>2335.0</ele>
      </trkpt>
      <trkpt lat="44.30733" lon="6.84305">
        <time>2023-04-10T07:29:09+00:00</time>
        <ele>2335.0</ele>
      </trkpt>
      <trkpt lat="44.30733" lon="6.84305">
        <time>2023-04-10T07:29:10+00:00</time>
        <ele>2335.0</ele>
      </trkpt>
      <trkpt lat="44.30733" lon="6.84305">
        <time>2023-04-10T07:29:11+00:00</time>
        <ele>2335.0</ele>
      </trkpt>
      <trkpt lat="44.30731" lon="6.84302">
        <time>2023-04-10T07:29:12+00:00</time>
        <ele>2336.0</ele>
      </trkpt>
      <trkpt lat="44.30731" lon="6.84302">
        <time>2023-04-10T07:29:13+00:00</time>
        <ele>2336.0</ele>
      </trkpt>
      <trkpt lat="44.30731" lon="6.84302">
        <time>2023-04-10T07:29:14+00:00</time>
        <ele>2336.0</ele>
      </trkpt>
      <trkpt lat="44.3073" lon="6.84298">
        <time>2023-04-10T07:29:15+00:00</time>
        <ele>2336.0</ele>
      </trkpt>
      <trkpt lat="44.3073" lon="6.84298">
        <time>2023-04-10T07:29:16+00:00</time>
        <ele>2336.0</ele>
      </trkpt>
      <trkpt lat="44.30729" lon="6.84296">
        <time>2023-04-10T07:29:17+00:00</time>
        <ele>2337.0</ele>
      </trkpt>
      <trkpt lat="44.30729" lon="6.84296">
        <time>2023-04-10T07:29:18+00:00</time>
        <ele>2337.0</ele>
      </trkpt>
      <trkpt lat="44.30728" lon="6.84294">
        <time>2023-04-10T07:29:19+00:00</time>
        <ele>2337.0</ele>
      </trkpt>
      <trkpt lat="44.30728" lon="6.84294">
        <time>2023-04-10T07:29:20+00:00</time>
        <ele>2337.0</ele>
      </trkpt>
      <trkpt lat="44.30727" lon="6.84291">
        <time>2023-04-10T07:29:21+00:00</time>
        <ele>2337.0</ele>
      </trkpt>
      <trkpt lat="44.30727" lon="6.84291">
        <time>2023-04-10T07:29:22+00:00</time>
        <ele>2337.0</ele>
      </trkpt>
      <trkpt lat="44.30727" lon="6.84291">
        <time>2023-04-10T07:29:23+00:00</time>
        <ele>2337.0</ele>
      </trkpt>
      <trkpt lat="44.30726" lon="6.84289">
        <time>2023-04-10T07:29:24+00:00</time>
        <ele>2338.0</ele>
      </trkpt>
      <trkpt lat="44.30726" lon="6.84289">
        <time>2023-04-10T07:29:25+00:00</time>
        <ele>2338.0</ele>
      </trkpt>
      <trkpt lat="44.30726" lon="6.84289">
        <time>2023-04-10T07:29:26+00:00</time>
        <ele>2338.0</ele>
      </trkpt>
      <trkpt lat="44.30724" lon="6.84287">
        <time>2023-04-10T07:29:27+00:00</time>
        <ele>2339.0</ele>
      </trkpt>
      <trkpt lat="44.30724" lon="6.84287">
        <time>2023-04-10T07:29:28+00:00</time>
        <ele>2339.0</ele>
      </trkpt>
      <trkpt lat="44.30724" lon="6.84287">
        <time>2023-04-10T07:29:29+00:00</time>
        <ele>2339.0</ele>
      </trkpt>
      <trkpt lat="44.30721" lon="6.84287">
        <time>2023-04-10T07:29:30+00:00</time>
        <ele>2339.0</ele>
      </trkpt>
      <trkpt lat="44.30721" lon="6.84287">
        <time>2023-04-10T07:29:31+00:00</time>
        <ele>2339.0</ele>
      </trkpt>
      <trkpt lat="44.30719" lon="6.84288">
        <time>2023-04-10T07:29:32+00:00</time>
        <ele>2340.0</ele>
      </trkpt>
      <trkpt lat="44.30719" lon="6.84288">
        <time>2023-04-10T07:29:33+00:00</time>
        <ele>2340.0</ele>
      </trkpt>
      <trkpt lat="44.30719" lon="6.84288">
        <time>2023-04-10T07:29:34+00:00</time>
        <ele>2340.0</ele>
      </trkpt>
      <trkpt lat="44.30719" lon="6.84288">
        <time>2023-04-10T07:29:35+00:00</time>
        <ele>2340.0</ele>
      </trkpt>
      <trkpt lat="44.30717" lon="6.84287">
        <time>2023-04-10T07:29:36+00:00</time>
        <ele>2340.0</ele>
      </trkpt>
      <trkpt lat="44.30717" lon="6.84287">
        <time>2023-04-10T07:29:37+00:00</time>
        <ele>2340.0</ele>
      </trkpt>
      <trkpt lat="44.30717" lon="6.84287">
        <time>2023-04-10T07:29:38+00:00</time>
        <ele>2340.0</ele>
      </trkpt>
      <trkpt lat="44.30717" lon="6.84287">
        <time>2023-04-10T07:29:39+00:00</time>
        <ele>2340.0</ele>
      </trkpt>
      <trkpt lat="44.30715" lon="6.84284">
        <time>2023-04-10T07:29:40+00:00</time>
        <ele>2341.0</ele>
      </trkpt>
      <trkpt lat="44.30715" lon="6.84284">
        <time>2023-04-10T07:29:41+00:00</time>
        <ele>2341.0</ele>
      </trkpt>
      <trkpt lat="44.30715" lon="6.84282">
        <time>2023-04-10T07:29:42+00:00</time>
        <ele>2341.0</ele>
      </trkpt>
      <trkpt lat="44.30715" lon="6.84282">
        <time>2023-04-10T07:29:43+00:00</time>
        <ele>2341.0</ele>
      </trkpt>
      <trkpt lat="44.30715" lon="6.84282">
        <time>2023-04-10T07:29:44+00:00</time>
        <ele>2341.0</ele>
      </trkpt>
      <trkpt lat="44.30715" lon="6.84282">
        <time>2023-04-10T07:29:45+00:00</time>
        <ele>2341.0</ele>
      </trkpt>
      <trkpt lat="44.30716" lon="6.84278">
        <time>2023-04-10T07:29:46+00:00</time>
        <ele>2342.0</ele>
      </trkpt>
      <trkpt lat="44.30716" lon="6.84278">
        <time>2023-04-10T07:29:47+00:00</time>
        <ele>2342.0</ele>
      </trkpt>
      <trkpt lat="44.30716" lon="6.84276">
        <time>2023-04-10T07:29:48+00:00</time>
        <ele>2342.0</ele>
      </trkpt>
      <trkpt lat="44.30716" lon="6.84276">
        <time>2023-04-10T07:29:49+00:00</time>
        <ele>2342.0</ele>
      </trkpt>
      <trkpt lat="44.30716" lon="6.84273">
        <time>2023-04-10T07:29:50+00:00</time>
        <ele>2343.0</ele>
      </trkpt>
      <trkpt lat="44.30716" lon="6.84273">
        <time>2023-04-10T07:29:51+00:00</time>
        <ele>2343.0</ele>
      </trkpt>
      <trkpt lat="44.30716" lon="6.84273">
        <time>2023-04-10T07:29:52+00:00</time>
        <ele>2343.0</ele>
      </trkpt>
      <trkpt lat="44.30716" lon="6.84273">
        <time>2023-04-10T07:29:53+00:00</time>
        <ele>2343.0</ele>
      </trkpt>
      <trkpt lat="44.30716" lon="6.84273">
        <time>2023-04-10T07:29:54+00:00</time>
        <ele>2343.0</ele>
      </trkpt>
      <trkpt lat="44.30716" lon="6.84273">
        <time>2023-04-10T07:29:55+00:00</time>
        <ele>2343.0</ele>
      </trkpt>
      <trkpt lat="44.30716" lon="6.84273">
        <time>2023-04-10T07:29:56+00:00</time>
        <ele>2343.0</ele>
      </trkpt>
      <trkpt lat="44.30713" lon="6.84272">
        <time>2023-04-10T07:29:57+00:00</time>
        <ele>2344.0</ele>
      </trkpt>
      <trkpt lat="44.30713" lon="6.84272">
        <time>2023-04-10T07:29:58+00:00</time>
        <ele>2344.0</ele>
      </trkpt>
      <trkpt lat="44.30711" lon="6.84273">
        <time>2023-04-10T07:29:59+00:00</time>
        <ele>2344.0</ele>
      </trkpt>
      <trkpt lat="44.30711" lon="6.84273">
        <time>2023-04-10T07:30:01+00:00</time>
        <ele>2344.0</ele>
      </trkpt>
      <trkpt lat="44.30709" lon="6.84274">
        <time>2023-04-10T07:30:02+00:00</time>
        <ele>2345.0</ele>
      </trkpt>
      <trkpt lat="44.30709" lon="6.84274">
        <time>2023-04-10T07:30:03+00:00</time>
        <ele>2345.0</ele>
      </trkpt>
      <trkpt lat="44.30709" lon="6.84274">
        <time>2023-04-10T07:30:04+00:00</time>
        <ele>2345.0</ele>
      </trkpt>
      <trkpt lat="44.30709" lon="6.84274">
        <time>2023-04-10T07:30:05+00:00</time>
        <ele>2345.0</ele>
      </trkpt>
      <trkpt lat="44.30707" lon="6.84275">
        <time>2023-04-10T07:30:06+00:00</time>
        <ele>2345.0</ele>
      </trkpt>
      <trkpt lat="44.30707" lon="6.84275">
        <time>2023-04-10T07:30:07+00:00</time>
        <ele>2345.0</ele>
      </trkpt>
      <trkpt lat="44.30707" lon="6.84275">
        <time>2023-04-10T07:30:08+00:00</time>
        <ele>2345.0</ele>
      </trkpt>
      <trkpt lat="44.30705" lon="6.84275">
        <time>2023-04-10T07:30:09+00:00</time>
        <ele>2346.0</ele>
      </trkpt>
      <trkpt lat="44.30705" lon="6.84275">
        <time>2023-04-10T07:30:10+00:00</time>
        <ele>2346.0</ele>
      </trkpt>
      <trkpt lat="44.30705" lon="6.84275">
        <time>2023-04-10T07:30:11+00:00</time>
        <ele>2346.0</ele>
      </trkpt>
      <trkpt lat="44.30704" lon="6.84273">
        <time>2023-04-10T07:30:12+00:00</time>
        <ele>2347.0</ele>
      </trkpt>
      <trkpt lat="44.30704" lon="6.84273">
        <time>2023-04-10T07:30:13+00:00</time>
        <ele>2347.0</ele>
      </trkpt>
      <trkpt lat="44.30704" lon="6.84273">
        <time>2023-04-10T07:30:14+00:00</time>
        <ele>2347.0</ele>
      </trkpt>
      <trkpt lat="44.30704" lon="6.8427">
        <time>2023-04-10T07:30:15+00:00</time>
        <ele>2347.0</ele>
      </trkpt>
      <trkpt lat="44.30704" lon="6.8427">
        <time>2023-04-10T07:30:16+00:00</time>
        <ele>2347.0</ele>
      </trkpt>
      <trkpt lat="44.30704" lon="6.8427">
        <time>2023-04-10T07:30:17+00:00</time>
        <ele>2347.0</ele>
      </trkpt>
      <trkpt lat="44.30704" lon="6.84267">
        <time>2023-04-10T07:30:18+00:00</time>
        <ele>2348.0</ele>
      </trkpt>
      <trkpt lat="44.30704" lon="6.84267">
        <time>2023-04-10T07:30:19+00:00</time>
        <ele>2348.0</ele>
      </trkpt>
      <trkpt lat="44.30704" lon="6.84267">
        <time>2023-04-10T07:30:20+00:00</time>
        <ele>2348.0</ele>
      </trkpt>
      <trkpt lat="44.30703" lon="6.84264">
        <time>2023-04-10T07:30:21+00:00</time>
        <ele>2349.0</ele>
      </trkpt>
      <trkpt lat="44.30703" lon="6.84264">
        <time>2023-04-10T07:30:22+00:00</time>
        <ele>2349.0</ele>
      </trkpt>
      <trkpt lat="44.30703" lon="6.84264">
        <time>2023-04-10T07:30:23+00:00</time>
        <ele>2349.0</ele>
      </trkpt>
      <trkpt lat="44.30703" lon="6.8426">
        <time>2023-04-10T07:30:24+00:00</time>
        <ele>2350.0</ele>
      </trkpt>
      <trkpt lat="44.30703" lon="6.8426">
        <time>2023-04-10T07:30:25+00:00</time>
        <ele>2350.0</ele>
      </trkpt>
      <trkpt lat="44.30703" lon="6.8426">
        <time>2023-04-10T07:30:26+00:00</time>
        <ele>2350.0</ele>
      </trkpt>
      <trkpt lat="44.30704" lon="6.84258">
        <time>2023-04-10T07:30:27+00:00</time>
        <ele>2350.0</ele>
      </trkpt>
      <trkpt lat="44.30704" lon="6.84258">
        <time>2023-04-10T07:30:28+00:00</time>
        <ele>2350.0</ele>
      </trkpt>
      <trkpt lat="44.30705" lon="6.84255">
        <time>2023-04-10T07:30:29+00:00</time>
        <ele>2351.0</ele>
      </trkpt>
      <trkpt lat="44.30705" lon="6.84255">
        <time>2023-04-10T07:30:30+00:00</time>
        <ele>2351.0</ele>
      </trkpt>
      <trkpt lat="44.30705" lon="6.84255">
        <time>2023-04-10T07:30:31+00:00</time>
        <ele>2351.0</ele>
      </trkpt>
      <trkpt lat="44.30705" lon="6.84252">
        <time>2023-04-10T07:30:32+00:00</time>
        <ele>2351.0</ele>
      </trkpt>
      <trkpt lat="44.30705" lon="6.84252">
        <time>2023-04-10T07:30:33+00:00</time>
        <ele>2351.0</ele>
      </trkpt>
      <trkpt lat="44.30705" lon="6.84252">
        <time>2023-04-10T07:30:34+00:00</time>
        <ele>2351.0</ele>
      </trkpt>
      <trkpt lat="44.30703" lon="6.8425">
        <time>2023-04-10T07:30:35+00:00</time>
        <ele>2353.0</ele>
      </trkpt>
      <trkpt lat="44.30703" lon="6.8425">
        <time>2023-04-10T07:30:36+00:00</time>
        <ele>2353.0</ele>
      </trkpt>
      <trkpt lat="44.30703" lon="6.8425">
        <time>2023-04-10T07:30:37+00:00</time>
        <ele>2353.0</ele>
      </trkpt>
      <trkpt lat="44.30704" lon="6.84247">
        <time>2023-04-10T07:30:38+00:00</time>
        <ele>2353.0</ele>
      </trkpt>
      <trkpt lat="44.30704" lon="6.84247">
        <time>2023-04-10T07:30:39+00:00</time>
        <ele>2353.0</ele>
      </trkpt>
      <trkpt lat="44.30704" lon="6.84247">
        <time>2023-04-10T07:30:40+00:00</time>
        <ele>2353.0</ele>
      </trkpt>
      <trkpt lat="44.30703" lon="6.84244">
        <time>2023-04-10T07:30:41+00:00</time>
        <ele>2353.0</ele>
      </trkpt>
      <trkpt lat="44.30703" lon="6.84244">
        <time>2023-04-10T07:30:42+00:00</time>
        <ele>2353.0</ele>
      </trkpt>
      <trkpt lat="44.30703" lon="6.84244">
        <time>2023-04-10T07:30:43+00:00</time>
        <ele>2353.0</ele>
      </trkpt>
      <trkpt lat="44.30702" lon="6.84241">
        <time>2023-04-10T07:30:44+00:00</time>
        <ele>2354.0</ele>
      </trkpt>
      <trkpt lat="44.30702" lon="6.84241">
        <time>2023-04-10T07:30:45+00:00</time>
        <ele>2354.0</ele>
      </trkpt>
      <trkpt lat="44.30701" lon="6.84238">
        <time>2023-04-10T07:30:47+00:00</time>
        <ele>2355.0</ele>
      </trkpt>
      <trkpt lat="44.30701" lon="6.84238">
        <time>2023-04-10T07:30:48+00:00</time>
        <ele>2355.0</ele>
      </trkpt>
      <trkpt lat="44.307" lon="6.84236">
        <time>2023-04-10T07:30:49+00:00</time>
        <ele>2356.0</ele>
      </trkpt>
      <trkpt lat="44.307" lon="6.84236">
        <time>2023-04-10T07:30:50+00:00</time>
        <ele>2356.0</ele>
      </trkpt>
      <trkpt lat="44.307" lon="6.84236">
        <time>2023-04-10T07:30:51+00:00</time>
        <ele>2356.0</ele>
      </trkpt>
      <trkpt lat="44.30699" lon="6.84233">
        <time>2023-04-10T07:30:52+00:00</time>
        <ele>2357.0</ele>
      </trkpt>
      <trkpt lat="44.30699" lon="6.84233">
        <time>2023-04-10T07:30:53+00:00</time>
        <ele>2357.0</ele>
      </trkpt>
      <trkpt lat="44.30699" lon="6.84233">
        <time>2023-04-10T07:30:54+00:00</time>
        <ele>2357.0</ele>
      </trkpt>
      <trkpt lat="44.30698" lon="6.8423">
        <time>2023-04-10T07:30:55+00:00</time>
        <ele>2358.0</ele>
      </trkpt>
      <trkpt lat="44.30698" lon="6.8423">
        <time>2023-04-10T07:30:56+00:00</time>
        <ele>2358.0</ele>
      </trkpt>
      <trkpt lat="44.30698" lon="6.8423">
        <time>2023-04-10T07:30:57+00:00</time>
        <ele>2358.0</ele>
      </trkpt>
      <trkpt lat="44.30698" lon="6.8423">
        <time>2023-04-10T07:30:58+00:00</time>
        <ele>2358.0</ele>
      </trkpt>
      <trkpt lat="44.30697" lon="6.84227">
        <time>2023-04-10T07:30:59+00:00</time>
        <ele>2358.0</ele>
      </trkpt>
      <trkpt lat="44.30697" lon="6.84227">
        <time>2023-04-10T07:31:00+00:00</time>
        <ele>2358.0</ele>
      </trkpt>
      <trkpt lat="44.30697" lon="6.84227">
        <time>2023-04-10T07:31:01+00:00</time>
        <ele>2358.0</ele>
      </trkpt>
      <trkpt lat="44.30695" lon="6.84225">
        <time>2023-04-10T07:31:02+00:00</time>
        <ele>2359.0</ele>
      </trkpt>
      <trkpt lat="44.30695" lon="6.84225">
        <time>2023-04-10T07:31:03+00:00</time>
        <ele>2359.0</ele>
      </trkpt>
      <trkpt lat="44.30695" lon="6.84225">
        <time>2023-04-10T07:31:04+00:00</time>
        <ele>2359.0</ele>
      </trkpt>
      <trkpt lat="44.30695" lon="6.84222">
        <time>2023-04-10T07:31:05+00:00</time>
        <ele>2359.0</ele>
      </trkpt>
      <trkpt lat="44.30695" lon="6.84222">
        <time>2023-04-10T07:31:06+00:00</time>
        <ele>2359.0</ele>
      </trkpt>
      <trkpt lat="44.30694" lon="6.84219">
        <time>2023-04-10T07:31:07+00:00</time>
        <ele>2360.0</ele>
      </trkpt>
      <trkpt lat="44.30694" lon="6.84219">
        <time>2023-04-10T07:31:08+00:00</time>
        <ele>2360.0</ele>
      </trkpt>
      <trkpt lat="44.30694" lon="6.84219">
        <time>2023-04-10T07:31:09+00:00</time>
        <ele>2360.0</ele>
      </trkpt>
      <trkpt lat="44.30693" lon="6.84217">
        <time>2023-04-10T07:31:10+00:00</time>
        <ele>2360.0</ele>
      </trkpt>
      <trkpt lat="44.30693" lon="6.84217">
        <time>2023-04-10T07:31:11+00:00</time>
        <ele>2360.0</ele>
      </trkpt>
      <trkpt lat="44.30693" lon="6.84217">
        <time>2023-04-10T07:31:12+00:00</time>
        <ele>2360.0</ele>
      </trkpt>
      <trkpt lat="44.30692" lon="6.84214">
        <time>2023-04-10T07:31:13+00:00</time>
        <ele>2360.0</ele>
      </trkpt>
      <trkpt lat="44.30692" lon="6.84214">
        <time>2023-04-10T07:31:14+00:00</time>
        <ele>2360.0</ele>
      </trkpt>
      <trkpt lat="44.30692" lon="6.84214">
        <time>2023-04-10T07:31:15+00:00</time>
        <ele>2360.0</ele>
      </trkpt>
      <trkpt lat="44.30691" lon="6.84211">
        <time>2023-04-10T07:31:16+00:00</time>
        <ele>2361.0</ele>
      </trkpt>
      <trkpt lat="44.30691" lon="6.84211">
        <time>2023-04-10T07:31:17+00:00</time>
        <ele>2361.0</ele>
      </trkpt>
      <trkpt lat="44.3069" lon="6.84209">
        <time>2023-04-10T07:31:18+00:00</time>
        <ele>2361.0</ele>
      </trkpt>
      <trkpt lat="44.3069" lon="6.84209">
        <time>2023-04-10T07:31:19+00:00</time>
        <ele>2361.0</ele>
      </trkpt>
      <trkpt lat="44.3069" lon="6.84209">
        <time>2023-04-10T07:31:20+00:00</time>
        <ele>2361.0</ele>
      </trkpt>
      <trkpt lat="44.30689" lon="6.84206">
        <time>2023-04-10T07:31:21+00:00</time>
        <ele>2361.0</ele>
      </trkpt>
      <trkpt lat="44.30689" lon="6.84206">
        <time>2023-04-10T07:31:22+00:00</time>
        <ele>2361.0</ele>
      </trkpt>
      <trkpt lat="44.30688" lon="6.84204">
        <time>2023-04-10T07:31:23+00:00</time>
        <ele>2362.0</ele>
      </trkpt>
      <trkpt lat="44.30688" lon="6.84204">
        <time>2023-04-10T07:31:24+00:00</time>
        <ele>2362.0</ele>
      </trkpt>
      <trkpt lat="44.30688" lon="6.84204">
        <time>2023-04-10T07:31:25+00:00</time>
        <ele>2362.0</ele>
      </trkpt>
      <trkpt lat="44.30687" lon="6.84201">
        <time>2023-04-10T07:31:26+00:00</time>
        <ele>2362.0</ele>
      </trkpt>
      <trkpt lat="44.30687" lon="6.84201">
        <time>2023-04-10T07:31:27+00:00</time>
        <ele>2362.0</ele>
      </trkpt>
      <trkpt lat="44.30687" lon="6.84201">
        <time>2023-04-10T07:31:28+00:00</time>
        <ele>2362.0</ele>
      </trkpt>
      <trkpt lat="44.30687" lon="6.84198">
        <time>2023-04-10T07:31:29+00:00</time>
        <ele>2362.0</ele>
      </trkpt>
      <trkpt lat="44.30687" lon="6.84198">
        <time>2023-04-10T07:31:30+00:00</time>
        <ele>2362.0</ele>
      </trkpt>
      <trkpt lat="44.30687" lon="6.84198">
        <time>2023-04-10T07:31:31+00:00</time>
        <ele>2362.0</ele>
      </trkpt>
      <trkpt lat="44.30685" lon="6.84196">
        <time>2023-04-10T07:31:32+00:00</time>
        <ele>2363.0</ele>
      </trkpt>
      <trkpt lat="44.30685" lon="6.84196">
        <time>2023-04-10T07:31:33+00:00</time>
        <ele>2363.0</ele>
      </trkpt>
      <trkpt lat="44.30685" lon="6.84196">
        <time>2023-04-10T07:31:34+00:00</time>
        <ele>2363.0</ele>
      </trkpt>
      <trkpt lat="44.30684" lon="6.84193">
        <time>2023-04-10T07:31:35+00:00</time>
        <ele>2363.0</ele>
      </trkpt>
      <trkpt lat="44.30684" lon="6.84193">
        <time>2023-04-10T07:31:36+00:00</time>
        <ele>2363.0</ele>
      </trkpt>
      <trkpt lat="44.30684" lon="6.84193">
        <time>2023-04-10T07:31:37+00:00</time>
        <ele>2363.0</ele>
      </trkpt>
      <trkpt lat="44.30682" lon="6.8419">
        <time>2023-04-10T07:31:38+00:00</time>
        <ele>2364.0</ele>
      </trkpt>
      <trkpt lat="44.30682" lon="6.8419">
        <time>2023-04-10T07:31:39+00:00</time>
        <ele>2364.0</ele>
      </trkpt>
      <trkpt lat="44.30682" lon="6.8419">
        <time>2023-04-10T07:31:40+00:00</time>
        <ele>2364.0</ele>
      </trkpt>
      <trkpt lat="44.30682" lon="6.84187">
        <time>2023-04-10T07:31:41+00:00</time>
        <ele>2364.0</ele>
      </trkpt>
      <trkpt lat="44.30682" lon="6.84187">
        <time>2023-04-10T07:31:42+00:00</time>
        <ele>2364.0</ele>
      </trkpt>
      <trkpt lat="44.30682" lon="6.84187">
        <time>2023-04-10T07:31:43+00:00</time>
        <ele>2364.0</ele>
      </trkpt>
      <trkpt lat="44.3068" lon="6.84184">
        <time>2023-04-10T07:31:44+00:00</time>
        <ele>2365.0</ele>
      </trkpt>
      <trkpt lat="44.3068" lon="6.84184">
        <time>2023-04-10T07:31:45+00:00</time>
        <ele>2365.0</ele>
      </trkpt>
      <trkpt lat="44.3068" lon="6.84184">
        <time>2023-04-10T07:31:46+00:00</time>
        <ele>2365.0</ele>
      </trkpt>
      <trkpt lat="44.30679" lon="6.84181">
        <time>2023-04-10T07:31:47+00:00</time>
        <ele>2365.0</ele>
      </trkpt>
      <trkpt lat="44.30679" lon="6.84181">
        <time>2023-04-10T07:31:48+00:00</time>
        <ele>2365.0</ele>
      </trkpt>
      <trkpt lat="44.30678" lon="6.84179">
        <time>2023-04-10T07:31:49+00:00</time>
        <ele>2365.0</ele>
      </trkpt>
      <trkpt lat="44.30678" lon="6.84179">
        <time>2023-04-10T07:31:50+00:00</time>
        <ele>2365.0</ele>
      </trkpt>
      <trkpt lat="44.30676" lon="6.84178">
        <time>2023-04-10T07:31:51+00:00</time>
        <ele>2366.0</ele>
      </trkpt>
      <trkpt lat="44.30676" lon="6.84178">
        <time>2023-04-10T07:31:52+00:00</time>
        <ele>2366.0</ele>
      </trkpt>
      <trkpt lat="44.30676" lon="6.84178">
        <time>2023-04-10T07:31:53+00:00</time>
        <ele>2366.0</ele>
      </trkpt>
      <trkpt lat="44.30674" lon="6.84175">
        <time>2023-04-10T07:31:54+00:00</time>
        <ele>2366.0</ele>
      </trkpt>
      <trkpt lat="44.30674" lon="6.84175">
        <time>2023-04-10T07:31:55+00:00</time>
        <ele>2366.0</ele>
      </trkpt>
      <trkpt lat="44.30674" lon="6.84175">
        <time>2023-04-10T07:31:56+00:00</time>
        <ele>2366.0</ele>
      </trkpt>
      <trkpt lat="44.30673" lon="6.84172">
        <time>2023-04-10T07:31:57+00:00</time>
        <ele>2366.0</ele>
      </trkpt>
      <trkpt lat="44.30673" lon="6.84172">
        <time>2023-04-10T07:31:58+00:00</time>
        <ele>2366.0</ele>
      </trkpt>
      <trkpt lat="44.30673" lon="6.84172">
        <time>2023-04-10T07:31:59+00:00</time>
        <ele>2366.0</ele>
      </trkpt>
      <trkpt lat="44.30672" lon="6.84169">
        <time>2023-04-10T07:32:00+00:00</time>
        <ele>2367.0</ele>
      </trkpt>
      <trkpt lat="44.30672" lon="6.84169">
        <time>2023-04-10T07:32:01+00:00</time>
        <ele>2367.0</ele>
      </trkpt>
      <trkpt lat="44.30672" lon="6.84169">
        <time>2023-04-10T07:32:02+00:00</time>
        <ele>2367.0</ele>
      </trkpt>
      <trkpt lat="44.3067" lon="6.84165">
        <time>2023-04-10T07:32:03+00:00</time>
        <ele>2367.0</ele>
      </trkpt>
      <trkpt lat="44.3067" lon="6.84165">
        <time>2023-04-10T07:32:04+00:00</time>
        <ele>2367.0</ele>
      </trkpt>
      <trkpt lat="44.3067" lon="6.84165">
        <time>2023-04-10T07:32:05+00:00</time>
        <ele>2367.0</ele>
      </trkpt>
      <trkpt lat="44.30669" lon="6.84163">
        <time>2023-04-10T07:32:06+00:00</time>
        <ele>2367.0</ele>
      </trkpt>
      <trkpt lat="44.30669" lon="6.84163">
        <time>2023-04-10T07:32:07+00:00</time>
        <ele>2367.0</ele>
      </trkpt>
      <trkpt lat="44.30668" lon="6.84161">
        <time>2023-04-10T07:32:08+00:00</time>
        <ele>2367.0</ele>
      </trkpt>
      <trkpt lat="44.30668" lon="6.84161">
        <time>2023-04-10T07:32:09+00:00</time>
        <ele>2367.0</ele>
      </trkpt>
      <trkpt lat="44.30667" lon="6.84158">
        <time>2023-04-10T07:32:10+00:00</time>
        <ele>2368.0</ele>
      </trkpt>
      <trkpt lat="44.30667" lon="6.84158">
        <time>2023-04-10T07:32:11+00:00</time>
        <ele>2368.0</ele>
      </trkpt>
      <trkpt lat="44.30666" lon="6.84156">
        <time>2023-04-10T07:32:12+00:00</time>
        <ele>2368.0</ele>
      </trkpt>
      <trkpt lat="44.30666" lon="6.84156">
        <time>2023-04-10T07:32:13+00:00</time>
        <ele>2368.0</ele>
      </trkpt>
      <trkpt lat="44.30664" lon="6.84154">
        <time>2023-04-10T07:32:14+00:00</time>
        <ele>2368.0</ele>
      </trkpt>
      <trkpt lat="44.30664" lon="6.84154">
        <time>2023-04-10T07:32:15+00:00</time>
        <ele>2368.0</ele>
      </trkpt>
      <trkpt lat="44.30664" lon="6.84154">
        <time>2023-04-10T07:32:16+00:00</time>
        <ele>2368.0</ele>
      </trkpt>
      <trkpt lat="44.30662" lon="6.84152">
        <time>2023-04-10T07:32:17+00:00</time>
        <ele>2369.0</ele>
      </trkpt>
      <trkpt lat="44.30662" lon="6.84152">
        <time>2023-04-10T07:32:18+00:00</time>
        <ele>2369.0</ele>
      </trkpt>
      <trkpt lat="44.30661" lon="6.84149">
        <time>2023-04-10T07:32:19+00:00</time>
        <ele>2369.0</ele>
      </trkpt>
      <trkpt lat="44.30661" lon="6.84149">
        <time>2023-04-10T07:32:20+00:00</time>
        <ele>2369.0</ele>
      </trkpt>
      <trkpt lat="44.30661" lon="6.84149">
        <time>2023-04-10T07:32:21+00:00</time>
        <ele>2369.0</ele>
      </trkpt>
      <trkpt lat="44.30661" lon="6.84146">
        <time>2023-04-10T07:32:22+00:00</time>
        <ele>2369.0</ele>
      </trkpt>
      <trkpt lat="44.30661" lon="6.84146">
        <time>2023-04-10T07:32:23+00:00</time>
        <ele>2369.0</ele>
      </trkpt>
      <trkpt lat="44.30661" lon="6.84146">
        <time>2023-04-10T07:32:24+00:00</time>
        <ele>2369.0</ele>
      </trkpt>
      <trkpt lat="44.3066" lon="6.84144">
        <time>2023-04-10T07:32:25+00:00</time>
        <ele>2369.0</ele>
      </trkpt>
      <trkpt lat="44.3066" lon="6.84144">
        <time>2023-04-10T07:32:26+00:00</time>
        <ele>2369.0</ele>
      </trkpt>
      <trkpt lat="44.3066" lon="6.84144">
        <time>2023-04-10T07:32:27+00:00</time>
        <ele>2369.0</ele>
      </trkpt>
      <trkpt lat="44.3066" lon="6.8414">
        <time>2023-04-10T07:32:28+00:00</time>
        <ele>2370.0</ele>
      </trkpt>
      <trkpt lat="44.3066" lon="6.8414">
        <time>2023-04-10T07:32:29+00:00</time>
        <ele>2370.0</ele>
      </trkpt>
      <trkpt lat="44.3066" lon="6.84137">
        <time>2023-04-10T07:32:30+00:00</time>
        <ele>2370.0</ele>
      </trkpt>
      <trkpt lat="44.3066" lon="6.84137">
        <time>2023-04-10T07:32:31+00:00</time>
        <ele>2370.0</ele>
      </trkpt>
      <trkpt lat="44.3066" lon="6.84134">
        <time>2023-04-10T07:32:32+00:00</time>
        <ele>2370.0</ele>
      </trkpt>
      <trkpt lat="44.3066" lon="6.84134">
        <time>2023-04-10T07:32:33+00:00</time>
        <ele>2370.0</ele>
      </trkpt>
      <trkpt lat="44.3066" lon="6.84131">
        <time>2023-04-10T07:32:34+00:00</time>
        <ele>2371.0</ele>
      </trkpt>
      <trkpt lat="44.3066" lon="6.84131">
        <time>2023-04-10T07:32:35+00:00</time>
        <ele>2371.0</ele>
      </trkpt>
      <trkpt lat="44.30661" lon="6.84128">
        <time>2023-04-10T07:32:36+00:00</time>
        <ele>2371.0</ele>
      </trkpt>
      <trkpt lat="44.30661" lon="6.84128">
        <time>2023-04-10T07:32:37+00:00</time>
        <ele>2371.0</ele>
      </trkpt>
      <trkpt lat="44.30661" lon="6.84128">
        <time>2023-04-10T07:32:38+00:00</time>
        <ele>2371.0</ele>
      </trkpt>
      <trkpt lat="44.30661" lon="6.84125">
        <time>2023-04-10T07:32:39+00:00</time>
        <ele>2371.0</ele>
      </trkpt>
      <trkpt lat="44.30661" lon="6.84125">
        <time>2023-04-10T07:32:40+00:00</time>
        <ele>2371.0</ele>
      </trkpt>
      <trkpt lat="44.30661" lon="6.84125">
        <time>2023-04-10T07:32:41+00:00</time>
        <ele>2371.0</ele>
      </trkpt>
      <trkpt lat="44.30661" lon="6.84122">
        <time>2023-04-10T07:32:42+00:00</time>
        <ele>2371.0</ele>
      </trkpt>
      <trkpt lat="44.30661" lon="6.84122">
        <time>2023-04-10T07:32:43+00:00</time>
        <ele>2371.0</ele>
      </trkpt>
      <trkpt lat="44.3066" lon="6.84119">
        <time>2023-04-10T07:32:44+00:00</time>
        <ele>2372.0</ele>
      </trkpt>
      <trkpt lat="44.3066" lon="6.84119">
        <time>2023-04-10T07:32:45+00:00</time>
        <ele>2372.0</ele>
      </trkpt>
      <trkpt lat="44.3066" lon="6.84119">
        <time>2023-04-10T07:32:46+00:00</time>
        <ele>2372.0</ele>
      </trkpt>
      <trkpt lat="44.3066" lon="6.84116">
        <time>2023-04-10T07:32:47+00:00</time>
        <ele>2372.0</ele>
      </trkpt>
      <trkpt lat="44.3066" lon="6.84116">
        <time>2023-04-10T07:32:48+00:00</time>
        <ele>2372.0</ele>
      </trkpt>
      <trkpt lat="44.3066" lon="6.84113">
        <time>2023-04-10T07:32:49+00:00</time>
        <ele>2373.0</ele>
      </trkpt>
      <trkpt lat="44.3066" lon="6.84113">
        <time>2023-04-10T07:32:50+00:00</time>
        <ele>2373.0</ele>
      </trkpt>
      <trkpt lat="44.3066" lon="6.84113">
        <time>2023-04-10T07:32:51+00:00</time>
        <ele>2373.0</ele>
      </trkpt>
      <trkpt lat="44.3066" lon="6.8411">
        <time>2023-04-10T07:32:52+00:00</time>
        <ele>2373.0</ele>
      </trkpt>
      <trkpt lat="44.3066" lon="6.8411">
        <time>2023-04-10T07:32:53+00:00</time>
        <ele>2373.0</ele>
      </trkpt>
      <trkpt lat="44.3066" lon="6.8411">
        <time>2023-04-10T07:32:54+00:00</time>
        <ele>2373.0</ele>
      </trkpt>
      <trkpt lat="44.30661" lon="6.84107">
        <time>2023-04-10T07:32:55+00:00</time>
        <ele>2373.0</ele>
      </trkpt>
      <trkpt lat="44.30661" lon="6.84107">
        <time>2023-04-10T07:32:56+00:00</time>
        <ele>2373.0</ele>
      </trkpt>
      <trkpt lat="44.30661" lon="6.84104">
        <time>2023-04-10T07:32:57+00:00</time>
        <ele>2373.0</ele>
      </trkpt>
      <trkpt lat="44.30661" lon="6.84104">
        <time>2023-04-10T07:32:58+00:00</time>
        <ele>2373.0</ele>
      </trkpt>
      <trkpt lat="44.30661" lon="6.84104">
        <time>2023-04-10T07:32:59+00:00</time>
        <ele>2373.0</ele>
      </trkpt>
      <trkpt lat="44.30661" lon="6.84101">
        <time>2023-04-10T07:33:00+00:00</time>
        <ele>2374.0</ele>
      </trkpt>
      <trkpt lat="44.30661" lon="6.84101">
        <time>2023-04-10T07:33:01+00:00</time>
        <ele>2374.0</ele>
      </trkpt>
      <trkpt lat="44.30661" lon="6.84101">
        <time>2023-04-10T07:33:02+00:00</time>
        <ele>2374.0</ele>
      </trkpt>
      <trkpt lat="44.30661" lon="6.84098">
        <time>2023-04-10T07:33:03+00:00</time>
        <ele>2374.0</ele>
      </trkpt>
      <trkpt lat="44.30661" lon="6.84098">
        <time>2023-04-10T07:33:04+00:00</time>
        <ele>2374.0</ele>
      </trkpt>
      <trkpt lat="44.30661" lon="6.84095">
        <time>2023-04-10T07:33:05+00:00</time>
        <ele>2374.0</ele>
      </trkpt>
      <trkpt lat="44.30661" lon="6.84095">
        <time>2023-04-10T07:33:06+00:00</time>
        <ele>2374.0</ele>
      </trkpt>
      <trkpt lat="44.30661" lon="6.84095">
        <time>2023-04-10T07:33:07+00:00</time>
        <ele>2374.0</ele>
      </trkpt>
      <trkpt lat="44.30661" lon="6.84092">
        <time>2023-04-10T07:33:08+00:00</time>
        <ele>2375.0</ele>
      </trkpt>
      <trkpt lat="44.30661" lon="6.84092">
        <time>2023-04-10T07:33:09+00:00</time>
        <ele>2375.0</ele>
      </trkpt>
      <trkpt lat="44.30661" lon="6.84092">
        <time>2023-04-10T07:33:10+00:00</time>
        <ele>2375.0</ele>
      </trkpt>
      <trkpt lat="44.30662" lon="6.84089">
        <time>2023-04-10T07:33:11+00:00</time>
        <ele>2375.0</ele>
      </trkpt>
      <trkpt lat="44.30662" lon="6.84089">
        <time>2023-04-10T07:33:12+00:00</time>
        <ele>2375.0</ele>
      </trkpt>
      <trkpt lat="44.30662" lon="6.84089">
        <time>2023-04-10T07:33:13+00:00</time>
        <ele>2375.0</ele>
      </trkpt>
      <trkpt lat="44.30662" lon="6.84086">
        <time>2023-04-10T07:33:14+00:00</time>
        <ele>2375.0</ele>
      </trkpt>
      <trkpt lat="44.30662" lon="6.84086">
        <time>2023-04-10T07:33:15+00:00</time>
        <ele>2375.0</ele>
      </trkpt>
      <trkpt lat="44.30662" lon="6.84086">
        <time>2023-04-10T07:33:16+00:00</time>
        <ele>2375.0</ele>
      </trkpt>
      <trkpt lat="44.30662" lon="6.84083">
        <time>2023-04-10T07:33:17+00:00</time>
        <ele>2376.0</ele>
      </trkpt>
      <trkpt lat="44.30662" lon="6.84083">
        <time>2023-04-10T07:33:18+00:00</time>
        <ele>2376.0</ele>
      </trkpt>
      <trkpt lat="44.30662" lon="6.84083">
        <time>2023-04-10T07:33:19+00:00</time>
        <ele>2376.0</ele>
      </trkpt>
      <trkpt lat="44.30664" lon="6.8408">
        <time>2023-04-10T07:33:20+00:00</time>
        <ele>2376.0</ele>
      </trkpt>
      <trkpt lat="44.30664" lon="6.8408">
        <time>2023-04-10T07:33:21+00:00</time>
        <ele>2376.0</ele>
      </trkpt>
      <trkpt lat="44.30664" lon="6.84077">
        <time>2023-04-10T07:33:22+00:00</time>
        <ele>2376.0</ele>
      </trkpt>
      <trkpt lat="44.30664" lon="6.84077">
        <time>2023-04-10T07:33:23+00:00</time>
        <ele>2376.0</ele>
      </trkpt>
      <trkpt lat="44.30664" lon="6.84077">
        <time>2023-04-10T07:33:24+00:00</time>
        <ele>2376.0</ele>
      </trkpt>
      <trkpt lat="44.30663" lon="6.84074">
        <time>2023-04-10T07:33:25+00:00</time>
        <ele>2377.0</ele>
      </trkpt>
      <trkpt lat="44.30663" lon="6.84074">
        <time>2023-04-10T07:33:26+00:00</time>
        <ele>2377.0</ele>
      </trkpt>
      <trkpt lat="44.30663" lon="6.84074">
        <time>2023-04-10T07:33:27+00:00</time>
        <ele>2377.0</ele>
      </trkpt>
      <trkpt lat="44.30664" lon="6.84072">
        <time>2023-04-10T07:33:28+00:00</time>
        <ele>2377.0</ele>
      </trkpt>
      <trkpt lat="44.30664" lon="6.84072">
        <time>2023-04-10T07:33:29+00:00</time>
        <ele>2377.0</ele>
      </trkpt>
      <trkpt lat="44.30664" lon="6.84072">
        <time>2023-04-10T07:33:30+00:00</time>
        <ele>2377.0</ele>
      </trkpt>
      <trkpt lat="44.30664" lon="6.84069">
        <time>2023-04-10T07:33:31+00:00</time>
        <ele>2378.0</ele>
      </trkpt>
      <trkpt lat="44.30664" lon="6.84069">
        <time>2023-04-10T07:33:32+00:00</time>
        <ele>2378.0</ele>
      </trkpt>
      <trkpt lat="44.30665" lon="6.84066">
        <time>2023-04-10T07:33:33+00:00</time>
        <ele>2378.0</ele>
      </trkpt>
      <trkpt lat="44.30665" lon="6.84066">
        <time>2023-04-10T07:33:34+00:00</time>
        <ele>2378.0</ele>
      </trkpt>
      <trkpt lat="44.30665" lon="6.84066">
        <time>2023-04-10T07:33:35+00:00</time>
        <ele>2378.0</ele>
      </trkpt>
      <trkpt lat="44.30665" lon="6.84066">
        <time>2023-04-10T07:33:36+00:00</time>
        <ele>2378.0</ele>
      </trkpt>
      <trkpt lat="44.30665" lon="6.84063">
        <time>2023-04-10T07:33:37+00:00</time>
        <ele>2379.0</ele>
      </trkpt>
      <trkpt lat="44.30665" lon="6.84063">
        <time>2023-04-10T07:33:38+00:00</time>
        <ele>2379.0</ele>
      </trkpt>
      <trkpt lat="44.30665" lon="6.84063">
        <time>2023-04-10T07:33:39+00:00</time>
        <ele>2379.0</ele>
      </trkpt>
      <trkpt lat="44.30666" lon="6.84059">
        <time>2023-04-10T07:33:40+00:00</time>
        <ele>2379.0</ele>
      </trkpt>
      <trkpt lat="44.30666" lon="6.84059">
        <time>2023-04-10T07:33:41+00:00</time>
        <ele>2379.0</ele>
      </trkpt>
      <trkpt lat="44.30666" lon="6.84059">
        <time>2023-04-10T07:33:42+00:00</time>
        <ele>2379.0</ele>
      </trkpt>
      <trkpt lat="44.30666" lon="6.84056">
        <time>2023-04-10T07:33:43+00:00</time>
        <ele>2380.0</ele>
      </trkpt>
      <trkpt lat="44.30666" lon="6.84056">
        <time>2023-04-10T07:33:44+00:00</time>
        <ele>2380.0</ele>
      </trkpt>
      <trkpt lat="44.30666" lon="6.84056">
        <time>2023-04-10T07:33:45+00:00</time>
        <ele>2380.0</ele>
      </trkpt>
      <trkpt lat="44.30666" lon="6.84052">
        <time>2023-04-10T07:33:46+00:00</time>
        <ele>2380.0</ele>
      </trkpt>
      <trkpt lat="44.30666" lon="6.84052">
        <time>2023-04-10T07:33:47+00:00</time>
        <ele>2380.0</ele>
      </trkpt>
      <trkpt lat="44.30666" lon="6.84052">
        <time>2023-04-10T07:33:48+00:00</time>
        <ele>2380.0</ele>
      </trkpt>
      <trkpt lat="44.30666" lon="6.84049">
        <time>2023-04-10T07:33:49+00:00</time>
        <ele>2381.0</ele>
      </trkpt>
      <trkpt lat="44.30666" lon="6.84049">
        <time>2023-04-10T07:33:50+00:00</time>
        <ele>2381.0</ele>
      </trkpt>
      <trkpt lat="44.30666" lon="6.84049">
        <time>2023-04-10T07:33:51+00:00</time>
        <ele>2381.0</ele>
      </trkpt>
      <trkpt lat="44.30667" lon="6.84047">
        <time>2023-04-10T07:33:52+00:00</time>
        <ele>2381.0</ele>
      </trkpt>
      <trkpt lat="44.30667" lon="6.84047">
        <time>2023-04-10T07:33:53+00:00</time>
        <ele>2381.0</ele>
      </trkpt>
      <trkpt lat="44.30668" lon="6.84044">
        <time>2023-04-10T07:33:54+00:00</time>
        <ele>2381.0</ele>
      </trkpt>
      <trkpt lat="44.30668" lon="6.84044">
        <time>2023-04-10T07:33:55+00:00</time>
        <ele>2381.0</ele>
      </trkpt>
      <trkpt lat="44.30667" lon="6.84041">
        <time>2023-04-10T07:33:56+00:00</time>
        <ele>2382.0</ele>
      </trkpt>
      <trkpt lat="44.30667" lon="6.84041">
        <time>2023-04-10T07:33:57+00:00</time>
        <ele>2382.0</ele>
      </trkpt>
      <trkpt lat="44.30666" lon="6.84039">
        <time>2023-04-10T07:33:58+00:00</time>
        <ele>2382.0</ele>
      </trkpt>
      <trkpt lat="44.30666" lon="6.84039">
        <time>2023-04-10T07:33:59+00:00</time>
        <ele>2382.0</ele>
      </trkpt>
      <trkpt lat="44.30667" lon="6.84036">
        <time>2023-04-10T07:34:00+00:00</time>
        <ele>2382.0</ele>
      </trkpt>
      <trkpt lat="44.30667" lon="6.84036">
        <time>2023-04-10T07:34:01+00:00</time>
        <ele>2382.0</ele>
      </trkpt>
      <trkpt lat="44.30667" lon="6.84036">
        <time>2023-04-10T07:34:02+00:00</time>
        <ele>2382.0</ele>
      </trkpt>
      <trkpt lat="44.30667" lon="6.84036">
        <time>2023-04-10T07:34:03+00:00</time>
        <ele>2382.0</ele>
      </trkpt>
      <trkpt lat="44.30667" lon="6.84033">
        <time>2023-04-10T07:34:04+00:00</time>
        <ele>2383.0</ele>
      </trkpt>
      <trkpt lat="44.30667" lon="6.84033">
        <time>2023-04-10T07:34:05+00:00</time>
        <ele>2383.0</ele>
      </trkpt>
      <trkpt lat="44.30666" lon="6.84031">
        <time>2023-04-10T07:34:06+00:00</time>
        <ele>2383.0</ele>
      </trkpt>
      <trkpt lat="44.30666" lon="6.84031">
        <time>2023-04-10T07:34:07+00:00</time>
        <ele>2383.0</ele>
      </trkpt>
      <trkpt lat="44.30666" lon="6.84031">
        <time>2023-04-10T07:34:08+00:00</time>
        <ele>2383.0</ele>
      </trkpt>
      <trkpt lat="44.30666" lon="6.84027">
        <time>2023-04-10T07:34:09+00:00</time>
        <ele>2384.0</ele>
      </trkpt>
      <trkpt lat="44.30666" lon="6.84027">
        <time>2023-04-10T07:34:10+00:00</time>
        <ele>2384.0</ele>
      </trkpt>
      <trkpt lat="44.30666" lon="6.84027">
        <time>2023-04-10T07:34:11+00:00</time>
        <ele>2384.0</ele>
      </trkpt>
      <trkpt lat="44.30666" lon="6.84024">
        <time>2023-04-10T07:34:12+00:00</time>
        <ele>2384.0</ele>
      </trkpt>
      <trkpt lat="44.30666" lon="6.84024">
        <time>2023-04-10T07:34:13+00:00</time>
        <ele>2384.0</ele>
      </trkpt>
      <trkpt lat="44.30666" lon="6.84024">
        <time>2023-04-10T07:34:14+00:00</time>
        <ele>2384.0</ele>
      </trkpt>
      <trkpt lat="44.30665" lon="6.84021">
        <time>2023-04-10T07:34:15+00:00</time>
        <ele>2385.0</ele>
      </trkpt>
      <trkpt lat="44.30665" lon="6.84021">
        <time>2023-04-10T07:34:16+00:00</time>
        <ele>2385.0</ele>
      </trkpt>
      <trkpt lat="44.30665" lon="6.84021">
        <time>2023-04-10T07:34:17+00:00</time>
        <ele>2385.0</ele>
      </trkpt>
      <trkpt lat="44.30664" lon="6.84018">
        <time>2023-04-10T07:34:18+00:00</time>
        <ele>2385.0</ele>
      </trkpt>
      <trkpt lat="44.30664" lon="6.84018">
        <time>2023-04-10T07:34:19+00:00</time>
        <ele>2385.0</ele>
      </trkpt>
      <trkpt lat="44.30663" lon="6.84015">
        <time>2023-04-10T07:34:20+00:00</time>
        <ele>2386.0</ele>
      </trkpt>
      <trkpt lat="44.30663" lon="6.84015">
        <time>2023-04-10T07:34:21+00:00</time>
        <ele>2386.0</ele>
      </trkpt>
      <trkpt lat="44.30663" lon="6.84015">
        <time>2023-04-10T07:34:22+00:00</time>
        <ele>2386.0</ele>
      </trkpt>
      <trkpt lat="44.30662" lon="6.84011">
        <time>2023-04-10T07:34:23+00:00</time>
        <ele>2387.0</ele>
      </trkpt>
      <trkpt lat="44.30662" lon="6.84011">
        <time>2023-04-10T07:34:24+00:00</time>
        <ele>2387.0</ele>
      </trkpt>
      <trkpt lat="44.30662" lon="6.84011">
        <time>2023-04-10T07:34:25+00:00</time>
        <ele>2387.0</ele>
      </trkpt>
      <trkpt lat="44.30661" lon="6.84009">
        <time>2023-04-10T07:34:26+00:00</time>
        <ele>2387.0</ele>
      </trkpt>
      <trkpt lat="44.30661" lon="6.84009">
        <time>2023-04-10T07:34:27+00:00</time>
        <ele>2387.0</ele>
      </trkpt>
      <trkpt lat="44.3066" lon="6.84007">
        <time>2023-04-10T07:34:28+00:00</time>
        <ele>2387.0</ele>
      </trkpt>
      <trkpt lat="44.3066" lon="6.84007">
        <time>2023-04-10T07:34:29+00:00</time>
        <ele>2387.0</ele>
      </trkpt>
      <trkpt lat="44.30658" lon="6.84004">
        <time>2023-04-10T07:34:30+00:00</time>
        <ele>2388.0</ele>
      </trkpt>
      <trkpt lat="44.30658" lon="6.84004">
        <time>2023-04-10T07:34:31+00:00</time>
        <ele>2388.0</ele>
      </trkpt>
      <trkpt lat="44.30657" lon="6.84002">
        <time>2023-04-10T07:34:32+00:00</time>
        <ele>2388.0</ele>
      </trkpt>
      <trkpt lat="44.30657" lon="6.84002">
        <time>2023-04-10T07:34:33+00:00</time>
        <ele>2388.0</ele>
      </trkpt>
      <trkpt lat="44.30657" lon="6.84002">
        <time>2023-04-10T07:34:34+00:00</time>
        <ele>2388.0</ele>
      </trkpt>
      <trkpt lat="44.30656" lon="6.83998">
        <time>2023-04-10T07:34:35+00:00</time>
        <ele>2389.0</ele>
      </trkpt>
      <trkpt lat="44.30656" lon="6.83998">
        <time>2023-04-10T07:34:36+00:00</time>
        <ele>2389.0</ele>
      </trkpt>
      <trkpt lat="44.30654" lon="6.83995">
        <time>2023-04-10T07:34:37+00:00</time>
        <ele>2389.0</ele>
      </trkpt>
      <trkpt lat="44.30654" lon="6.83995">
        <time>2023-04-10T07:34:38+00:00</time>
        <ele>2389.0</ele>
      </trkpt>
      <trkpt lat="44.30653" lon="6.83993">
        <time>2023-04-10T07:34:39+00:00</time>
        <ele>2390.0</ele>
      </trkpt>
      <trkpt lat="44.30653" lon="6.83993">
        <time>2023-04-10T07:34:40+00:00</time>
        <ele>2390.0</ele>
      </trkpt>
      <trkpt lat="44.30651" lon="6.8399">
        <time>2023-04-10T07:34:41+00:00</time>
        <ele>2390.0</ele>
      </trkpt>
      <trkpt lat="44.30651" lon="6.8399">
        <time>2023-04-10T07:34:42+00:00</time>
        <ele>2390.0</ele>
      </trkpt>
      <trkpt lat="44.3065" lon="6.83988">
        <time>2023-04-10T07:34:43+00:00</time>
        <ele>2391.0</ele>
      </trkpt>
      <trkpt lat="44.3065" lon="6.83988">
        <time>2023-04-10T07:34:44+00:00</time>
        <ele>2391.0</ele>
      </trkpt>
      <trkpt lat="44.3065" lon="6.83988">
        <time>2023-04-10T07:34:45+00:00</time>
        <ele>2391.0</ele>
      </trkpt>
      <trkpt lat="44.30648" lon="6.83985">
        <time>2023-04-10T07:34:46+00:00</time>
        <ele>2391.0</ele>
      </trkpt>
      <trkpt lat="44.30648" lon="6.83983">
        <time>2023-04-10T07:34:47+00:00</time>
        <ele>2391.0</ele>
      </trkpt>
      <trkpt lat="44.30648" lon="6.83983">
        <time>2023-04-10T07:34:48+00:00</time>
        <ele>2391.0</ele>
      </trkpt>
      <trkpt lat="44.30648" lon="6.83983">
        <time>2023-04-10T07:34:49+00:00</time>
        <ele>2391.0</ele>
      </trkpt>
      <trkpt lat="44.30646" lon="6.8398">
        <time>2023-04-10T07:34:50+00:00</time>
        <ele>2392.0</ele>
      </trkpt>
      <trkpt lat="44.30646" lon="6.8398">
        <time>2023-04-10T07:34:51+00:00</time>
        <ele>2392.0</ele>
      </trkpt>
      <trkpt lat="44.30646" lon="6.83978">
        <time>2023-04-10T07:34:52+00:00</time>
        <ele>2392.0</ele>
      </trkpt>
      <trkpt lat="44.30646" lon="6.83978">
        <time>2023-04-10T07:34:53+00:00</time>
        <ele>2392.0</ele>
      </trkpt>
      <trkpt lat="44.30645" lon="6.83975">
        <time>2023-04-10T07:34:54+00:00</time>
        <ele>2392.0</ele>
      </trkpt>
      <trkpt lat="44.30645" lon="6.83975">
        <time>2023-04-10T07:34:55+00:00</time>
        <ele>2392.0</ele>
      </trkpt>
      <trkpt lat="44.30645" lon="6.83973">
        <time>2023-04-10T07:34:56+00:00</time>
        <ele>2393.0</ele>
      </trkpt>
      <trkpt lat="44.30645" lon="6.83973">
        <time>2023-04-10T07:34:57+00:00</time>
        <ele>2393.0</ele>
      </trkpt>
      <trkpt lat="44.30645" lon="6.83973">
        <time>2023-04-10T07:34:58+00:00</time>
        <ele>2393.0</ele>
      </trkpt>
      <trkpt lat="44.30644" lon="6.8397">
        <time>2023-04-10T07:34:59+00:00</time>
        <ele>2393.0</ele>
      </trkpt>
      <trkpt lat="44.30644" lon="6.8397">
        <time>2023-04-10T07:35:00+00:00</time>
        <ele>2393.0</ele>
      </trkpt>
      <trkpt lat="44.30644" lon="6.8397">
        <time>2023-04-10T07:35:01+00:00</time>
        <ele>2393.0</ele>
      </trkpt>
      <trkpt lat="44.30642" lon="6.83966">
        <time>2023-04-10T07:35:02+00:00</time>
        <ele>2394.0</ele>
      </trkpt>
      <trkpt lat="44.30642" lon="6.83966">
        <time>2023-04-10T07:35:03+00:00</time>
        <ele>2394.0</ele>
      </trkpt>
      <trkpt lat="44.30642" lon="6.83966">
        <time>2023-04-10T07:35:04+00:00</time>
        <ele>2394.0</ele>
      </trkpt>
      <trkpt lat="44.30641" lon="6.83963">
        <time>2023-04-10T07:35:05+00:00</time>
        <ele>2394.0</ele>
      </trkpt>
      <trkpt lat="44.30641" lon="6.83963">
        <time>2023-04-10T07:35:06+00:00</time>
        <ele>2394.0</ele>
      </trkpt>
      <trkpt lat="44.30641" lon="6.83963">
        <time>2023-04-10T07:35:07+00:00</time>
        <ele>2394.0</ele>
      </trkpt>
      <trkpt lat="44.30641" lon="6.83959">
        <time>2023-04-10T07:35:08+00:00</time>
        <ele>2394.0</ele>
      </trkpt>
      <trkpt lat="44.30641" lon="6.83959">
        <time>2023-04-10T07:35:09+00:00</time>
        <ele>2394.0</ele>
      </trkpt>
      <trkpt lat="44.3064" lon="6.83957">
        <time>2023-04-10T07:35:10+00:00</time>
        <ele>2394.0</ele>
      </trkpt>
      <trkpt lat="44.3064" lon="6.83957">
        <time>2023-04-10T07:35:11+00:00</time>
        <ele>2394.0</ele>
      </trkpt>
      <trkpt lat="44.3064" lon="6.83957">
        <time>2023-04-10T07:35:12+00:00</time>
        <ele>2394.0</ele>
      </trkpt>
      <trkpt lat="44.3064" lon="6.83953">
        <time>2023-04-10T07:35:13+00:00</time>
        <ele>2395.0</ele>
      </trkpt>
      <trkpt lat="44.3064" lon="6.83953">
        <time>2023-04-10T07:35:14+00:00</time>
        <ele>2395.0</ele>
      </trkpt>
      <trkpt lat="44.3064" lon="6.83951">
        <time>2023-04-10T07:35:15+00:00</time>
        <ele>2395.0</ele>
      </trkpt>
      <trkpt lat="44.3064" lon="6.83951">
        <time>2023-04-10T07:35:16+00:00</time>
        <ele>2395.0</ele>
      </trkpt>
      <trkpt lat="44.30639" lon="6.83948">
        <time>2023-04-10T07:35:17+00:00</time>
        <ele>2395.0</ele>
      </trkpt>
      <trkpt lat="44.30639" lon="6.83948">
        <time>2023-04-10T07:35:18+00:00</time>
        <ele>2395.0</ele>
      </trkpt>
      <trkpt lat="44.30638" lon="6.83945">
        <time>2023-04-10T07:35:19+00:00</time>
        <ele>2396.0</ele>
      </trkpt>
      <trkpt lat="44.30638" lon="6.83945">
        <time>2023-04-10T07:35:20+00:00</time>
        <ele>2396.0</ele>
      </trkpt>
      <trkpt lat="44.30638" lon="6.83945">
        <time>2023-04-10T07:35:21+00:00</time>
        <ele>2396.0</ele>
      </trkpt>
      <trkpt lat="44.30639" lon="6.83942">
        <time>2023-04-10T07:35:22+00:00</time>
        <ele>2396.0</ele>
      </trkpt>
      <trkpt lat="44.30639" lon="6.83942">
        <time>2023-04-10T07:35:23+00:00</time>
        <ele>2396.0</ele>
      </trkpt>
      <trkpt lat="44.30639" lon="6.8394">
        <time>2023-04-10T07:35:24+00:00</time>
        <ele>2396.0</ele>
      </trkpt>
      <trkpt lat="44.30639" lon="6.8394">
        <time>2023-04-10T07:35:25+00:00</time>
        <ele>2396.0</ele>
      </trkpt>
      <trkpt lat="44.30638" lon="6.83937">
        <time>2023-04-10T07:35:26+00:00</time>
        <ele>2396.0</ele>
      </trkpt>
      <trkpt lat="44.30638" lon="6.83937">
        <time>2023-04-10T07:35:27+00:00</time>
        <ele>2396.0</ele>
      </trkpt>
      <trkpt lat="44.30638" lon="6.83937">
        <time>2023-04-10T07:35:28+00:00</time>
        <ele>2396.0</ele>
      </trkpt>
      <trkpt lat="44.30638" lon="6.83934">
        <time>2023-04-10T07:35:29+00:00</time>
        <ele>2397.0</ele>
      </trkpt>
      <trkpt lat="44.30638" lon="6.83934">
        <time>2023-04-10T07:35:30+00:00</time>
        <ele>2397.0</ele>
      </trkpt>
      <trkpt lat="44.30638" lon="6.83934">
        <time>2023-04-10T07:35:31+00:00</time>
        <ele>2397.0</ele>
      </trkpt>
      <trkpt lat="44.30637" lon="6.83931">
        <time>2023-04-10T07:35:32+00:00</time>
        <ele>2397.0</ele>
      </trkpt>
      <trkpt lat="44.30637" lon="6.83931">
        <time>2023-04-10T07:35:33+00:00</time>
        <ele>2397.0</ele>
      </trkpt>
      <trkpt lat="44.30637" lon="6.83931">
        <time>2023-04-10T07:35:34+00:00</time>
        <ele>2397.0</ele>
      </trkpt>
      <trkpt lat="44.30638" lon="6.83927">
        <time>2023-04-10T07:35:35+00:00</time>
        <ele>2397.0</ele>
      </trkpt>
      <trkpt lat="44.30638" lon="6.83927">
        <time>2023-04-10T07:35:36+00:00</time>
        <ele>2397.0</ele>
      </trkpt>
      <trkpt lat="44.30637" lon="6.83925">
        <time>2023-04-10T07:35:37+00:00</time>
        <ele>2398.0</ele>
      </trkpt>
      <trkpt lat="44.30637" lon="6.83925">
        <time>2023-04-10T07:35:38+00:00</time>
        <ele>2398.0</ele>
      </trkpt>
      <trkpt lat="44.30637" lon="6.83922">
        <time>2023-04-10T07:35:39+00:00</time>
        <ele>2398.0</ele>
      </trkpt>
      <trkpt lat="44.30637" lon="6.83922">
        <time>2023-04-10T07:35:40+00:00</time>
        <ele>2398.0</ele>
      </trkpt>
      <trkpt lat="44.30637" lon="6.83922">
        <time>2023-04-10T07:35:41+00:00</time>
        <ele>2398.0</ele>
      </trkpt>
      <trkpt lat="44.30636" lon="6.83919">
        <time>2023-04-10T07:35:42+00:00</time>
        <ele>2398.0</ele>
      </trkpt>
      <trkpt lat="44.30636" lon="6.83919">
        <time>2023-04-10T07:35:43+00:00</time>
        <ele>2398.0</ele>
      </trkpt>
      <trkpt lat="44.30636" lon="6.83919">
        <time>2023-04-10T07:35:44+00:00</time>
        <ele>2398.0</ele>
      </trkpt>
      <trkpt lat="44.30636" lon="6.83916">
        <time>2023-04-10T07:35:45+00:00</time>
        <ele>2399.0</ele>
      </trkpt>
      <trkpt lat="44.30636" lon="6.83916">
        <time>2023-04-10T07:35:46+00:00</time>
        <ele>2399.0</ele>
      </trkpt>
      <trkpt lat="44.30636" lon="6.83916">
        <time>2023-04-10T07:35:47+00:00</time>
        <ele>2399.0</ele>
      </trkpt>
      <trkpt lat="44.30635" lon="6.83912">
        <time>2023-04-10T07:35:48+00:00</time>
        <ele>2399.0</ele>
      </trkpt>
      <trkpt lat="44.30635" lon="6.83912">
        <time>2023-04-10T07:35:49+00:00</time>
        <ele>2399.0</ele>
      </trkpt>
      <trkpt lat="44.30635" lon="6.83912">
        <time>2023-04-10T07:35:50+00:00</time>
        <ele>2399.0</ele>
      </trkpt>
      <trkpt lat="44.30634" lon="6.8391">
        <time>2023-04-10T07:35:51+00:00</time>
        <ele>2400.0</ele>
      </trkpt>
      <trkpt lat="44.30634" lon="6.8391">
        <time>2023-04-10T07:35:52+00:00</time>
        <ele>2400.0</ele>
      </trkpt>
      <trkpt lat="44.30634" lon="6.8391">
        <time>2023-04-10T07:35:53+00:00</time>
        <ele>2400.0</ele>
      </trkpt>
      <trkpt lat="44.30634" lon="6.8391">
        <time>2023-04-10T07:35:54+00:00</time>
        <ele>2400.0</ele>
      </trkpt>
      <trkpt lat="44.30632" lon="6.83907">
        <time>2023-04-10T07:35:55+00:00</time>
        <ele>2401.0</ele>
      </trkpt>
      <trkpt lat="44.30632" lon="6.83907">
        <time>2023-04-10T07:35:56+00:00</time>
        <ele>2401.0</ele>
      </trkpt>
      <trkpt lat="44.30632" lon="6.83907">
        <time>2023-04-10T07:35:57+00:00</time>
        <ele>2401.0</ele>
      </trkpt>
      <trkpt lat="44.30631" lon="6.83904">
        <time>2023-04-10T07:35:58+00:00</time>
        <ele>2401.0</ele>
      </trkpt>
      <trkpt lat="44.30631" lon="6.83904">
        <time>2023-04-10T07:35:59+00:00</time>
        <ele>2401.0</ele>
      </trkpt>
      <trkpt lat="44.30631" lon="6.83904">
        <time>2023-04-10T07:36:00+00:00</time>
        <ele>2401.0</ele>
      </trkpt>
      <trkpt lat="44.3063" lon="6.83902">
        <time>2023-04-10T07:36:01+00:00</time>
        <ele>2401.0</ele>
      </trkpt>
      <trkpt lat="44.3063" lon="6.83902">
        <time>2023-04-10T07:36:02+00:00</time>
        <ele>2401.0</ele>
      </trkpt>
      <trkpt lat="44.30629" lon="6.839">
        <time>2023-04-10T07:36:03+00:00</time>
        <ele>2402.0</ele>
      </trkpt>
      <trkpt lat="44.30629" lon="6.839">
        <time>2023-04-10T07:36:04+00:00</time>
        <ele>2402.0</ele>
      </trkpt>
      <trkpt lat="44.30629" lon="6.839">
        <time>2023-04-10T07:36:05+00:00</time>
        <ele>2402.0</ele>
      </trkpt>
      <trkpt lat="44.30627" lon="6.83897">
        <time>2023-04-10T07:36:06+00:00</time>
        <ele>2403.0</ele>
      </trkpt>
      <trkpt lat="44.30627" lon="6.83897">
        <time>2023-04-10T07:36:07+00:00</time>
        <ele>2403.0</ele>
      </trkpt>
      <trkpt lat="44.30626" lon="6.83895">
        <time>2023-04-10T07:36:08+00:00</time>
        <ele>2403.0</ele>
      </trkpt>
      <trkpt lat="44.30626" lon="6.83895">
        <time>2023-04-10T07:36:09+00:00</time>
        <ele>2403.0</ele>
      </trkpt>
      <trkpt lat="44.30626" lon="6.83895">
        <time>2023-04-10T07:36:10+00:00</time>
        <ele>2403.0</ele>
      </trkpt>
      <trkpt lat="44.30624" lon="6.83893">
        <time>2023-04-10T07:36:11+00:00</time>
        <ele>2403.0</ele>
      </trkpt>
      <trkpt lat="44.30624" lon="6.83893">
        <time>2023-04-10T07:36:12+00:00</time>
        <ele>2403.0</ele>
      </trkpt>
      <trkpt lat="44.30622" lon="6.83891">
        <time>2023-04-10T07:36:13+00:00</time>
        <ele>2404.0</ele>
      </trkpt>
      <trkpt lat="44.30622" lon="6.83891">
        <time>2023-04-10T07:36:14+00:00</time>
        <ele>2404.0</ele>
      </trkpt>
      <trkpt lat="44.30621" lon="6.83889">
        <time>2023-04-10T07:36:15+00:00</time>
        <ele>2404.0</ele>
      </trkpt>
      <trkpt lat="44.30621" lon="6.83889">
        <time>2023-04-10T07:36:16+00:00</time>
        <ele>2404.0</ele>
      </trkpt>
      <trkpt lat="44.30621" lon="6.83889">
        <time>2023-04-10T07:36:17+00:00</time>
        <ele>2404.0</ele>
      </trkpt>
      <trkpt lat="44.30619" lon="6.83886">
        <time>2023-04-10T07:36:18+00:00</time>
        <ele>2405.0</ele>
      </trkpt>
      <trkpt lat="44.30619" lon="6.83886">
        <time>2023-04-10T07:36:19+00:00</time>
        <ele>2405.0</ele>
      </trkpt>
      <trkpt lat="44.30618" lon="6.83884">
        <time>2023-04-10T07:36:20+00:00</time>
        <ele>2405.0</ele>
      </trkpt>
      <trkpt lat="44.30618" lon="6.83884">
        <time>2023-04-10T07:36:21+00:00</time>
        <ele>2405.0</ele>
      </trkpt>
      <trkpt lat="44.30618" lon="6.83884">
        <time>2023-04-10T07:36:22+00:00</time>
        <ele>2405.0</ele>
      </trkpt>
      <trkpt lat="44.30617" lon="6.83881">
        <time>2023-04-10T07:36:23+00:00</time>
        <ele>2406.0</ele>
      </trkpt>
      <trkpt lat="44.30617" lon="6.83881">
        <time>2023-04-10T07:36:24+00:00</time>
        <ele>2406.0</ele>
      </trkpt>
      <trkpt lat="44.30617" lon="6.83881">
        <time>2023-04-10T07:36:25+00:00</time>
        <ele>2406.0</ele>
      </trkpt>
      <trkpt lat="44.30615" lon="6.83878">
        <time>2023-04-10T07:36:26+00:00</time>
        <ele>2406.0</ele>
      </trkpt>
      <trkpt lat="44.30615" lon="6.83878">
        <time>2023-04-10T07:36:27+00:00</time>
        <ele>2406.0</ele>
      </trkpt>
      <trkpt lat="44.30615" lon="6.83878">
        <time>2023-04-10T07:36:28+00:00</time>
        <ele>2406.0</ele>
      </trkpt>
      <trkpt lat="44.30615" lon="6.83878">
        <time>2023-04-10T07:36:29+00:00</time>
        <ele>2406.0</ele>
      </trkpt>
      <trkpt lat="44.30614" lon="6.83875">
        <time>2023-04-10T07:36:30+00:00</time>
        <ele>2406.0</ele>
      </trkpt>
      <trkpt lat="44.30614" lon="6.83875">
        <time>2023-04-10T07:36:31+00:00</time>
        <ele>2406.0</ele>
      </trkpt>
      <trkpt lat="44.30613" lon="6.83874">
        <time>2023-04-10T07:36:32+00:00</time>
        <ele>2407.0</ele>
      </trkpt>
      <trkpt lat="44.30613" lon="6.83874">
        <time>2023-04-10T07:36:33+00:00</time>
        <ele>2407.0</ele>
      </trkpt>
      <trkpt lat="44.30613" lon="6.83874">
        <time>2023-04-10T07:36:34+00:00</time>
        <ele>2407.0</ele>
      </trkpt>
      <trkpt lat="44.30612" lon="6.83871">
        <time>2023-04-10T07:36:35+00:00</time>
        <ele>2407.0</ele>
      </trkpt>
      <trkpt lat="44.30612" lon="6.83871">
        <time>2023-04-10T07:36:36+00:00</time>
        <ele>2407.0</ele>
      </trkpt>
      <trkpt lat="44.30611" lon="6.83869">
        <time>2023-04-10T07:36:37+00:00</time>
        <ele>2408.0</ele>
      </trkpt>
      <trkpt lat="44.30611" lon="6.83869">
        <time>2023-04-10T07:36:38+00:00</time>
        <ele>2408.0</ele>
      </trkpt>
      <trkpt lat="44.30611" lon="6.83869">
        <time>2023-04-10T07:36:39+00:00</time>
        <ele>2408.0</ele>
      </trkpt>
      <trkpt lat="44.30611" lon="6.83869">
        <time>2023-04-10T07:36:40+00:00</time>
        <ele>2408.0</ele>
      </trkpt>
      <trkpt lat="44.30611" lon="6.83866">
        <time>2023-04-10T07:36:41+00:00</time>
        <ele>2408.0</ele>
      </trkpt>
      <trkpt lat="44.30611" lon="6.83866">
        <time>2023-04-10T07:36:42+00:00</time>
        <ele>2408.0</ele>
      </trkpt>
      <trkpt lat="44.30611" lon="6.83866">
        <time>2023-04-10T07:36:43+00:00</time>
        <ele>2408.0</ele>
      </trkpt>
      <trkpt lat="44.3061" lon="6.83864">
        <time>2023-04-10T07:36:44+00:00</time>
        <ele>2409.0</ele>
      </trkpt>
      <trkpt lat="44.3061" lon="6.83864">
        <time>2023-04-10T07:36:45+00:00</time>
        <ele>2409.0</ele>
      </trkpt>
      <trkpt lat="44.3061" lon="6.83864">
        <time>2023-04-10T07:36:46+00:00</time>
        <ele>2409.0</ele>
      </trkpt>
      <trkpt lat="44.30608" lon="6.83862">
        <time>2023-04-10T07:36:47+00:00</time>
        <ele>2409.0</ele>
      </trkpt>
      <trkpt lat="44.30608" lon="6.83862">
        <time>2023-04-10T07:36:48+00:00</time>
        <ele>2409.0</ele>
      </trkpt>
      <trkpt lat="44.30608" lon="6.83862">
        <time>2023-04-10T07:36:49+00:00</time>
        <ele>2409.0</ele>
      </trkpt>
      <trkpt lat="44.30608" lon="6.83859">
        <time>2023-04-10T07:36:50+00:00</time>
        <ele>2410.0</ele>
      </trkpt>
      <trkpt lat="44.30608" lon="6.83859">
        <time>2023-04-10T07:36:51+00:00</time>
        <ele>2410.0</ele>
      </trkpt>
      <trkpt lat="44.30608" lon="6.83859">
        <time>2023-04-10T07:36:52+00:00</time>
        <ele>2410.0</ele>
      </trkpt>
      <trkpt lat="44.30607" lon="6.83856">
        <time>2023-04-10T07:36:53+00:00</time>
        <ele>2410.0</ele>
      </trkpt>
      <trkpt lat="44.30607" lon="6.83856">
        <time>2023-04-10T07:36:54+00:00</time>
        <ele>2410.0</ele>
      </trkpt>
      <trkpt lat="44.30607" lon="6.83856">
        <time>2023-04-10T07:36:55+00:00</time>
        <ele>2410.0</ele>
      </trkpt>
      <trkpt lat="44.30606" lon="6.83854">
        <time>2023-04-10T07:36:56+00:00</time>
        <ele>2411.0</ele>
      </trkpt>
      <trkpt lat="44.30606" lon="6.83854">
        <time>2023-04-10T07:36:57+00:00</time>
        <ele>2411.0</ele>
      </trkpt>
      <trkpt lat="44.30607" lon="6.83851">
        <time>2023-04-10T07:36:58+00:00</time>
        <ele>2411.0</ele>
      </trkpt>
      <trkpt lat="44.30607" lon="6.83851">
        <time>2023-04-10T07:36:59+00:00</time>
        <ele>2411.0</ele>
      </trkpt>
      <trkpt lat="44.30606" lon="6.83848">
        <time>2023-04-10T07:37:00+00:00</time>
        <ele>2412.0</ele>
      </trkpt>
      <trkpt lat="44.30606" lon="6.83848">
        <time>2023-04-10T07:37:01+00:00</time>
        <ele>2412.0</ele>
      </trkpt>
      <trkpt lat="44.30606" lon="6.83846">
        <time>2023-04-10T07:37:02+00:00</time>
        <ele>2412.0</ele>
      </trkpt>
      <trkpt lat="44.30606" lon="6.83846">
        <time>2023-04-10T07:37:03+00:00</time>
        <ele>2412.0</ele>
      </trkpt>
      <trkpt lat="44.30606" lon="6.83846">
        <time>2023-04-10T07:37:04+00:00</time>
        <ele>2412.0</ele>
      </trkpt>
      <trkpt lat="44.30607" lon="6.83842">
        <time>2023-04-10T07:37:05+00:00</time>
        <ele>2412.0</ele>
      </trkpt>
      <trkpt lat="44.30607" lon="6.83842">
        <time>2023-04-10T07:37:06+00:00</time>
        <ele>2412.0</ele>
      </trkpt>
      <trkpt lat="44.30608" lon="6.8384">
        <time>2023-04-10T07:37:07+00:00</time>
        <ele>2413.0</ele>
      </trkpt>
      <trkpt lat="44.30608" lon="6.8384">
        <time>2023-04-10T07:37:08+00:00</time>
        <ele>2413.0</ele>
      </trkpt>
      <trkpt lat="44.30608" lon="6.83838">
        <time>2023-04-10T07:37:09+00:00</time>
        <ele>2413.0</ele>
      </trkpt>
      <trkpt lat="44.30608" lon="6.83838">
        <time>2023-04-10T07:37:10+00:00</time>
        <ele>2413.0</ele>
      </trkpt>
      <trkpt lat="44.30609" lon="6.83835">
        <time>2023-04-10T07:37:11+00:00</time>
        <ele>2413.0</ele>
      </trkpt>
      <trkpt lat="44.30609" lon="6.83835">
        <time>2023-04-10T07:37:12+00:00</time>
        <ele>2413.0</ele>
      </trkpt>
      <trkpt lat="44.30609" lon="6.83835">
        <time>2023-04-10T07:37:13+00:00</time>
        <ele>2413.0</ele>
      </trkpt>
      <trkpt lat="44.3061" lon="6.83832">
        <time>2023-04-10T07:37:14+00:00</time>
        <ele>2414.0</ele>
      </trkpt>
      <trkpt lat="44.3061" lon="6.83832">
        <time>2023-04-10T07:37:15+00:00</time>
        <ele>2414.0</ele>
      </trkpt>
      <trkpt lat="44.30611" lon="6.8383">
        <time>2023-04-10T07:37:16+00:00</time>
        <ele>2414.0</ele>
      </trkpt>
      <trkpt lat="44.30611" lon="6.8383">
        <time>2023-04-10T07:37:17+00:00</time>
        <ele>2414.0</ele>
      </trkpt>
      <trkpt lat="44.30612" lon="6.83828">
        <time>2023-04-10T07:37:18+00:00</time>
        <ele>2414.0</ele>
      </trkpt>
      <trkpt lat="44.30612" lon="6.83828">
        <time>2023-04-10T07:37:19+00:00</time>
        <ele>2414.0</ele>
      </trkpt>
      <trkpt lat="44.30612" lon="6.83828">
        <time>2023-04-10T07:37:20+00:00</time>
        <ele>2414.0</ele>
      </trkpt>
      <trkpt lat="44.30613" lon="6.83825">
        <time>2023-04-10T07:37:21+00:00</time>
        <ele>2415.0</ele>
      </trkpt>
      <trkpt lat="44.30613" lon="6.83825">
        <time>2023-04-10T07:37:22+00:00</time>
        <ele>2415.0</ele>
      </trkpt>
      <trkpt lat="44.30613" lon="6.83822">
        <time>2023-04-10T07:37:23+00:00</time>
        <ele>2415.0</ele>
      </trkpt>
      <trkpt lat="44.30613" lon="6.83822">
        <time>2023-04-10T07:37:24+00:00</time>
        <ele>2415.0</ele>
      </trkpt>
      <trkpt lat="44.30613" lon="6.83822">
        <time>2023-04-10T07:37:25+00:00</time>
        <ele>2415.0</ele>
      </trkpt>
      <trkpt lat="44.30614" lon="6.83819">
        <time>2023-04-10T07:37:26+00:00</time>
        <ele>2415.0</ele>
      </trkpt>
      <trkpt lat="44.30614" lon="6.83819">
        <time>2023-04-10T07:37:27+00:00</time>
        <ele>2415.0</ele>
      </trkpt>
      <trkpt lat="44.30614" lon="6.83819">
        <time>2023-04-10T07:37:28+00:00</time>
        <ele>2415.0</ele>
      </trkpt>
      <trkpt lat="44.30615" lon="6.83816">
        <time>2023-04-10T07:37:29+00:00</time>
        <ele>2416.0</ele>
      </trkpt>
      <trkpt lat="44.30615" lon="6.83816">
        <time>2023-04-10T07:37:30+00:00</time>
        <ele>2416.0</ele>
      </trkpt>
      <trkpt lat="44.30615" lon="6.83816">
        <time>2023-04-10T07:37:31+00:00</time>
        <ele>2416.0</ele>
      </trkpt>
      <trkpt lat="44.30616" lon="6.83814">
        <time>2023-04-10T07:37:32+00:00</time>
        <ele>2416.0</ele>
      </trkpt>
      <trkpt lat="44.30616" lon="6.83814">
        <time>2023-04-10T07:37:33+00:00</time>
        <ele>2416.0</ele>
      </trkpt>
      <trkpt lat="44.30616" lon="6.83814">
        <time>2023-04-10T07:37:34+00:00</time>
        <ele>2416.0</ele>
      </trkpt>
      <trkpt lat="44.30617" lon="6.83811">
        <time>2023-04-10T07:37:35+00:00</time>
        <ele>2417.0</ele>
      </trkpt>
      <trkpt lat="44.30617" lon="6.83811">
        <time>2023-04-10T07:37:36+00:00</time>
        <ele>2417.0</ele>
      </trkpt>
      <trkpt lat="44.30618" lon="6.83809">
        <time>2023-04-10T07:37:37+00:00</time>
        <ele>2417.0</ele>
      </trkpt>
      <trkpt lat="44.30618" lon="6.83809">
        <time>2023-04-10T07:37:38+00:00</time>
        <ele>2417.0</ele>
      </trkpt>
      <trkpt lat="44.30618" lon="6.83809">
        <time>2023-04-10T07:37:39+00:00</time>
        <ele>2417.0</ele>
      </trkpt>
      <trkpt lat="44.3062" lon="6.83807">
        <time>2023-04-10T07:37:40+00:00</time>
        <ele>2417.0</ele>
      </trkpt>
      <trkpt lat="44.3062" lon="6.83807">
        <time>2023-04-10T07:37:41+00:00</time>
        <ele>2417.0</ele>
      </trkpt>
      <trkpt lat="44.3062" lon="6.83807">
        <time>2023-04-10T07:37:42+00:00</time>
        <ele>2417.0</ele>
      </trkpt>
      <trkpt lat="44.30621" lon="6.83804">
        <time>2023-04-10T07:37:43+00:00</time>
        <ele>2418.0</ele>
      </trkpt>
      <trkpt lat="44.30621" lon="6.83804">
        <time>2023-04-10T07:37:44+00:00</time>
        <ele>2418.0</ele>
      </trkpt>
      <trkpt lat="44.30622" lon="6.83802">
        <time>2023-04-10T07:37:45+00:00</time>
        <ele>2418.0</ele>
      </trkpt>
      <trkpt lat="44.30622" lon="6.83802">
        <time>2023-04-10T07:37:46+00:00</time>
        <ele>2418.0</ele>
      </trkpt>
      <trkpt lat="44.30623" lon="6.838">
        <time>2023-04-10T07:37:47+00:00</time>
        <ele>2418.0</ele>
      </trkpt>
      <trkpt lat="44.30623" lon="6.838">
        <time>2023-04-10T07:37:48+00:00</time>
        <ele>2418.0</ele>
      </trkpt>
      <trkpt lat="44.30623" lon="6.838">
        <time>2023-04-10T07:37:49+00:00</time>
        <ele>2418.0</ele>
      </trkpt>
      <trkpt lat="44.30625" lon="6.83797">
        <time>2023-04-10T07:37:50+00:00</time>
        <ele>2419.0</ele>
      </trkpt>
      <trkpt lat="44.30625" lon="6.83797">
        <time>2023-04-10T07:37:51+00:00</time>
        <ele>2419.0</ele>
      </trkpt>
      <trkpt lat="44.30626" lon="6.83795">
        <time>2023-04-10T07:37:52+00:00</time>
        <ele>2419.0</ele>
      </trkpt>
      <trkpt lat="44.30626" lon="6.83795">
        <time>2023-04-10T07:37:53+00:00</time>
        <ele>2419.0</ele>
      </trkpt>
      <trkpt lat="44.30627" lon="6.83792">
        <time>2023-04-10T07:37:54+00:00</time>
        <ele>2420.0</ele>
      </trkpt>
      <trkpt lat="44.30627" lon="6.83792">
        <time>2023-04-10T07:37:55+00:00</time>
        <ele>2420.0</ele>
      </trkpt>
      <trkpt lat="44.30627" lon="6.83792">
        <time>2023-04-10T07:37:56+00:00</time>
        <ele>2420.0</ele>
      </trkpt>
      <trkpt lat="44.30629" lon="6.83789">
        <time>2023-04-10T07:37:57+00:00</time>
        <ele>2420.0</ele>
      </trkpt>
      <trkpt lat="44.30629" lon="6.83789">
        <time>2023-04-10T07:37:58+00:00</time>
        <ele>2420.0</ele>
      </trkpt>
      <trkpt lat="44.30629" lon="6.83789">
        <time>2023-04-10T07:37:59+00:00</time>
        <ele>2420.0</ele>
      </trkpt>
      <trkpt lat="44.3063" lon="6.83786">
        <time>2023-04-10T07:38:00+00:00</time>
        <ele>2421.0</ele>
      </trkpt>
      <trkpt lat="44.3063" lon="6.83786">
        <time>2023-04-10T07:38:01+00:00</time>
        <ele>2421.0</ele>
      </trkpt>
      <trkpt lat="44.3063" lon="6.83786">
        <time>2023-04-10T07:38:02+00:00</time>
        <ele>2421.0</ele>
      </trkpt>
      <trkpt lat="44.30632" lon="6.83783">
        <time>2023-04-10T07:38:03+00:00</time>
        <ele>2421.0</ele>
      </trkpt>
      <trkpt lat="44.30632" lon="6.83783">
        <time>2023-04-10T07:38:04+00:00</time>
        <ele>2421.0</ele>
      </trkpt>
      <trkpt lat="44.30632" lon="6.83783">
        <time>2023-04-10T07:38:05+00:00</time>
        <ele>2421.0</ele>
      </trkpt>
      <trkpt lat="44.30633" lon="6.8378">
        <time>2023-04-10T07:38:06+00:00</time>
        <ele>2421.0</ele>
      </trkpt>
      <trkpt lat="44.30633" lon="6.8378">
        <time>2023-04-10T07:38:07+00:00</time>
        <ele>2421.0</ele>
      </trkpt>
      <trkpt lat="44.30633" lon="6.8378">
        <time>2023-04-10T07:38:08+00:00</time>
        <ele>2421.0</ele>
      </trkpt>
      <trkpt lat="44.30634" lon="6.83777">
        <time>2023-04-10T07:38:09+00:00</time>
        <ele>2421.0</ele>
      </trkpt>
      <trkpt lat="44.30634" lon="6.83777">
        <time>2023-04-10T07:38:10+00:00</time>
        <ele>2421.0</ele>
      </trkpt>
      <trkpt lat="44.30635" lon="6.83775">
        <time>2023-04-10T07:38:11+00:00</time>
        <ele>2422.0</ele>
      </trkpt>
      <trkpt lat="44.30635" lon="6.83775">
        <time>2023-04-10T07:38:12+00:00</time>
        <ele>2422.0</ele>
      </trkpt>
      <trkpt lat="44.30636" lon="6.83773">
        <time>2023-04-10T07:38:13+00:00</time>
        <ele>2422.0</ele>
      </trkpt>
      <trkpt lat="44.30636" lon="6.83773">
        <time>2023-04-10T07:38:14+00:00</time>
        <ele>2422.0</ele>
      </trkpt>
      <trkpt lat="44.30637" lon="6.83771">
        <time>2023-04-10T07:38:15+00:00</time>
        <ele>2422.0</ele>
      </trkpt>
      <trkpt lat="44.30637" lon="6.83771">
        <time>2023-04-10T07:38:16+00:00</time>
        <ele>2422.0</ele>
      </trkpt>
      <trkpt lat="44.30637" lon="6.83771">
        <time>2023-04-10T07:38:17+00:00</time>
        <ele>2422.0</ele>
      </trkpt>
      <trkpt lat="44.30638" lon="6.83768">
        <time>2023-04-10T07:38:18+00:00</time>
        <ele>2422.0</ele>
      </trkpt>
      <trkpt lat="44.30638" lon="6.83768">
        <time>2023-04-10T07:38:19+00:00</time>
        <ele>2422.0</ele>
      </trkpt>
      <trkpt lat="44.30638" lon="6.83765">
        <time>2023-04-10T07:38:20+00:00</time>
        <ele>2422.0</ele>
      </trkpt>
      <trkpt lat="44.30638" lon="6.83765">
        <time>2023-04-10T07:38:21+00:00</time>
        <ele>2422.0</ele>
      </trkpt>
      <trkpt lat="44.30638" lon="6.83765">
        <time>2023-04-10T07:38:22+00:00</time>
        <ele>2422.0</ele>
      </trkpt>
      <trkpt lat="44.30638" lon="6.83762">
        <time>2023-04-10T07:38:23+00:00</time>
        <ele>2423.0</ele>
      </trkpt>
      <trkpt lat="44.30638" lon="6.83762">
        <time>2023-04-10T07:38:24+00:00</time>
        <ele>2423.0</ele>
      </trkpt>
      <trkpt lat="44.30638" lon="6.83762">
        <time>2023-04-10T07:38:25+00:00</time>
        <ele>2423.0</ele>
      </trkpt>
      <trkpt lat="44.30639" lon="6.83759">
        <time>2023-04-10T07:38:26+00:00</time>
        <ele>2423.0</ele>
      </trkpt>
      <trkpt lat="44.30639" lon="6.83759">
        <time>2023-04-10T07:38:27+00:00</time>
        <ele>2423.0</ele>
      </trkpt>
      <trkpt lat="44.30639" lon="6.83759">
        <time>2023-04-10T07:38:28+00:00</time>
        <ele>2423.0</ele>
      </trkpt>
      <trkpt lat="44.3064" lon="6.83756">
        <time>2023-04-10T07:38:29+00:00</time>
        <ele>2424.0</ele>
      </trkpt>
      <trkpt lat="44.3064" lon="6.83756">
        <time>2023-04-10T07:38:30+00:00</time>
        <ele>2424.0</ele>
      </trkpt>
      <trkpt lat="44.3064" lon="6.83756">
        <time>2023-04-10T07:38:31+00:00</time>
        <ele>2424.0</ele>
      </trkpt>
      <trkpt lat="44.30641" lon="6.83753">
        <time>2023-04-10T07:38:32+00:00</time>
        <ele>2424.0</ele>
      </trkpt>
      <trkpt lat="44.30641" lon="6.83753">
        <time>2023-04-10T07:38:33+00:00</time>
        <ele>2424.0</ele>
      </trkpt>
      <trkpt lat="44.30642" lon="6.8375">
        <time>2023-04-10T07:38:34+00:00</time>
        <ele>2425.0</ele>
      </trkpt>
      <trkpt lat="44.30642" lon="6.8375">
        <time>2023-04-10T07:38:35+00:00</time>
        <ele>2425.0</ele>
      </trkpt>
      <trkpt lat="44.30643" lon="6.83748">
        <time>2023-04-10T07:38:36+00:00</time>
        <ele>2425.0</ele>
      </trkpt>
      <trkpt lat="44.30643" lon="6.83748">
        <time>2023-04-10T07:38:37+00:00</time>
        <ele>2425.0</ele>
      </trkpt>
      <trkpt lat="44.30643" lon="6.83748">
        <time>2023-04-10T07:38:38+00:00</time>
        <ele>2425.0</ele>
      </trkpt>
      <trkpt lat="44.30644" lon="6.83745">
        <time>2023-04-10T07:38:39+00:00</time>
        <ele>2425.0</ele>
      </trkpt>
      <trkpt lat="44.30644" lon="6.83745">
        <time>2023-04-10T07:38:40+00:00</time>
        <ele>2425.0</ele>
      </trkpt>
      <trkpt lat="44.30644" lon="6.83745">
        <time>2023-04-10T07:38:41+00:00</time>
        <ele>2425.0</ele>
      </trkpt>
      <trkpt lat="44.30644" lon="6.83742">
        <time>2023-04-10T07:38:42+00:00</time>
        <ele>2426.0</ele>
      </trkpt>
      <trkpt lat="44.30644" lon="6.83742">
        <time>2023-04-10T07:38:43+00:00</time>
        <ele>2426.0</ele>
      </trkpt>
      <trkpt lat="44.30644" lon="6.83739">
        <time>2023-04-10T07:38:44+00:00</time>
        <ele>2426.0</ele>
      </trkpt>
      <trkpt lat="44.30644" lon="6.83739">
        <time>2023-04-10T07:38:45+00:00</time>
        <ele>2426.0</ele>
      </trkpt>
      <trkpt lat="44.30644" lon="6.83737">
        <time>2023-04-10T07:38:46+00:00</time>
        <ele>2427.0</ele>
      </trkpt>
      <trkpt lat="44.30644" lon="6.83737">
        <time>2023-04-10T07:38:47+00:00</time>
        <ele>2427.0</ele>
      </trkpt>
      <trkpt lat="44.30643" lon="6.83734">
        <time>2023-04-10T07:38:48+00:00</time>
        <ele>2427.0</ele>
      </trkpt>
      <trkpt lat="44.30643" lon="6.83734">
        <time>2023-04-10T07:38:49+00:00</time>
        <ele>2427.0</ele>
      </trkpt>
      <trkpt lat="44.30643" lon="6.83734">
        <time>2023-04-10T07:38:50+00:00</time>
        <ele>2427.0</ele>
      </trkpt>
      <trkpt lat="44.30644" lon="6.83731">
        <time>2023-04-10T07:38:51+00:00</time>
        <ele>2428.0</ele>
      </trkpt>
      <trkpt lat="44.30644" lon="6.83731">
        <time>2023-04-10T07:38:52+00:00</time>
        <ele>2428.0</ele>
      </trkpt>
      <trkpt lat="44.30644" lon="6.83731">
        <time>2023-04-10T07:38:53+00:00</time>
        <ele>2428.0</ele>
      </trkpt>
      <trkpt lat="44.30645" lon="6.83727">
        <time>2023-04-10T07:38:54+00:00</time>
        <ele>2429.0</ele>
      </trkpt>
      <trkpt lat="44.30645" lon="6.83727">
        <time>2023-04-10T07:38:55+00:00</time>
        <ele>2429.0</ele>
      </trkpt>
      <trkpt lat="44.30645" lon="6.83727">
        <time>2023-04-10T07:38:56+00:00</time>
        <ele>2429.0</ele>
      </trkpt>
      <trkpt lat="44.30646" lon="6.83724">
        <time>2023-04-10T07:38:57+00:00</time>
        <ele>2429.0</ele>
      </trkpt>
      <trkpt lat="44.30646" lon="6.83724">
        <time>2023-04-10T07:38:58+00:00</time>
        <ele>2429.0</ele>
      </trkpt>
      <trkpt lat="44.30646" lon="6.83724">
        <time>2023-04-10T07:38:59+00:00</time>
        <ele>2429.0</ele>
      </trkpt>
      <trkpt lat="44.30646" lon="6.83721">
        <time>2023-04-10T07:39:00+00:00</time>
        <ele>2430.0</ele>
      </trkpt>
      <trkpt lat="44.30646" lon="6.83721">
        <time>2023-04-10T07:39:01+00:00</time>
        <ele>2430.0</ele>
      </trkpt>
      <trkpt lat="44.30647" lon="6.83719">
        <time>2023-04-10T07:39:02+00:00</time>
        <ele>2430.0</ele>
      </trkpt>
      <trkpt lat="44.30647" lon="6.83719">
        <time>2023-04-10T07:39:03+00:00</time>
        <ele>2430.0</ele>
      </trkpt>
      <trkpt lat="44.30648" lon="6.83716">
        <time>2023-04-10T07:39:04+00:00</time>
        <ele>2431.0</ele>
      </trkpt>
      <trkpt lat="44.30648" lon="6.83716">
        <time>2023-04-10T07:39:05+00:00</time>
        <ele>2431.0</ele>
      </trkpt>
      <trkpt lat="44.30649" lon="6.83714">
        <time>2023-04-10T07:39:06+00:00</time>
        <ele>2431.0</ele>
      </trkpt>
      <trkpt lat="44.30649" lon="6.83714">
        <time>2023-04-10T07:39:07+00:00</time>
        <ele>2431.0</ele>
      </trkpt>
      <trkpt lat="44.30649" lon="6.83714">
        <time>2023-04-10T07:39:08+00:00</time>
        <ele>2431.0</ele>
      </trkpt>
      <trkpt lat="44.30649" lon="6.83711">
        <time>2023-04-10T07:39:09+00:00</time>
        <ele>2432.0</ele>
      </trkpt>
      <trkpt lat="44.30649" lon="6.83711">
        <time>2023-04-10T07:39:10+00:00</time>
        <ele>2432.0</ele>
      </trkpt>
      <trkpt lat="44.3065" lon="6.83708">
        <time>2023-04-10T07:39:11+00:00</time>
        <ele>2432.0</ele>
      </trkpt>
      <trkpt lat="44.3065" lon="6.83708">
        <time>2023-04-10T07:39:12+00:00</time>
        <ele>2432.0</ele>
      </trkpt>
      <trkpt lat="44.3065" lon="6.83708">
        <time>2023-04-10T07:39:13+00:00</time>
        <ele>2432.0</ele>
      </trkpt>
      <trkpt lat="44.30651" lon="6.83704">
        <time>2023-04-10T07:39:14+00:00</time>
        <ele>2432.0</ele>
      </trkpt>
      <trkpt lat="44.30651" lon="6.83704">
        <time>2023-04-10T07:39:15+00:00</time>
        <ele>2432.0</ele>
      </trkpt>
      <trkpt lat="44.30652" lon="6.83702">
        <time>2023-04-10T07:39:16+00:00</time>
        <ele>2433.0</ele>
      </trkpt>
      <trkpt lat="44.30652" lon="6.83702">
        <time>2023-04-10T07:39:17+00:00</time>
        <ele>2433.0</ele>
      </trkpt>
      <trkpt lat="44.30652" lon="6.83702">
        <time>2023-04-10T07:39:18+00:00</time>
        <ele>2433.0</ele>
      </trkpt>
      <trkpt lat="44.30652" lon="6.83698">
        <time>2023-04-10T07:39:19+00:00</time>
        <ele>2433.0</ele>
      </trkpt>
      <trkpt lat="44.30652" lon="6.83698">
        <time>2023-04-10T07:39:20+00:00</time>
        <ele>2433.0</ele>
      </trkpt>
      <trkpt lat="44.30652" lon="6.83695">
        <time>2023-04-10T07:39:21+00:00</time>
        <ele>2434.0</ele>
      </trkpt>
      <trkpt lat="44.30652" lon="6.83695">
        <time>2023-04-10T07:39:22+00:00</time>
        <ele>2434.0</ele>
      </trkpt>
      <trkpt lat="44.30653" lon="6.83693">
        <time>2023-04-10T07:39:23+00:00</time>
        <ele>2434.0</ele>
      </trkpt>
      <trkpt lat="44.30653" lon="6.83693">
        <time>2023-04-10T07:39:24+00:00</time>
        <ele>2434.0</ele>
      </trkpt>
      <trkpt lat="44.30653" lon="6.8369">
        <time>2023-04-10T07:39:25+00:00</time>
        <ele>2434.0</ele>
      </trkpt>
      <trkpt lat="44.30653" lon="6.8369">
        <time>2023-04-10T07:39:26+00:00</time>
        <ele>2434.0</ele>
      </trkpt>
      <trkpt lat="44.30653" lon="6.8369">
        <time>2023-04-10T07:39:27+00:00</time>
        <ele>2434.0</ele>
      </trkpt>
      <trkpt lat="44.30653" lon="6.83686">
        <time>2023-04-10T07:39:28+00:00</time>
        <ele>2435.0</ele>
      </trkpt>
      <trkpt lat="44.30653" lon="6.83686">
        <time>2023-04-10T07:39:29+00:00</time>
        <ele>2435.0</ele>
      </trkpt>
      <trkpt lat="44.30653" lon="6.83686">
        <time>2023-04-10T07:39:30+00:00</time>
        <ele>2435.0</ele>
      </trkpt>
      <trkpt lat="44.30652" lon="6.83683">
        <time>2023-04-10T07:39:31+00:00</time>
        <ele>2435.0</ele>
      </trkpt>
      <trkpt lat="44.30652" lon="6.83683">
        <time>2023-04-10T07:39:32+00:00</time>
        <ele>2435.0</ele>
      </trkpt>
      <trkpt lat="44.30652" lon="6.8368">
        <time>2023-04-10T07:39:33+00:00</time>
        <ele>2435.0</ele>
      </trkpt>
      <trkpt lat="44.30652" lon="6.8368">
        <time>2023-04-10T07:39:34+00:00</time>
        <ele>2435.0</ele>
      </trkpt>
      <trkpt lat="44.30652" lon="6.83677">
        <time>2023-04-10T07:39:35+00:00</time>
        <ele>2436.0</ele>
      </trkpt>
      <trkpt lat="44.30652" lon="6.83677">
        <time>2023-04-10T07:39:36+00:00</time>
        <ele>2436.0</ele>
      </trkpt>
      <trkpt lat="44.30652" lon="6.83674">
        <time>2023-04-10T07:39:37+00:00</time>
        <ele>2436.0</ele>
      </trkpt>
      <trkpt lat="44.30652" lon="6.83674">
        <time>2023-04-10T07:39:38+00:00</time>
        <ele>2436.0</ele>
      </trkpt>
      <trkpt lat="44.30652" lon="6.83671">
        <time>2023-04-10T07:39:39+00:00</time>
        <ele>2436.0</ele>
      </trkpt>
      <trkpt lat="44.30652" lon="6.83671">
        <time>2023-04-10T07:39:40+00:00</time>
        <ele>2436.0</ele>
      </trkpt>
      <trkpt lat="44.30651" lon="6.83667">
        <time>2023-04-10T07:39:41+00:00</time>
        <ele>2436.0</ele>
      </trkpt>
      <trkpt lat="44.30651" lon="6.83665">
        <time>2023-04-10T07:39:42+00:00</time>
        <ele>2436.0</ele>
      </trkpt>
      <trkpt lat="44.30651" lon="6.83665">
        <time>2023-04-10T07:39:43+00:00</time>
        <ele>2436.0</ele>
      </trkpt>
      <trkpt lat="44.30651" lon="6.83661">
        <time>2023-04-10T07:39:44+00:00</time>
        <ele>2436.0</ele>
      </trkpt>
      <trkpt lat="44.30651" lon="6.83661">
        <time>2023-04-10T07:39:45+00:00</time>
        <ele>2436.0</ele>
      </trkpt>
      <trkpt lat="44.30651" lon="6.83661">
        <time>2023-04-10T07:39:46+00:00</time>
        <ele>2436.0</ele>
      </trkpt>
      <trkpt lat="44.3065" lon="6.83657">
        <time>2023-04-10T07:39:47+00:00</time>
        <ele>2437.0</ele>
      </trkpt>
      <trkpt lat="44.3065" lon="6.83657">
        <time>2023-04-10T07:39:48+00:00</time>
        <ele>2437.0</ele>
      </trkpt>
      <trkpt lat="44.3065" lon="6.83654">
        <time>2023-04-10T07:39:49+00:00</time>
        <ele>2436.0</ele>
      </trkpt>
      <trkpt lat="44.3065" lon="6.83651">
        <time>2023-04-10T07:39:50+00:00</time>
        <ele>2436.0</ele>
      </trkpt>
      <trkpt lat="44.3065" lon="6.83651">
        <time>2023-04-10T07:39:51+00:00</time>
        <ele>2436.0</ele>
      </trkpt>
      <trkpt lat="44.3065" lon="6.83646">
        <time>2023-04-10T07:39:52+00:00</time>
        <ele>2436.0</ele>
      </trkpt>
      <trkpt lat="44.3065" lon="6.83646">
        <time>2023-04-10T07:39:53+00:00</time>
        <ele>2436.0</ele>
      </trkpt>
      <trkpt lat="44.30649" lon="6.83641">
        <time>2023-04-10T07:39:54+00:00</time>
        <ele>2436.0</ele>
      </trkpt>
      <trkpt lat="44.30649" lon="6.83641">
        <time>2023-04-10T07:39:55+00:00</time>
        <ele>2436.0</ele>
      </trkpt>
      <trkpt lat="44.30649" lon="6.83637">
        <time>2023-04-10T07:39:56+00:00</time>
        <ele>2436.0</ele>
      </trkpt>
      <trkpt lat="44.30649" lon="6.83634">
        <time>2023-04-10T07:39:57+00:00</time>
        <ele>2436.0</ele>
      </trkpt>
      <trkpt lat="44.30649" lon="6.83634">
        <time>2023-04-10T07:39:58+00:00</time>
        <ele>2436.0</ele>
      </trkpt>
      <trkpt lat="44.30649" lon="6.83629">
        <time>2023-04-10T07:39:59+00:00</time>
        <ele>2436.0</ele>
      </trkpt>
      <trkpt lat="44.3065" lon="6.83627">
        <time>2023-04-10T07:40:01+00:00</time>
        <ele>2436.0</ele>
      </trkpt>
      <trkpt lat="44.3065" lon="6.83626">
        <time>2023-04-10T07:40:02+00:00</time>
        <ele>2436.0</ele>
      </trkpt>
      <trkpt lat="44.3065" lon="6.83623">
        <time>2023-04-10T07:40:03+00:00</time>
        <ele>2436.0</ele>
      </trkpt>
      <trkpt lat="44.3065" lon="6.83623">
        <time>2023-04-10T07:40:04+00:00</time>
        <ele>2436.0</ele>
      </trkpt>
      <trkpt lat="44.3065" lon="6.8362">
        <time>2023-04-10T07:40:05+00:00</time>
        <ele>2436.0</ele>
      </trkpt>
      <trkpt lat="44.3065" lon="6.8362">
        <time>2023-04-10T07:40:06+00:00</time>
        <ele>2436.0</ele>
      </trkpt>
      <trkpt lat="44.3065" lon="6.83617">
        <time>2023-04-10T07:40:07+00:00</time>
        <ele>2436.0</ele>
      </trkpt>
      <trkpt lat="44.3065" lon="6.83617">
        <time>2023-04-10T07:40:08+00:00</time>
        <ele>2436.0</ele>
      </trkpt>
      <trkpt lat="44.3065" lon="6.83614">
        <time>2023-04-10T07:40:09+00:00</time>
        <ele>2436.0</ele>
      </trkpt>
      <trkpt lat="44.3065" lon="6.83614">
        <time>2023-04-10T07:40:10+00:00</time>
        <ele>2436.0</ele>
      </trkpt>
      <trkpt lat="44.3065" lon="6.83611">
        <time>2023-04-10T07:40:11+00:00</time>
        <ele>2436.0</ele>
      </trkpt>
      <trkpt lat="44.3065" lon="6.83611">
        <time>2023-04-10T07:40:12+00:00</time>
        <ele>2436.0</ele>
      </trkpt>
      <trkpt lat="44.30649" lon="6.83608">
        <time>2023-04-10T07:40:13+00:00</time>
        <ele>2436.0</ele>
      </trkpt>
      <trkpt lat="44.30649" lon="6.83608">
        <time>2023-04-10T07:40:14+00:00</time>
        <ele>2436.0</ele>
      </trkpt>
      <trkpt lat="44.30649" lon="6.83608">
        <time>2023-04-10T07:40:15+00:00</time>
        <ele>2436.0</ele>
      </trkpt>
      <trkpt lat="44.30649" lon="6.83604">
        <time>2023-04-10T07:40:16+00:00</time>
        <ele>2436.0</ele>
      </trkpt>
      <trkpt lat="44.30649" lon="6.83604">
        <time>2023-04-10T07:40:17+00:00</time>
        <ele>2436.0</ele>
      </trkpt>
      <trkpt lat="44.30649" lon="6.83604">
        <time>2023-04-10T07:40:18+00:00</time>
        <ele>2436.0</ele>
      </trkpt>
      <trkpt lat="44.30649" lon="6.83601">
        <time>2023-04-10T07:40:19+00:00</time>
        <ele>2436.0</ele>
      </trkpt>
      <trkpt lat="44.30649" lon="6.83601">
        <time>2023-04-10T07:40:20+00:00</time>
        <ele>2436.0</ele>
      </trkpt>
      <trkpt lat="44.30649" lon="6.83598">
        <time>2023-04-10T07:40:21+00:00</time>
        <ele>2436.0</ele>
      </trkpt>
      <trkpt lat="44.30649" lon="6.83598">
        <time>2023-04-10T07:40:22+00:00</time>
        <ele>2436.0</ele>
      </trkpt>
      <trkpt lat="44.30649" lon="6.83595">
        <time>2023-04-10T07:40:23+00:00</time>
        <ele>2436.0</ele>
      </trkpt>
      <trkpt lat="44.30649" lon="6.83595">
        <time>2023-04-10T07:40:24+00:00</time>
        <ele>2436.0</ele>
      </trkpt>
      <trkpt lat="44.3065" lon="6.83591">
        <time>2023-04-10T07:40:25+00:00</time>
        <ele>2436.0</ele>
      </trkpt>
      <trkpt lat="44.3065" lon="6.83591">
        <time>2023-04-10T07:40:26+00:00</time>
        <ele>2436.0</ele>
      </trkpt>
      <trkpt lat="44.3065" lon="6.83587">
        <time>2023-04-10T07:40:28+00:00</time>
        <ele>2436.0</ele>
      </trkpt>
      <trkpt lat="44.3065" lon="6.83587">
        <time>2023-04-10T07:40:29+00:00</time>
        <ele>2436.0</ele>
      </trkpt>
      <trkpt lat="44.30651" lon="6.83584">
        <time>2023-04-10T07:40:30+00:00</time>
        <ele>2436.0</ele>
      </trkpt>
      <trkpt lat="44.30651" lon="6.83584">
        <time>2023-04-10T07:40:31+00:00</time>
        <ele>2436.0</ele>
      </trkpt>
      <trkpt lat="44.30652" lon="6.83582">
        <time>2023-04-10T07:40:32+00:00</time>
        <ele>2436.0</ele>
      </trkpt>
      <trkpt lat="44.30652" lon="6.83582">
        <time>2023-04-10T07:40:33+00:00</time>
        <ele>2436.0</ele>
      </trkpt>
      <trkpt lat="44.30652" lon="6.83582">
        <time>2023-04-10T07:40:34+00:00</time>
        <ele>2436.0</ele>
      </trkpt>
      <trkpt lat="44.30652" lon="6.83578">
        <time>2023-04-10T07:40:35+00:00</time>
        <ele>2436.0</ele>
      </trkpt>
      <trkpt lat="44.30652" lon="6.83578">
        <time>2023-04-10T07:40:36+00:00</time>
        <ele>2436.0</ele>
      </trkpt>
      <trkpt lat="44.30652" lon="6.83578">
        <time>2023-04-10T07:40:37+00:00</time>
        <ele>2436.0</ele>
      </trkpt>
      <trkpt lat="44.30653" lon="6.83575">
        <time>2023-04-10T07:40:38+00:00</time>
        <ele>2436.0</ele>
      </trkpt>
      <trkpt lat="44.30653" lon="6.83575">
        <time>2023-04-10T07:40:39+00:00</time>
        <ele>2436.0</ele>
      </trkpt>
      <trkpt lat="44.30653" lon="6.83575">
        <time>2023-04-10T07:40:40+00:00</time>
        <ele>2436.0</ele>
      </trkpt>
      <trkpt lat="44.30652" lon="6.83571">
        <time>2023-04-10T07:40:41+00:00</time>
        <ele>2437.0</ele>
      </trkpt>
      <trkpt lat="44.30652" lon="6.83571">
        <time>2023-04-10T07:40:42+00:00</time>
        <ele>2437.0</ele>
      </trkpt>
      <trkpt lat="44.3065" lon="6.83569">
        <time>2023-04-10T07:40:43+00:00</time>
        <ele>2437.0</ele>
      </trkpt>
      <trkpt lat="44.3065" lon="6.83569">
        <time>2023-04-10T07:40:44+00:00</time>
        <ele>2437.0</ele>
      </trkpt>
      <trkpt lat="44.3065" lon="6.83569">
        <time>2023-04-10T07:40:45+00:00</time>
        <ele>2437.0</ele>
      </trkpt>
      <trkpt lat="44.3065" lon="6.83565">
        <time>2023-04-10T07:40:46+00:00</time>
        <ele>2437.0</ele>
      </trkpt>
      <trkpt lat="44.3065" lon="6.83565">
        <time>2023-04-10T07:40:47+00:00</time>
        <ele>2437.0</ele>
      </trkpt>
      <trkpt lat="44.3065" lon="6.83565">
        <time>2023-04-10T07:40:48+00:00</time>
        <ele>2437.0</ele>
      </trkpt>
      <trkpt lat="44.30649" lon="6.83561">
        <time>2023-04-10T07:40:49+00:00</time>
        <ele>2438.0</ele>
      </trkpt>
      <trkpt lat="44.30649" lon="6.83561">
        <time>2023-04-10T07:40:50+00:00</time>
        <ele>2438.0</ele>
      </trkpt>
      <trkpt lat="44.30649" lon="6.83561">
        <time>2023-04-10T07:40:51+00:00</time>
        <ele>2438.0</ele>
      </trkpt>
      <trkpt lat="44.30648" lon="6.83558">
        <time>2023-04-10T07:40:52+00:00</time>
        <ele>2438.0</ele>
      </trkpt>
      <trkpt lat="44.30648" lon="6.83558">
        <time>2023-04-10T07:40:53+00:00</time>
        <ele>2438.0</ele>
      </trkpt>
      <trkpt lat="44.30648" lon="6.83558">
        <time>2023-04-10T07:40:54+00:00</time>
        <ele>2438.0</ele>
      </trkpt>
      <trkpt lat="44.30648" lon="6.83555">
        <time>2023-04-10T07:40:55+00:00</time>
        <ele>2439.0</ele>
      </trkpt>
      <trkpt lat="44.30648" lon="6.83555">
        <time>2023-04-10T07:40:56+00:00</time>
        <ele>2439.0</ele>
      </trkpt>
      <trkpt lat="44.30647" lon="6.83552">
        <time>2023-04-10T07:40:57+00:00</time>
        <ele>2439.0</ele>
      </trkpt>
      <trkpt lat="44.30647" lon="6.83552">
        <time>2023-04-10T07:40:58+00:00</time>
        <ele>2439.0</ele>
      </trkpt>
      <trkpt lat="44.30647" lon="6.83549">
        <time>2023-04-10T07:40:59+00:00</time>
        <ele>2440.0</ele>
      </trkpt>
      <trkpt lat="44.30647" lon="6.83549">
        <time>2023-04-10T07:41:00+00:00</time>
        <ele>2440.0</ele>
      </trkpt>
      <trkpt lat="44.30647" lon="6.83549">
        <time>2023-04-10T07:41:01+00:00</time>
        <ele>2440.0</ele>
      </trkpt>
      <trkpt lat="44.30646" lon="6.83546">
        <time>2023-04-10T07:41:02+00:00</time>
        <ele>2440.0</ele>
      </trkpt>
      <trkpt lat="44.30646" lon="6.83546">
        <time>2023-04-10T07:41:03+00:00</time>
        <ele>2440.0</ele>
      </trkpt>
      <trkpt lat="44.30646" lon="6.83544">
        <time>2023-04-10T07:41:04+00:00</time>
        <ele>2440.0</ele>
      </trkpt>
      <trkpt lat="44.30646" lon="6.83544">
        <time>2023-04-10T07:41:05+00:00</time>
        <ele>2440.0</ele>
      </trkpt>
      <trkpt lat="44.30645" lon="6.83541">
        <time>2023-04-10T07:41:06+00:00</time>
        <ele>2441.0</ele>
      </trkpt>
      <trkpt lat="44.30645" lon="6.83541">
        <time>2023-04-10T07:41:07+00:00</time>
        <ele>2441.0</ele>
      </trkpt>
      <trkpt lat="44.30645" lon="6.83538">
        <time>2023-04-10T07:41:08+00:00</time>
        <ele>2441.0</ele>
      </trkpt>
      <trkpt lat="44.30645" lon="6.83538">
        <time>2023-04-10T07:41:09+00:00</time>
        <ele>2441.0</ele>
      </trkpt>
      <trkpt lat="44.30645" lon="6.83535">
        <time>2023-04-10T07:41:10+00:00</time>
        <ele>2442.0</ele>
      </trkpt>
      <trkpt lat="44.30645" lon="6.83535">
        <time>2023-04-10T07:41:11+00:00</time>
        <ele>2442.0</ele>
      </trkpt>
      <trkpt lat="44.30645" lon="6.83535">
        <time>2023-04-10T07:41:12+00:00</time>
        <ele>2442.0</ele>
      </trkpt>
      <trkpt lat="44.30646" lon="6.83532">
        <time>2023-04-10T07:41:13+00:00</time>
        <ele>2442.0</ele>
      </trkpt>
      <trkpt lat="44.30646" lon="6.83532">
        <time>2023-04-10T07:41:14+00:00</time>
        <ele>2442.0</ele>
      </trkpt>
      <trkpt lat="44.30646" lon="6.8353">
        <time>2023-04-10T07:41:15+00:00</time>
        <ele>2442.0</ele>
      </trkpt>
      <trkpt lat="44.30646" lon="6.8353">
        <time>2023-04-10T07:41:16+00:00</time>
        <ele>2442.0</ele>
      </trkpt>
      <trkpt lat="44.30646" lon="6.8353">
        <time>2023-04-10T07:41:17+00:00</time>
        <ele>2442.0</ele>
      </trkpt>
      <trkpt lat="44.30646" lon="6.83527">
        <time>2023-04-10T07:41:18+00:00</time>
        <ele>2443.0</ele>
      </trkpt>
      <trkpt lat="44.30646" lon="6.83527">
        <time>2023-04-10T07:41:19+00:00</time>
        <ele>2443.0</ele>
      </trkpt>
      <trkpt lat="44.30646" lon="6.83527">
        <time>2023-04-10T07:41:20+00:00</time>
        <ele>2443.0</ele>
      </trkpt>
      <trkpt lat="44.30647" lon="6.83524">
        <time>2023-04-10T07:41:21+00:00</time>
        <ele>2443.0</ele>
      </trkpt>
      <trkpt lat="44.30647" lon="6.83524">
        <time>2023-04-10T07:41:22+00:00</time>
        <ele>2443.0</ele>
      </trkpt>
      <trkpt lat="44.30648" lon="6.8352">
        <time>2023-04-10T07:41:23+00:00</time>
        <ele>2444.0</ele>
      </trkpt>
      <trkpt lat="44.30648" lon="6.8352">
        <time>2023-04-10T07:41:24+00:00</time>
        <ele>2444.0</ele>
      </trkpt>
      <trkpt lat="44.30648" lon="6.83516">
        <time>2023-04-10T07:41:25+00:00</time>
        <ele>2444.0</ele>
      </trkpt>
      <trkpt lat="44.30648" lon="6.83516">
        <time>2023-04-10T07:41:26+00:00</time>
        <ele>2444.0</ele>
      </trkpt>
      <trkpt lat="44.30648" lon="6.83516">
        <time>2023-04-10T07:41:27+00:00</time>
        <ele>2444.0</ele>
      </trkpt>
      <trkpt lat="44.30648" lon="6.83516">
        <time>2023-04-10T07:41:28+00:00</time>
        <ele>2444.0</ele>
      </trkpt>
      <trkpt lat="44.30648" lon="6.83512">
        <time>2023-04-10T07:41:29+00:00</time>
        <ele>2445.0</ele>
      </trkpt>
      <trkpt lat="44.30648" lon="6.83512">
        <time>2023-04-10T07:41:30+00:00</time>
        <ele>2445.0</ele>
      </trkpt>
      <trkpt lat="44.30648" lon="6.83512">
        <time>2023-04-10T07:41:31+00:00</time>
        <ele>2445.0</ele>
      </trkpt>
      <trkpt lat="44.30648" lon="6.83509">
        <time>2023-04-10T07:41:32+00:00</time>
        <ele>2446.0</ele>
      </trkpt>
      <trkpt lat="44.30648" lon="6.83509">
        <time>2023-04-10T07:41:33+00:00</time>
        <ele>2446.0</ele>
      </trkpt>
      <trkpt lat="44.30648" lon="6.83509">
        <time>2023-04-10T07:41:34+00:00</time>
        <ele>2446.0</ele>
      </trkpt>
      <trkpt lat="44.30649" lon="6.83506">
        <time>2023-04-10T07:41:35+00:00</time>
        <ele>2446.0</ele>
      </trkpt>
      <trkpt lat="44.30649" lon="6.83506">
        <time>2023-04-10T07:41:36+00:00</time>
        <ele>2446.0</ele>
      </trkpt>
      <trkpt lat="44.30649" lon="6.83506">
        <time>2023-04-10T07:41:37+00:00</time>
        <ele>2446.0</ele>
      </trkpt>
      <trkpt lat="44.30649" lon="6.83502">
        <time>2023-04-10T07:41:38+00:00</time>
        <ele>2447.0</ele>
      </trkpt>
      <trkpt lat="44.30649" lon="6.83502">
        <time>2023-04-10T07:41:39+00:00</time>
        <ele>2447.0</ele>
      </trkpt>
      <trkpt lat="44.30649" lon="6.83499">
        <time>2023-04-10T07:41:40+00:00</time>
        <ele>2447.0</ele>
      </trkpt>
      <trkpt lat="44.30649" lon="6.83499">
        <time>2023-04-10T07:41:41+00:00</time>
        <ele>2447.0</ele>
      </trkpt>
      <trkpt lat="44.3065" lon="6.83497">
        <time>2023-04-10T07:41:42+00:00</time>
        <ele>2447.0</ele>
      </trkpt>
      <trkpt lat="44.3065" lon="6.83497">
        <time>2023-04-10T07:41:43+00:00</time>
        <ele>2447.0</ele>
      </trkpt>
      <trkpt lat="44.30651" lon="6.83494">
        <time>2023-04-10T07:41:44+00:00</time>
        <ele>2447.0</ele>
      </trkpt>
      <trkpt lat="44.30651" lon="6.83494">
        <time>2023-04-10T07:41:45+00:00</time>
        <ele>2447.0</ele>
      </trkpt>
      <trkpt lat="44.30652" lon="6.83491">
        <time>2023-04-10T07:41:46+00:00</time>
        <ele>2448.0</ele>
      </trkpt>
      <trkpt lat="44.30652" lon="6.83491">
        <time>2023-04-10T07:41:47+00:00</time>
        <ele>2448.0</ele>
      </trkpt>
      <trkpt lat="44.30653" lon="6.83488">
        <time>2023-04-10T07:41:48+00:00</time>
        <ele>2448.0</ele>
      </trkpt>
      <trkpt lat="44.30653" lon="6.83488">
        <time>2023-04-10T07:41:49+00:00</time>
        <ele>2448.0</ele>
      </trkpt>
      <trkpt lat="44.30654" lon="6.83485">
        <time>2023-04-10T07:41:50+00:00</time>
        <ele>2448.0</ele>
      </trkpt>
      <trkpt lat="44.30654" lon="6.83485">
        <time>2023-04-10T07:41:51+00:00</time>
        <ele>2448.0</ele>
      </trkpt>
      <trkpt lat="44.30656" lon="6.83482">
        <time>2023-04-10T07:41:52+00:00</time>
        <ele>2448.0</ele>
      </trkpt>
      <trkpt lat="44.30656" lon="6.83482">
        <time>2023-04-10T07:41:53+00:00</time>
        <ele>2448.0</ele>
      </trkpt>
      <trkpt lat="44.30657" lon="6.83478">
        <time>2023-04-10T07:41:54+00:00</time>
        <ele>2448.0</ele>
      </trkpt>
      <trkpt lat="44.30657" lon="6.83478">
        <time>2023-04-10T07:41:55+00:00</time>
        <ele>2448.0</ele>
      </trkpt>
      <trkpt lat="44.30657" lon="6.83476">
        <time>2023-04-10T07:41:56+00:00</time>
        <ele>2448.0</ele>
      </trkpt>
      <trkpt lat="44.30657" lon="6.83476">
        <time>2023-04-10T07:41:57+00:00</time>
        <ele>2448.0</ele>
      </trkpt>
      <trkpt lat="44.30659" lon="6.83473">
        <time>2023-04-10T07:41:58+00:00</time>
        <ele>2447.0</ele>
      </trkpt>
      <trkpt lat="44.30659" lon="6.83473">
        <time>2023-04-10T07:41:59+00:00</time>
        <ele>2447.0</ele>
      </trkpt>
      <trkpt lat="44.3066" lon="6.8347">
        <time>2023-04-10T07:42:00+00:00</time>
        <ele>2447.0</ele>
      </trkpt>
      <trkpt lat="44.3066" lon="6.8347">
        <time>2023-04-10T07:42:01+00:00</time>
        <ele>2447.0</ele>
      </trkpt>
      <trkpt lat="44.30661" lon="6.83466">
        <time>2023-04-10T07:42:02+00:00</time>
        <ele>2448.0</ele>
      </trkpt>
      <trkpt lat="44.30661" lon="6.83466">
        <time>2023-04-10T07:42:03+00:00</time>
        <ele>2448.0</ele>
      </trkpt>
      <trkpt lat="44.30662" lon="6.83463">
        <time>2023-04-10T07:42:04+00:00</time>
        <ele>2448.0</ele>
      </trkpt>
      <trkpt lat="44.30662" lon="6.83463">
        <time>2023-04-10T07:42:05+00:00</time>
        <ele>2448.0</ele>
      </trkpt>
      <trkpt lat="44.30663" lon="6.83461">
        <time>2023-04-10T07:42:06+00:00</time>
        <ele>2448.0</ele>
      </trkpt>
      <trkpt lat="44.30663" lon="6.83461">
        <time>2023-04-10T07:42:07+00:00</time>
        <ele>2448.0</ele>
      </trkpt>
      <trkpt lat="44.30663" lon="6.83461">
        <time>2023-04-10T07:42:08+00:00</time>
        <ele>2448.0</ele>
      </trkpt>
      <trkpt lat="44.30664" lon="6.83458">
        <time>2023-04-10T07:42:09+00:00</time>
        <ele>2448.0</ele>
      </trkpt>
      <trkpt lat="44.30664" lon="6.83458">
        <time>2023-04-10T07:42:10+00:00</time>
        <ele>2448.0</ele>
      </trkpt>
      <trkpt lat="44.30665" lon="6.83455">
        <time>2023-04-10T07:42:11+00:00</time>
        <ele>2448.0</ele>
      </trkpt>
      <trkpt lat="44.30665" lon="6.83455">
        <time>2023-04-10T07:42:12+00:00</time>
        <ele>2448.0</ele>
      </trkpt>
      <trkpt lat="44.30665" lon="6.83452">
        <time>2023-04-10T07:42:13+00:00</time>
        <ele>2448.0</ele>
      </trkpt>
      <trkpt lat="44.30665" lon="6.83452">
        <time>2023-04-10T07:42:14+00:00</time>
        <ele>2448.0</ele>
      </trkpt>
      <trkpt lat="44.30666" lon="6.83449">
        <time>2023-04-10T07:42:15+00:00</time>
        <ele>2449.0</ele>
      </trkpt>
      <trkpt lat="44.30666" lon="6.83449">
        <time>2023-04-10T07:42:16+00:00</time>
        <ele>2449.0</ele>
      </trkpt>
      <trkpt lat="44.30667" lon="6.83446">
        <time>2023-04-10T07:42:17+00:00</time>
        <ele>2449.0</ele>
      </trkpt>
      <trkpt lat="44.30667" lon="6.83446">
        <time>2023-04-10T07:42:18+00:00</time>
        <ele>2449.0</ele>
      </trkpt>
      <trkpt lat="44.30668" lon="6.83444">
        <time>2023-04-10T07:42:19+00:00</time>
        <ele>2449.0</ele>
      </trkpt>
      <trkpt lat="44.30668" lon="6.83444">
        <time>2023-04-10T07:42:20+00:00</time>
        <ele>2449.0</ele>
      </trkpt>
      <trkpt lat="44.30668" lon="6.83444">
        <time>2023-04-10T07:42:21+00:00</time>
        <ele>2449.0</ele>
      </trkpt>
      <trkpt lat="44.30669" lon="6.8344">
        <time>2023-04-10T07:42:22+00:00</time>
        <ele>2449.0</ele>
      </trkpt>
      <trkpt lat="44.30669" lon="6.8344">
        <time>2023-04-10T07:42:23+00:00</time>
        <ele>2449.0</ele>
      </trkpt>
      <trkpt lat="44.30668" lon="6.83437">
        <time>2023-04-10T07:42:24+00:00</time>
        <ele>2449.0</ele>
      </trkpt>
      <trkpt lat="44.30668" lon="6.83437">
        <time>2023-04-10T07:42:25+00:00</time>
        <ele>2449.0</ele>
      </trkpt>
      <trkpt lat="44.30669" lon="6.83435">
        <time>2023-04-10T07:42:26+00:00</time>
        <ele>2449.0</ele>
      </trkpt>
      <trkpt lat="44.30669" lon="6.83435">
        <time>2023-04-10T07:42:27+00:00</time>
        <ele>2449.0</ele>
      </trkpt>
      <trkpt lat="44.3067" lon="6.83432">
        <time>2023-04-10T07:42:28+00:00</time>
        <ele>2450.0</ele>
      </trkpt>
      <trkpt lat="44.3067" lon="6.83432">
        <time>2023-04-10T07:42:29+00:00</time>
        <ele>2450.0</ele>
      </trkpt>
      <trkpt lat="44.3067" lon="6.83432">
        <time>2023-04-10T07:42:30+00:00</time>
        <ele>2450.0</ele>
      </trkpt>
      <trkpt lat="44.3067" lon="6.83428">
        <time>2023-04-10T07:42:31+00:00</time>
        <ele>2450.0</ele>
      </trkpt>
      <trkpt lat="44.3067" lon="6.83428">
        <time>2023-04-10T07:42:32+00:00</time>
        <ele>2450.0</ele>
      </trkpt>
      <trkpt lat="44.3067" lon="6.83426">
        <time>2023-04-10T07:42:33+00:00</time>
        <ele>2450.0</ele>
      </trkpt>
      <trkpt lat="44.3067" lon="6.83426">
        <time>2023-04-10T07:42:34+00:00</time>
        <ele>2450.0</ele>
      </trkpt>
      <trkpt lat="44.30672" lon="6.83423">
        <time>2023-04-10T07:42:35+00:00</time>
        <ele>2450.0</ele>
      </trkpt>
      <trkpt lat="44.30672" lon="6.83423">
        <time>2023-04-10T07:42:36+00:00</time>
        <ele>2450.0</ele>
      </trkpt>
      <trkpt lat="44.30672" lon="6.83423">
        <time>2023-04-10T07:42:37+00:00</time>
        <ele>2450.0</ele>
      </trkpt>
      <trkpt lat="44.30672" lon="6.8342">
        <time>2023-04-10T07:42:38+00:00</time>
        <ele>2450.0</ele>
      </trkpt>
      <trkpt lat="44.30672" lon="6.8342">
        <time>2023-04-10T07:42:39+00:00</time>
        <ele>2450.0</ele>
      </trkpt>
      <trkpt lat="44.30673" lon="6.83417">
        <time>2023-04-10T07:42:40+00:00</time>
        <ele>2450.0</ele>
      </trkpt>
      <trkpt lat="44.30673" lon="6.83417">
        <time>2023-04-10T07:42:41+00:00</time>
        <ele>2450.0</ele>
      </trkpt>
      <trkpt lat="44.30673" lon="6.83417">
        <time>2023-04-10T07:42:42+00:00</time>
        <ele>2450.0</ele>
      </trkpt>
      <trkpt lat="44.30674" lon="6.83414">
        <time>2023-04-10T07:42:43+00:00</time>
        <ele>2451.0</ele>
      </trkpt>
      <trkpt lat="44.30674" lon="6.83414">
        <time>2023-04-10T07:42:44+00:00</time>
        <ele>2451.0</ele>
      </trkpt>
      <trkpt lat="44.30674" lon="6.83414">
        <time>2023-04-10T07:42:45+00:00</time>
        <ele>2451.0</ele>
      </trkpt>
      <trkpt lat="44.30675" lon="6.83411">
        <time>2023-04-10T07:42:46+00:00</time>
        <ele>2451.0</ele>
      </trkpt>
      <trkpt lat="44.30675" lon="6.83411">
        <time>2023-04-10T07:42:47+00:00</time>
        <ele>2451.0</ele>
      </trkpt>
      <trkpt lat="44.30675" lon="6.83411">
        <time>2023-04-10T07:42:48+00:00</time>
        <ele>2451.0</ele>
      </trkpt>
      <trkpt lat="44.30676" lon="6.83408">
        <time>2023-04-10T07:42:49+00:00</time>
        <ele>2451.0</ele>
      </trkpt>
      <trkpt lat="44.30676" lon="6.83408">
        <time>2023-04-10T07:42:50+00:00</time>
        <ele>2451.0</ele>
      </trkpt>
      <trkpt lat="44.30676" lon="6.83408">
        <time>2023-04-10T07:42:51+00:00</time>
        <ele>2451.0</ele>
      </trkpt>
      <trkpt lat="44.30677" lon="6.83405">
        <time>2023-04-10T07:42:52+00:00</time>
        <ele>2452.0</ele>
      </trkpt>
      <trkpt lat="44.30677" lon="6.83405">
        <time>2023-04-10T07:42:53+00:00</time>
        <ele>2452.0</ele>
      </trkpt>
      <trkpt lat="44.30677" lon="6.83405">
        <time>2023-04-10T07:42:54+00:00</time>
        <ele>2452.0</ele>
      </trkpt>
      <trkpt lat="44.30677" lon="6.83402">
        <time>2023-04-10T07:42:55+00:00</time>
        <ele>2452.0</ele>
      </trkpt>
      <trkpt lat="44.30677" lon="6.83402">
        <time>2023-04-10T07:42:56+00:00</time>
        <ele>2452.0</ele>
      </trkpt>
      <trkpt lat="44.30677" lon="6.83402">
        <time>2023-04-10T07:42:57+00:00</time>
        <ele>2452.0</ele>
      </trkpt>
      <trkpt lat="44.30677" lon="6.83399">
        <time>2023-04-10T07:42:58+00:00</time>
        <ele>2452.0</ele>
      </trkpt>
      <trkpt lat="44.30677" lon="6.83399">
        <time>2023-04-10T07:42:59+00:00</time>
        <ele>2452.0</ele>
      </trkpt>
      <trkpt lat="44.30677" lon="6.83399">
        <time>2023-04-10T07:43:00+00:00</time>
        <ele>2452.0</ele>
      </trkpt>
      <trkpt lat="44.30677" lon="6.83396">
        <time>2023-04-10T07:43:01+00:00</time>
        <ele>2453.0</ele>
      </trkpt>
      <trkpt lat="44.30677" lon="6.83396">
        <time>2023-04-10T07:43:02+00:00</time>
        <ele>2453.0</ele>
      </trkpt>
      <trkpt lat="44.30677" lon="6.83396">
        <time>2023-04-10T07:43:03+00:00</time>
        <ele>2453.0</ele>
      </trkpt>
      <trkpt lat="44.30679" lon="6.83393">
        <time>2023-04-10T07:43:04+00:00</time>
        <ele>2453.0</ele>
      </trkpt>
      <trkpt lat="44.30679" lon="6.83393">
        <time>2023-04-10T07:43:05+00:00</time>
        <ele>2453.0</ele>
      </trkpt>
      <trkpt lat="44.30678" lon="6.83389">
        <time>2023-04-10T07:43:06+00:00</time>
        <ele>2453.0</ele>
      </trkpt>
      <trkpt lat="44.30678" lon="6.83389">
        <time>2023-04-10T07:43:07+00:00</time>
        <ele>2453.0</ele>
      </trkpt>
      <trkpt lat="44.30679" lon="6.83387">
        <time>2023-04-10T07:43:08+00:00</time>
        <ele>2454.0</ele>
      </trkpt>
      <trkpt lat="44.30679" lon="6.83387">
        <time>2023-04-10T07:43:09+00:00</time>
        <ele>2454.0</ele>
      </trkpt>
      <trkpt lat="44.30679" lon="6.83387">
        <time>2023-04-10T07:43:10+00:00</time>
        <ele>2454.0</ele>
      </trkpt>
      <trkpt lat="44.30681" lon="6.83386">
        <time>2023-04-10T07:43:11+00:00</time>
        <ele>2454.0</ele>
      </trkpt>
      <trkpt lat="44.30681" lon="6.83386">
        <time>2023-04-10T07:43:12+00:00</time>
        <ele>2454.0</ele>
      </trkpt>
      <trkpt lat="44.3068" lon="6.83382">
        <time>2023-04-10T07:43:13+00:00</time>
        <ele>2454.0</ele>
      </trkpt>
      <trkpt lat="44.3068" lon="6.83382">
        <time>2023-04-10T07:43:14+00:00</time>
        <ele>2454.0</ele>
      </trkpt>
      <trkpt lat="44.30681" lon="6.83379">
        <time>2023-04-10T07:43:15+00:00</time>
        <ele>2455.0</ele>
      </trkpt>
      <trkpt lat="44.30681" lon="6.83379">
        <time>2023-04-10T07:43:16+00:00</time>
        <ele>2455.0</ele>
      </trkpt>
      <trkpt lat="44.3068" lon="6.83376">
        <time>2023-04-10T07:43:17+00:00</time>
        <ele>2455.0</ele>
      </trkpt>
      <trkpt lat="44.30681" lon="6.83373">
        <time>2023-04-10T07:43:18+00:00</time>
        <ele>2455.0</ele>
      </trkpt>
      <trkpt lat="44.30681" lon="6.83373">
        <time>2023-04-10T07:43:19+00:00</time>
        <ele>2455.0</ele>
      </trkpt>
      <trkpt lat="44.30681" lon="6.8337">
        <time>2023-04-10T07:43:20+00:00</time>
        <ele>2455.0</ele>
      </trkpt>
      <trkpt lat="44.30681" lon="6.8337">
        <time>2023-04-10T07:43:21+00:00</time>
        <ele>2455.0</ele>
      </trkpt>
      <trkpt lat="44.30681" lon="6.8337">
        <time>2023-04-10T07:43:22+00:00</time>
        <ele>2455.0</ele>
      </trkpt>
      <trkpt lat="44.30682" lon="6.83367">
        <time>2023-04-10T07:43:23+00:00</time>
        <ele>2456.0</ele>
      </trkpt>
      <trkpt lat="44.30682" lon="6.83367">
        <time>2023-04-10T07:43:24+00:00</time>
        <ele>2456.0</ele>
      </trkpt>
      <trkpt lat="44.30682" lon="6.83367">
        <time>2023-04-10T07:43:25+00:00</time>
        <ele>2456.0</ele>
      </trkpt>
      <trkpt lat="44.30683" lon="6.83364">
        <time>2023-04-10T07:43:26+00:00</time>
        <ele>2456.0</ele>
      </trkpt>
      <trkpt lat="44.30683" lon="6.83364">
        <time>2023-04-10T07:43:27+00:00</time>
        <ele>2456.0</ele>
      </trkpt>
      <trkpt lat="44.30683" lon="6.83361">
        <time>2023-04-10T07:43:28+00:00</time>
        <ele>2456.0</ele>
      </trkpt>
      <trkpt lat="44.30683" lon="6.83361">
        <time>2023-04-10T07:43:29+00:00</time>
        <ele>2456.0</ele>
      </trkpt>
      <trkpt lat="44.30683" lon="6.83361">
        <time>2023-04-10T07:43:30+00:00</time>
        <ele>2456.0</ele>
      </trkpt>
      <trkpt lat="44.30684" lon="6.83357">
        <time>2023-04-10T07:43:31+00:00</time>
        <ele>2457.0</ele>
      </trkpt>
      <trkpt lat="44.30684" lon="6.83357">
        <time>2023-04-10T07:43:32+00:00</time>
        <ele>2457.0</ele>
      </trkpt>
      <trkpt lat="44.30684" lon="6.83354">
        <time>2023-04-10T07:43:33+00:00</time>
        <ele>2457.0</ele>
      </trkpt>
      <trkpt lat="44.30684" lon="6.83354">
        <time>2023-04-10T07:43:34+00:00</time>
        <ele>2457.0</ele>
      </trkpt>
      <trkpt lat="44.30684" lon="6.83354">
        <time>2023-04-10T07:43:35+00:00</time>
        <ele>2457.0</ele>
      </trkpt>
      <trkpt lat="44.30685" lon="6.83351">
        <time>2023-04-10T07:43:36+00:00</time>
        <ele>2457.0</ele>
      </trkpt>
      <trkpt lat="44.30685" lon="6.83351">
        <time>2023-04-10T07:43:37+00:00</time>
        <ele>2457.0</ele>
      </trkpt>
      <trkpt lat="44.30685" lon="6.83351">
        <time>2023-04-10T07:43:38+00:00</time>
        <ele>2457.0</ele>
      </trkpt>
      <trkpt lat="44.30685" lon="6.83351">
        <time>2023-04-10T07:43:39+00:00</time>
        <ele>2457.0</ele>
      </trkpt>
      <trkpt lat="44.30687" lon="6.83347">
        <time>2023-04-10T07:43:40+00:00</time>
        <ele>2458.0</ele>
      </trkpt>
      <trkpt lat="44.30687" lon="6.83347">
        <time>2023-04-10T07:43:41+00:00</time>
        <ele>2458.0</ele>
      </trkpt>
      <trkpt lat="44.30687" lon="6.83347">
        <time>2023-04-10T07:43:42+00:00</time>
        <ele>2458.0</ele>
      </trkpt>
      <trkpt lat="44.30688" lon="6.83344">
        <time>2023-04-10T07:43:43+00:00</time>
        <ele>2459.0</ele>
      </trkpt>
      <trkpt lat="44.30688" lon="6.83344">
        <time>2023-04-10T07:43:44+00:00</time>
        <ele>2459.0</ele>
      </trkpt>
      <trkpt lat="44.30688" lon="6.83344">
        <time>2023-04-10T07:43:45+00:00</time>
        <ele>2459.0</ele>
      </trkpt>
      <trkpt lat="44.30689" lon="6.83342">
        <time>2023-04-10T07:43:46+00:00</time>
        <ele>2459.0</ele>
      </trkpt>
      <trkpt lat="44.30689" lon="6.83342">
        <time>2023-04-10T07:43:47+00:00</time>
        <ele>2459.0</ele>
      </trkpt>
      <trkpt lat="44.30689" lon="6.83342">
        <time>2023-04-10T07:43:48+00:00</time>
        <ele>2459.0</ele>
      </trkpt>
      <trkpt lat="44.3069" lon="6.83338">
        <time>2023-04-10T07:43:49+00:00</time>
        <ele>2459.0</ele>
      </trkpt>
      <trkpt lat="44.3069" lon="6.83338">
        <time>2023-04-10T07:43:50+00:00</time>
        <ele>2459.0</ele>
      </trkpt>
      <trkpt lat="44.3069" lon="6.83335">
        <time>2023-04-10T07:43:51+00:00</time>
        <ele>2460.0</ele>
      </trkpt>
      <trkpt lat="44.3069" lon="6.83335">
        <time>2023-04-10T07:43:52+00:00</time>
        <ele>2460.0</ele>
      </trkpt>
      <trkpt lat="44.3069" lon="6.83332">
        <time>2023-04-10T07:43:53+00:00</time>
        <ele>2460.0</ele>
      </trkpt>
      <trkpt lat="44.3069" lon="6.83332">
        <time>2023-04-10T07:43:54+00:00</time>
        <ele>2460.0</ele>
      </trkpt>
      <trkpt lat="44.3069" lon="6.8333">
        <time>2023-04-10T07:43:55+00:00</time>
        <ele>2460.0</ele>
      </trkpt>
      <trkpt lat="44.3069" lon="6.8333">
        <time>2023-04-10T07:43:56+00:00</time>
        <ele>2460.0</ele>
      </trkpt>
      <trkpt lat="44.30691" lon="6.83327">
        <time>2023-04-10T07:43:57+00:00</time>
        <ele>2461.0</ele>
      </trkpt>
      <trkpt lat="44.30691" lon="6.83327">
        <time>2023-04-10T07:43:58+00:00</time>
        <ele>2461.0</ele>
      </trkpt>
      <trkpt lat="44.30691" lon="6.83327">
        <time>2023-04-10T07:43:59+00:00</time>
        <ele>2461.0</ele>
      </trkpt>
      <trkpt lat="44.30691" lon="6.83324">
        <time>2023-04-10T07:44:00+00:00</time>
        <ele>2461.0</ele>
      </trkpt>
      <trkpt lat="44.30691" lon="6.83324">
        <time>2023-04-10T07:44:01+00:00</time>
        <ele>2461.0</ele>
      </trkpt>
      <trkpt lat="44.3069" lon="6.83321">
        <time>2023-04-10T07:44:02+00:00</time>
        <ele>2461.0</ele>
      </trkpt>
      <trkpt lat="44.3069" lon="6.83321">
        <time>2023-04-10T07:44:03+00:00</time>
        <ele>2461.0</ele>
      </trkpt>
      <trkpt lat="44.3069" lon="6.83321">
        <time>2023-04-10T07:44:04+00:00</time>
        <ele>2461.0</ele>
      </trkpt>
      <trkpt lat="44.30691" lon="6.83318">
        <time>2023-04-10T07:44:05+00:00</time>
        <ele>2461.0</ele>
      </trkpt>
      <trkpt lat="44.30691" lon="6.83318">
        <time>2023-04-10T07:44:06+00:00</time>
        <ele>2461.0</ele>
      </trkpt>
      <trkpt lat="44.30691" lon="6.83318">
        <time>2023-04-10T07:44:07+00:00</time>
        <ele>2461.0</ele>
      </trkpt>
      <trkpt lat="44.30691" lon="6.83314">
        <time>2023-04-10T07:44:08+00:00</time>
        <ele>2462.0</ele>
      </trkpt>
      <trkpt lat="44.30691" lon="6.83314">
        <time>2023-04-10T07:44:09+00:00</time>
        <ele>2462.0</ele>
      </trkpt>
      <trkpt lat="44.30692" lon="6.83312">
        <time>2023-04-10T07:44:10+00:00</time>
        <ele>2462.0</ele>
      </trkpt>
      <trkpt lat="44.30692" lon="6.83312">
        <time>2023-04-10T07:44:11+00:00</time>
        <ele>2462.0</ele>
      </trkpt>
      <trkpt lat="44.30692" lon="6.83312">
        <time>2023-04-10T07:44:12+00:00</time>
        <ele>2462.0</ele>
      </trkpt>
      <trkpt lat="44.30692" lon="6.83308">
        <time>2023-04-10T07:44:13+00:00</time>
        <ele>2462.0</ele>
      </trkpt>
      <trkpt lat="44.30692" lon="6.83308">
        <time>2023-04-10T07:44:14+00:00</time>
        <ele>2462.0</ele>
      </trkpt>
      <trkpt lat="44.30693" lon="6.83306">
        <time>2023-04-10T07:44:15+00:00</time>
        <ele>2463.0</ele>
      </trkpt>
      <trkpt lat="44.30693" lon="6.83306">
        <time>2023-04-10T07:44:16+00:00</time>
        <ele>2463.0</ele>
      </trkpt>
      <trkpt lat="44.30693" lon="6.83303">
        <time>2023-04-10T07:44:17+00:00</time>
        <ele>2463.0</ele>
      </trkpt>
      <trkpt lat="44.30693" lon="6.83303">
        <time>2023-04-10T07:44:18+00:00</time>
        <ele>2463.0</ele>
      </trkpt>
      <trkpt lat="44.30693" lon="6.833">
        <time>2023-04-10T07:44:19+00:00</time>
        <ele>2463.0</ele>
      </trkpt>
      <trkpt lat="44.30693" lon="6.833">
        <time>2023-04-10T07:44:20+00:00</time>
        <ele>2463.0</ele>
      </trkpt>
      <trkpt lat="44.30693" lon="6.83298">
        <time>2023-04-10T07:44:21+00:00</time>
        <ele>2464.0</ele>
      </trkpt>
      <trkpt lat="44.30693" lon="6.83298">
        <time>2023-04-10T07:44:22+00:00</time>
        <ele>2464.0</ele>
      </trkpt>
      <trkpt lat="44.30693" lon="6.83298">
        <time>2023-04-10T07:44:23+00:00</time>
        <ele>2464.0</ele>
      </trkpt>
      <trkpt lat="44.30695" lon="6.83294">
        <time>2023-04-10T07:44:24+00:00</time>
        <ele>2464.0</ele>
      </trkpt>
      <trkpt lat="44.30695" lon="6.83294">
        <time>2023-04-10T07:44:25+00:00</time>
        <ele>2464.0</ele>
      </trkpt>
      <trkpt lat="44.30695" lon="6.83294">
        <time>2023-04-10T07:44:26+00:00</time>
        <ele>2464.0</ele>
      </trkpt>
      <trkpt lat="44.30696" lon="6.8329">
        <time>2023-04-10T07:44:27+00:00</time>
        <ele>2465.0</ele>
      </trkpt>
      <trkpt lat="44.30696" lon="6.8329">
        <time>2023-04-10T07:44:28+00:00</time>
        <ele>2465.0</ele>
      </trkpt>
      <trkpt lat="44.30696" lon="6.8329">
        <time>2023-04-10T07:44:29+00:00</time>
        <ele>2465.0</ele>
      </trkpt>
      <trkpt lat="44.30696" lon="6.83287">
        <time>2023-04-10T07:44:30+00:00</time>
        <ele>2465.0</ele>
      </trkpt>
      <trkpt lat="44.30696" lon="6.83287">
        <time>2023-04-10T07:44:31+00:00</time>
        <ele>2465.0</ele>
      </trkpt>
      <trkpt lat="44.30696" lon="6.83287">
        <time>2023-04-10T07:44:32+00:00</time>
        <ele>2465.0</ele>
      </trkpt>
      <trkpt lat="44.30696" lon="6.83284">
        <time>2023-04-10T07:44:33+00:00</time>
        <ele>2466.0</ele>
      </trkpt>
      <trkpt lat="44.30696" lon="6.83284">
        <time>2023-04-10T07:44:34+00:00</time>
        <ele>2466.0</ele>
      </trkpt>
      <trkpt lat="44.30696" lon="6.83284">
        <time>2023-04-10T07:44:35+00:00</time>
        <ele>2466.0</ele>
      </trkpt>
      <trkpt lat="44.30698" lon="6.83281">
        <time>2023-04-10T07:44:36+00:00</time>
        <ele>2466.0</ele>
      </trkpt>
      <trkpt lat="44.30698" lon="6.83281">
        <time>2023-04-10T07:44:37+00:00</time>
        <ele>2466.0</ele>
      </trkpt>
      <trkpt lat="44.30698" lon="6.83281">
        <time>2023-04-10T07:44:38+00:00</time>
        <ele>2466.0</ele>
      </trkpt>
      <trkpt lat="44.30699" lon="6.83278">
        <time>2023-04-10T07:44:39+00:00</time>
        <ele>2467.0</ele>
      </trkpt>
      <trkpt lat="44.30699" lon="6.83278">
        <time>2023-04-10T07:44:40+00:00</time>
        <ele>2467.0</ele>
      </trkpt>
      <trkpt lat="44.307" lon="6.83275">
        <time>2023-04-10T07:44:41+00:00</time>
        <ele>2468.0</ele>
      </trkpt>
      <trkpt lat="44.307" lon="6.83275">
        <time>2023-04-10T07:44:42+00:00</time>
        <ele>2468.0</ele>
      </trkpt>
      <trkpt lat="44.307" lon="6.83275">
        <time>2023-04-10T07:44:43+00:00</time>
        <ele>2468.0</ele>
      </trkpt>
      <trkpt lat="44.30699" lon="6.83272">
        <time>2023-04-10T07:44:44+00:00</time>
        <ele>2468.0</ele>
      </trkpt>
      <trkpt lat="44.30699" lon="6.83272">
        <time>2023-04-10T07:44:45+00:00</time>
        <ele>2468.0</ele>
      </trkpt>
      <trkpt lat="44.30699" lon="6.83272">
        <time>2023-04-10T07:44:46+00:00</time>
        <ele>2468.0</ele>
      </trkpt>
      <trkpt lat="44.30701" lon="6.83271">
        <time>2023-04-10T07:44:47+00:00</time>
        <ele>2468.0</ele>
      </trkpt>
      <trkpt lat="44.30701" lon="6.83271">
        <time>2023-04-10T07:44:48+00:00</time>
        <ele>2468.0</ele>
      </trkpt>
      <trkpt lat="44.30701" lon="6.83271">
        <time>2023-04-10T07:44:49+00:00</time>
        <ele>2468.0</ele>
      </trkpt>
      <trkpt lat="44.30701" lon="6.83268">
        <time>2023-04-10T07:44:50+00:00</time>
        <ele>2469.0</ele>
      </trkpt>
      <trkpt lat="44.30701" lon="6.83268">
        <time>2023-04-10T07:44:51+00:00</time>
        <ele>2469.0</ele>
      </trkpt>
      <trkpt lat="44.307" lon="6.83265">
        <time>2023-04-10T07:44:52+00:00</time>
        <ele>2469.0</ele>
      </trkpt>
      <trkpt lat="44.307" lon="6.83265">
        <time>2023-04-10T07:44:53+00:00</time>
        <ele>2469.0</ele>
      </trkpt>
      <trkpt lat="44.307" lon="6.83265">
        <time>2023-04-10T07:44:54+00:00</time>
        <ele>2469.0</ele>
      </trkpt>
      <trkpt lat="44.30699" lon="6.83262">
        <time>2023-04-10T07:44:55+00:00</time>
        <ele>2469.0</ele>
      </trkpt>
      <trkpt lat="44.30699" lon="6.83262">
        <time>2023-04-10T07:44:56+00:00</time>
        <ele>2469.0</ele>
      </trkpt>
      <trkpt lat="44.30698" lon="6.8326">
        <time>2023-04-10T07:44:57+00:00</time>
        <ele>2469.0</ele>
      </trkpt>
      <trkpt lat="44.30698" lon="6.8326">
        <time>2023-04-10T07:44:58+00:00</time>
        <ele>2469.0</ele>
      </trkpt>
      <trkpt lat="44.30698" lon="6.8326">
        <time>2023-04-10T07:44:59+00:00</time>
        <ele>2469.0</ele>
      </trkpt>
      <trkpt lat="44.30699" lon="6.83257">
        <time>2023-04-10T07:45:00+00:00</time>
        <ele>2470.0</ele>
      </trkpt>
      <trkpt lat="44.30699" lon="6.83257">
        <time>2023-04-10T07:45:01+00:00</time>
        <ele>2470.0</ele>
      </trkpt>
      <trkpt lat="44.30699" lon="6.83257">
        <time>2023-04-10T07:45:02+00:00</time>
        <ele>2470.0</ele>
      </trkpt>
      <trkpt lat="44.307" lon="6.83254">
        <time>2023-04-10T07:45:03+00:00</time>
        <ele>2471.0</ele>
      </trkpt>
      <trkpt lat="44.307" lon="6.83254">
        <time>2023-04-10T07:45:04+00:00</time>
        <ele>2471.0</ele>
      </trkpt>
      <trkpt lat="44.30701" lon="6.83252">
        <time>2023-04-10T07:45:05+00:00</time>
        <ele>2471.0</ele>
      </trkpt>
      <trkpt lat="44.30701" lon="6.83252">
        <time>2023-04-10T07:45:06+00:00</time>
        <ele>2471.0</ele>
      </trkpt>
      <trkpt lat="44.30701" lon="6.83252">
        <time>2023-04-10T07:45:07+00:00</time>
        <ele>2471.0</ele>
      </trkpt>
      <trkpt lat="44.30703" lon="6.83249">
        <time>2023-04-10T07:45:08+00:00</time>
        <ele>2472.0</ele>
      </trkpt>
      <trkpt lat="44.30703" lon="6.83249">
        <time>2023-04-10T07:45:09+00:00</time>
        <ele>2472.0</ele>
      </trkpt>
      <trkpt lat="44.30703" lon="6.83249">
        <time>2023-04-10T07:45:10+00:00</time>
        <ele>2472.0</ele>
      </trkpt>
      <trkpt lat="44.30705" lon="6.83247">
        <time>2023-04-10T07:45:11+00:00</time>
        <ele>2473.0</ele>
      </trkpt>
      <trkpt lat="44.30705" lon="6.83247">
        <time>2023-04-10T07:45:12+00:00</time>
        <ele>2473.0</ele>
      </trkpt>
      <trkpt lat="44.30705" lon="6.83247">
        <time>2023-04-10T07:45:13+00:00</time>
        <ele>2473.0</ele>
      </trkpt>
      <trkpt lat="44.30706" lon="6.83245">
        <time>2023-04-10T07:45:14+00:00</time>
        <ele>2474.0</ele>
      </trkpt>
      <trkpt lat="44.30706" lon="6.83245">
        <time>2023-04-10T07:45:15+00:00</time>
        <ele>2474.0</ele>
      </trkpt>
      <trkpt lat="44.30706" lon="6.83245">
        <time>2023-04-10T07:45:16+00:00</time>
        <ele>2474.0</ele>
      </trkpt>
      <trkpt lat="44.30707" lon="6.83242">
        <time>2023-04-10T07:45:17+00:00</time>
        <ele>2475.0</ele>
      </trkpt>
      <trkpt lat="44.30707" lon="6.83242">
        <time>2023-04-10T07:45:18+00:00</time>
        <ele>2475.0</ele>
      </trkpt>
      <trkpt lat="44.30707" lon="6.83242">
        <time>2023-04-10T07:45:19+00:00</time>
        <ele>2475.0</ele>
      </trkpt>
      <trkpt lat="44.30707" lon="6.83238">
        <time>2023-04-10T07:45:20+00:00</time>
        <ele>2475.0</ele>
      </trkpt>
      <trkpt lat="44.30707" lon="6.83238">
        <time>2023-04-10T07:45:21+00:00</time>
        <ele>2475.0</ele>
      </trkpt>
      <trkpt lat="44.30707" lon="6.83238">
        <time>2023-04-10T07:45:22+00:00</time>
        <ele>2475.0</ele>
      </trkpt>
      <trkpt lat="44.30707" lon="6.83235">
        <time>2023-04-10T07:45:23+00:00</time>
        <ele>2476.0</ele>
      </trkpt>
      <trkpt lat="44.30707" lon="6.83235">
        <time>2023-04-10T07:45:24+00:00</time>
        <ele>2476.0</ele>
      </trkpt>
      <trkpt lat="44.30707" lon="6.83235">
        <time>2023-04-10T07:45:25+00:00</time>
        <ele>2476.0</ele>
      </trkpt>
      <trkpt lat="44.30705" lon="6.83233">
        <time>2023-04-10T07:45:26+00:00</time>
        <ele>2476.0</ele>
      </trkpt>
      <trkpt lat="44.30705" lon="6.83233">
        <time>2023-04-10T07:45:27+00:00</time>
        <ele>2476.0</ele>
      </trkpt>
      <trkpt lat="44.30705" lon="6.83233">
        <time>2023-04-10T07:45:28+00:00</time>
        <ele>2476.0</ele>
      </trkpt>
      <trkpt lat="44.30704" lon="6.83231">
        <time>2023-04-10T07:45:29+00:00</time>
        <ele>2476.0</ele>
      </trkpt>
      <trkpt lat="44.30704" lon="6.83231">
        <time>2023-04-10T07:45:30+00:00</time>
        <ele>2476.0</ele>
      </trkpt>
      <trkpt lat="44.30704" lon="6.83231">
        <time>2023-04-10T07:45:31+00:00</time>
        <ele>2476.0</ele>
      </trkpt>
      <trkpt lat="44.30704" lon="6.83231">
        <time>2023-04-10T07:45:32+00:00</time>
        <ele>2476.0</ele>
      </trkpt>
      <trkpt lat="44.30702" lon="6.83229">
        <time>2023-04-10T07:45:33+00:00</time>
        <ele>2476.0</ele>
      </trkpt>
      <trkpt lat="44.30702" lon="6.83229">
        <time>2023-04-10T07:45:34+00:00</time>
        <ele>2476.0</ele>
      </trkpt>
      <trkpt lat="44.30702" lon="6.83229">
        <time>2023-04-10T07:45:35+00:00</time>
        <ele>2476.0</ele>
      </trkpt>
      <trkpt lat="44.30702" lon="6.83229">
        <time>2023-04-10T07:45:36+00:00</time>
        <ele>2476.0</ele>
      </trkpt>
      <trkpt lat="44.30702" lon="6.83229">
        <time>2023-04-10T07:45:37+00:00</time>
        <ele>2476.0</ele>
      </trkpt>
      <trkpt lat="44.30702" lon="6.83229">
        <time>2023-04-10T07:45:38+00:00</time>
        <ele>2476.0</ele>
      </trkpt>
      <trkpt lat="44.30701" lon="6.83227">
        <time>2023-04-10T07:45:39+00:00</time>
        <ele>2477.0</ele>
      </trkpt>
      <trkpt lat="44.30701" lon="6.83227">
        <time>2023-04-10T07:45:40+00:00</time>
        <ele>2477.0</ele>
      </trkpt>
      <trkpt lat="44.30701" lon="6.83227">
        <time>2023-04-10T07:45:41+00:00</time>
        <ele>2477.0</ele>
      </trkpt>
      <trkpt lat="44.307" lon="6.83224">
        <time>2023-04-10T07:45:42+00:00</time>
        <ele>2477.0</ele>
      </trkpt>
      <trkpt lat="44.307" lon="6.83224">
        <time>2023-04-10T07:45:43+00:00</time>
        <ele>2477.0</ele>
      </trkpt>
      <trkpt lat="44.307" lon="6.83224">
        <time>2023-04-10T07:45:44+00:00</time>
        <ele>2477.0</ele>
      </trkpt>
      <trkpt lat="44.30699" lon="6.83222">
        <time>2023-04-10T07:45:45+00:00</time>
        <ele>2478.0</ele>
      </trkpt>
      <trkpt lat="44.30699" lon="6.83222">
        <time>2023-04-10T07:45:46+00:00</time>
        <ele>2478.0</ele>
      </trkpt>
      <trkpt lat="44.30699" lon="6.83222">
        <time>2023-04-10T07:45:47+00:00</time>
        <ele>2478.0</ele>
      </trkpt>
      <trkpt lat="44.30699" lon="6.83222">
        <time>2023-04-10T07:45:48+00:00</time>
        <ele>2478.0</ele>
      </trkpt>
      <trkpt lat="44.30699" lon="6.83219">
        <time>2023-04-10T07:45:49+00:00</time>
        <ele>2478.0</ele>
      </trkpt>
      <trkpt lat="44.30699" lon="6.83219">
        <time>2023-04-10T07:45:50+00:00</time>
        <ele>2478.0</ele>
      </trkpt>
      <trkpt lat="44.30699" lon="6.83219">
        <time>2023-04-10T07:45:51+00:00</time>
        <ele>2478.0</ele>
      </trkpt>
      <trkpt lat="44.30701" lon="6.83217">
        <time>2023-04-10T07:45:52+00:00</time>
        <ele>2479.0</ele>
      </trkpt>
      <trkpt lat="44.30701" lon="6.83217">
        <time>2023-04-10T07:45:53+00:00</time>
        <ele>2479.0</ele>
      </trkpt>
      <trkpt lat="44.30701" lon="6.83217">
        <time>2023-04-10T07:45:54+00:00</time>
        <ele>2479.0</ele>
      </trkpt>
      <trkpt lat="44.307" lon="6.83214">
        <time>2023-04-10T07:45:55+00:00</time>
        <ele>2480.0</ele>
      </trkpt>
      <trkpt lat="44.307" lon="6.83214">
        <time>2023-04-10T07:45:56+00:00</time>
        <ele>2480.0</ele>
      </trkpt>
      <trkpt lat="44.307" lon="6.83214">
        <time>2023-04-10T07:45:57+00:00</time>
        <ele>2480.0</ele>
      </trkpt>
      <trkpt lat="44.307" lon="6.83214">
        <time>2023-04-10T07:45:58+00:00</time>
        <ele>2480.0</ele>
      </trkpt>
      <trkpt lat="44.307" lon="6.83211">
        <time>2023-04-10T07:45:59+00:00</time>
        <ele>2481.0</ele>
      </trkpt>
      <trkpt lat="44.307" lon="6.83211">
        <time>2023-04-10T07:46:00+00:00</time>
        <ele>2481.0</ele>
      </trkpt>
      <trkpt lat="44.307" lon="6.83211">
        <time>2023-04-10T07:46:01+00:00</time>
        <ele>2481.0</ele>
      </trkpt>
      <trkpt lat="44.307" lon="6.83211">
        <time>2023-04-10T07:46:02+00:00</time>
        <ele>2481.0</ele>
      </trkpt>
      <trkpt lat="44.307" lon="6.83208">
        <time>2023-04-10T07:46:03+00:00</time>
        <ele>2481.0</ele>
      </trkpt>
      <trkpt lat="44.307" lon="6.83208">
        <time>2023-04-10T07:46:04+00:00</time>
        <ele>2481.0</ele>
      </trkpt>
      <trkpt lat="44.307" lon="6.83208">
        <time>2023-04-10T07:46:05+00:00</time>
        <ele>2481.0</ele>
      </trkpt>
      <trkpt lat="44.307" lon="6.83208">
        <time>2023-04-10T07:46:06+00:00</time>
        <ele>2481.0</ele>
      </trkpt>
      <trkpt lat="44.307" lon="6.83205">
        <time>2023-04-10T07:46:07+00:00</time>
        <ele>2482.0</ele>
      </trkpt>
      <trkpt lat="44.307" lon="6.83205">
        <time>2023-04-10T07:46:08+00:00</time>
        <ele>2482.0</ele>
      </trkpt>
      <trkpt lat="44.307" lon="6.83205">
        <time>2023-04-10T07:46:09+00:00</time>
        <ele>2482.0</ele>
      </trkpt>
      <trkpt lat="44.307" lon="6.83205">
        <time>2023-04-10T07:46:10+00:00</time>
        <ele>2482.0</ele>
      </trkpt>
      <trkpt lat="44.30701" lon="6.83203">
        <time>2023-04-10T07:46:11+00:00</time>
        <ele>2483.0</ele>
      </trkpt>
      <trkpt lat="44.30701" lon="6.83203">
        <time>2023-04-10T07:46:12+00:00</time>
        <ele>2483.0</ele>
      </trkpt>
      <trkpt lat="44.30701" lon="6.83203">
        <time>2023-04-10T07:46:13+00:00</time>
        <ele>2483.0</ele>
      </trkpt>
      <trkpt lat="44.30701" lon="6.83203">
        <time>2023-04-10T07:46:14+00:00</time>
        <ele>2483.0</ele>
      </trkpt>
      <trkpt lat="44.30701" lon="6.83199">
        <time>2023-04-10T07:46:15+00:00</time>
        <ele>2484.0</ele>
      </trkpt>
      <trkpt lat="44.30701" lon="6.83199">
        <time>2023-04-10T07:46:16+00:00</time>
        <ele>2484.0</ele>
      </trkpt>
      <trkpt lat="44.30701" lon="6.83199">
        <time>2023-04-10T07:46:17+00:00</time>
        <ele>2484.0</ele>
      </trkpt>
      <trkpt lat="44.30701" lon="6.83199">
        <time>2023-04-10T07:46:18+00:00</time>
        <ele>2484.0</ele>
      </trkpt>
      <trkpt lat="44.30701" lon="6.83197">
        <time>2023-04-10T07:46:19+00:00</time>
        <ele>2485.0</ele>
      </trkpt>
      <trkpt lat="44.30701" lon="6.83197">
        <time>2023-04-10T07:46:20+00:00</time>
        <ele>2485.0</ele>
      </trkpt>
      <trkpt lat="44.30701" lon="6.83197">
        <time>2023-04-10T07:46:21+00:00</time>
        <ele>2485.0</ele>
      </trkpt>
      <trkpt lat="44.30701" lon="6.83197">
        <time>2023-04-10T07:46:22+00:00</time>
        <ele>2485.0</ele>
      </trkpt>
      <trkpt lat="44.30701" lon="6.83197">
        <time>2023-04-10T07:46:23+00:00</time>
        <ele>2485.0</ele>
      </trkpt>
      <trkpt lat="44.30701" lon="6.83197">
        <time>2023-04-10T07:46:24+00:00</time>
        <ele>2485.0</ele>
      </trkpt>
      <trkpt lat="44.307" lon="6.83195">
        <time>2023-04-10T07:46:25+00:00</time>
        <ele>2485.0</ele>
      </trkpt>
      <trkpt lat="44.307" lon="6.83195">
        <time>2023-04-10T07:46:26+00:00</time>
        <ele>2485.0</ele>
      </trkpt>
      <trkpt lat="44.307" lon="6.83195">
        <time>2023-04-10T07:46:27+00:00</time>
        <ele>2485.0</ele>
      </trkpt>
      <trkpt lat="44.30698" lon="6.83193">
        <time>2023-04-10T07:46:28+00:00</time>
        <ele>2486.0</ele>
      </trkpt>
      <trkpt lat="44.30698" lon="6.83193">
        <time>2023-04-10T07:46:29+00:00</time>
        <ele>2486.0</ele>
      </trkpt>
      <trkpt lat="44.30698" lon="6.83193">
        <time>2023-04-10T07:46:30+00:00</time>
        <ele>2486.0</ele>
      </trkpt>
      <trkpt lat="44.30698" lon="6.83193">
        <time>2023-04-10T07:46:31+00:00</time>
        <ele>2486.0</ele>
      </trkpt>
      <trkpt lat="44.30697" lon="6.83191">
        <time>2023-04-10T07:46:32+00:00</time>
        <ele>2486.0</ele>
      </trkpt>
      <trkpt lat="44.30697" lon="6.83191">
        <time>2023-04-10T07:46:33+00:00</time>
        <ele>2486.0</ele>
      </trkpt>
      <trkpt lat="44.30697" lon="6.83191">
        <time>2023-04-10T07:46:34+00:00</time>
        <ele>2486.0</ele>
      </trkpt>
      <trkpt lat="44.30697" lon="6.83191">
        <time>2023-04-10T07:46:35+00:00</time>
        <ele>2486.0</ele>
      </trkpt>
      <trkpt lat="44.30695" lon="6.83189">
        <time>2023-04-10T07:46:36+00:00</time>
        <ele>2487.0</ele>
      </trkpt>
      <trkpt lat="44.30695" lon="6.83189">
        <time>2023-04-10T07:46:37+00:00</time>
        <ele>2487.0</ele>
      </trkpt>
      <trkpt lat="44.30695" lon="6.83189">
        <time>2023-04-10T07:46:38+00:00</time>
        <ele>2487.0</ele>
      </trkpt>
      <trkpt lat="44.30693" lon="6.83187">
        <time>2023-04-10T07:46:39+00:00</time>
        <ele>2487.0</ele>
      </trkpt>
      <trkpt lat="44.30693" lon="6.83187">
        <time>2023-04-10T07:46:40+00:00</time>
        <ele>2487.0</ele>
      </trkpt>
      <trkpt lat="44.30693" lon="6.83187">
        <time>2023-04-10T07:46:41+00:00</time>
        <ele>2487.0</ele>
      </trkpt>
      <trkpt lat="44.30693" lon="6.83185">
        <time>2023-04-10T07:46:42+00:00</time>
        <ele>2488.0</ele>
      </trkpt>
      <trkpt lat="44.30693" lon="6.83185">
        <time>2023-04-10T07:46:43+00:00</time>
        <ele>2488.0</ele>
      </trkpt>
      <trkpt lat="44.30693" lon="6.83185">
        <time>2023-04-10T07:46:44+00:00</time>
        <ele>2488.0</ele>
      </trkpt>
      <trkpt lat="44.30693" lon="6.83185">
        <time>2023-04-10T07:46:45+00:00</time>
        <ele>2488.0</ele>
      </trkpt>
      <trkpt lat="44.30693" lon="6.83181">
        <time>2023-04-10T07:46:46+00:00</time>
        <ele>2490.0</ele>
      </trkpt>
      <trkpt lat="44.30693" lon="6.83181">
        <time>2023-04-10T07:46:47+00:00</time>
        <ele>2490.0</ele>
      </trkpt>
      <trkpt lat="44.30693" lon="6.83181">
        <time>2023-04-10T07:46:48+00:00</time>
        <ele>2490.0</ele>
      </trkpt>
      <trkpt lat="44.30693" lon="6.83181">
        <time>2023-04-10T07:46:49+00:00</time>
        <ele>2490.0</ele>
      </trkpt>
      <trkpt lat="44.30692" lon="6.83179">
        <time>2023-04-10T07:46:50+00:00</time>
        <ele>2490.0</ele>
      </trkpt>
      <trkpt lat="44.30692" lon="6.83179">
        <time>2023-04-10T07:46:51+00:00</time>
        <ele>2490.0</ele>
      </trkpt>
      <trkpt lat="44.30692" lon="6.83179">
        <time>2023-04-10T07:46:52+00:00</time>
        <ele>2490.0</ele>
      </trkpt>
      <trkpt lat="44.30692" lon="6.83176">
        <time>2023-04-10T07:46:53+00:00</time>
        <ele>2492.0</ele>
      </trkpt>
      <trkpt lat="44.30692" lon="6.83176">
        <time>2023-04-10T07:46:54+00:00</time>
        <ele>2492.0</ele>
      </trkpt>
      <trkpt lat="44.30692" lon="6.83176">
        <time>2023-04-10T07:46:55+00:00</time>
        <ele>2492.0</ele>
      </trkpt>
      <trkpt lat="44.30692" lon="6.83176">
        <time>2023-04-10T07:46:56+00:00</time>
        <ele>2492.0</ele>
      </trkpt>
      <trkpt lat="44.30692" lon="6.83173">
        <time>2023-04-10T07:46:57+00:00</time>
        <ele>2493.0</ele>
      </trkpt>
      <trkpt lat="44.30692" lon="6.83173">
        <time>2023-04-10T07:46:58+00:00</time>
        <ele>2493.0</ele>
      </trkpt>
      <trkpt lat="44.30692" lon="6.83173">
        <time>2023-04-10T07:46:59+00:00</time>
        <ele>2493.0</ele>
      </trkpt>
      <trkpt lat="44.30692" lon="6.83173">
        <time>2023-04-10T07:47:00+00:00</time>
        <ele>2493.0</ele>
      </trkpt>
      <trkpt lat="44.30692" lon="6.8317">
        <time>2023-04-10T07:47:01+00:00</time>
        <ele>2494.0</ele>
      </trkpt>
      <trkpt lat="44.30692" lon="6.8317">
        <time>2023-04-10T07:47:02+00:00</time>
        <ele>2494.0</ele>
      </trkpt>
      <trkpt lat="44.30692" lon="6.8317">
        <time>2023-04-10T07:47:03+00:00</time>
        <ele>2494.0</ele>
      </trkpt>
      <trkpt lat="44.30692" lon="6.8317">
        <time>2023-04-10T07:47:04+00:00</time>
        <ele>2494.0</ele>
      </trkpt>
      <trkpt lat="44.30691" lon="6.83167">
        <time>2023-04-10T07:47:05+00:00</time>
        <ele>2495.0</ele>
      </trkpt>
      <trkpt lat="44.30691" lon="6.83167">
        <time>2023-04-10T07:47:06+00:00</time>
        <ele>2495.0</ele>
      </trkpt>
      <trkpt lat="44.30691" lon="6.83167">
        <time>2023-04-10T07:47:07+00:00</time>
        <ele>2495.0</ele>
      </trkpt>
      <trkpt lat="44.3069" lon="6.83165">
        <time>2023-04-10T07:47:08+00:00</time>
        <ele>2495.0</ele>
      </trkpt>
      <trkpt lat="44.3069" lon="6.83165">
        <time>2023-04-10T07:47:09+00:00</time>
        <ele>2495.0</ele>
      </trkpt>
      <trkpt lat="44.3069" lon="6.83165">
        <time>2023-04-10T07:47:10+00:00</time>
        <ele>2495.0</ele>
      </trkpt>
      <trkpt lat="44.3069" lon="6.83165">
        <time>2023-04-10T07:47:11+00:00</time>
        <ele>2495.0</ele>
      </trkpt>
      <trkpt lat="44.30689" lon="6.83162">
        <time>2023-04-10T07:47:12+00:00</time>
        <ele>2497.0</ele>
      </trkpt>
      <trkpt lat="44.30689" lon="6.83162">
        <time>2023-04-10T07:47:13+00:00</time>
        <ele>2497.0</ele>
      </trkpt>
      <trkpt lat="44.30689" lon="6.83162">
        <time>2023-04-10T07:47:14+00:00</time>
        <ele>2497.0</ele>
      </trkpt>
      <trkpt lat="44.30689" lon="6.83162">
        <time>2023-04-10T07:47:15+00:00</time>
        <ele>2497.0</ele>
      </trkpt>
      <trkpt lat="44.30689" lon="6.83159">
        <time>2023-04-10T07:47:16+00:00</time>
        <ele>2498.0</ele>
      </trkpt>
      <trkpt lat="44.30689" lon="6.83159">
        <time>2023-04-10T07:47:17+00:00</time>
        <ele>2498.0</ele>
      </trkpt>
      <trkpt lat="44.30689" lon="6.83159">
        <time>2023-04-10T07:47:18+00:00</time>
        <ele>2498.0</ele>
      </trkpt>
      <trkpt lat="44.30689" lon="6.83159">
        <time>2023-04-10T07:47:19+00:00</time>
        <ele>2498.0</ele>
      </trkpt>
      <trkpt lat="44.30688" lon="6.83157">
        <time>2023-04-10T07:47:20+00:00</time>
        <ele>2498.0</ele>
      </trkpt>
      <trkpt lat="44.30688" lon="6.83157">
        <time>2023-04-10T07:47:21+00:00</time>
        <ele>2498.0</ele>
      </trkpt>
      <trkpt lat="44.30688" lon="6.83157">
        <time>2023-04-10T07:47:22+00:00</time>
        <ele>2498.0</ele>
      </trkpt>
      <trkpt lat="44.30687" lon="6.83154">
        <time>2023-04-10T07:47:23+00:00</time>
        <ele>2499.0</ele>
      </trkpt>
      <trkpt lat="44.30687" lon="6.83154">
        <time>2023-04-10T07:47:24+00:00</time>
        <ele>2499.0</ele>
      </trkpt>
      <trkpt lat="44.30687" lon="6.83154">
        <time>2023-04-10T07:47:25+00:00</time>
        <ele>2499.0</ele>
      </trkpt>
      <trkpt lat="44.30687" lon="6.83152">
        <time>2023-04-10T07:47:26+00:00</time>
        <ele>2500.0</ele>
      </trkpt>
      <trkpt lat="44.30687" lon="6.83152">
        <time>2023-04-10T07:47:27+00:00</time>
        <ele>2500.0</ele>
      </trkpt>
      <trkpt lat="44.30687" lon="6.83152">
        <time>2023-04-10T07:47:28+00:00</time>
        <ele>2500.0</ele>
      </trkpt>
      <trkpt lat="44.30686" lon="6.83149">
        <time>2023-04-10T07:47:29+00:00</time>
        <ele>2501.0</ele>
      </trkpt>
      <trkpt lat="44.30686" lon="6.83149">
        <time>2023-04-10T07:47:30+00:00</time>
        <ele>2501.0</ele>
      </trkpt>
      <trkpt lat="44.30686" lon="6.83149">
        <time>2023-04-10T07:47:31+00:00</time>
        <ele>2501.0</ele>
      </trkpt>
      <trkpt lat="44.30685" lon="6.83146">
        <time>2023-04-10T07:47:32+00:00</time>
        <ele>2502.0</ele>
      </trkpt>
      <trkpt lat="44.30685" lon="6.83146">
        <time>2023-04-10T07:47:33+00:00</time>
        <ele>2502.0</ele>
      </trkpt>
      <trkpt lat="44.30685" lon="6.83146">
        <time>2023-04-10T07:47:34+00:00</time>
        <ele>2502.0</ele>
      </trkpt>
      <trkpt lat="44.30684" lon="6.83144">
        <time>2023-04-10T07:47:35+00:00</time>
        <ele>2503.0</ele>
      </trkpt>
      <trkpt lat="44.30684" lon="6.83144">
        <time>2023-04-10T07:47:36+00:00</time>
        <ele>2503.0</ele>
      </trkpt>
      <trkpt lat="44.30684" lon="6.83144">
        <time>2023-04-10T07:47:37+00:00</time>
        <ele>2503.0</ele>
      </trkpt>
      <trkpt lat="44.30684" lon="6.83144">
        <time>2023-04-10T07:47:38+00:00</time>
        <ele>2503.0</ele>
      </trkpt>
      <trkpt lat="44.30683" lon="6.83141">
        <time>2023-04-10T07:47:39+00:00</time>
        <ele>2504.0</ele>
      </trkpt>
      <trkpt lat="44.30683" lon="6.83141">
        <time>2023-04-10T07:47:40+00:00</time>
        <ele>2504.0</ele>
      </trkpt>
      <trkpt lat="44.30683" lon="6.83141">
        <time>2023-04-10T07:47:41+00:00</time>
        <ele>2504.0</ele>
      </trkpt>
      <trkpt lat="44.30683" lon="6.83141">
        <time>2023-04-10T07:47:42+00:00</time>
        <ele>2504.0</ele>
      </trkpt>
      <trkpt lat="44.30683" lon="6.83141">
        <time>2023-04-10T07:47:43+00:00</time>
        <ele>2504.0</ele>
      </trkpt>
      <trkpt lat="44.30683" lon="6.83141">
        <time>2023-04-10T07:47:44+00:00</time>
        <ele>2504.0</ele>
      </trkpt>
      <trkpt lat="44.30683" lon="6.83141">
        <time>2023-04-10T07:47:45+00:00</time>
        <ele>2504.0</ele>
      </trkpt>
      <trkpt lat="44.30683" lon="6.83141">
        <time>2023-04-10T07:47:46+00:00</time>
        <ele>2504.0</ele>
      </trkpt>
      <trkpt lat="44.30683" lon="6.83141">
        <time>2023-04-10T07:47:47+00:00</time>
        <ele>2504.0</ele>
      </trkpt>
      <trkpt lat="44.30683" lon="6.83141">
        <time>2023-04-10T07:47:48+00:00</time>
        <ele>2504.0</ele>
      </trkpt>
      <trkpt lat="44.30683" lon="6.83141">
        <time>2023-04-10T07:47:49+00:00</time>
        <ele>2504.0</ele>
      </trkpt>
      <trkpt lat="44.30683" lon="6.83141">
        <time>2023-04-10T07:47:50+00:00</time>
        <ele>2504.0</ele>
      </trkpt>
      <trkpt lat="44.30683" lon="6.83141">
        <time>2023-04-10T07:47:51+00:00</time>
        <ele>2504.0</ele>
      </trkpt>
      <trkpt lat="44.30683" lon="6.83141">
        <time>2023-04-10T07:47:52+00:00</time>
        <ele>2504.0</ele>
      </trkpt>
      <trkpt lat="44.30683" lon="6.83141">
        <time>2023-04-10T07:47:53+00:00</time>
        <ele>2504.0</ele>
      </trkpt>
      <trkpt lat="44.30683" lon="6.83141">
        <time>2023-04-10T07:47:54+00:00</time>
        <ele>2504.0</ele>
      </trkpt>
      <trkpt lat="44.30683" lon="6.83141">
        <time>2023-04-10T07:47:55+00:00</time>
        <ele>2504.0</ele>
      </trkpt>
      <trkpt lat="44.30683" lon="6.83141">
        <time>2023-04-10T07:47:56+00:00</time>
        <ele>2504.0</ele>
      </trkpt>
      <trkpt lat="44.30683" lon="6.83141">
        <time>2023-04-10T07:47:57+00:00</time>
        <ele>2504.0</ele>
      </trkpt>
      <trkpt lat="44.30683" lon="6.83141">
        <time>2023-04-10T07:47:58+00:00</time>
        <ele>2504.0</ele>
      </trkpt>
      <trkpt lat="44.30683" lon="6.83141">
        <time>2023-04-10T07:47:59+00:00</time>
        <ele>2504.0</ele>
      </trkpt>
      <trkpt lat="44.30683" lon="6.83141">
        <time>2023-04-10T07:48:00+00:00</time>
        <ele>2504.0</ele>
      </trkpt>
      <trkpt lat="44.30683" lon="6.83141">
        <time>2023-04-10T07:48:01+00:00</time>
        <ele>2504.0</ele>
      </trkpt>
      <trkpt lat="44.30683" lon="6.83141">
        <time>2023-04-10T07:48:02+00:00</time>
        <ele>2504.0</ele>
      </trkpt>
      <trkpt lat="44.30683" lon="6.83141">
        <time>2023-04-10T07:48:03+00:00</time>
        <ele>2504.0</ele>
      </trkpt>
      <trkpt lat="44.30683" lon="6.83141">
        <time>2023-04-10T07:48:04+00:00</time>
        <ele>2504.0</ele>
      </trkpt>
      <trkpt lat="44.30683" lon="6.83141">
        <time>2023-04-10T07:48:05+00:00</time>
        <ele>2504.0</ele>
      </trkpt>
      <trkpt lat="44.30683" lon="6.83141">
        <time>2023-04-10T07:48:06+00:00</time>
        <ele>2504.0</ele>
      </trkpt>
      <trkpt lat="44.30683" lon="6.83141">
        <time>2023-04-10T07:48:07+00:00</time>
        <ele>2504.0</ele>
      </trkpt>
      <trkpt lat="44.30683" lon="6.83141">
        <time>2023-04-10T07:48:08+00:00</time>
        <ele>2504.0</ele>
      </trkpt>
      <trkpt lat="44.30683" lon="6.83141">
        <time>2023-04-10T07:48:09+00:00</time>
        <ele>2504.0</ele>
      </trkpt>
      <trkpt lat="44.30683" lon="6.83141">
        <time>2023-04-10T07:48:10+00:00</time>
        <ele>2504.0</ele>
      </trkpt>
      <trkpt lat="44.30683" lon="6.83141">
        <time>2023-04-10T07:48:11+00:00</time>
        <ele>2504.0</ele>
      </trkpt>
      <trkpt lat="44.30685" lon="6.83138">
        <time>2023-04-10T07:48:12+00:00</time>
        <ele>2504.0</ele>
      </trkpt>
      <trkpt lat="44.30685" lon="6.83138">
        <time>2023-04-10T07:48:13+00:00</time>
        <ele>2504.0</ele>
      </trkpt>
      <trkpt lat="44.30687" lon="6.83136">
        <time>2023-04-10T07:48:14+00:00</time>
        <ele>2505.0</ele>
      </trkpt>
      <trkpt lat="44.30687" lon="6.83136">
        <time>2023-04-10T07:48:15+00:00</time>
        <ele>2505.0</ele>
      </trkpt>
      <trkpt lat="44.30688" lon="6.83133">
        <time>2023-04-10T07:48:16+00:00</time>
        <ele>2506.0</ele>
      </trkpt>
      <trkpt lat="44.30688" lon="6.83133">
        <time>2023-04-10T07:48:17+00:00</time>
        <ele>2506.0</ele>
      </trkpt>
      <trkpt lat="44.3069" lon="6.83131">
        <time>2023-04-10T07:48:18+00:00</time>
        <ele>2506.0</ele>
      </trkpt>
      <trkpt lat="44.3069" lon="6.83131">
        <time>2023-04-10T07:48:19+00:00</time>
        <ele>2506.0</ele>
      </trkpt>
      <trkpt lat="44.30692" lon="6.83129">
        <time>2023-04-10T07:48:20+00:00</time>
        <ele>2507.0</ele>
      </trkpt>
      <trkpt lat="44.30692" lon="6.83129">
        <time>2023-04-10T07:48:21+00:00</time>
        <ele>2507.0</ele>
      </trkpt>
      <trkpt lat="44.30692" lon="6.83129">
        <time>2023-04-10T07:48:22+00:00</time>
        <ele>2507.0</ele>
      </trkpt>
      <trkpt lat="44.30694" lon="6.83127">
        <time>2023-04-10T07:48:23+00:00</time>
        <ele>2507.0</ele>
      </trkpt>
      <trkpt lat="44.30694" lon="6.83127">
        <time>2023-04-10T07:48:24+00:00</time>
        <ele>2507.0</ele>
      </trkpt>
      <trkpt lat="44.30695" lon="6.83126">
        <time>2023-04-10T07:48:25+00:00</time>
        <ele>2507.0</ele>
      </trkpt>
      <trkpt lat="44.30695" lon="6.83126">
        <time>2023-04-10T07:48:26+00:00</time>
        <ele>2507.0</ele>
      </trkpt>
      <trkpt lat="44.30695" lon="6.83126">
        <time>2023-04-10T07:48:27+00:00</time>
        <ele>2507.0</ele>
      </trkpt>
      <trkpt lat="44.30695" lon="6.83126">
        <time>2023-04-10T07:48:28+00:00</time>
        <ele>2507.0</ele>
      </trkpt>
      <trkpt lat="44.30697" lon="6.83123">
        <time>2023-04-10T07:48:29+00:00</time>
        <ele>2508.0</ele>
      </trkpt>
      <trkpt lat="44.30697" lon="6.83123">
        <time>2023-04-10T07:48:30+00:00</time>
        <ele>2508.0</ele>
      </trkpt>
      <trkpt lat="44.30697" lon="6.83123">
        <time>2023-04-10T07:48:31+00:00</time>
        <ele>2508.0</ele>
      </trkpt>
      <trkpt lat="44.30698" lon="6.83121">
        <time>2023-04-10T07:48:32+00:00</time>
        <ele>2509.0</ele>
      </trkpt>
      <trkpt lat="44.30698" lon="6.83121">
        <time>2023-04-10T07:48:33+00:00</time>
        <ele>2509.0</ele>
      </trkpt>
      <trkpt lat="44.30698" lon="6.83121">
        <time>2023-04-10T07:48:34+00:00</time>
        <ele>2509.0</ele>
      </trkpt>
      <trkpt lat="44.307" lon="6.83119">
        <time>2023-04-10T07:48:35+00:00</time>
        <ele>2509.0</ele>
      </trkpt>
      <trkpt lat="44.307" lon="6.83119">
        <time>2023-04-10T07:48:36+00:00</time>
        <ele>2509.0</ele>
      </trkpt>
      <trkpt lat="44.30701" lon="6.83117">
        <time>2023-04-10T07:48:37+00:00</time>
        <ele>2510.0</ele>
      </trkpt>
      <trkpt lat="44.30701" lon="6.83117">
        <time>2023-04-10T07:48:38+00:00</time>
        <ele>2510.0</ele>
      </trkpt>
      <trkpt lat="44.30703" lon="6.83117">
        <time>2023-04-10T07:48:39+00:00</time>
        <ele>2510.0</ele>
      </trkpt>
      <trkpt lat="44.30703" lon="6.83117">
        <time>2023-04-10T07:48:40+00:00</time>
        <ele>2510.0</ele>
      </trkpt>
      <trkpt lat="44.30705" lon="6.83116">
        <time>2023-04-10T07:48:41+00:00</time>
        <ele>2510.0</ele>
      </trkpt>
      <trkpt lat="44.30705" lon="6.83116">
        <time>2023-04-10T07:48:42+00:00</time>
        <ele>2510.0</ele>
      </trkpt>
      <trkpt lat="44.30705" lon="6.83112">
        <time>2023-04-10T07:48:43+00:00</time>
        <ele>2511.0</ele>
      </trkpt>
      <trkpt lat="44.30705" lon="6.83112">
        <time>2023-04-10T07:48:44+00:00</time>
        <ele>2511.0</ele>
      </trkpt>
      <trkpt lat="44.30705" lon="6.83112">
        <time>2023-04-10T07:48:45+00:00</time>
        <ele>2511.0</ele>
      </trkpt>
      <trkpt lat="44.30705" lon="6.83109">
        <time>2023-04-10T07:48:46+00:00</time>
        <ele>2511.0</ele>
      </trkpt>
      <trkpt lat="44.30705" lon="6.83109">
        <time>2023-04-10T07:48:47+00:00</time>
        <ele>2511.0</ele>
      </trkpt>
      <trkpt lat="44.30705" lon="6.83109">
        <time>2023-04-10T07:48:48+00:00</time>
        <ele>2511.0</ele>
      </trkpt>
      <trkpt lat="44.30706" lon="6.83106">
        <time>2023-04-10T07:48:49+00:00</time>
        <ele>2512.0</ele>
      </trkpt>
      <trkpt lat="44.30706" lon="6.83106">
        <time>2023-04-10T07:48:50+00:00</time>
        <ele>2512.0</ele>
      </trkpt>
      <trkpt lat="44.30706" lon="6.83106">
        <time>2023-04-10T07:48:51+00:00</time>
        <ele>2512.0</ele>
      </trkpt>
      <trkpt lat="44.30707" lon="6.83104">
        <time>2023-04-10T07:48:52+00:00</time>
        <ele>2512.0</ele>
      </trkpt>
      <trkpt lat="44.30707" lon="6.83104">
        <time>2023-04-10T07:48:53+00:00</time>
        <ele>2512.0</ele>
      </trkpt>
      <trkpt lat="44.30707" lon="6.83104">
        <time>2023-04-10T07:48:54+00:00</time>
        <ele>2512.0</ele>
      </trkpt>
      <trkpt lat="44.30707" lon="6.83101">
        <time>2023-04-10T07:48:55+00:00</time>
        <ele>2513.0</ele>
      </trkpt>
      <trkpt lat="44.30707" lon="6.83101">
        <time>2023-04-10T07:48:56+00:00</time>
        <ele>2513.0</ele>
      </trkpt>
      <trkpt lat="44.30707" lon="6.83101">
        <time>2023-04-10T07:48:57+00:00</time>
        <ele>2513.0</ele>
      </trkpt>
      <trkpt lat="44.30707" lon="6.83101">
        <time>2023-04-10T07:48:58+00:00</time>
        <ele>2513.0</ele>
      </trkpt>
      <trkpt lat="44.30707" lon="6.83098">
        <time>2023-04-10T07:48:59+00:00</time>
        <ele>2514.0</ele>
      </trkpt>
      <trkpt lat="44.30707" lon="6.83098">
        <time>2023-04-10T07:49:00+00:00</time>
        <ele>2514.0</ele>
      </trkpt>
      <trkpt lat="44.30707" lon="6.83098">
        <time>2023-04-10T07:49:01+00:00</time>
        <ele>2514.0</ele>
      </trkpt>
      <trkpt lat="44.30707" lon="6.83098">
        <time>2023-04-10T07:49:02+00:00</time>
        <ele>2514.0</ele>
      </trkpt>
      <trkpt lat="44.30705" lon="6.83096">
        <time>2023-04-10T07:49:03+00:00</time>
        <ele>2515.0</ele>
      </trkpt>
      <trkpt lat="44.30705" lon="6.83096">
        <time>2023-04-10T07:49:04+00:00</time>
        <ele>2515.0</ele>
      </trkpt>
      <trkpt lat="44.30705" lon="6.83096">
        <time>2023-04-10T07:49:05+00:00</time>
        <ele>2515.0</ele>
      </trkpt>
      <trkpt lat="44.30705" lon="6.83093">
        <time>2023-04-10T07:49:06+00:00</time>
        <ele>2515.0</ele>
      </trkpt>
      <trkpt lat="44.30705" lon="6.83093">
        <time>2023-04-10T07:49:07+00:00</time>
        <ele>2515.0</ele>
      </trkpt>
      <trkpt lat="44.30705" lon="6.83093">
        <time>2023-04-10T07:49:08+00:00</time>
        <ele>2515.0</ele>
      </trkpt>
      <trkpt lat="44.30705" lon="6.8309">
        <time>2023-04-10T07:49:09+00:00</time>
        <ele>2516.0</ele>
      </trkpt>
      <trkpt lat="44.30705" lon="6.8309">
        <time>2023-04-10T07:49:10+00:00</time>
        <ele>2516.0</ele>
      </trkpt>
      <trkpt lat="44.30705" lon="6.8309">
        <time>2023-04-10T07:49:11+00:00</time>
        <ele>2516.0</ele>
      </trkpt>
      <trkpt lat="44.30706" lon="6.83087">
        <time>2023-04-10T07:49:12+00:00</time>
        <ele>2517.0</ele>
      </trkpt>
      <trkpt lat="44.30706" lon="6.83087">
        <time>2023-04-10T07:49:13+00:00</time>
        <ele>2517.0</ele>
      </trkpt>
      <trkpt lat="44.30706" lon="6.83087">
        <time>2023-04-10T07:49:14+00:00</time>
        <ele>2517.0</ele>
      </trkpt>
      <trkpt lat="44.30706" lon="6.83084">
        <time>2023-04-10T07:49:15+00:00</time>
        <ele>2517.0</ele>
      </trkpt>
      <trkpt lat="44.30706" lon="6.83084">
        <time>2023-04-10T07:49:16+00:00</time>
        <ele>2517.0</ele>
      </trkpt>
      <trkpt lat="44.30706" lon="6.83084">
        <time>2023-04-10T07:49:17+00:00</time>
        <ele>2517.0</ele>
      </trkpt>
      <trkpt lat="44.30707" lon="6.83082">
        <time>2023-04-10T07:49:18+00:00</time>
        <ele>2517.0</ele>
      </trkpt>
      <trkpt lat="44.30707" lon="6.83082">
        <time>2023-04-10T07:49:19+00:00</time>
        <ele>2517.0</ele>
      </trkpt>
      <trkpt lat="44.30707" lon="6.83082">
        <time>2023-04-10T07:49:20+00:00</time>
        <ele>2517.0</ele>
      </trkpt>
      <trkpt lat="44.30707" lon="6.83079">
        <time>2023-04-10T07:49:21+00:00</time>
        <ele>2518.0</ele>
      </trkpt>
      <trkpt lat="44.30707" lon="6.83079">
        <time>2023-04-10T07:49:22+00:00</time>
        <ele>2518.0</ele>
      </trkpt>
      <trkpt lat="44.30707" lon="6.83079">
        <time>2023-04-10T07:49:23+00:00</time>
        <ele>2518.0</ele>
      </trkpt>
      <trkpt lat="44.30707" lon="6.83076">
        <time>2023-04-10T07:49:24+00:00</time>
        <ele>2519.0</ele>
      </trkpt>
      <trkpt lat="44.30707" lon="6.83076">
        <time>2023-04-10T07:49:25+00:00</time>
        <ele>2519.0</ele>
      </trkpt>
      <trkpt lat="44.30707" lon="6.83076">
        <time>2023-04-10T07:49:26+00:00</time>
        <ele>2519.0</ele>
      </trkpt>
      <trkpt lat="44.30708" lon="6.83074">
        <time>2023-04-10T07:49:27+00:00</time>
        <ele>2519.0</ele>
      </trkpt>
      <trkpt lat="44.30708" lon="6.83074">
        <time>2023-04-10T07:49:28+00:00</time>
        <ele>2519.0</ele>
      </trkpt>
      <trkpt lat="44.30708" lon="6.83074">
        <time>2023-04-10T07:49:29+00:00</time>
        <ele>2519.0</ele>
      </trkpt>
      <trkpt lat="44.30709" lon="6.83071">
        <time>2023-04-10T07:49:30+00:00</time>
        <ele>2520.0</ele>
      </trkpt>
      <trkpt lat="44.30709" lon="6.83071">
        <time>2023-04-10T07:49:31+00:00</time>
        <ele>2520.0</ele>
      </trkpt>
      <trkpt lat="44.30709" lon="6.83071">
        <time>2023-04-10T07:49:32+00:00</time>
        <ele>2520.0</ele>
      </trkpt>
      <trkpt lat="44.30709" lon="6.83071">
        <time>2023-04-10T07:49:33+00:00</time>
        <ele>2520.0</ele>
      </trkpt>
      <trkpt lat="44.30711" lon="6.83068">
        <time>2023-04-10T07:49:34+00:00</time>
        <ele>2520.0</ele>
      </trkpt>
      <trkpt lat="44.30711" lon="6.83068">
        <time>2023-04-10T07:49:35+00:00</time>
        <ele>2520.0</ele>
      </trkpt>
      <trkpt lat="44.30711" lon="6.83068">
        <time>2023-04-10T07:49:36+00:00</time>
        <ele>2520.0</ele>
      </trkpt>
      <trkpt lat="44.30711" lon="6.83068">
        <time>2023-04-10T07:49:37+00:00</time>
        <ele>2520.0</ele>
      </trkpt>
      <trkpt lat="44.30712" lon="6.83065">
        <time>2023-04-10T07:49:38+00:00</time>
        <ele>2521.0</ele>
      </trkpt>
      <trkpt lat="44.30712" lon="6.83065">
        <time>2023-04-10T07:49:39+00:00</time>
        <ele>2521.0</ele>
      </trkpt>
      <trkpt lat="44.30712" lon="6.83065">
        <time>2023-04-10T07:49:40+00:00</time>
        <ele>2521.0</ele>
      </trkpt>
      <trkpt lat="44.30713" lon="6.83062">
        <time>2023-04-10T07:49:41+00:00</time>
        <ele>2521.0</ele>
      </trkpt>
      <trkpt lat="44.30713" lon="6.83062">
        <time>2023-04-10T07:49:42+00:00</time>
        <ele>2521.0</ele>
      </trkpt>
      <trkpt lat="44.30713" lon="6.83062">
        <time>2023-04-10T07:49:43+00:00</time>
        <ele>2521.0</ele>
      </trkpt>
      <trkpt lat="44.30714" lon="6.83059">
        <time>2023-04-10T07:49:44+00:00</time>
        <ele>2522.0</ele>
      </trkpt>
      <trkpt lat="44.30714" lon="6.83059">
        <time>2023-04-10T07:49:45+00:00</time>
        <ele>2522.0</ele>
      </trkpt>
      <trkpt lat="44.30714" lon="6.83059">
        <time>2023-04-10T07:49:46+00:00</time>
        <ele>2522.0</ele>
      </trkpt>
      <trkpt lat="44.30715" lon="6.83057">
        <time>2023-04-10T07:49:47+00:00</time>
        <ele>2522.0</ele>
      </trkpt>
      <trkpt lat="44.30715" lon="6.83057">
        <time>2023-04-10T07:49:48+00:00</time>
        <ele>2522.0</ele>
      </trkpt>
      <trkpt lat="44.30715" lon="6.83057">
        <time>2023-04-10T07:49:49+00:00</time>
        <ele>2522.0</ele>
      </trkpt>
      <trkpt lat="44.30715" lon="6.83054">
        <time>2023-04-10T07:49:50+00:00</time>
        <ele>2523.0</ele>
      </trkpt>
      <trkpt lat="44.30715" lon="6.83054">
        <time>2023-04-10T07:49:51+00:00</time>
        <ele>2523.0</ele>
      </trkpt>
      <trkpt lat="44.30715" lon="6.83054">
        <time>2023-04-10T07:49:52+00:00</time>
        <ele>2523.0</ele>
      </trkpt>
      <trkpt lat="44.30715" lon="6.83051">
        <time>2023-04-10T07:49:53+00:00</time>
        <ele>2523.0</ele>
      </trkpt>
      <trkpt lat="44.30715" lon="6.83051">
        <time>2023-04-10T07:49:54+00:00</time>
        <ele>2523.0</ele>
      </trkpt>
      <trkpt lat="44.30715" lon="6.83051">
        <time>2023-04-10T07:49:55+00:00</time>
        <ele>2523.0</ele>
      </trkpt>
      <trkpt lat="44.30715" lon="6.83048">
        <time>2023-04-10T07:49:56+00:00</time>
        <ele>2524.0</ele>
      </trkpt>
      <trkpt lat="44.30715" lon="6.83048">
        <time>2023-04-10T07:49:57+00:00</time>
        <ele>2524.0</ele>
      </trkpt>
      <trkpt lat="44.30715" lon="6.83048">
        <time>2023-04-10T07:49:58+00:00</time>
        <ele>2524.0</ele>
      </trkpt>
      <trkpt lat="44.30716" lon="6.83045">
        <time>2023-04-10T07:49:59+00:00</time>
        <ele>2524.0</ele>
      </trkpt>
      <trkpt lat="44.30716" lon="6.83042">
        <time>2023-04-10T07:50:02+00:00</time>
        <ele>2525.0</ele>
      </trkpt>
      <trkpt lat="44.30716" lon="6.83042">
        <time>2023-04-10T07:50:03+00:00</time>
        <ele>2525.0</ele>
      </trkpt>
      <trkpt lat="44.30717" lon="6.83039">
        <time>2023-04-10T07:50:04+00:00</time>
        <ele>2525.0</ele>
      </trkpt>
      <trkpt lat="44.30717" lon="6.83039">
        <time>2023-04-10T07:50:05+00:00</time>
        <ele>2525.0</ele>
      </trkpt>
      <trkpt lat="44.30717" lon="6.83039">
        <time>2023-04-10T07:50:06+00:00</time>
        <ele>2525.0</ele>
      </trkpt>
      <trkpt lat="44.30717" lon="6.83037">
        <time>2023-04-10T07:50:07+00:00</time>
        <ele>2526.0</ele>
      </trkpt>
      <trkpt lat="44.30717" lon="6.83037">
        <time>2023-04-10T07:50:08+00:00</time>
        <ele>2526.0</ele>
      </trkpt>
      <trkpt lat="44.30717" lon="6.83037">
        <time>2023-04-10T07:50:09+00:00</time>
        <ele>2526.0</ele>
      </trkpt>
      <trkpt lat="44.30717" lon="6.83034">
        <time>2023-04-10T07:50:10+00:00</time>
        <ele>2527.0</ele>
      </trkpt>
      <trkpt lat="44.30717" lon="6.83034">
        <time>2023-04-10T07:50:11+00:00</time>
        <ele>2527.0</ele>
      </trkpt>
      <trkpt lat="44.30717" lon="6.83034">
        <time>2023-04-10T07:50:12+00:00</time>
        <ele>2527.0</ele>
      </trkpt>
      <trkpt lat="44.30717" lon="6.83031">
        <time>2023-04-10T07:50:13+00:00</time>
        <ele>2527.0</ele>
      </trkpt>
      <trkpt lat="44.30717" lon="6.83031">
        <time>2023-04-10T07:50:14+00:00</time>
        <ele>2527.0</ele>
      </trkpt>
      <trkpt lat="44.30717" lon="6.83031">
        <time>2023-04-10T07:50:15+00:00</time>
        <ele>2527.0</ele>
      </trkpt>
      <trkpt lat="44.30717" lon="6.83031">
        <time>2023-04-10T07:50:16+00:00</time>
        <ele>2527.0</ele>
      </trkpt>
      <trkpt lat="44.30717" lon="6.83028">
        <time>2023-04-10T07:50:17+00:00</time>
        <ele>2528.0</ele>
      </trkpt>
      <trkpt lat="44.30717" lon="6.83028">
        <time>2023-04-10T07:50:18+00:00</time>
        <ele>2528.0</ele>
      </trkpt>
      <trkpt lat="44.30717" lon="6.83028">
        <time>2023-04-10T07:50:19+00:00</time>
        <ele>2528.0</ele>
      </trkpt>
      <trkpt lat="44.30717" lon="6.83025">
        <time>2023-04-10T07:50:21+00:00</time>
        <ele>2529.0</ele>
      </trkpt>
      <trkpt lat="44.30717" lon="6.83025">
        <time>2023-04-10T07:50:22+00:00</time>
        <ele>2529.0</ele>
      </trkpt>
      <trkpt lat="44.30717" lon="6.83025">
        <time>2023-04-10T07:50:23+00:00</time>
        <ele>2529.0</ele>
      </trkpt>
      <trkpt lat="44.30717" lon="6.83025">
        <time>2023-04-10T07:50:24+00:00</time>
        <ele>2529.0</ele>
      </trkpt>
      <trkpt lat="44.30717" lon="6.83021">
        <time>2023-04-10T07:50:25+00:00</time>
        <ele>2530.0</ele>
      </trkpt>
      <trkpt lat="44.30717" lon="6.83021">
        <time>2023-04-10T07:50:26+00:00</time>
        <ele>2530.0</ele>
      </trkpt>
      <trkpt lat="44.30717" lon="6.83021">
        <time>2023-04-10T07:50:27+00:00</time>
        <ele>2530.0</ele>
      </trkpt>
      <trkpt lat="44.30717" lon="6.83019">
        <time>2023-04-10T07:50:28+00:00</time>
        <ele>2531.0</ele>
      </trkpt>
      <trkpt lat="44.30717" lon="6.83019">
        <time>2023-04-10T07:50:29+00:00</time>
        <ele>2531.0</ele>
      </trkpt>
      <trkpt lat="44.30717" lon="6.83019">
        <time>2023-04-10T07:50:30+00:00</time>
        <ele>2531.0</ele>
      </trkpt>
      <trkpt lat="44.30715" lon="6.83017">
        <time>2023-04-10T07:50:31+00:00</time>
        <ele>2532.0</ele>
      </trkpt>
      <trkpt lat="44.30715" lon="6.83017">
        <time>2023-04-10T07:50:32+00:00</time>
        <ele>2532.0</ele>
      </trkpt>
      <trkpt lat="44.30715" lon="6.83017">
        <time>2023-04-10T07:50:33+00:00</time>
        <ele>2532.0</ele>
      </trkpt>
      <trkpt lat="44.30714" lon="6.83015">
        <time>2023-04-10T07:50:34+00:00</time>
        <ele>2533.0</ele>
      </trkpt>
      <trkpt lat="44.30714" lon="6.83015">
        <time>2023-04-10T07:50:35+00:00</time>
        <ele>2533.0</ele>
      </trkpt>
      <trkpt lat="44.30714" lon="6.83015">
        <time>2023-04-10T07:50:36+00:00</time>
        <ele>2533.0</ele>
      </trkpt>
      <trkpt lat="44.30712" lon="6.83014">
        <time>2023-04-10T07:50:37+00:00</time>
        <ele>2533.0</ele>
      </trkpt>
      <trkpt lat="44.30712" lon="6.83014">
        <time>2023-04-10T07:50:38+00:00</time>
        <ele>2533.0</ele>
      </trkpt>
      <trkpt lat="44.30712" lon="6.83014">
        <time>2023-04-10T07:50:39+00:00</time>
        <ele>2533.0</ele>
      </trkpt>
      <trkpt lat="44.30711" lon="6.83012">
        <time>2023-04-10T07:50:40+00:00</time>
        <ele>2534.0</ele>
      </trkpt>
      <trkpt lat="44.30711" lon="6.83012">
        <time>2023-04-10T07:50:41+00:00</time>
        <ele>2534.0</ele>
      </trkpt>
      <trkpt lat="44.30711" lon="6.83012">
        <time>2023-04-10T07:50:42+00:00</time>
        <ele>2534.0</ele>
      </trkpt>
      <trkpt lat="44.30711" lon="6.83012">
        <time>2023-04-10T07:50:43+00:00</time>
        <ele>2534.0</ele>
      </trkpt>
      <trkpt lat="44.30711" lon="6.83009">
        <time>2023-04-10T07:50:44+00:00</time>
        <ele>2535.0</ele>
      </trkpt>
      <trkpt lat="44.30711" lon="6.83009">
        <time>2023-04-10T07:50:45+00:00</time>
        <ele>2535.0</ele>
      </trkpt>
      <trkpt lat="44.30711" lon="6.83009">
        <time>2023-04-10T07:50:46+00:00</time>
        <ele>2535.0</ele>
      </trkpt>
      <trkpt lat="44.30711" lon="6.83006">
        <time>2023-04-10T07:50:47+00:00</time>
        <ele>2536.0</ele>
      </trkpt>
      <trkpt lat="44.30711" lon="6.83006">
        <time>2023-04-10T07:50:48+00:00</time>
        <ele>2536.0</ele>
      </trkpt>
      <trkpt lat="44.30711" lon="6.83006">
        <time>2023-04-10T07:50:49+00:00</time>
        <ele>2536.0</ele>
      </trkpt>
      <trkpt lat="44.30712" lon="6.83003">
        <time>2023-04-10T07:50:50+00:00</time>
        <ele>2537.0</ele>
      </trkpt>
      <trkpt lat="44.30712" lon="6.83003">
        <time>2023-04-10T07:50:51+00:00</time>
        <ele>2537.0</ele>
      </trkpt>
      <trkpt lat="44.30712" lon="6.83003">
        <time>2023-04-10T07:50:52+00:00</time>
        <ele>2537.0</ele>
      </trkpt>
      <trkpt lat="44.30713" lon="6.83001">
        <time>2023-04-10T07:50:53+00:00</time>
        <ele>2537.0</ele>
      </trkpt>
      <trkpt lat="44.30713" lon="6.83001">
        <time>2023-04-10T07:50:54+00:00</time>
        <ele>2537.0</ele>
      </trkpt>
      <trkpt lat="44.30713" lon="6.83001">
        <time>2023-04-10T07:50:55+00:00</time>
        <ele>2537.0</ele>
      </trkpt>
      <trkpt lat="44.30715" lon="6.82998">
        <time>2023-04-10T07:50:56+00:00</time>
        <ele>2538.0</ele>
      </trkpt>
      <trkpt lat="44.30715" lon="6.82998">
        <time>2023-04-10T07:50:57+00:00</time>
        <ele>2538.0</ele>
      </trkpt>
      <trkpt lat="44.30715" lon="6.82998">
        <time>2023-04-10T07:50:58+00:00</time>
        <ele>2538.0</ele>
      </trkpt>
      <trkpt lat="44.30715" lon="6.82998">
        <time>2023-04-10T07:50:59+00:00</time>
        <ele>2538.0</ele>
      </trkpt>
      <trkpt lat="44.30715" lon="6.82998">
        <time>2023-04-10T07:51:00+00:00</time>
        <ele>2538.0</ele>
      </trkpt>
      <trkpt lat="44.30715" lon="6.82996">
        <time>2023-04-10T07:51:01+00:00</time>
        <ele>2539.0</ele>
      </trkpt>
      <trkpt lat="44.30715" lon="6.82996">
        <time>2023-04-10T07:51:02+00:00</time>
        <ele>2539.0</ele>
      </trkpt>
      <trkpt lat="44.30715" lon="6.82996">
        <time>2023-04-10T07:51:03+00:00</time>
        <ele>2539.0</ele>
      </trkpt>
      <trkpt lat="44.30715" lon="6.82996">
        <time>2023-04-10T07:51:04+00:00</time>
        <ele>2539.0</ele>
      </trkpt>
      <trkpt lat="44.30715" lon="6.82993">
        <time>2023-04-10T07:51:05+00:00</time>
        <ele>2540.0</ele>
      </trkpt>
      <trkpt lat="44.30715" lon="6.82993">
        <time>2023-04-10T07:51:06+00:00</time>
        <ele>2540.0</ele>
      </trkpt>
      <trkpt lat="44.30714" lon="6.82991">
        <time>2023-04-10T07:51:07+00:00</time>
        <ele>2541.0</ele>
      </trkpt>
      <trkpt lat="44.30714" lon="6.82991">
        <time>2023-04-10T07:51:08+00:00</time>
        <ele>2541.0</ele>
      </trkpt>
      <trkpt lat="44.30714" lon="6.82991">
        <time>2023-04-10T07:51:09+00:00</time>
        <ele>2541.0</ele>
      </trkpt>
      <trkpt lat="44.30713" lon="6.82988">
        <time>2023-04-10T07:51:10+00:00</time>
        <ele>2542.0</ele>
      </trkpt>
      <trkpt lat="44.30713" lon="6.82988">
        <time>2023-04-10T07:51:11+00:00</time>
        <ele>2542.0</ele>
      </trkpt>
      <trkpt lat="44.30713" lon="6.82988">
        <time>2023-04-10T07:51:12+00:00</time>
        <ele>2542.0</ele>
      </trkpt>
      <trkpt lat="44.30713" lon="6.82988">
        <time>2023-04-10T07:51:13+00:00</time>
        <ele>2542.0</ele>
      </trkpt>
      <trkpt lat="44.30712" lon="6.82985">
        <time>2023-04-10T07:51:14+00:00</time>
        <ele>2543.0</ele>
      </trkpt>
      <trkpt lat="44.30712" lon="6.82985">
        <time>2023-04-10T07:51:15+00:00</time>
        <ele>2543.0</ele>
      </trkpt>
      <trkpt lat="44.30712" lon="6.82985">
        <time>2023-04-10T07:51:16+00:00</time>
        <ele>2543.0</ele>
      </trkpt>
      <trkpt lat="44.30712" lon="6.82985">
        <time>2023-04-10T07:51:17+00:00</time>
        <ele>2543.0</ele>
      </trkpt>
      <trkpt lat="44.30712" lon="6.82982">
        <time>2023-04-10T07:51:18+00:00</time>
        <ele>2544.0</ele>
      </trkpt>
      <trkpt lat="44.30712" lon="6.82982">
        <time>2023-04-10T07:51:19+00:00</time>
        <ele>2544.0</ele>
      </trkpt>
      <trkpt lat="44.30712" lon="6.82982">
        <time>2023-04-10T07:51:20+00:00</time>
        <ele>2544.0</ele>
      </trkpt>
      <trkpt lat="44.30712" lon="6.82982">
        <time>2023-04-10T07:51:21+00:00</time>
        <ele>2544.0</ele>
      </trkpt>
      <trkpt lat="44.30711" lon="6.8298">
        <time>2023-04-10T07:51:22+00:00</time>
        <ele>2545.0</ele>
      </trkpt>
      <trkpt lat="44.30711" lon="6.8298">
        <time>2023-04-10T07:51:23+00:00</time>
        <ele>2545.0</ele>
      </trkpt>
      <trkpt lat="44.30711" lon="6.8298">
        <time>2023-04-10T07:51:24+00:00</time>
        <ele>2545.0</ele>
      </trkpt>
      <trkpt lat="44.30711" lon="6.8298">
        <time>2023-04-10T07:51:25+00:00</time>
        <ele>2545.0</ele>
      </trkpt>
      <trkpt lat="44.3071" lon="6.82978">
        <time>2023-04-10T07:51:26+00:00</time>
        <ele>2546.0</ele>
      </trkpt>
      <trkpt lat="44.3071" lon="6.82978">
        <time>2023-04-10T07:51:27+00:00</time>
        <ele>2546.0</ele>
      </trkpt>
      <trkpt lat="44.3071" lon="6.82978">
        <time>2023-04-10T07:51:28+00:00</time>
        <ele>2546.0</ele>
      </trkpt>
      <trkpt lat="44.3071" lon="6.82978">
        <time>2023-04-10T07:51:29+00:00</time>
        <ele>2546.0</ele>
      </trkpt>
      <trkpt lat="44.30708" lon="6.82976">
        <time>2023-04-10T07:51:30+00:00</time>
        <ele>2547.0</ele>
      </trkpt>
      <trkpt lat="44.30708" lon="6.82976">
        <time>2023-04-10T07:51:31+00:00</time>
        <ele>2547.0</ele>
      </trkpt>
      <trkpt lat="44.30708" lon="6.82976">
        <time>2023-04-10T07:51:32+00:00</time>
        <ele>2547.0</ele>
      </trkpt>
      <trkpt lat="44.30708" lon="6.82976">
        <time>2023-04-10T07:51:33+00:00</time>
        <ele>2547.0</ele>
      </trkpt>
      <trkpt lat="44.30707" lon="6.82974">
        <time>2023-04-10T07:51:34+00:00</time>
        <ele>2547.0</ele>
      </trkpt>
      <trkpt lat="44.30707" lon="6.82974">
        <time>2023-04-10T07:51:35+00:00</time>
        <ele>2547.0</ele>
      </trkpt>
      <trkpt lat="44.30707" lon="6.82974">
        <time>2023-04-10T07:51:36+00:00</time>
        <ele>2547.0</ele>
      </trkpt>
      <trkpt lat="44.30707" lon="6.82974">
        <time>2023-04-10T07:51:37+00:00</time>
        <ele>2547.0</ele>
      </trkpt>
      <trkpt lat="44.30705" lon="6.82973">
        <time>2023-04-10T07:51:38+00:00</time>
        <ele>2548.0</ele>
      </trkpt>
      <trkpt lat="44.30705" lon="6.82973">
        <time>2023-04-10T07:51:39+00:00</time>
        <ele>2548.0</ele>
      </trkpt>
      <trkpt lat="44.30705" lon="6.82973">
        <time>2023-04-10T07:51:40+00:00</time>
        <ele>2548.0</ele>
      </trkpt>
      <trkpt lat="44.30705" lon="6.82973">
        <time>2023-04-10T07:51:41+00:00</time>
        <ele>2548.0</ele>
      </trkpt>
      <trkpt lat="44.30705" lon="6.82973">
        <time>2023-04-10T07:51:42+00:00</time>
        <ele>2548.0</ele>
      </trkpt>
      <trkpt lat="44.30703" lon="6.8297">
        <time>2023-04-10T07:51:43+00:00</time>
        <ele>2550.0</ele>
      </trkpt>
      <trkpt lat="44.30703" lon="6.8297">
        <time>2023-04-10T07:51:44+00:00</time>
        <ele>2550.0</ele>
      </trkpt>
      <trkpt lat="44.30703" lon="6.8297">
        <time>2023-04-10T07:51:45+00:00</time>
        <ele>2550.0</ele>
      </trkpt>
      <trkpt lat="44.30703" lon="6.8297">
        <time>2023-04-10T07:51:46+00:00</time>
        <ele>2550.0</ele>
      </trkpt>
      <trkpt lat="44.30703" lon="6.82967">
        <time>2023-04-10T07:51:47+00:00</time>
        <ele>2551.0</ele>
      </trkpt>
      <trkpt lat="44.30703" lon="6.82967">
        <time>2023-04-10T07:51:48+00:00</time>
        <ele>2551.0</ele>
      </trkpt>
      <trkpt lat="44.30703" lon="6.82967">
        <time>2023-04-10T07:51:49+00:00</time>
        <ele>2551.0</ele>
      </trkpt>
      <trkpt lat="44.30705" lon="6.82965">
        <time>2023-04-10T07:51:50+00:00</time>
        <ele>2551.0</ele>
      </trkpt>
      <trkpt lat="44.30705" lon="6.82965">
        <time>2023-04-10T07:51:51+00:00</time>
        <ele>2551.0</ele>
      </trkpt>
      <trkpt lat="44.30705" lon="6.82965">
        <time>2023-04-10T07:51:52+00:00</time>
        <ele>2551.0</ele>
      </trkpt>
      <trkpt lat="44.30706" lon="6.82963">
        <time>2023-04-10T07:51:53+00:00</time>
        <ele>2551.0</ele>
      </trkpt>
      <trkpt lat="44.30706" lon="6.82963">
        <time>2023-04-10T07:51:54+00:00</time>
        <ele>2551.0</ele>
      </trkpt>
      <trkpt lat="44.30706" lon="6.82963">
        <time>2023-04-10T07:51:55+00:00</time>
        <ele>2551.0</ele>
      </trkpt>
      <trkpt lat="44.30707" lon="6.8296">
        <time>2023-04-10T07:51:56+00:00</time>
        <ele>2552.0</ele>
      </trkpt>
      <trkpt lat="44.30707" lon="6.8296">
        <time>2023-04-10T07:51:57+00:00</time>
        <ele>2552.0</ele>
      </trkpt>
      <trkpt lat="44.30707" lon="6.8296">
        <time>2023-04-10T07:51:58+00:00</time>
        <ele>2552.0</ele>
      </trkpt>
      <trkpt lat="44.30707" lon="6.82958">
        <time>2023-04-10T07:51:59+00:00</time>
        <ele>2552.0</ele>
      </trkpt>
      <trkpt lat="44.30707" lon="6.82958">
        <time>2023-04-10T07:52:00+00:00</time>
        <ele>2552.0</ele>
      </trkpt>
      <trkpt lat="44.30707" lon="6.82958">
        <time>2023-04-10T07:52:01+00:00</time>
        <ele>2552.0</ele>
      </trkpt>
      <trkpt lat="44.30707" lon="6.82958">
        <time>2023-04-10T07:52:02+00:00</time>
        <ele>2552.0</ele>
      </trkpt>
      <trkpt lat="44.30707" lon="6.82954">
        <time>2023-04-10T07:52:03+00:00</time>
        <ele>2553.0</ele>
      </trkpt>
      <trkpt lat="44.30707" lon="6.82954">
        <time>2023-04-10T07:52:04+00:00</time>
        <ele>2553.0</ele>
      </trkpt>
      <trkpt lat="44.30707" lon="6.82954">
        <time>2023-04-10T07:52:05+00:00</time>
        <ele>2553.0</ele>
      </trkpt>
      <trkpt lat="44.30707" lon="6.82954">
        <time>2023-04-10T07:52:06+00:00</time>
        <ele>2553.0</ele>
      </trkpt>
      <trkpt lat="44.30707" lon="6.82951">
        <time>2023-04-10T07:52:07+00:00</time>
        <ele>2554.0</ele>
      </trkpt>
      <trkpt lat="44.30707" lon="6.82951">
        <time>2023-04-10T07:52:08+00:00</time>
        <ele>2554.0</ele>
      </trkpt>
      <trkpt lat="44.30707" lon="6.82951">
        <time>2023-04-10T07:52:09+00:00</time>
        <ele>2554.0</ele>
      </trkpt>
      <trkpt lat="44.30707" lon="6.82951">
        <time>2023-04-10T07:52:10+00:00</time>
        <ele>2554.0</ele>
      </trkpt>
      <trkpt lat="44.30705" lon="6.82949">
        <time>2023-04-10T07:52:11+00:00</time>
        <ele>2555.0</ele>
      </trkpt>
      <trkpt lat="44.30705" lon="6.82949">
        <time>2023-04-10T07:52:12+00:00</time>
        <ele>2555.0</ele>
      </trkpt>
      <trkpt lat="44.30705" lon="6.82949">
        <time>2023-04-10T07:52:13+00:00</time>
        <ele>2555.0</ele>
      </trkpt>
      <trkpt lat="44.30704" lon="6.82946">
        <time>2023-04-10T07:52:14+00:00</time>
        <ele>2556.0</ele>
      </trkpt>
      <trkpt lat="44.30704" lon="6.82946">
        <time>2023-04-10T07:52:15+00:00</time>
        <ele>2556.0</ele>
      </trkpt>
      <trkpt lat="44.30704" lon="6.82946">
        <time>2023-04-10T07:52:16+00:00</time>
        <ele>2556.0</ele>
      </trkpt>
      <trkpt lat="44.30704" lon="6.82946">
        <time>2023-04-10T07:52:17+00:00</time>
        <ele>2556.0</ele>
      </trkpt>
      <trkpt lat="44.30702" lon="6.82944">
        <time>2023-04-10T07:52:18+00:00</time>
        <ele>2557.0</ele>
      </trkpt>
      <trkpt lat="44.30702" lon="6.82944">
        <time>2023-04-10T07:52:19+00:00</time>
        <ele>2557.0</ele>
      </trkpt>
      <trkpt lat="44.30702" lon="6.82944">
        <time>2023-04-10T07:52:20+00:00</time>
        <ele>2557.0</ele>
      </trkpt>
      <trkpt lat="44.30702" lon="6.82944">
        <time>2023-04-10T07:52:21+00:00</time>
        <ele>2557.0</ele>
      </trkpt>
      <trkpt lat="44.30701" lon="6.82942">
        <time>2023-04-10T07:52:22+00:00</time>
        <ele>2558.0</ele>
      </trkpt>
      <trkpt lat="44.30701" lon="6.82942">
        <time>2023-04-10T07:52:23+00:00</time>
        <ele>2558.0</ele>
      </trkpt>
      <trkpt lat="44.30701" lon="6.82942">
        <time>2023-04-10T07:52:24+00:00</time>
        <ele>2558.0</ele>
      </trkpt>
      <trkpt lat="44.30701" lon="6.82942">
        <time>2023-04-10T07:52:25+00:00</time>
        <ele>2558.0</ele>
      </trkpt>
      <trkpt lat="44.307" lon="6.8294">
        <time>2023-04-10T07:52:26+00:00</time>
        <ele>2559.0</ele>
      </trkpt>
      <trkpt lat="44.307" lon="6.8294">
        <time>2023-04-10T07:52:27+00:00</time>
        <ele>2559.0</ele>
      </trkpt>
      <trkpt lat="44.307" lon="6.8294">
        <time>2023-04-10T07:52:28+00:00</time>
        <ele>2559.0</ele>
      </trkpt>
      <trkpt lat="44.307" lon="6.8294">
        <time>2023-04-10T07:52:29+00:00</time>
        <ele>2559.0</ele>
      </trkpt>
      <trkpt lat="44.30698" lon="6.82938">
        <time>2023-04-10T07:52:30+00:00</time>
        <ele>2560.0</ele>
      </trkpt>
      <trkpt lat="44.30698" lon="6.82938">
        <time>2023-04-10T07:52:31+00:00</time>
        <ele>2560.0</ele>
      </trkpt>
      <trkpt lat="44.30698" lon="6.82938">
        <time>2023-04-10T07:52:32+00:00</time>
        <ele>2560.0</ele>
      </trkpt>
      <trkpt lat="44.30698" lon="6.82938">
        <time>2023-04-10T07:52:33+00:00</time>
        <ele>2560.0</ele>
      </trkpt>
      <trkpt lat="44.30698" lon="6.82935">
        <time>2023-04-10T07:52:34+00:00</time>
        <ele>2560.0</ele>
      </trkpt>
      <trkpt lat="44.30698" lon="6.82935">
        <time>2023-04-10T07:52:35+00:00</time>
        <ele>2560.0</ele>
      </trkpt>
      <trkpt lat="44.30698" lon="6.82935">
        <time>2023-04-10T07:52:36+00:00</time>
        <ele>2560.0</ele>
      </trkpt>
      <trkpt lat="44.30699" lon="6.82933">
        <time>2023-04-10T07:52:37+00:00</time>
        <ele>2561.0</ele>
      </trkpt>
      <trkpt lat="44.30699" lon="6.82933">
        <time>2023-04-10T07:52:38+00:00</time>
        <ele>2561.0</ele>
      </trkpt>
      <trkpt lat="44.30699" lon="6.82933">
        <time>2023-04-10T07:52:39+00:00</time>
        <ele>2561.0</ele>
      </trkpt>
      <trkpt lat="44.30699" lon="6.8293">
        <time>2023-04-10T07:52:40+00:00</time>
        <ele>2561.0</ele>
      </trkpt>
      <trkpt lat="44.30699" lon="6.8293">
        <time>2023-04-10T07:52:41+00:00</time>
        <ele>2561.0</ele>
      </trkpt>
      <trkpt lat="44.30699" lon="6.8293">
        <time>2023-04-10T07:52:42+00:00</time>
        <ele>2561.0</ele>
      </trkpt>
      <trkpt lat="44.307" lon="6.82928">
        <time>2023-04-10T07:52:43+00:00</time>
        <ele>2562.0</ele>
      </trkpt>
      <trkpt lat="44.307" lon="6.82928">
        <time>2023-04-10T07:52:44+00:00</time>
        <ele>2562.0</ele>
      </trkpt>
      <trkpt lat="44.30702" lon="6.82926">
        <time>2023-04-10T07:52:45+00:00</time>
        <ele>2562.0</ele>
      </trkpt>
      <trkpt lat="44.30702" lon="6.82926">
        <time>2023-04-10T07:52:46+00:00</time>
        <ele>2562.0</ele>
      </trkpt>
      <trkpt lat="44.30702" lon="6.82926">
        <time>2023-04-10T07:52:47+00:00</time>
        <ele>2562.0</ele>
      </trkpt>
      <trkpt lat="44.30704" lon="6.82924">
        <time>2023-04-10T07:52:48+00:00</time>
        <ele>2562.0</ele>
      </trkpt>
      <trkpt lat="44.30704" lon="6.82924">
        <time>2023-04-10T07:52:49+00:00</time>
        <ele>2562.0</ele>
      </trkpt>
      <trkpt lat="44.30704" lon="6.82924">
        <time>2023-04-10T07:52:50+00:00</time>
        <ele>2562.0</ele>
      </trkpt>
      <trkpt lat="44.30705" lon="6.82923">
        <time>2023-04-10T07:52:51+00:00</time>
        <ele>2562.0</ele>
      </trkpt>
      <trkpt lat="44.30705" lon="6.82923">
        <time>2023-04-10T07:52:52+00:00</time>
        <ele>2562.0</ele>
      </trkpt>
      <trkpt lat="44.30705" lon="6.82923">
        <time>2023-04-10T07:52:53+00:00</time>
        <ele>2562.0</ele>
      </trkpt>
      <trkpt lat="44.30707" lon="6.82921">
        <time>2023-04-10T07:52:54+00:00</time>
        <ele>2562.0</ele>
      </trkpt>
      <trkpt lat="44.30707" lon="6.82921">
        <time>2023-04-10T07:52:55+00:00</time>
        <ele>2562.0</ele>
      </trkpt>
      <trkpt lat="44.30707" lon="6.82921">
        <time>2023-04-10T07:52:56+00:00</time>
        <ele>2562.0</ele>
      </trkpt>
      <trkpt lat="44.30708" lon="6.82919">
        <time>2023-04-10T07:52:57+00:00</time>
        <ele>2563.0</ele>
      </trkpt>
      <trkpt lat="44.30708" lon="6.82919">
        <time>2023-04-10T07:52:58+00:00</time>
        <ele>2563.0</ele>
      </trkpt>
      <trkpt lat="44.30708" lon="6.82919">
        <time>2023-04-10T07:52:59+00:00</time>
        <ele>2563.0</ele>
      </trkpt>
      <trkpt lat="44.30708" lon="6.82919">
        <time>2023-04-10T07:53:00+00:00</time>
        <ele>2563.0</ele>
      </trkpt>
      <trkpt lat="44.3071" lon="6.82918">
        <time>2023-04-10T07:53:01+00:00</time>
        <ele>2563.0</ele>
      </trkpt>
      <trkpt lat="44.3071" lon="6.82918">
        <time>2023-04-10T07:53:02+00:00</time>
        <ele>2563.0</ele>
      </trkpt>
      <trkpt lat="44.3071" lon="6.82918">
        <time>2023-04-10T07:53:03+00:00</time>
        <ele>2563.0</ele>
      </trkpt>
      <trkpt lat="44.30712" lon="6.82917">
        <time>2023-04-10T07:53:04+00:00</time>
        <ele>2563.0</ele>
      </trkpt>
      <trkpt lat="44.30712" lon="6.82917">
        <time>2023-04-10T07:53:05+00:00</time>
        <ele>2563.0</ele>
      </trkpt>
      <trkpt lat="44.30712" lon="6.82917">
        <time>2023-04-10T07:53:06+00:00</time>
        <ele>2563.0</ele>
      </trkpt>
      <trkpt lat="44.30714" lon="6.82915">
        <time>2023-04-10T07:53:07+00:00</time>
        <ele>2563.0</ele>
      </trkpt>
      <trkpt lat="44.30714" lon="6.82915">
        <time>2023-04-10T07:53:08+00:00</time>
        <ele>2563.0</ele>
      </trkpt>
      <trkpt lat="44.30714" lon="6.82915">
        <time>2023-04-10T07:53:09+00:00</time>
        <ele>2563.0</ele>
      </trkpt>
      <trkpt lat="44.30714" lon="6.82915">
        <time>2023-04-10T07:53:10+00:00</time>
        <ele>2563.0</ele>
      </trkpt>
      <trkpt lat="44.30716" lon="6.82914">
        <time>2023-04-10T07:53:11+00:00</time>
        <ele>2563.0</ele>
      </trkpt>
      <trkpt lat="44.30716" lon="6.82914">
        <time>2023-04-10T07:53:12+00:00</time>
        <ele>2563.0</ele>
      </trkpt>
      <trkpt lat="44.30716" lon="6.82914">
        <time>2023-04-10T07:53:13+00:00</time>
        <ele>2563.0</ele>
      </trkpt>
      <trkpt lat="44.30716" lon="6.82914">
        <time>2023-04-10T07:53:14+00:00</time>
        <ele>2563.0</ele>
      </trkpt>
      <trkpt lat="44.30718" lon="6.82913">
        <time>2023-04-10T07:53:15+00:00</time>
        <ele>2563.0</ele>
      </trkpt>
      <trkpt lat="44.30718" lon="6.82913">
        <time>2023-04-10T07:53:16+00:00</time>
        <ele>2563.0</ele>
      </trkpt>
      <trkpt lat="44.3072" lon="6.82912">
        <time>2023-04-10T07:53:17+00:00</time>
        <ele>2564.0</ele>
      </trkpt>
      <trkpt lat="44.3072" lon="6.82912">
        <time>2023-04-10T07:53:18+00:00</time>
        <ele>2564.0</ele>
      </trkpt>
      <trkpt lat="44.3072" lon="6.82912">
        <time>2023-04-10T07:53:19+00:00</time>
        <ele>2564.0</ele>
      </trkpt>
      <trkpt lat="44.3072" lon="6.82912">
        <time>2023-04-10T07:53:20+00:00</time>
        <ele>2564.0</ele>
      </trkpt>
      <trkpt lat="44.30723" lon="6.82911">
        <time>2023-04-10T07:53:21+00:00</time>
        <ele>2564.0</ele>
      </trkpt>
      <trkpt lat="44.30723" lon="6.82911">
        <time>2023-04-10T07:53:22+00:00</time>
        <ele>2564.0</ele>
      </trkpt>
      <trkpt lat="44.30723" lon="6.82911">
        <time>2023-04-10T07:53:23+00:00</time>
        <ele>2564.0</ele>
      </trkpt>
      <trkpt lat="44.30725" lon="6.82911">
        <time>2023-04-10T07:53:24+00:00</time>
        <ele>2564.0</ele>
      </trkpt>
      <trkpt lat="44.30725" lon="6.82911">
        <time>2023-04-10T07:53:25+00:00</time>
        <ele>2564.0</ele>
      </trkpt>
      <trkpt lat="44.30727" lon="6.82911">
        <time>2023-04-10T07:53:26+00:00</time>
        <ele>2565.0</ele>
      </trkpt>
      <trkpt lat="44.30727" lon="6.82911">
        <time>2023-04-10T07:53:27+00:00</time>
        <ele>2565.0</ele>
      </trkpt>
      <trkpt lat="44.30727" lon="6.82911">
        <time>2023-04-10T07:53:28+00:00</time>
        <ele>2565.0</ele>
      </trkpt>
      <trkpt lat="44.30727" lon="6.82911">
        <time>2023-04-10T07:53:29+00:00</time>
        <ele>2565.0</ele>
      </trkpt>
      <trkpt lat="44.30727" lon="6.82911">
        <time>2023-04-10T07:53:30+00:00</time>
        <ele>2565.0</ele>
      </trkpt>
      <trkpt lat="44.30729" lon="6.82911">
        <time>2023-04-10T07:53:31+00:00</time>
        <ele>2565.0</ele>
      </trkpt>
      <trkpt lat="44.30729" lon="6.82911">
        <time>2023-04-10T07:53:32+00:00</time>
        <ele>2565.0</ele>
      </trkpt>
      <trkpt lat="44.30729" lon="6.82911">
        <time>2023-04-10T07:53:33+00:00</time>
        <ele>2565.0</ele>
      </trkpt>
      <trkpt lat="44.30729" lon="6.82911">
        <time>2023-04-10T07:53:34+00:00</time>
        <ele>2565.0</ele>
      </trkpt>
      <trkpt lat="44.30731" lon="6.8291">
        <time>2023-04-10T07:53:35+00:00</time>
        <ele>2565.0</ele>
      </trkpt>
      <trkpt lat="44.30731" lon="6.8291">
        <time>2023-04-10T07:53:36+00:00</time>
        <ele>2565.0</ele>
      </trkpt>
      <trkpt lat="44.30731" lon="6.8291">
        <time>2023-04-10T07:53:37+00:00</time>
        <ele>2565.0</ele>
      </trkpt>
      <trkpt lat="44.30731" lon="6.8291">
        <time>2023-04-10T07:53:38+00:00</time>
        <ele>2565.0</ele>
      </trkpt>
      <trkpt lat="44.30733" lon="6.8291">
        <time>2023-04-10T07:53:39+00:00</time>
        <ele>2566.0</ele>
      </trkpt>
      <trkpt lat="44.30733" lon="6.8291">
        <time>2023-04-10T07:53:40+00:00</time>
        <ele>2566.0</ele>
      </trkpt>
      <trkpt lat="44.30733" lon="6.8291">
        <time>2023-04-10T07:53:41+00:00</time>
        <ele>2566.0</ele>
      </trkpt>
      <trkpt lat="44.30735" lon="6.8291">
        <time>2023-04-10T07:53:42+00:00</time>
        <ele>2566.0</ele>
      </trkpt>
      <trkpt lat="44.30735" lon="6.8291">
        <time>2023-04-10T07:53:43+00:00</time>
        <ele>2566.0</ele>
      </trkpt>
      <trkpt lat="44.30735" lon="6.8291">
        <time>2023-04-10T07:53:44+00:00</time>
        <ele>2566.0</ele>
      </trkpt>
      <trkpt lat="44.30735" lon="6.8291">
        <time>2023-04-10T07:53:45+00:00</time>
        <ele>2566.0</ele>
      </trkpt>
      <trkpt lat="44.30737" lon="6.82909">
        <time>2023-04-10T07:53:46+00:00</time>
        <ele>2566.0</ele>
      </trkpt>
      <trkpt lat="44.30737" lon="6.82909">
        <time>2023-04-10T07:53:47+00:00</time>
        <ele>2566.0</ele>
      </trkpt>
      <trkpt lat="44.30737" lon="6.82909">
        <time>2023-04-10T07:53:48+00:00</time>
        <ele>2566.0</ele>
      </trkpt>
      <trkpt lat="44.30737" lon="6.82909">
        <time>2023-04-10T07:53:49+00:00</time>
        <ele>2566.0</ele>
      </trkpt>
      <trkpt lat="44.30739" lon="6.82909">
        <time>2023-04-10T07:53:50+00:00</time>
        <ele>2567.0</ele>
      </trkpt>
      <trkpt lat="44.30739" lon="6.82909">
        <time>2023-04-10T07:53:51+00:00</time>
        <ele>2567.0</ele>
      </trkpt>
      <trkpt lat="44.30739" lon="6.82909">
        <time>2023-04-10T07:53:52+00:00</time>
        <ele>2567.0</ele>
      </trkpt>
      <trkpt lat="44.30739" lon="6.82909">
        <time>2023-04-10T07:53:53+00:00</time>
        <ele>2567.0</ele>
      </trkpt>
      <trkpt lat="44.30741" lon="6.82909">
        <time>2023-04-10T07:53:54+00:00</time>
        <ele>2568.0</ele>
      </trkpt>
      <trkpt lat="44.30741" lon="6.82909">
        <time>2023-04-10T07:53:55+00:00</time>
        <ele>2568.0</ele>
      </trkpt>
      <trkpt lat="44.30741" lon="6.82909">
        <time>2023-04-10T07:53:56+00:00</time>
        <ele>2568.0</ele>
      </trkpt>
      <trkpt lat="44.30741" lon="6.82909">
        <time>2023-04-10T07:53:57+00:00</time>
        <ele>2568.0</ele>
      </trkpt>
      <trkpt lat="44.30743" lon="6.82908">
        <time>2023-04-10T07:53:58+00:00</time>
        <ele>2569.0</ele>
      </trkpt>
      <trkpt lat="44.30743" lon="6.82908">
        <time>2023-04-10T07:53:59+00:00</time>
        <ele>2569.0</ele>
      </trkpt>
      <trkpt lat="44.30745" lon="6.82908">
        <time>2023-04-10T07:54:00+00:00</time>
        <ele>2569.0</ele>
      </trkpt>
      <trkpt lat="44.30745" lon="6.82908">
        <time>2023-04-10T07:54:01+00:00</time>
        <ele>2569.0</ele>
      </trkpt>
      <trkpt lat="44.30747" lon="6.82907">
        <time>2023-04-10T07:54:02+00:00</time>
        <ele>2570.0</ele>
      </trkpt>
      <trkpt lat="44.30747" lon="6.82907">
        <time>2023-04-10T07:54:03+00:00</time>
        <ele>2570.0</ele>
      </trkpt>
      <trkpt lat="44.30747" lon="6.82907">
        <time>2023-04-10T07:54:04+00:00</time>
        <ele>2570.0</ele>
      </trkpt>
      <trkpt lat="44.30749" lon="6.82907">
        <time>2023-04-10T07:54:05+00:00</time>
        <ele>2571.0</ele>
      </trkpt>
      <trkpt lat="44.30749" lon="6.82907">
        <time>2023-04-10T07:54:06+00:00</time>
        <ele>2571.0</ele>
      </trkpt>
      <trkpt lat="44.30749" lon="6.82907">
        <time>2023-04-10T07:54:07+00:00</time>
        <ele>2571.0</ele>
      </trkpt>
      <trkpt lat="44.30749" lon="6.82907">
        <time>2023-04-10T07:54:08+00:00</time>
        <ele>2571.0</ele>
      </trkpt>
      <trkpt lat="44.30749" lon="6.82907">
        <time>2023-04-10T07:54:09+00:00</time>
        <ele>2571.0</ele>
      </trkpt>
      <trkpt lat="44.30749" lon="6.82907">
        <time>2023-04-10T07:54:10+00:00</time>
        <ele>2571.0</ele>
      </trkpt>
      <trkpt lat="44.30749" lon="6.82907">
        <time>2023-04-10T07:54:11+00:00</time>
        <ele>2571.0</ele>
      </trkpt>
      <trkpt lat="44.30748" lon="6.82904">
        <time>2023-04-10T07:54:12+00:00</time>
        <ele>2571.0</ele>
      </trkpt>
      <trkpt lat="44.30748" lon="6.82904">
        <time>2023-04-10T07:54:13+00:00</time>
        <ele>2571.0</ele>
      </trkpt>
      <trkpt lat="44.30748" lon="6.82904">
        <time>2023-04-10T07:54:14+00:00</time>
        <ele>2571.0</ele>
      </trkpt>
      <trkpt lat="44.30747" lon="6.82901">
        <time>2023-04-10T07:54:15+00:00</time>
        <ele>2572.0</ele>
      </trkpt>
      <trkpt lat="44.30747" lon="6.82901">
        <time>2023-04-10T07:54:16+00:00</time>
        <ele>2572.0</ele>
      </trkpt>
      <trkpt lat="44.30747" lon="6.82901">
        <time>2023-04-10T07:54:17+00:00</time>
        <ele>2572.0</ele>
      </trkpt>
      <trkpt lat="44.30747" lon="6.82901">
        <time>2023-04-10T07:54:18+00:00</time>
        <ele>2572.0</ele>
      </trkpt>
      <trkpt lat="44.30746" lon="6.82899">
        <time>2023-04-10T07:54:19+00:00</time>
        <ele>2573.0</ele>
      </trkpt>
      <trkpt lat="44.30746" lon="6.82899">
        <time>2023-04-10T07:54:20+00:00</time>
        <ele>2573.0</ele>
      </trkpt>
      <trkpt lat="44.30746" lon="6.82899">
        <time>2023-04-10T07:54:21+00:00</time>
        <ele>2573.0</ele>
      </trkpt>
      <trkpt lat="44.30746" lon="6.82899">
        <time>2023-04-10T07:54:22+00:00</time>
        <ele>2573.0</ele>
      </trkpt>
      <trkpt lat="44.30745" lon="6.82896">
        <time>2023-04-10T07:54:23+00:00</time>
        <ele>2573.0</ele>
      </trkpt>
      <trkpt lat="44.30745" lon="6.82896">
        <time>2023-04-10T07:54:24+00:00</time>
        <ele>2573.0</ele>
      </trkpt>
      <trkpt lat="44.30745" lon="6.82896">
        <time>2023-04-10T07:54:25+00:00</time>
        <ele>2573.0</ele>
      </trkpt>
      <trkpt lat="44.30745" lon="6.82896">
        <time>2023-04-10T07:54:26+00:00</time>
        <ele>2573.0</ele>
      </trkpt>
      <trkpt lat="44.30743" lon="6.82893">
        <time>2023-04-10T07:54:27+00:00</time>
        <ele>2574.0</ele>
      </trkpt>
      <trkpt lat="44.30743" lon="6.82893">
        <time>2023-04-10T07:54:28+00:00</time>
        <ele>2574.0</ele>
      </trkpt>
      <trkpt lat="44.30743" lon="6.82893">
        <time>2023-04-10T07:54:29+00:00</time>
        <ele>2574.0</ele>
      </trkpt>
      <trkpt lat="44.30742" lon="6.8289">
        <time>2023-04-10T07:54:30+00:00</time>
        <ele>2575.0</ele>
      </trkpt>
      <trkpt lat="44.30742" lon="6.8289">
        <time>2023-04-10T07:54:31+00:00</time>
        <ele>2575.0</ele>
      </trkpt>
      <trkpt lat="44.30742" lon="6.8289">
        <time>2023-04-10T07:54:32+00:00</time>
        <ele>2575.0</ele>
      </trkpt>
      <trkpt lat="44.30741" lon="6.82888">
        <time>2023-04-10T07:54:33+00:00</time>
        <ele>2575.0</ele>
      </trkpt>
      <trkpt lat="44.30741" lon="6.82888">
        <time>2023-04-10T07:54:34+00:00</time>
        <ele>2575.0</ele>
      </trkpt>
      <trkpt lat="44.30741" lon="6.82888">
        <time>2023-04-10T07:54:35+00:00</time>
        <ele>2575.0</ele>
      </trkpt>
      <trkpt lat="44.30741" lon="6.82885">
        <time>2023-04-10T07:54:36+00:00</time>
        <ele>2576.0</ele>
      </trkpt>
      <trkpt lat="44.30741" lon="6.82885">
        <time>2023-04-10T07:54:37+00:00</time>
        <ele>2576.0</ele>
      </trkpt>
      <trkpt lat="44.30741" lon="6.82885">
        <time>2023-04-10T07:54:38+00:00</time>
        <ele>2576.0</ele>
      </trkpt>
      <trkpt lat="44.3074" lon="6.82883">
        <time>2023-04-10T07:54:39+00:00</time>
        <ele>2577.0</ele>
      </trkpt>
      <trkpt lat="44.3074" lon="6.82883">
        <time>2023-04-10T07:54:40+00:00</time>
        <ele>2577.0</ele>
      </trkpt>
      <trkpt lat="44.3074" lon="6.82883">
        <time>2023-04-10T07:54:41+00:00</time>
        <ele>2577.0</ele>
      </trkpt>
      <trkpt lat="44.30739" lon="6.8288">
        <time>2023-04-10T07:54:42+00:00</time>
        <ele>2577.0</ele>
      </trkpt>
      <trkpt lat="44.30739" lon="6.8288">
        <time>2023-04-10T07:54:43+00:00</time>
        <ele>2577.0</ele>
      </trkpt>
      <trkpt lat="44.30739" lon="6.8288">
        <time>2023-04-10T07:54:44+00:00</time>
        <ele>2577.0</ele>
      </trkpt>
      <trkpt lat="44.30739" lon="6.8288">
        <time>2023-04-10T07:54:45+00:00</time>
        <ele>2577.0</ele>
      </trkpt>
      <trkpt lat="44.30738" lon="6.82877">
        <time>2023-04-10T07:54:46+00:00</time>
        <ele>2578.0</ele>
      </trkpt>
      <trkpt lat="44.30738" lon="6.82877">
        <time>2023-04-10T07:54:47+00:00</time>
        <ele>2578.0</ele>
      </trkpt>
      <trkpt lat="44.30738" lon="6.82877">
        <time>2023-04-10T07:54:48+00:00</time>
        <ele>2578.0</ele>
      </trkpt>
      <trkpt lat="44.30738" lon="6.82877">
        <time>2023-04-10T07:54:49+00:00</time>
        <ele>2578.0</ele>
      </trkpt>
      <trkpt lat="44.30738" lon="6.82874">
        <time>2023-04-10T07:54:50+00:00</time>
        <ele>2579.0</ele>
      </trkpt>
      <trkpt lat="44.30738" lon="6.82874">
        <time>2023-04-10T07:54:51+00:00</time>
        <ele>2579.0</ele>
      </trkpt>
      <trkpt lat="44.30738" lon="6.82874">
        <time>2023-04-10T07:54:52+00:00</time>
        <ele>2579.0</ele>
      </trkpt>
      <trkpt lat="44.30738" lon="6.82874">
        <time>2023-04-10T07:54:53+00:00</time>
        <ele>2579.0</ele>
      </trkpt>
      <trkpt lat="44.30739" lon="6.82871">
        <time>2023-04-10T07:54:54+00:00</time>
        <ele>2581.0</ele>
      </trkpt>
      <trkpt lat="44.30739" lon="6.82871">
        <time>2023-04-10T07:54:55+00:00</time>
        <ele>2581.0</ele>
      </trkpt>
      <trkpt lat="44.30739" lon="6.82871">
        <time>2023-04-10T07:54:56+00:00</time>
        <ele>2581.0</ele>
      </trkpt>
      <trkpt lat="44.30739" lon="6.82871">
        <time>2023-04-10T07:54:57+00:00</time>
        <ele>2581.0</ele>
      </trkpt>
      <trkpt lat="44.30741" lon="6.8287">
        <time>2023-04-10T07:54:58+00:00</time>
        <ele>2582.0</ele>
      </trkpt>
      <trkpt lat="44.30741" lon="6.8287">
        <time>2023-04-10T07:54:59+00:00</time>
        <ele>2582.0</ele>
      </trkpt>
      <trkpt lat="44.30741" lon="6.8287">
        <time>2023-04-10T07:55:00+00:00</time>
        <ele>2582.0</ele>
      </trkpt>
      <trkpt lat="44.30741" lon="6.8287">
        <time>2023-04-10T07:55:01+00:00</time>
        <ele>2582.0</ele>
      </trkpt>
      <trkpt lat="44.30743" lon="6.82869">
        <time>2023-04-10T07:55:02+00:00</time>
        <ele>2583.0</ele>
      </trkpt>
      <trkpt lat="44.30743" lon="6.82869">
        <time>2023-04-10T07:55:03+00:00</time>
        <ele>2583.0</ele>
      </trkpt>
      <trkpt lat="44.30743" lon="6.82869">
        <time>2023-04-10T07:55:04+00:00</time>
        <ele>2583.0</ele>
      </trkpt>
      <trkpt lat="44.30745" lon="6.82869">
        <time>2023-04-10T07:55:05+00:00</time>
        <ele>2583.0</ele>
      </trkpt>
      <trkpt lat="44.30745" lon="6.82869">
        <time>2023-04-10T07:55:06+00:00</time>
        <ele>2583.0</ele>
      </trkpt>
      <trkpt lat="44.30747" lon="6.82869">
        <time>2023-04-10T07:55:07+00:00</time>
        <ele>2584.0</ele>
      </trkpt>
      <trkpt lat="44.30747" lon="6.82869">
        <time>2023-04-10T07:55:08+00:00</time>
        <ele>2584.0</ele>
      </trkpt>
      <trkpt lat="44.30747" lon="6.82869">
        <time>2023-04-10T07:55:09+00:00</time>
        <ele>2584.0</ele>
      </trkpt>
      <trkpt lat="44.30747" lon="6.82869">
        <time>2023-04-10T07:55:10+00:00</time>
        <ele>2584.0</ele>
      </trkpt>
      <trkpt lat="44.30749" lon="6.82868">
        <time>2023-04-10T07:55:11+00:00</time>
        <ele>2585.0</ele>
      </trkpt>
      <trkpt lat="44.30749" lon="6.82868">
        <time>2023-04-10T07:55:12+00:00</time>
        <ele>2585.0</ele>
      </trkpt>
      <trkpt lat="44.30749" lon="6.82868">
        <time>2023-04-10T07:55:13+00:00</time>
        <ele>2585.0</ele>
      </trkpt>
      <trkpt lat="44.30749" lon="6.82868">
        <time>2023-04-10T07:55:14+00:00</time>
        <ele>2585.0</ele>
      </trkpt>
      <trkpt lat="44.30751" lon="6.82868">
        <time>2023-04-10T07:55:15+00:00</time>
        <ele>2585.0</ele>
      </trkpt>
      <trkpt lat="44.30751" lon="6.82868">
        <time>2023-04-10T07:55:16+00:00</time>
        <ele>2585.0</ele>
      </trkpt>
      <trkpt lat="44.30751" lon="6.82868">
        <time>2023-04-10T07:55:17+00:00</time>
        <ele>2585.0</ele>
      </trkpt>
      <trkpt lat="44.30751" lon="6.82868">
        <time>2023-04-10T07:55:18+00:00</time>
        <ele>2585.0</ele>
      </trkpt>
      <trkpt lat="44.30753" lon="6.82868">
        <time>2023-04-10T07:55:19+00:00</time>
        <ele>2586.0</ele>
      </trkpt>
      <trkpt lat="44.30753" lon="6.82868">
        <time>2023-04-10T07:55:20+00:00</time>
        <ele>2586.0</ele>
      </trkpt>
      <trkpt lat="44.30753" lon="6.82868">
        <time>2023-04-10T07:55:21+00:00</time>
        <ele>2586.0</ele>
      </trkpt>
      <trkpt lat="44.30753" lon="6.82868">
        <time>2023-04-10T07:55:22+00:00</time>
        <ele>2586.0</ele>
      </trkpt>
      <trkpt lat="44.30755" lon="6.82868">
        <time>2023-04-10T07:55:23+00:00</time>
        <ele>2586.0</ele>
      </trkpt>
      <trkpt lat="44.30755" lon="6.82868">
        <time>2023-04-10T07:55:24+00:00</time>
        <ele>2586.0</ele>
      </trkpt>
      <trkpt lat="44.30755" lon="6.82868">
        <time>2023-04-10T07:55:25+00:00</time>
        <ele>2586.0</ele>
      </trkpt>
      <trkpt lat="44.30755" lon="6.82868">
        <time>2023-04-10T07:55:26+00:00</time>
        <ele>2586.0</ele>
      </trkpt>
      <trkpt lat="44.30755" lon="6.82868">
        <time>2023-04-10T07:55:27+00:00</time>
        <ele>2586.0</ele>
      </trkpt>
      <trkpt lat="44.30755" lon="6.82868">
        <time>2023-04-10T07:55:28+00:00</time>
        <ele>2586.0</ele>
      </trkpt>
      <trkpt lat="44.30755" lon="6.82868">
        <time>2023-04-10T07:55:29+00:00</time>
        <ele>2586.0</ele>
      </trkpt>
      <trkpt lat="44.30753" lon="6.82865">
        <time>2023-04-10T07:55:30+00:00</time>
        <ele>2587.0</ele>
      </trkpt>
      <trkpt lat="44.30753" lon="6.82865">
        <time>2023-04-10T07:55:31+00:00</time>
        <ele>2587.0</ele>
      </trkpt>
      <trkpt lat="44.30753" lon="6.82865">
        <time>2023-04-10T07:55:32+00:00</time>
        <ele>2587.0</ele>
      </trkpt>
      <trkpt lat="44.30753" lon="6.82865">
        <time>2023-04-10T07:55:33+00:00</time>
        <ele>2587.0</ele>
      </trkpt>
      <trkpt lat="44.30753" lon="6.82862">
        <time>2023-04-10T07:55:34+00:00</time>
        <ele>2588.0</ele>
      </trkpt>
      <trkpt lat="44.30753" lon="6.82862">
        <time>2023-04-10T07:55:35+00:00</time>
        <ele>2588.0</ele>
      </trkpt>
      <trkpt lat="44.30753" lon="6.82862">
        <time>2023-04-10T07:55:36+00:00</time>
        <ele>2588.0</ele>
      </trkpt>
      <trkpt lat="44.30753" lon="6.82862">
        <time>2023-04-10T07:55:37+00:00</time>
        <ele>2588.0</ele>
      </trkpt>
      <trkpt lat="44.30753" lon="6.82859">
        <time>2023-04-10T07:55:38+00:00</time>
        <ele>2589.0</ele>
      </trkpt>
      <trkpt lat="44.30753" lon="6.82859">
        <time>2023-04-10T07:55:39+00:00</time>
        <ele>2589.0</ele>
      </trkpt>
      <trkpt lat="44.30753" lon="6.82859">
        <time>2023-04-10T07:55:40+00:00</time>
        <ele>2589.0</ele>
      </trkpt>
      <trkpt lat="44.30753" lon="6.82859">
        <time>2023-04-10T07:55:41+00:00</time>
        <ele>2589.0</ele>
      </trkpt>
      <trkpt lat="44.30753" lon="6.82856">
        <time>2023-04-10T07:55:42+00:00</time>
        <ele>2590.0</ele>
      </trkpt>
      <trkpt lat="44.30753" lon="6.82856">
        <time>2023-04-10T07:55:43+00:00</time>
        <ele>2590.0</ele>
      </trkpt>
      <trkpt lat="44.30753" lon="6.82856">
        <time>2023-04-10T07:55:44+00:00</time>
        <ele>2590.0</ele>
      </trkpt>
      <trkpt lat="44.30753" lon="6.82856">
        <time>2023-04-10T07:55:45+00:00</time>
        <ele>2590.0</ele>
      </trkpt>
      <trkpt lat="44.30753" lon="6.82856">
        <time>2023-04-10T07:55:46+00:00</time>
        <ele>2590.0</ele>
      </trkpt>
      <trkpt lat="44.30753" lon="6.82853">
        <time>2023-04-10T07:55:47+00:00</time>
        <ele>2591.0</ele>
      </trkpt>
      <trkpt lat="44.30753" lon="6.82853">
        <time>2023-04-10T07:55:48+00:00</time>
        <ele>2591.0</ele>
      </trkpt>
      <trkpt lat="44.30753" lon="6.82853">
        <time>2023-04-10T07:55:49+00:00</time>
        <ele>2591.0</ele>
      </trkpt>
      <trkpt lat="44.30753" lon="6.82853">
        <time>2023-04-10T07:55:50+00:00</time>
        <ele>2591.0</ele>
      </trkpt>
      <trkpt lat="44.30753" lon="6.82853">
        <time>2023-04-10T07:55:51+00:00</time>
        <ele>2591.0</ele>
      </trkpt>
      <trkpt lat="44.30753" lon="6.82853">
        <time>2023-04-10T07:55:52+00:00</time>
        <ele>2591.0</ele>
      </trkpt>
      <trkpt lat="44.30753" lon="6.82853">
        <time>2023-04-10T07:55:53+00:00</time>
        <ele>2591.0</ele>
      </trkpt>
      <trkpt lat="44.30753" lon="6.82853">
        <time>2023-04-10T07:55:54+00:00</time>
        <ele>2591.0</ele>
      </trkpt>
      <trkpt lat="44.30755" lon="6.82851">
        <time>2023-04-10T07:55:55+00:00</time>
        <ele>2592.0</ele>
      </trkpt>
      <trkpt lat="44.30755" lon="6.82851">
        <time>2023-04-10T07:55:56+00:00</time>
        <ele>2592.0</ele>
      </trkpt>
      <trkpt lat="44.30755" lon="6.82851">
        <time>2023-04-10T07:55:57+00:00</time>
        <ele>2592.0</ele>
      </trkpt>
      <trkpt lat="44.30755" lon="6.82851">
        <time>2023-04-10T07:55:58+00:00</time>
        <ele>2592.0</ele>
      </trkpt>
      <trkpt lat="44.30757" lon="6.82853">
        <time>2023-04-10T07:55:59+00:00</time>
        <ele>2592.0</ele>
      </trkpt>
      <trkpt lat="44.30757" lon="6.82853">
        <time>2023-04-10T07:56:00+00:00</time>
        <ele>2592.0</ele>
      </trkpt>
      <trkpt lat="44.30757" lon="6.82853">
        <time>2023-04-10T07:56:01+00:00</time>
        <ele>2592.0</ele>
      </trkpt>
      <trkpt lat="44.30757" lon="6.82853">
        <time>2023-04-10T07:56:02+00:00</time>
        <ele>2592.0</ele>
      </trkpt>
      <trkpt lat="44.30759" lon="6.82854">
        <time>2023-04-10T07:56:03+00:00</time>
        <ele>2592.0</ele>
      </trkpt>
      <trkpt lat="44.30759" lon="6.82854">
        <time>2023-04-10T07:56:04+00:00</time>
        <ele>2592.0</ele>
      </trkpt>
      <trkpt lat="44.30759" lon="6.82854">
        <time>2023-04-10T07:56:05+00:00</time>
        <ele>2592.0</ele>
      </trkpt>
      <trkpt lat="44.30761" lon="6.82855">
        <time>2023-04-10T07:56:06+00:00</time>
        <ele>2592.0</ele>
      </trkpt>
      <trkpt lat="44.30761" lon="6.82855">
        <time>2023-04-10T07:56:07+00:00</time>
        <ele>2592.0</ele>
      </trkpt>
      <trkpt lat="44.30761" lon="6.82855">
        <time>2023-04-10T07:56:08+00:00</time>
        <ele>2592.0</ele>
      </trkpt>
      <trkpt lat="44.30761" lon="6.82855">
        <time>2023-04-10T07:56:09+00:00</time>
        <ele>2592.0</ele>
      </trkpt>
      <trkpt lat="44.30763" lon="6.82856">
        <time>2023-04-10T07:56:10+00:00</time>
        <ele>2592.0</ele>
      </trkpt>
      <trkpt lat="44.30763" lon="6.82856">
        <time>2023-04-10T07:56:11+00:00</time>
        <ele>2592.0</ele>
      </trkpt>
      <trkpt lat="44.30763" lon="6.82856">
        <time>2023-04-10T07:56:12+00:00</time>
        <ele>2592.0</ele>
      </trkpt>
      <trkpt lat="44.30763" lon="6.82856">
        <time>2023-04-10T07:56:13+00:00</time>
        <ele>2592.0</ele>
      </trkpt>
      <trkpt lat="44.30763" lon="6.82856">
        <time>2023-04-10T07:56:14+00:00</time>
        <ele>2592.0</ele>
      </trkpt>
      <trkpt lat="44.30763" lon="6.82856">
        <time>2023-04-10T07:56:15+00:00</time>
        <ele>2592.0</ele>
      </trkpt>
      <trkpt lat="44.30763" lon="6.82856">
        <time>2023-04-10T07:56:16+00:00</time>
        <ele>2592.0</ele>
      </trkpt>
      <trkpt lat="44.30765" lon="6.82858">
        <time>2023-04-10T07:56:17+00:00</time>
        <ele>2592.0</ele>
      </trkpt>
      <trkpt lat="44.30765" lon="6.82858">
        <time>2023-04-10T07:56:18+00:00</time>
        <ele>2592.0</ele>
      </trkpt>
      <trkpt lat="44.30765" lon="6.82858">
        <time>2023-04-10T07:56:19+00:00</time>
        <ele>2592.0</ele>
      </trkpt>
      <trkpt lat="44.30765" lon="6.82858">
        <time>2023-04-10T07:56:20+00:00</time>
        <ele>2592.0</ele>
      </trkpt>
      <trkpt lat="44.30765" lon="6.82858">
        <time>2023-04-10T07:56:21+00:00</time>
        <ele>2592.0</ele>
      </trkpt>
      <trkpt lat="44.30765" lon="6.82858">
        <time>2023-04-10T07:56:22+00:00</time>
        <ele>2592.0</ele>
      </trkpt>
      <trkpt lat="44.30765" lon="6.82858">
        <time>2023-04-10T07:56:23+00:00</time>
        <ele>2592.0</ele>
      </trkpt>
      <trkpt lat="44.30765" lon="6.82858">
        <time>2023-04-10T07:56:24+00:00</time>
        <ele>2592.0</ele>
      </trkpt>
      <trkpt lat="44.30765" lon="6.82858">
        <time>2023-04-10T07:56:25+00:00</time>
        <ele>2592.0</ele>
      </trkpt>
      <trkpt lat="44.30765" lon="6.82858">
        <time>2023-04-10T07:56:26+00:00</time>
        <ele>2592.0</ele>
      </trkpt>
      <trkpt lat="44.30765" lon="6.82858">
        <time>2023-04-10T07:56:27+00:00</time>
        <ele>2592.0</ele>
      </trkpt>
      <trkpt lat="44.30765" lon="6.82858">
        <time>2023-04-10T07:56:28+00:00</time>
        <ele>2592.0</ele>
      </trkpt>
      <trkpt lat="44.30765" lon="6.82858">
        <time>2023-04-10T07:56:29+00:00</time>
        <ele>2592.0</ele>
      </trkpt>
      <trkpt lat="44.30765" lon="6.82858">
        <time>2023-04-10T07:56:30+00:00</time>
        <ele>2592.0</ele>
      </trkpt>
      <trkpt lat="44.30765" lon="6.82858">
        <time>2023-04-10T07:56:31+00:00</time>
        <ele>2592.0</ele>
      </trkpt>
      <trkpt lat="44.30765" lon="6.82858">
        <time>2023-04-10T07:56:32+00:00</time>
        <ele>2592.0</ele>
      </trkpt>
      <trkpt lat="44.30765" lon="6.82858">
        <time>2023-04-10T07:56:33+00:00</time>
        <ele>2592.0</ele>
      </trkpt>
      <trkpt lat="44.30765" lon="6.82858">
        <time>2023-04-10T07:56:34+00:00</time>
        <ele>2592.0</ele>
      </trkpt>
      <trkpt lat="44.30765" lon="6.82858">
        <time>2023-04-10T07:56:35+00:00</time>
        <ele>2592.0</ele>
      </trkpt>
      <trkpt lat="44.30765" lon="6.82858">
        <time>2023-04-10T07:56:36+00:00</time>
        <ele>2592.0</ele>
      </trkpt>
      <trkpt lat="44.30765" lon="6.82858">
        <time>2023-04-10T07:56:37+00:00</time>
        <ele>2592.0</ele>
      </trkpt>
      <trkpt lat="44.30765" lon="6.82858">
        <time>2023-04-10T07:56:38+00:00</time>
        <ele>2592.0</ele>
      </trkpt>
      <trkpt lat="44.30765" lon="6.82858">
        <time>2023-04-10T07:56:39+00:00</time>
        <ele>2592.0</ele>
      </trkpt>
      <trkpt lat="44.30765" lon="6.82858">
        <time>2023-04-10T07:56:40+00:00</time>
        <ele>2592.0</ele>
      </trkpt>
      <trkpt lat="44.30765" lon="6.82858">
        <time>2023-04-10T07:56:41+00:00</time>
        <ele>2592.0</ele>
      </trkpt>
      <trkpt lat="44.30765" lon="6.82858">
        <time>2023-04-10T07:56:42+00:00</time>
        <ele>2592.0</ele>
      </trkpt>
      <trkpt lat="44.30767" lon="6.82856">
        <time>2023-04-10T07:56:43+00:00</time>
        <ele>2593.0</ele>
      </trkpt>
      <trkpt lat="44.30767" lon="6.82856">
        <time>2023-04-10T07:56:44+00:00</time>
        <ele>2593.0</ele>
      </trkpt>
      <trkpt lat="44.30769" lon="6.82853">
        <time>2023-04-10T07:56:45+00:00</time>
        <ele>2594.0</ele>
      </trkpt>
      <trkpt lat="44.30769" lon="6.82853">
        <time>2023-04-10T07:56:46+00:00</time>
        <ele>2594.0</ele>
      </trkpt>
      <trkpt lat="44.30771" lon="6.8285">
        <time>2023-04-10T07:56:47+00:00</time>
        <ele>2595.0</ele>
      </trkpt>
      <trkpt lat="44.30771" lon="6.8285">
        <time>2023-04-10T07:56:48+00:00</time>
        <ele>2595.0</ele>
      </trkpt>
      <trkpt lat="44.30771" lon="6.8285">
        <time>2023-04-10T07:56:49+00:00</time>
        <ele>2595.0</ele>
      </trkpt>
      <trkpt lat="44.30771" lon="6.8285">
        <time>2023-04-10T07:56:50+00:00</time>
        <ele>2595.0</ele>
      </trkpt>
      <trkpt lat="44.30771" lon="6.8285">
        <time>2023-04-10T07:56:51+00:00</time>
        <ele>2595.0</ele>
      </trkpt>
      <trkpt lat="44.30773" lon="6.82846">
        <time>2023-04-10T07:56:52+00:00</time>
        <ele>2596.0</ele>
      </trkpt>
      <trkpt lat="44.30773" lon="6.82846">
        <time>2023-04-10T07:56:53+00:00</time>
        <ele>2596.0</ele>
      </trkpt>
      <trkpt lat="44.30773" lon="6.82846">
        <time>2023-04-10T07:56:54+00:00</time>
        <ele>2596.0</ele>
      </trkpt>
      <trkpt lat="44.30773" lon="6.82846">
        <time>2023-04-10T07:56:55+00:00</time>
        <ele>2596.0</ele>
      </trkpt>
      <trkpt lat="44.30773" lon="6.82846">
        <time>2023-04-10T07:56:56+00:00</time>
        <ele>2596.0</ele>
      </trkpt>
      <trkpt lat="44.30773" lon="6.82846">
        <time>2023-04-10T07:56:57+00:00</time>
        <ele>2596.0</ele>
      </trkpt>
      <trkpt lat="44.30773" lon="6.82846">
        <time>2023-04-10T07:56:58+00:00</time>
        <ele>2596.0</ele>
      </trkpt>
      <trkpt lat="44.30773" lon="6.82846">
        <time>2023-04-10T07:56:59+00:00</time>
        <ele>2596.0</ele>
      </trkpt>
      <trkpt lat="44.30773" lon="6.82846">
        <time>2023-04-10T07:57:00+00:00</time>
        <ele>2596.0</ele>
      </trkpt>
      <trkpt lat="44.30773" lon="6.82846">
        <time>2023-04-10T07:57:01+00:00</time>
        <ele>2596.0</ele>
      </trkpt>
      <trkpt lat="44.30773" lon="6.82846">
        <time>2023-04-10T07:57:02+00:00</time>
        <ele>2596.0</ele>
      </trkpt>
      <trkpt lat="44.30773" lon="6.82846">
        <time>2023-04-10T07:57:03+00:00</time>
        <ele>2596.0</ele>
      </trkpt>
      <trkpt lat="44.30773" lon="6.82846">
        <time>2023-04-10T07:57:04+00:00</time>
        <ele>2596.0</ele>
      </trkpt>
      <trkpt lat="44.30773" lon="6.82846">
        <time>2023-04-10T07:57:05+00:00</time>
        <ele>2596.0</ele>
      </trkpt>
      <trkpt lat="44.30773" lon="6.82846">
        <time>2023-04-10T07:57:06+00:00</time>
        <ele>2596.0</ele>
      </trkpt>
      <trkpt lat="44.30773" lon="6.82846">
        <time>2023-04-10T07:57:07+00:00</time>
        <ele>2596.0</ele>
      </trkpt>
      <trkpt lat="44.30773" lon="6.82846">
        <time>2023-04-10T07:57:08+00:00</time>
        <ele>2596.0</ele>
      </trkpt>
      <trkpt lat="44.30773" lon="6.82846">
        <time>2023-04-10T07:57:09+00:00</time>
        <ele>2596.0</ele>
      </trkpt>
      <trkpt lat="44.30773" lon="6.82846">
        <time>2023-04-10T07:57:10+00:00</time>
        <ele>2596.0</ele>
      </trkpt>
      <trkpt lat="44.30773" lon="6.82846">
        <time>2023-04-10T07:57:11+00:00</time>
        <ele>2596.0</ele>
      </trkpt>
      <trkpt lat="44.30773" lon="6.82846">
        <time>2023-04-10T07:57:12+00:00</time>
        <ele>2596.0</ele>
      </trkpt>
      <trkpt lat="44.30773" lon="6.82846">
        <time>2023-04-10T07:57:13+00:00</time>
        <ele>2596.0</ele>
      </trkpt>
      <trkpt lat="44.30773" lon="6.82846">
        <time>2023-04-10T07:57:14+00:00</time>
        <ele>2596.0</ele>
      </trkpt>
      <trkpt lat="44.30773" lon="6.82846">
        <time>2023-04-10T07:57:15+00:00</time>
        <ele>2596.0</ele>
      </trkpt>
      <trkpt lat="44.30773" lon="6.82846">
        <time>2023-04-10T07:57:16+00:00</time>
        <ele>2596.0</ele>
      </trkpt>
      <trkpt lat="44.30773" lon="6.82846">
        <time>2023-04-10T07:57:17+00:00</time>
        <ele>2596.0</ele>
      </trkpt>
      <trkpt lat="44.30773" lon="6.82846">
        <time>2023-04-10T07:57:18+00:00</time>
        <ele>2596.0</ele>
      </trkpt>
      <trkpt lat="44.30773" lon="6.82846">
        <time>2023-04-10T07:57:19+00:00</time>
        <ele>2596.0</ele>
      </trkpt>
      <trkpt lat="44.30773" lon="6.82846">
        <time>2023-04-10T07:57:20+00:00</time>
        <ele>2596.0</ele>
      </trkpt>
      <trkpt lat="44.30773" lon="6.82846">
        <time>2023-04-10T07:57:21+00:00</time>
        <ele>2596.0</ele>
      </trkpt>
      <trkpt lat="44.30773" lon="6.82846">
        <time>2023-04-10T07:57:22+00:00</time>
        <ele>2596.0</ele>
      </trkpt>
      <trkpt lat="44.30773" lon="6.82846">
        <time>2023-04-10T07:57:23+00:00</time>
        <ele>2596.0</ele>
      </trkpt>
      <trkpt lat="44.30773" lon="6.82846">
        <time>2023-04-10T07:57:24+00:00</time>
        <ele>2596.0</ele>
      </trkpt>
      <trkpt lat="44.30773" lon="6.82846">
        <time>2023-04-10T07:57:25+00:00</time>
        <ele>2596.0</ele>
      </trkpt>
      <trkpt lat="44.30773" lon="6.82846">
        <time>2023-04-10T07:57:26+00:00</time>
        <ele>2596.0</ele>
      </trkpt>
      <trkpt lat="44.30773" lon="6.82846">
        <time>2023-04-10T07:57:27+00:00</time>
        <ele>2596.0</ele>
      </trkpt>
      <trkpt lat="44.30773" lon="6.82846">
        <time>2023-04-10T07:57:28+00:00</time>
        <ele>2596.0</ele>
      </trkpt>
      <trkpt lat="44.30773" lon="6.82846">
        <time>2023-04-10T07:57:29+00:00</time>
        <ele>2596.0</ele>
      </trkpt>
      <trkpt lat="44.30773" lon="6.82846">
        <time>2023-04-10T07:57:30+00:00</time>
        <ele>2596.0</ele>
      </trkpt>
      <trkpt lat="44.30773" lon="6.82846">
        <time>2023-04-10T07:57:31+00:00</time>
        <ele>2596.0</ele>
      </trkpt>
      <trkpt lat="44.30773" lon="6.82846">
        <time>2023-04-10T07:57:32+00:00</time>
        <ele>2596.0</ele>
      </trkpt>
      <trkpt lat="44.30773" lon="6.82846">
        <time>2023-04-10T07:57:33+00:00</time>
        <ele>2596.0</ele>
      </trkpt>
      <trkpt lat="44.30773" lon="6.82846">
        <time>2023-04-10T07:57:34+00:00</time>
        <ele>2596.0</ele>
      </trkpt>
      <trkpt lat="44.30773" lon="6.82846">
        <time>2023-04-10T07:57:35+00:00</time>
        <ele>2596.0</ele>
      </trkpt>
      <trkpt lat="44.30773" lon="6.82846">
        <time>2023-04-10T07:57:36+00:00</time>
        <ele>2596.0</ele>
      </trkpt>
      <trkpt lat="44.30773" lon="6.82846">
        <time>2023-04-10T07:57:37+00:00</time>
        <ele>2596.0</ele>
      </trkpt>
      <trkpt lat="44.30773" lon="6.82846">
        <time>2023-04-10T07:57:38+00:00</time>
        <ele>2596.0</ele>
      </trkpt>
      <trkpt lat="44.30773" lon="6.82846">
        <time>2023-04-10T07:57:39+00:00</time>
        <ele>2596.0</ele>
      </trkpt>
      <trkpt lat="44.30773" lon="6.82846">
        <time>2023-04-10T07:57:40+00:00</time>
        <ele>2596.0</ele>
      </trkpt>
      <trkpt lat="44.30773" lon="6.82846">
        <time>2023-04-10T07:57:41+00:00</time>
        <ele>2596.0</ele>
      </trkpt>
      <trkpt lat="44.30773" lon="6.82846">
        <time>2023-04-10T07:57:42+00:00</time>
        <ele>2596.0</ele>
      </trkpt>
      <trkpt lat="44.30773" lon="6.82846">
        <time>2023-04-10T07:57:43+00:00</time>
        <ele>2596.0</ele>
      </trkpt>
      <trkpt lat="44.30773" lon="6.82846">
        <time>2023-04-10T07:57:44+00:00</time>
        <ele>2596.0</ele>
      </trkpt>
      <trkpt lat="44.30773" lon="6.82846">
        <time>2023-04-10T07:57:45+00:00</time>
        <ele>2596.0</ele>
      </trkpt>
      <trkpt lat="44.30773" lon="6.82846">
        <time>2023-04-10T07:57:46+00:00</time>
        <ele>2596.0</ele>
      </trkpt>
      <trkpt lat="44.30773" lon="6.82846">
        <time>2023-04-10T07:57:47+00:00</time>
        <ele>2596.0</ele>
      </trkpt>
      <trkpt lat="44.30773" lon="6.82846">
        <time>2023-04-10T07:57:48+00:00</time>
        <ele>2596.0</ele>
      </trkpt>
      <trkpt lat="44.30773" lon="6.82846">
        <time>2023-04-10T07:57:49+00:00</time>
        <ele>2596.0</ele>
      </trkpt>
      <trkpt lat="44.30773" lon="6.82846">
        <time>2023-04-10T07:57:50+00:00</time>
        <ele>2596.0</ele>
      </trkpt>
      <trkpt lat="44.30773" lon="6.82846">
        <time>2023-04-10T07:57:51+00:00</time>
        <ele>2596.0</ele>
      </trkpt>
      <trkpt lat="44.30773" lon="6.82846">
        <time>2023-04-10T07:57:52+00:00</time>
        <ele>2596.0</ele>
      </trkpt>
      <trkpt lat="44.30773" lon="6.82846">
        <time>2023-04-10T07:57:53+00:00</time>
        <ele>2596.0</ele>
      </trkpt>
      <trkpt lat="44.30773" lon="6.82846">
        <time>2023-04-10T07:57:54+00:00</time>
        <ele>2596.0</ele>
      </trkpt>
      <trkpt lat="44.30773" lon="6.82846">
        <time>2023-04-10T07:57:55+00:00</time>
        <ele>2596.0</ele>
      </trkpt>
      <trkpt lat="44.30773" lon="6.82846">
        <time>2023-04-10T07:57:56+00:00</time>
        <ele>2596.0</ele>
      </trkpt>
      <trkpt lat="44.30773" lon="6.82846">
        <time>2023-04-10T07:57:57+00:00</time>
        <ele>2596.0</ele>
      </trkpt>
      <trkpt lat="44.30773" lon="6.82846">
        <time>2023-04-10T07:57:58+00:00</time>
        <ele>2596.0</ele>
      </trkpt>
      <trkpt lat="44.30773" lon="6.82846">
        <time>2023-04-10T07:57:59+00:00</time>
        <ele>2596.0</ele>
      </trkpt>
      <trkpt lat="44.30773" lon="6.82846">
        <time>2023-04-10T07:58:00+00:00</time>
        <ele>2596.0</ele>
      </trkpt>
      <trkpt lat="44.30773" lon="6.82846">
        <time>2023-04-10T07:58:01+00:00</time>
        <ele>2596.0</ele>
      </trkpt>
      <trkpt lat="44.30773" lon="6.82846">
        <time>2023-04-10T07:58:02+00:00</time>
        <ele>2596.0</ele>
      </trkpt>
      <trkpt lat="44.30773" lon="6.82846">
        <time>2023-04-10T07:58:03+00:00</time>
        <ele>2596.0</ele>
      </trkpt>
      <trkpt lat="44.30773" lon="6.82846">
        <time>2023-04-10T07:58:04+00:00</time>
        <ele>2596.0</ele>
      </trkpt>
      <trkpt lat="44.30773" lon="6.82846">
        <time>2023-04-10T07:58:05+00:00</time>
        <ele>2596.0</ele>
      </trkpt>
      <trkpt lat="44.30773" lon="6.82846">
        <time>2023-04-10T07:58:06+00:00</time>
        <ele>2596.0</ele>
      </trkpt>
      <trkpt lat="44.30773" lon="6.82846">
        <time>2023-04-10T07:58:07+00:00</time>
        <ele>2596.0</ele>
      </trkpt>
      <trkpt lat="44.30773" lon="6.82846">
        <time>2023-04-10T07:58:08+00:00</time>
        <ele>2596.0</ele>
      </trkpt>
      <trkpt lat="44.30773" lon="6.82846">
        <time>2023-04-10T07:58:09+00:00</time>
        <ele>2596.0</ele>
      </trkpt>
      <trkpt lat="44.30773" lon="6.82846">
        <time>2023-04-10T07:58:10+00:00</time>
        <ele>2596.0</ele>
      </trkpt>
      <trkpt lat="44.30773" lon="6.82846">
        <time>2023-04-10T07:58:11+00:00</time>
        <ele>2596.0</ele>
      </trkpt>
      <trkpt lat="44.30773" lon="6.82846">
        <time>2023-04-10T07:58:12+00:00</time>
        <ele>2596.0</ele>
      </trkpt>
      <trkpt lat="44.30773" lon="6.82846">
        <time>2023-04-10T07:58:13+00:00</time>
        <ele>2596.0</ele>
      </trkpt>
      <trkpt lat="44.30773" lon="6.82846">
        <time>2023-04-10T07:58:14+00:00</time>
        <ele>2596.0</ele>
      </trkpt>
      <trkpt lat="44.30773" lon="6.82846">
        <time>2023-04-10T07:58:15+00:00</time>
        <ele>2596.0</ele>
      </trkpt>
      <trkpt lat="44.30773" lon="6.82846">
        <time>2023-04-10T07:58:16+00:00</time>
        <ele>2596.0</ele>
      </trkpt>
      <trkpt lat="44.30773" lon="6.82846">
        <time>2023-04-10T07:58:17+00:00</time>
        <ele>2596.0</ele>
      </trkpt>
      <trkpt lat="44.30773" lon="6.82846">
        <time>2023-04-10T07:58:18+00:00</time>
        <ele>2596.0</ele>
      </trkpt>
      <trkpt lat="44.30773" lon="6.82846">
        <time>2023-04-10T07:58:19+00:00</time>
        <ele>2596.0</ele>
      </trkpt>
      <trkpt lat="44.30773" lon="6.82846">
        <time>2023-04-10T07:58:20+00:00</time>
        <ele>2596.0</ele>
      </trkpt>
      <trkpt lat="44.30773" lon="6.82846">
        <time>2023-04-10T07:58:21+00:00</time>
        <ele>2596.0</ele>
      </trkpt>
      <trkpt lat="44.30773" lon="6.82846">
        <time>2023-04-10T07:58:22+00:00</time>
        <ele>2596.0</ele>
      </trkpt>
      <trkpt lat="44.30773" lon="6.82846">
        <time>2023-04-10T07:58:23+00:00</time>
        <ele>2596.0</ele>
      </trkpt>
      <trkpt lat="44.30773" lon="6.82846">
        <time>2023-04-10T07:58:24+00:00</time>
        <ele>2596.0</ele>
      </trkpt>
      <trkpt lat="44.30773" lon="6.82846">
        <time>2023-04-10T07:58:25+00:00</time>
        <ele>2596.0</ele>
      </trkpt>
      <trkpt lat="44.30773" lon="6.82846">
        <time>2023-04-10T07:58:26+00:00</time>
        <ele>2596.0</ele>
      </trkpt>
      <trkpt lat="44.30773" lon="6.82846">
        <time>2023-04-10T07:58:27+00:00</time>
        <ele>2596.0</ele>
      </trkpt>
      <trkpt lat="44.30773" lon="6.82846">
        <time>2023-04-10T07:58:28+00:00</time>
        <ele>2596.0</ele>
      </trkpt>
      <trkpt lat="44.30773" lon="6.82846">
        <time>2023-04-10T07:58:29+00:00</time>
        <ele>2596.0</ele>
      </trkpt>
      <trkpt lat="44.30773" lon="6.82846">
        <time>2023-04-10T07:58:30+00:00</time>
        <ele>2596.0</ele>
      </trkpt>
      <trkpt lat="44.30773" lon="6.82846">
        <time>2023-04-10T07:58:31+00:00</time>
        <ele>2596.0</ele>
      </trkpt>
      <trkpt lat="44.30773" lon="6.82846">
        <time>2023-04-10T07:58:32+00:00</time>
        <ele>2596.0</ele>
      </trkpt>
      <trkpt lat="44.30773" lon="6.82846">
        <time>2023-04-10T07:58:33+00:00</time>
        <ele>2596.0</ele>
      </trkpt>
      <trkpt lat="44.30773" lon="6.82846">
        <time>2023-04-10T07:58:34+00:00</time>
        <ele>2596.0</ele>
      </trkpt>
      <trkpt lat="44.30773" lon="6.82846">
        <time>2023-04-10T07:58:35+00:00</time>
        <ele>2596.0</ele>
      </trkpt>
      <trkpt lat="44.30773" lon="6.82846">
        <time>2023-04-10T07:58:36+00:00</time>
        <ele>2596.0</ele>
      </trkpt>
      <trkpt lat="44.30773" lon="6.82846">
        <time>2023-04-10T07:58:37+00:00</time>
        <ele>2596.0</ele>
      </trkpt>
      <trkpt lat="44.30773" lon="6.82846">
        <time>2023-04-10T07:58:38+00:00</time>
        <ele>2596.0</ele>
      </trkpt>
      <trkpt lat="44.30773" lon="6.82846">
        <time>2023-04-10T07:58:39+00:00</time>
        <ele>2596.0</ele>
      </trkpt>
      <trkpt lat="44.30773" lon="6.82846">
        <time>2023-04-10T07:58:40+00:00</time>
        <ele>2596.0</ele>
      </trkpt>
      <trkpt lat="44.30773" lon="6.82846">
        <time>2023-04-10T07:58:41+00:00</time>
        <ele>2596.0</ele>
      </trkpt>
      <trkpt lat="44.30773" lon="6.82846">
        <time>2023-04-10T07:58:42+00:00</time>
        <ele>2596.0</ele>
      </trkpt>
      <trkpt lat="44.30773" lon="6.82846">
        <time>2023-04-10T07:58:43+00:00</time>
        <ele>2596.0</ele>
      </trkpt>
      <trkpt lat="44.30773" lon="6.82846">
        <time>2023-04-10T07:58:44+00:00</time>
        <ele>2596.0</ele>
      </trkpt>
      <trkpt lat="44.30773" lon="6.82846">
        <time>2023-04-10T07:58:45+00:00</time>
        <ele>2596.0</ele>
      </trkpt>
      <trkpt lat="44.30773" lon="6.82846">
        <time>2023-04-10T07:58:46+00:00</time>
        <ele>2596.0</ele>
      </trkpt>
      <trkpt lat="44.30773" lon="6.82846">
        <time>2023-04-10T07:58:47+00:00</time>
        <ele>2596.0</ele>
      </trkpt>
      <trkpt lat="44.30773" lon="6.82846">
        <time>2023-04-10T07:58:48+00:00</time>
        <ele>2596.0</ele>
      </trkpt>
      <trkpt lat="44.30773" lon="6.82846">
        <time>2023-04-10T07:58:49+00:00</time>
        <ele>2596.0</ele>
      </trkpt>
      <trkpt lat="44.30773" lon="6.82846">
        <time>2023-04-10T07:58:50+00:00</time>
        <ele>2596.0</ele>
      </trkpt>
      <trkpt lat="44.30773" lon="6.82846">
        <time>2023-04-10T07:58:51+00:00</time>
        <ele>2596.0</ele>
      </trkpt>
      <trkpt lat="44.30773" lon="6.82846">
        <time>2023-04-10T07:58:52+00:00</time>
        <ele>2596.0</ele>
      </trkpt>
      <trkpt lat="44.30773" lon="6.82846">
        <time>2023-04-10T07:58:53+00:00</time>
        <ele>2596.0</ele>
      </trkpt>
      <trkpt lat="44.30773" lon="6.82846">
        <time>2023-04-10T07:58:54+00:00</time>
        <ele>2596.0</ele>
      </trkpt>
      <trkpt lat="44.30773" lon="6.82846">
        <time>2023-04-10T07:58:55+00:00</time>
        <ele>2596.0</ele>
      </trkpt>
      <trkpt lat="44.30773" lon="6.82846">
        <time>2023-04-10T07:58:56+00:00</time>
        <ele>2596.0</ele>
      </trkpt>
      <trkpt lat="44.30773" lon="6.82846">
        <time>2023-04-10T07:58:57+00:00</time>
        <ele>2596.0</ele>
      </trkpt>
      <trkpt lat="44.30773" lon="6.82846">
        <time>2023-04-10T07:58:58+00:00</time>
        <ele>2596.0</ele>
      </trkpt>
      <trkpt lat="44.30773" lon="6.82846">
        <time>2023-04-10T07:58:59+00:00</time>
        <ele>2596.0</ele>
      </trkpt>
      <trkpt lat="44.30773" lon="6.82846">
        <time>2023-04-10T07:59:00+00:00</time>
        <ele>2596.0</ele>
      </trkpt>
      <trkpt lat="44.30773" lon="6.82846">
        <time>2023-04-10T07:59:01+00:00</time>
        <ele>2596.0</ele>
      </trkpt>
      <trkpt lat="44.30773" lon="6.82846">
        <time>2023-04-10T07:59:02+00:00</time>
        <ele>2596.0</ele>
      </trkpt>
      <trkpt lat="44.30773" lon="6.82846">
        <time>2023-04-10T07:59:03+00:00</time>
        <ele>2596.0</ele>
      </trkpt>
      <trkpt lat="44.30773" lon="6.82846">
        <time>2023-04-10T07:59:04+00:00</time>
        <ele>2596.0</ele>
      </trkpt>
      <trkpt lat="44.30773" lon="6.82846">
        <time>2023-04-10T07:59:05+00:00</time>
        <ele>2596.0</ele>
      </trkpt>
      <trkpt lat="44.30773" lon="6.82846">
        <time>2023-04-10T07:59:06+00:00</time>
        <ele>2596.0</ele>
      </trkpt>
      <trkpt lat="44.30773" lon="6.82846">
        <time>2023-04-10T07:59:07+00:00</time>
        <ele>2596.0</ele>
      </trkpt>
      <trkpt lat="44.30773" lon="6.82846">
        <time>2023-04-10T07:59:08+00:00</time>
        <ele>2596.0</ele>
      </trkpt>
      <trkpt lat="44.30773" lon="6.82846">
        <time>2023-04-10T07:59:09+00:00</time>
        <ele>2596.0</ele>
      </trkpt>
      <trkpt lat="44.30773" lon="6.82846">
        <time>2023-04-10T07:59:10+00:00</time>
        <ele>2596.0</ele>
      </trkpt>
      <trkpt lat="44.30773" lon="6.82846">
        <time>2023-04-10T07:59:11+00:00</time>
        <ele>2596.0</ele>
      </trkpt>
      <trkpt lat="44.30773" lon="6.82846">
        <time>2023-04-10T07:59:12+00:00</time>
        <ele>2596.0</ele>
      </trkpt>
      <trkpt lat="44.30773" lon="6.82846">
        <time>2023-04-10T07:59:13+00:00</time>
        <ele>2596.0</ele>
      </trkpt>
      <trkpt lat="44.30773" lon="6.82846">
        <time>2023-04-10T07:59:14+00:00</time>
        <ele>2596.0</ele>
      </trkpt>
      <trkpt lat="44.30773" lon="6.82846">
        <time>2023-04-10T07:59:15+00:00</time>
        <ele>2596.0</ele>
      </trkpt>
      <trkpt lat="44.30773" lon="6.82846">
        <time>2023-04-10T07:59:16+00:00</time>
        <ele>2596.0</ele>
      </trkpt>
      <trkpt lat="44.30773" lon="6.82846">
        <time>2023-04-10T07:59:17+00:00</time>
        <ele>2596.0</ele>
      </trkpt>
      <trkpt lat="44.30773" lon="6.82846">
        <time>2023-04-10T07:59:18+00:00</time>
        <ele>2596.0</ele>
      </trkpt>
      <trkpt lat="44.30773" lon="6.82846">
        <time>2023-04-10T07:59:19+00:00</time>
        <ele>2596.0</ele>
      </trkpt>
      <trkpt lat="44.30773" lon="6.82846">
        <time>2023-04-10T07:59:20+00:00</time>
        <ele>2596.0</ele>
      </trkpt>
      <trkpt lat="44.30773" lon="6.82846">
        <time>2023-04-10T07:59:21+00:00</time>
        <ele>2596.0</ele>
      </trkpt>
      <trkpt lat="44.30773" lon="6.82846">
        <time>2023-04-10T07:59:22+00:00</time>
        <ele>2596.0</ele>
      </trkpt>
      <trkpt lat="44.30773" lon="6.82846">
        <time>2023-04-10T07:59:23+00:00</time>
        <ele>2596.0</ele>
      </trkpt>
      <trkpt lat="44.30773" lon="6.82846">
        <time>2023-04-10T07:59:24+00:00</time>
        <ele>2596.0</ele>
      </trkpt>
      <trkpt lat="44.30773" lon="6.82846">
        <time>2023-04-10T07:59:25+00:00</time>
        <ele>2596.0</ele>
      </trkpt>
      <trkpt lat="44.30773" lon="6.82846">
        <time>2023-04-10T07:59:26+00:00</time>
        <ele>2596.0</ele>
      </trkpt>
      <trkpt lat="44.30773" lon="6.82846">
        <time>2023-04-10T07:59:27+00:00</time>
        <ele>2596.0</ele>
      </trkpt>
      <trkpt lat="44.30773" lon="6.82846">
        <time>2023-04-10T07:59:28+00:00</time>
        <ele>2596.0</ele>
      </trkpt>
      <trkpt lat="44.30773" lon="6.82846">
        <time>2023-04-10T07:59:29+00:00</time>
        <ele>2596.0</ele>
      </trkpt>
      <trkpt lat="44.30773" lon="6.82846">
        <time>2023-04-10T07:59:30+00:00</time>
        <ele>2596.0</ele>
      </trkpt>
      <trkpt lat="44.30773" lon="6.82846">
        <time>2023-04-10T07:59:31+00:00</time>
        <ele>2596.0</ele>
      </trkpt>
      <trkpt lat="44.30773" lon="6.82846">
        <time>2023-04-10T07:59:32+00:00</time>
        <ele>2596.0</ele>
      </trkpt>
      <trkpt lat="44.30773" lon="6.82846">
        <time>2023-04-10T07:59:33+00:00</time>
        <ele>2596.0</ele>
      </trkpt>
      <trkpt lat="44.30773" lon="6.82846">
        <time>2023-04-10T07:59:34+00:00</time>
        <ele>2596.0</ele>
      </trkpt>
      <trkpt lat="44.30773" lon="6.82846">
        <time>2023-04-10T07:59:35+00:00</time>
        <ele>2596.0</ele>
      </trkpt>
      <trkpt lat="44.30773" lon="6.82846">
        <time>2023-04-10T07:59:36+00:00</time>
        <ele>2596.0</ele>
      </trkpt>
      <trkpt lat="44.30773" lon="6.82846">
        <time>2023-04-10T07:59:37+00:00</time>
        <ele>2596.0</ele>
      </trkpt>
      <trkpt lat="44.30773" lon="6.82846">
        <time>2023-04-10T07:59:38+00:00</time>
        <ele>2596.0</ele>
      </trkpt>
      <trkpt lat="44.30773" lon="6.82846">
        <time>2023-04-10T07:59:39+00:00</time>
        <ele>2596.0</ele>
      </trkpt>
      <trkpt lat="44.30773" lon="6.82846">
        <time>2023-04-10T07:59:40+00:00</time>
        <ele>2596.0</ele>
      </trkpt>
      <trkpt lat="44.30773" lon="6.82846">
        <time>2023-04-10T07:59:41+00:00</time>
        <ele>2596.0</ele>
      </trkpt>
      <trkpt lat="44.30773" lon="6.82846">
        <time>2023-04-10T07:59:42+00:00</time>
        <ele>2596.0</ele>
      </trkpt>
      <trkpt lat="44.30773" lon="6.82846">
        <time>2023-04-10T07:59:43+00:00</time>
        <ele>2596.0</ele>
      </trkpt>
      <trkpt lat="44.30773" lon="6.82846">
        <time>2023-04-10T07:59:44+00:00</time>
        <ele>2596.0</ele>
      </trkpt>
      <trkpt lat="44.30773" lon="6.82846">
        <time>2023-04-10T07:59:45+00:00</time>
        <ele>2596.0</ele>
      </trkpt>
      <trkpt lat="44.30773" lon="6.82846">
        <time>2023-04-10T07:59:46+00:00</time>
        <ele>2596.0</ele>
      </trkpt>
      <trkpt lat="44.30773" lon="6.82846">
        <time>2023-04-10T07:59:47+00:00</time>
        <ele>2596.0</ele>
      </trkpt>
      <trkpt lat="44.30773" lon="6.82846">
        <time>2023-04-10T07:59:48+00:00</time>
        <ele>2596.0</ele>
      </trkpt>
      <trkpt lat="44.30773" lon="6.82846">
        <time>2023-04-10T07:59:49+00:00</time>
        <ele>2596.0</ele>
      </trkpt>
      <trkpt lat="44.30773" lon="6.82846">
        <time>2023-04-10T07:59:50+00:00</time>
        <ele>2596.0</ele>
      </trkpt>
      <trkpt lat="44.30773" lon="6.82846">
        <time>2023-04-10T07:59:51+00:00</time>
        <ele>2596.0</ele>
      </trkpt>
      <trkpt lat="44.30773" lon="6.82846">
        <time>2023-04-10T07:59:52+00:00</time>
        <ele>2596.0</ele>
      </trkpt>
      <trkpt lat="44.30773" lon="6.82846">
        <time>2023-04-10T07:59:53+00:00</time>
        <ele>2596.0</ele>
      </trkpt>
      <trkpt lat="44.30773" lon="6.82846">
        <time>2023-04-10T07:59:54+00:00</time>
        <ele>2596.0</ele>
      </trkpt>
      <trkpt lat="44.30773" lon="6.82846">
        <time>2023-04-10T07:59:55+00:00</time>
        <ele>2596.0</ele>
      </trkpt>
      <trkpt lat="44.30773" lon="6.82846">
        <time>2023-04-10T07:59:56+00:00</time>
        <ele>2596.0</ele>
      </trkpt>
      <trkpt lat="44.30773" lon="6.82846">
        <time>2023-04-10T07:59:57+00:00</time>
        <ele>2596.0</ele>
      </trkpt>
      <trkpt lat="44.30773" lon="6.82846">
        <time>2023-04-10T07:59:58+00:00</time>
        <ele>2596.0</ele>
      </trkpt>
      <trkpt lat="44.30773" lon="6.82846">
        <time>2023-04-10T07:59:59+00:00</time>
        <ele>2596.0</ele>
      </trkpt>
      <trkpt lat="44.30773" lon="6.82846">
        <time>2023-04-10T08:00:01+00:00</time>
        <ele>2596.0</ele>
      </trkpt>
      <trkpt lat="44.30773" lon="6.82846">
        <time>2023-04-10T08:00:03+00:00</time>
        <ele>2596.0</ele>
      </trkpt>
      <trkpt lat="44.30773" lon="6.82846">
        <time>2023-04-10T08:00:04+00:00</time>
        <ele>2596.0</ele>
      </trkpt>
      <trkpt lat="44.30773" lon="6.82846">
        <time>2023-04-10T08:00:05+00:00</time>
        <ele>2596.0</ele>
      </trkpt>
      <trkpt lat="44.30773" lon="6.82846">
        <time>2023-04-10T08:00:06+00:00</time>
        <ele>2596.0</ele>
      </trkpt>
      <trkpt lat="44.30773" lon="6.82846">
        <time>2023-04-10T08:00:07+00:00</time>
        <ele>2596.0</ele>
      </trkpt>
      <trkpt lat="44.30773" lon="6.82846">
        <time>2023-04-10T08:00:08+00:00</time>
        <ele>2596.0</ele>
      </trkpt>
      <trkpt lat="44.30773" lon="6.82846">
        <time>2023-04-10T08:00:09+00:00</time>
        <ele>2596.0</ele>
      </trkpt>
      <trkpt lat="44.30773" lon="6.82846">
        <time>2023-04-10T08:00:10+00:00</time>
        <ele>2596.0</ele>
      </trkpt>
      <trkpt lat="44.30773" lon="6.82846">
        <time>2023-04-10T08:00:11+00:00</time>
        <ele>2596.0</ele>
      </trkpt>
      <trkpt lat="44.30773" lon="6.82846">
        <time>2023-04-10T08:00:12+00:00</time>
        <ele>2596.0</ele>
      </trkpt>
      <trkpt lat="44.30773" lon="6.82846">
        <time>2023-04-10T08:00:13+00:00</time>
        <ele>2596.0</ele>
      </trkpt>
      <trkpt lat="44.30773" lon="6.82846">
        <time>2023-04-10T08:00:14+00:00</time>
        <ele>2596.0</ele>
      </trkpt>
      <trkpt lat="44.30773" lon="6.82846">
        <time>2023-04-10T08:00:15+00:00</time>
        <ele>2596.0</ele>
      </trkpt>
      <trkpt lat="44.30773" lon="6.82846">
        <time>2023-04-10T08:00:16+00:00</time>
        <ele>2596.0</ele>
      </trkpt>
      <trkpt lat="44.30773" lon="6.82846">
        <time>2023-04-10T08:00:17+00:00</time>
        <ele>2596.0</ele>
      </trkpt>
      <trkpt lat="44.30773" lon="6.82846">
        <time>2023-04-10T08:00:18+00:00</time>
        <ele>2596.0</ele>
      </trkpt>
      <trkpt lat="44.30773" lon="6.82846">
        <time>2023-04-10T08:00:19+00:00</time>
        <ele>2596.0</ele>
      </trkpt>
      <trkpt lat="44.30773" lon="6.82846">
        <time>2023-04-10T08:00:20+00:00</time>
        <ele>2596.0</ele>
      </trkpt>
      <trkpt lat="44.30773" lon="6.82846">
        <time>2023-04-10T08:00:21+00:00</time>
        <ele>2596.0</ele>
      </trkpt>
      <trkpt lat="44.30773" lon="6.82846">
        <time>2023-04-10T08:00:22+00:00</time>
        <ele>2596.0</ele>
      </trkpt>
      <trkpt lat="44.30773" lon="6.82846">
        <time>2023-04-10T08:00:23+00:00</time>
        <ele>2596.0</ele>
      </trkpt>
      <trkpt lat="44.30773" lon="6.82846">
        <time>2023-04-10T08:00:24+00:00</time>
        <ele>2596.0</ele>
      </trkpt>
      <trkpt lat="44.30773" lon="6.82846">
        <time>2023-04-10T08:00:25+00:00</time>
        <ele>2596.0</ele>
      </trkpt>
      <trkpt lat="44.30773" lon="6.82846">
        <time>2023-04-10T08:00:26+00:00</time>
        <ele>2596.0</ele>
      </trkpt>
      <trkpt lat="44.30773" lon="6.82846">
        <time>2023-04-10T08:00:27+00:00</time>
        <ele>2596.0</ele>
      </trkpt>
      <trkpt lat="44.30773" lon="6.82846">
        <time>2023-04-10T08:00:28+00:00</time>
        <ele>2596.0</ele>
      </trkpt>
      <trkpt lat="44.30773" lon="6.82846">
        <time>2023-04-10T08:00:29+00:00</time>
        <ele>2596.0</ele>
      </trkpt>
      <trkpt lat="44.30773" lon="6.82846">
        <time>2023-04-10T08:00:30+00:00</time>
        <ele>2596.0</ele>
      </trkpt>
      <trkpt lat="44.30773" lon="6.82846">
        <time>2023-04-10T08:00:31+00:00</time>
        <ele>2596.0</ele>
      </trkpt>
      <trkpt lat="44.30773" lon="6.82846">
        <time>2023-04-10T08:00:32+00:00</time>
        <ele>2596.0</ele>
      </trkpt>
      <trkpt lat="44.30773" lon="6.82846">
        <time>2023-04-10T08:00:33+00:00</time>
        <ele>2596.0</ele>
      </trkpt>
      <trkpt lat="44.30773" lon="6.82846">
        <time>2023-04-10T08:00:34+00:00</time>
        <ele>2596.0</ele>
      </trkpt>
      <trkpt lat="44.30773" lon="6.82846">
        <time>2023-04-10T08:00:35+00:00</time>
        <ele>2596.0</ele>
      </trkpt>
      <trkpt lat="44.30773" lon="6.82846">
        <time>2023-04-10T08:00:36+00:00</time>
        <ele>2596.0</ele>
      </trkpt>
      <trkpt lat="44.30773" lon="6.82846">
        <time>2023-04-10T08:00:37+00:00</time>
        <ele>2596.0</ele>
      </trkpt>
      <trkpt lat="44.30773" lon="6.82846">
        <time>2023-04-10T08:00:38+00:00</time>
        <ele>2596.0</ele>
      </trkpt>
      <trkpt lat="44.30773" lon="6.82846">
        <time>2023-04-10T08:00:39+00:00</time>
        <ele>2596.0</ele>
      </trkpt>
      <trkpt lat="44.30773" lon="6.82846">
        <time>2023-04-10T08:00:40+00:00</time>
        <ele>2596.0</ele>
      </trkpt>
      <trkpt lat="44.30773" lon="6.82846">
        <time>2023-04-10T08:00:41+00:00</time>
        <ele>2596.0</ele>
      </trkpt>
      <trkpt lat="44.30773" lon="6.82846">
        <time>2023-04-10T08:00:42+00:00</time>
        <ele>2596.0</ele>
      </trkpt>
      <trkpt lat="44.30773" lon="6.82846">
        <time>2023-04-10T08:00:43+00:00</time>
        <ele>2596.0</ele>
      </trkpt>
      <trkpt lat="44.30773" lon="6.82846">
        <time>2023-04-10T08:00:44+00:00</time>
        <ele>2596.0</ele>
      </trkpt>
      <trkpt lat="44.30773" lon="6.82846">
        <time>2023-04-10T08:00:45+00:00</time>
        <ele>2596.0</ele>
      </trkpt>
      <trkpt lat="44.30773" lon="6.82846">
        <time>2023-04-10T08:00:47+00:00</time>
        <ele>2596.0</ele>
      </trkpt>
      <trkpt lat="44.30773" lon="6.82846">
        <time>2023-04-10T08:00:48+00:00</time>
        <ele>2596.0</ele>
      </trkpt>
      <trkpt lat="44.30773" lon="6.82846">
        <time>2023-04-10T08:00:49+00:00</time>
        <ele>2596.0</ele>
      </trkpt>
      <trkpt lat="44.30773" lon="6.82846">
        <time>2023-04-10T08:00:50+00:00</time>
        <ele>2596.0</ele>
      </trkpt>
      <trkpt lat="44.30773" lon="6.82846">
        <time>2023-04-10T08:00:51+00:00</time>
        <ele>2596.0</ele>
      </trkpt>
      <trkpt lat="44.30773" lon="6.82846">
        <time>2023-04-10T08:00:52+00:00</time>
        <ele>2596.0</ele>
      </trkpt>
      <trkpt lat="44.30773" lon="6.82846">
        <time>2023-04-10T08:00:53+00:00</time>
        <ele>2596.0</ele>
      </trkpt>
      <trkpt lat="44.30773" lon="6.82846">
        <time>2023-04-10T08:00:54+00:00</time>
        <ele>2596.0</ele>
      </trkpt>
      <trkpt lat="44.30773" lon="6.82846">
        <time>2023-04-10T08:00:55+00:00</time>
        <ele>2596.0</ele>
      </trkpt>
      <trkpt lat="44.30773" lon="6.82846">
        <time>2023-04-10T08:00:56+00:00</time>
        <ele>2596.0</ele>
      </trkpt>
      <trkpt lat="44.30773" lon="6.82846">
        <time>2023-04-10T08:00:57+00:00</time>
        <ele>2596.0</ele>
      </trkpt>
      <trkpt lat="44.30773" lon="6.82846">
        <time>2023-04-10T08:00:58+00:00</time>
        <ele>2596.0</ele>
      </trkpt>
      <trkpt lat="44.30773" lon="6.82846">
        <time>2023-04-10T08:00:59+00:00</time>
        <ele>2596.0</ele>
      </trkpt>
      <trkpt lat="44.30773" lon="6.82846">
        <time>2023-04-10T08:01:00+00:00</time>
        <ele>2596.0</ele>
      </trkpt>
      <trkpt lat="44.30773" lon="6.82846">
        <time>2023-04-10T08:01:01+00:00</time>
        <ele>2596.0</ele>
      </trkpt>
      <trkpt lat="44.30773" lon="6.82846">
        <time>2023-04-10T08:01:02+00:00</time>
        <ele>2596.0</ele>
      </trkpt>
      <trkpt lat="44.30773" lon="6.82846">
        <time>2023-04-10T08:01:03+00:00</time>
        <ele>2596.0</ele>
      </trkpt>
      <trkpt lat="44.30773" lon="6.82846">
        <time>2023-04-10T08:01:04+00:00</time>
        <ele>2596.0</ele>
      </trkpt>
      <trkpt lat="44.30773" lon="6.82846">
        <time>2023-04-10T08:01:05+00:00</time>
        <ele>2596.0</ele>
      </trkpt>
      <trkpt lat="44.30773" lon="6.82846">
        <time>2023-04-10T08:01:06+00:00</time>
        <ele>2596.0</ele>
      </trkpt>
      <trkpt lat="44.30773" lon="6.82846">
        <time>2023-04-10T08:01:07+00:00</time>
        <ele>2596.0</ele>
      </trkpt>
      <trkpt lat="44.30773" lon="6.82846">
        <time>2023-04-10T08:01:08+00:00</time>
        <ele>2596.0</ele>
      </trkpt>
      <trkpt lat="44.30773" lon="6.82846">
        <time>2023-04-10T08:01:09+00:00</time>
        <ele>2596.0</ele>
      </trkpt>
      <trkpt lat="44.30773" lon="6.82846">
        <time>2023-04-10T08:01:10+00:00</time>
        <ele>2596.0</ele>
      </trkpt>
      <trkpt lat="44.30773" lon="6.82846">
        <time>2023-04-10T08:01:11+00:00</time>
        <ele>2596.0</ele>
      </trkpt>
      <trkpt lat="44.30773" lon="6.82846">
        <time>2023-04-10T08:01:12+00:00</time>
        <ele>2596.0</ele>
      </trkpt>
      <trkpt lat="44.30773" lon="6.82846">
        <time>2023-04-10T08:01:13+00:00</time>
        <ele>2596.0</ele>
      </trkpt>
      <trkpt lat="44.30773" lon="6.82846">
        <time>2023-04-10T08:01:14+00:00</time>
        <ele>2596.0</ele>
      </trkpt>
      <trkpt lat="44.30773" lon="6.82846">
        <time>2023-04-10T08:01:15+00:00</time>
        <ele>2596.0</ele>
      </trkpt>
      <trkpt lat="44.30773" lon="6.82846">
        <time>2023-04-10T08:01:16+00:00</time>
        <ele>2596.0</ele>
      </trkpt>
      <trkpt lat="44.30773" lon="6.82846">
        <time>2023-04-10T08:01:17+00:00</time>
        <ele>2596.0</ele>
      </trkpt>
      <trkpt lat="44.30773" lon="6.82846">
        <time>2023-04-10T08:01:18+00:00</time>
        <ele>2596.0</ele>
      </trkpt>
      <trkpt lat="44.30773" lon="6.82846">
        <time>2023-04-10T08:01:19+00:00</time>
        <ele>2596.0</ele>
      </trkpt>
      <trkpt lat="44.30773" lon="6.82846">
        <time>2023-04-10T08:01:20+00:00</time>
        <ele>2596.0</ele>
      </trkpt>
      <trkpt lat="44.30773" lon="6.82846">
        <time>2023-04-10T08:01:21+00:00</time>
        <ele>2596.0</ele>
      </trkpt>
      <trkpt lat="44.30773" lon="6.82846">
        <time>2023-04-10T08:01:22+00:00</time>
        <ele>2596.0</ele>
      </trkpt>
      <trkpt lat="44.30773" lon="6.82846">
        <time>2023-04-10T08:01:23+00:00</time>
        <ele>2596.0</ele>
      </trkpt>
      <trkpt lat="44.30773" lon="6.82846">
        <time>2023-04-10T08:01:24+00:00</time>
        <ele>2596.0</ele>
      </trkpt>
      <trkpt lat="44.30773" lon="6.82846">
        <time>2023-04-10T08:01:25+00:00</time>
        <ele>2596.0</ele>
      </trkpt>
      <trkpt lat="44.30773" lon="6.82846">
        <time>2023-04-10T08:01:26+00:00</time>
        <ele>2596.0</ele>
      </trkpt>
      <trkpt lat="44.30773" lon="6.82846">
        <time>2023-04-10T08:01:27+00:00</time>
        <ele>2596.0</ele>
      </trkpt>
      <trkpt lat="44.30773" lon="6.82846">
        <time>2023-04-10T08:01:28+00:00</time>
        <ele>2596.0</ele>
      </trkpt>
      <trkpt lat="44.30773" lon="6.82846">
        <time>2023-04-10T08:01:29+00:00</time>
        <ele>2596.0</ele>
      </trkpt>
      <trkpt lat="44.30773" lon="6.82846">
        <time>2023-04-10T08:01:30+00:00</time>
        <ele>2596.0</ele>
      </trkpt>
      <trkpt lat="44.30773" lon="6.82846">
        <time>2023-04-10T08:01:31+00:00</time>
        <ele>2596.0</ele>
      </trkpt>
      <trkpt lat="44.30773" lon="6.82846">
        <time>2023-04-10T08:01:32+00:00</time>
        <ele>2596.0</ele>
      </trkpt>
      <trkpt lat="44.30773" lon="6.82846">
        <time>2023-04-10T08:01:33+00:00</time>
        <ele>2596.0</ele>
      </trkpt>
      <trkpt lat="44.30773" lon="6.82846">
        <time>2023-04-10T08:01:34+00:00</time>
        <ele>2596.0</ele>
      </trkpt>
      <trkpt lat="44.30773" lon="6.82846">
        <time>2023-04-10T08:01:35+00:00</time>
        <ele>2596.0</ele>
      </trkpt>
      <trkpt lat="44.30773" lon="6.82846">
        <time>2023-04-10T08:01:36+00:00</time>
        <ele>2596.0</ele>
      </trkpt>
      <trkpt lat="44.30773" lon="6.82846">
        <time>2023-04-10T08:01:37+00:00</time>
        <ele>2596.0</ele>
      </trkpt>
      <trkpt lat="44.30773" lon="6.82846">
        <time>2023-04-10T08:01:38+00:00</time>
        <ele>2596.0</ele>
      </trkpt>
      <trkpt lat="44.30773" lon="6.82846">
        <time>2023-04-10T08:01:39+00:00</time>
        <ele>2596.0</ele>
      </trkpt>
      <trkpt lat="44.30773" lon="6.82846">
        <time>2023-04-10T08:01:40+00:00</time>
        <ele>2596.0</ele>
      </trkpt>
      <trkpt lat="44.30773" lon="6.82846">
        <time>2023-04-10T08:01:41+00:00</time>
        <ele>2596.0</ele>
      </trkpt>
      <trkpt lat="44.30773" lon="6.82846">
        <time>2023-04-10T08:01:42+00:00</time>
        <ele>2596.0</ele>
      </trkpt>
      <trkpt lat="44.30773" lon="6.82846">
        <time>2023-04-10T08:01:43+00:00</time>
        <ele>2596.0</ele>
      </trkpt>
      <trkpt lat="44.30773" lon="6.82846">
        <time>2023-04-10T08:01:44+00:00</time>
        <ele>2596.0</ele>
      </trkpt>
      <trkpt lat="44.30773" lon="6.82846">
        <time>2023-04-10T08:01:45+00:00</time>
        <ele>2596.0</ele>
      </trkpt>
      <trkpt lat="44.30773" lon="6.82846">
        <time>2023-04-10T08:01:46+00:00</time>
        <ele>2596.0</ele>
      </trkpt>
      <trkpt lat="44.30773" lon="6.82846">
        <time>2023-04-10T08:01:47+00:00</time>
        <ele>2596.0</ele>
      </trkpt>
      <trkpt lat="44.30773" lon="6.82846">
        <time>2023-04-10T08:01:48+00:00</time>
        <ele>2596.0</ele>
      </trkpt>
      <trkpt lat="44.30773" lon="6.82846">
        <time>2023-04-10T08:01:49+00:00</time>
        <ele>2596.0</ele>
      </trkpt>
      <trkpt lat="44.30773" lon="6.82846">
        <time>2023-04-10T08:01:50+00:00</time>
        <ele>2596.0</ele>
      </trkpt>
      <trkpt lat="44.30773" lon="6.82846">
        <time>2023-04-10T08:01:51+00:00</time>
        <ele>2596.0</ele>
      </trkpt>
      <trkpt lat="44.30773" lon="6.82846">
        <time>2023-04-10T08:01:52+00:00</time>
        <ele>2596.0</ele>
      </trkpt>
      <trkpt lat="44.30773" lon="6.82846">
        <time>2023-04-10T08:01:53+00:00</time>
        <ele>2596.0</ele>
      </trkpt>
      <trkpt lat="44.30773" lon="6.82846">
        <time>2023-04-10T08:01:54+00:00</time>
        <ele>2596.0</ele>
      </trkpt>
      <trkpt lat="44.30773" lon="6.82846">
        <time>2023-04-10T08:01:55+00:00</time>
        <ele>2596.0</ele>
      </trkpt>
      <trkpt lat="44.30773" lon="6.82846">
        <time>2023-04-10T08:01:56+00:00</time>
        <ele>2596.0</ele>
      </trkpt>
      <trkpt lat="44.30773" lon="6.82846">
        <time>2023-04-10T08:01:57+00:00</time>
        <ele>2596.0</ele>
      </trkpt>
      <trkpt lat="44.30773" lon="6.82846">
        <time>2023-04-10T08:01:58+00:00</time>
        <ele>2596.0</ele>
      </trkpt>
      <trkpt lat="44.30773" lon="6.82846">
        <time>2023-04-10T08:01:59+00:00</time>
        <ele>2596.0</ele>
      </trkpt>
      <trkpt lat="44.30773" lon="6.82846">
        <time>2023-04-10T08:02:00+00:00</time>
        <ele>2596.0</ele>
      </trkpt>
      <trkpt lat="44.30773" lon="6.82846">
        <time>2023-04-10T08:02:01+00:00</time>
        <ele>2596.0</ele>
      </trkpt>
      <trkpt lat="44.30773" lon="6.82846">
        <time>2023-04-10T08:02:02+00:00</time>
        <ele>2596.0</ele>
      </trkpt>
      <trkpt lat="44.30773" lon="6.82846">
        <time>2023-04-10T08:02:03+00:00</time>
        <ele>2596.0</ele>
      </trkpt>
      <trkpt lat="44.30773" lon="6.82846">
        <time>2023-04-10T08:02:04+00:00</time>
        <ele>2596.0</ele>
      </trkpt>
      <trkpt lat="44.30773" lon="6.82846">
        <time>2023-04-10T08:02:05+00:00</time>
        <ele>2596.0</ele>
      </trkpt>
      <trkpt lat="44.30773" lon="6.82846">
        <time>2023-04-10T08:02:06+00:00</time>
        <ele>2596.0</ele>
      </trkpt>
      <trkpt lat="44.30773" lon="6.82846">
        <time>2023-04-10T08:02:07+00:00</time>
        <ele>2596.0</ele>
      </trkpt>
      <trkpt lat="44.30773" lon="6.82846">
        <time>2023-04-10T08:02:08+00:00</time>
        <ele>2596.0</ele>
      </trkpt>
      <trkpt lat="44.30773" lon="6.82846">
        <time>2023-04-10T08:02:09+00:00</time>
        <ele>2596.0</ele>
      </trkpt>
      <trkpt lat="44.30773" lon="6.82846">
        <time>2023-04-10T08:02:10+00:00</time>
        <ele>2596.0</ele>
      </trkpt>
      <trkpt lat="44.30773" lon="6.82846">
        <time>2023-04-10T08:02:11+00:00</time>
        <ele>2596.0</ele>
      </trkpt>
      <trkpt lat="44.30773" lon="6.82846">
        <time>2023-04-10T08:02:12+00:00</time>
        <ele>2596.0</ele>
      </trkpt>
      <trkpt lat="44.30773" lon="6.82846">
        <time>2023-04-10T08:02:13+00:00</time>
        <ele>2596.0</ele>
      </trkpt>
      <trkpt lat="44.30773" lon="6.82846">
        <time>2023-04-10T08:02:14+00:00</time>
        <ele>2596.0</ele>
      </trkpt>
      <trkpt lat="44.30773" lon="6.82846">
        <time>2023-04-10T08:02:15+00:00</time>
        <ele>2596.0</ele>
      </trkpt>
      <trkpt lat="44.30773" lon="6.82846">
        <time>2023-04-10T08:02:16+00:00</time>
        <ele>2596.0</ele>
      </trkpt>
      <trkpt lat="44.30773" lon="6.82846">
        <time>2023-04-10T08:02:17+00:00</time>
        <ele>2596.0</ele>
      </trkpt>
      <trkpt lat="44.30773" lon="6.82846">
        <time>2023-04-10T08:02:18+00:00</time>
        <ele>2596.0</ele>
      </trkpt>
      <trkpt lat="44.30773" lon="6.82846">
        <time>2023-04-10T08:02:19+00:00</time>
        <ele>2596.0</ele>
      </trkpt>
      <trkpt lat="44.30773" lon="6.82846">
        <time>2023-04-10T08:02:20+00:00</time>
        <ele>2596.0</ele>
      </trkpt>
      <trkpt lat="44.30773" lon="6.82846">
        <time>2023-04-10T08:02:21+00:00</time>
        <ele>2596.0</ele>
      </trkpt>
      <trkpt lat="44.30773" lon="6.82846">
        <time>2023-04-10T08:02:22+00:00</time>
        <ele>2596.0</ele>
      </trkpt>
      <trkpt lat="44.30773" lon="6.82846">
        <time>2023-04-10T08:02:23+00:00</time>
        <ele>2596.0</ele>
      </trkpt>
      <trkpt lat="44.30773" lon="6.82846">
        <time>2023-04-10T08:02:24+00:00</time>
        <ele>2596.0</ele>
      </trkpt>
      <trkpt lat="44.30773" lon="6.82846">
        <time>2023-04-10T08:02:25+00:00</time>
        <ele>2596.0</ele>
      </trkpt>
      <trkpt lat="44.30773" lon="6.82846">
        <time>2023-04-10T08:02:26+00:00</time>
        <ele>2596.0</ele>
      </trkpt>
      <trkpt lat="44.30773" lon="6.82846">
        <time>2023-04-10T08:02:27+00:00</time>
        <ele>2596.0</ele>
      </trkpt>
      <trkpt lat="44.30773" lon="6.82846">
        <time>2023-04-10T08:02:28+00:00</time>
        <ele>2596.0</ele>
      </trkpt>
      <trkpt lat="44.30773" lon="6.82846">
        <time>2023-04-10T08:02:29+00:00</time>
        <ele>2596.0</ele>
      </trkpt>
      <trkpt lat="44.30773" lon="6.82846">
        <time>2023-04-10T08:02:30+00:00</time>
        <ele>2596.0</ele>
      </trkpt>
      <trkpt lat="44.30773" lon="6.82846">
        <time>2023-04-10T08:02:31+00:00</time>
        <ele>2596.0</ele>
      </trkpt>
      <trkpt lat="44.30773" lon="6.82846">
        <time>2023-04-10T08:02:32+00:00</time>
        <ele>2596.0</ele>
      </trkpt>
      <trkpt lat="44.30773" lon="6.82846">
        <time>2023-04-10T08:02:33+00:00</time>
        <ele>2596.0</ele>
      </trkpt>
      <trkpt lat="44.30773" lon="6.82846">
        <time>2023-04-10T08:02:34+00:00</time>
        <ele>2596.0</ele>
      </trkpt>
      <trkpt lat="44.30773" lon="6.82846">
        <time>2023-04-10T08:02:35+00:00</time>
        <ele>2596.0</ele>
      </trkpt>
      <trkpt lat="44.30773" lon="6.82846">
        <time>2023-04-10T08:02:36+00:00</time>
        <ele>2596.0</ele>
      </trkpt>
      <trkpt lat="44.30773" lon="6.82846">
        <time>2023-04-10T08:02:37+00:00</time>
        <ele>2596.0</ele>
      </trkpt>
      <trkpt lat="44.30773" lon="6.82846">
        <time>2023-04-10T08:02:38+00:00</time>
        <ele>2596.0</ele>
      </trkpt>
      <trkpt lat="44.30773" lon="6.82846">
        <time>2023-04-10T08:02:39+00:00</time>
        <ele>2596.0</ele>
      </trkpt>
      <trkpt lat="44.30773" lon="6.82846">
        <time>2023-04-10T08:02:40+00:00</time>
        <ele>2596.0</ele>
      </trkpt>
      <trkpt lat="44.30773" lon="6.82846">
        <time>2023-04-10T08:02:41+00:00</time>
        <ele>2596.0</ele>
      </trkpt>
      <trkpt lat="44.30773" lon="6.82846">
        <time>2023-04-10T08:02:42+00:00</time>
        <ele>2596.0</ele>
      </trkpt>
      <trkpt lat="44.30773" lon="6.82846">
        <time>2023-04-10T08:02:43+00:00</time>
        <ele>2596.0</ele>
      </trkpt>
      <trkpt lat="44.30773" lon="6.82846">
        <time>2023-04-10T08:02:44+00:00</time>
        <ele>2596.0</ele>
      </trkpt>
      <trkpt lat="44.30773" lon="6.82846">
        <time>2023-04-10T08:02:45+00:00</time>
        <ele>2596.0</ele>
      </trkpt>
      <trkpt lat="44.30773" lon="6.82846">
        <time>2023-04-10T08:02:46+00:00</time>
        <ele>2596.0</ele>
      </trkpt>
      <trkpt lat="44.30773" lon="6.82846">
        <time>2023-04-10T08:02:47+00:00</time>
        <ele>2596.0</ele>
      </trkpt>
      <trkpt lat="44.30773" lon="6.82846">
        <time>2023-04-10T08:02:48+00:00</time>
        <ele>2596.0</ele>
      </trkpt>
      <trkpt lat="44.30773" lon="6.82846">
        <time>2023-04-10T08:02:49+00:00</time>
        <ele>2596.0</ele>
      </trkpt>
      <trkpt lat="44.30773" lon="6.82846">
        <time>2023-04-10T08:02:50+00:00</time>
        <ele>2596.0</ele>
      </trkpt>
      <trkpt lat="44.30773" lon="6.82846">
        <time>2023-04-10T08:02:51+00:00</time>
        <ele>2596.0</ele>
      </trkpt>
      <trkpt lat="44.30773" lon="6.82846">
        <time>2023-04-10T08:02:52+00:00</time>
        <ele>2596.0</ele>
      </trkpt>
      <trkpt lat="44.30773" lon="6.82846">
        <time>2023-04-10T08:02:53+00:00</time>
        <ele>2596.0</ele>
      </trkpt>
      <trkpt lat="44.30773" lon="6.82846">
        <time>2023-04-10T08:02:54+00:00</time>
        <ele>2596.0</ele>
      </trkpt>
      <trkpt lat="44.30773" lon="6.82846">
        <time>2023-04-10T08:02:55+00:00</time>
        <ele>2596.0</ele>
      </trkpt>
      <trkpt lat="44.30773" lon="6.82846">
        <time>2023-04-10T08:02:56+00:00</time>
        <ele>2596.0</ele>
      </trkpt>
      <trkpt lat="44.30773" lon="6.82846">
        <time>2023-04-10T08:02:57+00:00</time>
        <ele>2596.0</ele>
      </trkpt>
      <trkpt lat="44.30773" lon="6.82846">
        <time>2023-04-10T08:02:58+00:00</time>
        <ele>2596.0</ele>
      </trkpt>
      <trkpt lat="44.30773" lon="6.82846">
        <time>2023-04-10T08:02:59+00:00</time>
        <ele>2596.0</ele>
      </trkpt>
      <trkpt lat="44.30773" lon="6.82846">
        <time>2023-04-10T08:03:00+00:00</time>
        <ele>2596.0</ele>
      </trkpt>
      <trkpt lat="44.30773" lon="6.82846">
        <time>2023-04-10T08:03:01+00:00</time>
        <ele>2596.0</ele>
      </trkpt>
      <trkpt lat="44.30773" lon="6.82846">
        <time>2023-04-10T08:03:02+00:00</time>
        <ele>2596.0</ele>
      </trkpt>
      <trkpt lat="44.30773" lon="6.82846">
        <time>2023-04-10T08:03:03+00:00</time>
        <ele>2596.0</ele>
      </trkpt>
      <trkpt lat="44.30773" lon="6.82846">
        <time>2023-04-10T08:03:04+00:00</time>
        <ele>2596.0</ele>
      </trkpt>
      <trkpt lat="44.30773" lon="6.82846">
        <time>2023-04-10T08:03:05+00:00</time>
        <ele>2596.0</ele>
      </trkpt>
      <trkpt lat="44.30773" lon="6.82846">
        <time>2023-04-10T08:03:06+00:00</time>
        <ele>2596.0</ele>
      </trkpt>
      <trkpt lat="44.30773" lon="6.82846">
        <time>2023-04-10T08:03:07+00:00</time>
        <ele>2596.0</ele>
      </trkpt>
      <trkpt lat="44.30773" lon="6.82846">
        <time>2023-04-10T08:03:08+00:00</time>
        <ele>2596.0</ele>
      </trkpt>
      <trkpt lat="44.30773" lon="6.82846">
        <time>2023-04-10T08:03:09+00:00</time>
        <ele>2596.0</ele>
      </trkpt>
      <trkpt lat="44.30773" lon="6.82846">
        <time>2023-04-10T08:03:10+00:00</time>
        <ele>2596.0</ele>
      </trkpt>
      <trkpt lat="44.30773" lon="6.82846">
        <time>2023-04-10T08:03:11+00:00</time>
        <ele>2596.0</ele>
      </trkpt>
      <trkpt lat="44.30773" lon="6.82846">
        <time>2023-04-10T08:03:12+00:00</time>
        <ele>2596.0</ele>
      </trkpt>
      <trkpt lat="44.30773" lon="6.82846">
        <time>2023-04-10T08:03:13+00:00</time>
        <ele>2596.0</ele>
      </trkpt>
      <trkpt lat="44.30773" lon="6.82846">
        <time>2023-04-10T08:03:14+00:00</time>
        <ele>2596.0</ele>
      </trkpt>
      <trkpt lat="44.30773" lon="6.82846">
        <time>2023-04-10T08:03:15+00:00</time>
        <ele>2596.0</ele>
      </trkpt>
      <trkpt lat="44.30773" lon="6.82846">
        <time>2023-04-10T08:03:16+00:00</time>
        <ele>2596.0</ele>
      </trkpt>
      <trkpt lat="44.30773" lon="6.82846">
        <time>2023-04-10T08:03:17+00:00</time>
        <ele>2596.0</ele>
      </trkpt>
      <trkpt lat="44.30773" lon="6.82846">
        <time>2023-04-10T08:03:18+00:00</time>
        <ele>2596.0</ele>
      </trkpt>
      <trkpt lat="44.30773" lon="6.82846">
        <time>2023-04-10T08:03:19+00:00</time>
        <ele>2596.0</ele>
      </trkpt>
      <trkpt lat="44.30773" lon="6.82846">
        <time>2023-04-10T08:03:20+00:00</time>
        <ele>2596.0</ele>
      </trkpt>
      <trkpt lat="44.30773" lon="6.82846">
        <time>2023-04-10T08:03:21+00:00</time>
        <ele>2596.0</ele>
      </trkpt>
      <trkpt lat="44.30773" lon="6.82846">
        <time>2023-04-10T08:03:22+00:00</time>
        <ele>2596.0</ele>
      </trkpt>
      <trkpt lat="44.30773" lon="6.82846">
        <time>2023-04-10T08:03:23+00:00</time>
        <ele>2596.0</ele>
      </trkpt>
      <trkpt lat="44.30773" lon="6.82846">
        <time>2023-04-10T08:03:24+00:00</time>
        <ele>2596.0</ele>
      </trkpt>
      <trkpt lat="44.30773" lon="6.82846">
        <time>2023-04-10T08:03:25+00:00</time>
        <ele>2596.0</ele>
      </trkpt>
      <trkpt lat="44.30773" lon="6.82846">
        <time>2023-04-10T08:03:26+00:00</time>
        <ele>2596.0</ele>
      </trkpt>
      <trkpt lat="44.30773" lon="6.82846">
        <time>2023-04-10T08:03:27+00:00</time>
        <ele>2596.0</ele>
      </trkpt>
      <trkpt lat="44.30773" lon="6.82846">
        <time>2023-04-10T08:03:28+00:00</time>
        <ele>2596.0</ele>
      </trkpt>
      <trkpt lat="44.30773" lon="6.82846">
        <time>2023-04-10T08:03:29+00:00</time>
        <ele>2596.0</ele>
      </trkpt>
      <trkpt lat="44.30773" lon="6.82846">
        <time>2023-04-10T08:03:30+00:00</time>
        <ele>2596.0</ele>
      </trkpt>
      <trkpt lat="44.30773" lon="6.82846">
        <time>2023-04-10T08:03:31+00:00</time>
        <ele>2596.0</ele>
      </trkpt>
      <trkpt lat="44.30773" lon="6.82846">
        <time>2023-04-10T08:03:32+00:00</time>
        <ele>2596.0</ele>
      </trkpt>
      <trkpt lat="44.30773" lon="6.82846">
        <time>2023-04-10T08:03:33+00:00</time>
        <ele>2596.0</ele>
      </trkpt>
      <trkpt lat="44.30773" lon="6.82846">
        <time>2023-04-10T08:03:34+00:00</time>
        <ele>2596.0</ele>
      </trkpt>
      <trkpt lat="44.30773" lon="6.82846">
        <time>2023-04-10T08:03:35+00:00</time>
        <ele>2596.0</ele>
      </trkpt>
      <trkpt lat="44.30773" lon="6.82846">
        <time>2023-04-10T08:03:36+00:00</time>
        <ele>2596.0</ele>
      </trkpt>
      <trkpt lat="44.30773" lon="6.82846">
        <time>2023-04-10T08:03:37+00:00</time>
        <ele>2596.0</ele>
      </trkpt>
      <trkpt lat="44.30773" lon="6.82846">
        <time>2023-04-10T08:03:38+00:00</time>
        <ele>2596.0</ele>
      </trkpt>
      <trkpt lat="44.30773" lon="6.82846">
        <time>2023-04-10T08:03:39+00:00</time>
        <ele>2596.0</ele>
      </trkpt>
      <trkpt lat="44.30773" lon="6.82846">
        <time>2023-04-10T08:03:40+00:00</time>
        <ele>2596.0</ele>
      </trkpt>
      <trkpt lat="44.30773" lon="6.82846">
        <time>2023-04-10T08:03:41+00:00</time>
        <ele>2596.0</ele>
      </trkpt>
      <trkpt lat="44.30773" lon="6.82846">
        <time>2023-04-10T08:03:42+00:00</time>
        <ele>2596.0</ele>
      </trkpt>
      <trkpt lat="44.30773" lon="6.82846">
        <time>2023-04-10T08:03:43+00:00</time>
        <ele>2596.0</ele>
      </trkpt>
      <trkpt lat="44.30773" lon="6.82846">
        <time>2023-04-10T08:03:44+00:00</time>
        <ele>2596.0</ele>
      </trkpt>
      <trkpt lat="44.30773" lon="6.82846">
        <time>2023-04-10T08:03:45+00:00</time>
        <ele>2596.0</ele>
      </trkpt>
      <trkpt lat="44.30773" lon="6.82846">
        <time>2023-04-10T08:03:46+00:00</time>
        <ele>2596.0</ele>
      </trkpt>
      <trkpt lat="44.30773" lon="6.82846">
        <time>2023-04-10T08:03:47+00:00</time>
        <ele>2596.0</ele>
      </trkpt>
      <trkpt lat="44.30773" lon="6.82846">
        <time>2023-04-10T08:03:48+00:00</time>
        <ele>2596.0</ele>
      </trkpt>
      <trkpt lat="44.30773" lon="6.82846">
        <time>2023-04-10T08:03:49+00:00</time>
        <ele>2596.0</ele>
      </trkpt>
      <trkpt lat="44.30773" lon="6.82846">
        <time>2023-04-10T08:03:50+00:00</time>
        <ele>2596.0</ele>
      </trkpt>
      <trkpt lat="44.30773" lon="6.82846">
        <time>2023-04-10T08:03:51+00:00</time>
        <ele>2596.0</ele>
      </trkpt>
      <trkpt lat="44.30773" lon="6.82846">
        <time>2023-04-10T08:03:52+00:00</time>
        <ele>2596.0</ele>
      </trkpt>
      <trkpt lat="44.30773" lon="6.82846">
        <time>2023-04-10T08:03:53+00:00</time>
        <ele>2596.0</ele>
      </trkpt>
      <trkpt lat="44.30773" lon="6.82846">
        <time>2023-04-10T08:03:54+00:00</time>
        <ele>2596.0</ele>
      </trkpt>
      <trkpt lat="44.30773" lon="6.82846">
        <time>2023-04-10T08:03:55+00:00</time>
        <ele>2596.0</ele>
      </trkpt>
      <trkpt lat="44.30773" lon="6.82846">
        <time>2023-04-10T08:03:56+00:00</time>
        <ele>2596.0</ele>
      </trkpt>
      <trkpt lat="44.30773" lon="6.82846">
        <time>2023-04-10T08:03:57+00:00</time>
        <ele>2596.0</ele>
      </trkpt>
      <trkpt lat="44.30773" lon="6.82846">
        <time>2023-04-10T08:03:58+00:00</time>
        <ele>2596.0</ele>
      </trkpt>
      <trkpt lat="44.30773" lon="6.82846">
        <time>2023-04-10T08:03:59+00:00</time>
        <ele>2596.0</ele>
      </trkpt>
      <trkpt lat="44.30773" lon="6.82846">
        <time>2023-04-10T08:04:00+00:00</time>
        <ele>2596.0</ele>
      </trkpt>
      <trkpt lat="44.30773" lon="6.82846">
        <time>2023-04-10T08:04:01+00:00</time>
        <ele>2596.0</ele>
      </trkpt>
      <trkpt lat="44.30773" lon="6.82846">
        <time>2023-04-10T08:04:02+00:00</time>
        <ele>2596.0</ele>
      </trkpt>
      <trkpt lat="44.30773" lon="6.82846">
        <time>2023-04-10T08:04:03+00:00</time>
        <ele>2596.0</ele>
      </trkpt>
      <trkpt lat="44.30773" lon="6.82846">
        <time>2023-04-10T08:04:04+00:00</time>
        <ele>2596.0</ele>
      </trkpt>
      <trkpt lat="44.30773" lon="6.82846">
        <time>2023-04-10T08:04:05+00:00</time>
        <ele>2596.0</ele>
      </trkpt>
      <trkpt lat="44.30773" lon="6.82846">
        <time>2023-04-10T08:04:06+00:00</time>
        <ele>2596.0</ele>
      </trkpt>
      <trkpt lat="44.30773" lon="6.82846">
        <time>2023-04-10T08:04:07+00:00</time>
        <ele>2596.0</ele>
      </trkpt>
      <trkpt lat="44.30773" lon="6.82846">
        <time>2023-04-10T08:04:08+00:00</time>
        <ele>2596.0</ele>
      </trkpt>
      <trkpt lat="44.30773" lon="6.82846">
        <time>2023-04-10T08:04:09+00:00</time>
        <ele>2596.0</ele>
      </trkpt>
      <trkpt lat="44.30773" lon="6.82846">
        <time>2023-04-10T08:04:10+00:00</time>
        <ele>2596.0</ele>
      </trkpt>
      <trkpt lat="44.30773" lon="6.82846">
        <time>2023-04-10T08:04:11+00:00</time>
        <ele>2596.0</ele>
      </trkpt>
      <trkpt lat="44.30773" lon="6.82846">
        <time>2023-04-10T08:04:12+00:00</time>
        <ele>2596.0</ele>
      </trkpt>
      <trkpt lat="44.30773" lon="6.82846">
        <time>2023-04-10T08:04:13+00:00</time>
        <ele>2596.0</ele>
      </trkpt>
      <trkpt lat="44.30773" lon="6.82846">
        <time>2023-04-10T08:04:14+00:00</time>
        <ele>2596.0</ele>
      </trkpt>
      <trkpt lat="44.30773" lon="6.82846">
        <time>2023-04-10T08:04:15+00:00</time>
        <ele>2596.0</ele>
      </trkpt>
      <trkpt lat="44.30773" lon="6.82846">
        <time>2023-04-10T08:04:16+00:00</time>
        <ele>2596.0</ele>
      </trkpt>
      <trkpt lat="44.30773" lon="6.82846">
        <time>2023-04-10T08:04:17+00:00</time>
        <ele>2596.0</ele>
      </trkpt>
      <trkpt lat="44.30773" lon="6.82846">
        <time>2023-04-10T08:04:18+00:00</time>
        <ele>2596.0</ele>
      </trkpt>
      <trkpt lat="44.30773" lon="6.82846">
        <time>2023-04-10T08:04:19+00:00</time>
        <ele>2596.0</ele>
      </trkpt>
      <trkpt lat="44.30773" lon="6.82846">
        <time>2023-04-10T08:04:20+00:00</time>
        <ele>2596.0</ele>
      </trkpt>
      <trkpt lat="44.30773" lon="6.82846">
        <time>2023-04-10T08:04:21+00:00</time>
        <ele>2596.0</ele>
      </trkpt>
      <trkpt lat="44.30773" lon="6.82846">
        <time>2023-04-10T08:04:22+00:00</time>
        <ele>2596.0</ele>
      </trkpt>
      <trkpt lat="44.30773" lon="6.82846">
        <time>2023-04-10T08:04:23+00:00</time>
        <ele>2596.0</ele>
      </trkpt>
      <trkpt lat="44.30773" lon="6.82846">
        <time>2023-04-10T08:04:24+00:00</time>
        <ele>2596.0</ele>
      </trkpt>
      <trkpt lat="44.30773" lon="6.82846">
        <time>2023-04-10T08:04:25+00:00</time>
        <ele>2596.0</ele>
      </trkpt>
      <trkpt lat="44.30773" lon="6.82846">
        <time>2023-04-10T08:04:26+00:00</time>
        <ele>2596.0</ele>
      </trkpt>
      <trkpt lat="44.30773" lon="6.82846">
        <time>2023-04-10T08:04:27+00:00</time>
        <ele>2596.0</ele>
      </trkpt>
      <trkpt lat="44.30773" lon="6.82846">
        <time>2023-04-10T08:04:28+00:00</time>
        <ele>2596.0</ele>
      </trkpt>
      <trkpt lat="44.30772" lon="6.82846">
        <time>2023-04-10T08:04:29+00:00</time>
        <ele>2596.0</ele>
      </trkpt>
      <trkpt lat="44.30772" lon="6.82846">
        <time>2023-04-10T08:04:30+00:00</time>
        <ele>2596.0</ele>
      </trkpt>
      <trkpt lat="44.30772" lon="6.82846">
        <time>2023-04-10T08:04:31+00:00</time>
        <ele>2596.0</ele>
      </trkpt>
      <trkpt lat="44.30772" lon="6.82846">
        <time>2023-04-10T08:04:32+00:00</time>
        <ele>2596.0</ele>
      </trkpt>
      <trkpt lat="44.30772" lon="6.82846">
        <time>2023-04-10T08:04:33+00:00</time>
        <ele>2596.0</ele>
      </trkpt>
      <trkpt lat="44.30772" lon="6.82846">
        <time>2023-04-10T08:04:34+00:00</time>
        <ele>2596.0</ele>
      </trkpt>
      <trkpt lat="44.30772" lon="6.82846">
        <time>2023-04-10T08:04:35+00:00</time>
        <ele>2596.0</ele>
      </trkpt>
      <trkpt lat="44.30772" lon="6.82846">
        <time>2023-04-10T08:04:36+00:00</time>
        <ele>2596.0</ele>
      </trkpt>
      <trkpt lat="44.30772" lon="6.82846">
        <time>2023-04-10T08:04:37+00:00</time>
        <ele>2596.0</ele>
      </trkpt>
      <trkpt lat="44.30772" lon="6.82846">
        <time>2023-04-10T08:04:38+00:00</time>
        <ele>2596.0</ele>
      </trkpt>
      <trkpt lat="44.30772" lon="6.82846">
        <time>2023-04-10T08:04:39+00:00</time>
        <ele>2596.0</ele>
      </trkpt>
      <trkpt lat="44.30772" lon="6.82846">
        <time>2023-04-10T08:04:40+00:00</time>
        <ele>2596.0</ele>
      </trkpt>
      <trkpt lat="44.30772" lon="6.82846">
        <time>2023-04-10T08:04:41+00:00</time>
        <ele>2596.0</ele>
      </trkpt>
      <trkpt lat="44.30772" lon="6.82846">
        <time>2023-04-10T08:04:42+00:00</time>
        <ele>2596.0</ele>
      </trkpt>
      <trkpt lat="44.30772" lon="6.82846">
        <time>2023-04-10T08:04:43+00:00</time>
        <ele>2596.0</ele>
      </trkpt>
      <trkpt lat="44.30772" lon="6.82846">
        <time>2023-04-10T08:04:44+00:00</time>
        <ele>2596.0</ele>
      </trkpt>
      <trkpt lat="44.30772" lon="6.82846">
        <time>2023-04-10T08:04:45+00:00</time>
        <ele>2596.0</ele>
      </trkpt>
      <trkpt lat="44.30772" lon="6.82846">
        <time>2023-04-10T08:04:46+00:00</time>
        <ele>2596.0</ele>
      </trkpt>
      <trkpt lat="44.30772" lon="6.82846">
        <time>2023-04-10T08:04:47+00:00</time>
        <ele>2596.0</ele>
      </trkpt>
      <trkpt lat="44.30772" lon="6.82846">
        <time>2023-04-10T08:04:48+00:00</time>
        <ele>2596.0</ele>
      </trkpt>
      <trkpt lat="44.30772" lon="6.82846">
        <time>2023-04-10T08:04:49+00:00</time>
        <ele>2596.0</ele>
      </trkpt>
      <trkpt lat="44.30772" lon="6.82846">
        <time>2023-04-10T08:04:50+00:00</time>
        <ele>2596.0</ele>
      </trkpt>
      <trkpt lat="44.30772" lon="6.82846">
        <time>2023-04-10T08:04:51+00:00</time>
        <ele>2596.0</ele>
      </trkpt>
      <trkpt lat="44.30772" lon="6.82846">
        <time>2023-04-10T08:04:52+00:00</time>
        <ele>2596.0</ele>
      </trkpt>
      <trkpt lat="44.30772" lon="6.82846">
        <time>2023-04-10T08:04:53+00:00</time>
        <ele>2596.0</ele>
      </trkpt>
      <trkpt lat="44.30772" lon="6.82846">
        <time>2023-04-10T08:04:54+00:00</time>
        <ele>2596.0</ele>
      </trkpt>
      <trkpt lat="44.30772" lon="6.82846">
        <time>2023-04-10T08:04:55+00:00</time>
        <ele>2596.0</ele>
      </trkpt>
      <trkpt lat="44.30772" lon="6.82846">
        <time>2023-04-10T08:04:56+00:00</time>
        <ele>2596.0</ele>
      </trkpt>
      <trkpt lat="44.30772" lon="6.82846">
        <time>2023-04-10T08:04:57+00:00</time>
        <ele>2596.0</ele>
      </trkpt>
      <trkpt lat="44.30772" lon="6.82846">
        <time>2023-04-10T08:04:58+00:00</time>
        <ele>2596.0</ele>
      </trkpt>
      <trkpt lat="44.30772" lon="6.82846">
        <time>2023-04-10T08:04:59+00:00</time>
        <ele>2596.0</ele>
      </trkpt>
      <trkpt lat="44.30772" lon="6.82846">
        <time>2023-04-10T08:05:00+00:00</time>
        <ele>2596.0</ele>
      </trkpt>
      <trkpt lat="44.30772" lon="6.82846">
        <time>2023-04-10T08:05:01+00:00</time>
        <ele>2596.0</ele>
      </trkpt>
      <trkpt lat="44.30772" lon="6.82846">
        <time>2023-04-10T08:05:02+00:00</time>
        <ele>2596.0</ele>
      </trkpt>
      <trkpt lat="44.30772" lon="6.82846">
        <time>2023-04-10T08:05:03+00:00</time>
        <ele>2596.0</ele>
      </trkpt>
      <trkpt lat="44.30772" lon="6.82846">
        <time>2023-04-10T08:05:04+00:00</time>
        <ele>2596.0</ele>
      </trkpt>
      <trkpt lat="44.30772" lon="6.82846">
        <time>2023-04-10T08:05:05+00:00</time>
        <ele>2596.0</ele>
      </trkpt>
      <trkpt lat="44.30772" lon="6.82846">
        <time>2023-04-10T08:05:06+00:00</time>
        <ele>2596.0</ele>
      </trkpt>
      <trkpt lat="44.30772" lon="6.82846">
        <time>2023-04-10T08:05:07+00:00</time>
        <ele>2596.0</ele>
      </trkpt>
      <trkpt lat="44.30772" lon="6.82846">
        <time>2023-04-10T08:05:08+00:00</time>
        <ele>2596.0</ele>
      </trkpt>
      <trkpt lat="44.30772" lon="6.82846">
        <time>2023-04-10T08:05:09+00:00</time>
        <ele>2596.0</ele>
      </trkpt>
      <trkpt lat="44.30772" lon="6.82846">
        <time>2023-04-10T08:05:10+00:00</time>
        <ele>2596.0</ele>
      </trkpt>
      <trkpt lat="44.30772" lon="6.82846">
        <time>2023-04-10T08:05:11+00:00</time>
        <ele>2596.0</ele>
      </trkpt>
      <trkpt lat="44.30772" lon="6.82846">
        <time>2023-04-10T08:05:12+00:00</time>
        <ele>2596.0</ele>
      </trkpt>
      <trkpt lat="44.30772" lon="6.82846">
        <time>2023-04-10T08:05:13+00:00</time>
        <ele>2596.0</ele>
      </trkpt>
      <trkpt lat="44.30772" lon="6.82846">
        <time>2023-04-10T08:05:14+00:00</time>
        <ele>2596.0</ele>
      </trkpt>
      <trkpt lat="44.30772" lon="6.82846">
        <time>2023-04-10T08:05:15+00:00</time>
        <ele>2596.0</ele>
      </trkpt>
      <trkpt lat="44.30772" lon="6.82846">
        <time>2023-04-10T08:05:16+00:00</time>
        <ele>2596.0</ele>
      </trkpt>
      <trkpt lat="44.30772" lon="6.82846">
        <time>2023-04-10T08:05:17+00:00</time>
        <ele>2596.0</ele>
      </trkpt>
      <trkpt lat="44.30772" lon="6.82846">
        <time>2023-04-10T08:05:18+00:00</time>
        <ele>2596.0</ele>
      </trkpt>
      <trkpt lat="44.30772" lon="6.82846">
        <time>2023-04-10T08:05:19+00:00</time>
        <ele>2596.0</ele>
      </trkpt>
      <trkpt lat="44.30772" lon="6.82846">
        <time>2023-04-10T08:05:20+00:00</time>
        <ele>2596.0</ele>
      </trkpt>
      <trkpt lat="44.30772" lon="6.82846">
        <time>2023-04-10T08:05:21+00:00</time>
        <ele>2596.0</ele>
      </trkpt>
      <trkpt lat="44.30772" lon="6.82846">
        <time>2023-04-10T08:05:22+00:00</time>
        <ele>2596.0</ele>
      </trkpt>
      <trkpt lat="44.30772" lon="6.82846">
        <time>2023-04-10T08:05:23+00:00</time>
        <ele>2596.0</ele>
      </trkpt>
      <trkpt lat="44.30772" lon="6.82846">
        <time>2023-04-10T08:05:24+00:00</time>
        <ele>2596.0</ele>
      </trkpt>
      <trkpt lat="44.30772" lon="6.82846">
        <time>2023-04-10T08:05:25+00:00</time>
        <ele>2596.0</ele>
      </trkpt>
      <trkpt lat="44.30772" lon="6.82846">
        <time>2023-04-10T08:05:26+00:00</time>
        <ele>2596.0</ele>
      </trkpt>
      <trkpt lat="44.30772" lon="6.82846">
        <time>2023-04-10T08:05:27+00:00</time>
        <ele>2596.0</ele>
      </trkpt>
      <trkpt lat="44.30772" lon="6.82846">
        <time>2023-04-10T08:05:28+00:00</time>
        <ele>2596.0</ele>
      </trkpt>
      <trkpt lat="44.30772" lon="6.82846">
        <time>2023-04-10T08:05:29+00:00</time>
        <ele>2596.0</ele>
      </trkpt>
      <trkpt lat="44.30772" lon="6.82846">
        <time>2023-04-10T08:05:30+00:00</time>
        <ele>2596.0</ele>
      </trkpt>
      <trkpt lat="44.30772" lon="6.82846">
        <time>2023-04-10T08:05:31+00:00</time>
        <ele>2596.0</ele>
      </trkpt>
      <trkpt lat="44.30772" lon="6.82846">
        <time>2023-04-10T08:05:32+00:00</time>
        <ele>2596.0</ele>
      </trkpt>
      <trkpt lat="44.30772" lon="6.82846">
        <time>2023-04-10T08:05:33+00:00</time>
        <ele>2596.0</ele>
      </trkpt>
      <trkpt lat="44.30772" lon="6.82846">
        <time>2023-04-10T08:05:34+00:00</time>
        <ele>2596.0</ele>
      </trkpt>
      <trkpt lat="44.30772" lon="6.82846">
        <time>2023-04-10T08:05:35+00:00</time>
        <ele>2596.0</ele>
      </trkpt>
      <trkpt lat="44.30772" lon="6.82846">
        <time>2023-04-10T08:05:36+00:00</time>
        <ele>2596.0</ele>
      </trkpt>
      <trkpt lat="44.30772" lon="6.82846">
        <time>2023-04-10T08:05:37+00:00</time>
        <ele>2596.0</ele>
      </trkpt>
      <trkpt lat="44.30772" lon="6.82846">
        <time>2023-04-10T08:05:38+00:00</time>
        <ele>2596.0</ele>
      </trkpt>
      <trkpt lat="44.30772" lon="6.82846">
        <time>2023-04-10T08:05:39+00:00</time>
        <ele>2596.0</ele>
      </trkpt>
      <trkpt lat="44.30772" lon="6.82846">
        <time>2023-04-10T08:05:40+00:00</time>
        <ele>2596.0</ele>
      </trkpt>
      <trkpt lat="44.30772" lon="6.82846">
        <time>2023-04-10T08:05:41+00:00</time>
        <ele>2596.0</ele>
      </trkpt>
      <trkpt lat="44.30772" lon="6.82846">
        <time>2023-04-10T08:05:42+00:00</time>
        <ele>2596.0</ele>
      </trkpt>
      <trkpt lat="44.30772" lon="6.82846">
        <time>2023-04-10T08:05:43+00:00</time>
        <ele>2596.0</ele>
      </trkpt>
      <trkpt lat="44.30772" lon="6.82846">
        <time>2023-04-10T08:05:44+00:00</time>
        <ele>2596.0</ele>
      </trkpt>
      <trkpt lat="44.30772" lon="6.82846">
        <time>2023-04-10T08:05:45+00:00</time>
        <ele>2596.0</ele>
      </trkpt>
      <trkpt lat="44.30772" lon="6.82846">
        <time>2023-04-10T08:05:46+00:00</time>
        <ele>2596.0</ele>
      </trkpt>
      <trkpt lat="44.30772" lon="6.82846">
        <time>2023-04-10T08:05:47+00:00</time>
        <ele>2596.0</ele>
      </trkpt>
      <trkpt lat="44.30772" lon="6.82846">
        <time>2023-04-10T08:05:48+00:00</time>
        <ele>2596.0</ele>
      </trkpt>
      <trkpt lat="44.30772" lon="6.82846">
        <time>2023-04-10T08:05:49+00:00</time>
        <ele>2596.0</ele>
      </trkpt>
      <trkpt lat="44.30772" lon="6.82846">
        <time>2023-04-10T08:05:50+00:00</time>
        <ele>2596.0</ele>
      </trkpt>
      <trkpt lat="44.30772" lon="6.82846">
        <time>2023-04-10T08:05:51+00:00</time>
        <ele>2596.0</ele>
      </trkpt>
      <trkpt lat="44.30772" lon="6.82846">
        <time>2023-04-10T08:05:52+00:00</time>
        <ele>2596.0</ele>
      </trkpt>
      <trkpt lat="44.30772" lon="6.82846">
        <time>2023-04-10T08:05:53+00:00</time>
        <ele>2596.0</ele>
      </trkpt>
      <trkpt lat="44.30772" lon="6.82846">
        <time>2023-04-10T08:05:54+00:00</time>
        <ele>2596.0</ele>
      </trkpt>
      <trkpt lat="44.30772" lon="6.82846">
        <time>2023-04-10T08:05:55+00:00</time>
        <ele>2596.0</ele>
      </trkpt>
      <trkpt lat="44.30772" lon="6.82846">
        <time>2023-04-10T08:05:56+00:00</time>
        <ele>2596.0</ele>
      </trkpt>
      <trkpt lat="44.30772" lon="6.82846">
        <time>2023-04-10T08:05:57+00:00</time>
        <ele>2596.0</ele>
      </trkpt>
      <trkpt lat="44.30772" lon="6.82846">
        <time>2023-04-10T08:05:58+00:00</time>
        <ele>2596.0</ele>
      </trkpt>
      <trkpt lat="44.30772" lon="6.82846">
        <time>2023-04-10T08:05:59+00:00</time>
        <ele>2596.0</ele>
      </trkpt>
      <trkpt lat="44.30772" lon="6.82846">
        <time>2023-04-10T08:06:00+00:00</time>
        <ele>2596.0</ele>
      </trkpt>
      <trkpt lat="44.30772" lon="6.82846">
        <time>2023-04-10T08:06:01+00:00</time>
        <ele>2596.0</ele>
      </trkpt>
      <trkpt lat="44.30772" lon="6.82846">
        <time>2023-04-10T08:06:02+00:00</time>
        <ele>2596.0</ele>
      </trkpt>
      <trkpt lat="44.30772" lon="6.82846">
        <time>2023-04-10T08:06:03+00:00</time>
        <ele>2596.0</ele>
      </trkpt>
      <trkpt lat="44.30771" lon="6.82846">
        <time>2023-04-10T08:06:04+00:00</time>
        <ele>2596.0</ele>
      </trkpt>
      <trkpt lat="44.30771" lon="6.82846">
        <time>2023-04-10T08:06:05+00:00</time>
        <ele>2596.0</ele>
      </trkpt>
      <trkpt lat="44.30771" lon="6.82846">
        <time>2023-04-10T08:06:06+00:00</time>
        <ele>2596.0</ele>
      </trkpt>
      <trkpt lat="44.30771" lon="6.82846">
        <time>2023-04-10T08:06:07+00:00</time>
        <ele>2596.0</ele>
      </trkpt>
      <trkpt lat="44.30771" lon="6.82846">
        <time>2023-04-10T08:06:08+00:00</time>
        <ele>2596.0</ele>
      </trkpt>
      <trkpt lat="44.30771" lon="6.82846">
        <time>2023-04-10T08:06:09+00:00</time>
        <ele>2596.0</ele>
      </trkpt>
      <trkpt lat="44.30771" lon="6.82846">
        <time>2023-04-10T08:06:10+00:00</time>
        <ele>2596.0</ele>
      </trkpt>
      <trkpt lat="44.30771" lon="6.82846">
        <time>2023-04-10T08:06:11+00:00</time>
        <ele>2596.0</ele>
      </trkpt>
      <trkpt lat="44.30771" lon="6.82846">
        <time>2023-04-10T08:06:12+00:00</time>
        <ele>2596.0</ele>
      </trkpt>
      <trkpt lat="44.30771" lon="6.82846">
        <time>2023-04-10T08:06:13+00:00</time>
        <ele>2596.0</ele>
      </trkpt>
      <trkpt lat="44.30771" lon="6.82846">
        <time>2023-04-10T08:06:14+00:00</time>
        <ele>2596.0</ele>
      </trkpt>
      <trkpt lat="44.30771" lon="6.82846">
        <time>2023-04-10T08:06:15+00:00</time>
        <ele>2596.0</ele>
      </trkpt>
      <trkpt lat="44.30771" lon="6.82846">
        <time>2023-04-10T08:06:16+00:00</time>
        <ele>2596.0</ele>
      </trkpt>
      <trkpt lat="44.30771" lon="6.82846">
        <time>2023-04-10T08:06:17+00:00</time>
        <ele>2596.0</ele>
      </trkpt>
      <trkpt lat="44.30771" lon="6.82846">
        <time>2023-04-10T08:06:18+00:00</time>
        <ele>2596.0</ele>
      </trkpt>
      <trkpt lat="44.30771" lon="6.82846">
        <time>2023-04-10T08:06:19+00:00</time>
        <ele>2596.0</ele>
      </trkpt>
      <trkpt lat="44.30771" lon="6.82846">
        <time>2023-04-10T08:06:20+00:00</time>
        <ele>2596.0</ele>
      </trkpt>
      <trkpt lat="44.30771" lon="6.82846">
        <time>2023-04-10T08:06:21+00:00</time>
        <ele>2596.0</ele>
      </trkpt>
      <trkpt lat="44.30771" lon="6.82846">
        <time>2023-04-10T08:06:22+00:00</time>
        <ele>2596.0</ele>
      </trkpt>
      <trkpt lat="44.30771" lon="6.82846">
        <time>2023-04-10T08:06:23+00:00</time>
        <ele>2596.0</ele>
      </trkpt>
      <trkpt lat="44.30771" lon="6.82846">
        <time>2023-04-10T08:06:24+00:00</time>
        <ele>2596.0</ele>
      </trkpt>
      <trkpt lat="44.30771" lon="6.82846">
        <time>2023-04-10T08:06:25+00:00</time>
        <ele>2596.0</ele>
      </trkpt>
      <trkpt lat="44.30771" lon="6.82846">
        <time>2023-04-10T08:06:26+00:00</time>
        <ele>2596.0</ele>
      </trkpt>
      <trkpt lat="44.30771" lon="6.82846">
        <time>2023-04-10T08:06:27+00:00</time>
        <ele>2596.0</ele>
      </trkpt>
      <trkpt lat="44.30771" lon="6.82846">
        <time>2023-04-10T08:06:28+00:00</time>
        <ele>2596.0</ele>
      </trkpt>
      <trkpt lat="44.30771" lon="6.82846">
        <time>2023-04-10T08:06:29+00:00</time>
        <ele>2596.0</ele>
      </trkpt>
      <trkpt lat="44.30771" lon="6.82846">
        <time>2023-04-10T08:06:30+00:00</time>
        <ele>2596.0</ele>
      </trkpt>
      <trkpt lat="44.30771" lon="6.82846">
        <time>2023-04-10T08:06:31+00:00</time>
        <ele>2596.0</ele>
      </trkpt>
      <trkpt lat="44.30771" lon="6.82846">
        <time>2023-04-10T08:06:32+00:00</time>
        <ele>2596.0</ele>
      </trkpt>
      <trkpt lat="44.30771" lon="6.82846">
        <time>2023-04-10T08:06:33+00:00</time>
        <ele>2596.0</ele>
      </trkpt>
      <trkpt lat="44.30771" lon="6.82846">
        <time>2023-04-10T08:06:34+00:00</time>
        <ele>2596.0</ele>
      </trkpt>
      <trkpt lat="44.30771" lon="6.82846">
        <time>2023-04-10T08:06:35+00:00</time>
        <ele>2596.0</ele>
      </trkpt>
      <trkpt lat="44.30771" lon="6.82846">
        <time>2023-04-10T08:06:36+00:00</time>
        <ele>2596.0</ele>
      </trkpt>
      <trkpt lat="44.30771" lon="6.82846">
        <time>2023-04-10T08:06:37+00:00</time>
        <ele>2596.0</ele>
      </trkpt>
      <trkpt lat="44.30771" lon="6.82846">
        <time>2023-04-10T08:06:38+00:00</time>
        <ele>2596.0</ele>
      </trkpt>
      <trkpt lat="44.30771" lon="6.82846">
        <time>2023-04-10T08:06:39+00:00</time>
        <ele>2596.0</ele>
      </trkpt>
      <trkpt lat="44.30771" lon="6.82846">
        <time>2023-04-10T08:06:40+00:00</time>
        <ele>2596.0</ele>
      </trkpt>
      <trkpt lat="44.30771" lon="6.82846">
        <time>2023-04-10T08:06:41+00:00</time>
        <ele>2596.0</ele>
      </trkpt>
      <trkpt lat="44.30771" lon="6.82846">
        <time>2023-04-10T08:06:42+00:00</time>
        <ele>2596.0</ele>
      </trkpt>
      <trkpt lat="44.30771" lon="6.82846">
        <time>2023-04-10T08:06:43+00:00</time>
        <ele>2596.0</ele>
      </trkpt>
      <trkpt lat="44.30771" lon="6.82846">
        <time>2023-04-10T08:06:44+00:00</time>
        <ele>2596.0</ele>
      </trkpt>
      <trkpt lat="44.30771" lon="6.82846">
        <time>2023-04-10T08:06:45+00:00</time>
        <ele>2596.0</ele>
      </trkpt>
      <trkpt lat="44.30771" lon="6.82846">
        <time>2023-04-10T08:06:46+00:00</time>
        <ele>2596.0</ele>
      </trkpt>
      <trkpt lat="44.30771" lon="6.82846">
        <time>2023-04-10T08:06:47+00:00</time>
        <ele>2596.0</ele>
      </trkpt>
      <trkpt lat="44.30771" lon="6.82846">
        <time>2023-04-10T08:06:48+00:00</time>
        <ele>2596.0</ele>
      </trkpt>
      <trkpt lat="44.30771" lon="6.82846">
        <time>2023-04-10T08:06:49+00:00</time>
        <ele>2596.0</ele>
      </trkpt>
      <trkpt lat="44.30771" lon="6.82846">
        <time>2023-04-10T08:06:50+00:00</time>
        <ele>2596.0</ele>
      </trkpt>
      <trkpt lat="44.30771" lon="6.82846">
        <time>2023-04-10T08:06:51+00:00</time>
        <ele>2596.0</ele>
      </trkpt>
      <trkpt lat="44.30771" lon="6.82846">
        <time>2023-04-10T08:06:52+00:00</time>
        <ele>2596.0</ele>
      </trkpt>
      <trkpt lat="44.30771" lon="6.82846">
        <time>2023-04-10T08:06:53+00:00</time>
        <ele>2596.0</ele>
      </trkpt>
      <trkpt lat="44.30771" lon="6.82846">
        <time>2023-04-10T08:06:54+00:00</time>
        <ele>2596.0</ele>
      </trkpt>
      <trkpt lat="44.30771" lon="6.82846">
        <time>2023-04-10T08:06:55+00:00</time>
        <ele>2596.0</ele>
      </trkpt>
      <trkpt lat="44.30771" lon="6.82846">
        <time>2023-04-10T08:06:56+00:00</time>
        <ele>2596.0</ele>
      </trkpt>
      <trkpt lat="44.30771" lon="6.82846">
        <time>2023-04-10T08:06:57+00:00</time>
        <ele>2596.0</ele>
      </trkpt>
      <trkpt lat="44.30771" lon="6.82846">
        <time>2023-04-10T08:06:58+00:00</time>
        <ele>2596.0</ele>
      </trkpt>
      <trkpt lat="44.30771" lon="6.82846">
        <time>2023-04-10T08:06:59+00:00</time>
        <ele>2596.0</ele>
      </trkpt>
      <trkpt lat="44.30771" lon="6.82846">
        <time>2023-04-10T08:07:00+00:00</time>
        <ele>2596.0</ele>
      </trkpt>
      <trkpt lat="44.30771" lon="6.82846">
        <time>2023-04-10T08:07:01+00:00</time>
        <ele>2596.0</ele>
      </trkpt>
      <trkpt lat="44.30771" lon="6.82846">
        <time>2023-04-10T08:07:02+00:00</time>
        <ele>2596.0</ele>
      </trkpt>
      <trkpt lat="44.30771" lon="6.82846">
        <time>2023-04-10T08:07:03+00:00</time>
        <ele>2596.0</ele>
      </trkpt>
      <trkpt lat="44.30771" lon="6.82846">
        <time>2023-04-10T08:07:04+00:00</time>
        <ele>2596.0</ele>
      </trkpt>
      <trkpt lat="44.30771" lon="6.82846">
        <time>2023-04-10T08:07:05+00:00</time>
        <ele>2596.0</ele>
      </trkpt>
      <trkpt lat="44.30771" lon="6.82846">
        <time>2023-04-10T08:07:06+00:00</time>
        <ele>2596.0</ele>
      </trkpt>
      <trkpt lat="44.30771" lon="6.82846">
        <time>2023-04-10T08:07:07+00:00</time>
        <ele>2596.0</ele>
      </trkpt>
      <trkpt lat="44.30771" lon="6.82846">
        <time>2023-04-10T08:07:08+00:00</time>
        <ele>2596.0</ele>
      </trkpt>
      <trkpt lat="44.30771" lon="6.82846">
        <time>2023-04-10T08:07:09+00:00</time>
        <ele>2596.0</ele>
      </trkpt>
      <trkpt lat="44.30771" lon="6.82846">
        <time>2023-04-10T08:07:10+00:00</time>
        <ele>2596.0</ele>
      </trkpt>
      <trkpt lat="44.30771" lon="6.82846">
        <time>2023-04-10T08:07:11+00:00</time>
        <ele>2596.0</ele>
      </trkpt>
      <trkpt lat="44.30771" lon="6.82846">
        <time>2023-04-10T08:07:12+00:00</time>
        <ele>2596.0</ele>
      </trkpt>
      <trkpt lat="44.30771" lon="6.82846">
        <time>2023-04-10T08:07:13+00:00</time>
        <ele>2596.0</ele>
      </trkpt>
      <trkpt lat="44.30771" lon="6.82846">
        <time>2023-04-10T08:07:14+00:00</time>
        <ele>2596.0</ele>
      </trkpt>
      <trkpt lat="44.30771" lon="6.82846">
        <time>2023-04-10T08:07:15+00:00</time>
        <ele>2596.0</ele>
      </trkpt>
      <trkpt lat="44.30771" lon="6.82846">
        <time>2023-04-10T08:07:16+00:00</time>
        <ele>2596.0</ele>
      </trkpt>
      <trkpt lat="44.30771" lon="6.82846">
        <time>2023-04-10T08:07:17+00:00</time>
        <ele>2596.0</ele>
      </trkpt>
      <trkpt lat="44.30771" lon="6.82846">
        <time>2023-04-10T08:07:18+00:00</time>
        <ele>2596.0</ele>
      </trkpt>
      <trkpt lat="44.30771" lon="6.82846">
        <time>2023-04-10T08:07:19+00:00</time>
        <ele>2596.0</ele>
      </trkpt>
      <trkpt lat="44.30771" lon="6.82846">
        <time>2023-04-10T08:07:20+00:00</time>
        <ele>2596.0</ele>
      </trkpt>
      <trkpt lat="44.30771" lon="6.82846">
        <time>2023-04-10T08:07:21+00:00</time>
        <ele>2596.0</ele>
      </trkpt>
      <trkpt lat="44.30771" lon="6.82846">
        <time>2023-04-10T08:07:22+00:00</time>
        <ele>2596.0</ele>
      </trkpt>
      <trkpt lat="44.30771" lon="6.82846">
        <time>2023-04-10T08:07:23+00:00</time>
        <ele>2596.0</ele>
      </trkpt>
      <trkpt lat="44.30771" lon="6.82846">
        <time>2023-04-10T08:07:24+00:00</time>
        <ele>2596.0</ele>
      </trkpt>
      <trkpt lat="44.30771" lon="6.82846">
        <time>2023-04-10T08:07:25+00:00</time>
        <ele>2596.0</ele>
      </trkpt>
      <trkpt lat="44.30771" lon="6.82846">
        <time>2023-04-10T08:07:26+00:00</time>
        <ele>2596.0</ele>
      </trkpt>
      <trkpt lat="44.30771" lon="6.82846">
        <time>2023-04-10T08:07:27+00:00</time>
        <ele>2596.0</ele>
      </trkpt>
      <trkpt lat="44.30771" lon="6.82846">
        <time>2023-04-10T08:07:28+00:00</time>
        <ele>2596.0</ele>
      </trkpt>
      <trkpt lat="44.30771" lon="6.82846">
        <time>2023-04-10T08:07:29+00:00</time>
        <ele>2596.0</ele>
      </trkpt>
      <trkpt lat="44.30771" lon="6.82846">
        <time>2023-04-10T08:07:30+00:00</time>
        <ele>2596.0</ele>
      </trkpt>
      <trkpt lat="44.30771" lon="6.82846">
        <time>2023-04-10T08:07:31+00:00</time>
        <ele>2596.0</ele>
      </trkpt>
      <trkpt lat="44.30771" lon="6.82846">
        <time>2023-04-10T08:07:32+00:00</time>
        <ele>2596.0</ele>
      </trkpt>
      <trkpt lat="44.30771" lon="6.82846">
        <time>2023-04-10T08:07:33+00:00</time>
        <ele>2596.0</ele>
      </trkpt>
      <trkpt lat="44.30771" lon="6.82846">
        <time>2023-04-10T08:07:34+00:00</time>
        <ele>2596.0</ele>
      </trkpt>
      <trkpt lat="44.30771" lon="6.82846">
        <time>2023-04-10T08:07:35+00:00</time>
        <ele>2596.0</ele>
      </trkpt>
      <trkpt lat="44.30771" lon="6.82846">
        <time>2023-04-10T08:07:36+00:00</time>
        <ele>2596.0</ele>
      </trkpt>
      <trkpt lat="44.30771" lon="6.82846">
        <time>2023-04-10T08:07:37+00:00</time>
        <ele>2596.0</ele>
      </trkpt>
      <trkpt lat="44.3077" lon="6.82846">
        <time>2023-04-10T08:07:38+00:00</time>
        <ele>2596.0</ele>
      </trkpt>
      <trkpt lat="44.3077" lon="6.82846">
        <time>2023-04-10T08:07:39+00:00</time>
        <ele>2596.0</ele>
      </trkpt>
      <trkpt lat="44.3077" lon="6.82846">
        <time>2023-04-10T08:07:40+00:00</time>
        <ele>2596.0</ele>
      </trkpt>
      <trkpt lat="44.3077" lon="6.82846">
        <time>2023-04-10T08:07:41+00:00</time>
        <ele>2596.0</ele>
      </trkpt>
      <trkpt lat="44.3077" lon="6.82846">
        <time>2023-04-10T08:07:42+00:00</time>
        <ele>2596.0</ele>
      </trkpt>
      <trkpt lat="44.3077" lon="6.82846">
        <time>2023-04-10T08:07:43+00:00</time>
        <ele>2596.0</ele>
      </trkpt>
      <trkpt lat="44.3077" lon="6.82846">
        <time>2023-04-10T08:07:44+00:00</time>
        <ele>2596.0</ele>
      </trkpt>
      <trkpt lat="44.3077" lon="6.82846">
        <time>2023-04-10T08:07:45+00:00</time>
        <ele>2596.0</ele>
      </trkpt>
      <trkpt lat="44.3077" lon="6.82846">
        <time>2023-04-10T08:07:46+00:00</time>
        <ele>2596.0</ele>
      </trkpt>
      <trkpt lat="44.3077" lon="6.82846">
        <time>2023-04-10T08:07:47+00:00</time>
        <ele>2596.0</ele>
      </trkpt>
      <trkpt lat="44.3077" lon="6.82846">
        <time>2023-04-10T08:07:48+00:00</time>
        <ele>2596.0</ele>
      </trkpt>
      <trkpt lat="44.3077" lon="6.82846">
        <time>2023-04-10T08:07:49+00:00</time>
        <ele>2596.0</ele>
      </trkpt>
      <trkpt lat="44.3077" lon="6.82846">
        <time>2023-04-10T08:07:50+00:00</time>
        <ele>2596.0</ele>
      </trkpt>
      <trkpt lat="44.3077" lon="6.82846">
        <time>2023-04-10T08:07:51+00:00</time>
        <ele>2596.0</ele>
      </trkpt>
      <trkpt lat="44.3077" lon="6.82846">
        <time>2023-04-10T08:07:52+00:00</time>
        <ele>2596.0</ele>
      </trkpt>
      <trkpt lat="44.3077" lon="6.82846">
        <time>2023-04-10T08:07:53+00:00</time>
        <ele>2596.0</ele>
      </trkpt>
      <trkpt lat="44.3077" lon="6.82846">
        <time>2023-04-10T08:07:54+00:00</time>
        <ele>2596.0</ele>
      </trkpt>
      <trkpt lat="44.3077" lon="6.82846">
        <time>2023-04-10T08:07:55+00:00</time>
        <ele>2596.0</ele>
      </trkpt>
      <trkpt lat="44.3077" lon="6.82846">
        <time>2023-04-10T08:07:56+00:00</time>
        <ele>2596.0</ele>
      </trkpt>
      <trkpt lat="44.3077" lon="6.82846">
        <time>2023-04-10T08:07:57+00:00</time>
        <ele>2596.0</ele>
      </trkpt>
      <trkpt lat="44.3077" lon="6.82846">
        <time>2023-04-10T08:07:58+00:00</time>
        <ele>2596.0</ele>
      </trkpt>
      <trkpt lat="44.3077" lon="6.82846">
        <time>2023-04-10T08:07:59+00:00</time>
        <ele>2596.0</ele>
      </trkpt>
      <trkpt lat="44.3077" lon="6.82846">
        <time>2023-04-10T08:08:00+00:00</time>
        <ele>2596.0</ele>
      </trkpt>
      <trkpt lat="44.3077" lon="6.82846">
        <time>2023-04-10T08:08:01+00:00</time>
        <ele>2596.0</ele>
      </trkpt>
      <trkpt lat="44.3077" lon="6.82846">
        <time>2023-04-10T08:08:02+00:00</time>
        <ele>2596.0</ele>
      </trkpt>
      <trkpt lat="44.3077" lon="6.82846">
        <time>2023-04-10T08:08:03+00:00</time>
        <ele>2596.0</ele>
      </trkpt>
      <trkpt lat="44.3077" lon="6.82846">
        <time>2023-04-10T08:08:04+00:00</time>
        <ele>2596.0</ele>
      </trkpt>
      <trkpt lat="44.3077" lon="6.82846">
        <time>2023-04-10T08:08:05+00:00</time>
        <ele>2596.0</ele>
      </trkpt>
      <trkpt lat="44.3077" lon="6.82846">
        <time>2023-04-10T08:08:06+00:00</time>
        <ele>2596.0</ele>
      </trkpt>
      <trkpt lat="44.3077" lon="6.82846">
        <time>2023-04-10T08:08:07+00:00</time>
        <ele>2596.0</ele>
      </trkpt>
      <trkpt lat="44.3077" lon="6.82846">
        <time>2023-04-10T08:08:08+00:00</time>
        <ele>2596.0</ele>
      </trkpt>
      <trkpt lat="44.3077" lon="6.82846">
        <time>2023-04-10T08:08:09+00:00</time>
        <ele>2596.0</ele>
      </trkpt>
      <trkpt lat="44.3077" lon="6.82846">
        <time>2023-04-10T08:08:10+00:00</time>
        <ele>2596.0</ele>
      </trkpt>
      <trkpt lat="44.3077" lon="6.82846">
        <time>2023-04-10T08:08:11+00:00</time>
        <ele>2596.0</ele>
      </trkpt>
      <trkpt lat="44.3077" lon="6.82846">
        <time>2023-04-10T08:08:12+00:00</time>
        <ele>2596.0</ele>
      </trkpt>
      <trkpt lat="44.3077" lon="6.82846">
        <time>2023-04-10T08:08:13+00:00</time>
        <ele>2596.0</ele>
      </trkpt>
      <trkpt lat="44.3077" lon="6.82846">
        <time>2023-04-10T08:08:14+00:00</time>
        <ele>2596.0</ele>
      </trkpt>
      <trkpt lat="44.3077" lon="6.82846">
        <time>2023-04-10T08:08:15+00:00</time>
        <ele>2596.0</ele>
      </trkpt>
      <trkpt lat="44.3077" lon="6.82846">
        <time>2023-04-10T08:08:16+00:00</time>
        <ele>2596.0</ele>
      </trkpt>
      <trkpt lat="44.3077" lon="6.82846">
        <time>2023-04-10T08:08:17+00:00</time>
        <ele>2596.0</ele>
      </trkpt>
      <trkpt lat="44.3077" lon="6.82846">
        <time>2023-04-10T08:08:18+00:00</time>
        <ele>2596.0</ele>
      </trkpt>
      <trkpt lat="44.3077" lon="6.82846">
        <time>2023-04-10T08:08:19+00:00</time>
        <ele>2596.0</ele>
      </trkpt>
      <trkpt lat="44.3077" lon="6.82846">
        <time>2023-04-10T08:08:20+00:00</time>
        <ele>2596.0</ele>
      </trkpt>
      <trkpt lat="44.3077" lon="6.82846">
        <time>2023-04-10T08:08:21+00:00</time>
        <ele>2596.0</ele>
      </trkpt>
      <trkpt lat="44.3077" lon="6.82846">
        <time>2023-04-10T08:08:22+00:00</time>
        <ele>2596.0</ele>
      </trkpt>
      <trkpt lat="44.3077" lon="6.82846">
        <time>2023-04-10T08:08:23+00:00</time>
        <ele>2596.0</ele>
      </trkpt>
      <trkpt lat="44.3077" lon="6.82846">
        <time>2023-04-10T08:08:24+00:00</time>
        <ele>2596.0</ele>
      </trkpt>
      <trkpt lat="44.3077" lon="6.82846">
        <time>2023-04-10T08:08:25+00:00</time>
        <ele>2596.0</ele>
      </trkpt>
      <trkpt lat="44.3077" lon="6.82846">
        <time>2023-04-10T08:08:26+00:00</time>
        <ele>2596.0</ele>
      </trkpt>
      <trkpt lat="44.3077" lon="6.82846">
        <time>2023-04-10T08:08:27+00:00</time>
        <ele>2596.0</ele>
      </trkpt>
      <trkpt lat="44.3077" lon="6.82846">
        <time>2023-04-10T08:08:28+00:00</time>
        <ele>2596.0</ele>
      </trkpt>
      <trkpt lat="44.3077" lon="6.82846">
        <time>2023-04-10T08:08:29+00:00</time>
        <ele>2596.0</ele>
      </trkpt>
      <trkpt lat="44.3077" lon="6.82846">
        <time>2023-04-10T08:08:30+00:00</time>
        <ele>2596.0</ele>
      </trkpt>
      <trkpt lat="44.3077" lon="6.82846">
        <time>2023-04-10T08:08:31+00:00</time>
        <ele>2596.0</ele>
      </trkpt>
      <trkpt lat="44.3077" lon="6.82846">
        <time>2023-04-10T08:08:32+00:00</time>
        <ele>2596.0</ele>
      </trkpt>
      <trkpt lat="44.3077" lon="6.82846">
        <time>2023-04-10T08:08:33+00:00</time>
        <ele>2596.0</ele>
      </trkpt>
      <trkpt lat="44.3077" lon="6.82846">
        <time>2023-04-10T08:08:34+00:00</time>
        <ele>2596.0</ele>
      </trkpt>
      <trkpt lat="44.3077" lon="6.82846">
        <time>2023-04-10T08:08:35+00:00</time>
        <ele>2596.0</ele>
      </trkpt>
      <trkpt lat="44.3077" lon="6.82846">
        <time>2023-04-10T08:08:36+00:00</time>
        <ele>2596.0</ele>
      </trkpt>
      <trkpt lat="44.3077" lon="6.82846">
        <time>2023-04-10T08:08:37+00:00</time>
        <ele>2596.0</ele>
      </trkpt>
      <trkpt lat="44.3077" lon="6.82846">
        <time>2023-04-10T08:08:38+00:00</time>
        <ele>2596.0</ele>
      </trkpt>
      <trkpt lat="44.3077" lon="6.82846">
        <time>2023-04-10T08:08:39+00:00</time>
        <ele>2596.0</ele>
      </trkpt>
      <trkpt lat="44.3077" lon="6.82846">
        <time>2023-04-10T08:08:40+00:00</time>
        <ele>2596.0</ele>
      </trkpt>
      <trkpt lat="44.3077" lon="6.82846">
        <time>2023-04-10T08:08:41+00:00</time>
        <ele>2596.0</ele>
      </trkpt>
      <trkpt lat="44.3077" lon="6.82846">
        <time>2023-04-10T08:08:42+00:00</time>
        <ele>2596.0</ele>
      </trkpt>
      <trkpt lat="44.3077" lon="6.82846">
        <time>2023-04-10T08:08:43+00:00</time>
        <ele>2596.0</ele>
      </trkpt>
      <trkpt lat="44.3077" lon="6.82846">
        <time>2023-04-10T08:08:44+00:00</time>
        <ele>2596.0</ele>
      </trkpt>
      <trkpt lat="44.3077" lon="6.82846">
        <time>2023-04-10T08:08:45+00:00</time>
        <ele>2596.0</ele>
      </trkpt>
      <trkpt lat="44.3077" lon="6.82846">
        <time>2023-04-10T08:08:46+00:00</time>
        <ele>2596.0</ele>
      </trkpt>
      <trkpt lat="44.3077" lon="6.82846">
        <time>2023-04-10T08:08:47+00:00</time>
        <ele>2596.0</ele>
      </trkpt>
      <trkpt lat="44.3077" lon="6.82846">
        <time>2023-04-10T08:08:48+00:00</time>
        <ele>2596.0</ele>
      </trkpt>
      <trkpt lat="44.3077" lon="6.82846">
        <time>2023-04-10T08:08:49+00:00</time>
        <ele>2596.0</ele>
      </trkpt>
      <trkpt lat="44.3077" lon="6.82846">
        <time>2023-04-10T08:08:50+00:00</time>
        <ele>2596.0</ele>
      </trkpt>
      <trkpt lat="44.3077" lon="6.82846">
        <time>2023-04-10T08:08:51+00:00</time>
        <ele>2596.0</ele>
      </trkpt>
      <trkpt lat="44.3077" lon="6.82846">
        <time>2023-04-10T08:08:52+00:00</time>
        <ele>2596.0</ele>
      </trkpt>
      <trkpt lat="44.3077" lon="6.82846">
        <time>2023-04-10T08:08:53+00:00</time>
        <ele>2596.0</ele>
      </trkpt>
      <trkpt lat="44.3077" lon="6.82846">
        <time>2023-04-10T08:08:54+00:00</time>
        <ele>2596.0</ele>
      </trkpt>
      <trkpt lat="44.3077" lon="6.82846">
        <time>2023-04-10T08:08:55+00:00</time>
        <ele>2596.0</ele>
      </trkpt>
      <trkpt lat="44.3077" lon="6.82846">
        <time>2023-04-10T08:08:56+00:00</time>
        <ele>2596.0</ele>
      </trkpt>
      <trkpt lat="44.3077" lon="6.82846">
        <time>2023-04-10T08:08:57+00:00</time>
        <ele>2596.0</ele>
      </trkpt>
      <trkpt lat="44.3077" lon="6.82846">
        <time>2023-04-10T08:08:58+00:00</time>
        <ele>2596.0</ele>
      </trkpt>
      <trkpt lat="44.3077" lon="6.82846">
        <time>2023-04-10T08:08:59+00:00</time>
        <ele>2596.0</ele>
      </trkpt>
      <trkpt lat="44.3077" lon="6.82846">
        <time>2023-04-10T08:09:00+00:00</time>
        <ele>2596.0</ele>
      </trkpt>
      <trkpt lat="44.3077" lon="6.82846">
        <time>2023-04-10T08:09:01+00:00</time>
        <ele>2596.0</ele>
      </trkpt>
      <trkpt lat="44.3077" lon="6.82846">
        <time>2023-04-10T08:09:02+00:00</time>
        <ele>2596.0</ele>
      </trkpt>
      <trkpt lat="44.3077" lon="6.82846">
        <time>2023-04-10T08:09:03+00:00</time>
        <ele>2596.0</ele>
      </trkpt>
      <trkpt lat="44.3077" lon="6.82846">
        <time>2023-04-10T08:09:04+00:00</time>
        <ele>2596.0</ele>
      </trkpt>
      <trkpt lat="44.3077" lon="6.82846">
        <time>2023-04-10T08:09:05+00:00</time>
        <ele>2596.0</ele>
      </trkpt>
      <trkpt lat="44.3077" lon="6.82846">
        <time>2023-04-10T08:09:06+00:00</time>
        <ele>2596.0</ele>
      </trkpt>
      <trkpt lat="44.3077" lon="6.82846">
        <time>2023-04-10T08:09:07+00:00</time>
        <ele>2596.0</ele>
      </trkpt>
      <trkpt lat="44.3077" lon="6.82846">
        <time>2023-04-10T08:09:08+00:00</time>
        <ele>2596.0</ele>
      </trkpt>
      <trkpt lat="44.3077" lon="6.82846">
        <time>2023-04-10T08:09:09+00:00</time>
        <ele>2596.0</ele>
      </trkpt>
      <trkpt lat="44.3077" lon="6.82846">
        <time>2023-04-10T08:09:10+00:00</time>
        <ele>2596.0</ele>
      </trkpt>
      <trkpt lat="44.3077" lon="6.82846">
        <time>2023-04-10T08:09:11+00:00</time>
        <ele>2596.0</ele>
      </trkpt>
      <trkpt lat="44.3077" lon="6.82846">
        <time>2023-04-10T08:09:12+00:00</time>
        <ele>2596.0</ele>
      </trkpt>
      <trkpt lat="44.30769" lon="6.82846">
        <time>2023-04-10T08:09:13+00:00</time>
        <ele>2596.0</ele>
      </trkpt>
      <trkpt lat="44.30769" lon="6.82846">
        <time>2023-04-10T08:09:14+00:00</time>
        <ele>2596.0</ele>
      </trkpt>
      <trkpt lat="44.30769" lon="6.82846">
        <time>2023-04-10T08:09:15+00:00</time>
        <ele>2596.0</ele>
      </trkpt>
      <trkpt lat="44.30769" lon="6.82846">
        <time>2023-04-10T08:09:16+00:00</time>
        <ele>2596.0</ele>
      </trkpt>
      <trkpt lat="44.30769" lon="6.82846">
        <time>2023-04-10T08:09:17+00:00</time>
        <ele>2596.0</ele>
      </trkpt>
      <trkpt lat="44.30769" lon="6.82846">
        <time>2023-04-10T08:09:18+00:00</time>
        <ele>2596.0</ele>
      </trkpt>
      <trkpt lat="44.30769" lon="6.82846">
        <time>2023-04-10T08:09:19+00:00</time>
        <ele>2596.0</ele>
      </trkpt>
      <trkpt lat="44.30769" lon="6.82846">
        <time>2023-04-10T08:09:20+00:00</time>
        <ele>2596.0</ele>
      </trkpt>
      <trkpt lat="44.30769" lon="6.82846">
        <time>2023-04-10T08:09:21+00:00</time>
        <ele>2596.0</ele>
      </trkpt>
      <trkpt lat="44.30769" lon="6.82846">
        <time>2023-04-10T08:09:22+00:00</time>
        <ele>2596.0</ele>
      </trkpt>
      <trkpt lat="44.30769" lon="6.82846">
        <time>2023-04-10T08:09:23+00:00</time>
        <ele>2596.0</ele>
      </trkpt>
      <trkpt lat="44.30769" lon="6.82846">
        <time>2023-04-10T08:09:24+00:00</time>
        <ele>2596.0</ele>
      </trkpt>
      <trkpt lat="44.30769" lon="6.82846">
        <time>2023-04-10T08:09:25+00:00</time>
        <ele>2596.0</ele>
      </trkpt>
      <trkpt lat="44.30769" lon="6.82846">
        <time>2023-04-10T08:09:26+00:00</time>
        <ele>2596.0</ele>
      </trkpt>
      <trkpt lat="44.30769" lon="6.82846">
        <time>2023-04-10T08:09:27+00:00</time>
        <ele>2596.0</ele>
      </trkpt>
      <trkpt lat="44.30769" lon="6.82846">
        <time>2023-04-10T08:09:28+00:00</time>
        <ele>2596.0</ele>
      </trkpt>
      <trkpt lat="44.30769" lon="6.82846">
        <time>2023-04-10T08:09:29+00:00</time>
        <ele>2596.0</ele>
      </trkpt>
      <trkpt lat="44.30769" lon="6.82846">
        <time>2023-04-10T08:09:30+00:00</time>
        <ele>2596.0</ele>
      </trkpt>
      <trkpt lat="44.30769" lon="6.82846">
        <time>2023-04-10T08:09:31+00:00</time>
        <ele>2596.0</ele>
      </trkpt>
      <trkpt lat="44.30769" lon="6.82846">
        <time>2023-04-10T08:09:32+00:00</time>
        <ele>2596.0</ele>
      </trkpt>
      <trkpt lat="44.30769" lon="6.82846">
        <time>2023-04-10T08:09:33+00:00</time>
        <ele>2596.0</ele>
      </trkpt>
      <trkpt lat="44.30769" lon="6.82846">
        <time>2023-04-10T08:09:34+00:00</time>
        <ele>2596.0</ele>
      </trkpt>
      <trkpt lat="44.30769" lon="6.82846">
        <time>2023-04-10T08:09:35+00:00</time>
        <ele>2596.0</ele>
      </trkpt>
      <trkpt lat="44.30769" lon="6.82846">
        <time>2023-04-10T08:09:36+00:00</time>
        <ele>2596.0</ele>
      </trkpt>
      <trkpt lat="44.30769" lon="6.82846">
        <time>2023-04-10T08:09:37+00:00</time>
        <ele>2596.0</ele>
      </trkpt>
      <trkpt lat="44.30769" lon="6.82846">
        <time>2023-04-10T08:09:38+00:00</time>
        <ele>2596.0</ele>
      </trkpt>
      <trkpt lat="44.30769" lon="6.82846">
        <time>2023-04-10T08:09:39+00:00</time>
        <ele>2596.0</ele>
      </trkpt>
      <trkpt lat="44.30769" lon="6.82846">
        <time>2023-04-10T08:09:40+00:00</time>
        <ele>2596.0</ele>
      </trkpt>
      <trkpt lat="44.30769" lon="6.82846">
        <time>2023-04-10T08:09:41+00:00</time>
        <ele>2596.0</ele>
      </trkpt>
      <trkpt lat="44.30769" lon="6.82846">
        <time>2023-04-10T08:09:42+00:00</time>
        <ele>2596.0</ele>
      </trkpt>
      <trkpt lat="44.30769" lon="6.82846">
        <time>2023-04-10T08:09:43+00:00</time>
        <ele>2596.0</ele>
      </trkpt>
      <trkpt lat="44.30769" lon="6.82846">
        <time>2023-04-10T08:09:44+00:00</time>
        <ele>2596.0</ele>
      </trkpt>
      <trkpt lat="44.30769" lon="6.82846">
        <time>2023-04-10T08:09:45+00:00</time>
        <ele>2596.0</ele>
      </trkpt>
      <trkpt lat="44.30769" lon="6.82846">
        <time>2023-04-10T08:09:46+00:00</time>
        <ele>2596.0</ele>
      </trkpt>
      <trkpt lat="44.30769" lon="6.82846">
        <time>2023-04-10T08:09:47+00:00</time>
        <ele>2596.0</ele>
      </trkpt>
      <trkpt lat="44.30769" lon="6.82846">
        <time>2023-04-10T08:09:48+00:00</time>
        <ele>2596.0</ele>
      </trkpt>
      <trkpt lat="44.30769" lon="6.82846">
        <time>2023-04-10T08:09:49+00:00</time>
        <ele>2596.0</ele>
      </trkpt>
      <trkpt lat="44.30769" lon="6.82846">
        <time>2023-04-10T08:09:50+00:00</time>
        <ele>2596.0</ele>
      </trkpt>
      <trkpt lat="44.30769" lon="6.82846">
        <time>2023-04-10T08:09:51+00:00</time>
        <ele>2596.0</ele>
      </trkpt>
      <trkpt lat="44.30769" lon="6.82846">
        <time>2023-04-10T08:09:52+00:00</time>
        <ele>2596.0</ele>
      </trkpt>
      <trkpt lat="44.30769" lon="6.82846">
        <time>2023-04-10T08:09:53+00:00</time>
        <ele>2596.0</ele>
      </trkpt>
      <trkpt lat="44.30769" lon="6.82846">
        <time>2023-04-10T08:09:54+00:00</time>
        <ele>2596.0</ele>
      </trkpt>
      <trkpt lat="44.30769" lon="6.82846">
        <time>2023-04-10T08:09:55+00:00</time>
        <ele>2596.0</ele>
      </trkpt>
      <trkpt lat="44.30769" lon="6.82846">
        <time>2023-04-10T08:09:56+00:00</time>
        <ele>2596.0</ele>
      </trkpt>
      <trkpt lat="44.30769" lon="6.82846">
        <time>2023-04-10T08:09:57+00:00</time>
        <ele>2596.0</ele>
      </trkpt>
      <trkpt lat="44.30769" lon="6.82846">
        <time>2023-04-10T08:09:58+00:00</time>
        <ele>2596.0</ele>
      </trkpt>
      <trkpt lat="44.30769" lon="6.82846">
        <time>2023-04-10T08:09:59+00:00</time>
        <ele>2596.0</ele>
      </trkpt>
      <trkpt lat="44.30769" lon="6.82846">
        <time>2023-04-10T08:10:02+00:00</time>
        <ele>2596.0</ele>
      </trkpt>
      <trkpt lat="44.30769" lon="6.82846">
        <time>2023-04-10T08:10:03+00:00</time>
        <ele>2596.0</ele>
      </trkpt>
      <trkpt lat="44.30769" lon="6.82846">
        <time>2023-04-10T08:10:04+00:00</time>
        <ele>2596.0</ele>
      </trkpt>
      <trkpt lat="44.30769" lon="6.82846">
        <time>2023-04-10T08:10:05+00:00</time>
        <ele>2596.0</ele>
      </trkpt>
      <trkpt lat="44.30769" lon="6.82846">
        <time>2023-04-10T08:10:06+00:00</time>
        <ele>2596.0</ele>
      </trkpt>
      <trkpt lat="44.30769" lon="6.82846">
        <time>2023-04-10T08:10:07+00:00</time>
        <ele>2596.0</ele>
      </trkpt>
      <trkpt lat="44.30769" lon="6.82846">
        <time>2023-04-10T08:10:08+00:00</time>
        <ele>2596.0</ele>
      </trkpt>
      <trkpt lat="44.30769" lon="6.82846">
        <time>2023-04-10T08:10:09+00:00</time>
        <ele>2596.0</ele>
      </trkpt>
      <trkpt lat="44.30769" lon="6.82846">
        <time>2023-04-10T08:10:10+00:00</time>
        <ele>2596.0</ele>
      </trkpt>
      <trkpt lat="44.30769" lon="6.82846">
        <time>2023-04-10T08:10:11+00:00</time>
        <ele>2596.0</ele>
      </trkpt>
      <trkpt lat="44.30769" lon="6.82846">
        <time>2023-04-10T08:10:12+00:00</time>
        <ele>2596.0</ele>
      </trkpt>
      <trkpt lat="44.30769" lon="6.82846">
        <time>2023-04-10T08:10:13+00:00</time>
        <ele>2596.0</ele>
      </trkpt>
      <trkpt lat="44.30769" lon="6.82846">
        <time>2023-04-10T08:10:14+00:00</time>
        <ele>2596.0</ele>
      </trkpt>
      <trkpt lat="44.30769" lon="6.82846">
        <time>2023-04-10T08:10:15+00:00</time>
        <ele>2596.0</ele>
      </trkpt>
      <trkpt lat="44.30769" lon="6.82846">
        <time>2023-04-10T08:10:16+00:00</time>
        <ele>2596.0</ele>
      </trkpt>
      <trkpt lat="44.30769" lon="6.82846">
        <time>2023-04-10T08:10:19+00:00</time>
        <ele>2596.0</ele>
      </trkpt>
      <trkpt lat="44.30769" lon="6.82846">
        <time>2023-04-10T08:10:20+00:00</time>
        <ele>2596.0</ele>
      </trkpt>
      <trkpt lat="44.30769" lon="6.82846">
        <time>2023-04-10T08:10:21+00:00</time>
        <ele>2596.0</ele>
      </trkpt>
      <trkpt lat="44.30769" lon="6.82846">
        <time>2023-04-10T08:10:22+00:00</time>
        <ele>2596.0</ele>
      </trkpt>
      <trkpt lat="44.30769" lon="6.82846">
        <time>2023-04-10T08:10:23+00:00</time>
        <ele>2596.0</ele>
      </trkpt>
      <trkpt lat="44.30769" lon="6.82846">
        <time>2023-04-10T08:10:24+00:00</time>
        <ele>2596.0</ele>
      </trkpt>
      <trkpt lat="44.30769" lon="6.82846">
        <time>2023-04-10T08:10:25+00:00</time>
        <ele>2596.0</ele>
      </trkpt>
      <trkpt lat="44.30769" lon="6.82846">
        <time>2023-04-10T08:10:26+00:00</time>
        <ele>2596.0</ele>
      </trkpt>
      <trkpt lat="44.30769" lon="6.82846">
        <time>2023-04-10T08:10:27+00:00</time>
        <ele>2596.0</ele>
      </trkpt>
      <trkpt lat="44.30769" lon="6.82846">
        <time>2023-04-10T08:10:28+00:00</time>
        <ele>2596.0</ele>
      </trkpt>
      <trkpt lat="44.30769" lon="6.82846">
        <time>2023-04-10T08:10:29+00:00</time>
        <ele>2596.0</ele>
      </trkpt>
      <trkpt lat="44.30769" lon="6.82846">
        <time>2023-04-10T08:10:30+00:00</time>
        <ele>2596.0</ele>
      </trkpt>
      <trkpt lat="44.30769" lon="6.82846">
        <time>2023-04-10T08:10:31+00:00</time>
        <ele>2596.0</ele>
      </trkpt>
      <trkpt lat="44.30769" lon="6.82846">
        <time>2023-04-10T08:10:32+00:00</time>
        <ele>2596.0</ele>
      </trkpt>
      <trkpt lat="44.30769" lon="6.82846">
        <time>2023-04-10T08:10:33+00:00</time>
        <ele>2596.0</ele>
      </trkpt>
      <trkpt lat="44.30769" lon="6.82846">
        <time>2023-04-10T08:10:34+00:00</time>
        <ele>2596.0</ele>
      </trkpt>
      <trkpt lat="44.30769" lon="6.82846">
        <time>2023-04-10T08:10:35+00:00</time>
        <ele>2596.0</ele>
      </trkpt>
      <trkpt lat="44.30769" lon="6.82846">
        <time>2023-04-10T08:10:36+00:00</time>
        <ele>2596.0</ele>
      </trkpt>
      <trkpt lat="44.30769" lon="6.82846">
        <time>2023-04-10T08:10:37+00:00</time>
        <ele>2596.0</ele>
      </trkpt>
      <trkpt lat="44.30769" lon="6.82846">
        <time>2023-04-10T08:10:38+00:00</time>
        <ele>2596.0</ele>
      </trkpt>
      <trkpt lat="44.30769" lon="6.82846">
        <time>2023-04-10T08:10:39+00:00</time>
        <ele>2596.0</ele>
      </trkpt>
      <trkpt lat="44.30769" lon="6.82846">
        <time>2023-04-10T08:10:40+00:00</time>
        <ele>2596.0</ele>
      </trkpt>
      <trkpt lat="44.30769" lon="6.82846">
        <time>2023-04-10T08:10:41+00:00</time>
        <ele>2596.0</ele>
      </trkpt>
      <trkpt lat="44.30769" lon="6.82846">
        <time>2023-04-10T08:10:42+00:00</time>
        <ele>2596.0</ele>
      </trkpt>
      <trkpt lat="44.30769" lon="6.82846">
        <time>2023-04-10T08:10:43+00:00</time>
        <ele>2596.0</ele>
      </trkpt>
      <trkpt lat="44.30769" lon="6.82846">
        <time>2023-04-10T08:10:44+00:00</time>
        <ele>2596.0</ele>
      </trkpt>
      <trkpt lat="44.30769" lon="6.82846">
        <time>2023-04-10T08:10:45+00:00</time>
        <ele>2596.0</ele>
      </trkpt>
      <trkpt lat="44.30769" lon="6.82846">
        <time>2023-04-10T08:10:46+00:00</time>
        <ele>2596.0</ele>
      </trkpt>
      <trkpt lat="44.30769" lon="6.82846">
        <time>2023-04-10T08:10:47+00:00</time>
        <ele>2596.0</ele>
      </trkpt>
      <trkpt lat="44.30769" lon="6.82846">
        <time>2023-04-10T08:10:48+00:00</time>
        <ele>2596.0</ele>
      </trkpt>
      <trkpt lat="44.30769" lon="6.82846">
        <time>2023-04-10T08:10:49+00:00</time>
        <ele>2596.0</ele>
      </trkpt>
      <trkpt lat="44.30769" lon="6.82846">
        <time>2023-04-10T08:10:50+00:00</time>
        <ele>2596.0</ele>
      </trkpt>
      <trkpt lat="44.30768" lon="6.82846">
        <time>2023-04-10T08:10:51+00:00</time>
        <ele>2596.0</ele>
      </trkpt>
      <trkpt lat="44.30768" lon="6.82846">
        <time>2023-04-10T08:10:52+00:00</time>
        <ele>2596.0</ele>
      </trkpt>
      <trkpt lat="44.30768" lon="6.82846">
        <time>2023-04-10T08:10:53+00:00</time>
        <ele>2596.0</ele>
      </trkpt>
      <trkpt lat="44.30768" lon="6.82846">
        <time>2023-04-10T08:10:54+00:00</time>
        <ele>2596.0</ele>
      </trkpt>
      <trkpt lat="44.30768" lon="6.82846">
        <time>2023-04-10T08:10:55+00:00</time>
        <ele>2596.0</ele>
      </trkpt>
      <trkpt lat="44.30768" lon="6.82846">
        <time>2023-04-10T08:10:56+00:00</time>
        <ele>2596.0</ele>
      </trkpt>
      <trkpt lat="44.30768" lon="6.82846">
        <time>2023-04-10T08:10:57+00:00</time>
        <ele>2596.0</ele>
      </trkpt>
      <trkpt lat="44.30768" lon="6.82846">
        <time>2023-04-10T08:10:58+00:00</time>
        <ele>2596.0</ele>
      </trkpt>
      <trkpt lat="44.30768" lon="6.82846">
        <time>2023-04-10T08:10:59+00:00</time>
        <ele>2596.0</ele>
      </trkpt>
      <trkpt lat="44.30768" lon="6.82846">
        <time>2023-04-10T08:11:00+00:00</time>
        <ele>2596.0</ele>
      </trkpt>
      <trkpt lat="44.30768" lon="6.82846">
        <time>2023-04-10T08:11:01+00:00</time>
        <ele>2596.0</ele>
      </trkpt>
      <trkpt lat="44.30768" lon="6.82846">
        <time>2023-04-10T08:11:02+00:00</time>
        <ele>2596.0</ele>
      </trkpt>
      <trkpt lat="44.30768" lon="6.82846">
        <time>2023-04-10T08:11:03+00:00</time>
        <ele>2596.0</ele>
      </trkpt>
      <trkpt lat="44.30768" lon="6.82846">
        <time>2023-04-10T08:11:04+00:00</time>
        <ele>2596.0</ele>
      </trkpt>
      <trkpt lat="44.30768" lon="6.82846">
        <time>2023-04-10T08:11:05+00:00</time>
        <ele>2596.0</ele>
      </trkpt>
      <trkpt lat="44.30768" lon="6.82846">
        <time>2023-04-10T08:11:06+00:00</time>
        <ele>2596.0</ele>
      </trkpt>
      <trkpt lat="44.30768" lon="6.82846">
        <time>2023-04-10T08:11:07+00:00</time>
        <ele>2596.0</ele>
      </trkpt>
      <trkpt lat="44.30768" lon="6.82846">
        <time>2023-04-10T08:11:08+00:00</time>
        <ele>2596.0</ele>
      </trkpt>
      <trkpt lat="44.30768" lon="6.82846">
        <time>2023-04-10T08:11:09+00:00</time>
        <ele>2596.0</ele>
      </trkpt>
      <trkpt lat="44.30768" lon="6.82846">
        <time>2023-04-10T08:11:10+00:00</time>
        <ele>2596.0</ele>
      </trkpt>
      <trkpt lat="44.30768" lon="6.82846">
        <time>2023-04-10T08:11:11+00:00</time>
        <ele>2596.0</ele>
      </trkpt>
      <trkpt lat="44.30768" lon="6.82846">
        <time>2023-04-10T08:11:12+00:00</time>
        <ele>2596.0</ele>
      </trkpt>
      <trkpt lat="44.30768" lon="6.82846">
        <time>2023-04-10T08:11:13+00:00</time>
        <ele>2596.0</ele>
      </trkpt>
      <trkpt lat="44.30768" lon="6.82846">
        <time>2023-04-10T08:11:14+00:00</time>
        <ele>2596.0</ele>
      </trkpt>
      <trkpt lat="44.30768" lon="6.82846">
        <time>2023-04-10T08:11:15+00:00</time>
        <ele>2596.0</ele>
      </trkpt>
      <trkpt lat="44.30768" lon="6.82846">
        <time>2023-04-10T08:11:16+00:00</time>
        <ele>2596.0</ele>
      </trkpt>
      <trkpt lat="44.30768" lon="6.82846">
        <time>2023-04-10T08:11:17+00:00</time>
        <ele>2596.0</ele>
      </trkpt>
      <trkpt lat="44.30768" lon="6.82846">
        <time>2023-04-10T08:11:18+00:00</time>
        <ele>2596.0</ele>
      </trkpt>
      <trkpt lat="44.30768" lon="6.82846">
        <time>2023-04-10T08:11:19+00:00</time>
        <ele>2596.0</ele>
      </trkpt>
      <trkpt lat="44.30768" lon="6.82846">
        <time>2023-04-10T08:11:20+00:00</time>
        <ele>2596.0</ele>
      </trkpt>
      <trkpt lat="44.30768" lon="6.82846">
        <time>2023-04-10T08:11:21+00:00</time>
        <ele>2596.0</ele>
      </trkpt>
      <trkpt lat="44.30768" lon="6.82846">
        <time>2023-04-10T08:11:22+00:00</time>
        <ele>2596.0</ele>
      </trkpt>
      <trkpt lat="44.30768" lon="6.82846">
        <time>2023-04-10T08:11:23+00:00</time>
        <ele>2596.0</ele>
      </trkpt>
      <trkpt lat="44.30768" lon="6.82846">
        <time>2023-04-10T08:11:24+00:00</time>
        <ele>2596.0</ele>
      </trkpt>
      <trkpt lat="44.30768" lon="6.82846">
        <time>2023-04-10T08:11:25+00:00</time>
        <ele>2596.0</ele>
      </trkpt>
      <trkpt lat="44.30768" lon="6.82846">
        <time>2023-04-10T08:11:26+00:00</time>
        <ele>2596.0</ele>
      </trkpt>
      <trkpt lat="44.30768" lon="6.82846">
        <time>2023-04-10T08:11:27+00:00</time>
        <ele>2596.0</ele>
      </trkpt>
      <trkpt lat="44.30768" lon="6.82846">
        <time>2023-04-10T08:11:28+00:00</time>
        <ele>2596.0</ele>
      </trkpt>
      <trkpt lat="44.30768" lon="6.82846">
        <time>2023-04-10T08:11:29+00:00</time>
        <ele>2596.0</ele>
      </trkpt>
      <trkpt lat="44.30768" lon="6.82846">
        <time>2023-04-10T08:11:30+00:00</time>
        <ele>2596.0</ele>
      </trkpt>
      <trkpt lat="44.30768" lon="6.82846">
        <time>2023-04-10T08:11:31+00:00</time>
        <ele>2596.0</ele>
      </trkpt>
      <trkpt lat="44.30768" lon="6.82846">
        <time>2023-04-10T08:11:32+00:00</time>
        <ele>2596.0</ele>
      </trkpt>
      <trkpt lat="44.30768" lon="6.82846">
        <time>2023-04-10T08:11:33+00:00</time>
        <ele>2596.0</ele>
      </trkpt>
      <trkpt lat="44.30768" lon="6.82846">
        <time>2023-04-10T08:11:34+00:00</time>
        <ele>2596.0</ele>
      </trkpt>
      <trkpt lat="44.30768" lon="6.82846">
        <time>2023-04-10T08:11:35+00:00</time>
        <ele>2596.0</ele>
      </trkpt>
      <trkpt lat="44.30768" lon="6.82846">
        <time>2023-04-10T08:11:36+00:00</time>
        <ele>2596.0</ele>
      </trkpt>
      <trkpt lat="44.30768" lon="6.82846">
        <time>2023-04-10T08:11:37+00:00</time>
        <ele>2596.0</ele>
      </trkpt>
      <trkpt lat="44.30768" lon="6.82846">
        <time>2023-04-10T08:11:38+00:00</time>
        <ele>2596.0</ele>
      </trkpt>
      <trkpt lat="44.30768" lon="6.82846">
        <time>2023-04-10T08:11:39+00:00</time>
        <ele>2596.0</ele>
      </trkpt>
      <trkpt lat="44.30768" lon="6.82846">
        <time>2023-04-10T08:11:40+00:00</time>
        <ele>2596.0</ele>
      </trkpt>
      <trkpt lat="44.30768" lon="6.82846">
        <time>2023-04-10T08:11:41+00:00</time>
        <ele>2596.0</ele>
      </trkpt>
      <trkpt lat="44.30768" lon="6.82846">
        <time>2023-04-10T08:11:42+00:00</time>
        <ele>2596.0</ele>
      </trkpt>
      <trkpt lat="44.30768" lon="6.82846">
        <time>2023-04-10T08:11:43+00:00</time>
        <ele>2596.0</ele>
      </trkpt>
      <trkpt lat="44.30768" lon="6.82846">
        <time>2023-04-10T08:11:44+00:00</time>
        <ele>2596.0</ele>
      </trkpt>
      <trkpt lat="44.30768" lon="6.82846">
        <time>2023-04-10T08:11:45+00:00</time>
        <ele>2596.0</ele>
      </trkpt>
      <trkpt lat="44.30768" lon="6.82846">
        <time>2023-04-10T08:11:46+00:00</time>
        <ele>2596.0</ele>
      </trkpt>
      <trkpt lat="44.30768" lon="6.82846">
        <time>2023-04-10T08:11:47+00:00</time>
        <ele>2596.0</ele>
      </trkpt>
      <trkpt lat="44.30768" lon="6.82846">
        <time>2023-04-10T08:11:48+00:00</time>
        <ele>2596.0</ele>
      </trkpt>
      <trkpt lat="44.30768" lon="6.82846">
        <time>2023-04-10T08:11:49+00:00</time>
        <ele>2596.0</ele>
      </trkpt>
      <trkpt lat="44.30768" lon="6.82846">
        <time>2023-04-10T08:11:50+00:00</time>
        <ele>2596.0</ele>
      </trkpt>
      <trkpt lat="44.30768" lon="6.82846">
        <time>2023-04-10T08:11:51+00:00</time>
        <ele>2596.0</ele>
      </trkpt>
      <trkpt lat="44.30768" lon="6.82846">
        <time>2023-04-10T08:11:52+00:00</time>
        <ele>2596.0</ele>
      </trkpt>
      <trkpt lat="44.30768" lon="6.82846">
        <time>2023-04-10T08:11:53+00:00</time>
        <ele>2596.0</ele>
      </trkpt>
      <trkpt lat="44.30768" lon="6.82846">
        <time>2023-04-10T08:11:54+00:00</time>
        <ele>2596.0</ele>
      </trkpt>
      <trkpt lat="44.30768" lon="6.82846">
        <time>2023-04-10T08:11:55+00:00</time>
        <ele>2596.0</ele>
      </trkpt>
      <trkpt lat="44.30768" lon="6.82846">
        <time>2023-04-10T08:11:56+00:00</time>
        <ele>2596.0</ele>
      </trkpt>
      <trkpt lat="44.30768" lon="6.82846">
        <time>2023-04-10T08:11:57+00:00</time>
        <ele>2596.0</ele>
      </trkpt>
      <trkpt lat="44.30768" lon="6.82846">
        <time>2023-04-10T08:11:58+00:00</time>
        <ele>2596.0</ele>
      </trkpt>
      <trkpt lat="44.30768" lon="6.82846">
        <time>2023-04-10T08:11:59+00:00</time>
        <ele>2596.0</ele>
      </trkpt>
      <trkpt lat="44.30768" lon="6.82846">
        <time>2023-04-10T08:12:00+00:00</time>
        <ele>2596.0</ele>
      </trkpt>
      <trkpt lat="44.30768" lon="6.82846">
        <time>2023-04-10T08:12:01+00:00</time>
        <ele>2596.0</ele>
      </trkpt>
      <trkpt lat="44.30768" lon="6.82846">
        <time>2023-04-10T08:12:02+00:00</time>
        <ele>2596.0</ele>
      </trkpt>
      <trkpt lat="44.30768" lon="6.82846">
        <time>2023-04-10T08:12:03+00:00</time>
        <ele>2596.0</ele>
      </trkpt>
      <trkpt lat="44.30768" lon="6.82846">
        <time>2023-04-10T08:12:04+00:00</time>
        <ele>2596.0</ele>
      </trkpt>
      <trkpt lat="44.30768" lon="6.82846">
        <time>2023-04-10T08:12:05+00:00</time>
        <ele>2596.0</ele>
      </trkpt>
      <trkpt lat="44.30768" lon="6.82846">
        <time>2023-04-10T08:12:06+00:00</time>
        <ele>2596.0</ele>
      </trkpt>
      <trkpt lat="44.30768" lon="6.82846">
        <time>2023-04-10T08:12:07+00:00</time>
        <ele>2596.0</ele>
      </trkpt>
      <trkpt lat="44.30768" lon="6.82846">
        <time>2023-04-10T08:12:08+00:00</time>
        <ele>2596.0</ele>
      </trkpt>
      <trkpt lat="44.30768" lon="6.82846">
        <time>2023-04-10T08:12:09+00:00</time>
        <ele>2596.0</ele>
      </trkpt>
      <trkpt lat="44.30768" lon="6.82846">
        <time>2023-04-10T08:12:10+00:00</time>
        <ele>2596.0</ele>
      </trkpt>
      <trkpt lat="44.30768" lon="6.82846">
        <time>2023-04-10T08:12:11+00:00</time>
        <ele>2596.0</ele>
      </trkpt>
      <trkpt lat="44.30768" lon="6.82846">
        <time>2023-04-10T08:12:12+00:00</time>
        <ele>2596.0</ele>
      </trkpt>
      <trkpt lat="44.30768" lon="6.82846">
        <time>2023-04-10T08:12:13+00:00</time>
        <ele>2596.0</ele>
      </trkpt>
      <trkpt lat="44.30768" lon="6.82846">
        <time>2023-04-10T08:12:14+00:00</time>
        <ele>2596.0</ele>
      </trkpt>
      <trkpt lat="44.30768" lon="6.82846">
        <time>2023-04-10T08:12:15+00:00</time>
        <ele>2596.0</ele>
      </trkpt>
      <trkpt lat="44.30768" lon="6.82846">
        <time>2023-04-10T08:12:16+00:00</time>
        <ele>2596.0</ele>
      </trkpt>
      <trkpt lat="44.30768" lon="6.82846">
        <time>2023-04-10T08:12:17+00:00</time>
        <ele>2596.0</ele>
      </trkpt>
      <trkpt lat="44.30768" lon="6.82846">
        <time>2023-04-10T08:12:18+00:00</time>
        <ele>2596.0</ele>
      </trkpt>
      <trkpt lat="44.30768" lon="6.82846">
        <time>2023-04-10T08:12:19+00:00</time>
        <ele>2596.0</ele>
      </trkpt>
      <trkpt lat="44.30768" lon="6.82846">
        <time>2023-04-10T08:12:20+00:00</time>
        <ele>2596.0</ele>
      </trkpt>
      <trkpt lat="44.30768" lon="6.82846">
        <time>2023-04-10T08:12:21+00:00</time>
        <ele>2596.0</ele>
      </trkpt>
      <trkpt lat="44.30768" lon="6.82846">
        <time>2023-04-10T08:12:22+00:00</time>
        <ele>2596.0</ele>
      </trkpt>
      <trkpt lat="44.30768" lon="6.82846">
        <time>2023-04-10T08:12:23+00:00</time>
        <ele>2596.0</ele>
      </trkpt>
      <trkpt lat="44.30768" lon="6.82846">
        <time>2023-04-10T08:12:24+00:00</time>
        <ele>2596.0</ele>
      </trkpt>
      <trkpt lat="44.30767" lon="6.82846">
        <time>2023-04-10T08:12:25+00:00</time>
        <ele>2596.0</ele>
      </trkpt>
      <trkpt lat="44.30767" lon="6.82846">
        <time>2023-04-10T08:12:26+00:00</time>
        <ele>2596.0</ele>
      </trkpt>
      <trkpt lat="44.30767" lon="6.82846">
        <time>2023-04-10T08:12:27+00:00</time>
        <ele>2596.0</ele>
      </trkpt>
      <trkpt lat="44.30767" lon="6.82846">
        <time>2023-04-10T08:12:28+00:00</time>
        <ele>2596.0</ele>
      </trkpt>
      <trkpt lat="44.30767" lon="6.82846">
        <time>2023-04-10T08:12:29+00:00</time>
        <ele>2596.0</ele>
      </trkpt>
      <trkpt lat="44.30767" lon="6.82846">
        <time>2023-04-10T08:12:30+00:00</time>
        <ele>2596.0</ele>
      </trkpt>
      <trkpt lat="44.30767" lon="6.82846">
        <time>2023-04-10T08:12:31+00:00</time>
        <ele>2596.0</ele>
      </trkpt>
      <trkpt lat="44.30767" lon="6.82846">
        <time>2023-04-10T08:12:32+00:00</time>
        <ele>2596.0</ele>
      </trkpt>
      <trkpt lat="44.30767" lon="6.82846">
        <time>2023-04-10T08:12:33+00:00</time>
        <ele>2596.0</ele>
      </trkpt>
      <trkpt lat="44.30767" lon="6.82846">
        <time>2023-04-10T08:12:34+00:00</time>
        <ele>2596.0</ele>
      </trkpt>
      <trkpt lat="44.30767" lon="6.82846">
        <time>2023-04-10T08:12:35+00:00</time>
        <ele>2596.0</ele>
      </trkpt>
      <trkpt lat="44.30767" lon="6.82846">
        <time>2023-04-10T08:12:36+00:00</time>
        <ele>2596.0</ele>
      </trkpt>
      <trkpt lat="44.30767" lon="6.82846">
        <time>2023-04-10T08:12:37+00:00</time>
        <ele>2596.0</ele>
      </trkpt>
      <trkpt lat="44.30767" lon="6.82846">
        <time>2023-04-10T08:12:38+00:00</time>
        <ele>2596.0</ele>
      </trkpt>
      <trkpt lat="44.30767" lon="6.82846">
        <time>2023-04-10T08:12:39+00:00</time>
        <ele>2596.0</ele>
      </trkpt>
      <trkpt lat="44.30767" lon="6.82846">
        <time>2023-04-10T08:12:40+00:00</time>
        <ele>2596.0</ele>
      </trkpt>
      <trkpt lat="44.30767" lon="6.82846">
        <time>2023-04-10T08:12:41+00:00</time>
        <ele>2596.0</ele>
      </trkpt>
      <trkpt lat="44.30767" lon="6.82846">
        <time>2023-04-10T08:12:42+00:00</time>
        <ele>2596.0</ele>
      </trkpt>
      <trkpt lat="44.30767" lon="6.82846">
        <time>2023-04-10T08:12:43+00:00</time>
        <ele>2596.0</ele>
      </trkpt>
      <trkpt lat="44.30767" lon="6.82846">
        <time>2023-04-10T08:12:44+00:00</time>
        <ele>2596.0</ele>
      </trkpt>
      <trkpt lat="44.30767" lon="6.82846">
        <time>2023-04-10T08:12:45+00:00</time>
        <ele>2596.0</ele>
      </trkpt>
      <trkpt lat="44.30767" lon="6.82846">
        <time>2023-04-10T08:12:46+00:00</time>
        <ele>2596.0</ele>
      </trkpt>
      <trkpt lat="44.30767" lon="6.82846">
        <time>2023-04-10T08:12:47+00:00</time>
        <ele>2596.0</ele>
      </trkpt>
      <trkpt lat="44.30767" lon="6.82846">
        <time>2023-04-10T08:12:48+00:00</time>
        <ele>2596.0</ele>
      </trkpt>
      <trkpt lat="44.30767" lon="6.82846">
        <time>2023-04-10T08:12:49+00:00</time>
        <ele>2596.0</ele>
      </trkpt>
      <trkpt lat="44.30767" lon="6.82846">
        <time>2023-04-10T08:12:50+00:00</time>
        <ele>2596.0</ele>
      </trkpt>
      <trkpt lat="44.30767" lon="6.82846">
        <time>2023-04-10T08:12:51+00:00</time>
        <ele>2596.0</ele>
      </trkpt>
      <trkpt lat="44.30767" lon="6.82846">
        <time>2023-04-10T08:12:52+00:00</time>
        <ele>2596.0</ele>
      </trkpt>
      <trkpt lat="44.30767" lon="6.82846">
        <time>2023-04-10T08:12:53+00:00</time>
        <ele>2596.0</ele>
      </trkpt>
      <trkpt lat="44.30767" lon="6.82846">
        <time>2023-04-10T08:12:54+00:00</time>
        <ele>2596.0</ele>
      </trkpt>
      <trkpt lat="44.30767" lon="6.82846">
        <time>2023-04-10T08:12:55+00:00</time>
        <ele>2596.0</ele>
      </trkpt>
      <trkpt lat="44.30767" lon="6.82846">
        <time>2023-04-10T08:12:56+00:00</time>
        <ele>2596.0</ele>
      </trkpt>
      <trkpt lat="44.30767" lon="6.82846">
        <time>2023-04-10T08:12:57+00:00</time>
        <ele>2596.0</ele>
      </trkpt>
      <trkpt lat="44.30767" lon="6.82846">
        <time>2023-04-10T08:12:58+00:00</time>
        <ele>2596.0</ele>
      </trkpt>
      <trkpt lat="44.30767" lon="6.82846">
        <time>2023-04-10T08:12:59+00:00</time>
        <ele>2596.0</ele>
      </trkpt>
      <trkpt lat="44.30767" lon="6.82846">
        <time>2023-04-10T08:13:00+00:00</time>
        <ele>2596.0</ele>
      </trkpt>
      <trkpt lat="44.30767" lon="6.82846">
        <time>2023-04-10T08:13:01+00:00</time>
        <ele>2596.0</ele>
      </trkpt>
      <trkpt lat="44.30767" lon="6.82846">
        <time>2023-04-10T08:13:02+00:00</time>
        <ele>2596.0</ele>
      </trkpt>
      <trkpt lat="44.30767" lon="6.82846">
        <time>2023-04-10T08:13:03+00:00</time>
        <ele>2596.0</ele>
      </trkpt>
      <trkpt lat="44.30767" lon="6.82846">
        <time>2023-04-10T08:13:04+00:00</time>
        <ele>2596.0</ele>
      </trkpt>
      <trkpt lat="44.30767" lon="6.82846">
        <time>2023-04-10T08:13:05+00:00</time>
        <ele>2596.0</ele>
      </trkpt>
      <trkpt lat="44.30767" lon="6.82846">
        <time>2023-04-10T08:13:06+00:00</time>
        <ele>2596.0</ele>
      </trkpt>
      <trkpt lat="44.30767" lon="6.82846">
        <time>2023-04-10T08:13:07+00:00</time>
        <ele>2596.0</ele>
      </trkpt>
      <trkpt lat="44.30767" lon="6.82846">
        <time>2023-04-10T08:13:08+00:00</time>
        <ele>2596.0</ele>
      </trkpt>
      <trkpt lat="44.30767" lon="6.82846">
        <time>2023-04-10T08:13:09+00:00</time>
        <ele>2596.0</ele>
      </trkpt>
      <trkpt lat="44.30767" lon="6.82846">
        <time>2023-04-10T08:13:10+00:00</time>
        <ele>2596.0</ele>
      </trkpt>
      <trkpt lat="44.30767" lon="6.82846">
        <time>2023-04-10T08:13:11+00:00</time>
        <ele>2596.0</ele>
      </trkpt>
      <trkpt lat="44.30767" lon="6.82846">
        <time>2023-04-10T08:13:12+00:00</time>
        <ele>2596.0</ele>
      </trkpt>
      <trkpt lat="44.30767" lon="6.82846">
        <time>2023-04-10T08:13:13+00:00</time>
        <ele>2596.0</ele>
      </trkpt>
      <trkpt lat="44.30767" lon="6.82846">
        <time>2023-04-10T08:13:14+00:00</time>
        <ele>2596.0</ele>
      </trkpt>
      <trkpt lat="44.30767" lon="6.82846">
        <time>2023-04-10T08:13:15+00:00</time>
        <ele>2596.0</ele>
      </trkpt>
      <trkpt lat="44.30767" lon="6.82846">
        <time>2023-04-10T08:13:16+00:00</time>
        <ele>2596.0</ele>
      </trkpt>
      <trkpt lat="44.30767" lon="6.82846">
        <time>2023-04-10T08:13:17+00:00</time>
        <ele>2596.0</ele>
      </trkpt>
      <trkpt lat="44.30767" lon="6.82846">
        <time>2023-04-10T08:13:18+00:00</time>
        <ele>2596.0</ele>
      </trkpt>
      <trkpt lat="44.30767" lon="6.82846">
        <time>2023-04-10T08:13:19+00:00</time>
        <ele>2596.0</ele>
      </trkpt>
      <trkpt lat="44.30767" lon="6.82846">
        <time>2023-04-10T08:13:20+00:00</time>
        <ele>2596.0</ele>
      </trkpt>
      <trkpt lat="44.30767" lon="6.82846">
        <time>2023-04-10T08:13:21+00:00</time>
        <ele>2596.0</ele>
      </trkpt>
      <trkpt lat="44.30767" lon="6.82846">
        <time>2023-04-10T08:13:22+00:00</time>
        <ele>2596.0</ele>
      </trkpt>
      <trkpt lat="44.30767" lon="6.82846">
        <time>2023-04-10T08:13:23+00:00</time>
        <ele>2596.0</ele>
      </trkpt>
      <trkpt lat="44.30767" lon="6.82846">
        <time>2023-04-10T08:13:24+00:00</time>
        <ele>2596.0</ele>
      </trkpt>
      <trkpt lat="44.30767" lon="6.82846">
        <time>2023-04-10T08:13:25+00:00</time>
        <ele>2596.0</ele>
      </trkpt>
      <trkpt lat="44.30767" lon="6.82846">
        <time>2023-04-10T08:13:26+00:00</time>
        <ele>2596.0</ele>
      </trkpt>
      <trkpt lat="44.30767" lon="6.82846">
        <time>2023-04-10T08:13:27+00:00</time>
        <ele>2596.0</ele>
      </trkpt>
      <trkpt lat="44.30767" lon="6.82846">
        <time>2023-04-10T08:13:28+00:00</time>
        <ele>2596.0</ele>
      </trkpt>
      <trkpt lat="44.30767" lon="6.82846">
        <time>2023-04-10T08:13:29+00:00</time>
        <ele>2596.0</ele>
      </trkpt>
      <trkpt lat="44.30767" lon="6.82846">
        <time>2023-04-10T08:13:30+00:00</time>
        <ele>2596.0</ele>
      </trkpt>
      <trkpt lat="44.30767" lon="6.82846">
        <time>2023-04-10T08:13:31+00:00</time>
        <ele>2596.0</ele>
      </trkpt>
      <trkpt lat="44.30767" lon="6.82846">
        <time>2023-04-10T08:13:32+00:00</time>
        <ele>2596.0</ele>
      </trkpt>
      <trkpt lat="44.30767" lon="6.82846">
        <time>2023-04-10T08:13:33+00:00</time>
        <ele>2596.0</ele>
      </trkpt>
      <trkpt lat="44.30767" lon="6.82846">
        <time>2023-04-10T08:13:34+00:00</time>
        <ele>2596.0</ele>
      </trkpt>
      <trkpt lat="44.30767" lon="6.82846">
        <time>2023-04-10T08:13:35+00:00</time>
        <ele>2596.0</ele>
      </trkpt>
      <trkpt lat="44.30767" lon="6.82846">
        <time>2023-04-10T08:13:36+00:00</time>
        <ele>2596.0</ele>
      </trkpt>
      <trkpt lat="44.30767" lon="6.82846">
        <time>2023-04-10T08:13:37+00:00</time>
        <ele>2596.0</ele>
      </trkpt>
      <trkpt lat="44.30767" lon="6.82846">
        <time>2023-04-10T08:13:38+00:00</time>
        <ele>2596.0</ele>
      </trkpt>
      <trkpt lat="44.30767" lon="6.82846">
        <time>2023-04-10T08:13:39+00:00</time>
        <ele>2596.0</ele>
      </trkpt>
      <trkpt lat="44.30767" lon="6.82846">
        <time>2023-04-10T08:13:40+00:00</time>
        <ele>2596.0</ele>
      </trkpt>
      <trkpt lat="44.30767" lon="6.82846">
        <time>2023-04-10T08:13:41+00:00</time>
        <ele>2596.0</ele>
      </trkpt>
      <trkpt lat="44.30767" lon="6.82846">
        <time>2023-04-10T08:13:42+00:00</time>
        <ele>2596.0</ele>
      </trkpt>
      <trkpt lat="44.30767" lon="6.82846">
        <time>2023-04-10T08:13:43+00:00</time>
        <ele>2596.0</ele>
      </trkpt>
      <trkpt lat="44.30767" lon="6.82846">
        <time>2023-04-10T08:13:44+00:00</time>
        <ele>2596.0</ele>
      </trkpt>
      <trkpt lat="44.30767" lon="6.82846">
        <time>2023-04-10T08:13:45+00:00</time>
        <ele>2596.0</ele>
      </trkpt>
      <trkpt lat="44.30767" lon="6.82846">
        <time>2023-04-10T08:13:46+00:00</time>
        <ele>2596.0</ele>
      </trkpt>
      <trkpt lat="44.30767" lon="6.82846">
        <time>2023-04-10T08:13:47+00:00</time>
        <ele>2596.0</ele>
      </trkpt>
      <trkpt lat="44.30767" lon="6.82846">
        <time>2023-04-10T08:13:48+00:00</time>
        <ele>2596.0</ele>
      </trkpt>
      <trkpt lat="44.30767" lon="6.82846">
        <time>2023-04-10T08:13:49+00:00</time>
        <ele>2596.0</ele>
      </trkpt>
      <trkpt lat="44.30767" lon="6.82846">
        <time>2023-04-10T08:13:50+00:00</time>
        <ele>2596.0</ele>
      </trkpt>
      <trkpt lat="44.30767" lon="6.82846">
        <time>2023-04-10T08:13:51+00:00</time>
        <ele>2596.0</ele>
      </trkpt>
      <trkpt lat="44.30767" lon="6.82846">
        <time>2023-04-10T08:13:52+00:00</time>
        <ele>2596.0</ele>
      </trkpt>
      <trkpt lat="44.30767" lon="6.82846">
        <time>2023-04-10T08:13:53+00:00</time>
        <ele>2596.0</ele>
      </trkpt>
      <trkpt lat="44.30767" lon="6.82846">
        <time>2023-04-10T08:13:54+00:00</time>
        <ele>2596.0</ele>
      </trkpt>
      <trkpt lat="44.30767" lon="6.82846">
        <time>2023-04-10T08:13:55+00:00</time>
        <ele>2596.0</ele>
      </trkpt>
      <trkpt lat="44.30767" lon="6.82846">
        <time>2023-04-10T08:13:56+00:00</time>
        <ele>2596.0</ele>
      </trkpt>
      <trkpt lat="44.30767" lon="6.82846">
        <time>2023-04-10T08:13:57+00:00</time>
        <ele>2596.0</ele>
      </trkpt>
      <trkpt lat="44.30767" lon="6.82846">
        <time>2023-04-10T08:13:58+00:00</time>
        <ele>2596.0</ele>
      </trkpt>
      <trkpt lat="44.30767" lon="6.82846">
        <time>2023-04-10T08:13:59+00:00</time>
        <ele>2596.0</ele>
      </trkpt>
      <trkpt lat="44.30766" lon="6.82846">
        <time>2023-04-10T08:14:00+00:00</time>
        <ele>2595.0</ele>
      </trkpt>
      <trkpt lat="44.30766" lon="6.82846">
        <time>2023-04-10T08:14:01+00:00</time>
        <ele>2595.0</ele>
      </trkpt>
      <trkpt lat="44.30766" lon="6.82846">
        <time>2023-04-10T08:14:02+00:00</time>
        <ele>2595.0</ele>
      </trkpt>
      <trkpt lat="44.30766" lon="6.82846">
        <time>2023-04-10T08:14:03+00:00</time>
        <ele>2595.0</ele>
      </trkpt>
      <trkpt lat="44.30766" lon="6.82846">
        <time>2023-04-10T08:14:04+00:00</time>
        <ele>2595.0</ele>
      </trkpt>
      <trkpt lat="44.30766" lon="6.82846">
        <time>2023-04-10T08:14:05+00:00</time>
        <ele>2595.0</ele>
      </trkpt>
      <trkpt lat="44.30766" lon="6.82846">
        <time>2023-04-10T08:14:06+00:00</time>
        <ele>2595.0</ele>
      </trkpt>
      <trkpt lat="44.30766" lon="6.82846">
        <time>2023-04-10T08:14:07+00:00</time>
        <ele>2595.0</ele>
      </trkpt>
      <trkpt lat="44.30766" lon="6.82846">
        <time>2023-04-10T08:14:08+00:00</time>
        <ele>2595.0</ele>
      </trkpt>
      <trkpt lat="44.30766" lon="6.82846">
        <time>2023-04-10T08:14:09+00:00</time>
        <ele>2595.0</ele>
      </trkpt>
      <trkpt lat="44.30766" lon="6.82846">
        <time>2023-04-10T08:14:10+00:00</time>
        <ele>2595.0</ele>
      </trkpt>
      <trkpt lat="44.30768" lon="6.82839">
        <time>2023-04-10T08:14:11+00:00</time>
        <ele>2597.0</ele>
      </trkpt>
      <trkpt lat="44.30768" lon="6.82839">
        <time>2023-04-10T08:14:12+00:00</time>
        <ele>2597.0</ele>
      </trkpt>
      <trkpt lat="44.30765" lon="6.82837">
        <time>2023-04-10T08:14:13+00:00</time>
        <ele>2597.0</ele>
      </trkpt>
      <trkpt lat="44.30765" lon="6.82837">
        <time>2023-04-10T08:14:14+00:00</time>
        <ele>2597.0</ele>
      </trkpt>
      <trkpt lat="44.30762" lon="6.82835">
        <time>2023-04-10T08:14:15+00:00</time>
        <ele>2597.0</ele>
      </trkpt>
      <trkpt lat="44.30761" lon="6.82834">
        <time>2023-04-10T08:14:16+00:00</time>
        <ele>2597.0</ele>
      </trkpt>
      <trkpt lat="44.30761" lon="6.82834">
        <time>2023-04-10T08:14:17+00:00</time>
        <ele>2597.0</ele>
      </trkpt>
      <trkpt lat="44.30757" lon="6.82833">
        <time>2023-04-10T08:14:18+00:00</time>
        <ele>2598.0</ele>
      </trkpt>
      <trkpt lat="44.30756" lon="6.82831">
        <time>2023-04-10T08:14:19+00:00</time>
        <ele>2598.0</ele>
      </trkpt>
      <trkpt lat="44.30756" lon="6.82831">
        <time>2023-04-10T08:14:20+00:00</time>
        <ele>2598.0</ele>
      </trkpt>
      <trkpt lat="44.30754" lon="6.8283">
        <time>2023-04-10T08:14:21+00:00</time>
        <ele>2598.0</ele>
      </trkpt>
      <trkpt lat="44.30754" lon="6.8283">
        <time>2023-04-10T08:14:22+00:00</time>
        <ele>2598.0</ele>
      </trkpt>
      <trkpt lat="44.30752" lon="6.82828">
        <time>2023-04-10T08:14:23+00:00</time>
        <ele>2599.0</ele>
      </trkpt>
      <trkpt lat="44.30752" lon="6.82828">
        <time>2023-04-10T08:14:24+00:00</time>
        <ele>2599.0</ele>
      </trkpt>
      <trkpt lat="44.30752" lon="6.82828">
        <time>2023-04-10T08:14:25+00:00</time>
        <ele>2599.0</ele>
      </trkpt>
      <trkpt lat="44.30749" lon="6.82827">
        <time>2023-04-10T08:14:26+00:00</time>
        <ele>2599.0</ele>
      </trkpt>
      <trkpt lat="44.30749" lon="6.82827">
        <time>2023-04-10T08:14:27+00:00</time>
        <ele>2599.0</ele>
      </trkpt>
      <trkpt lat="44.30748" lon="6.82826">
        <time>2023-04-10T08:14:28+00:00</time>
        <ele>2599.0</ele>
      </trkpt>
      <trkpt lat="44.30748" lon="6.82826">
        <time>2023-04-10T08:14:29+00:00</time>
        <ele>2599.0</ele>
      </trkpt>
      <trkpt lat="44.30746" lon="6.82825">
        <time>2023-04-10T08:14:30+00:00</time>
        <ele>2600.0</ele>
      </trkpt>
      <trkpt lat="44.30746" lon="6.82825">
        <time>2023-04-10T08:14:31+00:00</time>
        <ele>2600.0</ele>
      </trkpt>
      <trkpt lat="44.30744" lon="6.82824">
        <time>2023-04-10T08:14:32+00:00</time>
        <ele>2600.0</ele>
      </trkpt>
      <trkpt lat="44.30744" lon="6.82824">
        <time>2023-04-10T08:14:33+00:00</time>
        <ele>2600.0</ele>
      </trkpt>
      <trkpt lat="44.30742" lon="6.82824">
        <time>2023-04-10T08:14:34+00:00</time>
        <ele>2600.0</ele>
      </trkpt>
      <trkpt lat="44.30742" lon="6.82824">
        <time>2023-04-10T08:14:35+00:00</time>
        <ele>2600.0</ele>
      </trkpt>
      <trkpt lat="44.3074" lon="6.82823">
        <time>2023-04-10T08:14:36+00:00</time>
        <ele>2601.0</ele>
      </trkpt>
      <trkpt lat="44.3074" lon="6.82823">
        <time>2023-04-10T08:14:37+00:00</time>
        <ele>2601.0</ele>
      </trkpt>
      <trkpt lat="44.30738" lon="6.82822">
        <time>2023-04-10T08:14:38+00:00</time>
        <ele>2601.0</ele>
      </trkpt>
      <trkpt lat="44.30738" lon="6.82822">
        <time>2023-04-10T08:14:39+00:00</time>
        <ele>2601.0</ele>
      </trkpt>
      <trkpt lat="44.30735" lon="6.82822">
        <time>2023-04-10T08:14:40+00:00</time>
        <ele>2601.0</ele>
      </trkpt>
      <trkpt lat="44.30735" lon="6.82822">
        <time>2023-04-10T08:14:41+00:00</time>
        <ele>2601.0</ele>
      </trkpt>
      <trkpt lat="44.30735" lon="6.82822">
        <time>2023-04-10T08:14:42+00:00</time>
        <ele>2601.0</ele>
      </trkpt>
      <trkpt lat="44.30733" lon="6.82822">
        <time>2023-04-10T08:14:43+00:00</time>
        <ele>2601.0</ele>
      </trkpt>
      <trkpt lat="44.30733" lon="6.82822">
        <time>2023-04-10T08:14:44+00:00</time>
        <ele>2601.0</ele>
      </trkpt>
      <trkpt lat="44.30731" lon="6.82822">
        <time>2023-04-10T08:14:45+00:00</time>
        <ele>2601.0</ele>
      </trkpt>
      <trkpt lat="44.30731" lon="6.82822">
        <time>2023-04-10T08:14:46+00:00</time>
        <ele>2601.0</ele>
      </trkpt>
      <trkpt lat="44.30729" lon="6.82822">
        <time>2023-04-10T08:14:47+00:00</time>
        <ele>2601.0</ele>
      </trkpt>
      <trkpt lat="44.30729" lon="6.82822">
        <time>2023-04-10T08:14:48+00:00</time>
        <ele>2601.0</ele>
      </trkpt>
      <trkpt lat="44.30727" lon="6.82821">
        <time>2023-04-10T08:14:49+00:00</time>
        <ele>2601.0</ele>
      </trkpt>
      <trkpt lat="44.30727" lon="6.82821">
        <time>2023-04-10T08:14:50+00:00</time>
        <ele>2601.0</ele>
      </trkpt>
      <trkpt lat="44.30725" lon="6.82822">
        <time>2023-04-10T08:14:51+00:00</time>
        <ele>2601.0</ele>
      </trkpt>
      <trkpt lat="44.30725" lon="6.82822">
        <time>2023-04-10T08:14:52+00:00</time>
        <ele>2601.0</ele>
      </trkpt>
      <trkpt lat="44.30723" lon="6.82822">
        <time>2023-04-10T08:14:53+00:00</time>
        <ele>2601.0</ele>
      </trkpt>
      <trkpt lat="44.30723" lon="6.82822">
        <time>2023-04-10T08:14:54+00:00</time>
        <ele>2601.0</ele>
      </trkpt>
      <trkpt lat="44.30723" lon="6.82822">
        <time>2023-04-10T08:14:55+00:00</time>
        <ele>2601.0</ele>
      </trkpt>
      <trkpt lat="44.30721" lon="6.82822">
        <time>2023-04-10T08:14:56+00:00</time>
        <ele>2601.0</ele>
      </trkpt>
      <trkpt lat="44.30721" lon="6.82822">
        <time>2023-04-10T08:14:57+00:00</time>
        <ele>2601.0</ele>
      </trkpt>
      <trkpt lat="44.30721" lon="6.82822">
        <time>2023-04-10T08:14:58+00:00</time>
        <ele>2601.0</ele>
      </trkpt>
      <trkpt lat="44.30718" lon="6.82822">
        <time>2023-04-10T08:14:59+00:00</time>
        <ele>2600.0</ele>
      </trkpt>
      <trkpt lat="44.30718" lon="6.82822">
        <time>2023-04-10T08:15:00+00:00</time>
        <ele>2600.0</ele>
      </trkpt>
      <trkpt lat="44.30718" lon="6.82822">
        <time>2023-04-10T08:15:01+00:00</time>
        <ele>2600.0</ele>
      </trkpt>
      <trkpt lat="44.30715" lon="6.82822">
        <time>2023-04-10T08:15:02+00:00</time>
        <ele>2601.0</ele>
      </trkpt>
      <trkpt lat="44.30715" lon="6.82822">
        <time>2023-04-10T08:15:03+00:00</time>
        <ele>2601.0</ele>
      </trkpt>
      <trkpt lat="44.30713" lon="6.82822">
        <time>2023-04-10T08:15:04+00:00</time>
        <ele>2601.0</ele>
      </trkpt>
      <trkpt lat="44.30713" lon="6.82822">
        <time>2023-04-10T08:15:05+00:00</time>
        <ele>2601.0</ele>
      </trkpt>
      <trkpt lat="44.30711" lon="6.82821">
        <time>2023-04-10T08:15:06+00:00</time>
        <ele>2601.0</ele>
      </trkpt>
      <trkpt lat="44.30711" lon="6.82821">
        <time>2023-04-10T08:15:07+00:00</time>
        <ele>2601.0</ele>
      </trkpt>
      <trkpt lat="44.30709" lon="6.82822">
        <time>2023-04-10T08:15:08+00:00</time>
        <ele>2601.0</ele>
      </trkpt>
      <trkpt lat="44.30709" lon="6.82822">
        <time>2023-04-10T08:15:09+00:00</time>
        <ele>2601.0</ele>
      </trkpt>
      <trkpt lat="44.30707" lon="6.82822">
        <time>2023-04-10T08:15:10+00:00</time>
        <ele>2601.0</ele>
      </trkpt>
      <trkpt lat="44.30707" lon="6.82822">
        <time>2023-04-10T08:15:11+00:00</time>
        <ele>2601.0</ele>
      </trkpt>
      <trkpt lat="44.30705" lon="6.82823">
        <time>2023-04-10T08:15:12+00:00</time>
        <ele>2601.0</ele>
      </trkpt>
      <trkpt lat="44.30705" lon="6.82823">
        <time>2023-04-10T08:15:13+00:00</time>
        <ele>2601.0</ele>
      </trkpt>
      <trkpt lat="44.30703" lon="6.82823">
        <time>2023-04-10T08:15:14+00:00</time>
        <ele>2601.0</ele>
      </trkpt>
      <trkpt lat="44.30703" lon="6.82823">
        <time>2023-04-10T08:15:15+00:00</time>
        <ele>2601.0</ele>
      </trkpt>
      <trkpt lat="44.30701" lon="6.82822">
        <time>2023-04-10T08:15:16+00:00</time>
        <ele>2602.0</ele>
      </trkpt>
      <trkpt lat="44.30701" lon="6.82822">
        <time>2023-04-10T08:15:17+00:00</time>
        <ele>2602.0</ele>
      </trkpt>
      <trkpt lat="44.307" lon="6.82822">
        <time>2023-04-10T08:15:18+00:00</time>
        <ele>2602.0</ele>
      </trkpt>
      <trkpt lat="44.307" lon="6.82822">
        <time>2023-04-10T08:15:19+00:00</time>
        <ele>2602.0</ele>
      </trkpt>
      <trkpt lat="44.30698" lon="6.82821">
        <time>2023-04-10T08:15:20+00:00</time>
        <ele>2603.0</ele>
      </trkpt>
      <trkpt lat="44.30698" lon="6.82821">
        <time>2023-04-10T08:15:21+00:00</time>
        <ele>2603.0</ele>
      </trkpt>
      <trkpt lat="44.30698" lon="6.82821">
        <time>2023-04-10T08:15:22+00:00</time>
        <ele>2603.0</ele>
      </trkpt>
      <trkpt lat="44.30696" lon="6.8282">
        <time>2023-04-10T08:15:23+00:00</time>
        <ele>2603.0</ele>
      </trkpt>
      <trkpt lat="44.30696" lon="6.8282">
        <time>2023-04-10T08:15:24+00:00</time>
        <ele>2603.0</ele>
      </trkpt>
      <trkpt lat="44.30696" lon="6.8282">
        <time>2023-04-10T08:15:25+00:00</time>
        <ele>2603.0</ele>
      </trkpt>
      <trkpt lat="44.30693" lon="6.82819">
        <time>2023-04-10T08:15:26+00:00</time>
        <ele>2604.0</ele>
      </trkpt>
      <trkpt lat="44.30693" lon="6.82819">
        <time>2023-04-10T08:15:27+00:00</time>
        <ele>2604.0</ele>
      </trkpt>
      <trkpt lat="44.30693" lon="6.82819">
        <time>2023-04-10T08:15:28+00:00</time>
        <ele>2604.0</ele>
      </trkpt>
      <trkpt lat="44.30691" lon="6.82818">
        <time>2023-04-10T08:15:29+00:00</time>
        <ele>2604.0</ele>
      </trkpt>
      <trkpt lat="44.30691" lon="6.82818">
        <time>2023-04-10T08:15:30+00:00</time>
        <ele>2604.0</ele>
      </trkpt>
      <trkpt lat="44.30691" lon="6.82818">
        <time>2023-04-10T08:15:31+00:00</time>
        <ele>2604.0</ele>
      </trkpt>
      <trkpt lat="44.30688" lon="6.82817">
        <time>2023-04-10T08:15:32+00:00</time>
        <ele>2605.0</ele>
      </trkpt>
      <trkpt lat="44.30688" lon="6.82817">
        <time>2023-04-10T08:15:33+00:00</time>
        <ele>2605.0</ele>
      </trkpt>
      <trkpt lat="44.30688" lon="6.82817">
        <time>2023-04-10T08:15:34+00:00</time>
        <ele>2605.0</ele>
      </trkpt>
      <trkpt lat="44.30686" lon="6.82817">
        <time>2023-04-10T08:15:35+00:00</time>
        <ele>2605.0</ele>
      </trkpt>
      <trkpt lat="44.30686" lon="6.82817">
        <time>2023-04-10T08:15:36+00:00</time>
        <ele>2605.0</ele>
      </trkpt>
      <trkpt lat="44.30684" lon="6.82817">
        <time>2023-04-10T08:15:37+00:00</time>
        <ele>2606.0</ele>
      </trkpt>
      <trkpt lat="44.30684" lon="6.82817">
        <time>2023-04-10T08:15:38+00:00</time>
        <ele>2606.0</ele>
      </trkpt>
      <trkpt lat="44.30684" lon="6.82817">
        <time>2023-04-10T08:15:39+00:00</time>
        <ele>2606.0</ele>
      </trkpt>
      <trkpt lat="44.30682" lon="6.82816">
        <time>2023-04-10T08:15:40+00:00</time>
        <ele>2606.0</ele>
      </trkpt>
      <trkpt lat="44.30682" lon="6.82816">
        <time>2023-04-10T08:15:41+00:00</time>
        <ele>2606.0</ele>
      </trkpt>
      <trkpt lat="44.30682" lon="6.82816">
        <time>2023-04-10T08:15:42+00:00</time>
        <ele>2606.0</ele>
      </trkpt>
      <trkpt lat="44.3068" lon="6.82815">
        <time>2023-04-10T08:15:43+00:00</time>
        <ele>2607.0</ele>
      </trkpt>
      <trkpt lat="44.3068" lon="6.82815">
        <time>2023-04-10T08:15:44+00:00</time>
        <ele>2607.0</ele>
      </trkpt>
      <trkpt lat="44.3068" lon="6.82815">
        <time>2023-04-10T08:15:45+00:00</time>
        <ele>2607.0</ele>
      </trkpt>
      <trkpt lat="44.30677" lon="6.82815">
        <time>2023-04-10T08:15:46+00:00</time>
        <ele>2607.0</ele>
      </trkpt>
      <trkpt lat="44.30677" lon="6.82815">
        <time>2023-04-10T08:15:47+00:00</time>
        <ele>2607.0</ele>
      </trkpt>
      <trkpt lat="44.30677" lon="6.82815">
        <time>2023-04-10T08:15:48+00:00</time>
        <ele>2607.0</ele>
      </trkpt>
      <trkpt lat="44.30675" lon="6.82815">
        <time>2023-04-10T08:15:49+00:00</time>
        <ele>2608.0</ele>
      </trkpt>
      <trkpt lat="44.30675" lon="6.82815">
        <time>2023-04-10T08:15:50+00:00</time>
        <ele>2608.0</ele>
      </trkpt>
      <trkpt lat="44.30673" lon="6.82815">
        <time>2023-04-10T08:15:51+00:00</time>
        <ele>2608.0</ele>
      </trkpt>
      <trkpt lat="44.30673" lon="6.82815">
        <time>2023-04-10T08:15:52+00:00</time>
        <ele>2608.0</ele>
      </trkpt>
      <trkpt lat="44.30673" lon="6.82815">
        <time>2023-04-10T08:15:53+00:00</time>
        <ele>2608.0</ele>
      </trkpt>
      <trkpt lat="44.3067" lon="6.82814">
        <time>2023-04-10T08:15:54+00:00</time>
        <ele>2609.0</ele>
      </trkpt>
      <trkpt lat="44.3067" lon="6.82814">
        <time>2023-04-10T08:15:55+00:00</time>
        <ele>2609.0</ele>
      </trkpt>
      <trkpt lat="44.3067" lon="6.82814">
        <time>2023-04-10T08:15:56+00:00</time>
        <ele>2609.0</ele>
      </trkpt>
      <trkpt lat="44.30668" lon="6.82814">
        <time>2023-04-10T08:15:57+00:00</time>
        <ele>2610.0</ele>
      </trkpt>
      <trkpt lat="44.30668" lon="6.82814">
        <time>2023-04-10T08:15:58+00:00</time>
        <ele>2610.0</ele>
      </trkpt>
      <trkpt lat="44.30668" lon="6.82814">
        <time>2023-04-10T08:15:59+00:00</time>
        <ele>2610.0</ele>
      </trkpt>
      <trkpt lat="44.30666" lon="6.82813">
        <time>2023-04-10T08:16:00+00:00</time>
        <ele>2610.0</ele>
      </trkpt>
      <trkpt lat="44.30666" lon="6.82813">
        <time>2023-04-10T08:16:01+00:00</time>
        <ele>2610.0</ele>
      </trkpt>
      <trkpt lat="44.30664" lon="6.82813">
        <time>2023-04-10T08:16:02+00:00</time>
        <ele>2611.0</ele>
      </trkpt>
      <trkpt lat="44.30664" lon="6.82813">
        <time>2023-04-10T08:16:03+00:00</time>
        <ele>2611.0</ele>
      </trkpt>
      <trkpt lat="44.30664" lon="6.82813">
        <time>2023-04-10T08:16:04+00:00</time>
        <ele>2611.0</ele>
      </trkpt>
      <trkpt lat="44.30662" lon="6.82812">
        <time>2023-04-10T08:16:05+00:00</time>
        <ele>2611.0</ele>
      </trkpt>
      <trkpt lat="44.30662" lon="6.82812">
        <time>2023-04-10T08:16:06+00:00</time>
        <ele>2611.0</ele>
      </trkpt>
      <trkpt lat="44.30662" lon="6.82812">
        <time>2023-04-10T08:16:07+00:00</time>
        <ele>2611.0</ele>
      </trkpt>
      <trkpt lat="44.30662" lon="6.82812">
        <time>2023-04-10T08:16:08+00:00</time>
        <ele>2611.0</ele>
      </trkpt>
      <trkpt lat="44.3066" lon="6.82811">
        <time>2023-04-10T08:16:09+00:00</time>
        <ele>2612.0</ele>
      </trkpt>
      <trkpt lat="44.3066" lon="6.82811">
        <time>2023-04-10T08:16:10+00:00</time>
        <ele>2612.0</ele>
      </trkpt>
      <trkpt lat="44.3066" lon="6.82811">
        <time>2023-04-10T08:16:11+00:00</time>
        <ele>2612.0</ele>
      </trkpt>
      <trkpt lat="44.30658" lon="6.82812">
        <time>2023-04-10T08:16:12+00:00</time>
        <ele>2613.0</ele>
      </trkpt>
      <trkpt lat="44.30658" lon="6.82812">
        <time>2023-04-10T08:16:13+00:00</time>
        <ele>2613.0</ele>
      </trkpt>
      <trkpt lat="44.30658" lon="6.82812">
        <time>2023-04-10T08:16:14+00:00</time>
        <ele>2613.0</ele>
      </trkpt>
      <trkpt lat="44.30656" lon="6.82813">
        <time>2023-04-10T08:16:15+00:00</time>
        <ele>2613.0</ele>
      </trkpt>
      <trkpt lat="44.30656" lon="6.82813">
        <time>2023-04-10T08:16:16+00:00</time>
        <ele>2613.0</ele>
      </trkpt>
      <trkpt lat="44.30656" lon="6.82813">
        <time>2023-04-10T08:16:17+00:00</time>
        <ele>2613.0</ele>
      </trkpt>
      <trkpt lat="44.30654" lon="6.82814">
        <time>2023-04-10T08:16:18+00:00</time>
        <ele>2614.0</ele>
      </trkpt>
      <trkpt lat="44.30654" lon="6.82814">
        <time>2023-04-10T08:16:19+00:00</time>
        <ele>2614.0</ele>
      </trkpt>
      <trkpt lat="44.30654" lon="6.82814">
        <time>2023-04-10T08:16:20+00:00</time>
        <ele>2614.0</ele>
      </trkpt>
      <trkpt lat="44.30652" lon="6.82814">
        <time>2023-04-10T08:16:21+00:00</time>
        <ele>2614.0</ele>
      </trkpt>
      <trkpt lat="44.30652" lon="6.82814">
        <time>2023-04-10T08:16:22+00:00</time>
        <ele>2614.0</ele>
      </trkpt>
      <trkpt lat="44.30652" lon="6.82814">
        <time>2023-04-10T08:16:23+00:00</time>
        <ele>2614.0</ele>
      </trkpt>
      <trkpt lat="44.30652" lon="6.82814">
        <time>2023-04-10T08:16:24+00:00</time>
        <ele>2614.0</ele>
      </trkpt>
      <trkpt lat="44.3065" lon="6.82813">
        <time>2023-04-10T08:16:25+00:00</time>
        <ele>2615.0</ele>
      </trkpt>
      <trkpt lat="44.3065" lon="6.82813">
        <time>2023-04-10T08:16:26+00:00</time>
        <ele>2615.0</ele>
      </trkpt>
      <trkpt lat="44.3065" lon="6.82813">
        <time>2023-04-10T08:16:27+00:00</time>
        <ele>2615.0</ele>
      </trkpt>
      <trkpt lat="44.30648" lon="6.82813">
        <time>2023-04-10T08:16:28+00:00</time>
        <ele>2616.0</ele>
      </trkpt>
      <trkpt lat="44.30648" lon="6.82813">
        <time>2023-04-10T08:16:29+00:00</time>
        <ele>2616.0</ele>
      </trkpt>
      <trkpt lat="44.30648" lon="6.82813">
        <time>2023-04-10T08:16:30+00:00</time>
        <ele>2616.0</ele>
      </trkpt>
      <trkpt lat="44.30646" lon="6.82812">
        <time>2023-04-10T08:16:31+00:00</time>
        <ele>2617.0</ele>
      </trkpt>
      <trkpt lat="44.30646" lon="6.82812">
        <time>2023-04-10T08:16:32+00:00</time>
        <ele>2617.0</ele>
      </trkpt>
      <trkpt lat="44.30646" lon="6.82812">
        <time>2023-04-10T08:16:33+00:00</time>
        <ele>2617.0</ele>
      </trkpt>
      <trkpt lat="44.30644" lon="6.82811">
        <time>2023-04-10T08:16:34+00:00</time>
        <ele>2618.0</ele>
      </trkpt>
      <trkpt lat="44.30644" lon="6.82811">
        <time>2023-04-10T08:16:35+00:00</time>
        <ele>2618.0</ele>
      </trkpt>
      <trkpt lat="44.30644" lon="6.82811">
        <time>2023-04-10T08:16:36+00:00</time>
        <ele>2618.0</ele>
      </trkpt>
      <trkpt lat="44.30644" lon="6.82811">
        <time>2023-04-10T08:16:37+00:00</time>
        <ele>2618.0</ele>
      </trkpt>
      <trkpt lat="44.30642" lon="6.8281">
        <time>2023-04-10T08:16:38+00:00</time>
        <ele>2619.0</ele>
      </trkpt>
      <trkpt lat="44.30642" lon="6.8281">
        <time>2023-04-10T08:16:39+00:00</time>
        <ele>2619.0</ele>
      </trkpt>
      <trkpt lat="44.30642" lon="6.8281">
        <time>2023-04-10T08:16:40+00:00</time>
        <ele>2619.0</ele>
      </trkpt>
      <trkpt lat="44.3064" lon="6.82809">
        <time>2023-04-10T08:16:41+00:00</time>
        <ele>2620.0</ele>
      </trkpt>
      <trkpt lat="44.3064" lon="6.82809">
        <time>2023-04-10T08:16:42+00:00</time>
        <ele>2620.0</ele>
      </trkpt>
      <trkpt lat="44.3064" lon="6.82809">
        <time>2023-04-10T08:16:43+00:00</time>
        <ele>2620.0</ele>
      </trkpt>
      <trkpt lat="44.3064" lon="6.82809">
        <time>2023-04-10T08:16:44+00:00</time>
        <ele>2620.0</ele>
      </trkpt>
      <trkpt lat="44.30638" lon="6.82808">
        <time>2023-04-10T08:16:45+00:00</time>
        <ele>2622.0</ele>
      </trkpt>
      <trkpt lat="44.30638" lon="6.82808">
        <time>2023-04-10T08:16:46+00:00</time>
        <ele>2622.0</ele>
      </trkpt>
      <trkpt lat="44.30638" lon="6.82808">
        <time>2023-04-10T08:16:47+00:00</time>
        <ele>2622.0</ele>
      </trkpt>
      <trkpt lat="44.30636" lon="6.82808">
        <time>2023-04-10T08:16:48+00:00</time>
        <ele>2622.0</ele>
      </trkpt>
      <trkpt lat="44.30636" lon="6.82808">
        <time>2023-04-10T08:16:49+00:00</time>
        <ele>2622.0</ele>
      </trkpt>
      <trkpt lat="44.30636" lon="6.82808">
        <time>2023-04-10T08:16:50+00:00</time>
        <ele>2622.0</ele>
      </trkpt>
      <trkpt lat="44.30634" lon="6.82809">
        <time>2023-04-10T08:16:51+00:00</time>
        <ele>2623.0</ele>
      </trkpt>
      <trkpt lat="44.30634" lon="6.82809">
        <time>2023-04-10T08:16:52+00:00</time>
        <ele>2623.0</ele>
      </trkpt>
      <trkpt lat="44.30634" lon="6.82809">
        <time>2023-04-10T08:16:53+00:00</time>
        <ele>2623.0</ele>
      </trkpt>
      <trkpt lat="44.30632" lon="6.82809">
        <time>2023-04-10T08:16:54+00:00</time>
        <ele>2624.0</ele>
      </trkpt>
      <trkpt lat="44.30632" lon="6.82809">
        <time>2023-04-10T08:16:55+00:00</time>
        <ele>2624.0</ele>
      </trkpt>
      <trkpt lat="44.30632" lon="6.82809">
        <time>2023-04-10T08:16:56+00:00</time>
        <ele>2624.0</ele>
      </trkpt>
      <trkpt lat="44.3063" lon="6.82809">
        <time>2023-04-10T08:16:57+00:00</time>
        <ele>2625.0</ele>
      </trkpt>
      <trkpt lat="44.3063" lon="6.82809">
        <time>2023-04-10T08:16:58+00:00</time>
        <ele>2625.0</ele>
      </trkpt>
      <trkpt lat="44.3063" lon="6.82809">
        <time>2023-04-10T08:16:59+00:00</time>
        <ele>2625.0</ele>
      </trkpt>
      <trkpt lat="44.30629" lon="6.82807">
        <time>2023-04-10T08:17:00+00:00</time>
        <ele>2626.0</ele>
      </trkpt>
      <trkpt lat="44.30629" lon="6.82807">
        <time>2023-04-10T08:17:01+00:00</time>
        <ele>2626.0</ele>
      </trkpt>
      <trkpt lat="44.30629" lon="6.82807">
        <time>2023-04-10T08:17:02+00:00</time>
        <ele>2626.0</ele>
      </trkpt>
      <trkpt lat="44.30628" lon="6.82806">
        <time>2023-04-10T08:17:03+00:00</time>
        <ele>2627.0</ele>
      </trkpt>
      <trkpt lat="44.30628" lon="6.82806">
        <time>2023-04-10T08:17:04+00:00</time>
        <ele>2627.0</ele>
      </trkpt>
      <trkpt lat="44.30628" lon="6.82806">
        <time>2023-04-10T08:17:05+00:00</time>
        <ele>2627.0</ele>
      </trkpt>
      <trkpt lat="44.30628" lon="6.82806">
        <time>2023-04-10T08:17:06+00:00</time>
        <ele>2627.0</ele>
      </trkpt>
      <trkpt lat="44.30628" lon="6.82806">
        <time>2023-04-10T08:17:07+00:00</time>
        <ele>2627.0</ele>
      </trkpt>
      <trkpt lat="44.30625" lon="6.82806">
        <time>2023-04-10T08:17:08+00:00</time>
        <ele>2628.0</ele>
      </trkpt>
      <trkpt lat="44.30625" lon="6.82806">
        <time>2023-04-10T08:17:09+00:00</time>
        <ele>2628.0</ele>
      </trkpt>
      <trkpt lat="44.30625" lon="6.82806">
        <time>2023-04-10T08:17:10+00:00</time>
        <ele>2628.0</ele>
      </trkpt>
      <trkpt lat="44.30625" lon="6.82806">
        <time>2023-04-10T08:17:11+00:00</time>
        <ele>2628.0</ele>
      </trkpt>
      <trkpt lat="44.30623" lon="6.82805">
        <time>2023-04-10T08:17:12+00:00</time>
        <ele>2629.0</ele>
      </trkpt>
      <trkpt lat="44.30623" lon="6.82805">
        <time>2023-04-10T08:17:13+00:00</time>
        <ele>2629.0</ele>
      </trkpt>
      <trkpt lat="44.30623" lon="6.82805">
        <time>2023-04-10T08:17:14+00:00</time>
        <ele>2629.0</ele>
      </trkpt>
      <trkpt lat="44.30621" lon="6.82803">
        <time>2023-04-10T08:17:15+00:00</time>
        <ele>2630.0</ele>
      </trkpt>
      <trkpt lat="44.30621" lon="6.82803">
        <time>2023-04-10T08:17:16+00:00</time>
        <ele>2630.0</ele>
      </trkpt>
      <trkpt lat="44.30621" lon="6.82803">
        <time>2023-04-10T08:17:17+00:00</time>
        <ele>2630.0</ele>
      </trkpt>
      <trkpt lat="44.3062" lon="6.82801">
        <time>2023-04-10T08:17:18+00:00</time>
        <ele>2631.0</ele>
      </trkpt>
      <trkpt lat="44.3062" lon="6.82801">
        <time>2023-04-10T08:17:19+00:00</time>
        <ele>2631.0</ele>
      </trkpt>
      <trkpt lat="44.3062" lon="6.82801">
        <time>2023-04-10T08:17:20+00:00</time>
        <ele>2631.0</ele>
      </trkpt>
      <trkpt lat="44.3062" lon="6.82801">
        <time>2023-04-10T08:17:21+00:00</time>
        <ele>2631.0</ele>
      </trkpt>
      <trkpt lat="44.30619" lon="6.82799">
        <time>2023-04-10T08:17:22+00:00</time>
        <ele>2632.0</ele>
      </trkpt>
      <trkpt lat="44.30619" lon="6.82799">
        <time>2023-04-10T08:17:23+00:00</time>
        <ele>2632.0</ele>
      </trkpt>
      <trkpt lat="44.30619" lon="6.82799">
        <time>2023-04-10T08:17:24+00:00</time>
        <ele>2632.0</ele>
      </trkpt>
      <trkpt lat="44.30618" lon="6.82796">
        <time>2023-04-10T08:17:25+00:00</time>
        <ele>2634.0</ele>
      </trkpt>
      <trkpt lat="44.30618" lon="6.82796">
        <time>2023-04-10T08:17:26+00:00</time>
        <ele>2634.0</ele>
      </trkpt>
      <trkpt lat="44.30618" lon="6.82796">
        <time>2023-04-10T08:17:27+00:00</time>
        <ele>2634.0</ele>
      </trkpt>
      <trkpt lat="44.30618" lon="6.82796">
        <time>2023-04-10T08:17:28+00:00</time>
        <ele>2634.0</ele>
      </trkpt>
      <trkpt lat="44.30616" lon="6.82794">
        <time>2023-04-10T08:17:29+00:00</time>
        <ele>2635.0</ele>
      </trkpt>
      <trkpt lat="44.30616" lon="6.82794">
        <time>2023-04-10T08:17:30+00:00</time>
        <ele>2635.0</ele>
      </trkpt>
      <trkpt lat="44.30616" lon="6.82794">
        <time>2023-04-10T08:17:31+00:00</time>
        <ele>2635.0</ele>
      </trkpt>
      <trkpt lat="44.30616" lon="6.82794">
        <time>2023-04-10T08:17:32+00:00</time>
        <ele>2635.0</ele>
      </trkpt>
      <trkpt lat="44.30616" lon="6.82794">
        <time>2023-04-10T08:17:33+00:00</time>
        <ele>2635.0</ele>
      </trkpt>
      <trkpt lat="44.30614" lon="6.82796">
        <time>2023-04-10T08:17:34+00:00</time>
        <ele>2636.0</ele>
      </trkpt>
      <trkpt lat="44.30614" lon="6.82796">
        <time>2023-04-10T08:17:35+00:00</time>
        <ele>2636.0</ele>
      </trkpt>
      <trkpt lat="44.30614" lon="6.82796">
        <time>2023-04-10T08:17:36+00:00</time>
        <ele>2636.0</ele>
      </trkpt>
      <trkpt lat="44.30613" lon="6.82798">
        <time>2023-04-10T08:17:37+00:00</time>
        <ele>2636.0</ele>
      </trkpt>
      <trkpt lat="44.30613" lon="6.82798">
        <time>2023-04-10T08:17:38+00:00</time>
        <ele>2636.0</ele>
      </trkpt>
      <trkpt lat="44.30613" lon="6.82798">
        <time>2023-04-10T08:17:39+00:00</time>
        <ele>2636.0</ele>
      </trkpt>
      <trkpt lat="44.30611" lon="6.82799">
        <time>2023-04-10T08:17:40+00:00</time>
        <ele>2637.0</ele>
      </trkpt>
      <trkpt lat="44.30611" lon="6.82799">
        <time>2023-04-10T08:17:41+00:00</time>
        <ele>2637.0</ele>
      </trkpt>
      <trkpt lat="44.30611" lon="6.82799">
        <time>2023-04-10T08:17:42+00:00</time>
        <ele>2637.0</ele>
      </trkpt>
      <trkpt lat="44.30611" lon="6.82799">
        <time>2023-04-10T08:17:43+00:00</time>
        <ele>2637.0</ele>
      </trkpt>
      <trkpt lat="44.3061" lon="6.82796">
        <time>2023-04-10T08:17:44+00:00</time>
        <ele>2638.0</ele>
      </trkpt>
      <trkpt lat="44.3061" lon="6.82796">
        <time>2023-04-10T08:17:45+00:00</time>
        <ele>2638.0</ele>
      </trkpt>
      <trkpt lat="44.3061" lon="6.82796">
        <time>2023-04-10T08:17:46+00:00</time>
        <ele>2638.0</ele>
      </trkpt>
      <trkpt lat="44.30609" lon="6.82794">
        <time>2023-04-10T08:17:47+00:00</time>
        <ele>2639.0</ele>
      </trkpt>
      <trkpt lat="44.30609" lon="6.82794">
        <time>2023-04-10T08:17:48+00:00</time>
        <ele>2639.0</ele>
      </trkpt>
      <trkpt lat="44.30609" lon="6.82794">
        <time>2023-04-10T08:17:49+00:00</time>
        <ele>2639.0</ele>
      </trkpt>
      <trkpt lat="44.30609" lon="6.82794">
        <time>2023-04-10T08:17:50+00:00</time>
        <ele>2639.0</ele>
      </trkpt>
      <trkpt lat="44.30609" lon="6.82794">
        <time>2023-04-10T08:17:51+00:00</time>
        <ele>2639.0</ele>
      </trkpt>
      <trkpt lat="44.30609" lon="6.82794">
        <time>2023-04-10T08:17:52+00:00</time>
        <ele>2639.0</ele>
      </trkpt>
      <trkpt lat="44.30609" lon="6.82794">
        <time>2023-04-10T08:17:53+00:00</time>
        <ele>2639.0</ele>
      </trkpt>
      <trkpt lat="44.30607" lon="6.82796">
        <time>2023-04-10T08:17:54+00:00</time>
        <ele>2639.0</ele>
      </trkpt>
      <trkpt lat="44.30607" lon="6.82796">
        <time>2023-04-10T08:17:55+00:00</time>
        <ele>2639.0</ele>
      </trkpt>
      <trkpt lat="44.30607" lon="6.82796">
        <time>2023-04-10T08:17:56+00:00</time>
        <ele>2639.0</ele>
      </trkpt>
      <trkpt lat="44.30607" lon="6.82796">
        <time>2023-04-10T08:17:57+00:00</time>
        <ele>2639.0</ele>
      </trkpt>
      <trkpt lat="44.30605" lon="6.82799">
        <time>2023-04-10T08:17:58+00:00</time>
        <ele>2640.0</ele>
      </trkpt>
      <trkpt lat="44.30605" lon="6.82799">
        <time>2023-04-10T08:17:59+00:00</time>
        <ele>2640.0</ele>
      </trkpt>
      <trkpt lat="44.30605" lon="6.82799">
        <time>2023-04-10T08:18:00+00:00</time>
        <ele>2640.0</ele>
      </trkpt>
      <trkpt lat="44.30604" lon="6.82801">
        <time>2023-04-10T08:18:01+00:00</time>
        <ele>2640.0</ele>
      </trkpt>
      <trkpt lat="44.30604" lon="6.82801">
        <time>2023-04-10T08:18:02+00:00</time>
        <ele>2640.0</ele>
      </trkpt>
      <trkpt lat="44.30604" lon="6.82801">
        <time>2023-04-10T08:18:03+00:00</time>
        <ele>2640.0</ele>
      </trkpt>
      <trkpt lat="44.30604" lon="6.82801">
        <time>2023-04-10T08:18:04+00:00</time>
        <ele>2640.0</ele>
      </trkpt>
      <trkpt lat="44.30602" lon="6.828">
        <time>2023-04-10T08:18:05+00:00</time>
        <ele>2641.0</ele>
      </trkpt>
      <trkpt lat="44.30602" lon="6.828">
        <time>2023-04-10T08:18:06+00:00</time>
        <ele>2641.0</ele>
      </trkpt>
      <trkpt lat="44.30602" lon="6.828">
        <time>2023-04-10T08:18:07+00:00</time>
        <ele>2641.0</ele>
      </trkpt>
      <trkpt lat="44.30602" lon="6.828">
        <time>2023-04-10T08:18:08+00:00</time>
        <ele>2641.0</ele>
      </trkpt>
      <trkpt lat="44.30601" lon="6.82797">
        <time>2023-04-10T08:18:09+00:00</time>
        <ele>2642.0</ele>
      </trkpt>
      <trkpt lat="44.30601" lon="6.82797">
        <time>2023-04-10T08:18:10+00:00</time>
        <ele>2642.0</ele>
      </trkpt>
      <trkpt lat="44.30601" lon="6.82797">
        <time>2023-04-10T08:18:11+00:00</time>
        <ele>2642.0</ele>
      </trkpt>
      <trkpt lat="44.30601" lon="6.82797">
        <time>2023-04-10T08:18:12+00:00</time>
        <ele>2642.0</ele>
      </trkpt>
      <trkpt lat="44.306" lon="6.82794">
        <time>2023-04-10T08:18:13+00:00</time>
        <ele>2643.0</ele>
      </trkpt>
      <trkpt lat="44.306" lon="6.82794">
        <time>2023-04-10T08:18:14+00:00</time>
        <ele>2643.0</ele>
      </trkpt>
      <trkpt lat="44.306" lon="6.82794">
        <time>2023-04-10T08:18:15+00:00</time>
        <ele>2643.0</ele>
      </trkpt>
      <trkpt lat="44.306" lon="6.82794">
        <time>2023-04-10T08:18:16+00:00</time>
        <ele>2643.0</ele>
      </trkpt>
      <trkpt lat="44.306" lon="6.82794">
        <time>2023-04-10T08:18:17+00:00</time>
        <ele>2643.0</ele>
      </trkpt>
      <trkpt lat="44.306" lon="6.82794">
        <time>2023-04-10T08:18:18+00:00</time>
        <ele>2643.0</ele>
      </trkpt>
      <trkpt lat="44.306" lon="6.82794">
        <time>2023-04-10T08:18:19+00:00</time>
        <ele>2643.0</ele>
      </trkpt>
      <trkpt lat="44.30599" lon="6.82797">
        <time>2023-04-10T08:18:20+00:00</time>
        <ele>2643.0</ele>
      </trkpt>
      <trkpt lat="44.30599" lon="6.82797">
        <time>2023-04-10T08:18:21+00:00</time>
        <ele>2643.0</ele>
      </trkpt>
      <trkpt lat="44.30599" lon="6.82797">
        <time>2023-04-10T08:18:22+00:00</time>
        <ele>2643.0</ele>
      </trkpt>
      <trkpt lat="44.30598" lon="6.82798">
        <time>2023-04-10T08:18:23+00:00</time>
        <ele>2643.0</ele>
      </trkpt>
      <trkpt lat="44.30598" lon="6.82798">
        <time>2023-04-10T08:18:24+00:00</time>
        <ele>2643.0</ele>
      </trkpt>
      <trkpt lat="44.30598" lon="6.82798">
        <time>2023-04-10T08:18:25+00:00</time>
        <ele>2643.0</ele>
      </trkpt>
      <trkpt lat="44.30598" lon="6.82798">
        <time>2023-04-10T08:18:26+00:00</time>
        <ele>2643.0</ele>
      </trkpt>
      <trkpt lat="44.30596" lon="6.828">
        <time>2023-04-10T08:18:27+00:00</time>
        <ele>2644.0</ele>
      </trkpt>
      <trkpt lat="44.30596" lon="6.828">
        <time>2023-04-10T08:18:28+00:00</time>
        <ele>2644.0</ele>
      </trkpt>
      <trkpt lat="44.30594" lon="6.82801">
        <time>2023-04-10T08:18:29+00:00</time>
        <ele>2644.0</ele>
      </trkpt>
      <trkpt lat="44.30594" lon="6.82801">
        <time>2023-04-10T08:18:30+00:00</time>
        <ele>2644.0</ele>
      </trkpt>
      <trkpt lat="44.30594" lon="6.82801">
        <time>2023-04-10T08:18:31+00:00</time>
        <ele>2644.0</ele>
      </trkpt>
      <trkpt lat="44.30594" lon="6.82801">
        <time>2023-04-10T08:18:32+00:00</time>
        <ele>2644.0</ele>
      </trkpt>
      <trkpt lat="44.30592" lon="6.82799">
        <time>2023-04-10T08:18:33+00:00</time>
        <ele>2646.0</ele>
      </trkpt>
      <trkpt lat="44.30592" lon="6.82799">
        <time>2023-04-10T08:18:34+00:00</time>
        <ele>2646.0</ele>
      </trkpt>
      <trkpt lat="44.30592" lon="6.82799">
        <time>2023-04-10T08:18:35+00:00</time>
        <ele>2646.0</ele>
      </trkpt>
      <trkpt lat="44.30592" lon="6.82799">
        <time>2023-04-10T08:18:36+00:00</time>
        <ele>2646.0</ele>
      </trkpt>
      <trkpt lat="44.30592" lon="6.82796">
        <time>2023-04-10T08:18:37+00:00</time>
        <ele>2646.0</ele>
      </trkpt>
      <trkpt lat="44.30592" lon="6.82796">
        <time>2023-04-10T08:18:38+00:00</time>
        <ele>2646.0</ele>
      </trkpt>
      <trkpt lat="44.30592" lon="6.82796">
        <time>2023-04-10T08:18:39+00:00</time>
        <ele>2646.0</ele>
      </trkpt>
      <trkpt lat="44.30591" lon="6.82794">
        <time>2023-04-10T08:18:40+00:00</time>
        <ele>2647.0</ele>
      </trkpt>
      <trkpt lat="44.30591" lon="6.82794">
        <time>2023-04-10T08:18:41+00:00</time>
        <ele>2647.0</ele>
      </trkpt>
      <trkpt lat="44.30591" lon="6.82794">
        <time>2023-04-10T08:18:42+00:00</time>
        <ele>2647.0</ele>
      </trkpt>
      <trkpt lat="44.3059" lon="6.82791">
        <time>2023-04-10T08:18:43+00:00</time>
        <ele>2648.0</ele>
      </trkpt>
      <trkpt lat="44.3059" lon="6.82791">
        <time>2023-04-10T08:18:44+00:00</time>
        <ele>2648.0</ele>
      </trkpt>
      <trkpt lat="44.3059" lon="6.82791">
        <time>2023-04-10T08:18:45+00:00</time>
        <ele>2648.0</ele>
      </trkpt>
      <trkpt lat="44.30589" lon="6.82789">
        <time>2023-04-10T08:18:46+00:00</time>
        <ele>2649.0</ele>
      </trkpt>
      <trkpt lat="44.30589" lon="6.82789">
        <time>2023-04-10T08:18:47+00:00</time>
        <ele>2649.0</ele>
      </trkpt>
      <trkpt lat="44.30589" lon="6.82789">
        <time>2023-04-10T08:18:48+00:00</time>
        <ele>2649.0</ele>
      </trkpt>
      <trkpt lat="44.30589" lon="6.82789">
        <time>2023-04-10T08:18:49+00:00</time>
        <ele>2649.0</ele>
      </trkpt>
      <trkpt lat="44.30589" lon="6.82789">
        <time>2023-04-10T08:18:50+00:00</time>
        <ele>2649.0</ele>
      </trkpt>
      <trkpt lat="44.30589" lon="6.82789">
        <time>2023-04-10T08:18:51+00:00</time>
        <ele>2649.0</ele>
      </trkpt>
      <trkpt lat="44.30587" lon="6.8279">
        <time>2023-04-10T08:18:52+00:00</time>
        <ele>2650.0</ele>
      </trkpt>
      <trkpt lat="44.30587" lon="6.8279">
        <time>2023-04-10T08:18:53+00:00</time>
        <ele>2650.0</ele>
      </trkpt>
      <trkpt lat="44.30587" lon="6.8279">
        <time>2023-04-10T08:18:54+00:00</time>
        <ele>2650.0</ele>
      </trkpt>
      <trkpt lat="44.30585" lon="6.82792">
        <time>2023-04-10T08:18:55+00:00</time>
        <ele>2650.0</ele>
      </trkpt>
      <trkpt lat="44.30585" lon="6.82792">
        <time>2023-04-10T08:18:56+00:00</time>
        <ele>2650.0</ele>
      </trkpt>
      <trkpt lat="44.30583" lon="6.82792">
        <time>2023-04-10T08:18:57+00:00</time>
        <ele>2651.0</ele>
      </trkpt>
      <trkpt lat="44.30583" lon="6.82792">
        <time>2023-04-10T08:18:58+00:00</time>
        <ele>2651.0</ele>
      </trkpt>
      <trkpt lat="44.30583" lon="6.82792">
        <time>2023-04-10T08:18:59+00:00</time>
        <ele>2651.0</ele>
      </trkpt>
      <trkpt lat="44.30581" lon="6.82792">
        <time>2023-04-10T08:19:00+00:00</time>
        <ele>2651.0</ele>
      </trkpt>
      <trkpt lat="44.30581" lon="6.82792">
        <time>2023-04-10T08:19:01+00:00</time>
        <ele>2651.0</ele>
      </trkpt>
      <trkpt lat="44.30581" lon="6.82792">
        <time>2023-04-10T08:19:02+00:00</time>
        <ele>2651.0</ele>
      </trkpt>
      <trkpt lat="44.30579" lon="6.82792">
        <time>2023-04-10T08:19:03+00:00</time>
        <ele>2652.0</ele>
      </trkpt>
      <trkpt lat="44.30579" lon="6.82792">
        <time>2023-04-10T08:19:04+00:00</time>
        <ele>2652.0</ele>
      </trkpt>
      <trkpt lat="44.30579" lon="6.82792">
        <time>2023-04-10T08:19:05+00:00</time>
        <ele>2652.0</ele>
      </trkpt>
      <trkpt lat="44.30577" lon="6.82791">
        <time>2023-04-10T08:19:06+00:00</time>
        <ele>2653.0</ele>
      </trkpt>
      <trkpt lat="44.30577" lon="6.82791">
        <time>2023-04-10T08:19:07+00:00</time>
        <ele>2653.0</ele>
      </trkpt>
      <trkpt lat="44.30577" lon="6.82791">
        <time>2023-04-10T08:19:08+00:00</time>
        <ele>2653.0</ele>
      </trkpt>
      <trkpt lat="44.30574" lon="6.82791">
        <time>2023-04-10T08:19:09+00:00</time>
        <ele>2654.0</ele>
      </trkpt>
      <trkpt lat="44.30574" lon="6.82791">
        <time>2023-04-10T08:19:10+00:00</time>
        <ele>2654.0</ele>
      </trkpt>
      <trkpt lat="44.30574" lon="6.82791">
        <time>2023-04-10T08:19:11+00:00</time>
        <ele>2654.0</ele>
      </trkpt>
      <trkpt lat="44.30573" lon="6.8279">
        <time>2023-04-10T08:19:12+00:00</time>
        <ele>2654.0</ele>
      </trkpt>
      <trkpt lat="44.30573" lon="6.8279">
        <time>2023-04-10T08:19:13+00:00</time>
        <ele>2654.0</ele>
      </trkpt>
      <trkpt lat="44.30573" lon="6.8279">
        <time>2023-04-10T08:19:14+00:00</time>
        <ele>2654.0</ele>
      </trkpt>
      <trkpt lat="44.3057" lon="6.8279">
        <time>2023-04-10T08:19:15+00:00</time>
        <ele>2655.0</ele>
      </trkpt>
      <trkpt lat="44.3057" lon="6.8279">
        <time>2023-04-10T08:19:16+00:00</time>
        <ele>2655.0</ele>
      </trkpt>
      <trkpt lat="44.3057" lon="6.8279">
        <time>2023-04-10T08:19:17+00:00</time>
        <ele>2655.0</ele>
      </trkpt>
      <trkpt lat="44.30568" lon="6.82789">
        <time>2023-04-10T08:19:18+00:00</time>
        <ele>2656.0</ele>
      </trkpt>
      <trkpt lat="44.30568" lon="6.82789">
        <time>2023-04-10T08:19:19+00:00</time>
        <ele>2656.0</ele>
      </trkpt>
      <trkpt lat="44.30568" lon="6.82789">
        <time>2023-04-10T08:19:20+00:00</time>
        <ele>2656.0</ele>
      </trkpt>
      <trkpt lat="44.30566" lon="6.82789">
        <time>2023-04-10T08:19:21+00:00</time>
        <ele>2656.0</ele>
      </trkpt>
      <trkpt lat="44.30566" lon="6.82789">
        <time>2023-04-10T08:19:22+00:00</time>
        <ele>2656.0</ele>
      </trkpt>
      <trkpt lat="44.30566" lon="6.82789">
        <time>2023-04-10T08:19:23+00:00</time>
        <ele>2656.0</ele>
      </trkpt>
      <trkpt lat="44.30564" lon="6.82788">
        <time>2023-04-10T08:19:24+00:00</time>
        <ele>2657.0</ele>
      </trkpt>
      <trkpt lat="44.30564" lon="6.82788">
        <time>2023-04-10T08:19:25+00:00</time>
        <ele>2657.0</ele>
      </trkpt>
      <trkpt lat="44.30564" lon="6.82788">
        <time>2023-04-10T08:19:26+00:00</time>
        <ele>2657.0</ele>
      </trkpt>
      <trkpt lat="44.30562" lon="6.82788">
        <time>2023-04-10T08:19:27+00:00</time>
        <ele>2657.0</ele>
      </trkpt>
      <trkpt lat="44.30562" lon="6.82788">
        <time>2023-04-10T08:19:28+00:00</time>
        <ele>2657.0</ele>
      </trkpt>
      <trkpt lat="44.30562" lon="6.82788">
        <time>2023-04-10T08:19:29+00:00</time>
        <ele>2657.0</ele>
      </trkpt>
      <trkpt lat="44.3056" lon="6.82787">
        <time>2023-04-10T08:19:30+00:00</time>
        <ele>2658.0</ele>
      </trkpt>
      <trkpt lat="44.3056" lon="6.82787">
        <time>2023-04-10T08:19:31+00:00</time>
        <ele>2658.0</ele>
      </trkpt>
      <trkpt lat="44.3056" lon="6.82787">
        <time>2023-04-10T08:19:32+00:00</time>
        <ele>2658.0</ele>
      </trkpt>
      <trkpt lat="44.30558" lon="6.82785">
        <time>2023-04-10T08:19:33+00:00</time>
        <ele>2659.0</ele>
      </trkpt>
      <trkpt lat="44.30558" lon="6.82785">
        <time>2023-04-10T08:19:34+00:00</time>
        <ele>2659.0</ele>
      </trkpt>
      <trkpt lat="44.30558" lon="6.82785">
        <time>2023-04-10T08:19:35+00:00</time>
        <ele>2659.0</ele>
      </trkpt>
      <trkpt lat="44.30558" lon="6.82782">
        <time>2023-04-10T08:19:36+00:00</time>
        <ele>2660.0</ele>
      </trkpt>
      <trkpt lat="44.30558" lon="6.82782">
        <time>2023-04-10T08:19:37+00:00</time>
        <ele>2660.0</ele>
      </trkpt>
      <trkpt lat="44.30558" lon="6.82782">
        <time>2023-04-10T08:19:38+00:00</time>
        <ele>2660.0</ele>
      </trkpt>
      <trkpt lat="44.30558" lon="6.82782">
        <time>2023-04-10T08:19:39+00:00</time>
        <ele>2660.0</ele>
      </trkpt>
      <trkpt lat="44.30558" lon="6.82779">
        <time>2023-04-10T08:19:40+00:00</time>
        <ele>2661.0</ele>
      </trkpt>
      <trkpt lat="44.30558" lon="6.82779">
        <time>2023-04-10T08:19:41+00:00</time>
        <ele>2661.0</ele>
      </trkpt>
      <trkpt lat="44.30558" lon="6.82779">
        <time>2023-04-10T08:19:42+00:00</time>
        <ele>2661.0</ele>
      </trkpt>
      <trkpt lat="44.30558" lon="6.82779">
        <time>2023-04-10T08:19:43+00:00</time>
        <ele>2661.0</ele>
      </trkpt>
      <trkpt lat="44.30557" lon="6.82776">
        <time>2023-04-10T08:19:44+00:00</time>
        <ele>2662.0</ele>
      </trkpt>
      <trkpt lat="44.30557" lon="6.82776">
        <time>2023-04-10T08:19:45+00:00</time>
        <ele>2662.0</ele>
      </trkpt>
      <trkpt lat="44.30557" lon="6.82776">
        <time>2023-04-10T08:19:46+00:00</time>
        <ele>2662.0</ele>
      </trkpt>
      <trkpt lat="44.30557" lon="6.82776">
        <time>2023-04-10T08:19:47+00:00</time>
        <ele>2662.0</ele>
      </trkpt>
      <trkpt lat="44.30557" lon="6.82776">
        <time>2023-04-10T08:19:48+00:00</time>
        <ele>2662.0</ele>
      </trkpt>
      <trkpt lat="44.30555" lon="6.82775">
        <time>2023-04-10T08:19:49+00:00</time>
        <ele>2662.0</ele>
      </trkpt>
      <trkpt lat="44.30555" lon="6.82775">
        <time>2023-04-10T08:19:50+00:00</time>
        <ele>2662.0</ele>
      </trkpt>
      <trkpt lat="44.30555" lon="6.82775">
        <time>2023-04-10T08:19:51+00:00</time>
        <ele>2662.0</ele>
      </trkpt>
      <trkpt lat="44.30552" lon="6.82776">
        <time>2023-04-10T08:19:52+00:00</time>
        <ele>2663.0</ele>
      </trkpt>
      <trkpt lat="44.30552" lon="6.82776">
        <time>2023-04-10T08:19:53+00:00</time>
        <ele>2663.0</ele>
      </trkpt>
      <trkpt lat="44.30552" lon="6.82776">
        <time>2023-04-10T08:19:54+00:00</time>
        <ele>2663.0</ele>
      </trkpt>
      <trkpt lat="44.3055" lon="6.82777">
        <time>2023-04-10T08:19:55+00:00</time>
        <ele>2664.0</ele>
      </trkpt>
      <trkpt lat="44.3055" lon="6.82777">
        <time>2023-04-10T08:19:56+00:00</time>
        <ele>2664.0</ele>
      </trkpt>
      <trkpt lat="44.3055" lon="6.82777">
        <time>2023-04-10T08:19:57+00:00</time>
        <ele>2664.0</ele>
      </trkpt>
      <trkpt lat="44.30548" lon="6.82778">
        <time>2023-04-10T08:19:58+00:00</time>
        <ele>2664.0</ele>
      </trkpt>
      <trkpt lat="44.30548" lon="6.82778">
        <time>2023-04-10T08:19:59+00:00</time>
        <ele>2664.0</ele>
      </trkpt>
      <trkpt lat="44.30546" lon="6.82779">
        <time>2023-04-10T08:20:00+00:00</time>
        <ele>2664.0</ele>
      </trkpt>
      <trkpt lat="44.30546" lon="6.82779">
        <time>2023-04-10T08:20:02+00:00</time>
        <ele>2664.0</ele>
      </trkpt>
      <trkpt lat="44.30544" lon="6.82779">
        <time>2023-04-10T08:20:03+00:00</time>
        <ele>2665.0</ele>
      </trkpt>
      <trkpt lat="44.30544" lon="6.82779">
        <time>2023-04-10T08:20:04+00:00</time>
        <ele>2665.0</ele>
      </trkpt>
      <trkpt lat="44.30544" lon="6.82779">
        <time>2023-04-10T08:20:05+00:00</time>
        <ele>2665.0</ele>
      </trkpt>
      <trkpt lat="44.30542" lon="6.8278">
        <time>2023-04-10T08:20:06+00:00</time>
        <ele>2665.0</ele>
      </trkpt>
      <trkpt lat="44.30542" lon="6.8278">
        <time>2023-04-10T08:20:07+00:00</time>
        <ele>2665.0</ele>
      </trkpt>
      <trkpt lat="44.30542" lon="6.8278">
        <time>2023-04-10T08:20:08+00:00</time>
        <ele>2665.0</ele>
      </trkpt>
      <trkpt lat="44.30539" lon="6.82781">
        <time>2023-04-10T08:20:09+00:00</time>
        <ele>2665.0</ele>
      </trkpt>
      <trkpt lat="44.30539" lon="6.82781">
        <time>2023-04-10T08:20:10+00:00</time>
        <ele>2665.0</ele>
      </trkpt>
      <trkpt lat="44.30539" lon="6.82781">
        <time>2023-04-10T08:20:11+00:00</time>
        <ele>2665.0</ele>
      </trkpt>
      <trkpt lat="44.30537" lon="6.82782">
        <time>2023-04-10T08:20:12+00:00</time>
        <ele>2665.0</ele>
      </trkpt>
      <trkpt lat="44.30537" lon="6.82782">
        <time>2023-04-10T08:20:13+00:00</time>
        <ele>2665.0</ele>
      </trkpt>
      <trkpt lat="44.30537" lon="6.82782">
        <time>2023-04-10T08:20:14+00:00</time>
        <ele>2665.0</ele>
      </trkpt>
      <trkpt lat="44.30535" lon="6.82783">
        <time>2023-04-10T08:20:15+00:00</time>
        <ele>2666.0</ele>
      </trkpt>
      <trkpt lat="44.30535" lon="6.82783">
        <time>2023-04-10T08:20:16+00:00</time>
        <ele>2666.0</ele>
      </trkpt>
      <trkpt lat="44.30533" lon="6.82783">
        <time>2023-04-10T08:20:17+00:00</time>
        <ele>2666.0</ele>
      </trkpt>
      <trkpt lat="44.30533" lon="6.82783">
        <time>2023-04-10T08:20:18+00:00</time>
        <ele>2666.0</ele>
      </trkpt>
      <trkpt lat="44.30533" lon="6.82783">
        <time>2023-04-10T08:20:19+00:00</time>
        <ele>2666.0</ele>
      </trkpt>
      <trkpt lat="44.3053" lon="6.82784">
        <time>2023-04-10T08:20:20+00:00</time>
        <ele>2666.0</ele>
      </trkpt>
      <trkpt lat="44.3053" lon="6.82784">
        <time>2023-04-10T08:20:21+00:00</time>
        <ele>2666.0</ele>
      </trkpt>
      <trkpt lat="44.3053" lon="6.82784">
        <time>2023-04-10T08:20:22+00:00</time>
        <ele>2666.0</ele>
      </trkpt>
      <trkpt lat="44.30528" lon="6.82784">
        <time>2023-04-10T08:20:23+00:00</time>
        <ele>2667.0</ele>
      </trkpt>
      <trkpt lat="44.30528" lon="6.82784">
        <time>2023-04-10T08:20:24+00:00</time>
        <ele>2667.0</ele>
      </trkpt>
      <trkpt lat="44.30526" lon="6.82785">
        <time>2023-04-10T08:20:25+00:00</time>
        <ele>2667.0</ele>
      </trkpt>
      <trkpt lat="44.30525" lon="6.82787">
        <time>2023-04-10T08:20:27+00:00</time>
        <ele>2667.0</ele>
      </trkpt>
      <trkpt lat="44.30525" lon="6.82787">
        <time>2023-04-10T08:20:28+00:00</time>
        <ele>2667.0</ele>
      </trkpt>
      <trkpt lat="44.30523" lon="6.82788">
        <time>2023-04-10T08:20:29+00:00</time>
        <ele>2667.0</ele>
      </trkpt>
      <trkpt lat="44.30523" lon="6.82788">
        <time>2023-04-10T08:20:30+00:00</time>
        <ele>2667.0</ele>
      </trkpt>
      <trkpt lat="44.30523" lon="6.82788">
        <time>2023-04-10T08:20:31+00:00</time>
        <ele>2667.0</ele>
      </trkpt>
      <trkpt lat="44.30521" lon="6.82789">
        <time>2023-04-10T08:20:32+00:00</time>
        <ele>2667.0</ele>
      </trkpt>
      <trkpt lat="44.30521" lon="6.82789">
        <time>2023-04-10T08:20:33+00:00</time>
        <ele>2667.0</ele>
      </trkpt>
      <trkpt lat="44.30519" lon="6.82791">
        <time>2023-04-10T08:20:34+00:00</time>
        <ele>2667.0</ele>
      </trkpt>
      <trkpt lat="44.30519" lon="6.82791">
        <time>2023-04-10T08:20:35+00:00</time>
        <ele>2667.0</ele>
      </trkpt>
      <trkpt lat="44.30519" lon="6.82791">
        <time>2023-04-10T08:20:36+00:00</time>
        <ele>2667.0</ele>
      </trkpt>
      <trkpt lat="44.30517" lon="6.82792">
        <time>2023-04-10T08:20:37+00:00</time>
        <ele>2667.0</ele>
      </trkpt>
      <trkpt lat="44.30517" lon="6.82792">
        <time>2023-04-10T08:20:38+00:00</time>
        <ele>2667.0</ele>
      </trkpt>
      <trkpt lat="44.30517" lon="6.82792">
        <time>2023-04-10T08:20:39+00:00</time>
        <ele>2667.0</ele>
      </trkpt>
      <trkpt lat="44.30516" lon="6.82794">
        <time>2023-04-10T08:20:40+00:00</time>
        <ele>2667.0</ele>
      </trkpt>
      <trkpt lat="44.30516" lon="6.82794">
        <time>2023-04-10T08:20:41+00:00</time>
        <ele>2667.0</ele>
      </trkpt>
      <trkpt lat="44.30516" lon="6.82794">
        <time>2023-04-10T08:20:42+00:00</time>
        <ele>2667.0</ele>
      </trkpt>
      <trkpt lat="44.30516" lon="6.82794">
        <time>2023-04-10T08:20:43+00:00</time>
        <ele>2667.0</ele>
      </trkpt>
      <trkpt lat="44.30513" lon="6.82797">
        <time>2023-04-10T08:20:44+00:00</time>
        <ele>2667.0</ele>
      </trkpt>
      <trkpt lat="44.30513" lon="6.82797">
        <time>2023-04-10T08:20:46+00:00</time>
        <ele>2667.0</ele>
      </trkpt>
      <trkpt lat="44.30511" lon="6.82799">
        <time>2023-04-10T08:20:47+00:00</time>
        <ele>2668.0</ele>
      </trkpt>
      <trkpt lat="44.30511" lon="6.82799">
        <time>2023-04-10T08:20:48+00:00</time>
        <ele>2668.0</ele>
      </trkpt>
      <trkpt lat="44.30511" lon="6.82799">
        <time>2023-04-10T08:20:49+00:00</time>
        <ele>2668.0</ele>
      </trkpt>
      <trkpt lat="44.30509" lon="6.82801">
        <time>2023-04-10T08:20:50+00:00</time>
        <ele>2668.0</ele>
      </trkpt>
      <trkpt lat="44.30509" lon="6.82801">
        <time>2023-04-10T08:20:51+00:00</time>
        <ele>2668.0</ele>
      </trkpt>
      <trkpt lat="44.30508" lon="6.82802">
        <time>2023-04-10T08:20:52+00:00</time>
        <ele>2668.0</ele>
      </trkpt>
      <trkpt lat="44.30508" lon="6.82802">
        <time>2023-04-10T08:20:53+00:00</time>
        <ele>2668.0</ele>
      </trkpt>
      <trkpt lat="44.30508" lon="6.82802">
        <time>2023-04-10T08:20:54+00:00</time>
        <ele>2668.0</ele>
      </trkpt>
      <trkpt lat="44.30506" lon="6.82802">
        <time>2023-04-10T08:20:55+00:00</time>
        <ele>2668.0</ele>
      </trkpt>
      <trkpt lat="44.30506" lon="6.82802">
        <time>2023-04-10T08:20:56+00:00</time>
        <ele>2668.0</ele>
      </trkpt>
      <trkpt lat="44.30506" lon="6.82802">
        <time>2023-04-10T08:20:57+00:00</time>
        <ele>2668.0</ele>
      </trkpt>
      <trkpt lat="44.30506" lon="6.82802">
        <time>2023-04-10T08:20:58+00:00</time>
        <ele>2668.0</ele>
      </trkpt>
      <trkpt lat="44.30506" lon="6.82802">
        <time>2023-04-10T08:20:59+00:00</time>
        <ele>2668.0</ele>
      </trkpt>
      <trkpt lat="44.30506" lon="6.82802">
        <time>2023-04-10T08:21:00+00:00</time>
        <ele>2668.0</ele>
      </trkpt>
      <trkpt lat="44.30506" lon="6.82802">
        <time>2023-04-10T08:21:01+00:00</time>
        <ele>2668.0</ele>
      </trkpt>
      <trkpt lat="44.30506" lon="6.82802">
        <time>2023-04-10T08:21:02+00:00</time>
        <ele>2668.0</ele>
      </trkpt>
      <trkpt lat="44.30506" lon="6.82802">
        <time>2023-04-10T08:21:03+00:00</time>
        <ele>2668.0</ele>
      </trkpt>
      <trkpt lat="44.30506" lon="6.82802">
        <time>2023-04-10T08:21:04+00:00</time>
        <ele>2668.0</ele>
      </trkpt>
      <trkpt lat="44.30506" lon="6.82802">
        <time>2023-04-10T08:21:05+00:00</time>
        <ele>2668.0</ele>
      </trkpt>
      <trkpt lat="44.30506" lon="6.82802">
        <time>2023-04-10T08:21:06+00:00</time>
        <ele>2668.0</ele>
      </trkpt>
      <trkpt lat="44.30506" lon="6.82802">
        <time>2023-04-10T08:21:07+00:00</time>
        <ele>2668.0</ele>
      </trkpt>
      <trkpt lat="44.30506" lon="6.82802">
        <time>2023-04-10T08:21:08+00:00</time>
        <ele>2668.0</ele>
      </trkpt>
      <trkpt lat="44.30506" lon="6.82802">
        <time>2023-04-10T08:21:09+00:00</time>
        <ele>2668.0</ele>
      </trkpt>
      <trkpt lat="44.30506" lon="6.82802">
        <time>2023-04-10T08:21:10+00:00</time>
        <ele>2668.0</ele>
      </trkpt>
      <trkpt lat="44.30506" lon="6.82802">
        <time>2023-04-10T08:21:11+00:00</time>
        <ele>2668.0</ele>
      </trkpt>
      <trkpt lat="44.30506" lon="6.82802">
        <time>2023-04-10T08:21:12+00:00</time>
        <ele>2668.0</ele>
      </trkpt>
      <trkpt lat="44.30506" lon="6.82802">
        <time>2023-04-10T08:21:13+00:00</time>
        <ele>2668.0</ele>
      </trkpt>
      <trkpt lat="44.30506" lon="6.82802">
        <time>2023-04-10T08:21:14+00:00</time>
        <ele>2668.0</ele>
      </trkpt>
      <trkpt lat="44.30506" lon="6.82802">
        <time>2023-04-10T08:21:15+00:00</time>
        <ele>2668.0</ele>
      </trkpt>
      <trkpt lat="44.30506" lon="6.82802">
        <time>2023-04-10T08:21:16+00:00</time>
        <ele>2668.0</ele>
      </trkpt>
      <trkpt lat="44.30506" lon="6.82802">
        <time>2023-04-10T08:21:17+00:00</time>
        <ele>2668.0</ele>
      </trkpt>
      <trkpt lat="44.30506" lon="6.82802">
        <time>2023-04-10T08:21:18+00:00</time>
        <ele>2668.0</ele>
      </trkpt>
      <trkpt lat="44.30506" lon="6.82802">
        <time>2023-04-10T08:21:19+00:00</time>
        <ele>2668.0</ele>
      </trkpt>
      <trkpt lat="44.30506" lon="6.82802">
        <time>2023-04-10T08:21:20+00:00</time>
        <ele>2668.0</ele>
      </trkpt>
      <trkpt lat="44.30506" lon="6.82802">
        <time>2023-04-10T08:21:21+00:00</time>
        <ele>2668.0</ele>
      </trkpt>
      <trkpt lat="44.30506" lon="6.82802">
        <time>2023-04-10T08:21:22+00:00</time>
        <ele>2668.0</ele>
      </trkpt>
      <trkpt lat="44.30506" lon="6.82802">
        <time>2023-04-10T08:21:23+00:00</time>
        <ele>2668.0</ele>
      </trkpt>
      <trkpt lat="44.30506" lon="6.82802">
        <time>2023-04-10T08:21:24+00:00</time>
        <ele>2668.0</ele>
      </trkpt>
      <trkpt lat="44.30506" lon="6.82802">
        <time>2023-04-10T08:21:25+00:00</time>
        <ele>2668.0</ele>
      </trkpt>
      <trkpt lat="44.30506" lon="6.82802">
        <time>2023-04-10T08:21:26+00:00</time>
        <ele>2668.0</ele>
      </trkpt>
      <trkpt lat="44.30506" lon="6.82802">
        <time>2023-04-10T08:21:27+00:00</time>
        <ele>2668.0</ele>
      </trkpt>
      <trkpt lat="44.30506" lon="6.82802">
        <time>2023-04-10T08:21:28+00:00</time>
        <ele>2668.0</ele>
      </trkpt>
      <trkpt lat="44.30505" lon="6.82802">
        <time>2023-04-10T08:21:29+00:00</time>
        <ele>2668.0</ele>
      </trkpt>
      <trkpt lat="44.30505" lon="6.82802">
        <time>2023-04-10T08:21:30+00:00</time>
        <ele>2668.0</ele>
      </trkpt>
      <trkpt lat="44.30505" lon="6.82802">
        <time>2023-04-10T08:21:31+00:00</time>
        <ele>2668.0</ele>
      </trkpt>
      <trkpt lat="44.30505" lon="6.82802">
        <time>2023-04-10T08:21:32+00:00</time>
        <ele>2668.0</ele>
      </trkpt>
      <trkpt lat="44.30505" lon="6.82802">
        <time>2023-04-10T08:21:33+00:00</time>
        <ele>2668.0</ele>
      </trkpt>
      <trkpt lat="44.30505" lon="6.82802">
        <time>2023-04-10T08:21:34+00:00</time>
        <ele>2668.0</ele>
      </trkpt>
      <trkpt lat="44.30505" lon="6.82802">
        <time>2023-04-10T08:21:35+00:00</time>
        <ele>2668.0</ele>
      </trkpt>
      <trkpt lat="44.30505" lon="6.82802">
        <time>2023-04-10T08:21:36+00:00</time>
        <ele>2668.0</ele>
      </trkpt>
      <trkpt lat="44.30505" lon="6.82802">
        <time>2023-04-10T08:21:37+00:00</time>
        <ele>2668.0</ele>
      </trkpt>
      <trkpt lat="44.30505" lon="6.82802">
        <time>2023-04-10T08:21:38+00:00</time>
        <ele>2668.0</ele>
      </trkpt>
      <trkpt lat="44.30505" lon="6.82802">
        <time>2023-04-10T08:21:39+00:00</time>
        <ele>2668.0</ele>
      </trkpt>
      <trkpt lat="44.30505" lon="6.82802">
        <time>2023-04-10T08:21:40+00:00</time>
        <ele>2668.0</ele>
      </trkpt>
      <trkpt lat="44.30505" lon="6.82802">
        <time>2023-04-10T08:21:41+00:00</time>
        <ele>2668.0</ele>
      </trkpt>
      <trkpt lat="44.30505" lon="6.82802">
        <time>2023-04-10T08:21:42+00:00</time>
        <ele>2668.0</ele>
      </trkpt>
      <trkpt lat="44.30505" lon="6.82802">
        <time>2023-04-10T08:21:43+00:00</time>
        <ele>2668.0</ele>
      </trkpt>
      <trkpt lat="44.30505" lon="6.82802">
        <time>2023-04-10T08:21:44+00:00</time>
        <ele>2668.0</ele>
      </trkpt>
      <trkpt lat="44.30505" lon="6.82802">
        <time>2023-04-10T08:21:45+00:00</time>
        <ele>2668.0</ele>
      </trkpt>
      <trkpt lat="44.30505" lon="6.82802">
        <time>2023-04-10T08:21:46+00:00</time>
        <ele>2668.0</ele>
      </trkpt>
      <trkpt lat="44.30505" lon="6.82802">
        <time>2023-04-10T08:21:47+00:00</time>
        <ele>2668.0</ele>
      </trkpt>
      <trkpt lat="44.30505" lon="6.82802">
        <time>2023-04-10T08:21:48+00:00</time>
        <ele>2668.0</ele>
      </trkpt>
      <trkpt lat="44.30505" lon="6.82802">
        <time>2023-04-10T08:21:49+00:00</time>
        <ele>2668.0</ele>
      </trkpt>
      <trkpt lat="44.30505" lon="6.82802">
        <time>2023-04-10T08:21:50+00:00</time>
        <ele>2668.0</ele>
      </trkpt>
      <trkpt lat="44.30505" lon="6.82802">
        <time>2023-04-10T08:21:51+00:00</time>
        <ele>2668.0</ele>
      </trkpt>
      <trkpt lat="44.30505" lon="6.82802">
        <time>2023-04-10T08:21:52+00:00</time>
        <ele>2668.0</ele>
      </trkpt>
      <trkpt lat="44.30505" lon="6.82802">
        <time>2023-04-10T08:21:53+00:00</time>
        <ele>2668.0</ele>
      </trkpt>
      <trkpt lat="44.30505" lon="6.82802">
        <time>2023-04-10T08:21:54+00:00</time>
        <ele>2668.0</ele>
      </trkpt>
      <trkpt lat="44.30505" lon="6.82802">
        <time>2023-04-10T08:21:55+00:00</time>
        <ele>2668.0</ele>
      </trkpt>
      <trkpt lat="44.30505" lon="6.82802">
        <time>2023-04-10T08:21:56+00:00</time>
        <ele>2668.0</ele>
      </trkpt>
      <trkpt lat="44.30505" lon="6.82802">
        <time>2023-04-10T08:21:57+00:00</time>
        <ele>2668.0</ele>
      </trkpt>
      <trkpt lat="44.30505" lon="6.82802">
        <time>2023-04-10T08:21:58+00:00</time>
        <ele>2668.0</ele>
      </trkpt>
      <trkpt lat="44.30505" lon="6.82802">
        <time>2023-04-10T08:21:59+00:00</time>
        <ele>2668.0</ele>
      </trkpt>
      <trkpt lat="44.30505" lon="6.82802">
        <time>2023-04-10T08:22:00+00:00</time>
        <ele>2668.0</ele>
      </trkpt>
      <trkpt lat="44.30505" lon="6.82802">
        <time>2023-04-10T08:22:01+00:00</time>
        <ele>2668.0</ele>
      </trkpt>
      <trkpt lat="44.30505" lon="6.82802">
        <time>2023-04-10T08:22:02+00:00</time>
        <ele>2668.0</ele>
      </trkpt>
      <trkpt lat="44.30505" lon="6.82802">
        <time>2023-04-10T08:22:03+00:00</time>
        <ele>2668.0</ele>
      </trkpt>
      <trkpt lat="44.30505" lon="6.82802">
        <time>2023-04-10T08:22:04+00:00</time>
        <ele>2668.0</ele>
      </trkpt>
      <trkpt lat="44.30505" lon="6.82802">
        <time>2023-04-10T08:22:05+00:00</time>
        <ele>2668.0</ele>
      </trkpt>
      <trkpt lat="44.30505" lon="6.82802">
        <time>2023-04-10T08:22:06+00:00</time>
        <ele>2668.0</ele>
      </trkpt>
      <trkpt lat="44.30505" lon="6.82802">
        <time>2023-04-10T08:22:07+00:00</time>
        <ele>2668.0</ele>
      </trkpt>
      <trkpt lat="44.30505" lon="6.82802">
        <time>2023-04-10T08:22:08+00:00</time>
        <ele>2668.0</ele>
      </trkpt>
      <trkpt lat="44.30505" lon="6.82803">
        <time>2023-04-10T08:22:09+00:00</time>
        <ele>2668.0</ele>
      </trkpt>
      <trkpt lat="44.30505" lon="6.82803">
        <time>2023-04-10T08:22:10+00:00</time>
        <ele>2668.0</ele>
      </trkpt>
      <trkpt lat="44.30505" lon="6.82803">
        <time>2023-04-10T08:22:11+00:00</time>
        <ele>2668.0</ele>
      </trkpt>
      <trkpt lat="44.30505" lon="6.82803">
        <time>2023-04-10T08:22:12+00:00</time>
        <ele>2668.0</ele>
      </trkpt>
      <trkpt lat="44.30505" lon="6.82803">
        <time>2023-04-10T08:22:13+00:00</time>
        <ele>2668.0</ele>
      </trkpt>
      <trkpt lat="44.30505" lon="6.82803">
        <time>2023-04-10T08:22:14+00:00</time>
        <ele>2668.0</ele>
      </trkpt>
      <trkpt lat="44.30505" lon="6.82803">
        <time>2023-04-10T08:22:15+00:00</time>
        <ele>2668.0</ele>
      </trkpt>
      <trkpt lat="44.30505" lon="6.82803">
        <time>2023-04-10T08:22:16+00:00</time>
        <ele>2668.0</ele>
      </trkpt>
      <trkpt lat="44.30505" lon="6.82803">
        <time>2023-04-10T08:22:17+00:00</time>
        <ele>2668.0</ele>
      </trkpt>
      <trkpt lat="44.30505" lon="6.82803">
        <time>2023-04-10T08:22:18+00:00</time>
        <ele>2668.0</ele>
      </trkpt>
      <trkpt lat="44.30505" lon="6.82803">
        <time>2023-04-10T08:22:19+00:00</time>
        <ele>2668.0</ele>
      </trkpt>
      <trkpt lat="44.30505" lon="6.82803">
        <time>2023-04-10T08:22:20+00:00</time>
        <ele>2668.0</ele>
      </trkpt>
      <trkpt lat="44.30505" lon="6.82803">
        <time>2023-04-10T08:22:21+00:00</time>
        <ele>2668.0</ele>
      </trkpt>
      <trkpt lat="44.30505" lon="6.82803">
        <time>2023-04-10T08:22:22+00:00</time>
        <ele>2668.0</ele>
      </trkpt>
      <trkpt lat="44.30505" lon="6.82803">
        <time>2023-04-10T08:22:23+00:00</time>
        <ele>2668.0</ele>
      </trkpt>
      <trkpt lat="44.30505" lon="6.82803">
        <time>2023-04-10T08:22:24+00:00</time>
        <ele>2668.0</ele>
      </trkpt>
      <trkpt lat="44.30505" lon="6.82803">
        <time>2023-04-10T08:22:25+00:00</time>
        <ele>2668.0</ele>
      </trkpt>
      <trkpt lat="44.30505" lon="6.82803">
        <time>2023-04-10T08:22:26+00:00</time>
        <ele>2668.0</ele>
      </trkpt>
      <trkpt lat="44.30505" lon="6.82803">
        <time>2023-04-10T08:22:27+00:00</time>
        <ele>2668.0</ele>
      </trkpt>
      <trkpt lat="44.30505" lon="6.82803">
        <time>2023-04-10T08:22:28+00:00</time>
        <ele>2668.0</ele>
      </trkpt>
      <trkpt lat="44.30505" lon="6.82803">
        <time>2023-04-10T08:22:29+00:00</time>
        <ele>2668.0</ele>
      </trkpt>
      <trkpt lat="44.30505" lon="6.82803">
        <time>2023-04-10T08:22:30+00:00</time>
        <ele>2668.0</ele>
      </trkpt>
      <trkpt lat="44.30505" lon="6.82803">
        <time>2023-04-10T08:22:31+00:00</time>
        <ele>2668.0</ele>
      </trkpt>
      <trkpt lat="44.30505" lon="6.82803">
        <time>2023-04-10T08:22:32+00:00</time>
        <ele>2668.0</ele>
      </trkpt>
      <trkpt lat="44.30505" lon="6.82803">
        <time>2023-04-10T08:22:33+00:00</time>
        <ele>2668.0</ele>
      </trkpt>
      <trkpt lat="44.30505" lon="6.82803">
        <time>2023-04-10T08:22:34+00:00</time>
        <ele>2668.0</ele>
      </trkpt>
      <trkpt lat="44.30505" lon="6.82803">
        <time>2023-04-10T08:22:35+00:00</time>
        <ele>2668.0</ele>
      </trkpt>
      <trkpt lat="44.30505" lon="6.82803">
        <time>2023-04-10T08:22:36+00:00</time>
        <ele>2668.0</ele>
      </trkpt>
      <trkpt lat="44.30505" lon="6.82803">
        <time>2023-04-10T08:22:37+00:00</time>
        <ele>2668.0</ele>
      </trkpt>
      <trkpt lat="44.30505" lon="6.82803">
        <time>2023-04-10T08:22:38+00:00</time>
        <ele>2668.0</ele>
      </trkpt>
      <trkpt lat="44.30505" lon="6.82803">
        <time>2023-04-10T08:22:39+00:00</time>
        <ele>2668.0</ele>
      </trkpt>
      <trkpt lat="44.30505" lon="6.82803">
        <time>2023-04-10T08:22:40+00:00</time>
        <ele>2668.0</ele>
      </trkpt>
      <trkpt lat="44.30505" lon="6.82803">
        <time>2023-04-10T08:22:41+00:00</time>
        <ele>2668.0</ele>
      </trkpt>
      <trkpt lat="44.30505" lon="6.82803">
        <time>2023-04-10T08:22:42+00:00</time>
        <ele>2668.0</ele>
      </trkpt>
      <trkpt lat="44.30505" lon="6.82803">
        <time>2023-04-10T08:22:43+00:00</time>
        <ele>2668.0</ele>
      </trkpt>
      <trkpt lat="44.30505" lon="6.82803">
        <time>2023-04-10T08:22:44+00:00</time>
        <ele>2668.0</ele>
      </trkpt>
      <trkpt lat="44.30505" lon="6.82803">
        <time>2023-04-10T08:22:45+00:00</time>
        <ele>2668.0</ele>
      </trkpt>
      <trkpt lat="44.30505" lon="6.82803">
        <time>2023-04-10T08:22:46+00:00</time>
        <ele>2668.0</ele>
      </trkpt>
      <trkpt lat="44.30505" lon="6.82803">
        <time>2023-04-10T08:22:47+00:00</time>
        <ele>2668.0</ele>
      </trkpt>
      <trkpt lat="44.30505" lon="6.82803">
        <time>2023-04-10T08:22:48+00:00</time>
        <ele>2668.0</ele>
      </trkpt>
      <trkpt lat="44.30505" lon="6.82803">
        <time>2023-04-10T08:22:49+00:00</time>
        <ele>2668.0</ele>
      </trkpt>
      <trkpt lat="44.30505" lon="6.82803">
        <time>2023-04-10T08:22:50+00:00</time>
        <ele>2668.0</ele>
      </trkpt>
      <trkpt lat="44.30505" lon="6.82803">
        <time>2023-04-10T08:22:51+00:00</time>
        <ele>2668.0</ele>
      </trkpt>
      <trkpt lat="44.30505" lon="6.82803">
        <time>2023-04-10T08:22:52+00:00</time>
        <ele>2668.0</ele>
      </trkpt>
      <trkpt lat="44.30505" lon="6.82803">
        <time>2023-04-10T08:22:53+00:00</time>
        <ele>2668.0</ele>
      </trkpt>
      <trkpt lat="44.30505" lon="6.82803">
        <time>2023-04-10T08:22:54+00:00</time>
        <ele>2668.0</ele>
      </trkpt>
      <trkpt lat="44.30505" lon="6.82803">
        <time>2023-04-10T08:22:55+00:00</time>
        <ele>2668.0</ele>
      </trkpt>
      <trkpt lat="44.30505" lon="6.82803">
        <time>2023-04-10T08:22:56+00:00</time>
        <ele>2668.0</ele>
      </trkpt>
      <trkpt lat="44.30505" lon="6.82803">
        <time>2023-04-10T08:22:57+00:00</time>
        <ele>2668.0</ele>
      </trkpt>
      <trkpt lat="44.30505" lon="6.82803">
        <time>2023-04-10T08:22:58+00:00</time>
        <ele>2668.0</ele>
      </trkpt>
      <trkpt lat="44.30505" lon="6.82803">
        <time>2023-04-10T08:22:59+00:00</time>
        <ele>2668.0</ele>
      </trkpt>
      <trkpt lat="44.30505" lon="6.82803">
        <time>2023-04-10T08:23:00+00:00</time>
        <ele>2668.0</ele>
      </trkpt>
      <trkpt lat="44.30505" lon="6.82803">
        <time>2023-04-10T08:23:01+00:00</time>
        <ele>2668.0</ele>
      </trkpt>
      <trkpt lat="44.30505" lon="6.82803">
        <time>2023-04-10T08:23:02+00:00</time>
        <ele>2668.0</ele>
      </trkpt>
      <trkpt lat="44.30505" lon="6.82803">
        <time>2023-04-10T08:23:03+00:00</time>
        <ele>2668.0</ele>
      </trkpt>
      <trkpt lat="44.30505" lon="6.82803">
        <time>2023-04-10T08:23:04+00:00</time>
        <ele>2668.0</ele>
      </trkpt>
      <trkpt lat="44.30505" lon="6.82803">
        <time>2023-04-10T08:23:05+00:00</time>
        <ele>2668.0</ele>
      </trkpt>
      <trkpt lat="44.30505" lon="6.82803">
        <time>2023-04-10T08:23:06+00:00</time>
        <ele>2668.0</ele>
      </trkpt>
      <trkpt lat="44.30505" lon="6.82803">
        <time>2023-04-10T08:23:07+00:00</time>
        <ele>2668.0</ele>
      </trkpt>
      <trkpt lat="44.30505" lon="6.82803">
        <time>2023-04-10T08:23:08+00:00</time>
        <ele>2668.0</ele>
      </trkpt>
      <trkpt lat="44.30505" lon="6.82803">
        <time>2023-04-10T08:23:09+00:00</time>
        <ele>2668.0</ele>
      </trkpt>
      <trkpt lat="44.30505" lon="6.82803">
        <time>2023-04-10T08:23:10+00:00</time>
        <ele>2668.0</ele>
      </trkpt>
      <trkpt lat="44.30505" lon="6.82803">
        <time>2023-04-10T08:23:11+00:00</time>
        <ele>2668.0</ele>
      </trkpt>
      <trkpt lat="44.30505" lon="6.82803">
        <time>2023-04-10T08:23:12+00:00</time>
        <ele>2668.0</ele>
      </trkpt>
      <trkpt lat="44.30505" lon="6.82803">
        <time>2023-04-10T08:23:13+00:00</time>
        <ele>2668.0</ele>
      </trkpt>
      <trkpt lat="44.30505" lon="6.82803">
        <time>2023-04-10T08:23:14+00:00</time>
        <ele>2668.0</ele>
      </trkpt>
      <trkpt lat="44.30505" lon="6.82803">
        <time>2023-04-10T08:23:15+00:00</time>
        <ele>2668.0</ele>
      </trkpt>
      <trkpt lat="44.30505" lon="6.82803">
        <time>2023-04-10T08:23:16+00:00</time>
        <ele>2668.0</ele>
      </trkpt>
      <trkpt lat="44.30505" lon="6.82803">
        <time>2023-04-10T08:23:17+00:00</time>
        <ele>2668.0</ele>
      </trkpt>
      <trkpt lat="44.30505" lon="6.82803">
        <time>2023-04-10T08:23:18+00:00</time>
        <ele>2668.0</ele>
      </trkpt>
      <trkpt lat="44.30505" lon="6.82803">
        <time>2023-04-10T08:23:19+00:00</time>
        <ele>2668.0</ele>
      </trkpt>
      <trkpt lat="44.30505" lon="6.82803">
        <time>2023-04-10T08:23:20+00:00</time>
        <ele>2668.0</ele>
      </trkpt>
      <trkpt lat="44.30505" lon="6.82803">
        <time>2023-04-10T08:23:21+00:00</time>
        <ele>2668.0</ele>
      </trkpt>
      <trkpt lat="44.30505" lon="6.82803">
        <time>2023-04-10T08:23:22+00:00</time>
        <ele>2668.0</ele>
      </trkpt>
      <trkpt lat="44.30505" lon="6.82803">
        <time>2023-04-10T08:23:23+00:00</time>
        <ele>2668.0</ele>
      </trkpt>
      <trkpt lat="44.30505" lon="6.82803">
        <time>2023-04-10T08:23:24+00:00</time>
        <ele>2668.0</ele>
      </trkpt>
      <trkpt lat="44.30505" lon="6.82803">
        <time>2023-04-10T08:23:25+00:00</time>
        <ele>2668.0</ele>
      </trkpt>
      <trkpt lat="44.30505" lon="6.82803">
        <time>2023-04-10T08:23:26+00:00</time>
        <ele>2668.0</ele>
      </trkpt>
      <trkpt lat="44.30505" lon="6.82803">
        <time>2023-04-10T08:23:27+00:00</time>
        <ele>2668.0</ele>
      </trkpt>
      <trkpt lat="44.30505" lon="6.82803">
        <time>2023-04-10T08:23:28+00:00</time>
        <ele>2668.0</ele>
      </trkpt>
      <trkpt lat="44.30505" lon="6.82803">
        <time>2023-04-10T08:23:29+00:00</time>
        <ele>2668.0</ele>
      </trkpt>
      <trkpt lat="44.30505" lon="6.82803">
        <time>2023-04-10T08:23:30+00:00</time>
        <ele>2668.0</ele>
      </trkpt>
      <trkpt lat="44.30505" lon="6.82803">
        <time>2023-04-10T08:23:31+00:00</time>
        <ele>2668.0</ele>
      </trkpt>
      <trkpt lat="44.30505" lon="6.82803">
        <time>2023-04-10T08:23:32+00:00</time>
        <ele>2668.0</ele>
      </trkpt>
      <trkpt lat="44.30505" lon="6.82803">
        <time>2023-04-10T08:23:33+00:00</time>
        <ele>2668.0</ele>
      </trkpt>
      <trkpt lat="44.30505" lon="6.82803">
        <time>2023-04-10T08:23:34+00:00</time>
        <ele>2668.0</ele>
      </trkpt>
      <trkpt lat="44.30505" lon="6.82803">
        <time>2023-04-10T08:23:35+00:00</time>
        <ele>2668.0</ele>
      </trkpt>
      <trkpt lat="44.30505" lon="6.82803">
        <time>2023-04-10T08:23:36+00:00</time>
        <ele>2668.0</ele>
      </trkpt>
      <trkpt lat="44.30505" lon="6.82803">
        <time>2023-04-10T08:23:37+00:00</time>
        <ele>2668.0</ele>
      </trkpt>
      <trkpt lat="44.30505" lon="6.82803">
        <time>2023-04-10T08:23:38+00:00</time>
        <ele>2668.0</ele>
      </trkpt>
      <trkpt lat="44.30505" lon="6.82803">
        <time>2023-04-10T08:23:39+00:00</time>
        <ele>2668.0</ele>
      </trkpt>
      <trkpt lat="44.30505" lon="6.82803">
        <time>2023-04-10T08:23:40+00:00</time>
        <ele>2668.0</ele>
      </trkpt>
      <trkpt lat="44.30505" lon="6.82803">
        <time>2023-04-10T08:23:41+00:00</time>
        <ele>2668.0</ele>
      </trkpt>
      <trkpt lat="44.30505" lon="6.82803">
        <time>2023-04-10T08:23:42+00:00</time>
        <ele>2668.0</ele>
      </trkpt>
      <trkpt lat="44.30505" lon="6.82803">
        <time>2023-04-10T08:23:43+00:00</time>
        <ele>2668.0</ele>
      </trkpt>
      <trkpt lat="44.30505" lon="6.82803">
        <time>2023-04-10T08:23:44+00:00</time>
        <ele>2668.0</ele>
      </trkpt>
      <trkpt lat="44.30505" lon="6.82803">
        <time>2023-04-10T08:23:45+00:00</time>
        <ele>2668.0</ele>
      </trkpt>
      <trkpt lat="44.30505" lon="6.82803">
        <time>2023-04-10T08:23:46+00:00</time>
        <ele>2668.0</ele>
      </trkpt>
      <trkpt lat="44.30505" lon="6.82803">
        <time>2023-04-10T08:23:47+00:00</time>
        <ele>2668.0</ele>
      </trkpt>
      <trkpt lat="44.30505" lon="6.82803">
        <time>2023-04-10T08:23:48+00:00</time>
        <ele>2668.0</ele>
      </trkpt>
      <trkpt lat="44.30505" lon="6.82803">
        <time>2023-04-10T08:23:49+00:00</time>
        <ele>2668.0</ele>
      </trkpt>
      <trkpt lat="44.30505" lon="6.82803">
        <time>2023-04-10T08:23:50+00:00</time>
        <ele>2668.0</ele>
      </trkpt>
      <trkpt lat="44.30505" lon="6.82803">
        <time>2023-04-10T08:23:51+00:00</time>
        <ele>2668.0</ele>
      </trkpt>
      <trkpt lat="44.30505" lon="6.82803">
        <time>2023-04-10T08:23:52+00:00</time>
        <ele>2668.0</ele>
      </trkpt>
      <trkpt lat="44.30505" lon="6.82803">
        <time>2023-04-10T08:23:53+00:00</time>
        <ele>2668.0</ele>
      </trkpt>
      <trkpt lat="44.30505" lon="6.82803">
        <time>2023-04-10T08:23:54+00:00</time>
        <ele>2668.0</ele>
      </trkpt>
      <trkpt lat="44.30505" lon="6.82803">
        <time>2023-04-10T08:23:55+00:00</time>
        <ele>2668.0</ele>
      </trkpt>
      <trkpt lat="44.30505" lon="6.82803">
        <time>2023-04-10T08:23:56+00:00</time>
        <ele>2668.0</ele>
      </trkpt>
      <trkpt lat="44.30505" lon="6.82803">
        <time>2023-04-10T08:23:57+00:00</time>
        <ele>2668.0</ele>
      </trkpt>
      <trkpt lat="44.30505" lon="6.82803">
        <time>2023-04-10T08:23:58+00:00</time>
        <ele>2668.0</ele>
      </trkpt>
      <trkpt lat="44.30505" lon="6.82803">
        <time>2023-04-10T08:23:59+00:00</time>
        <ele>2668.0</ele>
      </trkpt>
      <trkpt lat="44.30505" lon="6.82803">
        <time>2023-04-10T08:24:00+00:00</time>
        <ele>2668.0</ele>
      </trkpt>
      <trkpt lat="44.30505" lon="6.82803">
        <time>2023-04-10T08:24:01+00:00</time>
        <ele>2668.0</ele>
      </trkpt>
      <trkpt lat="44.30505" lon="6.82803">
        <time>2023-04-10T08:24:02+00:00</time>
        <ele>2668.0</ele>
      </trkpt>
      <trkpt lat="44.30505" lon="6.82803">
        <time>2023-04-10T08:24:03+00:00</time>
        <ele>2668.0</ele>
      </trkpt>
      <trkpt lat="44.30505" lon="6.82803">
        <time>2023-04-10T08:24:04+00:00</time>
        <ele>2668.0</ele>
      </trkpt>
      <trkpt lat="44.30505" lon="6.82803">
        <time>2023-04-10T08:24:05+00:00</time>
        <ele>2668.0</ele>
      </trkpt>
      <trkpt lat="44.30505" lon="6.82803">
        <time>2023-04-10T08:24:06+00:00</time>
        <ele>2668.0</ele>
      </trkpt>
      <trkpt lat="44.30505" lon="6.82803">
        <time>2023-04-10T08:24:07+00:00</time>
        <ele>2668.0</ele>
      </trkpt>
      <trkpt lat="44.30505" lon="6.82803">
        <time>2023-04-10T08:24:08+00:00</time>
        <ele>2668.0</ele>
      </trkpt>
      <trkpt lat="44.30505" lon="6.82803">
        <time>2023-04-10T08:24:09+00:00</time>
        <ele>2668.0</ele>
      </trkpt>
      <trkpt lat="44.30505" lon="6.82803">
        <time>2023-04-10T08:24:10+00:00</time>
        <ele>2668.0</ele>
      </trkpt>
      <trkpt lat="44.30505" lon="6.82803">
        <time>2023-04-10T08:24:11+00:00</time>
        <ele>2668.0</ele>
      </trkpt>
      <trkpt lat="44.30505" lon="6.82803">
        <time>2023-04-10T08:24:12+00:00</time>
        <ele>2668.0</ele>
      </trkpt>
      <trkpt lat="44.30505" lon="6.82803">
        <time>2023-04-10T08:24:13+00:00</time>
        <ele>2668.0</ele>
      </trkpt>
      <trkpt lat="44.30505" lon="6.82803">
        <time>2023-04-10T08:24:14+00:00</time>
        <ele>2668.0</ele>
      </trkpt>
      <trkpt lat="44.30505" lon="6.82803">
        <time>2023-04-10T08:24:15+00:00</time>
        <ele>2668.0</ele>
      </trkpt>
      <trkpt lat="44.30505" lon="6.82803">
        <time>2023-04-10T08:24:16+00:00</time>
        <ele>2668.0</ele>
      </trkpt>
      <trkpt lat="44.30505" lon="6.82803">
        <time>2023-04-10T08:24:17+00:00</time>
        <ele>2668.0</ele>
      </trkpt>
      <trkpt lat="44.30505" lon="6.82803">
        <time>2023-04-10T08:24:18+00:00</time>
        <ele>2668.0</ele>
      </trkpt>
      <trkpt lat="44.30505" lon="6.82803">
        <time>2023-04-10T08:24:19+00:00</time>
        <ele>2668.0</ele>
      </trkpt>
      <trkpt lat="44.30505" lon="6.82803">
        <time>2023-04-10T08:24:20+00:00</time>
        <ele>2668.0</ele>
      </trkpt>
      <trkpt lat="44.30505" lon="6.82803">
        <time>2023-04-10T08:24:21+00:00</time>
        <ele>2668.0</ele>
      </trkpt>
      <trkpt lat="44.30505" lon="6.82803">
        <time>2023-04-10T08:24:22+00:00</time>
        <ele>2668.0</ele>
      </trkpt>
      <trkpt lat="44.30505" lon="6.82803">
        <time>2023-04-10T08:24:23+00:00</time>
        <ele>2668.0</ele>
      </trkpt>
      <trkpt lat="44.30505" lon="6.82803">
        <time>2023-04-10T08:24:24+00:00</time>
        <ele>2668.0</ele>
      </trkpt>
      <trkpt lat="44.30505" lon="6.82803">
        <time>2023-04-10T08:24:25+00:00</time>
        <ele>2668.0</ele>
      </trkpt>
      <trkpt lat="44.30505" lon="6.82803">
        <time>2023-04-10T08:24:26+00:00</time>
        <ele>2668.0</ele>
      </trkpt>
      <trkpt lat="44.30505" lon="6.82803">
        <time>2023-04-10T08:24:27+00:00</time>
        <ele>2668.0</ele>
      </trkpt>
      <trkpt lat="44.30505" lon="6.82803">
        <time>2023-04-10T08:24:28+00:00</time>
        <ele>2668.0</ele>
      </trkpt>
      <trkpt lat="44.30505" lon="6.82803">
        <time>2023-04-10T08:24:29+00:00</time>
        <ele>2668.0</ele>
      </trkpt>
      <trkpt lat="44.30505" lon="6.82803">
        <time>2023-04-10T08:24:30+00:00</time>
        <ele>2668.0</ele>
      </trkpt>
      <trkpt lat="44.30505" lon="6.82803">
        <time>2023-04-10T08:24:31+00:00</time>
        <ele>2668.0</ele>
      </trkpt>
      <trkpt lat="44.30505" lon="6.82803">
        <time>2023-04-10T08:24:32+00:00</time>
        <ele>2668.0</ele>
      </trkpt>
      <trkpt lat="44.30505" lon="6.82803">
        <time>2023-04-10T08:24:33+00:00</time>
        <ele>2668.0</ele>
      </trkpt>
      <trkpt lat="44.30505" lon="6.82803">
        <time>2023-04-10T08:24:34+00:00</time>
        <ele>2668.0</ele>
      </trkpt>
      <trkpt lat="44.30505" lon="6.82803">
        <time>2023-04-10T08:24:35+00:00</time>
        <ele>2668.0</ele>
      </trkpt>
      <trkpt lat="44.30505" lon="6.82803">
        <time>2023-04-10T08:24:36+00:00</time>
        <ele>2668.0</ele>
      </trkpt>
      <trkpt lat="44.30505" lon="6.82803">
        <time>2023-04-10T08:24:37+00:00</time>
        <ele>2668.0</ele>
      </trkpt>
      <trkpt lat="44.30505" lon="6.82803">
        <time>2023-04-10T08:24:38+00:00</time>
        <ele>2668.0</ele>
      </trkpt>
      <trkpt lat="44.30505" lon="6.82803">
        <time>2023-04-10T08:24:39+00:00</time>
        <ele>2668.0</ele>
      </trkpt>
      <trkpt lat="44.30505" lon="6.82803">
        <time>2023-04-10T08:24:40+00:00</time>
        <ele>2668.0</ele>
      </trkpt>
      <trkpt lat="44.30505" lon="6.82803">
        <time>2023-04-10T08:24:41+00:00</time>
        <ele>2668.0</ele>
      </trkpt>
      <trkpt lat="44.30505" lon="6.82803">
        <time>2023-04-10T08:24:42+00:00</time>
        <ele>2668.0</ele>
      </trkpt>
      <trkpt lat="44.30505" lon="6.82803">
        <time>2023-04-10T08:24:43+00:00</time>
        <ele>2668.0</ele>
      </trkpt>
      <trkpt lat="44.30505" lon="6.82803">
        <time>2023-04-10T08:24:44+00:00</time>
        <ele>2668.0</ele>
      </trkpt>
      <trkpt lat="44.30505" lon="6.82803">
        <time>2023-04-10T08:24:45+00:00</time>
        <ele>2668.0</ele>
      </trkpt>
      <trkpt lat="44.30505" lon="6.82803">
        <time>2023-04-10T08:24:46+00:00</time>
        <ele>2668.0</ele>
      </trkpt>
      <trkpt lat="44.30505" lon="6.82803">
        <time>2023-04-10T08:24:47+00:00</time>
        <ele>2668.0</ele>
      </trkpt>
      <trkpt lat="44.30505" lon="6.82803">
        <time>2023-04-10T08:24:48+00:00</time>
        <ele>2668.0</ele>
      </trkpt>
      <trkpt lat="44.30505" lon="6.82803">
        <time>2023-04-10T08:24:49+00:00</time>
        <ele>2668.0</ele>
      </trkpt>
      <trkpt lat="44.30505" lon="6.82803">
        <time>2023-04-10T08:24:50+00:00</time>
        <ele>2668.0</ele>
      </trkpt>
      <trkpt lat="44.30505" lon="6.82803">
        <time>2023-04-10T08:24:51+00:00</time>
        <ele>2668.0</ele>
      </trkpt>
      <trkpt lat="44.30505" lon="6.82803">
        <time>2023-04-10T08:24:52+00:00</time>
        <ele>2668.0</ele>
      </trkpt>
      <trkpt lat="44.30505" lon="6.82803">
        <time>2023-04-10T08:24:53+00:00</time>
        <ele>2668.0</ele>
      </trkpt>
      <trkpt lat="44.30505" lon="6.82803">
        <time>2023-04-10T08:24:54+00:00</time>
        <ele>2668.0</ele>
      </trkpt>
      <trkpt lat="44.30505" lon="6.82803">
        <time>2023-04-10T08:24:55+00:00</time>
        <ele>2668.0</ele>
      </trkpt>
      <trkpt lat="44.30505" lon="6.82803">
        <time>2023-04-10T08:24:56+00:00</time>
        <ele>2668.0</ele>
      </trkpt>
      <trkpt lat="44.30505" lon="6.82803">
        <time>2023-04-10T08:24:57+00:00</time>
        <ele>2668.0</ele>
      </trkpt>
      <trkpt lat="44.30505" lon="6.82803">
        <time>2023-04-10T08:24:58+00:00</time>
        <ele>2668.0</ele>
      </trkpt>
      <trkpt lat="44.30505" lon="6.82803">
        <time>2023-04-10T08:24:59+00:00</time>
        <ele>2668.0</ele>
      </trkpt>
      <trkpt lat="44.30505" lon="6.82803">
        <time>2023-04-10T08:25:00+00:00</time>
        <ele>2668.0</ele>
      </trkpt>
      <trkpt lat="44.30505" lon="6.82803">
        <time>2023-04-10T08:25:01+00:00</time>
        <ele>2668.0</ele>
      </trkpt>
      <trkpt lat="44.30505" lon="6.82803">
        <time>2023-04-10T08:25:02+00:00</time>
        <ele>2668.0</ele>
      </trkpt>
      <trkpt lat="44.30505" lon="6.82803">
        <time>2023-04-10T08:25:03+00:00</time>
        <ele>2668.0</ele>
      </trkpt>
      <trkpt lat="44.30505" lon="6.82803">
        <time>2023-04-10T08:25:04+00:00</time>
        <ele>2668.0</ele>
      </trkpt>
      <trkpt lat="44.30505" lon="6.82803">
        <time>2023-04-10T08:25:05+00:00</time>
        <ele>2668.0</ele>
      </trkpt>
      <trkpt lat="44.30505" lon="6.82803">
        <time>2023-04-10T08:25:06+00:00</time>
        <ele>2668.0</ele>
      </trkpt>
      <trkpt lat="44.30505" lon="6.82803">
        <time>2023-04-10T08:25:07+00:00</time>
        <ele>2668.0</ele>
      </trkpt>
      <trkpt lat="44.30505" lon="6.82803">
        <time>2023-04-10T08:25:08+00:00</time>
        <ele>2668.0</ele>
      </trkpt>
      <trkpt lat="44.30505" lon="6.82803">
        <time>2023-04-10T08:25:09+00:00</time>
        <ele>2668.0</ele>
      </trkpt>
      <trkpt lat="44.30505" lon="6.82803">
        <time>2023-04-10T08:25:10+00:00</time>
        <ele>2668.0</ele>
      </trkpt>
      <trkpt lat="44.30505" lon="6.82803">
        <time>2023-04-10T08:25:11+00:00</time>
        <ele>2668.0</ele>
      </trkpt>
      <trkpt lat="44.30505" lon="6.82803">
        <time>2023-04-10T08:25:12+00:00</time>
        <ele>2668.0</ele>
      </trkpt>
      <trkpt lat="44.30505" lon="6.82803">
        <time>2023-04-10T08:25:13+00:00</time>
        <ele>2668.0</ele>
      </trkpt>
      <trkpt lat="44.30505" lon="6.82803">
        <time>2023-04-10T08:25:14+00:00</time>
        <ele>2668.0</ele>
      </trkpt>
      <trkpt lat="44.30505" lon="6.82803">
        <time>2023-04-10T08:25:15+00:00</time>
        <ele>2668.0</ele>
      </trkpt>
      <trkpt lat="44.30505" lon="6.82803">
        <time>2023-04-10T08:25:16+00:00</time>
        <ele>2668.0</ele>
      </trkpt>
      <trkpt lat="44.30505" lon="6.82803">
        <time>2023-04-10T08:25:17+00:00</time>
        <ele>2668.0</ele>
      </trkpt>
      <trkpt lat="44.30505" lon="6.82803">
        <time>2023-04-10T08:25:18+00:00</time>
        <ele>2668.0</ele>
      </trkpt>
      <trkpt lat="44.30505" lon="6.82803">
        <time>2023-04-10T08:25:19+00:00</time>
        <ele>2668.0</ele>
      </trkpt>
      <trkpt lat="44.30505" lon="6.82803">
        <time>2023-04-10T08:25:20+00:00</time>
        <ele>2668.0</ele>
      </trkpt>
      <trkpt lat="44.30505" lon="6.82803">
        <time>2023-04-10T08:25:21+00:00</time>
        <ele>2668.0</ele>
      </trkpt>
      <trkpt lat="44.30504" lon="6.82803">
        <time>2023-04-10T08:25:22+00:00</time>
        <ele>2668.0</ele>
      </trkpt>
      <trkpt lat="44.30504" lon="6.82803">
        <time>2023-04-10T08:25:23+00:00</time>
        <ele>2668.0</ele>
      </trkpt>
      <trkpt lat="44.30504" lon="6.82803">
        <time>2023-04-10T08:25:24+00:00</time>
        <ele>2668.0</ele>
      </trkpt>
      <trkpt lat="44.30504" lon="6.82803">
        <time>2023-04-10T08:25:25+00:00</time>
        <ele>2668.0</ele>
      </trkpt>
      <trkpt lat="44.30504" lon="6.82803">
        <time>2023-04-10T08:25:26+00:00</time>
        <ele>2668.0</ele>
      </trkpt>
      <trkpt lat="44.30504" lon="6.82803">
        <time>2023-04-10T08:25:27+00:00</time>
        <ele>2668.0</ele>
      </trkpt>
      <trkpt lat="44.30504" lon="6.82803">
        <time>2023-04-10T08:25:28+00:00</time>
        <ele>2668.0</ele>
      </trkpt>
      <trkpt lat="44.30504" lon="6.82803">
        <time>2023-04-10T08:25:29+00:00</time>
        <ele>2668.0</ele>
      </trkpt>
      <trkpt lat="44.30504" lon="6.82803">
        <time>2023-04-10T08:25:30+00:00</time>
        <ele>2668.0</ele>
      </trkpt>
      <trkpt lat="44.30504" lon="6.82803">
        <time>2023-04-10T08:25:31+00:00</time>
        <ele>2668.0</ele>
      </trkpt>
      <trkpt lat="44.30504" lon="6.82803">
        <time>2023-04-10T08:25:32+00:00</time>
        <ele>2668.0</ele>
      </trkpt>
      <trkpt lat="44.30504" lon="6.82803">
        <time>2023-04-10T08:25:33+00:00</time>
        <ele>2668.0</ele>
      </trkpt>
      <trkpt lat="44.30504" lon="6.82803">
        <time>2023-04-10T08:25:34+00:00</time>
        <ele>2668.0</ele>
      </trkpt>
      <trkpt lat="44.30504" lon="6.82803">
        <time>2023-04-10T08:25:35+00:00</time>
        <ele>2668.0</ele>
      </trkpt>
      <trkpt lat="44.30504" lon="6.82803">
        <time>2023-04-10T08:25:36+00:00</time>
        <ele>2668.0</ele>
      </trkpt>
      <trkpt lat="44.30504" lon="6.82803">
        <time>2023-04-10T08:25:37+00:00</time>
        <ele>2668.0</ele>
      </trkpt>
      <trkpt lat="44.30504" lon="6.82803">
        <time>2023-04-10T08:25:38+00:00</time>
        <ele>2668.0</ele>
      </trkpt>
      <trkpt lat="44.30504" lon="6.82803">
        <time>2023-04-10T08:25:39+00:00</time>
        <ele>2668.0</ele>
      </trkpt>
      <trkpt lat="44.30504" lon="6.82803">
        <time>2023-04-10T08:25:40+00:00</time>
        <ele>2668.0</ele>
      </trkpt>
      <trkpt lat="44.30504" lon="6.82803">
        <time>2023-04-10T08:25:41+00:00</time>
        <ele>2668.0</ele>
      </trkpt>
      <trkpt lat="44.30504" lon="6.82803">
        <time>2023-04-10T08:25:42+00:00</time>
        <ele>2668.0</ele>
      </trkpt>
      <trkpt lat="44.30504" lon="6.82803">
        <time>2023-04-10T08:25:43+00:00</time>
        <ele>2668.0</ele>
      </trkpt>
      <trkpt lat="44.30504" lon="6.82803">
        <time>2023-04-10T08:25:44+00:00</time>
        <ele>2668.0</ele>
      </trkpt>
      <trkpt lat="44.30504" lon="6.82803">
        <time>2023-04-10T08:25:45+00:00</time>
        <ele>2668.0</ele>
      </trkpt>
      <trkpt lat="44.30504" lon="6.82803">
        <time>2023-04-10T08:25:46+00:00</time>
        <ele>2668.0</ele>
      </trkpt>
      <trkpt lat="44.30504" lon="6.82803">
        <time>2023-04-10T08:25:47+00:00</time>
        <ele>2668.0</ele>
      </trkpt>
      <trkpt lat="44.30504" lon="6.82803">
        <time>2023-04-10T08:25:48+00:00</time>
        <ele>2668.0</ele>
      </trkpt>
      <trkpt lat="44.30504" lon="6.82803">
        <time>2023-04-10T08:25:49+00:00</time>
        <ele>2668.0</ele>
      </trkpt>
      <trkpt lat="44.30504" lon="6.82803">
        <time>2023-04-10T08:25:50+00:00</time>
        <ele>2668.0</ele>
      </trkpt>
      <trkpt lat="44.30504" lon="6.82803">
        <time>2023-04-10T08:25:51+00:00</time>
        <ele>2668.0</ele>
      </trkpt>
      <trkpt lat="44.30504" lon="6.82803">
        <time>2023-04-10T08:25:52+00:00</time>
        <ele>2668.0</ele>
      </trkpt>
      <trkpt lat="44.30504" lon="6.82803">
        <time>2023-04-10T08:25:53+00:00</time>
        <ele>2668.0</ele>
      </trkpt>
      <trkpt lat="44.30504" lon="6.82803">
        <time>2023-04-10T08:25:54+00:00</time>
        <ele>2668.0</ele>
      </trkpt>
      <trkpt lat="44.30504" lon="6.82803">
        <time>2023-04-10T08:25:55+00:00</time>
        <ele>2668.0</ele>
      </trkpt>
      <trkpt lat="44.30504" lon="6.82803">
        <time>2023-04-10T08:25:56+00:00</time>
        <ele>2668.0</ele>
      </trkpt>
      <trkpt lat="44.30504" lon="6.82803">
        <time>2023-04-10T08:25:57+00:00</time>
        <ele>2668.0</ele>
      </trkpt>
      <trkpt lat="44.30504" lon="6.82803">
        <time>2023-04-10T08:25:58+00:00</time>
        <ele>2668.0</ele>
      </trkpt>
      <trkpt lat="44.30504" lon="6.82803">
        <time>2023-04-10T08:25:59+00:00</time>
        <ele>2668.0</ele>
      </trkpt>
      <trkpt lat="44.30504" lon="6.82803">
        <time>2023-04-10T08:26:00+00:00</time>
        <ele>2668.0</ele>
      </trkpt>
      <trkpt lat="44.30504" lon="6.82803">
        <time>2023-04-10T08:26:01+00:00</time>
        <ele>2668.0</ele>
      </trkpt>
      <trkpt lat="44.30504" lon="6.82803">
        <time>2023-04-10T08:26:02+00:00</time>
        <ele>2668.0</ele>
      </trkpt>
      <trkpt lat="44.30504" lon="6.82803">
        <time>2023-04-10T08:26:03+00:00</time>
        <ele>2668.0</ele>
      </trkpt>
      <trkpt lat="44.30504" lon="6.82803">
        <time>2023-04-10T08:26:04+00:00</time>
        <ele>2668.0</ele>
      </trkpt>
      <trkpt lat="44.30504" lon="6.82803">
        <time>2023-04-10T08:26:05+00:00</time>
        <ele>2668.0</ele>
      </trkpt>
      <trkpt lat="44.30504" lon="6.82803">
        <time>2023-04-10T08:26:06+00:00</time>
        <ele>2668.0</ele>
      </trkpt>
      <trkpt lat="44.30504" lon="6.82803">
        <time>2023-04-10T08:26:07+00:00</time>
        <ele>2668.0</ele>
      </trkpt>
      <trkpt lat="44.30504" lon="6.82803">
        <time>2023-04-10T08:26:08+00:00</time>
        <ele>2668.0</ele>
      </trkpt>
      <trkpt lat="44.30504" lon="6.82803">
        <time>2023-04-10T08:26:09+00:00</time>
        <ele>2668.0</ele>
      </trkpt>
      <trkpt lat="44.30504" lon="6.82803">
        <time>2023-04-10T08:26:10+00:00</time>
        <ele>2668.0</ele>
      </trkpt>
      <trkpt lat="44.30504" lon="6.82803">
        <time>2023-04-10T08:26:11+00:00</time>
        <ele>2668.0</ele>
      </trkpt>
      <trkpt lat="44.30504" lon="6.82803">
        <time>2023-04-10T08:26:12+00:00</time>
        <ele>2668.0</ele>
      </trkpt>
      <trkpt lat="44.30504" lon="6.82803">
        <time>2023-04-10T08:26:13+00:00</time>
        <ele>2668.0</ele>
      </trkpt>
      <trkpt lat="44.30504" lon="6.82803">
        <time>2023-04-10T08:26:14+00:00</time>
        <ele>2668.0</ele>
      </trkpt>
      <trkpt lat="44.30504" lon="6.82803">
        <time>2023-04-10T08:26:15+00:00</time>
        <ele>2668.0</ele>
      </trkpt>
      <trkpt lat="44.30504" lon="6.82803">
        <time>2023-04-10T08:26:16+00:00</time>
        <ele>2668.0</ele>
      </trkpt>
      <trkpt lat="44.30504" lon="6.82803">
        <time>2023-04-10T08:26:17+00:00</time>
        <ele>2668.0</ele>
      </trkpt>
      <trkpt lat="44.30504" lon="6.82803">
        <time>2023-04-10T08:26:18+00:00</time>
        <ele>2668.0</ele>
      </trkpt>
      <trkpt lat="44.30504" lon="6.82803">
        <time>2023-04-10T08:26:19+00:00</time>
        <ele>2668.0</ele>
      </trkpt>
      <trkpt lat="44.30504" lon="6.82803">
        <time>2023-04-10T08:26:20+00:00</time>
        <ele>2668.0</ele>
      </trkpt>
      <trkpt lat="44.30504" lon="6.82803">
        <time>2023-04-10T08:26:21+00:00</time>
        <ele>2668.0</ele>
      </trkpt>
      <trkpt lat="44.30504" lon="6.82803">
        <time>2023-04-10T08:26:22+00:00</time>
        <ele>2668.0</ele>
      </trkpt>
      <trkpt lat="44.30504" lon="6.82803">
        <time>2023-04-10T08:26:23+00:00</time>
        <ele>2668.0</ele>
      </trkpt>
      <trkpt lat="44.30504" lon="6.82803">
        <time>2023-04-10T08:26:24+00:00</time>
        <ele>2668.0</ele>
      </trkpt>
      <trkpt lat="44.30504" lon="6.82803">
        <time>2023-04-10T08:26:25+00:00</time>
        <ele>2668.0</ele>
      </trkpt>
      <trkpt lat="44.30504" lon="6.82803">
        <time>2023-04-10T08:26:26+00:00</time>
        <ele>2668.0</ele>
      </trkpt>
      <trkpt lat="44.30504" lon="6.82803">
        <time>2023-04-10T08:26:27+00:00</time>
        <ele>2668.0</ele>
      </trkpt>
      <trkpt lat="44.30504" lon="6.82803">
        <time>2023-04-10T08:26:28+00:00</time>
        <ele>2668.0</ele>
      </trkpt>
      <trkpt lat="44.30504" lon="6.82803">
        <time>2023-04-10T08:26:29+00:00</time>
        <ele>2668.0</ele>
      </trkpt>
      <trkpt lat="44.30504" lon="6.82803">
        <time>2023-04-10T08:26:30+00:00</time>
        <ele>2668.0</ele>
      </trkpt>
      <trkpt lat="44.30504" lon="6.82803">
        <time>2023-04-10T08:26:31+00:00</time>
        <ele>2668.0</ele>
      </trkpt>
      <trkpt lat="44.30504" lon="6.82803">
        <time>2023-04-10T08:26:32+00:00</time>
        <ele>2668.0</ele>
      </trkpt>
      <trkpt lat="44.30504" lon="6.82803">
        <time>2023-04-10T08:26:33+00:00</time>
        <ele>2668.0</ele>
      </trkpt>
      <trkpt lat="44.30504" lon="6.82803">
        <time>2023-04-10T08:26:34+00:00</time>
        <ele>2668.0</ele>
      </trkpt>
      <trkpt lat="44.30504" lon="6.82803">
        <time>2023-04-10T08:26:35+00:00</time>
        <ele>2668.0</ele>
      </trkpt>
      <trkpt lat="44.30504" lon="6.82803">
        <time>2023-04-10T08:26:36+00:00</time>
        <ele>2668.0</ele>
      </trkpt>
      <trkpt lat="44.30504" lon="6.82803">
        <time>2023-04-10T08:26:37+00:00</time>
        <ele>2668.0</ele>
      </trkpt>
      <trkpt lat="44.30504" lon="6.82803">
        <time>2023-04-10T08:26:38+00:00</time>
        <ele>2668.0</ele>
      </trkpt>
      <trkpt lat="44.30504" lon="6.82803">
        <time>2023-04-10T08:26:39+00:00</time>
        <ele>2668.0</ele>
      </trkpt>
      <trkpt lat="44.30504" lon="6.82803">
        <time>2023-04-10T08:26:40+00:00</time>
        <ele>2668.0</ele>
      </trkpt>
      <trkpt lat="44.30504" lon="6.82803">
        <time>2023-04-10T08:26:41+00:00</time>
        <ele>2668.0</ele>
      </trkpt>
      <trkpt lat="44.30504" lon="6.82803">
        <time>2023-04-10T08:26:42+00:00</time>
        <ele>2668.0</ele>
      </trkpt>
      <trkpt lat="44.30504" lon="6.82803">
        <time>2023-04-10T08:26:43+00:00</time>
        <ele>2668.0</ele>
      </trkpt>
      <trkpt lat="44.30504" lon="6.82803">
        <time>2023-04-10T08:26:44+00:00</time>
        <ele>2668.0</ele>
      </trkpt>
      <trkpt lat="44.30504" lon="6.82803">
        <time>2023-04-10T08:26:45+00:00</time>
        <ele>2668.0</ele>
      </trkpt>
      <trkpt lat="44.30504" lon="6.82803">
        <time>2023-04-10T08:26:46+00:00</time>
        <ele>2668.0</ele>
      </trkpt>
      <trkpt lat="44.30504" lon="6.82803">
        <time>2023-04-10T08:26:47+00:00</time>
        <ele>2668.0</ele>
      </trkpt>
      <trkpt lat="44.30504" lon="6.82803">
        <time>2023-04-10T08:26:48+00:00</time>
        <ele>2668.0</ele>
      </trkpt>
      <trkpt lat="44.30504" lon="6.82803">
        <time>2023-04-10T08:26:49+00:00</time>
        <ele>2668.0</ele>
      </trkpt>
      <trkpt lat="44.30504" lon="6.82803">
        <time>2023-04-10T08:26:50+00:00</time>
        <ele>2668.0</ele>
      </trkpt>
      <trkpt lat="44.30504" lon="6.82803">
        <time>2023-04-10T08:26:51+00:00</time>
        <ele>2668.0</ele>
      </trkpt>
      <trkpt lat="44.30504" lon="6.82803">
        <time>2023-04-10T08:26:52+00:00</time>
        <ele>2668.0</ele>
      </trkpt>
      <trkpt lat="44.30504" lon="6.82803">
        <time>2023-04-10T08:26:53+00:00</time>
        <ele>2668.0</ele>
      </trkpt>
      <trkpt lat="44.30504" lon="6.82803">
        <time>2023-04-10T08:26:54+00:00</time>
        <ele>2668.0</ele>
      </trkpt>
      <trkpt lat="44.30504" lon="6.82803">
        <time>2023-04-10T08:26:55+00:00</time>
        <ele>2668.0</ele>
      </trkpt>
      <trkpt lat="44.30504" lon="6.82803">
        <time>2023-04-10T08:26:56+00:00</time>
        <ele>2668.0</ele>
      </trkpt>
      <trkpt lat="44.30504" lon="6.82803">
        <time>2023-04-10T08:26:57+00:00</time>
        <ele>2668.0</ele>
      </trkpt>
      <trkpt lat="44.30504" lon="6.82803">
        <time>2023-04-10T08:26:58+00:00</time>
        <ele>2668.0</ele>
      </trkpt>
      <trkpt lat="44.30504" lon="6.82803">
        <time>2023-04-10T08:26:59+00:00</time>
        <ele>2668.0</ele>
      </trkpt>
      <trkpt lat="44.30504" lon="6.82803">
        <time>2023-04-10T08:27:00+00:00</time>
        <ele>2668.0</ele>
      </trkpt>
      <trkpt lat="44.30504" lon="6.82803">
        <time>2023-04-10T08:27:01+00:00</time>
        <ele>2668.0</ele>
      </trkpt>
      <trkpt lat="44.30504" lon="6.82803">
        <time>2023-04-10T08:27:02+00:00</time>
        <ele>2668.0</ele>
      </trkpt>
      <trkpt lat="44.30504" lon="6.82803">
        <time>2023-04-10T08:27:03+00:00</time>
        <ele>2668.0</ele>
      </trkpt>
      <trkpt lat="44.30504" lon="6.82803">
        <time>2023-04-10T08:27:04+00:00</time>
        <ele>2668.0</ele>
      </trkpt>
      <trkpt lat="44.30504" lon="6.82803">
        <time>2023-04-10T08:27:05+00:00</time>
        <ele>2668.0</ele>
      </trkpt>
      <trkpt lat="44.30504" lon="6.82803">
        <time>2023-04-10T08:27:06+00:00</time>
        <ele>2668.0</ele>
      </trkpt>
      <trkpt lat="44.30504" lon="6.82803">
        <time>2023-04-10T08:27:07+00:00</time>
        <ele>2668.0</ele>
      </trkpt>
      <trkpt lat="44.30504" lon="6.82803">
        <time>2023-04-10T08:27:08+00:00</time>
        <ele>2668.0</ele>
      </trkpt>
      <trkpt lat="44.30504" lon="6.82803">
        <time>2023-04-10T08:27:09+00:00</time>
        <ele>2668.0</ele>
      </trkpt>
      <trkpt lat="44.30504" lon="6.82803">
        <time>2023-04-10T08:27:10+00:00</time>
        <ele>2668.0</ele>
      </trkpt>
      <trkpt lat="44.30504" lon="6.82803">
        <time>2023-04-10T08:27:11+00:00</time>
        <ele>2668.0</ele>
      </trkpt>
      <trkpt lat="44.30504" lon="6.82803">
        <time>2023-04-10T08:27:12+00:00</time>
        <ele>2668.0</ele>
      </trkpt>
      <trkpt lat="44.30504" lon="6.82803">
        <time>2023-04-10T08:27:13+00:00</time>
        <ele>2668.0</ele>
      </trkpt>
      <trkpt lat="44.30504" lon="6.82803">
        <time>2023-04-10T08:27:14+00:00</time>
        <ele>2668.0</ele>
      </trkpt>
      <trkpt lat="44.30504" lon="6.82803">
        <time>2023-04-10T08:27:15+00:00</time>
        <ele>2668.0</ele>
      </trkpt>
      <trkpt lat="44.30504" lon="6.82803">
        <time>2023-04-10T08:27:16+00:00</time>
        <ele>2668.0</ele>
      </trkpt>
      <trkpt lat="44.30504" lon="6.82803">
        <time>2023-04-10T08:27:17+00:00</time>
        <ele>2668.0</ele>
      </trkpt>
      <trkpt lat="44.30504" lon="6.82803">
        <time>2023-04-10T08:27:18+00:00</time>
        <ele>2668.0</ele>
      </trkpt>
      <trkpt lat="44.30504" lon="6.82803">
        <time>2023-04-10T08:27:19+00:00</time>
        <ele>2668.0</ele>
      </trkpt>
      <trkpt lat="44.30504" lon="6.82803">
        <time>2023-04-10T08:27:20+00:00</time>
        <ele>2668.0</ele>
      </trkpt>
      <trkpt lat="44.30504" lon="6.82803">
        <time>2023-04-10T08:27:21+00:00</time>
        <ele>2668.0</ele>
      </trkpt>
      <trkpt lat="44.30504" lon="6.82803">
        <time>2023-04-10T08:27:22+00:00</time>
        <ele>2668.0</ele>
      </trkpt>
      <trkpt lat="44.30504" lon="6.82803">
        <time>2023-04-10T08:27:23+00:00</time>
        <ele>2668.0</ele>
      </trkpt>
      <trkpt lat="44.30504" lon="6.82803">
        <time>2023-04-10T08:27:24+00:00</time>
        <ele>2668.0</ele>
      </trkpt>
      <trkpt lat="44.30504" lon="6.82803">
        <time>2023-04-10T08:27:25+00:00</time>
        <ele>2668.0</ele>
      </trkpt>
      <trkpt lat="44.30504" lon="6.82803">
        <time>2023-04-10T08:27:26+00:00</time>
        <ele>2668.0</ele>
      </trkpt>
      <trkpt lat="44.30504" lon="6.82803">
        <time>2023-04-10T08:27:27+00:00</time>
        <ele>2668.0</ele>
      </trkpt>
      <trkpt lat="44.30504" lon="6.82803">
        <time>2023-04-10T08:27:28+00:00</time>
        <ele>2668.0</ele>
      </trkpt>
      <trkpt lat="44.30504" lon="6.82803">
        <time>2023-04-10T08:27:29+00:00</time>
        <ele>2668.0</ele>
      </trkpt>
      <trkpt lat="44.30504" lon="6.82803">
        <time>2023-04-10T08:27:30+00:00</time>
        <ele>2668.0</ele>
      </trkpt>
      <trkpt lat="44.30504" lon="6.82803">
        <time>2023-04-10T08:27:31+00:00</time>
        <ele>2668.0</ele>
      </trkpt>
      <trkpt lat="44.30504" lon="6.82803">
        <time>2023-04-10T08:27:32+00:00</time>
        <ele>2668.0</ele>
      </trkpt>
      <trkpt lat="44.30504" lon="6.82803">
        <time>2023-04-10T08:27:33+00:00</time>
        <ele>2668.0</ele>
      </trkpt>
      <trkpt lat="44.30504" lon="6.82803">
        <time>2023-04-10T08:27:34+00:00</time>
        <ele>2668.0</ele>
      </trkpt>
      <trkpt lat="44.30504" lon="6.82803">
        <time>2023-04-10T08:27:35+00:00</time>
        <ele>2668.0</ele>
      </trkpt>
      <trkpt lat="44.30504" lon="6.82803">
        <time>2023-04-10T08:27:36+00:00</time>
        <ele>2668.0</ele>
      </trkpt>
      <trkpt lat="44.30504" lon="6.82803">
        <time>2023-04-10T08:27:37+00:00</time>
        <ele>2668.0</ele>
      </trkpt>
      <trkpt lat="44.30504" lon="6.82803">
        <time>2023-04-10T08:27:38+00:00</time>
        <ele>2668.0</ele>
      </trkpt>
      <trkpt lat="44.30504" lon="6.82803">
        <time>2023-04-10T08:27:39+00:00</time>
        <ele>2668.0</ele>
      </trkpt>
      <trkpt lat="44.30504" lon="6.82803">
        <time>2023-04-10T08:27:40+00:00</time>
        <ele>2668.0</ele>
      </trkpt>
      <trkpt lat="44.30504" lon="6.82803">
        <time>2023-04-10T08:27:41+00:00</time>
        <ele>2668.0</ele>
      </trkpt>
      <trkpt lat="44.30504" lon="6.82803">
        <time>2023-04-10T08:27:42+00:00</time>
        <ele>2668.0</ele>
      </trkpt>
      <trkpt lat="44.30504" lon="6.82803">
        <time>2023-04-10T08:27:43+00:00</time>
        <ele>2668.0</ele>
      </trkpt>
      <trkpt lat="44.30504" lon="6.82803">
        <time>2023-04-10T08:27:44+00:00</time>
        <ele>2668.0</ele>
      </trkpt>
      <trkpt lat="44.30504" lon="6.82803">
        <time>2023-04-10T08:27:45+00:00</time>
        <ele>2668.0</ele>
      </trkpt>
      <trkpt lat="44.30504" lon="6.82803">
        <time>2023-04-10T08:27:46+00:00</time>
        <ele>2668.0</ele>
      </trkpt>
      <trkpt lat="44.30504" lon="6.82803">
        <time>2023-04-10T08:27:47+00:00</time>
        <ele>2668.0</ele>
      </trkpt>
      <trkpt lat="44.30504" lon="6.82803">
        <time>2023-04-10T08:27:48+00:00</time>
        <ele>2668.0</ele>
      </trkpt>
      <trkpt lat="44.30504" lon="6.82803">
        <time>2023-04-10T08:27:49+00:00</time>
        <ele>2668.0</ele>
      </trkpt>
      <trkpt lat="44.30504" lon="6.82803">
        <time>2023-04-10T08:27:50+00:00</time>
        <ele>2668.0</ele>
      </trkpt>
      <trkpt lat="44.30504" lon="6.82803">
        <time>2023-04-10T08:27:51+00:00</time>
        <ele>2668.0</ele>
      </trkpt>
      <trkpt lat="44.30504" lon="6.82803">
        <time>2023-04-10T08:27:52+00:00</time>
        <ele>2668.0</ele>
      </trkpt>
      <trkpt lat="44.30504" lon="6.82803">
        <time>2023-04-10T08:27:53+00:00</time>
        <ele>2668.0</ele>
      </trkpt>
      <trkpt lat="44.30504" lon="6.82803">
        <time>2023-04-10T08:27:54+00:00</time>
        <ele>2668.0</ele>
      </trkpt>
      <trkpt lat="44.30504" lon="6.82803">
        <time>2023-04-10T08:27:55+00:00</time>
        <ele>2668.0</ele>
      </trkpt>
      <trkpt lat="44.30504" lon="6.82803">
        <time>2023-04-10T08:27:56+00:00</time>
        <ele>2668.0</ele>
      </trkpt>
      <trkpt lat="44.30504" lon="6.82803">
        <time>2023-04-10T08:27:57+00:00</time>
        <ele>2668.0</ele>
      </trkpt>
      <trkpt lat="44.30504" lon="6.82803">
        <time>2023-04-10T08:27:58+00:00</time>
        <ele>2668.0</ele>
      </trkpt>
      <trkpt lat="44.30504" lon="6.82803">
        <time>2023-04-10T08:27:59+00:00</time>
        <ele>2668.0</ele>
      </trkpt>
      <trkpt lat="44.30504" lon="6.82803">
        <time>2023-04-10T08:28:00+00:00</time>
        <ele>2668.0</ele>
      </trkpt>
      <trkpt lat="44.30504" lon="6.82803">
        <time>2023-04-10T08:28:01+00:00</time>
        <ele>2668.0</ele>
      </trkpt>
      <trkpt lat="44.30504" lon="6.82803">
        <time>2023-04-10T08:28:02+00:00</time>
        <ele>2668.0</ele>
      </trkpt>
      <trkpt lat="44.30504" lon="6.82803">
        <time>2023-04-10T08:28:03+00:00</time>
        <ele>2668.0</ele>
      </trkpt>
      <trkpt lat="44.30504" lon="6.82803">
        <time>2023-04-10T08:28:04+00:00</time>
        <ele>2668.0</ele>
      </trkpt>
      <trkpt lat="44.30504" lon="6.82803">
        <time>2023-04-10T08:28:05+00:00</time>
        <ele>2668.0</ele>
      </trkpt>
      <trkpt lat="44.30504" lon="6.82803">
        <time>2023-04-10T08:28:06+00:00</time>
        <ele>2668.0</ele>
      </trkpt>
      <trkpt lat="44.30504" lon="6.82803">
        <time>2023-04-10T08:28:07+00:00</time>
        <ele>2668.0</ele>
      </trkpt>
      <trkpt lat="44.30504" lon="6.82803">
        <time>2023-04-10T08:28:08+00:00</time>
        <ele>2668.0</ele>
      </trkpt>
      <trkpt lat="44.30504" lon="6.82803">
        <time>2023-04-10T08:28:09+00:00</time>
        <ele>2668.0</ele>
      </trkpt>
      <trkpt lat="44.30504" lon="6.82803">
        <time>2023-04-10T08:28:10+00:00</time>
        <ele>2668.0</ele>
      </trkpt>
      <trkpt lat="44.30504" lon="6.82803">
        <time>2023-04-10T08:28:11+00:00</time>
        <ele>2668.0</ele>
      </trkpt>
      <trkpt lat="44.30504" lon="6.82803">
        <time>2023-04-10T08:28:12+00:00</time>
        <ele>2668.0</ele>
      </trkpt>
      <trkpt lat="44.30504" lon="6.82803">
        <time>2023-04-10T08:28:13+00:00</time>
        <ele>2668.0</ele>
      </trkpt>
      <trkpt lat="44.30504" lon="6.82803">
        <time>2023-04-10T08:28:14+00:00</time>
        <ele>2668.0</ele>
      </trkpt>
      <trkpt lat="44.30504" lon="6.82803">
        <time>2023-04-10T08:28:15+00:00</time>
        <ele>2668.0</ele>
      </trkpt>
      <trkpt lat="44.30504" lon="6.82803">
        <time>2023-04-10T08:28:16+00:00</time>
        <ele>2668.0</ele>
      </trkpt>
      <trkpt lat="44.30504" lon="6.82803">
        <time>2023-04-10T08:28:17+00:00</time>
        <ele>2668.0</ele>
      </trkpt>
      <trkpt lat="44.30504" lon="6.82803">
        <time>2023-04-10T08:28:18+00:00</time>
        <ele>2668.0</ele>
      </trkpt>
      <trkpt lat="44.30504" lon="6.82803">
        <time>2023-04-10T08:28:19+00:00</time>
        <ele>2668.0</ele>
      </trkpt>
      <trkpt lat="44.30504" lon="6.82803">
        <time>2023-04-10T08:28:20+00:00</time>
        <ele>2668.0</ele>
      </trkpt>
      <trkpt lat="44.30504" lon="6.82803">
        <time>2023-04-10T08:28:21+00:00</time>
        <ele>2668.0</ele>
      </trkpt>
      <trkpt lat="44.30504" lon="6.82803">
        <time>2023-04-10T08:28:22+00:00</time>
        <ele>2668.0</ele>
      </trkpt>
      <trkpt lat="44.30504" lon="6.82803">
        <time>2023-04-10T08:28:23+00:00</time>
        <ele>2668.0</ele>
      </trkpt>
      <trkpt lat="44.30504" lon="6.82803">
        <time>2023-04-10T08:28:24+00:00</time>
        <ele>2668.0</ele>
      </trkpt>
      <trkpt lat="44.30504" lon="6.82803">
        <time>2023-04-10T08:28:25+00:00</time>
        <ele>2668.0</ele>
      </trkpt>
      <trkpt lat="44.30504" lon="6.82803">
        <time>2023-04-10T08:28:26+00:00</time>
        <ele>2668.0</ele>
      </trkpt>
      <trkpt lat="44.30504" lon="6.82803">
        <time>2023-04-10T08:28:27+00:00</time>
        <ele>2668.0</ele>
      </trkpt>
      <trkpt lat="44.30504" lon="6.82803">
        <time>2023-04-10T08:28:28+00:00</time>
        <ele>2668.0</ele>
      </trkpt>
      <trkpt lat="44.30504" lon="6.82803">
        <time>2023-04-10T08:28:29+00:00</time>
        <ele>2668.0</ele>
      </trkpt>
      <trkpt lat="44.30504" lon="6.82803">
        <time>2023-04-10T08:28:30+00:00</time>
        <ele>2668.0</ele>
      </trkpt>
      <trkpt lat="44.30504" lon="6.82803">
        <time>2023-04-10T08:28:31+00:00</time>
        <ele>2668.0</ele>
      </trkpt>
      <trkpt lat="44.30504" lon="6.82803">
        <time>2023-04-10T08:28:32+00:00</time>
        <ele>2668.0</ele>
      </trkpt>
      <trkpt lat="44.30504" lon="6.82803">
        <time>2023-04-10T08:28:33+00:00</time>
        <ele>2668.0</ele>
      </trkpt>
      <trkpt lat="44.30504" lon="6.82803">
        <time>2023-04-10T08:28:34+00:00</time>
        <ele>2668.0</ele>
      </trkpt>
      <trkpt lat="44.30504" lon="6.82803">
        <time>2023-04-10T08:28:35+00:00</time>
        <ele>2668.0</ele>
      </trkpt>
      <trkpt lat="44.30504" lon="6.82803">
        <time>2023-04-10T08:28:36+00:00</time>
        <ele>2668.0</ele>
      </trkpt>
      <trkpt lat="44.30504" lon="6.82803">
        <time>2023-04-10T08:28:37+00:00</time>
        <ele>2668.0</ele>
      </trkpt>
      <trkpt lat="44.30504" lon="6.82803">
        <time>2023-04-10T08:28:38+00:00</time>
        <ele>2668.0</ele>
      </trkpt>
      <trkpt lat="44.30504" lon="6.82803">
        <time>2023-04-10T08:28:39+00:00</time>
        <ele>2668.0</ele>
      </trkpt>
      <trkpt lat="44.30504" lon="6.82803">
        <time>2023-04-10T08:28:40+00:00</time>
        <ele>2668.0</ele>
      </trkpt>
      <trkpt lat="44.30504" lon="6.82803">
        <time>2023-04-10T08:28:41+00:00</time>
        <ele>2668.0</ele>
      </trkpt>
      <trkpt lat="44.30504" lon="6.82803">
        <time>2023-04-10T08:28:42+00:00</time>
        <ele>2668.0</ele>
      </trkpt>
      <trkpt lat="44.30504" lon="6.82803">
        <time>2023-04-10T08:28:43+00:00</time>
        <ele>2668.0</ele>
      </trkpt>
      <trkpt lat="44.30504" lon="6.82803">
        <time>2023-04-10T08:28:44+00:00</time>
        <ele>2668.0</ele>
      </trkpt>
      <trkpt lat="44.30504" lon="6.82803">
        <time>2023-04-10T08:28:45+00:00</time>
        <ele>2668.0</ele>
      </trkpt>
      <trkpt lat="44.30504" lon="6.82803">
        <time>2023-04-10T08:28:46+00:00</time>
        <ele>2668.0</ele>
      </trkpt>
      <trkpt lat="44.30504" lon="6.82803">
        <time>2023-04-10T08:28:47+00:00</time>
        <ele>2668.0</ele>
      </trkpt>
      <trkpt lat="44.30504" lon="6.82803">
        <time>2023-04-10T08:28:48+00:00</time>
        <ele>2668.0</ele>
      </trkpt>
      <trkpt lat="44.30504" lon="6.82803">
        <time>2023-04-10T08:28:49+00:00</time>
        <ele>2668.0</ele>
      </trkpt>
      <trkpt lat="44.30504" lon="6.82803">
        <time>2023-04-10T08:28:50+00:00</time>
        <ele>2668.0</ele>
      </trkpt>
      <trkpt lat="44.30504" lon="6.82803">
        <time>2023-04-10T08:28:51+00:00</time>
        <ele>2668.0</ele>
      </trkpt>
      <trkpt lat="44.30504" lon="6.82803">
        <time>2023-04-10T08:28:52+00:00</time>
        <ele>2668.0</ele>
      </trkpt>
      <trkpt lat="44.30504" lon="6.82803">
        <time>2023-04-10T08:28:53+00:00</time>
        <ele>2668.0</ele>
      </trkpt>
      <trkpt lat="44.30504" lon="6.82803">
        <time>2023-04-10T08:28:54+00:00</time>
        <ele>2668.0</ele>
      </trkpt>
      <trkpt lat="44.30504" lon="6.82803">
        <time>2023-04-10T08:28:55+00:00</time>
        <ele>2668.0</ele>
      </trkpt>
      <trkpt lat="44.30504" lon="6.82803">
        <time>2023-04-10T08:28:56+00:00</time>
        <ele>2668.0</ele>
      </trkpt>
      <trkpt lat="44.30504" lon="6.82803">
        <time>2023-04-10T08:28:57+00:00</time>
        <ele>2668.0</ele>
      </trkpt>
      <trkpt lat="44.30504" lon="6.82803">
        <time>2023-04-10T08:28:58+00:00</time>
        <ele>2668.0</ele>
      </trkpt>
      <trkpt lat="44.30504" lon="6.82803">
        <time>2023-04-10T08:28:59+00:00</time>
        <ele>2668.0</ele>
      </trkpt>
      <trkpt lat="44.30504" lon="6.82803">
        <time>2023-04-10T08:29:00+00:00</time>
        <ele>2668.0</ele>
      </trkpt>
      <trkpt lat="44.30504" lon="6.82803">
        <time>2023-04-10T08:29:01+00:00</time>
        <ele>2668.0</ele>
      </trkpt>
      <trkpt lat="44.30504" lon="6.82803">
        <time>2023-04-10T08:29:02+00:00</time>
        <ele>2668.0</ele>
      </trkpt>
      <trkpt lat="44.30504" lon="6.82803">
        <time>2023-04-10T08:29:03+00:00</time>
        <ele>2668.0</ele>
      </trkpt>
      <trkpt lat="44.30504" lon="6.82803">
        <time>2023-04-10T08:29:04+00:00</time>
        <ele>2668.0</ele>
      </trkpt>
      <trkpt lat="44.30504" lon="6.82803">
        <time>2023-04-10T08:29:05+00:00</time>
        <ele>2668.0</ele>
      </trkpt>
      <trkpt lat="44.30504" lon="6.82803">
        <time>2023-04-10T08:29:06+00:00</time>
        <ele>2668.0</ele>
      </trkpt>
      <trkpt lat="44.30504" lon="6.82803">
        <time>2023-04-10T08:29:07+00:00</time>
        <ele>2668.0</ele>
      </trkpt>
      <trkpt lat="44.30504" lon="6.82803">
        <time>2023-04-10T08:29:08+00:00</time>
        <ele>2668.0</ele>
      </trkpt>
      <trkpt lat="44.30504" lon="6.82803">
        <time>2023-04-10T08:29:09+00:00</time>
        <ele>2668.0</ele>
      </trkpt>
      <trkpt lat="44.30504" lon="6.82803">
        <time>2023-04-10T08:29:10+00:00</time>
        <ele>2668.0</ele>
      </trkpt>
      <trkpt lat="44.30504" lon="6.82803">
        <time>2023-04-10T08:29:11+00:00</time>
        <ele>2668.0</ele>
      </trkpt>
      <trkpt lat="44.30504" lon="6.82803">
        <time>2023-04-10T08:29:12+00:00</time>
        <ele>2668.0</ele>
      </trkpt>
      <trkpt lat="44.30504" lon="6.82803">
        <time>2023-04-10T08:29:13+00:00</time>
        <ele>2668.0</ele>
      </trkpt>
      <trkpt lat="44.30504" lon="6.82803">
        <time>2023-04-10T08:29:14+00:00</time>
        <ele>2668.0</ele>
      </trkpt>
      <trkpt lat="44.30503" lon="6.82803">
        <time>2023-04-10T08:29:15+00:00</time>
        <ele>2667.0</ele>
      </trkpt>
      <trkpt lat="44.30503" lon="6.82803">
        <time>2023-04-10T08:29:16+00:00</time>
        <ele>2667.0</ele>
      </trkpt>
      <trkpt lat="44.30503" lon="6.82803">
        <time>2023-04-10T08:29:17+00:00</time>
        <ele>2667.0</ele>
      </trkpt>
      <trkpt lat="44.30503" lon="6.82803">
        <time>2023-04-10T08:29:18+00:00</time>
        <ele>2667.0</ele>
      </trkpt>
      <trkpt lat="44.30503" lon="6.82803">
        <time>2023-04-10T08:29:19+00:00</time>
        <ele>2667.0</ele>
      </trkpt>
      <trkpt lat="44.30503" lon="6.82803">
        <time>2023-04-10T08:29:20+00:00</time>
        <ele>2667.0</ele>
      </trkpt>
      <trkpt lat="44.30503" lon="6.82803">
        <time>2023-04-10T08:29:21+00:00</time>
        <ele>2667.0</ele>
      </trkpt>
      <trkpt lat="44.30503" lon="6.82803">
        <time>2023-04-10T08:29:22+00:00</time>
        <ele>2667.0</ele>
      </trkpt>
      <trkpt lat="44.30503" lon="6.82803">
        <time>2023-04-10T08:29:23+00:00</time>
        <ele>2667.0</ele>
      </trkpt>
      <trkpt lat="44.30503" lon="6.82803">
        <time>2023-04-10T08:29:24+00:00</time>
        <ele>2667.0</ele>
      </trkpt>
      <trkpt lat="44.30503" lon="6.82803">
        <time>2023-04-10T08:29:25+00:00</time>
        <ele>2667.0</ele>
      </trkpt>
      <trkpt lat="44.30503" lon="6.82803">
        <time>2023-04-10T08:29:26+00:00</time>
        <ele>2667.0</ele>
      </trkpt>
      <trkpt lat="44.30503" lon="6.82803">
        <time>2023-04-10T08:29:27+00:00</time>
        <ele>2667.0</ele>
      </trkpt>
      <trkpt lat="44.30503" lon="6.82803">
        <time>2023-04-10T08:29:28+00:00</time>
        <ele>2667.0</ele>
      </trkpt>
      <trkpt lat="44.30503" lon="6.82803">
        <time>2023-04-10T08:29:29+00:00</time>
        <ele>2667.0</ele>
      </trkpt>
      <trkpt lat="44.30503" lon="6.82803">
        <time>2023-04-10T08:29:30+00:00</time>
        <ele>2667.0</ele>
      </trkpt>
      <trkpt lat="44.30503" lon="6.82803">
        <time>2023-04-10T08:29:31+00:00</time>
        <ele>2667.0</ele>
      </trkpt>
      <trkpt lat="44.30503" lon="6.82803">
        <time>2023-04-10T08:29:32+00:00</time>
        <ele>2667.0</ele>
      </trkpt>
      <trkpt lat="44.30503" lon="6.82803">
        <time>2023-04-10T08:29:33+00:00</time>
        <ele>2667.0</ele>
      </trkpt>
      <trkpt lat="44.30503" lon="6.82803">
        <time>2023-04-10T08:29:34+00:00</time>
        <ele>2667.0</ele>
      </trkpt>
      <trkpt lat="44.30503" lon="6.82803">
        <time>2023-04-10T08:29:35+00:00</time>
        <ele>2667.0</ele>
      </trkpt>
      <trkpt lat="44.30503" lon="6.82803">
        <time>2023-04-10T08:29:36+00:00</time>
        <ele>2667.0</ele>
      </trkpt>
      <trkpt lat="44.30503" lon="6.82803">
        <time>2023-04-10T08:29:37+00:00</time>
        <ele>2667.0</ele>
      </trkpt>
      <trkpt lat="44.30503" lon="6.82803">
        <time>2023-04-10T08:29:38+00:00</time>
        <ele>2667.0</ele>
      </trkpt>
      <trkpt lat="44.30503" lon="6.82803">
        <time>2023-04-10T08:29:39+00:00</time>
        <ele>2667.0</ele>
      </trkpt>
      <trkpt lat="44.30503" lon="6.82803">
        <time>2023-04-10T08:29:40+00:00</time>
        <ele>2667.0</ele>
      </trkpt>
      <trkpt lat="44.30503" lon="6.82803">
        <time>2023-04-10T08:29:41+00:00</time>
        <ele>2667.0</ele>
      </trkpt>
      <trkpt lat="44.30503" lon="6.82803">
        <time>2023-04-10T08:29:42+00:00</time>
        <ele>2667.0</ele>
      </trkpt>
      <trkpt lat="44.30503" lon="6.82803">
        <time>2023-04-10T08:29:43+00:00</time>
        <ele>2667.0</ele>
      </trkpt>
      <trkpt lat="44.30503" lon="6.82803">
        <time>2023-04-10T08:29:44+00:00</time>
        <ele>2667.0</ele>
      </trkpt>
      <trkpt lat="44.30503" lon="6.82803">
        <time>2023-04-10T08:29:45+00:00</time>
        <ele>2667.0</ele>
      </trkpt>
      <trkpt lat="44.30503" lon="6.82803">
        <time>2023-04-10T08:29:46+00:00</time>
        <ele>2667.0</ele>
      </trkpt>
      <trkpt lat="44.30503" lon="6.82803">
        <time>2023-04-10T08:29:47+00:00</time>
        <ele>2667.0</ele>
      </trkpt>
      <trkpt lat="44.30503" lon="6.82803">
        <time>2023-04-10T08:29:48+00:00</time>
        <ele>2667.0</ele>
      </trkpt>
      <trkpt lat="44.30503" lon="6.82803">
        <time>2023-04-10T08:29:49+00:00</time>
        <ele>2667.0</ele>
      </trkpt>
      <trkpt lat="44.30503" lon="6.82803">
        <time>2023-04-10T08:29:50+00:00</time>
        <ele>2667.0</ele>
      </trkpt>
      <trkpt lat="44.30503" lon="6.82803">
        <time>2023-04-10T08:29:51+00:00</time>
        <ele>2667.0</ele>
      </trkpt>
      <trkpt lat="44.30503" lon="6.82803">
        <time>2023-04-10T08:29:52+00:00</time>
        <ele>2667.0</ele>
      </trkpt>
      <trkpt lat="44.30503" lon="6.82803">
        <time>2023-04-10T08:29:53+00:00</time>
        <ele>2667.0</ele>
      </trkpt>
      <trkpt lat="44.30503" lon="6.82803">
        <time>2023-04-10T08:29:54+00:00</time>
        <ele>2667.0</ele>
      </trkpt>
      <trkpt lat="44.30503" lon="6.82803">
        <time>2023-04-10T08:29:55+00:00</time>
        <ele>2667.0</ele>
      </trkpt>
      <trkpt lat="44.30503" lon="6.82803">
        <time>2023-04-10T08:29:56+00:00</time>
        <ele>2667.0</ele>
      </trkpt>
      <trkpt lat="44.30503" lon="6.82803">
        <time>2023-04-10T08:29:57+00:00</time>
        <ele>2667.0</ele>
      </trkpt>
      <trkpt lat="44.30503" lon="6.82803">
        <time>2023-04-10T08:29:58+00:00</time>
        <ele>2667.0</ele>
      </trkpt>
      <trkpt lat="44.30503" lon="6.82803">
        <time>2023-04-10T08:29:59+00:00</time>
        <ele>2667.0</ele>
      </trkpt>
      <trkpt lat="44.30503" lon="6.82803">
        <time>2023-04-10T08:30:01+00:00</time>
        <ele>2667.0</ele>
      </trkpt>
      <trkpt lat="44.30503" lon="6.82803">
        <time>2023-04-10T08:30:03+00:00</time>
        <ele>2667.0</ele>
      </trkpt>
      <trkpt lat="44.30503" lon="6.82803">
        <time>2023-04-10T08:30:04+00:00</time>
        <ele>2667.0</ele>
      </trkpt>
      <trkpt lat="44.30503" lon="6.82803">
        <time>2023-04-10T08:30:05+00:00</time>
        <ele>2667.0</ele>
      </trkpt>
      <trkpt lat="44.30503" lon="6.82803">
        <time>2023-04-10T08:30:06+00:00</time>
        <ele>2667.0</ele>
      </trkpt>
      <trkpt lat="44.30503" lon="6.82803">
        <time>2023-04-10T08:30:07+00:00</time>
        <ele>2667.0</ele>
      </trkpt>
      <trkpt lat="44.30503" lon="6.82803">
        <time>2023-04-10T08:30:08+00:00</time>
        <ele>2667.0</ele>
      </trkpt>
      <trkpt lat="44.30503" lon="6.82803">
        <time>2023-04-10T08:30:09+00:00</time>
        <ele>2667.0</ele>
      </trkpt>
      <trkpt lat="44.30503" lon="6.82803">
        <time>2023-04-10T08:30:10+00:00</time>
        <ele>2667.0</ele>
      </trkpt>
      <trkpt lat="44.30503" lon="6.82803">
        <time>2023-04-10T08:30:11+00:00</time>
        <ele>2667.0</ele>
      </trkpt>
      <trkpt lat="44.30503" lon="6.82803">
        <time>2023-04-10T08:30:12+00:00</time>
        <ele>2667.0</ele>
      </trkpt>
      <trkpt lat="44.30503" lon="6.82803">
        <time>2023-04-10T08:30:13+00:00</time>
        <ele>2667.0</ele>
      </trkpt>
      <trkpt lat="44.30503" lon="6.82803">
        <time>2023-04-10T08:30:14+00:00</time>
        <ele>2667.0</ele>
      </trkpt>
      <trkpt lat="44.30503" lon="6.82803">
        <time>2023-04-10T08:30:15+00:00</time>
        <ele>2667.0</ele>
      </trkpt>
      <trkpt lat="44.30503" lon="6.82803">
        <time>2023-04-10T08:30:16+00:00</time>
        <ele>2667.0</ele>
      </trkpt>
      <trkpt lat="44.30503" lon="6.82803">
        <time>2023-04-10T08:30:17+00:00</time>
        <ele>2667.0</ele>
      </trkpt>
      <trkpt lat="44.30503" lon="6.82803">
        <time>2023-04-10T08:30:18+00:00</time>
        <ele>2667.0</ele>
      </trkpt>
      <trkpt lat="44.30503" lon="6.82803">
        <time>2023-04-10T08:30:19+00:00</time>
        <ele>2667.0</ele>
      </trkpt>
      <trkpt lat="44.30503" lon="6.82803">
        <time>2023-04-10T08:30:20+00:00</time>
        <ele>2667.0</ele>
      </trkpt>
      <trkpt lat="44.30503" lon="6.82803">
        <time>2023-04-10T08:30:21+00:00</time>
        <ele>2667.0</ele>
      </trkpt>
      <trkpt lat="44.30503" lon="6.82803">
        <time>2023-04-10T08:30:22+00:00</time>
        <ele>2667.0</ele>
      </trkpt>
      <trkpt lat="44.30503" lon="6.82803">
        <time>2023-04-10T08:30:23+00:00</time>
        <ele>2667.0</ele>
      </trkpt>
      <trkpt lat="44.30503" lon="6.82803">
        <time>2023-04-10T08:30:24+00:00</time>
        <ele>2667.0</ele>
      </trkpt>
      <trkpt lat="44.30503" lon="6.82803">
        <time>2023-04-10T08:30:25+00:00</time>
        <ele>2667.0</ele>
      </trkpt>
      <trkpt lat="44.30503" lon="6.82803">
        <time>2023-04-10T08:30:26+00:00</time>
        <ele>2667.0</ele>
      </trkpt>
      <trkpt lat="44.30503" lon="6.82803">
        <time>2023-04-10T08:30:27+00:00</time>
        <ele>2667.0</ele>
      </trkpt>
      <trkpt lat="44.30503" lon="6.82803">
        <time>2023-04-10T08:30:28+00:00</time>
        <ele>2667.0</ele>
      </trkpt>
      <trkpt lat="44.30503" lon="6.82803">
        <time>2023-04-10T08:30:29+00:00</time>
        <ele>2667.0</ele>
      </trkpt>
      <trkpt lat="44.30503" lon="6.82803">
        <time>2023-04-10T08:30:30+00:00</time>
        <ele>2667.0</ele>
      </trkpt>
      <trkpt lat="44.30503" lon="6.82803">
        <time>2023-04-10T08:30:31+00:00</time>
        <ele>2667.0</ele>
      </trkpt>
      <trkpt lat="44.30503" lon="6.82803">
        <time>2023-04-10T08:30:34+00:00</time>
        <ele>2667.0</ele>
      </trkpt>
      <trkpt lat="44.30503" lon="6.82803">
        <time>2023-04-10T08:30:35+00:00</time>
        <ele>2667.0</ele>
      </trkpt>
      <trkpt lat="44.30503" lon="6.82803">
        <time>2023-04-10T08:30:36+00:00</time>
        <ele>2667.0</ele>
      </trkpt>
      <trkpt lat="44.30503" lon="6.82803">
        <time>2023-04-10T08:30:37+00:00</time>
        <ele>2667.0</ele>
      </trkpt>
      <trkpt lat="44.30503" lon="6.82803">
        <time>2023-04-10T08:30:38+00:00</time>
        <ele>2667.0</ele>
      </trkpt>
      <trkpt lat="44.30503" lon="6.82803">
        <time>2023-04-10T08:30:39+00:00</time>
        <ele>2667.0</ele>
      </trkpt>
      <trkpt lat="44.30503" lon="6.82803">
        <time>2023-04-10T08:30:40+00:00</time>
        <ele>2667.0</ele>
      </trkpt>
      <trkpt lat="44.30503" lon="6.82803">
        <time>2023-04-10T08:30:41+00:00</time>
        <ele>2667.0</ele>
      </trkpt>
      <trkpt lat="44.30503" lon="6.82803">
        <time>2023-04-10T08:30:42+00:00</time>
        <ele>2667.0</ele>
      </trkpt>
      <trkpt lat="44.30503" lon="6.82803">
        <time>2023-04-10T08:30:43+00:00</time>
        <ele>2667.0</ele>
      </trkpt>
      <trkpt lat="44.30503" lon="6.82803">
        <time>2023-04-10T08:30:44+00:00</time>
        <ele>2667.0</ele>
      </trkpt>
      <trkpt lat="44.30503" lon="6.82803">
        <time>2023-04-10T08:30:45+00:00</time>
        <ele>2667.0</ele>
      </trkpt>
      <trkpt lat="44.30503" lon="6.82803">
        <time>2023-04-10T08:30:46+00:00</time>
        <ele>2667.0</ele>
      </trkpt>
      <trkpt lat="44.30503" lon="6.82803">
        <time>2023-04-10T08:30:47+00:00</time>
        <ele>2667.0</ele>
      </trkpt>
      <trkpt lat="44.30503" lon="6.82803">
        <time>2023-04-10T08:30:48+00:00</time>
        <ele>2667.0</ele>
      </trkpt>
      <trkpt lat="44.30503" lon="6.82803">
        <time>2023-04-10T08:30:49+00:00</time>
        <ele>2667.0</ele>
      </trkpt>
      <trkpt lat="44.30503" lon="6.82803">
        <time>2023-04-10T08:30:50+00:00</time>
        <ele>2667.0</ele>
      </trkpt>
      <trkpt lat="44.30503" lon="6.82803">
        <time>2023-04-10T08:30:51+00:00</time>
        <ele>2667.0</ele>
      </trkpt>
      <trkpt lat="44.30503" lon="6.82803">
        <time>2023-04-10T08:30:52+00:00</time>
        <ele>2667.0</ele>
      </trkpt>
      <trkpt lat="44.30503" lon="6.82803">
        <time>2023-04-10T08:30:53+00:00</time>
        <ele>2667.0</ele>
      </trkpt>
      <trkpt lat="44.30503" lon="6.82803">
        <time>2023-04-10T08:30:54+00:00</time>
        <ele>2667.0</ele>
      </trkpt>
      <trkpt lat="44.30503" lon="6.82803">
        <time>2023-04-10T08:30:55+00:00</time>
        <ele>2667.0</ele>
      </trkpt>
      <trkpt lat="44.30503" lon="6.82803">
        <time>2023-04-10T08:30:56+00:00</time>
        <ele>2667.0</ele>
      </trkpt>
      <trkpt lat="44.30503" lon="6.82803">
        <time>2023-04-10T08:30:57+00:00</time>
        <ele>2667.0</ele>
      </trkpt>
      <trkpt lat="44.30503" lon="6.82803">
        <time>2023-04-10T08:30:58+00:00</time>
        <ele>2667.0</ele>
      </trkpt>
      <trkpt lat="44.30503" lon="6.82803">
        <time>2023-04-10T08:30:59+00:00</time>
        <ele>2667.0</ele>
      </trkpt>
      <trkpt lat="44.30503" lon="6.82803">
        <time>2023-04-10T08:31:00+00:00</time>
        <ele>2667.0</ele>
      </trkpt>
      <trkpt lat="44.30503" lon="6.82803">
        <time>2023-04-10T08:31:01+00:00</time>
        <ele>2667.0</ele>
      </trkpt>
      <trkpt lat="44.30503" lon="6.82803">
        <time>2023-04-10T08:31:02+00:00</time>
        <ele>2667.0</ele>
      </trkpt>
      <trkpt lat="44.30503" lon="6.82803">
        <time>2023-04-10T08:31:03+00:00</time>
        <ele>2667.0</ele>
      </trkpt>
      <trkpt lat="44.30503" lon="6.82803">
        <time>2023-04-10T08:31:04+00:00</time>
        <ele>2667.0</ele>
      </trkpt>
      <trkpt lat="44.30503" lon="6.82803">
        <time>2023-04-10T08:31:05+00:00</time>
        <ele>2667.0</ele>
      </trkpt>
      <trkpt lat="44.30503" lon="6.82803">
        <time>2023-04-10T08:31:06+00:00</time>
        <ele>2667.0</ele>
      </trkpt>
      <trkpt lat="44.30503" lon="6.82803">
        <time>2023-04-10T08:31:07+00:00</time>
        <ele>2667.0</ele>
      </trkpt>
      <trkpt lat="44.30503" lon="6.82803">
        <time>2023-04-10T08:31:08+00:00</time>
        <ele>2667.0</ele>
      </trkpt>
      <trkpt lat="44.30503" lon="6.82803">
        <time>2023-04-10T08:31:09+00:00</time>
        <ele>2667.0</ele>
      </trkpt>
      <trkpt lat="44.30503" lon="6.82803">
        <time>2023-04-10T08:31:10+00:00</time>
        <ele>2667.0</ele>
      </trkpt>
      <trkpt lat="44.30503" lon="6.82803">
        <time>2023-04-10T08:31:11+00:00</time>
        <ele>2667.0</ele>
      </trkpt>
      <trkpt lat="44.30503" lon="6.82803">
        <time>2023-04-10T08:31:12+00:00</time>
        <ele>2667.0</ele>
      </trkpt>
      <trkpt lat="44.30503" lon="6.82803">
        <time>2023-04-10T08:31:13+00:00</time>
        <ele>2667.0</ele>
      </trkpt>
      <trkpt lat="44.30503" lon="6.82803">
        <time>2023-04-10T08:31:14+00:00</time>
        <ele>2667.0</ele>
      </trkpt>
      <trkpt lat="44.30503" lon="6.82803">
        <time>2023-04-10T08:31:15+00:00</time>
        <ele>2667.0</ele>
      </trkpt>
      <trkpt lat="44.30503" lon="6.82803">
        <time>2023-04-10T08:31:16+00:00</time>
        <ele>2667.0</ele>
      </trkpt>
      <trkpt lat="44.30503" lon="6.82803">
        <time>2023-04-10T08:31:17+00:00</time>
        <ele>2667.0</ele>
      </trkpt>
      <trkpt lat="44.30503" lon="6.82803">
        <time>2023-04-10T08:31:18+00:00</time>
        <ele>2667.0</ele>
      </trkpt>
      <trkpt lat="44.30503" lon="6.82803">
        <time>2023-04-10T08:31:19+00:00</time>
        <ele>2667.0</ele>
      </trkpt>
      <trkpt lat="44.30503" lon="6.82803">
        <time>2023-04-10T08:31:20+00:00</time>
        <ele>2667.0</ele>
      </trkpt>
      <trkpt lat="44.30503" lon="6.82803">
        <time>2023-04-10T08:31:21+00:00</time>
        <ele>2667.0</ele>
      </trkpt>
      <trkpt lat="44.30503" lon="6.82803">
        <time>2023-04-10T08:31:22+00:00</time>
        <ele>2667.0</ele>
      </trkpt>
      <trkpt lat="44.30503" lon="6.82803">
        <time>2023-04-10T08:31:23+00:00</time>
        <ele>2667.0</ele>
      </trkpt>
      <trkpt lat="44.30503" lon="6.82803">
        <time>2023-04-10T08:31:24+00:00</time>
        <ele>2667.0</ele>
      </trkpt>
      <trkpt lat="44.30503" lon="6.82803">
        <time>2023-04-10T08:31:25+00:00</time>
        <ele>2667.0</ele>
      </trkpt>
      <trkpt lat="44.30503" lon="6.82803">
        <time>2023-04-10T08:31:26+00:00</time>
        <ele>2667.0</ele>
      </trkpt>
      <trkpt lat="44.30503" lon="6.82803">
        <time>2023-04-10T08:31:27+00:00</time>
        <ele>2667.0</ele>
      </trkpt>
      <trkpt lat="44.30503" lon="6.82803">
        <time>2023-04-10T08:31:28+00:00</time>
        <ele>2667.0</ele>
      </trkpt>
      <trkpt lat="44.30503" lon="6.82803">
        <time>2023-04-10T08:31:29+00:00</time>
        <ele>2667.0</ele>
      </trkpt>
      <trkpt lat="44.30503" lon="6.82803">
        <time>2023-04-10T08:31:30+00:00</time>
        <ele>2667.0</ele>
      </trkpt>
      <trkpt lat="44.30503" lon="6.82803">
        <time>2023-04-10T08:31:31+00:00</time>
        <ele>2667.0</ele>
      </trkpt>
      <trkpt lat="44.30503" lon="6.82803">
        <time>2023-04-10T08:31:32+00:00</time>
        <ele>2667.0</ele>
      </trkpt>
      <trkpt lat="44.30503" lon="6.82803">
        <time>2023-04-10T08:31:33+00:00</time>
        <ele>2667.0</ele>
      </trkpt>
      <trkpt lat="44.30503" lon="6.82803">
        <time>2023-04-10T08:31:34+00:00</time>
        <ele>2667.0</ele>
      </trkpt>
      <trkpt lat="44.30503" lon="6.82803">
        <time>2023-04-10T08:31:35+00:00</time>
        <ele>2667.0</ele>
      </trkpt>
      <trkpt lat="44.30503" lon="6.82803">
        <time>2023-04-10T08:31:36+00:00</time>
        <ele>2667.0</ele>
      </trkpt>
      <trkpt lat="44.30503" lon="6.82803">
        <time>2023-04-10T08:31:37+00:00</time>
        <ele>2667.0</ele>
      </trkpt>
      <trkpt lat="44.30503" lon="6.82803">
        <time>2023-04-10T08:31:38+00:00</time>
        <ele>2667.0</ele>
      </trkpt>
      <trkpt lat="44.30503" lon="6.82803">
        <time>2023-04-10T08:31:39+00:00</time>
        <ele>2667.0</ele>
      </trkpt>
      <trkpt lat="44.30503" lon="6.82803">
        <time>2023-04-10T08:31:40+00:00</time>
        <ele>2667.0</ele>
      </trkpt>
      <trkpt lat="44.30503" lon="6.82803">
        <time>2023-04-10T08:31:41+00:00</time>
        <ele>2667.0</ele>
      </trkpt>
      <trkpt lat="44.30503" lon="6.82803">
        <time>2023-04-10T08:31:42+00:00</time>
        <ele>2667.0</ele>
      </trkpt>
      <trkpt lat="44.30503" lon="6.82803">
        <time>2023-04-10T08:31:43+00:00</time>
        <ele>2667.0</ele>
      </trkpt>
      <trkpt lat="44.30503" lon="6.82803">
        <time>2023-04-10T08:31:44+00:00</time>
        <ele>2667.0</ele>
      </trkpt>
      <trkpt lat="44.30503" lon="6.82803">
        <time>2023-04-10T08:31:45+00:00</time>
        <ele>2667.0</ele>
      </trkpt>
      <trkpt lat="44.30503" lon="6.82803">
        <time>2023-04-10T08:31:46+00:00</time>
        <ele>2667.0</ele>
      </trkpt>
      <trkpt lat="44.30503" lon="6.82803">
        <time>2023-04-10T08:31:47+00:00</time>
        <ele>2667.0</ele>
      </trkpt>
      <trkpt lat="44.30503" lon="6.82803">
        <time>2023-04-10T08:31:48+00:00</time>
        <ele>2667.0</ele>
      </trkpt>
      <trkpt lat="44.30503" lon="6.82803">
        <time>2023-04-10T08:31:49+00:00</time>
        <ele>2667.0</ele>
      </trkpt>
      <trkpt lat="44.30503" lon="6.82803">
        <time>2023-04-10T08:31:50+00:00</time>
        <ele>2667.0</ele>
      </trkpt>
      <trkpt lat="44.30503" lon="6.82804">
        <time>2023-04-10T08:31:51+00:00</time>
        <ele>2667.0</ele>
      </trkpt>
      <trkpt lat="44.30503" lon="6.82804">
        <time>2023-04-10T08:31:52+00:00</time>
        <ele>2667.0</ele>
      </trkpt>
      <trkpt lat="44.30503" lon="6.82804">
        <time>2023-04-10T08:31:53+00:00</time>
        <ele>2667.0</ele>
      </trkpt>
      <trkpt lat="44.30503" lon="6.82804">
        <time>2023-04-10T08:31:54+00:00</time>
        <ele>2667.0</ele>
      </trkpt>
      <trkpt lat="44.30503" lon="6.82804">
        <time>2023-04-10T08:31:55+00:00</time>
        <ele>2667.0</ele>
      </trkpt>
      <trkpt lat="44.30503" lon="6.82804">
        <time>2023-04-10T08:31:56+00:00</time>
        <ele>2667.0</ele>
      </trkpt>
      <trkpt lat="44.30503" lon="6.82804">
        <time>2023-04-10T08:31:57+00:00</time>
        <ele>2667.0</ele>
      </trkpt>
      <trkpt lat="44.30503" lon="6.82804">
        <time>2023-04-10T08:31:58+00:00</time>
        <ele>2667.0</ele>
      </trkpt>
      <trkpt lat="44.30503" lon="6.82804">
        <time>2023-04-10T08:31:59+00:00</time>
        <ele>2667.0</ele>
      </trkpt>
      <trkpt lat="44.30503" lon="6.82804">
        <time>2023-04-10T08:32:00+00:00</time>
        <ele>2667.0</ele>
      </trkpt>
      <trkpt lat="44.30503" lon="6.82804">
        <time>2023-04-10T08:32:01+00:00</time>
        <ele>2667.0</ele>
      </trkpt>
      <trkpt lat="44.30503" lon="6.82804">
        <time>2023-04-10T08:32:02+00:00</time>
        <ele>2667.0</ele>
      </trkpt>
      <trkpt lat="44.30503" lon="6.82804">
        <time>2023-04-10T08:32:03+00:00</time>
        <ele>2667.0</ele>
      </trkpt>
      <trkpt lat="44.30503" lon="6.82804">
        <time>2023-04-10T08:32:04+00:00</time>
        <ele>2667.0</ele>
      </trkpt>
      <trkpt lat="44.30503" lon="6.82804">
        <time>2023-04-10T08:32:05+00:00</time>
        <ele>2667.0</ele>
      </trkpt>
      <trkpt lat="44.30503" lon="6.82804">
        <time>2023-04-10T08:32:06+00:00</time>
        <ele>2667.0</ele>
      </trkpt>
      <trkpt lat="44.30503" lon="6.82804">
        <time>2023-04-10T08:32:07+00:00</time>
        <ele>2667.0</ele>
      </trkpt>
      <trkpt lat="44.30503" lon="6.82804">
        <time>2023-04-10T08:32:08+00:00</time>
        <ele>2667.0</ele>
      </trkpt>
      <trkpt lat="44.30503" lon="6.82804">
        <time>2023-04-10T08:32:09+00:00</time>
        <ele>2667.0</ele>
      </trkpt>
      <trkpt lat="44.30503" lon="6.82804">
        <time>2023-04-10T08:32:10+00:00</time>
        <ele>2667.0</ele>
      </trkpt>
      <trkpt lat="44.30503" lon="6.82804">
        <time>2023-04-10T08:32:11+00:00</time>
        <ele>2667.0</ele>
      </trkpt>
      <trkpt lat="44.30503" lon="6.82804">
        <time>2023-04-10T08:32:12+00:00</time>
        <ele>2667.0</ele>
      </trkpt>
      <trkpt lat="44.30503" lon="6.82804">
        <time>2023-04-10T08:32:13+00:00</time>
        <ele>2667.0</ele>
      </trkpt>
      <trkpt lat="44.30503" lon="6.82804">
        <time>2023-04-10T08:32:14+00:00</time>
        <ele>2667.0</ele>
      </trkpt>
      <trkpt lat="44.30503" lon="6.82804">
        <time>2023-04-10T08:32:15+00:00</time>
        <ele>2667.0</ele>
      </trkpt>
      <trkpt lat="44.30503" lon="6.82804">
        <time>2023-04-10T08:32:16+00:00</time>
        <ele>2667.0</ele>
      </trkpt>
      <trkpt lat="44.30503" lon="6.82804">
        <time>2023-04-10T08:32:17+00:00</time>
        <ele>2667.0</ele>
      </trkpt>
      <trkpt lat="44.30503" lon="6.82804">
        <time>2023-04-10T08:32:18+00:00</time>
        <ele>2667.0</ele>
      </trkpt>
      <trkpt lat="44.30503" lon="6.82804">
        <time>2023-04-10T08:32:19+00:00</time>
        <ele>2667.0</ele>
      </trkpt>
      <trkpt lat="44.30503" lon="6.82804">
        <time>2023-04-10T08:32:20+00:00</time>
        <ele>2667.0</ele>
      </trkpt>
      <trkpt lat="44.30503" lon="6.82804">
        <time>2023-04-10T08:32:21+00:00</time>
        <ele>2667.0</ele>
      </trkpt>
      <trkpt lat="44.30503" lon="6.82804">
        <time>2023-04-10T08:32:22+00:00</time>
        <ele>2667.0</ele>
      </trkpt>
      <trkpt lat="44.30503" lon="6.82804">
        <time>2023-04-10T08:32:23+00:00</time>
        <ele>2667.0</ele>
      </trkpt>
      <trkpt lat="44.30503" lon="6.82804">
        <time>2023-04-10T08:32:24+00:00</time>
        <ele>2667.0</ele>
      </trkpt>
      <trkpt lat="44.30503" lon="6.82804">
        <time>2023-04-10T08:32:25+00:00</time>
        <ele>2667.0</ele>
      </trkpt>
      <trkpt lat="44.30503" lon="6.82804">
        <time>2023-04-10T08:32:26+00:00</time>
        <ele>2667.0</ele>
      </trkpt>
      <trkpt lat="44.30503" lon="6.82804">
        <time>2023-04-10T08:32:27+00:00</time>
        <ele>2667.0</ele>
      </trkpt>
      <trkpt lat="44.30503" lon="6.82804">
        <time>2023-04-10T08:32:28+00:00</time>
        <ele>2667.0</ele>
      </trkpt>
      <trkpt lat="44.30503" lon="6.82804">
        <time>2023-04-10T08:32:29+00:00</time>
        <ele>2667.0</ele>
      </trkpt>
      <trkpt lat="44.30503" lon="6.82804">
        <time>2023-04-10T08:32:30+00:00</time>
        <ele>2667.0</ele>
      </trkpt>
      <trkpt lat="44.30503" lon="6.82804">
        <time>2023-04-10T08:32:31+00:00</time>
        <ele>2667.0</ele>
      </trkpt>
      <trkpt lat="44.30503" lon="6.82804">
        <time>2023-04-10T08:32:32+00:00</time>
        <ele>2667.0</ele>
      </trkpt>
      <trkpt lat="44.30503" lon="6.82804">
        <time>2023-04-10T08:32:33+00:00</time>
        <ele>2667.0</ele>
      </trkpt>
      <trkpt lat="44.30503" lon="6.82804">
        <time>2023-04-10T08:32:34+00:00</time>
        <ele>2667.0</ele>
      </trkpt>
      <trkpt lat="44.30503" lon="6.82804">
        <time>2023-04-10T08:32:35+00:00</time>
        <ele>2667.0</ele>
      </trkpt>
      <trkpt lat="44.30503" lon="6.82804">
        <time>2023-04-10T08:32:36+00:00</time>
        <ele>2667.0</ele>
      </trkpt>
      <trkpt lat="44.30503" lon="6.82804">
        <time>2023-04-10T08:32:37+00:00</time>
        <ele>2667.0</ele>
      </trkpt>
      <trkpt lat="44.30503" lon="6.82804">
        <time>2023-04-10T08:32:38+00:00</time>
        <ele>2667.0</ele>
      </trkpt>
      <trkpt lat="44.30503" lon="6.82804">
        <time>2023-04-10T08:32:39+00:00</time>
        <ele>2667.0</ele>
      </trkpt>
      <trkpt lat="44.30503" lon="6.82804">
        <time>2023-04-10T08:32:40+00:00</time>
        <ele>2667.0</ele>
      </trkpt>
      <trkpt lat="44.30503" lon="6.82804">
        <time>2023-04-10T08:32:41+00:00</time>
        <ele>2667.0</ele>
      </trkpt>
      <trkpt lat="44.30503" lon="6.82804">
        <time>2023-04-10T08:32:42+00:00</time>
        <ele>2667.0</ele>
      </trkpt>
      <trkpt lat="44.30503" lon="6.82804">
        <time>2023-04-10T08:32:43+00:00</time>
        <ele>2667.0</ele>
      </trkpt>
      <trkpt lat="44.30503" lon="6.82804">
        <time>2023-04-10T08:32:44+00:00</time>
        <ele>2667.0</ele>
      </trkpt>
      <trkpt lat="44.30503" lon="6.82804">
        <time>2023-04-10T08:32:45+00:00</time>
        <ele>2667.0</ele>
      </trkpt>
      <trkpt lat="44.30503" lon="6.82804">
        <time>2023-04-10T08:32:46+00:00</time>
        <ele>2667.0</ele>
      </trkpt>
      <trkpt lat="44.30503" lon="6.82804">
        <time>2023-04-10T08:32:47+00:00</time>
        <ele>2667.0</ele>
      </trkpt>
      <trkpt lat="44.30503" lon="6.82804">
        <time>2023-04-10T08:32:48+00:00</time>
        <ele>2667.0</ele>
      </trkpt>
      <trkpt lat="44.30503" lon="6.82804">
        <time>2023-04-10T08:32:49+00:00</time>
        <ele>2667.0</ele>
      </trkpt>
      <trkpt lat="44.30503" lon="6.82804">
        <time>2023-04-10T08:32:50+00:00</time>
        <ele>2667.0</ele>
      </trkpt>
      <trkpt lat="44.30503" lon="6.82804">
        <time>2023-04-10T08:32:51+00:00</time>
        <ele>2667.0</ele>
      </trkpt>
      <trkpt lat="44.30503" lon="6.82804">
        <time>2023-04-10T08:32:52+00:00</time>
        <ele>2667.0</ele>
      </trkpt>
      <trkpt lat="44.30503" lon="6.82804">
        <time>2023-04-10T08:32:53+00:00</time>
        <ele>2667.0</ele>
      </trkpt>
      <trkpt lat="44.30503" lon="6.82804">
        <time>2023-04-10T08:32:54+00:00</time>
        <ele>2667.0</ele>
      </trkpt>
      <trkpt lat="44.30503" lon="6.82804">
        <time>2023-04-10T08:32:55+00:00</time>
        <ele>2667.0</ele>
      </trkpt>
      <trkpt lat="44.30503" lon="6.82804">
        <time>2023-04-10T08:32:56+00:00</time>
        <ele>2667.0</ele>
      </trkpt>
      <trkpt lat="44.30503" lon="6.82804">
        <time>2023-04-10T08:32:57+00:00</time>
        <ele>2667.0</ele>
      </trkpt>
      <trkpt lat="44.30503" lon="6.82804">
        <time>2023-04-10T08:32:58+00:00</time>
        <ele>2667.0</ele>
      </trkpt>
      <trkpt lat="44.30503" lon="6.82804">
        <time>2023-04-10T08:32:59+00:00</time>
        <ele>2667.0</ele>
      </trkpt>
      <trkpt lat="44.30503" lon="6.82804">
        <time>2023-04-10T08:33:00+00:00</time>
        <ele>2667.0</ele>
      </trkpt>
      <trkpt lat="44.30503" lon="6.82804">
        <time>2023-04-10T08:33:01+00:00</time>
        <ele>2667.0</ele>
      </trkpt>
      <trkpt lat="44.30503" lon="6.82804">
        <time>2023-04-10T08:33:02+00:00</time>
        <ele>2667.0</ele>
      </trkpt>
      <trkpt lat="44.30503" lon="6.82804">
        <time>2023-04-10T08:33:03+00:00</time>
        <ele>2667.0</ele>
      </trkpt>
      <trkpt lat="44.30503" lon="6.82804">
        <time>2023-04-10T08:33:04+00:00</time>
        <ele>2667.0</ele>
      </trkpt>
      <trkpt lat="44.30503" lon="6.82804">
        <time>2023-04-10T08:33:05+00:00</time>
        <ele>2667.0</ele>
      </trkpt>
      <trkpt lat="44.30503" lon="6.82804">
        <time>2023-04-10T08:33:06+00:00</time>
        <ele>2667.0</ele>
      </trkpt>
      <trkpt lat="44.30503" lon="6.82804">
        <time>2023-04-10T08:33:07+00:00</time>
        <ele>2667.0</ele>
      </trkpt>
      <trkpt lat="44.30503" lon="6.82804">
        <time>2023-04-10T08:33:08+00:00</time>
        <ele>2667.0</ele>
      </trkpt>
      <trkpt lat="44.30503" lon="6.82804">
        <time>2023-04-10T08:33:09+00:00</time>
        <ele>2667.0</ele>
      </trkpt>
      <trkpt lat="44.30503" lon="6.82804">
        <time>2023-04-10T08:33:10+00:00</time>
        <ele>2667.0</ele>
      </trkpt>
      <trkpt lat="44.30503" lon="6.82804">
        <time>2023-04-10T08:33:11+00:00</time>
        <ele>2667.0</ele>
      </trkpt>
      <trkpt lat="44.30502" lon="6.82804">
        <time>2023-04-10T08:33:12+00:00</time>
        <ele>2667.0</ele>
      </trkpt>
      <trkpt lat="44.30502" lon="6.82804">
        <time>2023-04-10T08:33:13+00:00</time>
        <ele>2667.0</ele>
      </trkpt>
      <trkpt lat="44.30502" lon="6.82804">
        <time>2023-04-10T08:33:14+00:00</time>
        <ele>2667.0</ele>
      </trkpt>
      <trkpt lat="44.30502" lon="6.82804">
        <time>2023-04-10T08:33:15+00:00</time>
        <ele>2667.0</ele>
      </trkpt>
      <trkpt lat="44.30502" lon="6.82804">
        <time>2023-04-10T08:33:16+00:00</time>
        <ele>2667.0</ele>
      </trkpt>
      <trkpt lat="44.30502" lon="6.82804">
        <time>2023-04-10T08:33:17+00:00</time>
        <ele>2667.0</ele>
      </trkpt>
      <trkpt lat="44.30502" lon="6.82804">
        <time>2023-04-10T08:33:18+00:00</time>
        <ele>2667.0</ele>
      </trkpt>
      <trkpt lat="44.30502" lon="6.82804">
        <time>2023-04-10T08:33:19+00:00</time>
        <ele>2667.0</ele>
      </trkpt>
      <trkpt lat="44.30502" lon="6.82804">
        <time>2023-04-10T08:33:20+00:00</time>
        <ele>2667.0</ele>
      </trkpt>
      <trkpt lat="44.30502" lon="6.82804">
        <time>2023-04-10T08:33:21+00:00</time>
        <ele>2667.0</ele>
      </trkpt>
      <trkpt lat="44.30502" lon="6.82804">
        <time>2023-04-10T08:33:22+00:00</time>
        <ele>2667.0</ele>
      </trkpt>
      <trkpt lat="44.30502" lon="6.82804">
        <time>2023-04-10T08:33:23+00:00</time>
        <ele>2667.0</ele>
      </trkpt>
      <trkpt lat="44.30502" lon="6.82804">
        <time>2023-04-10T08:33:24+00:00</time>
        <ele>2667.0</ele>
      </trkpt>
      <trkpt lat="44.30502" lon="6.82804">
        <time>2023-04-10T08:33:25+00:00</time>
        <ele>2667.0</ele>
      </trkpt>
      <trkpt lat="44.30502" lon="6.82804">
        <time>2023-04-10T08:33:26+00:00</time>
        <ele>2667.0</ele>
      </trkpt>
      <trkpt lat="44.30502" lon="6.82804">
        <time>2023-04-10T08:33:27+00:00</time>
        <ele>2667.0</ele>
      </trkpt>
      <trkpt lat="44.30502" lon="6.82804">
        <time>2023-04-10T08:33:28+00:00</time>
        <ele>2667.0</ele>
      </trkpt>
      <trkpt lat="44.30502" lon="6.82804">
        <time>2023-04-10T08:33:29+00:00</time>
        <ele>2667.0</ele>
      </trkpt>
      <trkpt lat="44.30502" lon="6.82804">
        <time>2023-04-10T08:33:30+00:00</time>
        <ele>2667.0</ele>
      </trkpt>
      <trkpt lat="44.30502" lon="6.82804">
        <time>2023-04-10T08:33:31+00:00</time>
        <ele>2667.0</ele>
      </trkpt>
      <trkpt lat="44.30502" lon="6.82804">
        <time>2023-04-10T08:33:32+00:00</time>
        <ele>2667.0</ele>
      </trkpt>
      <trkpt lat="44.30502" lon="6.82804">
        <time>2023-04-10T08:33:33+00:00</time>
        <ele>2667.0</ele>
      </trkpt>
      <trkpt lat="44.30502" lon="6.82804">
        <time>2023-04-10T08:33:34+00:00</time>
        <ele>2667.0</ele>
      </trkpt>
      <trkpt lat="44.30502" lon="6.82804">
        <time>2023-04-10T08:33:35+00:00</time>
        <ele>2667.0</ele>
      </trkpt>
      <trkpt lat="44.30502" lon="6.82804">
        <time>2023-04-10T08:33:36+00:00</time>
        <ele>2667.0</ele>
      </trkpt>
      <trkpt lat="44.30502" lon="6.82804">
        <time>2023-04-10T08:33:37+00:00</time>
        <ele>2667.0</ele>
      </trkpt>
      <trkpt lat="44.30502" lon="6.82804">
        <time>2023-04-10T08:33:38+00:00</time>
        <ele>2667.0</ele>
      </trkpt>
      <trkpt lat="44.30502" lon="6.82804">
        <time>2023-04-10T08:33:39+00:00</time>
        <ele>2667.0</ele>
      </trkpt>
      <trkpt lat="44.30502" lon="6.82804">
        <time>2023-04-10T08:33:40+00:00</time>
        <ele>2667.0</ele>
      </trkpt>
      <trkpt lat="44.30502" lon="6.82804">
        <time>2023-04-10T08:33:41+00:00</time>
        <ele>2667.0</ele>
      </trkpt>
      <trkpt lat="44.30502" lon="6.82804">
        <time>2023-04-10T08:33:42+00:00</time>
        <ele>2667.0</ele>
      </trkpt>
      <trkpt lat="44.30502" lon="6.82804">
        <time>2023-04-10T08:33:43+00:00</time>
        <ele>2667.0</ele>
      </trkpt>
      <trkpt lat="44.30502" lon="6.82804">
        <time>2023-04-10T08:33:44+00:00</time>
        <ele>2667.0</ele>
      </trkpt>
      <trkpt lat="44.30502" lon="6.82804">
        <time>2023-04-10T08:33:45+00:00</time>
        <ele>2667.0</ele>
      </trkpt>
      <trkpt lat="44.30502" lon="6.82804">
        <time>2023-04-10T08:33:46+00:00</time>
        <ele>2667.0</ele>
      </trkpt>
      <trkpt lat="44.30502" lon="6.82804">
        <time>2023-04-10T08:33:47+00:00</time>
        <ele>2667.0</ele>
      </trkpt>
      <trkpt lat="44.30502" lon="6.82804">
        <time>2023-04-10T08:33:48+00:00</time>
        <ele>2667.0</ele>
      </trkpt>
      <trkpt lat="44.30502" lon="6.82804">
        <time>2023-04-10T08:33:49+00:00</time>
        <ele>2667.0</ele>
      </trkpt>
      <trkpt lat="44.30502" lon="6.82804">
        <time>2023-04-10T08:33:50+00:00</time>
        <ele>2667.0</ele>
      </trkpt>
      <trkpt lat="44.30502" lon="6.82804">
        <time>2023-04-10T08:33:51+00:00</time>
        <ele>2667.0</ele>
      </trkpt>
      <trkpt lat="44.30502" lon="6.82804">
        <time>2023-04-10T08:33:52+00:00</time>
        <ele>2667.0</ele>
      </trkpt>
      <trkpt lat="44.30502" lon="6.82804">
        <time>2023-04-10T08:33:53+00:00</time>
        <ele>2667.0</ele>
      </trkpt>
      <trkpt lat="44.30502" lon="6.82804">
        <time>2023-04-10T08:33:54+00:00</time>
        <ele>2667.0</ele>
      </trkpt>
      <trkpt lat="44.30502" lon="6.82804">
        <time>2023-04-10T08:33:55+00:00</time>
        <ele>2667.0</ele>
      </trkpt>
      <trkpt lat="44.30502" lon="6.82804">
        <time>2023-04-10T08:33:56+00:00</time>
        <ele>2667.0</ele>
      </trkpt>
      <trkpt lat="44.30502" lon="6.82804">
        <time>2023-04-10T08:33:57+00:00</time>
        <ele>2667.0</ele>
      </trkpt>
      <trkpt lat="44.30502" lon="6.82804">
        <time>2023-04-10T08:33:58+00:00</time>
        <ele>2667.0</ele>
      </trkpt>
      <trkpt lat="44.30502" lon="6.82804">
        <time>2023-04-10T08:33:59+00:00</time>
        <ele>2667.0</ele>
      </trkpt>
      <trkpt lat="44.30502" lon="6.82804">
        <time>2023-04-10T08:34:00+00:00</time>
        <ele>2667.0</ele>
      </trkpt>
      <trkpt lat="44.30502" lon="6.82804">
        <time>2023-04-10T08:34:01+00:00</time>
        <ele>2667.0</ele>
      </trkpt>
      <trkpt lat="44.30502" lon="6.82804">
        <time>2023-04-10T08:34:02+00:00</time>
        <ele>2667.0</ele>
      </trkpt>
      <trkpt lat="44.30502" lon="6.82804">
        <time>2023-04-10T08:34:03+00:00</time>
        <ele>2667.0</ele>
      </trkpt>
      <trkpt lat="44.30502" lon="6.82804">
        <time>2023-04-10T08:34:04+00:00</time>
        <ele>2667.0</ele>
      </trkpt>
      <trkpt lat="44.30502" lon="6.82804">
        <time>2023-04-10T08:34:05+00:00</time>
        <ele>2667.0</ele>
      </trkpt>
      <trkpt lat="44.30502" lon="6.82804">
        <time>2023-04-10T08:34:06+00:00</time>
        <ele>2667.0</ele>
      </trkpt>
      <trkpt lat="44.30502" lon="6.82804">
        <time>2023-04-10T08:34:07+00:00</time>
        <ele>2667.0</ele>
      </trkpt>
      <trkpt lat="44.30502" lon="6.82804">
        <time>2023-04-10T08:34:08+00:00</time>
        <ele>2667.0</ele>
      </trkpt>
      <trkpt lat="44.30502" lon="6.82804">
        <time>2023-04-10T08:34:09+00:00</time>
        <ele>2667.0</ele>
      </trkpt>
      <trkpt lat="44.30502" lon="6.82804">
        <time>2023-04-10T08:34:10+00:00</time>
        <ele>2667.0</ele>
      </trkpt>
      <trkpt lat="44.30502" lon="6.82804">
        <time>2023-04-10T08:34:11+00:00</time>
        <ele>2667.0</ele>
      </trkpt>
      <trkpt lat="44.30502" lon="6.82804">
        <time>2023-04-10T08:34:12+00:00</time>
        <ele>2667.0</ele>
      </trkpt>
      <trkpt lat="44.30502" lon="6.82804">
        <time>2023-04-10T08:34:13+00:00</time>
        <ele>2667.0</ele>
      </trkpt>
      <trkpt lat="44.30502" lon="6.82804">
        <time>2023-04-10T08:34:14+00:00</time>
        <ele>2667.0</ele>
      </trkpt>
      <trkpt lat="44.30502" lon="6.82804">
        <time>2023-04-10T08:34:15+00:00</time>
        <ele>2667.0</ele>
      </trkpt>
      <trkpt lat="44.30502" lon="6.82804">
        <time>2023-04-10T08:34:16+00:00</time>
        <ele>2667.0</ele>
      </trkpt>
      <trkpt lat="44.30502" lon="6.82804">
        <time>2023-04-10T08:34:17+00:00</time>
        <ele>2667.0</ele>
      </trkpt>
      <trkpt lat="44.30502" lon="6.82804">
        <time>2023-04-10T08:34:18+00:00</time>
        <ele>2667.0</ele>
      </trkpt>
      <trkpt lat="44.30502" lon="6.82804">
        <time>2023-04-10T08:34:19+00:00</time>
        <ele>2667.0</ele>
      </trkpt>
      <trkpt lat="44.30502" lon="6.82804">
        <time>2023-04-10T08:34:20+00:00</time>
        <ele>2667.0</ele>
      </trkpt>
      <trkpt lat="44.30502" lon="6.82804">
        <time>2023-04-10T08:34:21+00:00</time>
        <ele>2667.0</ele>
      </trkpt>
      <trkpt lat="44.30502" lon="6.82804">
        <time>2023-04-10T08:34:22+00:00</time>
        <ele>2667.0</ele>
      </trkpt>
      <trkpt lat="44.30502" lon="6.82804">
        <time>2023-04-10T08:34:23+00:00</time>
        <ele>2667.0</ele>
      </trkpt>
      <trkpt lat="44.30502" lon="6.82804">
        <time>2023-04-10T08:34:24+00:00</time>
        <ele>2667.0</ele>
      </trkpt>
      <trkpt lat="44.30502" lon="6.82804">
        <time>2023-04-10T08:34:25+00:00</time>
        <ele>2667.0</ele>
      </trkpt>
      <trkpt lat="44.30502" lon="6.82804">
        <time>2023-04-10T08:34:26+00:00</time>
        <ele>2667.0</ele>
      </trkpt>
      <trkpt lat="44.30502" lon="6.82804">
        <time>2023-04-10T08:34:27+00:00</time>
        <ele>2667.0</ele>
      </trkpt>
      <trkpt lat="44.30502" lon="6.82804">
        <time>2023-04-10T08:34:28+00:00</time>
        <ele>2667.0</ele>
      </trkpt>
      <trkpt lat="44.30502" lon="6.82804">
        <time>2023-04-10T08:34:29+00:00</time>
        <ele>2667.0</ele>
      </trkpt>
      <trkpt lat="44.30502" lon="6.82804">
        <time>2023-04-10T08:34:30+00:00</time>
        <ele>2667.0</ele>
      </trkpt>
      <trkpt lat="44.30502" lon="6.82804">
        <time>2023-04-10T08:34:31+00:00</time>
        <ele>2667.0</ele>
      </trkpt>
      <trkpt lat="44.30502" lon="6.82804">
        <time>2023-04-10T08:34:32+00:00</time>
        <ele>2667.0</ele>
      </trkpt>
      <trkpt lat="44.30502" lon="6.82804">
        <time>2023-04-10T08:34:33+00:00</time>
        <ele>2667.0</ele>
      </trkpt>
      <trkpt lat="44.30502" lon="6.82804">
        <time>2023-04-10T08:34:34+00:00</time>
        <ele>2667.0</ele>
      </trkpt>
      <trkpt lat="44.30502" lon="6.82804">
        <time>2023-04-10T08:34:35+00:00</time>
        <ele>2667.0</ele>
      </trkpt>
      <trkpt lat="44.30502" lon="6.82804">
        <time>2023-04-10T08:34:36+00:00</time>
        <ele>2667.0</ele>
      </trkpt>
      <trkpt lat="44.30502" lon="6.82804">
        <time>2023-04-10T08:34:37+00:00</time>
        <ele>2667.0</ele>
      </trkpt>
      <trkpt lat="44.30502" lon="6.82804">
        <time>2023-04-10T08:34:38+00:00</time>
        <ele>2667.0</ele>
      </trkpt>
      <trkpt lat="44.30502" lon="6.82804">
        <time>2023-04-10T08:34:39+00:00</time>
        <ele>2667.0</ele>
      </trkpt>
      <trkpt lat="44.30502" lon="6.82804">
        <time>2023-04-10T08:34:40+00:00</time>
        <ele>2667.0</ele>
      </trkpt>
      <trkpt lat="44.30502" lon="6.82804">
        <time>2023-04-10T08:34:41+00:00</time>
        <ele>2667.0</ele>
      </trkpt>
      <trkpt lat="44.30502" lon="6.82804">
        <time>2023-04-10T08:34:42+00:00</time>
        <ele>2667.0</ele>
      </trkpt>
      <trkpt lat="44.30502" lon="6.82804">
        <time>2023-04-10T08:34:43+00:00</time>
        <ele>2667.0</ele>
      </trkpt>
      <trkpt lat="44.30502" lon="6.82804">
        <time>2023-04-10T08:34:44+00:00</time>
        <ele>2667.0</ele>
      </trkpt>
      <trkpt lat="44.30502" lon="6.82804">
        <time>2023-04-10T08:34:45+00:00</time>
        <ele>2667.0</ele>
      </trkpt>
      <trkpt lat="44.30502" lon="6.82804">
        <time>2023-04-10T08:34:46+00:00</time>
        <ele>2667.0</ele>
      </trkpt>
      <trkpt lat="44.30502" lon="6.82804">
        <time>2023-04-10T08:34:47+00:00</time>
        <ele>2667.0</ele>
      </trkpt>
      <trkpt lat="44.30502" lon="6.82804">
        <time>2023-04-10T08:34:48+00:00</time>
        <ele>2667.0</ele>
      </trkpt>
      <trkpt lat="44.30502" lon="6.82804">
        <time>2023-04-10T08:34:49+00:00</time>
        <ele>2667.0</ele>
      </trkpt>
      <trkpt lat="44.30502" lon="6.82804">
        <time>2023-04-10T08:34:50+00:00</time>
        <ele>2667.0</ele>
      </trkpt>
      <trkpt lat="44.30502" lon="6.82804">
        <time>2023-04-10T08:34:51+00:00</time>
        <ele>2667.0</ele>
      </trkpt>
      <trkpt lat="44.30502" lon="6.82804">
        <time>2023-04-10T08:34:52+00:00</time>
        <ele>2667.0</ele>
      </trkpt>
      <trkpt lat="44.30502" lon="6.82804">
        <time>2023-04-10T08:34:53+00:00</time>
        <ele>2667.0</ele>
      </trkpt>
      <trkpt lat="44.30502" lon="6.82804">
        <time>2023-04-10T08:34:54+00:00</time>
        <ele>2667.0</ele>
      </trkpt>
      <trkpt lat="44.30502" lon="6.82804">
        <time>2023-04-10T08:34:55+00:00</time>
        <ele>2667.0</ele>
      </trkpt>
      <trkpt lat="44.30502" lon="6.82804">
        <time>2023-04-10T08:34:56+00:00</time>
        <ele>2667.0</ele>
      </trkpt>
      <trkpt lat="44.30502" lon="6.82804">
        <time>2023-04-10T08:34:57+00:00</time>
        <ele>2667.0</ele>
      </trkpt>
      <trkpt lat="44.30502" lon="6.82804">
        <time>2023-04-10T08:34:58+00:00</time>
        <ele>2667.0</ele>
      </trkpt>
      <trkpt lat="44.30502" lon="6.82804">
        <time>2023-04-10T08:34:59+00:00</time>
        <ele>2667.0</ele>
      </trkpt>
      <trkpt lat="44.30502" lon="6.82804">
        <time>2023-04-10T08:35:00+00:00</time>
        <ele>2667.0</ele>
      </trkpt>
      <trkpt lat="44.30502" lon="6.82804">
        <time>2023-04-10T08:35:01+00:00</time>
        <ele>2667.0</ele>
      </trkpt>
      <trkpt lat="44.30502" lon="6.82804">
        <time>2023-04-10T08:35:02+00:00</time>
        <ele>2667.0</ele>
      </trkpt>
      <trkpt lat="44.30502" lon="6.82804">
        <time>2023-04-10T08:35:03+00:00</time>
        <ele>2667.0</ele>
      </trkpt>
      <trkpt lat="44.30502" lon="6.82804">
        <time>2023-04-10T08:35:04+00:00</time>
        <ele>2667.0</ele>
      </trkpt>
      <trkpt lat="44.30502" lon="6.82804">
        <time>2023-04-10T08:35:05+00:00</time>
        <ele>2667.0</ele>
      </trkpt>
      <trkpt lat="44.30502" lon="6.82804">
        <time>2023-04-10T08:35:06+00:00</time>
        <ele>2667.0</ele>
      </trkpt>
      <trkpt lat="44.30502" lon="6.82804">
        <time>2023-04-10T08:35:07+00:00</time>
        <ele>2667.0</ele>
      </trkpt>
      <trkpt lat="44.30502" lon="6.82804">
        <time>2023-04-10T08:35:08+00:00</time>
        <ele>2667.0</ele>
      </trkpt>
      <trkpt lat="44.30502" lon="6.82804">
        <time>2023-04-10T08:35:09+00:00</time>
        <ele>2667.0</ele>
      </trkpt>
      <trkpt lat="44.30502" lon="6.82804">
        <time>2023-04-10T08:35:10+00:00</time>
        <ele>2667.0</ele>
      </trkpt>
      <trkpt lat="44.30502" lon="6.82804">
        <time>2023-04-10T08:35:11+00:00</time>
        <ele>2667.0</ele>
      </trkpt>
      <trkpt lat="44.30502" lon="6.82804">
        <time>2023-04-10T08:35:12+00:00</time>
        <ele>2667.0</ele>
      </trkpt>
      <trkpt lat="44.30502" lon="6.82804">
        <time>2023-04-10T08:35:13+00:00</time>
        <ele>2667.0</ele>
      </trkpt>
      <trkpt lat="44.30502" lon="6.82804">
        <time>2023-04-10T08:35:14+00:00</time>
        <ele>2667.0</ele>
      </trkpt>
      <trkpt lat="44.30502" lon="6.82804">
        <time>2023-04-10T08:35:15+00:00</time>
        <ele>2667.0</ele>
      </trkpt>
      <trkpt lat="44.30502" lon="6.82804">
        <time>2023-04-10T08:35:16+00:00</time>
        <ele>2667.0</ele>
      </trkpt>
      <trkpt lat="44.30502" lon="6.82804">
        <time>2023-04-10T08:35:17+00:00</time>
        <ele>2667.0</ele>
      </trkpt>
      <trkpt lat="44.30502" lon="6.82804">
        <time>2023-04-10T08:35:18+00:00</time>
        <ele>2667.0</ele>
      </trkpt>
      <trkpt lat="44.30502" lon="6.82804">
        <time>2023-04-10T08:35:19+00:00</time>
        <ele>2667.0</ele>
      </trkpt>
      <trkpt lat="44.30502" lon="6.82804">
        <time>2023-04-10T08:35:20+00:00</time>
        <ele>2667.0</ele>
      </trkpt>
      <trkpt lat="44.30502" lon="6.82804">
        <time>2023-04-10T08:35:21+00:00</time>
        <ele>2667.0</ele>
      </trkpt>
      <trkpt lat="44.30502" lon="6.82804">
        <time>2023-04-10T08:35:22+00:00</time>
        <ele>2667.0</ele>
      </trkpt>
      <trkpt lat="44.30502" lon="6.82804">
        <time>2023-04-10T08:35:23+00:00</time>
        <ele>2667.0</ele>
      </trkpt>
      <trkpt lat="44.30502" lon="6.82804">
        <time>2023-04-10T08:35:24+00:00</time>
        <ele>2667.0</ele>
      </trkpt>
      <trkpt lat="44.30502" lon="6.82804">
        <time>2023-04-10T08:35:25+00:00</time>
        <ele>2667.0</ele>
      </trkpt>
      <trkpt lat="44.30502" lon="6.82804">
        <time>2023-04-10T08:35:26+00:00</time>
        <ele>2667.0</ele>
      </trkpt>
      <trkpt lat="44.30502" lon="6.82804">
        <time>2023-04-10T08:35:27+00:00</time>
        <ele>2667.0</ele>
      </trkpt>
      <trkpt lat="44.30502" lon="6.82804">
        <time>2023-04-10T08:35:28+00:00</time>
        <ele>2667.0</ele>
      </trkpt>
      <trkpt lat="44.30502" lon="6.82804">
        <time>2023-04-10T08:35:29+00:00</time>
        <ele>2667.0</ele>
      </trkpt>
      <trkpt lat="44.30502" lon="6.82804">
        <time>2023-04-10T08:35:30+00:00</time>
        <ele>2667.0</ele>
      </trkpt>
      <trkpt lat="44.30502" lon="6.82804">
        <time>2023-04-10T08:35:31+00:00</time>
        <ele>2667.0</ele>
      </trkpt>
      <trkpt lat="44.30502" lon="6.82804">
        <time>2023-04-10T08:35:32+00:00</time>
        <ele>2667.0</ele>
      </trkpt>
      <trkpt lat="44.30502" lon="6.82804">
        <time>2023-04-10T08:35:33+00:00</time>
        <ele>2667.0</ele>
      </trkpt>
      <trkpt lat="44.30502" lon="6.82804">
        <time>2023-04-10T08:35:34+00:00</time>
        <ele>2667.0</ele>
      </trkpt>
      <trkpt lat="44.30502" lon="6.82804">
        <time>2023-04-10T08:35:35+00:00</time>
        <ele>2667.0</ele>
      </trkpt>
      <trkpt lat="44.30502" lon="6.82804">
        <time>2023-04-10T08:35:36+00:00</time>
        <ele>2667.0</ele>
      </trkpt>
      <trkpt lat="44.30502" lon="6.82804">
        <time>2023-04-10T08:35:37+00:00</time>
        <ele>2667.0</ele>
      </trkpt>
      <trkpt lat="44.30502" lon="6.82804">
        <time>2023-04-10T08:35:38+00:00</time>
        <ele>2667.0</ele>
      </trkpt>
      <trkpt lat="44.30502" lon="6.82804">
        <time>2023-04-10T08:35:39+00:00</time>
        <ele>2667.0</ele>
      </trkpt>
      <trkpt lat="44.30502" lon="6.82804">
        <time>2023-04-10T08:35:40+00:00</time>
        <ele>2667.0</ele>
      </trkpt>
      <trkpt lat="44.30502" lon="6.82804">
        <time>2023-04-10T08:35:41+00:00</time>
        <ele>2667.0</ele>
      </trkpt>
      <trkpt lat="44.30502" lon="6.82804">
        <time>2023-04-10T08:35:42+00:00</time>
        <ele>2667.0</ele>
      </trkpt>
      <trkpt lat="44.30502" lon="6.82804">
        <time>2023-04-10T08:35:43+00:00</time>
        <ele>2667.0</ele>
      </trkpt>
      <trkpt lat="44.30502" lon="6.82804">
        <time>2023-04-10T08:35:44+00:00</time>
        <ele>2667.0</ele>
      </trkpt>
      <trkpt lat="44.30502" lon="6.82804">
        <time>2023-04-10T08:35:45+00:00</time>
        <ele>2667.0</ele>
      </trkpt>
      <trkpt lat="44.30502" lon="6.82804">
        <time>2023-04-10T08:35:46+00:00</time>
        <ele>2667.0</ele>
      </trkpt>
      <trkpt lat="44.30502" lon="6.82804">
        <time>2023-04-10T08:35:47+00:00</time>
        <ele>2667.0</ele>
      </trkpt>
      <trkpt lat="44.30502" lon="6.82804">
        <time>2023-04-10T08:35:48+00:00</time>
        <ele>2667.0</ele>
      </trkpt>
      <trkpt lat="44.30502" lon="6.82804">
        <time>2023-04-10T08:35:49+00:00</time>
        <ele>2667.0</ele>
      </trkpt>
      <trkpt lat="44.30502" lon="6.82804">
        <time>2023-04-10T08:35:50+00:00</time>
        <ele>2667.0</ele>
      </trkpt>
      <trkpt lat="44.30502" lon="6.82804">
        <time>2023-04-10T08:35:51+00:00</time>
        <ele>2667.0</ele>
      </trkpt>
      <trkpt lat="44.30502" lon="6.82804">
        <time>2023-04-10T08:35:52+00:00</time>
        <ele>2667.0</ele>
      </trkpt>
      <trkpt lat="44.30502" lon="6.82804">
        <time>2023-04-10T08:35:53+00:00</time>
        <ele>2667.0</ele>
      </trkpt>
      <trkpt lat="44.30502" lon="6.82804">
        <time>2023-04-10T08:35:54+00:00</time>
        <ele>2667.0</ele>
      </trkpt>
      <trkpt lat="44.30502" lon="6.82804">
        <time>2023-04-10T08:35:55+00:00</time>
        <ele>2667.0</ele>
      </trkpt>
      <trkpt lat="44.30502" lon="6.82804">
        <time>2023-04-10T08:35:56+00:00</time>
        <ele>2667.0</ele>
      </trkpt>
      <trkpt lat="44.30502" lon="6.82804">
        <time>2023-04-10T08:35:57+00:00</time>
        <ele>2667.0</ele>
      </trkpt>
      <trkpt lat="44.30502" lon="6.82804">
        <time>2023-04-10T08:35:58+00:00</time>
        <ele>2667.0</ele>
      </trkpt>
      <trkpt lat="44.30502" lon="6.82804">
        <time>2023-04-10T08:35:59+00:00</time>
        <ele>2667.0</ele>
      </trkpt>
      <trkpt lat="44.30502" lon="6.82804">
        <time>2023-04-10T08:36:00+00:00</time>
        <ele>2667.0</ele>
      </trkpt>
      <trkpt lat="44.30502" lon="6.82804">
        <time>2023-04-10T08:36:01+00:00</time>
        <ele>2667.0</ele>
      </trkpt>
      <trkpt lat="44.30502" lon="6.82804">
        <time>2023-04-10T08:36:02+00:00</time>
        <ele>2667.0</ele>
      </trkpt>
      <trkpt lat="44.30502" lon="6.82804">
        <time>2023-04-10T08:36:03+00:00</time>
        <ele>2667.0</ele>
      </trkpt>
      <trkpt lat="44.30502" lon="6.82804">
        <time>2023-04-10T08:36:04+00:00</time>
        <ele>2667.0</ele>
      </trkpt>
      <trkpt lat="44.30502" lon="6.82804">
        <time>2023-04-10T08:36:05+00:00</time>
        <ele>2667.0</ele>
      </trkpt>
      <trkpt lat="44.30502" lon="6.82804">
        <time>2023-04-10T08:36:06+00:00</time>
        <ele>2667.0</ele>
      </trkpt>
      <trkpt lat="44.30502" lon="6.82804">
        <time>2023-04-10T08:36:07+00:00</time>
        <ele>2667.0</ele>
      </trkpt>
      <trkpt lat="44.30502" lon="6.82804">
        <time>2023-04-10T08:36:08+00:00</time>
        <ele>2667.0</ele>
      </trkpt>
      <trkpt lat="44.30502" lon="6.82804">
        <time>2023-04-10T08:36:09+00:00</time>
        <ele>2667.0</ele>
      </trkpt>
      <trkpt lat="44.30502" lon="6.82804">
        <time>2023-04-10T08:36:10+00:00</time>
        <ele>2667.0</ele>
      </trkpt>
      <trkpt lat="44.30502" lon="6.82804">
        <time>2023-04-10T08:36:11+00:00</time>
        <ele>2667.0</ele>
      </trkpt>
      <trkpt lat="44.30502" lon="6.82804">
        <time>2023-04-10T08:36:12+00:00</time>
        <ele>2667.0</ele>
      </trkpt>
      <trkpt lat="44.30502" lon="6.82804">
        <time>2023-04-10T08:36:13+00:00</time>
        <ele>2667.0</ele>
      </trkpt>
      <trkpt lat="44.30502" lon="6.82804">
        <time>2023-04-10T08:36:14+00:00</time>
        <ele>2667.0</ele>
      </trkpt>
      <trkpt lat="44.30502" lon="6.82804">
        <time>2023-04-10T08:36:15+00:00</time>
        <ele>2667.0</ele>
      </trkpt>
      <trkpt lat="44.30502" lon="6.82804">
        <time>2023-04-10T08:36:16+00:00</time>
        <ele>2667.0</ele>
      </trkpt>
      <trkpt lat="44.30502" lon="6.82804">
        <time>2023-04-10T08:36:17+00:00</time>
        <ele>2667.0</ele>
      </trkpt>
      <trkpt lat="44.30502" lon="6.82804">
        <time>2023-04-10T08:36:18+00:00</time>
        <ele>2667.0</ele>
      </trkpt>
      <trkpt lat="44.30502" lon="6.82804">
        <time>2023-04-10T08:36:19+00:00</time>
        <ele>2667.0</ele>
      </trkpt>
      <trkpt lat="44.30502" lon="6.82804">
        <time>2023-04-10T08:36:20+00:00</time>
        <ele>2667.0</ele>
      </trkpt>
      <trkpt lat="44.30502" lon="6.82804">
        <time>2023-04-10T08:36:21+00:00</time>
        <ele>2667.0</ele>
      </trkpt>
      <trkpt lat="44.30502" lon="6.82804">
        <time>2023-04-10T08:36:22+00:00</time>
        <ele>2667.0</ele>
      </trkpt>
      <trkpt lat="44.30502" lon="6.82804">
        <time>2023-04-10T08:36:23+00:00</time>
        <ele>2667.0</ele>
      </trkpt>
      <trkpt lat="44.30502" lon="6.82804">
        <time>2023-04-10T08:36:24+00:00</time>
        <ele>2667.0</ele>
      </trkpt>
      <trkpt lat="44.30502" lon="6.82804">
        <time>2023-04-10T08:36:25+00:00</time>
        <ele>2667.0</ele>
      </trkpt>
      <trkpt lat="44.30502" lon="6.82804">
        <time>2023-04-10T08:36:26+00:00</time>
        <ele>2667.0</ele>
      </trkpt>
      <trkpt lat="44.30502" lon="6.82804">
        <time>2023-04-10T08:36:27+00:00</time>
        <ele>2667.0</ele>
      </trkpt>
      <trkpt lat="44.30502" lon="6.82804">
        <time>2023-04-10T08:36:28+00:00</time>
        <ele>2667.0</ele>
      </trkpt>
      <trkpt lat="44.30502" lon="6.82804">
        <time>2023-04-10T08:36:29+00:00</time>
        <ele>2667.0</ele>
      </trkpt>
      <trkpt lat="44.30502" lon="6.82804">
        <time>2023-04-10T08:36:30+00:00</time>
        <ele>2667.0</ele>
      </trkpt>
      <trkpt lat="44.30502" lon="6.82804">
        <time>2023-04-10T08:36:31+00:00</time>
        <ele>2667.0</ele>
      </trkpt>
      <trkpt lat="44.30502" lon="6.82804">
        <time>2023-04-10T08:36:32+00:00</time>
        <ele>2667.0</ele>
      </trkpt>
      <trkpt lat="44.30502" lon="6.82804">
        <time>2023-04-10T08:36:33+00:00</time>
        <ele>2667.0</ele>
      </trkpt>
      <trkpt lat="44.30502" lon="6.82804">
        <time>2023-04-10T08:36:34+00:00</time>
        <ele>2667.0</ele>
      </trkpt>
      <trkpt lat="44.30502" lon="6.82804">
        <time>2023-04-10T08:36:35+00:00</time>
        <ele>2667.0</ele>
      </trkpt>
      <trkpt lat="44.30502" lon="6.82804">
        <time>2023-04-10T08:36:36+00:00</time>
        <ele>2667.0</ele>
      </trkpt>
      <trkpt lat="44.30502" lon="6.82804">
        <time>2023-04-10T08:36:37+00:00</time>
        <ele>2667.0</ele>
      </trkpt>
      <trkpt lat="44.30502" lon="6.82804">
        <time>2023-04-10T08:36:38+00:00</time>
        <ele>2667.0</ele>
      </trkpt>
      <trkpt lat="44.30502" lon="6.82804">
        <time>2023-04-10T08:36:39+00:00</time>
        <ele>2667.0</ele>
      </trkpt>
      <trkpt lat="44.30502" lon="6.82804">
        <time>2023-04-10T08:36:40+00:00</time>
        <ele>2667.0</ele>
      </trkpt>
      <trkpt lat="44.30502" lon="6.82804">
        <time>2023-04-10T08:36:41+00:00</time>
        <ele>2667.0</ele>
      </trkpt>
      <trkpt lat="44.30502" lon="6.82804">
        <time>2023-04-10T08:36:42+00:00</time>
        <ele>2667.0</ele>
      </trkpt>
      <trkpt lat="44.30502" lon="6.82804">
        <time>2023-04-10T08:36:43+00:00</time>
        <ele>2667.0</ele>
      </trkpt>
      <trkpt lat="44.30502" lon="6.82804">
        <time>2023-04-10T08:36:44+00:00</time>
        <ele>2667.0</ele>
      </trkpt>
      <trkpt lat="44.30502" lon="6.82804">
        <time>2023-04-10T08:36:45+00:00</time>
        <ele>2667.0</ele>
      </trkpt>
      <trkpt lat="44.30502" lon="6.82804">
        <time>2023-04-10T08:36:46+00:00</time>
        <ele>2667.0</ele>
      </trkpt>
      <trkpt lat="44.30502" lon="6.82804">
        <time>2023-04-10T08:36:47+00:00</time>
        <ele>2667.0</ele>
      </trkpt>
      <trkpt lat="44.30502" lon="6.82804">
        <time>2023-04-10T08:36:48+00:00</time>
        <ele>2667.0</ele>
      </trkpt>
      <trkpt lat="44.30502" lon="6.82804">
        <time>2023-04-10T08:36:49+00:00</time>
        <ele>2667.0</ele>
      </trkpt>
      <trkpt lat="44.30502" lon="6.82804">
        <time>2023-04-10T08:36:50+00:00</time>
        <ele>2667.0</ele>
      </trkpt>
      <trkpt lat="44.30502" lon="6.82804">
        <time>2023-04-10T08:36:51+00:00</time>
        <ele>2667.0</ele>
      </trkpt>
      <trkpt lat="44.30502" lon="6.82804">
        <time>2023-04-10T08:36:52+00:00</time>
        <ele>2667.0</ele>
      </trkpt>
      <trkpt lat="44.30502" lon="6.82804">
        <time>2023-04-10T08:36:53+00:00</time>
        <ele>2667.0</ele>
      </trkpt>
      <trkpt lat="44.30502" lon="6.82804">
        <time>2023-04-10T08:36:54+00:00</time>
        <ele>2667.0</ele>
      </trkpt>
      <trkpt lat="44.30502" lon="6.82804">
        <time>2023-04-10T08:36:55+00:00</time>
        <ele>2667.0</ele>
      </trkpt>
      <trkpt lat="44.30502" lon="6.82804">
        <time>2023-04-10T08:36:56+00:00</time>
        <ele>2667.0</ele>
      </trkpt>
      <trkpt lat="44.30502" lon="6.82804">
        <time>2023-04-10T08:36:57+00:00</time>
        <ele>2667.0</ele>
      </trkpt>
      <trkpt lat="44.30502" lon="6.82804">
        <time>2023-04-10T08:36:58+00:00</time>
        <ele>2667.0</ele>
      </trkpt>
      <trkpt lat="44.30502" lon="6.82804">
        <time>2023-04-10T08:36:59+00:00</time>
        <ele>2667.0</ele>
      </trkpt>
      <trkpt lat="44.30502" lon="6.82804">
        <time>2023-04-10T08:37:00+00:00</time>
        <ele>2667.0</ele>
      </trkpt>
      <trkpt lat="44.30502" lon="6.82804">
        <time>2023-04-10T08:37:01+00:00</time>
        <ele>2667.0</ele>
      </trkpt>
      <trkpt lat="44.30502" lon="6.82804">
        <time>2023-04-10T08:37:02+00:00</time>
        <ele>2667.0</ele>
      </trkpt>
      <trkpt lat="44.30502" lon="6.82804">
        <time>2023-04-10T08:37:03+00:00</time>
        <ele>2667.0</ele>
      </trkpt>
      <trkpt lat="44.30502" lon="6.82804">
        <time>2023-04-10T08:37:04+00:00</time>
        <ele>2667.0</ele>
      </trkpt>
      <trkpt lat="44.30502" lon="6.82804">
        <time>2023-04-10T08:37:05+00:00</time>
        <ele>2667.0</ele>
      </trkpt>
      <trkpt lat="44.30501" lon="6.82804">
        <time>2023-04-10T08:37:06+00:00</time>
        <ele>2667.0</ele>
      </trkpt>
      <trkpt lat="44.30501" lon="6.82804">
        <time>2023-04-10T08:37:07+00:00</time>
        <ele>2667.0</ele>
      </trkpt>
      <trkpt lat="44.30501" lon="6.82804">
        <time>2023-04-10T08:37:08+00:00</time>
        <ele>2667.0</ele>
      </trkpt>
      <trkpt lat="44.30501" lon="6.82804">
        <time>2023-04-10T08:37:09+00:00</time>
        <ele>2667.0</ele>
      </trkpt>
      <trkpt lat="44.30501" lon="6.82804">
        <time>2023-04-10T08:37:10+00:00</time>
        <ele>2667.0</ele>
      </trkpt>
      <trkpt lat="44.30501" lon="6.82804">
        <time>2023-04-10T08:37:11+00:00</time>
        <ele>2667.0</ele>
      </trkpt>
      <trkpt lat="44.30501" lon="6.82804">
        <time>2023-04-10T08:37:12+00:00</time>
        <ele>2667.0</ele>
      </trkpt>
      <trkpt lat="44.30501" lon="6.82804">
        <time>2023-04-10T08:37:13+00:00</time>
        <ele>2667.0</ele>
      </trkpt>
      <trkpt lat="44.30501" lon="6.82809">
        <time>2023-04-10T08:37:14+00:00</time>
        <ele>2667.0</ele>
      </trkpt>
      <trkpt lat="44.30498" lon="6.82815">
        <time>2023-04-10T08:37:15+00:00</time>
        <ele>2667.0</ele>
      </trkpt>
      <trkpt lat="44.30493" lon="6.82822">
        <time>2023-04-10T08:37:16+00:00</time>
        <ele>2667.0</ele>
      </trkpt>
      <trkpt lat="44.30491" lon="6.82825">
        <time>2023-04-10T08:37:17+00:00</time>
        <ele>2666.0</ele>
      </trkpt>
      <trkpt lat="44.30489" lon="6.82828">
        <time>2023-04-10T08:37:18+00:00</time>
        <ele>2666.0</ele>
      </trkpt>
      <trkpt lat="44.30486" lon="6.82831">
        <time>2023-04-10T08:37:19+00:00</time>
        <ele>2665.0</ele>
      </trkpt>
      <trkpt lat="44.30483" lon="6.82835">
        <time>2023-04-10T08:37:20+00:00</time>
        <ele>2664.0</ele>
      </trkpt>
      <trkpt lat="44.30481" lon="6.82838">
        <time>2023-04-10T08:37:21+00:00</time>
        <ele>2664.0</ele>
      </trkpt>
      <trkpt lat="44.30479" lon="6.8284">
        <time>2023-04-10T08:37:22+00:00</time>
        <ele>2663.0</ele>
      </trkpt>
      <trkpt lat="44.30479" lon="6.8284">
        <time>2023-04-10T08:37:23+00:00</time>
        <ele>2663.0</ele>
      </trkpt>
      <trkpt lat="44.30477" lon="6.82844">
        <time>2023-04-10T08:37:24+00:00</time>
        <ele>2663.0</ele>
      </trkpt>
      <trkpt lat="44.30473" lon="6.82848">
        <time>2023-04-10T08:37:25+00:00</time>
        <ele>2663.0</ele>
      </trkpt>
      <trkpt lat="44.3047" lon="6.82851">
        <time>2023-04-10T08:37:26+00:00</time>
        <ele>2662.0</ele>
      </trkpt>
      <trkpt lat="44.30467" lon="6.82854">
        <time>2023-04-10T08:37:27+00:00</time>
        <ele>2662.0</ele>
      </trkpt>
      <trkpt lat="44.30463" lon="6.82859">
        <time>2023-04-10T08:37:28+00:00</time>
        <ele>2661.0</ele>
      </trkpt>
      <trkpt lat="44.30459" lon="6.82862">
        <time>2023-04-10T08:37:29+00:00</time>
        <ele>2660.0</ele>
      </trkpt>
      <trkpt lat="44.30455" lon="6.82866">
        <time>2023-04-10T08:37:30+00:00</time>
        <ele>2660.0</ele>
      </trkpt>
      <trkpt lat="44.30453" lon="6.8287">
        <time>2023-04-10T08:37:31+00:00</time>
        <ele>2660.0</ele>
      </trkpt>
      <trkpt lat="44.30454" lon="6.82875">
        <time>2023-04-10T08:37:32+00:00</time>
        <ele>2659.0</ele>
      </trkpt>
      <trkpt lat="44.30456" lon="6.8288">
        <time>2023-04-10T08:37:33+00:00</time>
        <ele>2657.0</ele>
      </trkpt>
      <trkpt lat="44.30457" lon="6.82888">
        <time>2023-04-10T08:37:34+00:00</time>
        <ele>2654.0</ele>
      </trkpt>
      <trkpt lat="44.30458" lon="6.82892">
        <time>2023-04-10T08:37:35+00:00</time>
        <ele>2652.0</ele>
      </trkpt>
      <trkpt lat="44.3046" lon="6.82897">
        <time>2023-04-10T08:37:36+00:00</time>
        <ele>2650.0</ele>
      </trkpt>
      <trkpt lat="44.30461" lon="6.82909">
        <time>2023-04-10T08:37:37+00:00</time>
        <ele>2645.0</ele>
      </trkpt>
      <trkpt lat="44.30461" lon="6.82913">
        <time>2023-04-10T08:37:38+00:00</time>
        <ele>2643.0</ele>
      </trkpt>
      <trkpt lat="44.30459" lon="6.82921">
        <time>2023-04-10T08:37:39+00:00</time>
        <ele>2641.0</ele>
      </trkpt>
      <trkpt lat="44.3046" lon="6.82927">
        <time>2023-04-10T08:37:40+00:00</time>
        <ele>2638.0</ele>
      </trkpt>
      <trkpt lat="44.30463" lon="6.82931">
        <time>2023-04-10T08:37:41+00:00</time>
        <ele>2636.0</ele>
      </trkpt>
      <trkpt lat="44.30466" lon="6.82936">
        <time>2023-04-10T08:37:42+00:00</time>
        <ele>2633.0</ele>
      </trkpt>
      <trkpt lat="44.30467" lon="6.82942">
        <time>2023-04-10T08:37:43+00:00</time>
        <ele>2630.0</ele>
      </trkpt>
      <trkpt lat="44.30467" lon="6.82948">
        <time>2023-04-10T08:37:44+00:00</time>
        <ele>2628.0</ele>
      </trkpt>
      <trkpt lat="44.30464" lon="6.82955">
        <time>2023-04-10T08:37:45+00:00</time>
        <ele>2627.0</ele>
      </trkpt>
      <trkpt lat="44.30461" lon="6.82958">
        <time>2023-04-10T08:37:46+00:00</time>
        <ele>2627.0</ele>
      </trkpt>
      <trkpt lat="44.30459" lon="6.8296">
        <time>2023-04-10T08:37:47+00:00</time>
        <ele>2627.0</ele>
      </trkpt>
      <trkpt lat="44.30459" lon="6.8296">
        <time>2023-04-10T08:37:48+00:00</time>
        <ele>2627.0</ele>
      </trkpt>
      <trkpt lat="44.30459" lon="6.8296">
        <time>2023-04-10T08:37:49+00:00</time>
        <ele>2627.0</ele>
      </trkpt>
      <trkpt lat="44.30459" lon="6.8296">
        <time>2023-04-10T08:37:50+00:00</time>
        <ele>2627.0</ele>
      </trkpt>
      <trkpt lat="44.30459" lon="6.8296">
        <time>2023-04-10T08:37:51+00:00</time>
        <ele>2627.0</ele>
      </trkpt>
      <trkpt lat="44.30457" lon="6.82961">
        <time>2023-04-10T08:37:52+00:00</time>
        <ele>2627.0</ele>
      </trkpt>
      <trkpt lat="44.30457" lon="6.82961">
        <time>2023-04-10T08:37:53+00:00</time>
        <ele>2627.0</ele>
      </trkpt>
      <trkpt lat="44.30457" lon="6.82961">
        <time>2023-04-10T08:37:54+00:00</time>
        <ele>2627.0</ele>
      </trkpt>
      <trkpt lat="44.30457" lon="6.82961">
        <time>2023-04-10T08:37:55+00:00</time>
        <ele>2627.0</ele>
      </trkpt>
      <trkpt lat="44.30457" lon="6.82961">
        <time>2023-04-10T08:37:56+00:00</time>
        <ele>2627.0</ele>
      </trkpt>
      <trkpt lat="44.30457" lon="6.82961">
        <time>2023-04-10T08:37:57+00:00</time>
        <ele>2627.0</ele>
      </trkpt>
      <trkpt lat="44.30457" lon="6.82961">
        <time>2023-04-10T08:37:58+00:00</time>
        <ele>2627.0</ele>
      </trkpt>
      <trkpt lat="44.30457" lon="6.82961">
        <time>2023-04-10T08:37:59+00:00</time>
        <ele>2627.0</ele>
      </trkpt>
      <trkpt lat="44.30457" lon="6.82961">
        <time>2023-04-10T08:38:00+00:00</time>
        <ele>2627.0</ele>
      </trkpt>
      <trkpt lat="44.30457" lon="6.82961">
        <time>2023-04-10T08:38:01+00:00</time>
        <ele>2627.0</ele>
      </trkpt>
      <trkpt lat="44.30457" lon="6.82961">
        <time>2023-04-10T08:38:02+00:00</time>
        <ele>2627.0</ele>
      </trkpt>
      <trkpt lat="44.30457" lon="6.82961">
        <time>2023-04-10T08:38:03+00:00</time>
        <ele>2627.0</ele>
      </trkpt>
      <trkpt lat="44.30457" lon="6.82961">
        <time>2023-04-10T08:38:04+00:00</time>
        <ele>2627.0</ele>
      </trkpt>
      <trkpt lat="44.30457" lon="6.82961">
        <time>2023-04-10T08:38:05+00:00</time>
        <ele>2627.0</ele>
      </trkpt>
      <trkpt lat="44.30457" lon="6.82961">
        <time>2023-04-10T08:38:06+00:00</time>
        <ele>2627.0</ele>
      </trkpt>
      <trkpt lat="44.30457" lon="6.82961">
        <time>2023-04-10T08:38:07+00:00</time>
        <ele>2627.0</ele>
      </trkpt>
      <trkpt lat="44.30457" lon="6.82961">
        <time>2023-04-10T08:38:08+00:00</time>
        <ele>2627.0</ele>
      </trkpt>
      <trkpt lat="44.30457" lon="6.82961">
        <time>2023-04-10T08:38:09+00:00</time>
        <ele>2627.0</ele>
      </trkpt>
      <trkpt lat="44.30457" lon="6.82961">
        <time>2023-04-10T08:38:10+00:00</time>
        <ele>2627.0</ele>
      </trkpt>
      <trkpt lat="44.30457" lon="6.82961">
        <time>2023-04-10T08:38:11+00:00</time>
        <ele>2627.0</ele>
      </trkpt>
      <trkpt lat="44.30457" lon="6.82961">
        <time>2023-04-10T08:38:12+00:00</time>
        <ele>2627.0</ele>
      </trkpt>
      <trkpt lat="44.30457" lon="6.82961">
        <time>2023-04-10T08:38:13+00:00</time>
        <ele>2627.0</ele>
      </trkpt>
      <trkpt lat="44.30457" lon="6.82961">
        <time>2023-04-10T08:38:14+00:00</time>
        <ele>2627.0</ele>
      </trkpt>
      <trkpt lat="44.30457" lon="6.82961">
        <time>2023-04-10T08:38:15+00:00</time>
        <ele>2627.0</ele>
      </trkpt>
      <trkpt lat="44.30457" lon="6.82961">
        <time>2023-04-10T08:38:16+00:00</time>
        <ele>2627.0</ele>
      </trkpt>
      <trkpt lat="44.30457" lon="6.82961">
        <time>2023-04-10T08:38:17+00:00</time>
        <ele>2627.0</ele>
      </trkpt>
      <trkpt lat="44.30457" lon="6.82961">
        <time>2023-04-10T08:38:18+00:00</time>
        <ele>2627.0</ele>
      </trkpt>
      <trkpt lat="44.30457" lon="6.82961">
        <time>2023-04-10T08:38:19+00:00</time>
        <ele>2627.0</ele>
      </trkpt>
      <trkpt lat="44.30457" lon="6.82961">
        <time>2023-04-10T08:38:20+00:00</time>
        <ele>2627.0</ele>
      </trkpt>
      <trkpt lat="44.30457" lon="6.82961">
        <time>2023-04-10T08:38:21+00:00</time>
        <ele>2627.0</ele>
      </trkpt>
      <trkpt lat="44.30457" lon="6.82961">
        <time>2023-04-10T08:38:22+00:00</time>
        <ele>2627.0</ele>
      </trkpt>
      <trkpt lat="44.30457" lon="6.82961">
        <time>2023-04-10T08:38:23+00:00</time>
        <ele>2627.0</ele>
      </trkpt>
      <trkpt lat="44.30457" lon="6.82961">
        <time>2023-04-10T08:38:24+00:00</time>
        <ele>2627.0</ele>
      </trkpt>
      <trkpt lat="44.30457" lon="6.82961">
        <time>2023-04-10T08:38:25+00:00</time>
        <ele>2627.0</ele>
      </trkpt>
      <trkpt lat="44.30457" lon="6.82961">
        <time>2023-04-10T08:38:26+00:00</time>
        <ele>2627.0</ele>
      </trkpt>
      <trkpt lat="44.30455" lon="6.82965">
        <time>2023-04-10T08:38:27+00:00</time>
        <ele>2626.0</ele>
      </trkpt>
      <trkpt lat="44.30453" lon="6.82969">
        <time>2023-04-10T08:38:28+00:00</time>
        <ele>2625.0</ele>
      </trkpt>
      <trkpt lat="44.3045" lon="6.82975">
        <time>2023-04-10T08:38:29+00:00</time>
        <ele>2624.0</ele>
      </trkpt>
      <trkpt lat="44.30447" lon="6.8298">
        <time>2023-04-10T08:38:30+00:00</time>
        <ele>2623.0</ele>
      </trkpt>
      <trkpt lat="44.30447" lon="6.82988">
        <time>2023-04-10T08:38:31+00:00</time>
        <ele>2620.0</ele>
      </trkpt>
      <trkpt lat="44.3045" lon="6.82993">
        <time>2023-04-10T08:38:32+00:00</time>
        <ele>2617.0</ele>
      </trkpt>
      <trkpt lat="44.30453" lon="6.83001">
        <time>2023-04-10T08:38:33+00:00</time>
        <ele>2613.0</ele>
      </trkpt>
      <trkpt lat="44.30456" lon="6.83007">
        <time>2023-04-10T08:38:34+00:00</time>
        <ele>2610.0</ele>
      </trkpt>
      <trkpt lat="44.3046" lon="6.83016">
        <time>2023-04-10T08:38:35+00:00</time>
        <ele>2605.0</ele>
      </trkpt>
      <trkpt lat="44.30463" lon="6.83023">
        <time>2023-04-10T08:38:36+00:00</time>
        <ele>2602.0</ele>
      </trkpt>
      <trkpt lat="44.30469" lon="6.8303">
        <time>2023-04-10T08:38:37+00:00</time>
        <ele>2598.0</ele>
      </trkpt>
      <trkpt lat="44.30473" lon="6.83037">
        <time>2023-04-10T08:38:38+00:00</time>
        <ele>2595.0</ele>
      </trkpt>
      <trkpt lat="44.30478" lon="6.83042">
        <time>2023-04-10T08:38:39+00:00</time>
        <ele>2592.0</ele>
      </trkpt>
      <trkpt lat="44.30485" lon="6.83045">
        <time>2023-04-10T08:38:40+00:00</time>
        <ele>2590.0</ele>
      </trkpt>
      <trkpt lat="44.30492" lon="6.83047">
        <time>2023-04-10T08:38:41+00:00</time>
        <ele>2587.0</ele>
      </trkpt>
      <trkpt lat="44.30498" lon="6.83051">
        <time>2023-04-10T08:38:42+00:00</time>
        <ele>2584.0</ele>
      </trkpt>
      <trkpt lat="44.30503" lon="6.83055">
        <time>2023-04-10T08:38:43+00:00</time>
        <ele>2581.0</ele>
      </trkpt>
      <trkpt lat="44.3051" lon="6.83062">
        <time>2023-04-10T08:38:44+00:00</time>
        <ele>2577.0</ele>
      </trkpt>
      <trkpt lat="44.30516" lon="6.83068">
        <time>2023-04-10T08:38:45+00:00</time>
        <ele>2574.0</ele>
      </trkpt>
      <trkpt lat="44.30521" lon="6.83072">
        <time>2023-04-10T08:38:46+00:00</time>
        <ele>2572.0</ele>
      </trkpt>
      <trkpt lat="44.30527" lon="6.83074">
        <time>2023-04-10T08:38:47+00:00</time>
        <ele>2569.0</ele>
      </trkpt>
      <trkpt lat="44.30531" lon="6.83078">
        <time>2023-04-10T08:38:48+00:00</time>
        <ele>2567.0</ele>
      </trkpt>
      <trkpt lat="44.30531" lon="6.83078">
        <time>2023-04-10T08:38:49+00:00</time>
        <ele>2567.0</ele>
      </trkpt>
      <trkpt lat="44.30531" lon="6.83078">
        <time>2023-04-10T08:38:50+00:00</time>
        <ele>2567.0</ele>
      </trkpt>
      <trkpt lat="44.30531" lon="6.83078">
        <time>2023-04-10T08:38:51+00:00</time>
        <ele>2567.0</ele>
      </trkpt>
      <trkpt lat="44.30531" lon="6.83078">
        <time>2023-04-10T08:38:52+00:00</time>
        <ele>2567.0</ele>
      </trkpt>
      <trkpt lat="44.30531" lon="6.83078">
        <time>2023-04-10T08:38:53+00:00</time>
        <ele>2567.0</ele>
      </trkpt>
      <trkpt lat="44.30531" lon="6.83078">
        <time>2023-04-10T08:38:54+00:00</time>
        <ele>2567.0</ele>
      </trkpt>
      <trkpt lat="44.30531" lon="6.83078">
        <time>2023-04-10T08:38:55+00:00</time>
        <ele>2567.0</ele>
      </trkpt>
      <trkpt lat="44.30531" lon="6.83079">
        <time>2023-04-10T08:38:56+00:00</time>
        <ele>2567.0</ele>
      </trkpt>
      <trkpt lat="44.30531" lon="6.83079">
        <time>2023-04-10T08:38:57+00:00</time>
        <ele>2567.0</ele>
      </trkpt>
      <trkpt lat="44.30531" lon="6.83079">
        <time>2023-04-10T08:38:58+00:00</time>
        <ele>2567.0</ele>
      </trkpt>
      <trkpt lat="44.30532" lon="6.83079">
        <time>2023-04-10T08:38:59+00:00</time>
        <ele>2566.0</ele>
      </trkpt>
      <trkpt lat="44.30532" lon="6.83079">
        <time>2023-04-10T08:39:00+00:00</time>
        <ele>2566.0</ele>
      </trkpt>
      <trkpt lat="44.30532" lon="6.83079">
        <time>2023-04-10T08:39:01+00:00</time>
        <ele>2566.0</ele>
      </trkpt>
      <trkpt lat="44.30532" lon="6.83079">
        <time>2023-04-10T08:39:02+00:00</time>
        <ele>2566.0</ele>
      </trkpt>
      <trkpt lat="44.30532" lon="6.83079">
        <time>2023-04-10T08:39:03+00:00</time>
        <ele>2566.0</ele>
      </trkpt>
      <trkpt lat="44.30532" lon="6.83079">
        <time>2023-04-10T08:39:04+00:00</time>
        <ele>2566.0</ele>
      </trkpt>
      <trkpt lat="44.30532" lon="6.83079">
        <time>2023-04-10T08:39:05+00:00</time>
        <ele>2566.0</ele>
      </trkpt>
      <trkpt lat="44.30532" lon="6.83079">
        <time>2023-04-10T08:39:06+00:00</time>
        <ele>2566.0</ele>
      </trkpt>
      <trkpt lat="44.30532" lon="6.83079">
        <time>2023-04-10T08:39:07+00:00</time>
        <ele>2566.0</ele>
      </trkpt>
      <trkpt lat="44.30532" lon="6.8308">
        <time>2023-04-10T08:39:08+00:00</time>
        <ele>2566.0</ele>
      </trkpt>
      <trkpt lat="44.30532" lon="6.8308">
        <time>2023-04-10T08:39:09+00:00</time>
        <ele>2566.0</ele>
      </trkpt>
      <trkpt lat="44.30532" lon="6.8308">
        <time>2023-04-10T08:39:10+00:00</time>
        <ele>2566.0</ele>
      </trkpt>
      <trkpt lat="44.30532" lon="6.8308">
        <time>2023-04-10T08:39:11+00:00</time>
        <ele>2566.0</ele>
      </trkpt>
      <trkpt lat="44.30533" lon="6.8308">
        <time>2023-04-10T08:39:12+00:00</time>
        <ele>2566.0</ele>
      </trkpt>
      <trkpt lat="44.30533" lon="6.8308">
        <time>2023-04-10T08:39:13+00:00</time>
        <ele>2566.0</ele>
      </trkpt>
      <trkpt lat="44.30533" lon="6.8308">
        <time>2023-04-10T08:39:14+00:00</time>
        <ele>2566.0</ele>
      </trkpt>
      <trkpt lat="44.30533" lon="6.8308">
        <time>2023-04-10T08:39:15+00:00</time>
        <ele>2566.0</ele>
      </trkpt>
      <trkpt lat="44.30533" lon="6.8308">
        <time>2023-04-10T08:39:16+00:00</time>
        <ele>2566.0</ele>
      </trkpt>
      <trkpt lat="44.30533" lon="6.8308">
        <time>2023-04-10T08:39:17+00:00</time>
        <ele>2566.0</ele>
      </trkpt>
      <trkpt lat="44.30533" lon="6.8308">
        <time>2023-04-10T08:39:18+00:00</time>
        <ele>2566.0</ele>
      </trkpt>
      <trkpt lat="44.30533" lon="6.8308">
        <time>2023-04-10T08:39:19+00:00</time>
        <ele>2566.0</ele>
      </trkpt>
      <trkpt lat="44.30533" lon="6.83081">
        <time>2023-04-10T08:39:20+00:00</time>
        <ele>2566.0</ele>
      </trkpt>
      <trkpt lat="44.30533" lon="6.83081">
        <time>2023-04-10T08:39:21+00:00</time>
        <ele>2566.0</ele>
      </trkpt>
      <trkpt lat="44.30533" lon="6.83081">
        <time>2023-04-10T08:39:22+00:00</time>
        <ele>2566.0</ele>
      </trkpt>
      <trkpt lat="44.30533" lon="6.83081">
        <time>2023-04-10T08:39:23+00:00</time>
        <ele>2566.0</ele>
      </trkpt>
      <trkpt lat="44.30534" lon="6.83081">
        <time>2023-04-10T08:39:24+00:00</time>
        <ele>2565.0</ele>
      </trkpt>
      <trkpt lat="44.30534" lon="6.83081">
        <time>2023-04-10T08:39:25+00:00</time>
        <ele>2565.0</ele>
      </trkpt>
      <trkpt lat="44.30534" lon="6.83081">
        <time>2023-04-10T08:39:26+00:00</time>
        <ele>2565.0</ele>
      </trkpt>
      <trkpt lat="44.30534" lon="6.83081">
        <time>2023-04-10T08:39:27+00:00</time>
        <ele>2565.0</ele>
      </trkpt>
      <trkpt lat="44.30534" lon="6.83081">
        <time>2023-04-10T08:39:28+00:00</time>
        <ele>2565.0</ele>
      </trkpt>
      <trkpt lat="44.30534" lon="6.83081">
        <time>2023-04-10T08:39:29+00:00</time>
        <ele>2565.0</ele>
      </trkpt>
      <trkpt lat="44.30534" lon="6.83081">
        <time>2023-04-10T08:39:30+00:00</time>
        <ele>2565.0</ele>
      </trkpt>
      <trkpt lat="44.30534" lon="6.83081">
        <time>2023-04-10T08:39:31+00:00</time>
        <ele>2565.0</ele>
      </trkpt>
      <trkpt lat="44.30534" lon="6.83082">
        <time>2023-04-10T08:39:32+00:00</time>
        <ele>2565.0</ele>
      </trkpt>
      <trkpt lat="44.30534" lon="6.83082">
        <time>2023-04-10T08:39:33+00:00</time>
        <ele>2565.0</ele>
      </trkpt>
      <trkpt lat="44.30534" lon="6.83082">
        <time>2023-04-10T08:39:34+00:00</time>
        <ele>2565.0</ele>
      </trkpt>
      <trkpt lat="44.30534" lon="6.83082">
        <time>2023-04-10T08:39:35+00:00</time>
        <ele>2565.0</ele>
      </trkpt>
      <trkpt lat="44.30534" lon="6.83082">
        <time>2023-04-10T08:39:36+00:00</time>
        <ele>2565.0</ele>
      </trkpt>
      <trkpt lat="44.30534" lon="6.83082">
        <time>2023-04-10T08:39:37+00:00</time>
        <ele>2565.0</ele>
      </trkpt>
      <trkpt lat="44.30534" lon="6.83082">
        <time>2023-04-10T08:39:38+00:00</time>
        <ele>2565.0</ele>
      </trkpt>
      <trkpt lat="44.30541" lon="6.8308">
        <time>2023-04-10T08:39:39+00:00</time>
        <ele>2562.0</ele>
      </trkpt>
      <trkpt lat="44.30547" lon="6.83078">
        <time>2023-04-10T08:39:40+00:00</time>
        <ele>2559.0</ele>
      </trkpt>
      <trkpt lat="44.30552" lon="6.83077">
        <time>2023-04-10T08:39:41+00:00</time>
        <ele>2556.0</ele>
      </trkpt>
      <trkpt lat="44.30559" lon="6.83078">
        <time>2023-04-10T08:39:42+00:00</time>
        <ele>2551.0</ele>
      </trkpt>
      <trkpt lat="44.30568" lon="6.83083">
        <time>2023-04-10T08:39:43+00:00</time>
        <ele>2546.0</ele>
      </trkpt>
      <trkpt lat="44.30576" lon="6.83089">
        <time>2023-04-10T08:39:44+00:00</time>
        <ele>2541.0</ele>
      </trkpt>
      <trkpt lat="44.30585" lon="6.83095">
        <time>2023-04-10T08:39:45+00:00</time>
        <ele>2536.0</ele>
      </trkpt>
      <trkpt lat="44.30595" lon="6.83101">
        <time>2023-04-10T08:39:46+00:00</time>
        <ele>2530.0</ele>
      </trkpt>
      <trkpt lat="44.30605" lon="6.83108">
        <time>2023-04-10T08:39:47+00:00</time>
        <ele>2525.0</ele>
      </trkpt>
      <trkpt lat="44.30616" lon="6.83112">
        <time>2023-04-10T08:39:48+00:00</time>
        <ele>2520.0</ele>
      </trkpt>
      <trkpt lat="44.30626" lon="6.83115">
        <time>2023-04-10T08:39:49+00:00</time>
        <ele>2517.0</ele>
      </trkpt>
      <trkpt lat="44.30637" lon="6.83117">
        <time>2023-04-10T08:39:50+00:00</time>
        <ele>2514.0</ele>
      </trkpt>
      <trkpt lat="44.30648" lon="6.83121">
        <time>2023-04-10T08:39:51+00:00</time>
        <ele>2512.0</ele>
      </trkpt>
      <trkpt lat="44.30659" lon="6.83124">
        <time>2023-04-10T08:39:52+00:00</time>
        <ele>2509.0</ele>
      </trkpt>
      <trkpt lat="44.30674" lon="6.83126">
        <time>2023-04-10T08:39:53+00:00</time>
        <ele>2508.0</ele>
      </trkpt>
      <trkpt lat="44.30678" lon="6.83126">
        <time>2023-04-10T08:39:54+00:00</time>
        <ele>2507.0</ele>
      </trkpt>
      <trkpt lat="44.30688" lon="6.83126">
        <time>2023-04-10T08:39:55+00:00</time>
        <ele>2507.0</ele>
      </trkpt>
      <trkpt lat="44.30696" lon="6.83126">
        <time>2023-04-10T08:39:56+00:00</time>
        <ele>2507.0</ele>
      </trkpt>
      <trkpt lat="44.30704" lon="6.83126">
        <time>2023-04-10T08:39:57+00:00</time>
        <ele>2507.0</ele>
      </trkpt>
      <trkpt lat="44.30709" lon="6.83128">
        <time>2023-04-10T08:39:58+00:00</time>
        <ele>2507.0</ele>
      </trkpt>
      <trkpt lat="44.30717" lon="6.83131">
        <time>2023-04-10T08:39:59+00:00</time>
        <ele>2506.0</ele>
      </trkpt>
      <trkpt lat="44.30728" lon="6.8314">
        <time>2023-04-10T08:40:00+00:00</time>
        <ele>2503.0</ele>
      </trkpt>
      <trkpt lat="44.30732" lon="6.83144">
        <time>2023-04-10T08:40:01+00:00</time>
        <ele>2502.0</ele>
      </trkpt>
      <trkpt lat="44.30736" lon="6.83149">
        <time>2023-04-10T08:40:02+00:00</time>
        <ele>2501.0</ele>
      </trkpt>
      <trkpt lat="44.30743" lon="6.83158">
        <time>2023-04-10T08:40:03+00:00</time>
        <ele>2498.0</ele>
      </trkpt>
      <trkpt lat="44.3075" lon="6.83169">
        <time>2023-04-10T08:40:04+00:00</time>
        <ele>2496.0</ele>
      </trkpt>
      <trkpt lat="44.30759" lon="6.83181">
        <time>2023-04-10T08:40:05+00:00</time>
        <ele>2494.0</ele>
      </trkpt>
      <trkpt lat="44.30765" lon="6.83193">
        <time>2023-04-10T08:40:06+00:00</time>
        <ele>2491.0</ele>
      </trkpt>
      <trkpt lat="44.3077" lon="6.83203">
        <time>2023-04-10T08:40:07+00:00</time>
        <ele>2489.0</ele>
      </trkpt>
      <trkpt lat="44.30776" lon="6.83215">
        <time>2023-04-10T08:40:08+00:00</time>
        <ele>2488.0</ele>
      </trkpt>
      <trkpt lat="44.30785" lon="6.83228">
        <time>2023-04-10T08:40:09+00:00</time>
        <ele>2486.0</ele>
      </trkpt>
      <trkpt lat="44.30791" lon="6.83241">
        <time>2023-04-10T08:40:10+00:00</time>
        <ele>2484.0</ele>
      </trkpt>
      <trkpt lat="44.30795" lon="6.83251">
        <time>2023-04-10T08:40:11+00:00</time>
        <ele>2482.0</ele>
      </trkpt>
      <trkpt lat="44.30799" lon="6.83266">
        <time>2023-04-10T08:40:12+00:00</time>
        <ele>2480.0</ele>
      </trkpt>
      <trkpt lat="44.30804" lon="6.83281">
        <time>2023-04-10T08:40:13+00:00</time>
        <ele>2478.0</ele>
      </trkpt>
      <trkpt lat="44.30808" lon="6.83299">
        <time>2023-04-10T08:40:14+00:00</time>
        <ele>2475.0</ele>
      </trkpt>
      <trkpt lat="44.30813" lon="6.83314">
        <time>2023-04-10T08:40:15+00:00</time>
        <ele>2472.0</ele>
      </trkpt>
      <trkpt lat="44.30817" lon="6.83326">
        <time>2023-04-10T08:40:16+00:00</time>
        <ele>2470.0</ele>
      </trkpt>
      <trkpt lat="44.30823" lon="6.83344">
        <time>2023-04-10T08:40:17+00:00</time>
        <ele>2467.0</ele>
      </trkpt>
      <trkpt lat="44.30829" lon="6.83359">
        <time>2023-04-10T08:40:18+00:00</time>
        <ele>2465.0</ele>
      </trkpt>
      <trkpt lat="44.30834" lon="6.83372">
        <time>2023-04-10T08:40:19+00:00</time>
        <ele>2463.0</ele>
      </trkpt>
      <trkpt lat="44.3084" lon="6.83385">
        <time>2023-04-10T08:40:20+00:00</time>
        <ele>2462.0</ele>
      </trkpt>
      <trkpt lat="44.30846" lon="6.83397">
        <time>2023-04-10T08:40:21+00:00</time>
        <ele>2461.0</ele>
      </trkpt>
      <trkpt lat="44.30852" lon="6.83408">
        <time>2023-04-10T08:40:22+00:00</time>
        <ele>2460.0</ele>
      </trkpt>
      <trkpt lat="44.30859" lon="6.83418">
        <time>2023-04-10T08:40:23+00:00</time>
        <ele>2459.0</ele>
      </trkpt>
      <trkpt lat="44.30863" lon="6.83425">
        <time>2023-04-10T08:40:24+00:00</time>
        <ele>2459.0</ele>
      </trkpt>
      <trkpt lat="44.30868" lon="6.83433">
        <time>2023-04-10T08:40:25+00:00</time>
        <ele>2458.0</ele>
      </trkpt>
      <trkpt lat="44.30874" lon="6.83443">
        <time>2023-04-10T08:40:26+00:00</time>
        <ele>2457.0</ele>
      </trkpt>
      <trkpt lat="44.30879" lon="6.83451">
        <time>2023-04-10T08:40:27+00:00</time>
        <ele>2457.0</ele>
      </trkpt>
      <trkpt lat="44.30886" lon="6.83463">
        <time>2023-04-10T08:40:28+00:00</time>
        <ele>2456.0</ele>
      </trkpt>
      <trkpt lat="44.30889" lon="6.83467">
        <time>2023-04-10T08:40:29+00:00</time>
        <ele>2455.0</ele>
      </trkpt>
      <trkpt lat="44.30892" lon="6.83471">
        <time>2023-04-10T08:40:30+00:00</time>
        <ele>2455.0</ele>
      </trkpt>
      <trkpt lat="44.30894" lon="6.83476">
        <time>2023-04-10T08:40:31+00:00</time>
        <ele>2454.0</ele>
      </trkpt>
      <trkpt lat="44.30897" lon="6.8348">
        <time>2023-04-10T08:40:32+00:00</time>
        <ele>2454.0</ele>
      </trkpt>
      <trkpt lat="44.309" lon="6.83484">
        <time>2023-04-10T08:40:33+00:00</time>
        <ele>2454.0</ele>
      </trkpt>
      <trkpt lat="44.30902" lon="6.83488">
        <time>2023-04-10T08:40:34+00:00</time>
        <ele>2453.0</ele>
      </trkpt>
      <trkpt lat="44.30902" lon="6.83488">
        <time>2023-04-10T08:40:35+00:00</time>
        <ele>2453.0</ele>
      </trkpt>
      <trkpt lat="44.30902" lon="6.83488">
        <time>2023-04-10T08:40:36+00:00</time>
        <ele>2453.0</ele>
      </trkpt>
      <trkpt lat="44.30902" lon="6.83488">
        <time>2023-04-10T08:40:37+00:00</time>
        <ele>2453.0</ele>
      </trkpt>
      <trkpt lat="44.30902" lon="6.83488">
        <time>2023-04-10T08:40:38+00:00</time>
        <ele>2453.0</ele>
      </trkpt>
      <trkpt lat="44.30902" lon="6.83488">
        <time>2023-04-10T08:40:39+00:00</time>
        <ele>2453.0</ele>
      </trkpt>
      <trkpt lat="44.30904" lon="6.83495">
        <time>2023-04-10T08:40:40+00:00</time>
        <ele>2452.0</ele>
      </trkpt>
      <trkpt lat="44.30905" lon="6.83498">
        <time>2023-04-10T08:40:41+00:00</time>
        <ele>2451.0</ele>
      </trkpt>
      <trkpt lat="44.30906" lon="6.83501">
        <time>2023-04-10T08:40:42+00:00</time>
        <ele>2451.0</ele>
      </trkpt>
      <trkpt lat="44.30909" lon="6.83507">
        <time>2023-04-10T08:40:43+00:00</time>
        <ele>2450.0</ele>
      </trkpt>
      <trkpt lat="44.30909" lon="6.83514">
        <time>2023-04-10T08:40:44+00:00</time>
        <ele>2448.0</ele>
      </trkpt>
      <trkpt lat="44.3091" lon="6.83522">
        <time>2023-04-10T08:40:45+00:00</time>
        <ele>2446.0</ele>
      </trkpt>
      <trkpt lat="44.3091" lon="6.83536">
        <time>2023-04-10T08:40:46+00:00</time>
        <ele>2442.0</ele>
      </trkpt>
      <trkpt lat="44.3091" lon="6.83541">
        <time>2023-04-10T08:40:47+00:00</time>
        <ele>2441.0</ele>
      </trkpt>
      <trkpt lat="44.3091" lon="6.83551">
        <time>2023-04-10T08:40:48+00:00</time>
        <ele>2438.0</ele>
      </trkpt>
      <trkpt lat="44.30912" lon="6.83562">
        <time>2023-04-10T08:40:49+00:00</time>
        <ele>2436.0</ele>
      </trkpt>
      <trkpt lat="44.30916" lon="6.83573">
        <time>2023-04-10T08:40:50+00:00</time>
        <ele>2434.0</ele>
      </trkpt>
      <trkpt lat="44.30918" lon="6.83583">
        <time>2023-04-10T08:40:51+00:00</time>
        <ele>2432.0</ele>
      </trkpt>
      <trkpt lat="44.30923" lon="6.83592">
        <time>2023-04-10T08:40:52+00:00</time>
        <ele>2431.0</ele>
      </trkpt>
      <trkpt lat="44.30927" lon="6.836">
        <time>2023-04-10T08:40:53+00:00</time>
        <ele>2430.0</ele>
      </trkpt>
      <trkpt lat="44.30932" lon="6.83603">
        <time>2023-04-10T08:40:54+00:00</time>
        <ele>2430.0</ele>
      </trkpt>
      <trkpt lat="44.30939" lon="6.8361">
        <time>2023-04-10T08:40:55+00:00</time>
        <ele>2429.0</ele>
      </trkpt>
      <trkpt lat="44.30945" lon="6.83613">
        <time>2023-04-10T08:40:56+00:00</time>
        <ele>2428.0</ele>
      </trkpt>
      <trkpt lat="44.3095" lon="6.83615">
        <time>2023-04-10T08:40:57+00:00</time>
        <ele>2428.0</ele>
      </trkpt>
      <trkpt lat="44.30954" lon="6.83616">
        <time>2023-04-10T08:40:58+00:00</time>
        <ele>2428.0</ele>
      </trkpt>
      <trkpt lat="44.30956" lon="6.83616">
        <time>2023-04-10T08:40:59+00:00</time>
        <ele>2428.0</ele>
      </trkpt>
      <trkpt lat="44.30956" lon="6.83616">
        <time>2023-04-10T08:41:00+00:00</time>
        <ele>2428.0</ele>
      </trkpt>
      <trkpt lat="44.30958" lon="6.83615">
        <time>2023-04-10T08:41:01+00:00</time>
        <ele>2428.0</ele>
      </trkpt>
      <trkpt lat="44.30958" lon="6.83615">
        <time>2023-04-10T08:41:02+00:00</time>
        <ele>2428.0</ele>
      </trkpt>
      <trkpt lat="44.30958" lon="6.83615">
        <time>2023-04-10T08:41:03+00:00</time>
        <ele>2428.0</ele>
      </trkpt>
      <trkpt lat="44.30958" lon="6.83615">
        <time>2023-04-10T08:41:04+00:00</time>
        <ele>2428.0</ele>
      </trkpt>
      <trkpt lat="44.3096" lon="6.83616">
        <time>2023-04-10T08:41:05+00:00</time>
        <ele>2427.0</ele>
      </trkpt>
      <trkpt lat="44.3096" lon="6.83616">
        <time>2023-04-10T08:41:06+00:00</time>
        <ele>2427.0</ele>
      </trkpt>
      <trkpt lat="44.3096" lon="6.83616">
        <time>2023-04-10T08:41:07+00:00</time>
        <ele>2427.0</ele>
      </trkpt>
      <trkpt lat="44.3096" lon="6.83616">
        <time>2023-04-10T08:41:08+00:00</time>
        <ele>2427.0</ele>
      </trkpt>
      <trkpt lat="44.30962" lon="6.83616">
        <time>2023-04-10T08:41:09+00:00</time>
        <ele>2427.0</ele>
      </trkpt>
      <trkpt lat="44.30962" lon="6.83616">
        <time>2023-04-10T08:41:10+00:00</time>
        <ele>2427.0</ele>
      </trkpt>
      <trkpt lat="44.30962" lon="6.83616">
        <time>2023-04-10T08:41:11+00:00</time>
        <ele>2427.0</ele>
      </trkpt>
      <trkpt lat="44.30962" lon="6.83616">
        <time>2023-04-10T08:41:12+00:00</time>
        <ele>2427.0</ele>
      </trkpt>
      <trkpt lat="44.30964" lon="6.83616">
        <time>2023-04-10T08:41:13+00:00</time>
        <ele>2427.0</ele>
      </trkpt>
      <trkpt lat="44.30964" lon="6.83616">
        <time>2023-04-10T08:41:14+00:00</time>
        <ele>2427.0</ele>
      </trkpt>
      <trkpt lat="44.30965" lon="6.83616">
        <time>2023-04-10T08:41:15+00:00</time>
        <ele>2427.0</ele>
      </trkpt>
      <trkpt lat="44.30965" lon="6.83616">
        <time>2023-04-10T08:41:16+00:00</time>
        <ele>2427.0</ele>
      </trkpt>
      <trkpt lat="44.30968" lon="6.83617">
        <time>2023-04-10T08:41:17+00:00</time>
        <ele>2427.0</ele>
      </trkpt>
      <trkpt lat="44.30971" lon="6.83618">
        <time>2023-04-10T08:41:18+00:00</time>
        <ele>2427.0</ele>
      </trkpt>
      <trkpt lat="44.30973" lon="6.83618">
        <time>2023-04-10T08:41:19+00:00</time>
        <ele>2427.0</ele>
      </trkpt>
      <trkpt lat="44.30975" lon="6.83619">
        <time>2023-04-10T08:41:20+00:00</time>
        <ele>2427.0</ele>
      </trkpt>
      <trkpt lat="44.30977" lon="6.8362">
        <time>2023-04-10T08:41:21+00:00</time>
        <ele>2426.0</ele>
      </trkpt>
      <trkpt lat="44.3098" lon="6.83621">
        <time>2023-04-10T08:41:22+00:00</time>
        <ele>2426.0</ele>
      </trkpt>
      <trkpt lat="44.30983" lon="6.83623">
        <time>2023-04-10T08:41:23+00:00</time>
        <ele>2425.0</ele>
      </trkpt>
      <trkpt lat="44.30986" lon="6.83625">
        <time>2023-04-10T08:41:24+00:00</time>
        <ele>2425.0</ele>
      </trkpt>
      <trkpt lat="44.30989" lon="6.83627">
        <time>2023-04-10T08:41:25+00:00</time>
        <ele>2424.0</ele>
      </trkpt>
      <trkpt lat="44.30991" lon="6.83629">
        <time>2023-04-10T08:41:26+00:00</time>
        <ele>2424.0</ele>
      </trkpt>
      <trkpt lat="44.30994" lon="6.83632">
        <time>2023-04-10T08:41:27+00:00</time>
        <ele>2423.0</ele>
      </trkpt>
      <trkpt lat="44.30997" lon="6.83634">
        <time>2023-04-10T08:41:28+00:00</time>
        <ele>2423.0</ele>
      </trkpt>
      <trkpt lat="44.30999" lon="6.83637">
        <time>2023-04-10T08:41:29+00:00</time>
        <ele>2423.0</ele>
      </trkpt>
      <trkpt lat="44.31002" lon="6.8364">
        <time>2023-04-10T08:41:30+00:00</time>
        <ele>2422.0</ele>
      </trkpt>
      <trkpt lat="44.31005" lon="6.83644">
        <time>2023-04-10T08:41:31+00:00</time>
        <ele>2422.0</ele>
      </trkpt>
      <trkpt lat="44.31009" lon="6.83648">
        <time>2023-04-10T08:41:32+00:00</time>
        <ele>2422.0</ele>
      </trkpt>
      <trkpt lat="44.31013" lon="6.83651">
        <time>2023-04-10T08:41:33+00:00</time>
        <ele>2422.0</ele>
      </trkpt>
      <trkpt lat="44.31015" lon="6.83655">
        <time>2023-04-10T08:41:34+00:00</time>
        <ele>2421.0</ele>
      </trkpt>
      <trkpt lat="44.31018" lon="6.83658">
        <time>2023-04-10T08:41:35+00:00</time>
        <ele>2421.0</ele>
      </trkpt>
      <trkpt lat="44.3102" lon="6.83661">
        <time>2023-04-10T08:41:36+00:00</time>
        <ele>2421.0</ele>
      </trkpt>
      <trkpt lat="44.31022" lon="6.83664">
        <time>2023-04-10T08:41:37+00:00</time>
        <ele>2421.0</ele>
      </trkpt>
      <trkpt lat="44.31024" lon="6.83667">
        <time>2023-04-10T08:41:38+00:00</time>
        <ele>2420.0</ele>
      </trkpt>
      <trkpt lat="44.31027" lon="6.83671">
        <time>2023-04-10T08:41:39+00:00</time>
        <ele>2420.0</ele>
      </trkpt>
      <trkpt lat="44.31029" lon="6.83674">
        <time>2023-04-10T08:41:40+00:00</time>
        <ele>2420.0</ele>
      </trkpt>
      <trkpt lat="44.31031" lon="6.83678">
        <time>2023-04-10T08:41:41+00:00</time>
        <ele>2420.0</ele>
      </trkpt>
      <trkpt lat="44.31033" lon="6.83681">
        <time>2023-04-10T08:41:42+00:00</time>
        <ele>2420.0</ele>
      </trkpt>
      <trkpt lat="44.31035" lon="6.83684">
        <time>2023-04-10T08:41:43+00:00</time>
        <ele>2420.0</ele>
      </trkpt>
      <trkpt lat="44.31037" lon="6.83686">
        <time>2023-04-10T08:41:44+00:00</time>
        <ele>2420.0</ele>
      </trkpt>
      <trkpt lat="44.31037" lon="6.83686">
        <time>2023-04-10T08:41:45+00:00</time>
        <ele>2420.0</ele>
      </trkpt>
      <trkpt lat="44.31039" lon="6.8369">
        <time>2023-04-10T08:41:46+00:00</time>
        <ele>2420.0</ele>
      </trkpt>
      <trkpt lat="44.3104" lon="6.83692">
        <time>2023-04-10T08:41:47+00:00</time>
        <ele>2420.0</ele>
      </trkpt>
      <trkpt lat="44.3104" lon="6.83692">
        <time>2023-04-10T08:41:48+00:00</time>
        <ele>2420.0</ele>
      </trkpt>
      <trkpt lat="44.31043" lon="6.83696">
        <time>2023-04-10T08:41:49+00:00</time>
        <ele>2420.0</ele>
      </trkpt>
      <trkpt lat="44.31045" lon="6.83699">
        <time>2023-04-10T08:41:50+00:00</time>
        <ele>2420.0</ele>
      </trkpt>
      <trkpt lat="44.31047" lon="6.83703">
        <time>2023-04-10T08:41:51+00:00</time>
        <ele>2419.0</ele>
      </trkpt>
      <trkpt lat="44.3105" lon="6.83707">
        <time>2023-04-10T08:41:52+00:00</time>
        <ele>2419.0</ele>
      </trkpt>
      <trkpt lat="44.31053" lon="6.83711">
        <time>2023-04-10T08:41:53+00:00</time>
        <ele>2419.0</ele>
      </trkpt>
      <trkpt lat="44.31057" lon="6.83717">
        <time>2023-04-10T08:41:54+00:00</time>
        <ele>2418.0</ele>
      </trkpt>
      <trkpt lat="44.31061" lon="6.83722">
        <time>2023-04-10T08:41:55+00:00</time>
        <ele>2418.0</ele>
      </trkpt>
      <trkpt lat="44.31064" lon="6.83728">
        <time>2023-04-10T08:41:56+00:00</time>
        <ele>2417.0</ele>
      </trkpt>
      <trkpt lat="44.31069" lon="6.83735">
        <time>2023-04-10T08:41:57+00:00</time>
        <ele>2416.0</ele>
      </trkpt>
      <trkpt lat="44.31072" lon="6.8374">
        <time>2023-04-10T08:41:58+00:00</time>
        <ele>2416.0</ele>
      </trkpt>
      <trkpt lat="44.31075" lon="6.83744">
        <time>2023-04-10T08:41:59+00:00</time>
        <ele>2415.0</ele>
      </trkpt>
      <trkpt lat="44.31078" lon="6.83748">
        <time>2023-04-10T08:42:00+00:00</time>
        <ele>2415.0</ele>
      </trkpt>
      <trkpt lat="44.3108" lon="6.83751">
        <time>2023-04-10T08:42:01+00:00</time>
        <ele>2415.0</ele>
      </trkpt>
      <trkpt lat="44.31082" lon="6.83753">
        <time>2023-04-10T08:42:02+00:00</time>
        <ele>2415.0</ele>
      </trkpt>
      <trkpt lat="44.31084" lon="6.83755">
        <time>2023-04-10T08:42:03+00:00</time>
        <ele>2415.0</ele>
      </trkpt>
      <trkpt lat="44.31086" lon="6.83758">
        <time>2023-04-10T08:42:04+00:00</time>
        <ele>2415.0</ele>
      </trkpt>
      <trkpt lat="44.31088" lon="6.83759">
        <time>2023-04-10T08:42:05+00:00</time>
        <ele>2415.0</ele>
      </trkpt>
      <trkpt lat="44.3109" lon="6.83761">
        <time>2023-04-10T08:42:06+00:00</time>
        <ele>2415.0</ele>
      </trkpt>
      <trkpt lat="44.31091" lon="6.83763">
        <time>2023-04-10T08:42:07+00:00</time>
        <ele>2415.0</ele>
      </trkpt>
      <trkpt lat="44.31094" lon="6.83766">
        <time>2023-04-10T08:42:08+00:00</time>
        <ele>2415.0</ele>
      </trkpt>
      <trkpt lat="44.31094" lon="6.83767">
        <time>2023-04-10T08:42:09+00:00</time>
        <ele>2415.0</ele>
      </trkpt>
      <trkpt lat="44.31094" lon="6.83767">
        <time>2023-04-10T08:42:10+00:00</time>
        <ele>2415.0</ele>
      </trkpt>
      <trkpt lat="44.31097" lon="6.83769">
        <time>2023-04-10T08:42:11+00:00</time>
        <ele>2415.0</ele>
      </trkpt>
      <trkpt lat="44.31097" lon="6.83769">
        <time>2023-04-10T08:42:12+00:00</time>
        <ele>2415.0</ele>
      </trkpt>
      <trkpt lat="44.311" lon="6.83772">
        <time>2023-04-10T08:42:13+00:00</time>
        <ele>2415.0</ele>
      </trkpt>
      <trkpt lat="44.31102" lon="6.83773">
        <time>2023-04-10T08:42:14+00:00</time>
        <ele>2415.0</ele>
      </trkpt>
      <trkpt lat="44.31102" lon="6.83773">
        <time>2023-04-10T08:42:15+00:00</time>
        <ele>2415.0</ele>
      </trkpt>
      <trkpt lat="44.31106" lon="6.83776">
        <time>2023-04-10T08:42:16+00:00</time>
        <ele>2415.0</ele>
      </trkpt>
      <trkpt lat="44.3111" lon="6.83778">
        <time>2023-04-10T08:42:17+00:00</time>
        <ele>2415.0</ele>
      </trkpt>
      <trkpt lat="44.31113" lon="6.83779">
        <time>2023-04-10T08:42:18+00:00</time>
        <ele>2415.0</ele>
      </trkpt>
      <trkpt lat="44.31115" lon="6.83779">
        <time>2023-04-10T08:42:19+00:00</time>
        <ele>2415.0</ele>
      </trkpt>
      <trkpt lat="44.31115" lon="6.83779">
        <time>2023-04-10T08:42:20+00:00</time>
        <ele>2415.0</ele>
      </trkpt>
      <trkpt lat="44.31117" lon="6.83779">
        <time>2023-04-10T08:42:21+00:00</time>
        <ele>2416.0</ele>
      </trkpt>
      <trkpt lat="44.31117" lon="6.83779">
        <time>2023-04-10T08:42:22+00:00</time>
        <ele>2416.0</ele>
      </trkpt>
      <trkpt lat="44.31117" lon="6.83779">
        <time>2023-04-10T08:42:23+00:00</time>
        <ele>2416.0</ele>
      </trkpt>
      <trkpt lat="44.31117" lon="6.83779">
        <time>2023-04-10T08:42:24+00:00</time>
        <ele>2416.0</ele>
      </trkpt>
      <trkpt lat="44.31117" lon="6.83779">
        <time>2023-04-10T08:42:25+00:00</time>
        <ele>2416.0</ele>
      </trkpt>
      <trkpt lat="44.31117" lon="6.83779">
        <time>2023-04-10T08:42:26+00:00</time>
        <ele>2416.0</ele>
      </trkpt>
      <trkpt lat="44.31117" lon="6.83779">
        <time>2023-04-10T08:42:27+00:00</time>
        <ele>2416.0</ele>
      </trkpt>
      <trkpt lat="44.31117" lon="6.83779">
        <time>2023-04-10T08:42:28+00:00</time>
        <ele>2416.0</ele>
      </trkpt>
      <trkpt lat="44.31117" lon="6.83779">
        <time>2023-04-10T08:42:29+00:00</time>
        <ele>2416.0</ele>
      </trkpt>
      <trkpt lat="44.31117" lon="6.83779">
        <time>2023-04-10T08:42:30+00:00</time>
        <ele>2416.0</ele>
      </trkpt>
      <trkpt lat="44.31117" lon="6.83779">
        <time>2023-04-10T08:42:31+00:00</time>
        <ele>2416.0</ele>
      </trkpt>
      <trkpt lat="44.31117" lon="6.83779">
        <time>2023-04-10T08:42:32+00:00</time>
        <ele>2416.0</ele>
      </trkpt>
      <trkpt lat="44.31117" lon="6.83779">
        <time>2023-04-10T08:42:33+00:00</time>
        <ele>2416.0</ele>
      </trkpt>
      <trkpt lat="44.31117" lon="6.83779">
        <time>2023-04-10T08:42:34+00:00</time>
        <ele>2416.0</ele>
      </trkpt>
      <trkpt lat="44.31117" lon="6.83779">
        <time>2023-04-10T08:42:35+00:00</time>
        <ele>2416.0</ele>
      </trkpt>
      <trkpt lat="44.31117" lon="6.83779">
        <time>2023-04-10T08:42:36+00:00</time>
        <ele>2416.0</ele>
      </trkpt>
      <trkpt lat="44.31117" lon="6.83779">
        <time>2023-04-10T08:42:37+00:00</time>
        <ele>2416.0</ele>
      </trkpt>
      <trkpt lat="44.31117" lon="6.83779">
        <time>2023-04-10T08:42:38+00:00</time>
        <ele>2416.0</ele>
      </trkpt>
      <trkpt lat="44.31117" lon="6.83779">
        <time>2023-04-10T08:42:39+00:00</time>
        <ele>2416.0</ele>
      </trkpt>
      <trkpt lat="44.31117" lon="6.83779">
        <time>2023-04-10T08:42:40+00:00</time>
        <ele>2416.0</ele>
      </trkpt>
      <trkpt lat="44.31117" lon="6.83779">
        <time>2023-04-10T08:42:41+00:00</time>
        <ele>2416.0</ele>
      </trkpt>
      <trkpt lat="44.31117" lon="6.83779">
        <time>2023-04-10T08:42:42+00:00</time>
        <ele>2416.0</ele>
      </trkpt>
      <trkpt lat="44.31117" lon="6.83779">
        <time>2023-04-10T08:42:43+00:00</time>
        <ele>2416.0</ele>
      </trkpt>
      <trkpt lat="44.31117" lon="6.83779">
        <time>2023-04-10T08:42:44+00:00</time>
        <ele>2416.0</ele>
      </trkpt>
      <trkpt lat="44.31119" lon="6.83778">
        <time>2023-04-10T08:42:45+00:00</time>
        <ele>2416.0</ele>
      </trkpt>
      <trkpt lat="44.31119" lon="6.83778">
        <time>2023-04-10T08:42:46+00:00</time>
        <ele>2416.0</ele>
      </trkpt>
      <trkpt lat="44.3112" lon="6.83775">
        <time>2023-04-10T08:42:47+00:00</time>
        <ele>2417.0</ele>
      </trkpt>
      <trkpt lat="44.3112" lon="6.83775">
        <time>2023-04-10T08:42:48+00:00</time>
        <ele>2417.0</ele>
      </trkpt>
      <trkpt lat="44.3112" lon="6.83771">
        <time>2023-04-10T08:42:49+00:00</time>
        <ele>2417.0</ele>
      </trkpt>
      <trkpt lat="44.3112" lon="6.83771">
        <time>2023-04-10T08:42:50+00:00</time>
        <ele>2417.0</ele>
      </trkpt>
      <trkpt lat="44.31122" lon="6.83767">
        <time>2023-04-10T08:42:51+00:00</time>
        <ele>2418.0</ele>
      </trkpt>
      <trkpt lat="44.31122" lon="6.83767">
        <time>2023-04-10T08:42:52+00:00</time>
        <ele>2418.0</ele>
      </trkpt>
      <trkpt lat="44.31122" lon="6.83767">
        <time>2023-04-10T08:42:53+00:00</time>
        <ele>2418.0</ele>
      </trkpt>
      <trkpt lat="44.31122" lon="6.83767">
        <time>2023-04-10T08:42:54+00:00</time>
        <ele>2418.0</ele>
      </trkpt>
      <trkpt lat="44.31122" lon="6.83765">
        <time>2023-04-10T08:42:55+00:00</time>
        <ele>2418.0</ele>
      </trkpt>
      <trkpt lat="44.31122" lon="6.83765">
        <time>2023-04-10T08:42:56+00:00</time>
        <ele>2418.0</ele>
      </trkpt>
      <trkpt lat="44.31122" lon="6.83765">
        <time>2023-04-10T08:42:57+00:00</time>
        <ele>2418.0</ele>
      </trkpt>
      <trkpt lat="44.31122" lon="6.83765">
        <time>2023-04-10T08:42:58+00:00</time>
        <ele>2418.0</ele>
      </trkpt>
      <trkpt lat="44.31122" lon="6.83765">
        <time>2023-04-10T08:42:59+00:00</time>
        <ele>2418.0</ele>
      </trkpt>
      <trkpt lat="44.31122" lon="6.83765">
        <time>2023-04-10T08:43:00+00:00</time>
        <ele>2418.0</ele>
      </trkpt>
      <trkpt lat="44.31122" lon="6.83765">
        <time>2023-04-10T08:43:01+00:00</time>
        <ele>2418.0</ele>
      </trkpt>
      <trkpt lat="44.31122" lon="6.83765">
        <time>2023-04-10T08:43:02+00:00</time>
        <ele>2418.0</ele>
      </trkpt>
      <trkpt lat="44.31122" lon="6.83765">
        <time>2023-04-10T08:43:03+00:00</time>
        <ele>2418.0</ele>
      </trkpt>
      <trkpt lat="44.31122" lon="6.83765">
        <time>2023-04-10T08:43:04+00:00</time>
        <ele>2418.0</ele>
      </trkpt>
      <trkpt lat="44.31122" lon="6.83765">
        <time>2023-04-10T08:43:05+00:00</time>
        <ele>2418.0</ele>
      </trkpt>
      <trkpt lat="44.31122" lon="6.83765">
        <time>2023-04-10T08:43:06+00:00</time>
        <ele>2418.0</ele>
      </trkpt>
      <trkpt lat="44.31122" lon="6.83765">
        <time>2023-04-10T08:43:07+00:00</time>
        <ele>2418.0</ele>
      </trkpt>
      <trkpt lat="44.31122" lon="6.83765">
        <time>2023-04-10T08:43:08+00:00</time>
        <ele>2418.0</ele>
      </trkpt>
      <trkpt lat="44.31122" lon="6.83765">
        <time>2023-04-10T08:43:09+00:00</time>
        <ele>2418.0</ele>
      </trkpt>
      <trkpt lat="44.31122" lon="6.83765">
        <time>2023-04-10T08:43:10+00:00</time>
        <ele>2418.0</ele>
      </trkpt>
      <trkpt lat="44.31122" lon="6.83765">
        <time>2023-04-10T08:43:11+00:00</time>
        <ele>2418.0</ele>
      </trkpt>
      <trkpt lat="44.31122" lon="6.83765">
        <time>2023-04-10T08:43:12+00:00</time>
        <ele>2418.0</ele>
      </trkpt>
      <trkpt lat="44.31122" lon="6.83765">
        <time>2023-04-10T08:43:13+00:00</time>
        <ele>2418.0</ele>
      </trkpt>
      <trkpt lat="44.31122" lon="6.83765">
        <time>2023-04-10T08:43:14+00:00</time>
        <ele>2418.0</ele>
      </trkpt>
      <trkpt lat="44.31122" lon="6.83765">
        <time>2023-04-10T08:43:15+00:00</time>
        <ele>2418.0</ele>
      </trkpt>
      <trkpt lat="44.31122" lon="6.83765">
        <time>2023-04-10T08:43:16+00:00</time>
        <ele>2418.0</ele>
      </trkpt>
      <trkpt lat="44.31122" lon="6.83765">
        <time>2023-04-10T08:43:17+00:00</time>
        <ele>2418.0</ele>
      </trkpt>
      <trkpt lat="44.31122" lon="6.83765">
        <time>2023-04-10T08:43:18+00:00</time>
        <ele>2418.0</ele>
      </trkpt>
      <trkpt lat="44.31122" lon="6.83765">
        <time>2023-04-10T08:43:19+00:00</time>
        <ele>2418.0</ele>
      </trkpt>
      <trkpt lat="44.31122" lon="6.83765">
        <time>2023-04-10T08:43:20+00:00</time>
        <ele>2418.0</ele>
      </trkpt>
      <trkpt lat="44.31122" lon="6.83765">
        <time>2023-04-10T08:43:21+00:00</time>
        <ele>2418.0</ele>
      </trkpt>
      <trkpt lat="44.31122" lon="6.83765">
        <time>2023-04-10T08:43:22+00:00</time>
        <ele>2418.0</ele>
      </trkpt>
      <trkpt lat="44.31122" lon="6.83765">
        <time>2023-04-10T08:43:23+00:00</time>
        <ele>2418.0</ele>
      </trkpt>
      <trkpt lat="44.31122" lon="6.83765">
        <time>2023-04-10T08:43:24+00:00</time>
        <ele>2418.0</ele>
      </trkpt>
      <trkpt lat="44.31122" lon="6.83765">
        <time>2023-04-10T08:43:25+00:00</time>
        <ele>2418.0</ele>
      </trkpt>
      <trkpt lat="44.31122" lon="6.83765">
        <time>2023-04-10T08:43:26+00:00</time>
        <ele>2418.0</ele>
      </trkpt>
      <trkpt lat="44.31122" lon="6.83765">
        <time>2023-04-10T08:43:27+00:00</time>
        <ele>2418.0</ele>
      </trkpt>
      <trkpt lat="44.31122" lon="6.83765">
        <time>2023-04-10T08:43:28+00:00</time>
        <ele>2418.0</ele>
      </trkpt>
      <trkpt lat="44.31122" lon="6.83765">
        <time>2023-04-10T08:43:29+00:00</time>
        <ele>2418.0</ele>
      </trkpt>
      <trkpt lat="44.31122" lon="6.83765">
        <time>2023-04-10T08:43:30+00:00</time>
        <ele>2418.0</ele>
      </trkpt>
      <trkpt lat="44.31122" lon="6.83765">
        <time>2023-04-10T08:43:31+00:00</time>
        <ele>2418.0</ele>
      </trkpt>
      <trkpt lat="44.31122" lon="6.83765">
        <time>2023-04-10T08:43:32+00:00</time>
        <ele>2418.0</ele>
      </trkpt>
      <trkpt lat="44.31122" lon="6.83765">
        <time>2023-04-10T08:43:33+00:00</time>
        <ele>2418.0</ele>
      </trkpt>
      <trkpt lat="44.31122" lon="6.83765">
        <time>2023-04-10T08:43:34+00:00</time>
        <ele>2418.0</ele>
      </trkpt>
      <trkpt lat="44.31122" lon="6.83765">
        <time>2023-04-10T08:43:35+00:00</time>
        <ele>2418.0</ele>
      </trkpt>
      <trkpt lat="44.31122" lon="6.83765">
        <time>2023-04-10T08:43:36+00:00</time>
        <ele>2418.0</ele>
      </trkpt>
      <trkpt lat="44.31122" lon="6.83765">
        <time>2023-04-10T08:43:37+00:00</time>
        <ele>2418.0</ele>
      </trkpt>
      <trkpt lat="44.31122" lon="6.83765">
        <time>2023-04-10T08:43:38+00:00</time>
        <ele>2418.0</ele>
      </trkpt>
      <trkpt lat="44.31122" lon="6.83765">
        <time>2023-04-10T08:43:39+00:00</time>
        <ele>2418.0</ele>
      </trkpt>
      <trkpt lat="44.31122" lon="6.83765">
        <time>2023-04-10T08:43:40+00:00</time>
        <ele>2418.0</ele>
      </trkpt>
      <trkpt lat="44.31122" lon="6.83765">
        <time>2023-04-10T08:43:41+00:00</time>
        <ele>2418.0</ele>
      </trkpt>
      <trkpt lat="44.31122" lon="6.83765">
        <time>2023-04-10T08:43:42+00:00</time>
        <ele>2418.0</ele>
      </trkpt>
      <trkpt lat="44.31122" lon="6.83765">
        <time>2023-04-10T08:43:43+00:00</time>
        <ele>2418.0</ele>
      </trkpt>
      <trkpt lat="44.31122" lon="6.83765">
        <time>2023-04-10T08:43:44+00:00</time>
        <ele>2418.0</ele>
      </trkpt>
      <trkpt lat="44.31122" lon="6.83765">
        <time>2023-04-10T08:43:45+00:00</time>
        <ele>2418.0</ele>
      </trkpt>
      <trkpt lat="44.31122" lon="6.83765">
        <time>2023-04-10T08:43:46+00:00</time>
        <ele>2418.0</ele>
      </trkpt>
      <trkpt lat="44.31122" lon="6.83765">
        <time>2023-04-10T08:43:47+00:00</time>
        <ele>2418.0</ele>
      </trkpt>
      <trkpt lat="44.31122" lon="6.83765">
        <time>2023-04-10T08:43:48+00:00</time>
        <ele>2418.0</ele>
      </trkpt>
      <trkpt lat="44.31122" lon="6.83765">
        <time>2023-04-10T08:43:49+00:00</time>
        <ele>2418.0</ele>
      </trkpt>
      <trkpt lat="44.31122" lon="6.83765">
        <time>2023-04-10T08:43:50+00:00</time>
        <ele>2418.0</ele>
      </trkpt>
      <trkpt lat="44.31122" lon="6.83765">
        <time>2023-04-10T08:43:51+00:00</time>
        <ele>2418.0</ele>
      </trkpt>
      <trkpt lat="44.31122" lon="6.83765">
        <time>2023-04-10T08:43:52+00:00</time>
        <ele>2418.0</ele>
      </trkpt>
      <trkpt lat="44.31122" lon="6.83765">
        <time>2023-04-10T08:43:53+00:00</time>
        <ele>2418.0</ele>
      </trkpt>
      <trkpt lat="44.31122" lon="6.83765">
        <time>2023-04-10T08:43:54+00:00</time>
        <ele>2418.0</ele>
      </trkpt>
      <trkpt lat="44.31122" lon="6.83765">
        <time>2023-04-10T08:43:55+00:00</time>
        <ele>2418.0</ele>
      </trkpt>
      <trkpt lat="44.31122" lon="6.83765">
        <time>2023-04-10T08:43:56+00:00</time>
        <ele>2418.0</ele>
      </trkpt>
      <trkpt lat="44.31122" lon="6.83765">
        <time>2023-04-10T08:43:57+00:00</time>
        <ele>2418.0</ele>
      </trkpt>
      <trkpt lat="44.31122" lon="6.83765">
        <time>2023-04-10T08:43:58+00:00</time>
        <ele>2418.0</ele>
      </trkpt>
      <trkpt lat="44.31122" lon="6.83765">
        <time>2023-04-10T08:43:59+00:00</time>
        <ele>2418.0</ele>
      </trkpt>
      <trkpt lat="44.31122" lon="6.83765">
        <time>2023-04-10T08:44:00+00:00</time>
        <ele>2418.0</ele>
      </trkpt>
      <trkpt lat="44.31122" lon="6.83765">
        <time>2023-04-10T08:44:01+00:00</time>
        <ele>2418.0</ele>
      </trkpt>
      <trkpt lat="44.31122" lon="6.83765">
        <time>2023-04-10T08:44:02+00:00</time>
        <ele>2418.0</ele>
      </trkpt>
      <trkpt lat="44.31122" lon="6.83765">
        <time>2023-04-10T08:44:03+00:00</time>
        <ele>2418.0</ele>
      </trkpt>
      <trkpt lat="44.31122" lon="6.83765">
        <time>2023-04-10T08:44:04+00:00</time>
        <ele>2418.0</ele>
      </trkpt>
      <trkpt lat="44.31122" lon="6.83765">
        <time>2023-04-10T08:44:05+00:00</time>
        <ele>2418.0</ele>
      </trkpt>
      <trkpt lat="44.31122" lon="6.83765">
        <time>2023-04-10T08:44:06+00:00</time>
        <ele>2418.0</ele>
      </trkpt>
      <trkpt lat="44.31122" lon="6.83765">
        <time>2023-04-10T08:44:07+00:00</time>
        <ele>2418.0</ele>
      </trkpt>
      <trkpt lat="44.31122" lon="6.83765">
        <time>2023-04-10T08:44:08+00:00</time>
        <ele>2418.0</ele>
      </trkpt>
      <trkpt lat="44.31122" lon="6.83765">
        <time>2023-04-10T08:44:09+00:00</time>
        <ele>2418.0</ele>
      </trkpt>
      <trkpt lat="44.31122" lon="6.83765">
        <time>2023-04-10T08:44:10+00:00</time>
        <ele>2418.0</ele>
      </trkpt>
      <trkpt lat="44.31122" lon="6.83765">
        <time>2023-04-10T08:44:11+00:00</time>
        <ele>2418.0</ele>
      </trkpt>
      <trkpt lat="44.31122" lon="6.83765">
        <time>2023-04-10T08:44:12+00:00</time>
        <ele>2418.0</ele>
      </trkpt>
      <trkpt lat="44.31122" lon="6.83765">
        <time>2023-04-10T08:44:13+00:00</time>
        <ele>2418.0</ele>
      </trkpt>
      <trkpt lat="44.31122" lon="6.83765">
        <time>2023-04-10T08:44:14+00:00</time>
        <ele>2418.0</ele>
      </trkpt>
      <trkpt lat="44.31122" lon="6.83765">
        <time>2023-04-10T08:44:15+00:00</time>
        <ele>2418.0</ele>
      </trkpt>
      <trkpt lat="44.31122" lon="6.83765">
        <time>2023-04-10T08:44:16+00:00</time>
        <ele>2418.0</ele>
      </trkpt>
      <trkpt lat="44.31122" lon="6.83765">
        <time>2023-04-10T08:44:17+00:00</time>
        <ele>2418.0</ele>
      </trkpt>
      <trkpt lat="44.31122" lon="6.83765">
        <time>2023-04-10T08:44:18+00:00</time>
        <ele>2418.0</ele>
      </trkpt>
      <trkpt lat="44.31122" lon="6.83765">
        <time>2023-04-10T08:44:19+00:00</time>
        <ele>2418.0</ele>
      </trkpt>
      <trkpt lat="44.31122" lon="6.83765">
        <time>2023-04-10T08:44:20+00:00</time>
        <ele>2418.0</ele>
      </trkpt>
      <trkpt lat="44.31122" lon="6.83765">
        <time>2023-04-10T08:44:21+00:00</time>
        <ele>2418.0</ele>
      </trkpt>
      <trkpt lat="44.31122" lon="6.83765">
        <time>2023-04-10T08:44:22+00:00</time>
        <ele>2418.0</ele>
      </trkpt>
      <trkpt lat="44.31122" lon="6.83765">
        <time>2023-04-10T08:44:23+00:00</time>
        <ele>2418.0</ele>
      </trkpt>
      <trkpt lat="44.31122" lon="6.83765">
        <time>2023-04-10T08:44:24+00:00</time>
        <ele>2418.0</ele>
      </trkpt>
      <trkpt lat="44.31122" lon="6.83765">
        <time>2023-04-10T08:44:25+00:00</time>
        <ele>2418.0</ele>
      </trkpt>
      <trkpt lat="44.31122" lon="6.83765">
        <time>2023-04-10T08:44:26+00:00</time>
        <ele>2418.0</ele>
      </trkpt>
      <trkpt lat="44.31122" lon="6.83765">
        <time>2023-04-10T08:44:27+00:00</time>
        <ele>2418.0</ele>
      </trkpt>
      <trkpt lat="44.31122" lon="6.83765">
        <time>2023-04-10T08:44:28+00:00</time>
        <ele>2418.0</ele>
      </trkpt>
      <trkpt lat="44.31122" lon="6.83765">
        <time>2023-04-10T08:44:29+00:00</time>
        <ele>2418.0</ele>
      </trkpt>
      <trkpt lat="44.31122" lon="6.83765">
        <time>2023-04-10T08:44:30+00:00</time>
        <ele>2418.0</ele>
      </trkpt>
      <trkpt lat="44.31122" lon="6.83765">
        <time>2023-04-10T08:44:31+00:00</time>
        <ele>2418.0</ele>
      </trkpt>
      <trkpt lat="44.31122" lon="6.83765">
        <time>2023-04-10T08:44:32+00:00</time>
        <ele>2418.0</ele>
      </trkpt>
      <trkpt lat="44.31122" lon="6.83765">
        <time>2023-04-10T08:44:33+00:00</time>
        <ele>2418.0</ele>
      </trkpt>
      <trkpt lat="44.31122" lon="6.83765">
        <time>2023-04-10T08:44:34+00:00</time>
        <ele>2418.0</ele>
      </trkpt>
      <trkpt lat="44.31122" lon="6.83765">
        <time>2023-04-10T08:44:35+00:00</time>
        <ele>2418.0</ele>
      </trkpt>
      <trkpt lat="44.31122" lon="6.83765">
        <time>2023-04-10T08:44:36+00:00</time>
        <ele>2418.0</ele>
      </trkpt>
      <trkpt lat="44.31122" lon="6.83765">
        <time>2023-04-10T08:44:37+00:00</time>
        <ele>2418.0</ele>
      </trkpt>
      <trkpt lat="44.31122" lon="6.83765">
        <time>2023-04-10T08:44:38+00:00</time>
        <ele>2418.0</ele>
      </trkpt>
      <trkpt lat="44.31122" lon="6.83765">
        <time>2023-04-10T08:44:39+00:00</time>
        <ele>2418.0</ele>
      </trkpt>
      <trkpt lat="44.31122" lon="6.83765">
        <time>2023-04-10T08:44:40+00:00</time>
        <ele>2418.0</ele>
      </trkpt>
      <trkpt lat="44.31122" lon="6.83765">
        <time>2023-04-10T08:44:41+00:00</time>
        <ele>2418.0</ele>
      </trkpt>
      <trkpt lat="44.31122" lon="6.83765">
        <time>2023-04-10T08:44:42+00:00</time>
        <ele>2418.0</ele>
      </trkpt>
      <trkpt lat="44.31122" lon="6.83765">
        <time>2023-04-10T08:44:43+00:00</time>
        <ele>2418.0</ele>
      </trkpt>
      <trkpt lat="44.31122" lon="6.83765">
        <time>2023-04-10T08:44:44+00:00</time>
        <ele>2418.0</ele>
      </trkpt>
      <trkpt lat="44.31122" lon="6.83765">
        <time>2023-04-10T08:44:45+00:00</time>
        <ele>2418.0</ele>
      </trkpt>
      <trkpt lat="44.31122" lon="6.83765">
        <time>2023-04-10T08:44:46+00:00</time>
        <ele>2418.0</ele>
      </trkpt>
      <trkpt lat="44.31122" lon="6.83765">
        <time>2023-04-10T08:44:47+00:00</time>
        <ele>2418.0</ele>
      </trkpt>
      <trkpt lat="44.31122" lon="6.83765">
        <time>2023-04-10T08:44:48+00:00</time>
        <ele>2418.0</ele>
      </trkpt>
      <trkpt lat="44.31122" lon="6.83765">
        <time>2023-04-10T08:44:49+00:00</time>
        <ele>2418.0</ele>
      </trkpt>
      <trkpt lat="44.31122" lon="6.83765">
        <time>2023-04-10T08:44:50+00:00</time>
        <ele>2418.0</ele>
      </trkpt>
      <trkpt lat="44.31122" lon="6.83765">
        <time>2023-04-10T08:44:51+00:00</time>
        <ele>2418.0</ele>
      </trkpt>
      <trkpt lat="44.31122" lon="6.83765">
        <time>2023-04-10T08:44:52+00:00</time>
        <ele>2418.0</ele>
      </trkpt>
      <trkpt lat="44.31122" lon="6.83765">
        <time>2023-04-10T08:44:53+00:00</time>
        <ele>2418.0</ele>
      </trkpt>
      <trkpt lat="44.31122" lon="6.83765">
        <time>2023-04-10T08:44:54+00:00</time>
        <ele>2418.0</ele>
      </trkpt>
      <trkpt lat="44.31122" lon="6.83765">
        <time>2023-04-10T08:44:55+00:00</time>
        <ele>2418.0</ele>
      </trkpt>
      <trkpt lat="44.31122" lon="6.83765">
        <time>2023-04-10T08:44:56+00:00</time>
        <ele>2418.0</ele>
      </trkpt>
      <trkpt lat="44.31122" lon="6.83765">
        <time>2023-04-10T08:44:57+00:00</time>
        <ele>2418.0</ele>
      </trkpt>
      <trkpt lat="44.31122" lon="6.83765">
        <time>2023-04-10T08:44:58+00:00</time>
        <ele>2418.0</ele>
      </trkpt>
      <trkpt lat="44.31122" lon="6.83765">
        <time>2023-04-10T08:44:59+00:00</time>
        <ele>2418.0</ele>
      </trkpt>
      <trkpt lat="44.31122" lon="6.83765">
        <time>2023-04-10T08:45:00+00:00</time>
        <ele>2418.0</ele>
      </trkpt>
      <trkpt lat="44.31122" lon="6.83765">
        <time>2023-04-10T08:45:01+00:00</time>
        <ele>2418.0</ele>
      </trkpt>
      <trkpt lat="44.31122" lon="6.83765">
        <time>2023-04-10T08:45:02+00:00</time>
        <ele>2418.0</ele>
      </trkpt>
      <trkpt lat="44.31122" lon="6.83765">
        <time>2023-04-10T08:45:03+00:00</time>
        <ele>2418.0</ele>
      </trkpt>
      <trkpt lat="44.31122" lon="6.83765">
        <time>2023-04-10T08:45:04+00:00</time>
        <ele>2418.0</ele>
      </trkpt>
      <trkpt lat="44.31122" lon="6.83765">
        <time>2023-04-10T08:45:05+00:00</time>
        <ele>2418.0</ele>
      </trkpt>
      <trkpt lat="44.31122" lon="6.83765">
        <time>2023-04-10T08:45:06+00:00</time>
        <ele>2418.0</ele>
      </trkpt>
      <trkpt lat="44.31122" lon="6.83765">
        <time>2023-04-10T08:45:07+00:00</time>
        <ele>2418.0</ele>
      </trkpt>
      <trkpt lat="44.31122" lon="6.83765">
        <time>2023-04-10T08:45:08+00:00</time>
        <ele>2418.0</ele>
      </trkpt>
      <trkpt lat="44.31122" lon="6.83765">
        <time>2023-04-10T08:45:09+00:00</time>
        <ele>2418.0</ele>
      </trkpt>
      <trkpt lat="44.31122" lon="6.83765">
        <time>2023-04-10T08:45:10+00:00</time>
        <ele>2418.0</ele>
      </trkpt>
      <trkpt lat="44.31122" lon="6.83765">
        <time>2023-04-10T08:45:11+00:00</time>
        <ele>2418.0</ele>
      </trkpt>
      <trkpt lat="44.31122" lon="6.83765">
        <time>2023-04-10T08:45:12+00:00</time>
        <ele>2418.0</ele>
      </trkpt>
      <trkpt lat="44.31122" lon="6.83765">
        <time>2023-04-10T08:45:13+00:00</time>
        <ele>2418.0</ele>
      </trkpt>
      <trkpt lat="44.31122" lon="6.83765">
        <time>2023-04-10T08:45:14+00:00</time>
        <ele>2418.0</ele>
      </trkpt>
      <trkpt lat="44.31122" lon="6.83765">
        <time>2023-04-10T08:45:15+00:00</time>
        <ele>2418.0</ele>
      </trkpt>
      <trkpt lat="44.31122" lon="6.83765">
        <time>2023-04-10T08:45:16+00:00</time>
        <ele>2418.0</ele>
      </trkpt>
      <trkpt lat="44.31122" lon="6.83765">
        <time>2023-04-10T08:45:17+00:00</time>
        <ele>2418.0</ele>
      </trkpt>
      <trkpt lat="44.31122" lon="6.83765">
        <time>2023-04-10T08:45:18+00:00</time>
        <ele>2418.0</ele>
      </trkpt>
      <trkpt lat="44.31122" lon="6.83765">
        <time>2023-04-10T08:45:19+00:00</time>
        <ele>2418.0</ele>
      </trkpt>
      <trkpt lat="44.31122" lon="6.83765">
        <time>2023-04-10T08:45:20+00:00</time>
        <ele>2418.0</ele>
      </trkpt>
      <trkpt lat="44.31122" lon="6.83765">
        <time>2023-04-10T08:45:21+00:00</time>
        <ele>2418.0</ele>
      </trkpt>
      <trkpt lat="44.31122" lon="6.83765">
        <time>2023-04-10T08:45:22+00:00</time>
        <ele>2418.0</ele>
      </trkpt>
      <trkpt lat="44.31122" lon="6.83765">
        <time>2023-04-10T08:45:23+00:00</time>
        <ele>2418.0</ele>
      </trkpt>
      <trkpt lat="44.31123" lon="6.83761">
        <time>2023-04-10T08:45:24+00:00</time>
        <ele>2419.0</ele>
      </trkpt>
      <trkpt lat="44.31126" lon="6.83759">
        <time>2023-04-10T08:45:25+00:00</time>
        <ele>2419.0</ele>
      </trkpt>
      <trkpt lat="44.3113" lon="6.83756">
        <time>2023-04-10T08:45:26+00:00</time>
        <ele>2419.0</ele>
      </trkpt>
      <trkpt lat="44.31134" lon="6.83754">
        <time>2023-04-10T08:45:27+00:00</time>
        <ele>2418.0</ele>
      </trkpt>
      <trkpt lat="44.31138" lon="6.83752">
        <time>2023-04-10T08:45:28+00:00</time>
        <ele>2418.0</ele>
      </trkpt>
      <trkpt lat="44.31144" lon="6.83749">
        <time>2023-04-10T08:45:29+00:00</time>
        <ele>2417.0</ele>
      </trkpt>
      <trkpt lat="44.31151" lon="6.83744">
        <time>2023-04-10T08:45:30+00:00</time>
        <ele>2415.0</ele>
      </trkpt>
      <trkpt lat="44.31158" lon="6.83742">
        <time>2023-04-10T08:45:31+00:00</time>
        <ele>2412.0</ele>
      </trkpt>
      <trkpt lat="44.31166" lon="6.83739">
        <time>2023-04-10T08:45:32+00:00</time>
        <ele>2410.0</ele>
      </trkpt>
      <trkpt lat="44.31173" lon="6.83738">
        <time>2023-04-10T08:45:33+00:00</time>
        <ele>2408.0</ele>
      </trkpt>
      <trkpt lat="44.31181" lon="6.83737">
        <time>2023-04-10T08:45:34+00:00</time>
        <ele>2406.0</ele>
      </trkpt>
      <trkpt lat="44.3119" lon="6.83735">
        <time>2023-04-10T08:45:35+00:00</time>
        <ele>2404.0</ele>
      </trkpt>
      <trkpt lat="44.31198" lon="6.83735">
        <time>2023-04-10T08:45:36+00:00</time>
        <ele>2401.0</ele>
      </trkpt>
      <trkpt lat="44.31206" lon="6.83736">
        <time>2023-04-10T08:45:37+00:00</time>
        <ele>2399.0</ele>
      </trkpt>
      <trkpt lat="44.31216" lon="6.83738">
        <time>2023-04-10T08:45:38+00:00</time>
        <ele>2397.0</ele>
      </trkpt>
      <trkpt lat="44.31225" lon="6.83736">
        <time>2023-04-10T08:45:39+00:00</time>
        <ele>2396.0</ele>
      </trkpt>
      <trkpt lat="44.31234" lon="6.83733">
        <time>2023-04-10T08:45:40+00:00</time>
        <ele>2395.0</ele>
      </trkpt>
      <trkpt lat="44.31242" lon="6.8373">
        <time>2023-04-10T08:45:41+00:00</time>
        <ele>2394.0</ele>
      </trkpt>
      <trkpt lat="44.31252" lon="6.83724">
        <time>2023-04-10T08:45:42+00:00</time>
        <ele>2393.0</ele>
      </trkpt>
      <trkpt lat="44.31261" lon="6.83719">
        <time>2023-04-10T08:45:43+00:00</time>
        <ele>2393.0</ele>
      </trkpt>
      <trkpt lat="44.31268" lon="6.83716">
        <time>2023-04-10T08:45:44+00:00</time>
        <ele>2392.0</ele>
      </trkpt>
      <trkpt lat="44.31275" lon="6.83713">
        <time>2023-04-10T08:45:45+00:00</time>
        <ele>2392.0</ele>
      </trkpt>
      <trkpt lat="44.31281" lon="6.83711">
        <time>2023-04-10T08:45:46+00:00</time>
        <ele>2391.0</ele>
      </trkpt>
      <trkpt lat="44.31287" lon="6.83709">
        <time>2023-04-10T08:45:47+00:00</time>
        <ele>2391.0</ele>
      </trkpt>
      <trkpt lat="44.31292" lon="6.83707">
        <time>2023-04-10T08:45:48+00:00</time>
        <ele>2391.0</ele>
      </trkpt>
      <trkpt lat="44.31295" lon="6.83704">
        <time>2023-04-10T08:45:49+00:00</time>
        <ele>2392.0</ele>
      </trkpt>
      <trkpt lat="44.31298" lon="6.83702">
        <time>2023-04-10T08:45:50+00:00</time>
        <ele>2392.0</ele>
      </trkpt>
      <trkpt lat="44.31301" lon="6.83699">
        <time>2023-04-10T08:45:51+00:00</time>
        <ele>2392.0</ele>
      </trkpt>
      <trkpt lat="44.31304" lon="6.83696">
        <time>2023-04-10T08:45:52+00:00</time>
        <ele>2392.0</ele>
      </trkpt>
      <trkpt lat="44.31307" lon="6.83694">
        <time>2023-04-10T08:45:53+00:00</time>
        <ele>2392.0</ele>
      </trkpt>
      <trkpt lat="44.31309" lon="6.83692">
        <time>2023-04-10T08:45:54+00:00</time>
        <ele>2392.0</ele>
      </trkpt>
      <trkpt lat="44.31312" lon="6.83689">
        <time>2023-04-10T08:45:55+00:00</time>
        <ele>2392.0</ele>
      </trkpt>
      <trkpt lat="44.31315" lon="6.83686">
        <time>2023-04-10T08:45:56+00:00</time>
        <ele>2392.0</ele>
      </trkpt>
      <trkpt lat="44.31319" lon="6.83684">
        <time>2023-04-10T08:45:57+00:00</time>
        <ele>2392.0</ele>
      </trkpt>
      <trkpt lat="44.31323" lon="6.83681">
        <time>2023-04-10T08:45:58+00:00</time>
        <ele>2392.0</ele>
      </trkpt>
      <trkpt lat="44.31327" lon="6.83679">
        <time>2023-04-10T08:45:59+00:00</time>
        <ele>2392.0</ele>
      </trkpt>
      <trkpt lat="44.31331" lon="6.83678">
        <time>2023-04-10T08:46:00+00:00</time>
        <ele>2391.0</ele>
      </trkpt>
      <trkpt lat="44.31335" lon="6.83676">
        <time>2023-04-10T08:46:01+00:00</time>
        <ele>2391.0</ele>
      </trkpt>
      <trkpt lat="44.31338" lon="6.83675">
        <time>2023-04-10T08:46:02+00:00</time>
        <ele>2391.0</ele>
      </trkpt>
      <trkpt lat="44.31342" lon="6.83673">
        <time>2023-04-10T08:46:03+00:00</time>
        <ele>2391.0</ele>
      </trkpt>
      <trkpt lat="44.31346" lon="6.83672">
        <time>2023-04-10T08:46:04+00:00</time>
        <ele>2390.0</ele>
      </trkpt>
      <trkpt lat="44.31349" lon="6.83671">
        <time>2023-04-10T08:46:05+00:00</time>
        <ele>2390.0</ele>
      </trkpt>
      <trkpt lat="44.31353" lon="6.8367">
        <time>2023-04-10T08:46:06+00:00</time>
        <ele>2390.0</ele>
      </trkpt>
      <trkpt lat="44.31357" lon="6.8367">
        <time>2023-04-10T08:46:07+00:00</time>
        <ele>2389.0</ele>
      </trkpt>
      <trkpt lat="44.31361" lon="6.83669">
        <time>2023-04-10T08:46:08+00:00</time>
        <ele>2389.0</ele>
      </trkpt>
      <trkpt lat="44.31365" lon="6.83669">
        <time>2023-04-10T08:46:09+00:00</time>
        <ele>2388.0</ele>
      </trkpt>
      <trkpt lat="44.3137" lon="6.83668">
        <time>2023-04-10T08:46:10+00:00</time>
        <ele>2387.0</ele>
      </trkpt>
      <trkpt lat="44.31373" lon="6.83668">
        <time>2023-04-10T08:46:11+00:00</time>
        <ele>2387.0</ele>
      </trkpt>
      <trkpt lat="44.31378" lon="6.83667">
        <time>2023-04-10T08:46:12+00:00</time>
        <ele>2386.0</ele>
      </trkpt>
      <trkpt lat="44.31382" lon="6.83667">
        <time>2023-04-10T08:46:13+00:00</time>
        <ele>2385.0</ele>
      </trkpt>
      <trkpt lat="44.31387" lon="6.83666">
        <time>2023-04-10T08:46:14+00:00</time>
        <ele>2385.0</ele>
      </trkpt>
      <trkpt lat="44.31391" lon="6.83666">
        <time>2023-04-10T08:46:15+00:00</time>
        <ele>2384.0</ele>
      </trkpt>
      <trkpt lat="44.31395" lon="6.83665">
        <time>2023-04-10T08:46:16+00:00</time>
        <ele>2383.0</ele>
      </trkpt>
      <trkpt lat="44.31398" lon="6.83665">
        <time>2023-04-10T08:46:17+00:00</time>
        <ele>2383.0</ele>
      </trkpt>
      <trkpt lat="44.31402" lon="6.83665">
        <time>2023-04-10T08:46:18+00:00</time>
        <ele>2382.0</ele>
      </trkpt>
      <trkpt lat="44.31405" lon="6.83664">
        <time>2023-04-10T08:46:19+00:00</time>
        <ele>2382.0</ele>
      </trkpt>
      <trkpt lat="44.31407" lon="6.83664">
        <time>2023-04-10T08:46:20+00:00</time>
        <ele>2382.0</ele>
      </trkpt>
      <trkpt lat="44.3141" lon="6.83663">
        <time>2023-04-10T08:46:21+00:00</time>
        <ele>2381.0</ele>
      </trkpt>
      <trkpt lat="44.31413" lon="6.83662">
        <time>2023-04-10T08:46:22+00:00</time>
        <ele>2381.0</ele>
      </trkpt>
      <trkpt lat="44.31414" lon="6.83662">
        <time>2023-04-10T08:46:23+00:00</time>
        <ele>2381.0</ele>
      </trkpt>
      <trkpt lat="44.31416" lon="6.83661">
        <time>2023-04-10T08:46:24+00:00</time>
        <ele>2380.0</ele>
      </trkpt>
      <trkpt lat="44.31418" lon="6.8366">
        <time>2023-04-10T08:46:25+00:00</time>
        <ele>2380.0</ele>
      </trkpt>
      <trkpt lat="44.3142" lon="6.8366">
        <time>2023-04-10T08:46:26+00:00</time>
        <ele>2380.0</ele>
      </trkpt>
      <trkpt lat="44.31422" lon="6.83659">
        <time>2023-04-10T08:46:27+00:00</time>
        <ele>2380.0</ele>
      </trkpt>
      <trkpt lat="44.31422" lon="6.83659">
        <time>2023-04-10T08:46:28+00:00</time>
        <ele>2380.0</ele>
      </trkpt>
      <trkpt lat="44.31425" lon="6.83657">
        <time>2023-04-10T08:46:29+00:00</time>
        <ele>2379.0</ele>
      </trkpt>
      <trkpt lat="44.31425" lon="6.83657">
        <time>2023-04-10T08:46:30+00:00</time>
        <ele>2379.0</ele>
      </trkpt>
      <trkpt lat="44.31428" lon="6.83656">
        <time>2023-04-10T08:46:31+00:00</time>
        <ele>2379.0</ele>
      </trkpt>
      <trkpt lat="44.31428" lon="6.83656">
        <time>2023-04-10T08:46:32+00:00</time>
        <ele>2379.0</ele>
      </trkpt>
      <trkpt lat="44.3143" lon="6.83655">
        <time>2023-04-10T08:46:33+00:00</time>
        <ele>2379.0</ele>
      </trkpt>
      <trkpt lat="44.3143" lon="6.83655">
        <time>2023-04-10T08:46:34+00:00</time>
        <ele>2379.0</ele>
      </trkpt>
      <trkpt lat="44.3143" lon="6.83655">
        <time>2023-04-10T08:46:35+00:00</time>
        <ele>2379.0</ele>
      </trkpt>
      <trkpt lat="44.31432" lon="6.83653">
        <time>2023-04-10T08:46:36+00:00</time>
        <ele>2379.0</ele>
      </trkpt>
      <trkpt lat="44.31432" lon="6.83653">
        <time>2023-04-10T08:46:37+00:00</time>
        <ele>2379.0</ele>
      </trkpt>
      <trkpt lat="44.31432" lon="6.83653">
        <time>2023-04-10T08:46:38+00:00</time>
        <ele>2379.0</ele>
      </trkpt>
      <trkpt lat="44.31432" lon="6.83653">
        <time>2023-04-10T08:46:39+00:00</time>
        <ele>2379.0</ele>
      </trkpt>
      <trkpt lat="44.31432" lon="6.83653">
        <time>2023-04-10T08:46:40+00:00</time>
        <ele>2379.0</ele>
      </trkpt>
      <trkpt lat="44.31432" lon="6.83653">
        <time>2023-04-10T08:46:41+00:00</time>
        <ele>2379.0</ele>
      </trkpt>
      <trkpt lat="44.31432" lon="6.83653">
        <time>2023-04-10T08:46:42+00:00</time>
        <ele>2379.0</ele>
      </trkpt>
      <trkpt lat="44.31432" lon="6.83653">
        <time>2023-04-10T08:46:43+00:00</time>
        <ele>2379.0</ele>
      </trkpt>
      <trkpt lat="44.31434" lon="6.83651">
        <time>2023-04-10T08:46:44+00:00</time>
        <ele>2379.0</ele>
      </trkpt>
      <trkpt lat="44.31434" lon="6.83651">
        <time>2023-04-10T08:46:45+00:00</time>
        <ele>2379.0</ele>
      </trkpt>
      <trkpt lat="44.31434" lon="6.83651">
        <time>2023-04-10T08:46:46+00:00</time>
        <ele>2379.0</ele>
      </trkpt>
      <trkpt lat="44.31435" lon="6.83649">
        <time>2023-04-10T08:46:47+00:00</time>
        <ele>2379.0</ele>
      </trkpt>
      <trkpt lat="44.31435" lon="6.83649">
        <time>2023-04-10T08:46:48+00:00</time>
        <ele>2379.0</ele>
      </trkpt>
      <trkpt lat="44.31437" lon="6.83648">
        <time>2023-04-10T08:46:49+00:00</time>
        <ele>2379.0</ele>
      </trkpt>
      <trkpt lat="44.31437" lon="6.83648">
        <time>2023-04-10T08:46:50+00:00</time>
        <ele>2379.0</ele>
      </trkpt>
      <trkpt lat="44.31438" lon="6.83645">
        <time>2023-04-10T08:46:51+00:00</time>
        <ele>2380.0</ele>
      </trkpt>
      <trkpt lat="44.31438" lon="6.83645">
        <time>2023-04-10T08:46:52+00:00</time>
        <ele>2380.0</ele>
      </trkpt>
      <trkpt lat="44.3144" lon="6.83644">
        <time>2023-04-10T08:46:53+00:00</time>
        <ele>2379.0</ele>
      </trkpt>
      <trkpt lat="44.3144" lon="6.83644">
        <time>2023-04-10T08:46:54+00:00</time>
        <ele>2379.0</ele>
      </trkpt>
      <trkpt lat="44.3144" lon="6.83644">
        <time>2023-04-10T08:46:55+00:00</time>
        <ele>2379.0</ele>
      </trkpt>
      <trkpt lat="44.3144" lon="6.83644">
        <time>2023-04-10T08:46:56+00:00</time>
        <ele>2379.0</ele>
      </trkpt>
      <trkpt lat="44.3144" lon="6.83644">
        <time>2023-04-10T08:46:57+00:00</time>
        <ele>2379.0</ele>
      </trkpt>
      <trkpt lat="44.3144" lon="6.83644">
        <time>2023-04-10T08:46:58+00:00</time>
        <ele>2379.0</ele>
      </trkpt>
      <trkpt lat="44.3144" lon="6.83644">
        <time>2023-04-10T08:46:59+00:00</time>
        <ele>2379.0</ele>
      </trkpt>
      <trkpt lat="44.3144" lon="6.83644">
        <time>2023-04-10T08:47:00+00:00</time>
        <ele>2379.0</ele>
      </trkpt>
      <trkpt lat="44.3144" lon="6.83644">
        <time>2023-04-10T08:47:01+00:00</time>
        <ele>2379.0</ele>
      </trkpt>
      <trkpt lat="44.3144" lon="6.83644">
        <time>2023-04-10T08:47:02+00:00</time>
        <ele>2379.0</ele>
      </trkpt>
      <trkpt lat="44.3144" lon="6.83644">
        <time>2023-04-10T08:47:03+00:00</time>
        <ele>2379.0</ele>
      </trkpt>
      <trkpt lat="44.3144" lon="6.83644">
        <time>2023-04-10T08:47:04+00:00</time>
        <ele>2379.0</ele>
      </trkpt>
      <trkpt lat="44.3144" lon="6.83644">
        <time>2023-04-10T08:47:05+00:00</time>
        <ele>2379.0</ele>
      </trkpt>
      <trkpt lat="44.3144" lon="6.83644">
        <time>2023-04-10T08:47:06+00:00</time>
        <ele>2379.0</ele>
      </trkpt>
      <trkpt lat="44.3144" lon="6.83644">
        <time>2023-04-10T08:47:07+00:00</time>
        <ele>2379.0</ele>
      </trkpt>
      <trkpt lat="44.3144" lon="6.83644">
        <time>2023-04-10T08:47:08+00:00</time>
        <ele>2379.0</ele>
      </trkpt>
      <trkpt lat="44.3144" lon="6.83644">
        <time>2023-04-10T08:47:09+00:00</time>
        <ele>2379.0</ele>
      </trkpt>
      <trkpt lat="44.3144" lon="6.83644">
        <time>2023-04-10T08:47:10+00:00</time>
        <ele>2379.0</ele>
      </trkpt>
      <trkpt lat="44.3144" lon="6.83644">
        <time>2023-04-10T08:47:11+00:00</time>
        <ele>2379.0</ele>
      </trkpt>
      <trkpt lat="44.3144" lon="6.83644">
        <time>2023-04-10T08:47:12+00:00</time>
        <ele>2379.0</ele>
      </trkpt>
      <trkpt lat="44.3144" lon="6.83644">
        <time>2023-04-10T08:47:13+00:00</time>
        <ele>2379.0</ele>
      </trkpt>
      <trkpt lat="44.3144" lon="6.83644">
        <time>2023-04-10T08:47:14+00:00</time>
        <ele>2379.0</ele>
      </trkpt>
      <trkpt lat="44.3144" lon="6.83644">
        <time>2023-04-10T08:47:15+00:00</time>
        <ele>2379.0</ele>
      </trkpt>
      <trkpt lat="44.3144" lon="6.83644">
        <time>2023-04-10T08:47:16+00:00</time>
        <ele>2379.0</ele>
      </trkpt>
      <trkpt lat="44.3144" lon="6.83644">
        <time>2023-04-10T08:47:17+00:00</time>
        <ele>2379.0</ele>
      </trkpt>
      <trkpt lat="44.3144" lon="6.83644">
        <time>2023-04-10T08:47:18+00:00</time>
        <ele>2379.0</ele>
      </trkpt>
      <trkpt lat="44.3144" lon="6.83644">
        <time>2023-04-10T08:47:19+00:00</time>
        <ele>2379.0</ele>
      </trkpt>
      <trkpt lat="44.3144" lon="6.83644">
        <time>2023-04-10T08:47:20+00:00</time>
        <ele>2379.0</ele>
      </trkpt>
      <trkpt lat="44.3144" lon="6.83644">
        <time>2023-04-10T08:47:21+00:00</time>
        <ele>2379.0</ele>
      </trkpt>
      <trkpt lat="44.3144" lon="6.83644">
        <time>2023-04-10T08:47:22+00:00</time>
        <ele>2379.0</ele>
      </trkpt>
      <trkpt lat="44.3144" lon="6.83644">
        <time>2023-04-10T08:47:23+00:00</time>
        <ele>2379.0</ele>
      </trkpt>
      <trkpt lat="44.3144" lon="6.83644">
        <time>2023-04-10T08:47:24+00:00</time>
        <ele>2379.0</ele>
      </trkpt>
      <trkpt lat="44.3144" lon="6.83644">
        <time>2023-04-10T08:47:25+00:00</time>
        <ele>2379.0</ele>
      </trkpt>
      <trkpt lat="44.3144" lon="6.83644">
        <time>2023-04-10T08:47:26+00:00</time>
        <ele>2379.0</ele>
      </trkpt>
      <trkpt lat="44.3144" lon="6.83644">
        <time>2023-04-10T08:47:27+00:00</time>
        <ele>2379.0</ele>
      </trkpt>
      <trkpt lat="44.3144" lon="6.83644">
        <time>2023-04-10T08:47:28+00:00</time>
        <ele>2379.0</ele>
      </trkpt>
      <trkpt lat="44.3144" lon="6.83644">
        <time>2023-04-10T08:47:29+00:00</time>
        <ele>2379.0</ele>
      </trkpt>
      <trkpt lat="44.3144" lon="6.83644">
        <time>2023-04-10T08:47:30+00:00</time>
        <ele>2379.0</ele>
      </trkpt>
      <trkpt lat="44.3144" lon="6.83644">
        <time>2023-04-10T08:47:31+00:00</time>
        <ele>2379.0</ele>
      </trkpt>
      <trkpt lat="44.3144" lon="6.83644">
        <time>2023-04-10T08:47:32+00:00</time>
        <ele>2379.0</ele>
      </trkpt>
      <trkpt lat="44.3144" lon="6.83644">
        <time>2023-04-10T08:47:33+00:00</time>
        <ele>2379.0</ele>
      </trkpt>
      <trkpt lat="44.3144" lon="6.83644">
        <time>2023-04-10T08:47:34+00:00</time>
        <ele>2379.0</ele>
      </trkpt>
      <trkpt lat="44.3144" lon="6.83644">
        <time>2023-04-10T08:47:35+00:00</time>
        <ele>2379.0</ele>
      </trkpt>
      <trkpt lat="44.3144" lon="6.83644">
        <time>2023-04-10T08:47:36+00:00</time>
        <ele>2379.0</ele>
      </trkpt>
      <trkpt lat="44.3144" lon="6.83644">
        <time>2023-04-10T08:47:37+00:00</time>
        <ele>2379.0</ele>
      </trkpt>
      <trkpt lat="44.3144" lon="6.83644">
        <time>2023-04-10T08:47:38+00:00</time>
        <ele>2379.0</ele>
      </trkpt>
      <trkpt lat="44.3144" lon="6.83644">
        <time>2023-04-10T08:47:39+00:00</time>
        <ele>2379.0</ele>
      </trkpt>
      <trkpt lat="44.3144" lon="6.83644">
        <time>2023-04-10T08:47:40+00:00</time>
        <ele>2379.0</ele>
      </trkpt>
      <trkpt lat="44.3144" lon="6.83644">
        <time>2023-04-10T08:47:41+00:00</time>
        <ele>2379.0</ele>
      </trkpt>
      <trkpt lat="44.3144" lon="6.83644">
        <time>2023-04-10T08:47:42+00:00</time>
        <ele>2379.0</ele>
      </trkpt>
      <trkpt lat="44.3144" lon="6.83644">
        <time>2023-04-10T08:47:43+00:00</time>
        <ele>2379.0</ele>
      </trkpt>
      <trkpt lat="44.3144" lon="6.83644">
        <time>2023-04-10T08:47:44+00:00</time>
        <ele>2379.0</ele>
      </trkpt>
      <trkpt lat="44.3144" lon="6.83644">
        <time>2023-04-10T08:47:45+00:00</time>
        <ele>2379.0</ele>
      </trkpt>
      <trkpt lat="44.3144" lon="6.83644">
        <time>2023-04-10T08:47:46+00:00</time>
        <ele>2379.0</ele>
      </trkpt>
      <trkpt lat="44.3144" lon="6.83644">
        <time>2023-04-10T08:47:47+00:00</time>
        <ele>2379.0</ele>
      </trkpt>
      <trkpt lat="44.3144" lon="6.83644">
        <time>2023-04-10T08:47:48+00:00</time>
        <ele>2379.0</ele>
      </trkpt>
      <trkpt lat="44.3144" lon="6.83644">
        <time>2023-04-10T08:47:49+00:00</time>
        <ele>2379.0</ele>
      </trkpt>
      <trkpt lat="44.3144" lon="6.83644">
        <time>2023-04-10T08:47:50+00:00</time>
        <ele>2379.0</ele>
      </trkpt>
      <trkpt lat="44.3144" lon="6.83644">
        <time>2023-04-10T08:47:51+00:00</time>
        <ele>2379.0</ele>
      </trkpt>
      <trkpt lat="44.3144" lon="6.83644">
        <time>2023-04-10T08:47:52+00:00</time>
        <ele>2379.0</ele>
      </trkpt>
      <trkpt lat="44.3144" lon="6.83644">
        <time>2023-04-10T08:47:53+00:00</time>
        <ele>2379.0</ele>
      </trkpt>
      <trkpt lat="44.3144" lon="6.83644">
        <time>2023-04-10T08:47:54+00:00</time>
        <ele>2379.0</ele>
      </trkpt>
      <trkpt lat="44.3144" lon="6.83644">
        <time>2023-04-10T08:47:55+00:00</time>
        <ele>2379.0</ele>
      </trkpt>
      <trkpt lat="44.3144" lon="6.83644">
        <time>2023-04-10T08:47:56+00:00</time>
        <ele>2379.0</ele>
      </trkpt>
      <trkpt lat="44.3144" lon="6.83644">
        <time>2023-04-10T08:47:57+00:00</time>
        <ele>2379.0</ele>
      </trkpt>
      <trkpt lat="44.3144" lon="6.83644">
        <time>2023-04-10T08:47:58+00:00</time>
        <ele>2379.0</ele>
      </trkpt>
      <trkpt lat="44.3144" lon="6.83644">
        <time>2023-04-10T08:47:59+00:00</time>
        <ele>2379.0</ele>
      </trkpt>
      <trkpt lat="44.3144" lon="6.83644">
        <time>2023-04-10T08:48:00+00:00</time>
        <ele>2379.0</ele>
      </trkpt>
      <trkpt lat="44.3144" lon="6.83644">
        <time>2023-04-10T08:48:01+00:00</time>
        <ele>2379.0</ele>
      </trkpt>
      <trkpt lat="44.3144" lon="6.83644">
        <time>2023-04-10T08:48:02+00:00</time>
        <ele>2379.0</ele>
      </trkpt>
      <trkpt lat="44.3144" lon="6.83644">
        <time>2023-04-10T08:48:03+00:00</time>
        <ele>2379.0</ele>
      </trkpt>
      <trkpt lat="44.3144" lon="6.83644">
        <time>2023-04-10T08:48:04+00:00</time>
        <ele>2379.0</ele>
      </trkpt>
      <trkpt lat="44.3144" lon="6.83644">
        <time>2023-04-10T08:48:05+00:00</time>
        <ele>2379.0</ele>
      </trkpt>
      <trkpt lat="44.3144" lon="6.83644">
        <time>2023-04-10T08:48:06+00:00</time>
        <ele>2379.0</ele>
      </trkpt>
      <trkpt lat="44.3144" lon="6.83644">
        <time>2023-04-10T08:48:07+00:00</time>
        <ele>2379.0</ele>
      </trkpt>
      <trkpt lat="44.31443" lon="6.8364">
        <time>2023-04-10T08:48:08+00:00</time>
        <ele>2379.0</ele>
      </trkpt>
      <trkpt lat="44.31445" lon="6.83638">
        <time>2023-04-10T08:48:09+00:00</time>
        <ele>2379.0</ele>
      </trkpt>
      <trkpt lat="44.31449" lon="6.83637">
        <time>2023-04-10T08:48:10+00:00</time>
        <ele>2379.0</ele>
      </trkpt>
      <trkpt lat="44.31454" lon="6.83636">
        <time>2023-04-10T08:48:11+00:00</time>
        <ele>2378.0</ele>
      </trkpt>
      <trkpt lat="44.31461" lon="6.83633">
        <time>2023-04-10T08:48:12+00:00</time>
        <ele>2377.0</ele>
      </trkpt>
      <trkpt lat="44.31468" lon="6.83631">
        <time>2023-04-10T08:48:13+00:00</time>
        <ele>2376.0</ele>
      </trkpt>
      <trkpt lat="44.31476" lon="6.8363">
        <time>2023-04-10T08:48:14+00:00</time>
        <ele>2373.0</ele>
      </trkpt>
      <trkpt lat="44.31484" lon="6.8363">
        <time>2023-04-10T08:48:15+00:00</time>
        <ele>2370.0</ele>
      </trkpt>
      <trkpt lat="44.31493" lon="6.8363">
        <time>2023-04-10T08:48:16+00:00</time>
        <ele>2367.0</ele>
      </trkpt>
      <trkpt lat="44.31501" lon="6.8363">
        <time>2023-04-10T08:48:17+00:00</time>
        <ele>2365.0</ele>
      </trkpt>
      <trkpt lat="44.3151" lon="6.83629">
        <time>2023-04-10T08:48:18+00:00</time>
        <ele>2363.0</ele>
      </trkpt>
      <trkpt lat="44.31519" lon="6.83629">
        <time>2023-04-10T08:48:19+00:00</time>
        <ele>2362.0</ele>
      </trkpt>
      <trkpt lat="44.31528" lon="6.83628">
        <time>2023-04-10T08:48:20+00:00</time>
        <ele>2360.0</ele>
      </trkpt>
      <trkpt lat="44.31537" lon="6.83627">
        <time>2023-04-10T08:48:21+00:00</time>
        <ele>2359.0</ele>
      </trkpt>
      <trkpt lat="44.31545" lon="6.83625">
        <time>2023-04-10T08:48:22+00:00</time>
        <ele>2358.0</ele>
      </trkpt>
      <trkpt lat="44.31551" lon="6.83625">
        <time>2023-04-10T08:48:23+00:00</time>
        <ele>2357.0</ele>
      </trkpt>
      <trkpt lat="44.3156" lon="6.83624">
        <time>2023-04-10T08:48:24+00:00</time>
        <ele>2356.0</ele>
      </trkpt>
      <trkpt lat="44.31567" lon="6.83622">
        <time>2023-04-10T08:48:25+00:00</time>
        <ele>2355.0</ele>
      </trkpt>
      <trkpt lat="44.31574" lon="6.8362">
        <time>2023-04-10T08:48:26+00:00</time>
        <ele>2354.0</ele>
      </trkpt>
      <trkpt lat="44.31578" lon="6.83615">
        <time>2023-04-10T08:48:27+00:00</time>
        <ele>2353.0</ele>
      </trkpt>
      <trkpt lat="44.31581" lon="6.83609">
        <time>2023-04-10T08:48:28+00:00</time>
        <ele>2352.0</ele>
      </trkpt>
      <trkpt lat="44.31583" lon="6.83601">
        <time>2023-04-10T08:48:29+00:00</time>
        <ele>2352.0</ele>
      </trkpt>
      <trkpt lat="44.31587" lon="6.83594">
        <time>2023-04-10T08:48:30+00:00</time>
        <ele>2350.0</ele>
      </trkpt>
      <trkpt lat="44.3159" lon="6.83591">
        <time>2023-04-10T08:48:31+00:00</time>
        <ele>2349.0</ele>
      </trkpt>
      <trkpt lat="44.31593" lon="6.8359">
        <time>2023-04-10T08:48:32+00:00</time>
        <ele>2348.0</ele>
      </trkpt>
      <trkpt lat="44.31593" lon="6.8359">
        <time>2023-04-10T08:48:33+00:00</time>
        <ele>2348.0</ele>
      </trkpt>
      <trkpt lat="44.31596" lon="6.8359">
        <time>2023-04-10T08:48:34+00:00</time>
        <ele>2347.0</ele>
      </trkpt>
      <trkpt lat="44.31596" lon="6.8359">
        <time>2023-04-10T08:48:35+00:00</time>
        <ele>2347.0</ele>
      </trkpt>
      <trkpt lat="44.31596" lon="6.8359">
        <time>2023-04-10T08:48:36+00:00</time>
        <ele>2347.0</ele>
      </trkpt>
      <trkpt lat="44.31596" lon="6.8359">
        <time>2023-04-10T08:48:37+00:00</time>
        <ele>2347.0</ele>
      </trkpt>
      <trkpt lat="44.31596" lon="6.8359">
        <time>2023-04-10T08:48:38+00:00</time>
        <ele>2347.0</ele>
      </trkpt>
      <trkpt lat="44.31596" lon="6.8359">
        <time>2023-04-10T08:48:39+00:00</time>
        <ele>2347.0</ele>
      </trkpt>
      <trkpt lat="44.31596" lon="6.8359">
        <time>2023-04-10T08:48:40+00:00</time>
        <ele>2347.0</ele>
      </trkpt>
      <trkpt lat="44.31596" lon="6.8359">
        <time>2023-04-10T08:48:41+00:00</time>
        <ele>2347.0</ele>
      </trkpt>
      <trkpt lat="44.31596" lon="6.8359">
        <time>2023-04-10T08:48:42+00:00</time>
        <ele>2347.0</ele>
      </trkpt>
      <trkpt lat="44.31596" lon="6.8359">
        <time>2023-04-10T08:48:43+00:00</time>
        <ele>2347.0</ele>
      </trkpt>
      <trkpt lat="44.31596" lon="6.8359">
        <time>2023-04-10T08:48:44+00:00</time>
        <ele>2347.0</ele>
      </trkpt>
      <trkpt lat="44.31596" lon="6.8359">
        <time>2023-04-10T08:48:45+00:00</time>
        <ele>2347.0</ele>
      </trkpt>
      <trkpt lat="44.31596" lon="6.8359">
        <time>2023-04-10T08:48:46+00:00</time>
        <ele>2347.0</ele>
      </trkpt>
      <trkpt lat="44.31596" lon="6.8359">
        <time>2023-04-10T08:48:47+00:00</time>
        <ele>2347.0</ele>
      </trkpt>
      <trkpt lat="44.31596" lon="6.8359">
        <time>2023-04-10T08:48:48+00:00</time>
        <ele>2347.0</ele>
      </trkpt>
      <trkpt lat="44.31596" lon="6.8359">
        <time>2023-04-10T08:48:49+00:00</time>
        <ele>2347.0</ele>
      </trkpt>
      <trkpt lat="44.31596" lon="6.8359">
        <time>2023-04-10T08:48:50+00:00</time>
        <ele>2347.0</ele>
      </trkpt>
      <trkpt lat="44.31596" lon="6.8359">
        <time>2023-04-10T08:48:51+00:00</time>
        <ele>2347.0</ele>
      </trkpt>
      <trkpt lat="44.31596" lon="6.8359">
        <time>2023-04-10T08:48:52+00:00</time>
        <ele>2347.0</ele>
      </trkpt>
      <trkpt lat="44.31597" lon="6.8359">
        <time>2023-04-10T08:48:53+00:00</time>
        <ele>2347.0</ele>
      </trkpt>
      <trkpt lat="44.31597" lon="6.8359">
        <time>2023-04-10T08:48:54+00:00</time>
        <ele>2347.0</ele>
      </trkpt>
      <trkpt lat="44.31597" lon="6.8359">
        <time>2023-04-10T08:48:55+00:00</time>
        <ele>2347.0</ele>
      </trkpt>
      <trkpt lat="44.31597" lon="6.8359">
        <time>2023-04-10T08:48:56+00:00</time>
        <ele>2347.0</ele>
      </trkpt>
      <trkpt lat="44.31597" lon="6.8359">
        <time>2023-04-10T08:48:57+00:00</time>
        <ele>2347.0</ele>
      </trkpt>
      <trkpt lat="44.31597" lon="6.8359">
        <time>2023-04-10T08:48:58+00:00</time>
        <ele>2347.0</ele>
      </trkpt>
      <trkpt lat="44.31597" lon="6.8359">
        <time>2023-04-10T08:48:59+00:00</time>
        <ele>2347.0</ele>
      </trkpt>
      <trkpt lat="44.31597" lon="6.8359">
        <time>2023-04-10T08:49:00+00:00</time>
        <ele>2347.0</ele>
      </trkpt>
      <trkpt lat="44.31597" lon="6.83591">
        <time>2023-04-10T08:49:01+00:00</time>
        <ele>2347.0</ele>
      </trkpt>
      <trkpt lat="44.31597" lon="6.83591">
        <time>2023-04-10T08:49:02+00:00</time>
        <ele>2347.0</ele>
      </trkpt>
      <trkpt lat="44.31597" lon="6.83591">
        <time>2023-04-10T08:49:03+00:00</time>
        <ele>2347.0</ele>
      </trkpt>
      <trkpt lat="44.31597" lon="6.83591">
        <time>2023-04-10T08:49:04+00:00</time>
        <ele>2347.0</ele>
      </trkpt>
      <trkpt lat="44.31597" lon="6.83591">
        <time>2023-04-10T08:49:05+00:00</time>
        <ele>2347.0</ele>
      </trkpt>
      <trkpt lat="44.31597" lon="6.83591">
        <time>2023-04-10T08:49:06+00:00</time>
        <ele>2347.0</ele>
      </trkpt>
      <trkpt lat="44.31597" lon="6.83591">
        <time>2023-04-10T08:49:07+00:00</time>
        <ele>2347.0</ele>
      </trkpt>
      <trkpt lat="44.31597" lon="6.83591">
        <time>2023-04-10T08:49:08+00:00</time>
        <ele>2347.0</ele>
      </trkpt>
      <trkpt lat="44.31597" lon="6.83591">
        <time>2023-04-10T08:49:09+00:00</time>
        <ele>2347.0</ele>
      </trkpt>
      <trkpt lat="44.31597" lon="6.83591">
        <time>2023-04-10T08:49:10+00:00</time>
        <ele>2347.0</ele>
      </trkpt>
      <trkpt lat="44.31597" lon="6.83591">
        <time>2023-04-10T08:49:11+00:00</time>
        <ele>2347.0</ele>
      </trkpt>
      <trkpt lat="44.31597" lon="6.83591">
        <time>2023-04-10T08:49:12+00:00</time>
        <ele>2347.0</ele>
      </trkpt>
      <trkpt lat="44.31597" lon="6.83591">
        <time>2023-04-10T08:49:13+00:00</time>
        <ele>2347.0</ele>
      </trkpt>
      <trkpt lat="44.31602" lon="6.83589">
        <time>2023-04-10T08:49:14+00:00</time>
        <ele>2345.0</ele>
      </trkpt>
      <trkpt lat="44.31605" lon="6.83588">
        <time>2023-04-10T08:49:15+00:00</time>
        <ele>2344.0</ele>
      </trkpt>
      <trkpt lat="44.31609" lon="6.83585">
        <time>2023-04-10T08:49:16+00:00</time>
        <ele>2343.0</ele>
      </trkpt>
      <trkpt lat="44.31611" lon="6.83582">
        <time>2023-04-10T08:49:17+00:00</time>
        <ele>2342.0</ele>
      </trkpt>
      <trkpt lat="44.31611" lon="6.83577">
        <time>2023-04-10T08:49:18+00:00</time>
        <ele>2342.0</ele>
      </trkpt>
      <trkpt lat="44.31612" lon="6.83572">
        <time>2023-04-10T08:49:19+00:00</time>
        <ele>2340.0</ele>
      </trkpt>
      <trkpt lat="44.31615" lon="6.83567">
        <time>2023-04-10T08:49:20+00:00</time>
        <ele>2338.0</ele>
      </trkpt>
      <trkpt lat="44.31617" lon="6.83562">
        <time>2023-04-10T08:49:21+00:00</time>
        <ele>2337.0</ele>
      </trkpt>
      <trkpt lat="44.31618" lon="6.83555">
        <time>2023-04-10T08:49:22+00:00</time>
        <ele>2335.0</ele>
      </trkpt>
      <trkpt lat="44.31617" lon="6.83549">
        <time>2023-04-10T08:49:23+00:00</time>
        <ele>2334.0</ele>
      </trkpt>
      <trkpt lat="44.31619" lon="6.83541">
        <time>2023-04-10T08:49:24+00:00</time>
        <ele>2331.0</ele>
      </trkpt>
      <trkpt lat="44.31621" lon="6.83539">
        <time>2023-04-10T08:49:25+00:00</time>
        <ele>2330.0</ele>
      </trkpt>
      <trkpt lat="44.31624" lon="6.8354">
        <time>2023-04-10T08:49:26+00:00</time>
        <ele>2329.0</ele>
      </trkpt>
      <trkpt lat="44.31627" lon="6.83543">
        <time>2023-04-10T08:49:27+00:00</time>
        <ele>2329.0</ele>
      </trkpt>
      <trkpt lat="44.3163" lon="6.83545">
        <time>2023-04-10T08:49:28+00:00</time>
        <ele>2328.0</ele>
      </trkpt>
      <trkpt lat="44.31632" lon="6.83546">
        <time>2023-04-10T08:49:29+00:00</time>
        <ele>2327.0</ele>
      </trkpt>
      <trkpt lat="44.31632" lon="6.83546">
        <time>2023-04-10T08:49:30+00:00</time>
        <ele>2327.0</ele>
      </trkpt>
      <trkpt lat="44.31635" lon="6.83544">
        <time>2023-04-10T08:49:31+00:00</time>
        <ele>2326.0</ele>
      </trkpt>
      <trkpt lat="44.31635" lon="6.83544">
        <time>2023-04-10T08:49:32+00:00</time>
        <ele>2326.0</ele>
      </trkpt>
      <trkpt lat="44.31636" lon="6.83539">
        <time>2023-04-10T08:49:33+00:00</time>
        <ele>2324.0</ele>
      </trkpt>
      <trkpt lat="44.31634" lon="6.83534">
        <time>2023-04-10T08:49:34+00:00</time>
        <ele>2324.0</ele>
      </trkpt>
      <trkpt lat="44.31633" lon="6.8353">
        <time>2023-04-10T08:49:35+00:00</time>
        <ele>2323.0</ele>
      </trkpt>
      <trkpt lat="44.31633" lon="6.8353">
        <time>2023-04-10T08:49:36+00:00</time>
        <ele>2323.0</ele>
      </trkpt>
      <trkpt lat="44.31631" lon="6.83528">
        <time>2023-04-10T08:49:37+00:00</time>
        <ele>2324.0</ele>
      </trkpt>
      <trkpt lat="44.31631" lon="6.83528">
        <time>2023-04-10T08:49:38+00:00</time>
        <ele>2324.0</ele>
      </trkpt>
      <trkpt lat="44.31631" lon="6.83528">
        <time>2023-04-10T08:49:39+00:00</time>
        <ele>2324.0</ele>
      </trkpt>
      <trkpt lat="44.31631" lon="6.83528">
        <time>2023-04-10T08:49:40+00:00</time>
        <ele>2324.0</ele>
      </trkpt>
      <trkpt lat="44.31629" lon="6.83527">
        <time>2023-04-10T08:49:41+00:00</time>
        <ele>2324.0</ele>
      </trkpt>
      <trkpt lat="44.31627" lon="6.83525">
        <time>2023-04-10T08:49:42+00:00</time>
        <ele>2325.0</ele>
      </trkpt>
      <trkpt lat="44.31625" lon="6.83522">
        <time>2023-04-10T08:49:43+00:00</time>
        <ele>2325.0</ele>
      </trkpt>
      <trkpt lat="44.31624" lon="6.8352">
        <time>2023-04-10T08:49:44+00:00</time>
        <ele>2325.0</ele>
      </trkpt>
      <trkpt lat="44.31624" lon="6.8352">
        <time>2023-04-10T08:49:45+00:00</time>
        <ele>2325.0</ele>
      </trkpt>
      <trkpt lat="44.31624" lon="6.8352">
        <time>2023-04-10T08:49:46+00:00</time>
        <ele>2325.0</ele>
      </trkpt>
      <trkpt lat="44.31624" lon="6.8352">
        <time>2023-04-10T08:49:47+00:00</time>
        <ele>2325.0</ele>
      </trkpt>
      <trkpt lat="44.31624" lon="6.8352">
        <time>2023-04-10T08:49:48+00:00</time>
        <ele>2325.0</ele>
      </trkpt>
      <trkpt lat="44.31624" lon="6.8352">
        <time>2023-04-10T08:49:49+00:00</time>
        <ele>2325.0</ele>
      </trkpt>
      <trkpt lat="44.31624" lon="6.8352">
        <time>2023-04-10T08:49:50+00:00</time>
        <ele>2325.0</ele>
      </trkpt>
      <trkpt lat="44.31624" lon="6.8352">
        <time>2023-04-10T08:49:51+00:00</time>
        <ele>2325.0</ele>
      </trkpt>
      <trkpt lat="44.31624" lon="6.8352">
        <time>2023-04-10T08:49:52+00:00</time>
        <ele>2325.0</ele>
      </trkpt>
      <trkpt lat="44.31624" lon="6.8352">
        <time>2023-04-10T08:49:53+00:00</time>
        <ele>2325.0</ele>
      </trkpt>
      <trkpt lat="44.31624" lon="6.8352">
        <time>2023-04-10T08:49:54+00:00</time>
        <ele>2325.0</ele>
      </trkpt>
      <trkpt lat="44.31624" lon="6.8352">
        <time>2023-04-10T08:49:55+00:00</time>
        <ele>2325.0</ele>
      </trkpt>
      <trkpt lat="44.31624" lon="6.8352">
        <time>2023-04-10T08:49:56+00:00</time>
        <ele>2325.0</ele>
      </trkpt>
      <trkpt lat="44.31624" lon="6.8352">
        <time>2023-04-10T08:49:57+00:00</time>
        <ele>2325.0</ele>
      </trkpt>
      <trkpt lat="44.31624" lon="6.8352">
        <time>2023-04-10T08:49:58+00:00</time>
        <ele>2325.0</ele>
      </trkpt>
      <trkpt lat="44.31624" lon="6.8352">
        <time>2023-04-10T08:49:59+00:00</time>
        <ele>2325.0</ele>
      </trkpt>
      <trkpt lat="44.31624" lon="6.8352">
        <time>2023-04-10T08:50:02+00:00</time>
        <ele>2325.0</ele>
      </trkpt>
      <trkpt lat="44.31624" lon="6.8352">
        <time>2023-04-10T08:50:03+00:00</time>
        <ele>2325.0</ele>
      </trkpt>
      <trkpt lat="44.31624" lon="6.8352">
        <time>2023-04-10T08:50:04+00:00</time>
        <ele>2325.0</ele>
      </trkpt>
      <trkpt lat="44.31624" lon="6.8352">
        <time>2023-04-10T08:50:05+00:00</time>
        <ele>2325.0</ele>
      </trkpt>
      <trkpt lat="44.31624" lon="6.8352">
        <time>2023-04-10T08:50:06+00:00</time>
        <ele>2325.0</ele>
      </trkpt>
      <trkpt lat="44.31624" lon="6.8352">
        <time>2023-04-10T08:50:07+00:00</time>
        <ele>2325.0</ele>
      </trkpt>
      <trkpt lat="44.31624" lon="6.8352">
        <time>2023-04-10T08:50:08+00:00</time>
        <ele>2325.0</ele>
      </trkpt>
      <trkpt lat="44.31624" lon="6.8352">
        <time>2023-04-10T08:50:09+00:00</time>
        <ele>2325.0</ele>
      </trkpt>
      <trkpt lat="44.31624" lon="6.8352">
        <time>2023-04-10T08:50:10+00:00</time>
        <ele>2325.0</ele>
      </trkpt>
      <trkpt lat="44.31624" lon="6.8352">
        <time>2023-04-10T08:50:11+00:00</time>
        <ele>2325.0</ele>
      </trkpt>
      <trkpt lat="44.31624" lon="6.8352">
        <time>2023-04-10T08:50:12+00:00</time>
        <ele>2325.0</ele>
      </trkpt>
      <trkpt lat="44.31624" lon="6.8352">
        <time>2023-04-10T08:50:13+00:00</time>
        <ele>2325.0</ele>
      </trkpt>
      <trkpt lat="44.31624" lon="6.8352">
        <time>2023-04-10T08:50:14+00:00</time>
        <ele>2325.0</ele>
      </trkpt>
      <trkpt lat="44.31624" lon="6.8352">
        <time>2023-04-10T08:50:15+00:00</time>
        <ele>2325.0</ele>
      </trkpt>
      <trkpt lat="44.31624" lon="6.8352">
        <time>2023-04-10T08:50:16+00:00</time>
        <ele>2325.0</ele>
      </trkpt>
      <trkpt lat="44.31624" lon="6.8352">
        <time>2023-04-10T08:50:17+00:00</time>
        <ele>2325.0</ele>
      </trkpt>
      <trkpt lat="44.31624" lon="6.8352">
        <time>2023-04-10T08:50:18+00:00</time>
        <ele>2325.0</ele>
      </trkpt>
      <trkpt lat="44.31624" lon="6.8352">
        <time>2023-04-10T08:50:19+00:00</time>
        <ele>2325.0</ele>
      </trkpt>
      <trkpt lat="44.31624" lon="6.8352">
        <time>2023-04-10T08:50:20+00:00</time>
        <ele>2325.0</ele>
      </trkpt>
      <trkpt lat="44.31624" lon="6.8352">
        <time>2023-04-10T08:50:21+00:00</time>
        <ele>2325.0</ele>
      </trkpt>
      <trkpt lat="44.31625" lon="6.83518">
        <time>2023-04-10T08:50:22+00:00</time>
        <ele>2324.0</ele>
      </trkpt>
      <trkpt lat="44.31634" lon="6.83516">
        <time>2023-04-10T08:50:23+00:00</time>
        <ele>2320.0</ele>
      </trkpt>
      <trkpt lat="44.31639" lon="6.83516">
        <time>2023-04-10T08:50:24+00:00</time>
        <ele>2318.0</ele>
      </trkpt>
      <trkpt lat="44.31644" lon="6.83515">
        <time>2023-04-10T08:50:25+00:00</time>
        <ele>2316.0</ele>
      </trkpt>
      <trkpt lat="44.31653" lon="6.83513">
        <time>2023-04-10T08:50:26+00:00</time>
        <ele>2313.0</ele>
      </trkpt>
      <trkpt lat="44.31662" lon="6.8351">
        <time>2023-04-10T08:50:27+00:00</time>
        <ele>2310.0</ele>
      </trkpt>
      <trkpt lat="44.31673" lon="6.83505">
        <time>2023-04-10T08:50:28+00:00</time>
        <ele>2308.0</ele>
      </trkpt>
      <trkpt lat="44.31683" lon="6.83498">
        <time>2023-04-10T08:50:29+00:00</time>
        <ele>2305.0</ele>
      </trkpt>
      <trkpt lat="44.31693" lon="6.83491">
        <time>2023-04-10T08:50:30+00:00</time>
        <ele>2304.0</ele>
      </trkpt>
      <trkpt lat="44.31703" lon="6.83484">
        <time>2023-04-10T08:50:31+00:00</time>
        <ele>2302.0</ele>
      </trkpt>
      <trkpt lat="44.31712" lon="6.83476">
        <time>2023-04-10T08:50:32+00:00</time>
        <ele>2301.0</ele>
      </trkpt>
      <trkpt lat="44.3172" lon="6.83469">
        <time>2023-04-10T08:50:33+00:00</time>
        <ele>2299.0</ele>
      </trkpt>
      <trkpt lat="44.3173" lon="6.8346">
        <time>2023-04-10T08:50:34+00:00</time>
        <ele>2298.0</ele>
      </trkpt>
      <trkpt lat="44.31738" lon="6.83453">
        <time>2023-04-10T08:50:35+00:00</time>
        <ele>2297.0</ele>
      </trkpt>
      <trkpt lat="44.31745" lon="6.83446">
        <time>2023-04-10T08:50:36+00:00</time>
        <ele>2296.0</ele>
      </trkpt>
      <trkpt lat="44.31753" lon="6.8344">
        <time>2023-04-10T08:50:37+00:00</time>
        <ele>2294.0</ele>
      </trkpt>
      <trkpt lat="44.3176" lon="6.83436">
        <time>2023-04-10T08:50:38+00:00</time>
        <ele>2293.0</ele>
      </trkpt>
      <trkpt lat="44.31766" lon="6.83433">
        <time>2023-04-10T08:50:39+00:00</time>
        <ele>2293.0</ele>
      </trkpt>
      <trkpt lat="44.31772" lon="6.83429">
        <time>2023-04-10T08:50:40+00:00</time>
        <ele>2293.0</ele>
      </trkpt>
      <trkpt lat="44.31776" lon="6.83427">
        <time>2023-04-10T08:50:41+00:00</time>
        <ele>2293.0</ele>
      </trkpt>
      <trkpt lat="44.31781" lon="6.83424">
        <time>2023-04-10T08:50:42+00:00</time>
        <ele>2292.0</ele>
      </trkpt>
      <trkpt lat="44.31785" lon="6.83422">
        <time>2023-04-10T08:50:43+00:00</time>
        <ele>2292.0</ele>
      </trkpt>
      <trkpt lat="44.31789" lon="6.8342">
        <time>2023-04-10T08:50:44+00:00</time>
        <ele>2292.0</ele>
      </trkpt>
      <trkpt lat="44.31792" lon="6.83418">
        <time>2023-04-10T08:50:45+00:00</time>
        <ele>2292.0</ele>
      </trkpt>
      <trkpt lat="44.31796" lon="6.83416">
        <time>2023-04-10T08:50:46+00:00</time>
        <ele>2292.0</ele>
      </trkpt>
      <trkpt lat="44.318" lon="6.83414">
        <time>2023-04-10T08:50:47+00:00</time>
        <ele>2291.0</ele>
      </trkpt>
      <trkpt lat="44.31804" lon="6.83412">
        <time>2023-04-10T08:50:48+00:00</time>
        <ele>2291.0</ele>
      </trkpt>
      <trkpt lat="44.31807" lon="6.8341">
        <time>2023-04-10T08:50:49+00:00</time>
        <ele>2291.0</ele>
      </trkpt>
      <trkpt lat="44.31811" lon="6.83407">
        <time>2023-04-10T08:50:50+00:00</time>
        <ele>2291.0</ele>
      </trkpt>
      <trkpt lat="44.31814" lon="6.83404">
        <time>2023-04-10T08:50:51+00:00</time>
        <ele>2291.0</ele>
      </trkpt>
      <trkpt lat="44.31817" lon="6.83402">
        <time>2023-04-10T08:50:52+00:00</time>
        <ele>2290.0</ele>
      </trkpt>
      <trkpt lat="44.31821" lon="6.83399">
        <time>2023-04-10T08:50:53+00:00</time>
        <ele>2290.0</ele>
      </trkpt>
      <trkpt lat="44.31824" lon="6.83397">
        <time>2023-04-10T08:50:54+00:00</time>
        <ele>2290.0</ele>
      </trkpt>
      <trkpt lat="44.31828" lon="6.83394">
        <time>2023-04-10T08:50:55+00:00</time>
        <ele>2289.0</ele>
      </trkpt>
      <trkpt lat="44.31831" lon="6.83391">
        <time>2023-04-10T08:50:56+00:00</time>
        <ele>2289.0</ele>
      </trkpt>
      <trkpt lat="44.31835" lon="6.83388">
        <time>2023-04-10T08:50:57+00:00</time>
        <ele>2289.0</ele>
      </trkpt>
      <trkpt lat="44.31838" lon="6.83386">
        <time>2023-04-10T08:50:58+00:00</time>
        <ele>2288.0</ele>
      </trkpt>
      <trkpt lat="44.31841" lon="6.83384">
        <time>2023-04-10T08:50:59+00:00</time>
        <ele>2288.0</ele>
      </trkpt>
      <trkpt lat="44.31845" lon="6.83381">
        <time>2023-04-10T08:51:00+00:00</time>
        <ele>2287.0</ele>
      </trkpt>
      <trkpt lat="44.31848" lon="6.83379">
        <time>2023-04-10T08:51:01+00:00</time>
        <ele>2287.0</ele>
      </trkpt>
      <trkpt lat="44.31852" lon="6.83376">
        <time>2023-04-10T08:51:02+00:00</time>
        <ele>2287.0</ele>
      </trkpt>
      <trkpt lat="44.31853" lon="6.83376">
        <time>2023-04-10T08:51:03+00:00</time>
        <ele>2287.0</ele>
      </trkpt>
      <trkpt lat="44.31853" lon="6.83376">
        <time>2023-04-10T08:51:04+00:00</time>
        <ele>2287.0</ele>
      </trkpt>
      <trkpt lat="44.31854" lon="6.83375">
        <time>2023-04-10T08:51:05+00:00</time>
        <ele>2287.0</ele>
      </trkpt>
      <trkpt lat="44.31854" lon="6.83375">
        <time>2023-04-10T08:51:06+00:00</time>
        <ele>2287.0</ele>
      </trkpt>
      <trkpt lat="44.31855" lon="6.83375">
        <time>2023-04-10T08:51:07+00:00</time>
        <ele>2286.0</ele>
      </trkpt>
      <trkpt lat="44.31855" lon="6.83374">
        <time>2023-04-10T08:51:08+00:00</time>
        <ele>2287.0</ele>
      </trkpt>
      <trkpt lat="44.31856" lon="6.83374">
        <time>2023-04-10T08:51:09+00:00</time>
        <ele>2286.0</ele>
      </trkpt>
      <trkpt lat="44.31856" lon="6.83374">
        <time>2023-04-10T08:51:10+00:00</time>
        <ele>2286.0</ele>
      </trkpt>
      <trkpt lat="44.31857" lon="6.83373">
        <time>2023-04-10T08:51:11+00:00</time>
        <ele>2286.0</ele>
      </trkpt>
      <trkpt lat="44.31857" lon="6.83373">
        <time>2023-04-10T08:51:12+00:00</time>
        <ele>2286.0</ele>
      </trkpt>
      <trkpt lat="44.31858" lon="6.83373">
        <time>2023-04-10T08:51:13+00:00</time>
        <ele>2286.0</ele>
      </trkpt>
      <trkpt lat="44.31858" lon="6.83372">
        <time>2023-04-10T08:51:14+00:00</time>
        <ele>2286.0</ele>
      </trkpt>
      <trkpt lat="44.31859" lon="6.83372">
        <time>2023-04-10T08:51:15+00:00</time>
        <ele>2286.0</ele>
      </trkpt>
      <trkpt lat="44.31859" lon="6.83372">
        <time>2023-04-10T08:51:16+00:00</time>
        <ele>2286.0</ele>
      </trkpt>
      <trkpt lat="44.3186" lon="6.83371">
        <time>2023-04-10T08:51:17+00:00</time>
        <ele>2286.0</ele>
      </trkpt>
      <trkpt lat="44.3186" lon="6.83371">
        <time>2023-04-10T08:51:18+00:00</time>
        <ele>2286.0</ele>
      </trkpt>
      <trkpt lat="44.31861" lon="6.83371">
        <time>2023-04-10T08:51:19+00:00</time>
        <ele>2285.0</ele>
      </trkpt>
      <trkpt lat="44.31861" lon="6.8337">
        <time>2023-04-10T08:51:20+00:00</time>
        <ele>2286.0</ele>
      </trkpt>
      <trkpt lat="44.31862" lon="6.8337">
        <time>2023-04-10T08:51:21+00:00</time>
        <ele>2285.0</ele>
      </trkpt>
      <trkpt lat="44.31862" lon="6.8337">
        <time>2023-04-10T08:51:22+00:00</time>
        <ele>2285.0</ele>
      </trkpt>
      <trkpt lat="44.31863" lon="6.83369">
        <time>2023-04-10T08:51:23+00:00</time>
        <ele>2285.0</ele>
      </trkpt>
      <trkpt lat="44.31863" lon="6.83369">
        <time>2023-04-10T08:51:24+00:00</time>
        <ele>2285.0</ele>
      </trkpt>
      <trkpt lat="44.31864" lon="6.83369">
        <time>2023-04-10T08:51:25+00:00</time>
        <ele>2285.0</ele>
      </trkpt>
      <trkpt lat="44.31864" lon="6.83368">
        <time>2023-04-10T08:51:26+00:00</time>
        <ele>2285.0</ele>
      </trkpt>
      <trkpt lat="44.31865" lon="6.83368">
        <time>2023-04-10T08:51:27+00:00</time>
        <ele>2285.0</ele>
      </trkpt>
      <trkpt lat="44.31865" lon="6.83368">
        <time>2023-04-10T08:51:28+00:00</time>
        <ele>2285.0</ele>
      </trkpt>
      <trkpt lat="44.31866" lon="6.83368">
        <time>2023-04-10T08:51:29+00:00</time>
        <ele>2285.0</ele>
      </trkpt>
      <trkpt lat="44.31866" lon="6.83367">
        <time>2023-04-10T08:51:30+00:00</time>
        <ele>2285.0</ele>
      </trkpt>
      <trkpt lat="44.31867" lon="6.83367">
        <time>2023-04-10T08:51:31+00:00</time>
        <ele>2285.0</ele>
      </trkpt>
      <trkpt lat="44.31867" lon="6.83367">
        <time>2023-04-10T08:51:32+00:00</time>
        <ele>2285.0</ele>
      </trkpt>
      <trkpt lat="44.31868" lon="6.83366">
        <time>2023-04-10T08:51:33+00:00</time>
        <ele>2284.0</ele>
      </trkpt>
      <trkpt lat="44.31868" lon="6.83366">
        <time>2023-04-10T08:51:34+00:00</time>
        <ele>2284.0</ele>
      </trkpt>
      <trkpt lat="44.31868" lon="6.83366">
        <time>2023-04-10T08:51:35+00:00</time>
        <ele>2284.0</ele>
      </trkpt>
      <trkpt lat="44.31868" lon="6.83366">
        <time>2023-04-10T08:51:36+00:00</time>
        <ele>2284.0</ele>
      </trkpt>
      <trkpt lat="44.31868" lon="6.83366">
        <time>2023-04-10T08:51:37+00:00</time>
        <ele>2284.0</ele>
      </trkpt>
      <trkpt lat="44.31868" lon="6.83366">
        <time>2023-04-10T08:51:38+00:00</time>
        <ele>2284.0</ele>
      </trkpt>
      <trkpt lat="44.31868" lon="6.83366">
        <time>2023-04-10T08:51:39+00:00</time>
        <ele>2284.0</ele>
      </trkpt>
      <trkpt lat="44.3187" lon="6.83359">
        <time>2023-04-10T08:51:40+00:00</time>
        <ele>2285.0</ele>
      </trkpt>
      <trkpt lat="44.31873" lon="6.83351">
        <time>2023-04-10T08:51:41+00:00</time>
        <ele>2284.0</ele>
      </trkpt>
      <trkpt lat="44.31877" lon="6.83343">
        <time>2023-04-10T08:51:42+00:00</time>
        <ele>2283.0</ele>
      </trkpt>
      <trkpt lat="44.31883" lon="6.83335">
        <time>2023-04-10T08:51:43+00:00</time>
        <ele>2281.0</ele>
      </trkpt>
      <trkpt lat="44.31888" lon="6.83328">
        <time>2023-04-10T08:51:44+00:00</time>
        <ele>2280.0</ele>
      </trkpt>
      <trkpt lat="44.31894" lon="6.83318">
        <time>2023-04-10T08:51:45+00:00</time>
        <ele>2280.0</ele>
      </trkpt>
      <trkpt lat="44.31896" lon="6.83315">
        <time>2023-04-10T08:51:46+00:00</time>
        <ele>2279.0</ele>
      </trkpt>
      <trkpt lat="44.319" lon="6.83309">
        <time>2023-04-10T08:51:47+00:00</time>
        <ele>2279.0</ele>
      </trkpt>
      <trkpt lat="44.31904" lon="6.83303">
        <time>2023-04-10T08:51:48+00:00</time>
        <ele>2278.0</ele>
      </trkpt>
      <trkpt lat="44.31907" lon="6.83296">
        <time>2023-04-10T08:51:49+00:00</time>
        <ele>2278.0</ele>
      </trkpt>
      <trkpt lat="44.31911" lon="6.8329">
        <time>2023-04-10T08:51:50+00:00</time>
        <ele>2277.0</ele>
      </trkpt>
      <trkpt lat="44.31916" lon="6.83286">
        <time>2023-04-10T08:51:51+00:00</time>
        <ele>2276.0</ele>
      </trkpt>
      <trkpt lat="44.31921" lon="6.83282">
        <time>2023-04-10T08:51:52+00:00</time>
        <ele>2274.0</ele>
      </trkpt>
      <trkpt lat="44.31925" lon="6.8328">
        <time>2023-04-10T08:51:53+00:00</time>
        <ele>2273.0</ele>
      </trkpt>
      <trkpt lat="44.31932" lon="6.8328">
        <time>2023-04-10T08:51:54+00:00</time>
        <ele>2271.0</ele>
      </trkpt>
      <trkpt lat="44.31938" lon="6.83283">
        <time>2023-04-10T08:51:55+00:00</time>
        <ele>2268.0</ele>
      </trkpt>
      <trkpt lat="44.31945" lon="6.83285">
        <time>2023-04-10T08:51:56+00:00</time>
        <ele>2265.0</ele>
      </trkpt>
      <trkpt lat="44.31951" lon="6.83289">
        <time>2023-04-10T08:51:57+00:00</time>
        <ele>2262.0</ele>
      </trkpt>
      <trkpt lat="44.31958" lon="6.83293">
        <time>2023-04-10T08:51:58+00:00</time>
        <ele>2259.0</ele>
      </trkpt>
      <trkpt lat="44.31963" lon="6.83296">
        <time>2023-04-10T08:51:59+00:00</time>
        <ele>2258.0</ele>
      </trkpt>
      <trkpt lat="44.3197" lon="6.83301">
        <time>2023-04-10T08:52:00+00:00</time>
        <ele>2255.0</ele>
      </trkpt>
      <trkpt lat="44.31977" lon="6.83303">
        <time>2023-04-10T08:52:01+00:00</time>
        <ele>2253.0</ele>
      </trkpt>
      <trkpt lat="44.31983" lon="6.83307">
        <time>2023-04-10T08:52:02+00:00</time>
        <ele>2251.0</ele>
      </trkpt>
      <trkpt lat="44.31988" lon="6.83313">
        <time>2023-04-10T08:52:03+00:00</time>
        <ele>2249.0</ele>
      </trkpt>
      <trkpt lat="44.31992" lon="6.83318">
        <time>2023-04-10T08:52:04+00:00</time>
        <ele>2247.0</ele>
      </trkpt>
      <trkpt lat="44.31995" lon="6.8332">
        <time>2023-04-10T08:52:05+00:00</time>
        <ele>2246.0</ele>
      </trkpt>
      <trkpt lat="44.31997" lon="6.8332">
        <time>2023-04-10T08:52:06+00:00</time>
        <ele>2245.0</ele>
      </trkpt>
      <trkpt lat="44.31997" lon="6.8332">
        <time>2023-04-10T08:52:07+00:00</time>
        <ele>2245.0</ele>
      </trkpt>
      <trkpt lat="44.31997" lon="6.8332">
        <time>2023-04-10T08:52:08+00:00</time>
        <ele>2245.0</ele>
      </trkpt>
      <trkpt lat="44.31997" lon="6.8332">
        <time>2023-04-10T08:52:09+00:00</time>
        <ele>2245.0</ele>
      </trkpt>
      <trkpt lat="44.31997" lon="6.8332">
        <time>2023-04-10T08:52:10+00:00</time>
        <ele>2245.0</ele>
      </trkpt>
      <trkpt lat="44.31997" lon="6.8332">
        <time>2023-04-10T08:52:11+00:00</time>
        <ele>2245.0</ele>
      </trkpt>
      <trkpt lat="44.31997" lon="6.8332">
        <time>2023-04-10T08:52:12+00:00</time>
        <ele>2245.0</ele>
      </trkpt>
      <trkpt lat="44.31997" lon="6.8332">
        <time>2023-04-10T08:52:13+00:00</time>
        <ele>2245.0</ele>
      </trkpt>
      <trkpt lat="44.31997" lon="6.8332">
        <time>2023-04-10T08:52:14+00:00</time>
        <ele>2245.0</ele>
      </trkpt>
      <trkpt lat="44.31997" lon="6.8332">
        <time>2023-04-10T08:52:15+00:00</time>
        <ele>2245.0</ele>
      </trkpt>
      <trkpt lat="44.31997" lon="6.8332">
        <time>2023-04-10T08:52:16+00:00</time>
        <ele>2245.0</ele>
      </trkpt>
      <trkpt lat="44.31997" lon="6.8332">
        <time>2023-04-10T08:52:17+00:00</time>
        <ele>2245.0</ele>
      </trkpt>
      <trkpt lat="44.31997" lon="6.8332">
        <time>2023-04-10T08:52:18+00:00</time>
        <ele>2245.0</ele>
      </trkpt>
      <trkpt lat="44.31997" lon="6.8332">
        <time>2023-04-10T08:52:19+00:00</time>
        <ele>2245.0</ele>
      </trkpt>
      <trkpt lat="44.31997" lon="6.8332">
        <time>2023-04-10T08:52:20+00:00</time>
        <ele>2245.0</ele>
      </trkpt>
      <trkpt lat="44.31997" lon="6.8332">
        <time>2023-04-10T08:52:21+00:00</time>
        <ele>2245.0</ele>
      </trkpt>
      <trkpt lat="44.31997" lon="6.8332">
        <time>2023-04-10T08:52:22+00:00</time>
        <ele>2245.0</ele>
      </trkpt>
      <trkpt lat="44.31997" lon="6.8332">
        <time>2023-04-10T08:52:23+00:00</time>
        <ele>2245.0</ele>
      </trkpt>
      <trkpt lat="44.31997" lon="6.8332">
        <time>2023-04-10T08:52:24+00:00</time>
        <ele>2245.0</ele>
      </trkpt>
      <trkpt lat="44.31997" lon="6.8332">
        <time>2023-04-10T08:52:25+00:00</time>
        <ele>2245.0</ele>
      </trkpt>
      <trkpt lat="44.31997" lon="6.8332">
        <time>2023-04-10T08:52:26+00:00</time>
        <ele>2245.0</ele>
      </trkpt>
      <trkpt lat="44.31997" lon="6.8332">
        <time>2023-04-10T08:52:27+00:00</time>
        <ele>2245.0</ele>
      </trkpt>
      <trkpt lat="44.31997" lon="6.8332">
        <time>2023-04-10T08:52:28+00:00</time>
        <ele>2245.0</ele>
      </trkpt>
      <trkpt lat="44.31997" lon="6.8332">
        <time>2023-04-10T08:52:29+00:00</time>
        <ele>2245.0</ele>
      </trkpt>
      <trkpt lat="44.31997" lon="6.8332">
        <time>2023-04-10T08:52:30+00:00</time>
        <ele>2245.0</ele>
      </trkpt>
      <trkpt lat="44.31997" lon="6.8332">
        <time>2023-04-10T08:52:31+00:00</time>
        <ele>2245.0</ele>
      </trkpt>
      <trkpt lat="44.31997" lon="6.8332">
        <time>2023-04-10T08:52:32+00:00</time>
        <ele>2245.0</ele>
      </trkpt>
      <trkpt lat="44.31997" lon="6.8332">
        <time>2023-04-10T08:52:33+00:00</time>
        <ele>2245.0</ele>
      </trkpt>
      <trkpt lat="44.31997" lon="6.8332">
        <time>2023-04-10T08:52:34+00:00</time>
        <ele>2245.0</ele>
      </trkpt>
      <trkpt lat="44.31997" lon="6.8332">
        <time>2023-04-10T08:52:35+00:00</time>
        <ele>2245.0</ele>
      </trkpt>
      <trkpt lat="44.31997" lon="6.8332">
        <time>2023-04-10T08:52:36+00:00</time>
        <ele>2245.0</ele>
      </trkpt>
      <trkpt lat="44.31997" lon="6.8332">
        <time>2023-04-10T08:52:37+00:00</time>
        <ele>2245.0</ele>
      </trkpt>
      <trkpt lat="44.31997" lon="6.8332">
        <time>2023-04-10T08:52:38+00:00</time>
        <ele>2245.0</ele>
      </trkpt>
      <trkpt lat="44.31999" lon="6.83318">
        <time>2023-04-10T08:52:39+00:00</time>
        <ele>2245.0</ele>
      </trkpt>
      <trkpt lat="44.32003" lon="6.8332">
        <time>2023-04-10T08:52:40+00:00</time>
        <ele>2243.0</ele>
      </trkpt>
      <trkpt lat="44.32007" lon="6.83322">
        <time>2023-04-10T08:52:41+00:00</time>
        <ele>2242.0</ele>
      </trkpt>
      <trkpt lat="44.32011" lon="6.83323">
        <time>2023-04-10T08:52:42+00:00</time>
        <ele>2241.0</ele>
      </trkpt>
      <trkpt lat="44.32018" lon="6.83322">
        <time>2023-04-10T08:52:43+00:00</time>
        <ele>2239.0</ele>
      </trkpt>
      <trkpt lat="44.32024" lon="6.83317">
        <time>2023-04-10T08:52:44+00:00</time>
        <ele>2237.0</ele>
      </trkpt>
      <trkpt lat="44.3203" lon="6.83313">
        <time>2023-04-10T08:52:45+00:00</time>
        <ele>2236.0</ele>
      </trkpt>
      <trkpt lat="44.32037" lon="6.83308">
        <time>2023-04-10T08:52:46+00:00</time>
        <ele>2234.0</ele>
      </trkpt>
      <trkpt lat="44.32042" lon="6.83303">
        <time>2023-04-10T08:52:47+00:00</time>
        <ele>2233.0</ele>
      </trkpt>
      <trkpt lat="44.32048" lon="6.83299">
        <time>2023-04-10T08:52:48+00:00</time>
        <ele>2232.0</ele>
      </trkpt>
      <trkpt lat="44.32053" lon="6.83295">
        <time>2023-04-10T08:52:49+00:00</time>
        <ele>2232.0</ele>
      </trkpt>
      <trkpt lat="44.32058" lon="6.83293">
        <time>2023-04-10T08:52:50+00:00</time>
        <ele>2231.0</ele>
      </trkpt>
      <trkpt lat="44.32063" lon="6.83292">
        <time>2023-04-10T08:52:51+00:00</time>
        <ele>2231.0</ele>
      </trkpt>
      <trkpt lat="44.32069" lon="6.83292">
        <time>2023-04-10T08:52:52+00:00</time>
        <ele>2230.0</ele>
      </trkpt>
      <trkpt lat="44.32074" lon="6.83291">
        <time>2023-04-10T08:52:53+00:00</time>
        <ele>2230.0</ele>
      </trkpt>
      <trkpt lat="44.3208" lon="6.83289">
        <time>2023-04-10T08:52:54+00:00</time>
        <ele>2229.0</ele>
      </trkpt>
      <trkpt lat="44.32085" lon="6.83287">
        <time>2023-04-10T08:52:55+00:00</time>
        <ele>2229.0</ele>
      </trkpt>
      <trkpt lat="44.32088" lon="6.83285">
        <time>2023-04-10T08:52:56+00:00</time>
        <ele>2229.0</ele>
      </trkpt>
      <trkpt lat="44.32091" lon="6.83284">
        <time>2023-04-10T08:52:57+00:00</time>
        <ele>2229.0</ele>
      </trkpt>
      <trkpt lat="44.32093" lon="6.83283">
        <time>2023-04-10T08:52:58+00:00</time>
        <ele>2229.0</ele>
      </trkpt>
      <trkpt lat="44.32093" lon="6.83283">
        <time>2023-04-10T08:52:59+00:00</time>
        <ele>2229.0</ele>
      </trkpt>
      <trkpt lat="44.32095" lon="6.83283">
        <time>2023-04-10T08:53:00+00:00</time>
        <ele>2229.0</ele>
      </trkpt>
      <trkpt lat="44.32095" lon="6.83283">
        <time>2023-04-10T08:53:01+00:00</time>
        <ele>2229.0</ele>
      </trkpt>
      <trkpt lat="44.32095" lon="6.83283">
        <time>2023-04-10T08:53:02+00:00</time>
        <ele>2229.0</ele>
      </trkpt>
      <trkpt lat="44.32098" lon="6.83282">
        <time>2023-04-10T08:53:03+00:00</time>
        <ele>2229.0</ele>
      </trkpt>
      <trkpt lat="44.32098" lon="6.83282">
        <time>2023-04-10T08:53:04+00:00</time>
        <ele>2229.0</ele>
      </trkpt>
      <trkpt lat="44.32101" lon="6.83282">
        <time>2023-04-10T08:53:05+00:00</time>
        <ele>2229.0</ele>
      </trkpt>
      <trkpt lat="44.32101" lon="6.83282">
        <time>2023-04-10T08:53:06+00:00</time>
        <ele>2229.0</ele>
      </trkpt>
      <trkpt lat="44.32104" lon="6.83281">
        <time>2023-04-10T08:53:07+00:00</time>
        <ele>2228.0</ele>
      </trkpt>
      <trkpt lat="44.32104" lon="6.83281">
        <time>2023-04-10T08:53:08+00:00</time>
        <ele>2228.0</ele>
      </trkpt>
      <trkpt lat="44.32108" lon="6.83281">
        <time>2023-04-10T08:53:09+00:00</time>
        <ele>2228.0</ele>
      </trkpt>
      <trkpt lat="44.32108" lon="6.83281">
        <time>2023-04-10T08:53:10+00:00</time>
        <ele>2228.0</ele>
      </trkpt>
      <trkpt lat="44.32111" lon="6.83281">
        <time>2023-04-10T08:53:11+00:00</time>
        <ele>2229.0</ele>
      </trkpt>
      <trkpt lat="44.32111" lon="6.83281">
        <time>2023-04-10T08:53:12+00:00</time>
        <ele>2229.0</ele>
      </trkpt>
      <trkpt lat="44.32113" lon="6.83282">
        <time>2023-04-10T08:53:13+00:00</time>
        <ele>2229.0</ele>
      </trkpt>
      <trkpt lat="44.32113" lon="6.83282">
        <time>2023-04-10T08:53:14+00:00</time>
        <ele>2229.0</ele>
      </trkpt>
      <trkpt lat="44.32115" lon="6.83283">
        <time>2023-04-10T08:53:15+00:00</time>
        <ele>2229.0</ele>
      </trkpt>
      <trkpt lat="44.32115" lon="6.83283">
        <time>2023-04-10T08:53:16+00:00</time>
        <ele>2229.0</ele>
      </trkpt>
      <trkpt lat="44.32115" lon="6.83283">
        <time>2023-04-10T08:53:17+00:00</time>
        <ele>2229.0</ele>
      </trkpt>
      <trkpt lat="44.32117" lon="6.83284">
        <time>2023-04-10T08:53:18+00:00</time>
        <ele>2229.0</ele>
      </trkpt>
      <trkpt lat="44.32117" lon="6.83284">
        <time>2023-04-10T08:53:19+00:00</time>
        <ele>2229.0</ele>
      </trkpt>
      <trkpt lat="44.32117" lon="6.83284">
        <time>2023-04-10T08:53:20+00:00</time>
        <ele>2229.0</ele>
      </trkpt>
      <trkpt lat="44.32117" lon="6.83284">
        <time>2023-04-10T08:53:21+00:00</time>
        <ele>2229.0</ele>
      </trkpt>
      <trkpt lat="44.32119" lon="6.83284">
        <time>2023-04-10T08:53:22+00:00</time>
        <ele>2229.0</ele>
      </trkpt>
      <trkpt lat="44.32119" lon="6.83284">
        <time>2023-04-10T08:53:23+00:00</time>
        <ele>2229.0</ele>
      </trkpt>
      <trkpt lat="44.32119" lon="6.83284">
        <time>2023-04-10T08:53:24+00:00</time>
        <ele>2229.0</ele>
      </trkpt>
      <trkpt lat="44.32119" lon="6.83284">
        <time>2023-04-10T08:53:25+00:00</time>
        <ele>2229.0</ele>
      </trkpt>
      <trkpt lat="44.32119" lon="6.83284">
        <time>2023-04-10T08:53:26+00:00</time>
        <ele>2229.0</ele>
      </trkpt>
      <trkpt lat="44.32121" lon="6.83285">
        <time>2023-04-10T08:53:27+00:00</time>
        <ele>2229.0</ele>
      </trkpt>
      <trkpt lat="44.32121" lon="6.83285">
        <time>2023-04-10T08:53:28+00:00</time>
        <ele>2229.0</ele>
      </trkpt>
      <trkpt lat="44.32121" lon="6.83285">
        <time>2023-04-10T08:53:29+00:00</time>
        <ele>2229.0</ele>
      </trkpt>
      <trkpt lat="44.32121" lon="6.83285">
        <time>2023-04-10T08:53:30+00:00</time>
        <ele>2229.0</ele>
      </trkpt>
      <trkpt lat="44.32121" lon="6.83285">
        <time>2023-04-10T08:53:31+00:00</time>
        <ele>2229.0</ele>
      </trkpt>
      <trkpt lat="44.32121" lon="6.83285">
        <time>2023-04-10T08:53:32+00:00</time>
        <ele>2229.0</ele>
      </trkpt>
      <trkpt lat="44.32121" lon="6.83285">
        <time>2023-04-10T08:53:33+00:00</time>
        <ele>2229.0</ele>
      </trkpt>
      <trkpt lat="44.32121" lon="6.83285">
        <time>2023-04-10T08:53:34+00:00</time>
        <ele>2229.0</ele>
      </trkpt>
      <trkpt lat="44.32121" lon="6.83285">
        <time>2023-04-10T08:53:35+00:00</time>
        <ele>2229.0</ele>
      </trkpt>
      <trkpt lat="44.32121" lon="6.83285">
        <time>2023-04-10T08:53:36+00:00</time>
        <ele>2229.0</ele>
      </trkpt>
      <trkpt lat="44.32121" lon="6.83285">
        <time>2023-04-10T08:53:37+00:00</time>
        <ele>2229.0</ele>
      </trkpt>
      <trkpt lat="44.32121" lon="6.83285">
        <time>2023-04-10T08:53:38+00:00</time>
        <ele>2229.0</ele>
      </trkpt>
      <trkpt lat="44.32121" lon="6.83285">
        <time>2023-04-10T08:53:39+00:00</time>
        <ele>2229.0</ele>
      </trkpt>
      <trkpt lat="44.32121" lon="6.83285">
        <time>2023-04-10T08:53:40+00:00</time>
        <ele>2229.0</ele>
      </trkpt>
      <trkpt lat="44.32121" lon="6.83285">
        <time>2023-04-10T08:53:41+00:00</time>
        <ele>2229.0</ele>
      </trkpt>
      <trkpt lat="44.32121" lon="6.83285">
        <time>2023-04-10T08:53:42+00:00</time>
        <ele>2229.0</ele>
      </trkpt>
      <trkpt lat="44.32121" lon="6.83285">
        <time>2023-04-10T08:53:43+00:00</time>
        <ele>2229.0</ele>
      </trkpt>
      <trkpt lat="44.32121" lon="6.83285">
        <time>2023-04-10T08:53:44+00:00</time>
        <ele>2229.0</ele>
      </trkpt>
      <trkpt lat="44.32121" lon="6.83285">
        <time>2023-04-10T08:53:45+00:00</time>
        <ele>2229.0</ele>
      </trkpt>
      <trkpt lat="44.32121" lon="6.83285">
        <time>2023-04-10T08:53:46+00:00</time>
        <ele>2229.0</ele>
      </trkpt>
      <trkpt lat="44.32121" lon="6.83285">
        <time>2023-04-10T08:53:47+00:00</time>
        <ele>2229.0</ele>
      </trkpt>
      <trkpt lat="44.32121" lon="6.83285">
        <time>2023-04-10T08:53:48+00:00</time>
        <ele>2229.0</ele>
      </trkpt>
      <trkpt lat="44.32121" lon="6.83285">
        <time>2023-04-10T08:53:49+00:00</time>
        <ele>2229.0</ele>
      </trkpt>
      <trkpt lat="44.32121" lon="6.83285">
        <time>2023-04-10T08:53:50+00:00</time>
        <ele>2229.0</ele>
      </trkpt>
      <trkpt lat="44.32121" lon="6.83285">
        <time>2023-04-10T08:53:51+00:00</time>
        <ele>2229.0</ele>
      </trkpt>
      <trkpt lat="44.32121" lon="6.83285">
        <time>2023-04-10T08:53:52+00:00</time>
        <ele>2229.0</ele>
      </trkpt>
      <trkpt lat="44.32121" lon="6.83285">
        <time>2023-04-10T08:53:53+00:00</time>
        <ele>2229.0</ele>
      </trkpt>
      <trkpt lat="44.32121" lon="6.83285">
        <time>2023-04-10T08:53:54+00:00</time>
        <ele>2229.0</ele>
      </trkpt>
      <trkpt lat="44.32121" lon="6.83285">
        <time>2023-04-10T08:53:55+00:00</time>
        <ele>2229.0</ele>
      </trkpt>
      <trkpt lat="44.32121" lon="6.83285">
        <time>2023-04-10T08:53:56+00:00</time>
        <ele>2229.0</ele>
      </trkpt>
      <trkpt lat="44.32121" lon="6.83285">
        <time>2023-04-10T08:53:57+00:00</time>
        <ele>2229.0</ele>
      </trkpt>
      <trkpt lat="44.32121" lon="6.83285">
        <time>2023-04-10T08:53:58+00:00</time>
        <ele>2229.0</ele>
      </trkpt>
      <trkpt lat="44.32121" lon="6.83285">
        <time>2023-04-10T08:53:59+00:00</time>
        <ele>2229.0</ele>
      </trkpt>
      <trkpt lat="44.32121" lon="6.83285">
        <time>2023-04-10T08:54:00+00:00</time>
        <ele>2229.0</ele>
      </trkpt>
      <trkpt lat="44.32121" lon="6.83285">
        <time>2023-04-10T08:54:01+00:00</time>
        <ele>2229.0</ele>
      </trkpt>
      <trkpt lat="44.32121" lon="6.83285">
        <time>2023-04-10T08:54:02+00:00</time>
        <ele>2229.0</ele>
      </trkpt>
      <trkpt lat="44.32121" lon="6.83285">
        <time>2023-04-10T08:54:03+00:00</time>
        <ele>2229.0</ele>
      </trkpt>
      <trkpt lat="44.32121" lon="6.83285">
        <time>2023-04-10T08:54:04+00:00</time>
        <ele>2229.0</ele>
      </trkpt>
      <trkpt lat="44.32121" lon="6.83285">
        <time>2023-04-10T08:54:05+00:00</time>
        <ele>2229.0</ele>
      </trkpt>
      <trkpt lat="44.32121" lon="6.83285">
        <time>2023-04-10T08:54:06+00:00</time>
        <ele>2229.0</ele>
      </trkpt>
      <trkpt lat="44.32121" lon="6.83285">
        <time>2023-04-10T08:54:07+00:00</time>
        <ele>2229.0</ele>
      </trkpt>
      <trkpt lat="44.32121" lon="6.83285">
        <time>2023-04-10T08:54:08+00:00</time>
        <ele>2229.0</ele>
      </trkpt>
      <trkpt lat="44.32121" lon="6.83285">
        <time>2023-04-10T08:54:09+00:00</time>
        <ele>2229.0</ele>
      </trkpt>
      <trkpt lat="44.32121" lon="6.83285">
        <time>2023-04-10T08:54:10+00:00</time>
        <ele>2229.0</ele>
      </trkpt>
      <trkpt lat="44.32121" lon="6.83285">
        <time>2023-04-10T08:54:11+00:00</time>
        <ele>2229.0</ele>
      </trkpt>
      <trkpt lat="44.32121" lon="6.83285">
        <time>2023-04-10T08:54:12+00:00</time>
        <ele>2229.0</ele>
      </trkpt>
      <trkpt lat="44.32121" lon="6.83285">
        <time>2023-04-10T08:54:13+00:00</time>
        <ele>2229.0</ele>
      </trkpt>
      <trkpt lat="44.32121" lon="6.83285">
        <time>2023-04-10T08:54:14+00:00</time>
        <ele>2229.0</ele>
      </trkpt>
      <trkpt lat="44.32121" lon="6.83285">
        <time>2023-04-10T08:54:15+00:00</time>
        <ele>2229.0</ele>
      </trkpt>
      <trkpt lat="44.32121" lon="6.83285">
        <time>2023-04-10T08:54:16+00:00</time>
        <ele>2229.0</ele>
      </trkpt>
      <trkpt lat="44.32121" lon="6.83285">
        <time>2023-04-10T08:54:17+00:00</time>
        <ele>2229.0</ele>
      </trkpt>
      <trkpt lat="44.32121" lon="6.83285">
        <time>2023-04-10T08:54:18+00:00</time>
        <ele>2229.0</ele>
      </trkpt>
      <trkpt lat="44.32121" lon="6.83285">
        <time>2023-04-10T08:54:19+00:00</time>
        <ele>2229.0</ele>
      </trkpt>
      <trkpt lat="44.32121" lon="6.83285">
        <time>2023-04-10T08:54:20+00:00</time>
        <ele>2229.0</ele>
      </trkpt>
      <trkpt lat="44.32121" lon="6.83285">
        <time>2023-04-10T08:54:21+00:00</time>
        <ele>2229.0</ele>
      </trkpt>
      <trkpt lat="44.32121" lon="6.83285">
        <time>2023-04-10T08:54:22+00:00</time>
        <ele>2229.0</ele>
      </trkpt>
      <trkpt lat="44.32121" lon="6.83285">
        <time>2023-04-10T08:54:23+00:00</time>
        <ele>2229.0</ele>
      </trkpt>
      <trkpt lat="44.32121" lon="6.83285">
        <time>2023-04-10T08:54:24+00:00</time>
        <ele>2229.0</ele>
      </trkpt>
      <trkpt lat="44.32121" lon="6.83285">
        <time>2023-04-10T08:54:25+00:00</time>
        <ele>2229.0</ele>
      </trkpt>
      <trkpt lat="44.32121" lon="6.83285">
        <time>2023-04-10T08:54:26+00:00</time>
        <ele>2229.0</ele>
      </trkpt>
      <trkpt lat="44.32121" lon="6.83285">
        <time>2023-04-10T08:54:27+00:00</time>
        <ele>2229.0</ele>
      </trkpt>
      <trkpt lat="44.32121" lon="6.83285">
        <time>2023-04-10T08:54:28+00:00</time>
        <ele>2229.0</ele>
      </trkpt>
      <trkpt lat="44.32121" lon="6.83285">
        <time>2023-04-10T08:54:29+00:00</time>
        <ele>2229.0</ele>
      </trkpt>
      <trkpt lat="44.32121" lon="6.83285">
        <time>2023-04-10T08:54:30+00:00</time>
        <ele>2229.0</ele>
      </trkpt>
      <trkpt lat="44.32121" lon="6.83285">
        <time>2023-04-10T08:54:31+00:00</time>
        <ele>2229.0</ele>
      </trkpt>
      <trkpt lat="44.32121" lon="6.83285">
        <time>2023-04-10T08:54:32+00:00</time>
        <ele>2229.0</ele>
      </trkpt>
      <trkpt lat="44.32121" lon="6.83285">
        <time>2023-04-10T08:54:33+00:00</time>
        <ele>2229.0</ele>
      </trkpt>
      <trkpt lat="44.32121" lon="6.83285">
        <time>2023-04-10T08:54:34+00:00</time>
        <ele>2229.0</ele>
      </trkpt>
      <trkpt lat="44.32121" lon="6.83285">
        <time>2023-04-10T08:54:35+00:00</time>
        <ele>2229.0</ele>
      </trkpt>
      <trkpt lat="44.32121" lon="6.83285">
        <time>2023-04-10T08:54:36+00:00</time>
        <ele>2229.0</ele>
      </trkpt>
      <trkpt lat="44.32121" lon="6.83285">
        <time>2023-04-10T08:54:37+00:00</time>
        <ele>2229.0</ele>
      </trkpt>
      <trkpt lat="44.32121" lon="6.83285">
        <time>2023-04-10T08:54:38+00:00</time>
        <ele>2229.0</ele>
      </trkpt>
      <trkpt lat="44.32121" lon="6.83285">
        <time>2023-04-10T08:54:39+00:00</time>
        <ele>2229.0</ele>
      </trkpt>
      <trkpt lat="44.32121" lon="6.83285">
        <time>2023-04-10T08:54:40+00:00</time>
        <ele>2229.0</ele>
      </trkpt>
      <trkpt lat="44.32121" lon="6.83285">
        <time>2023-04-10T08:54:41+00:00</time>
        <ele>2229.0</ele>
      </trkpt>
      <trkpt lat="44.32121" lon="6.83285">
        <time>2023-04-10T08:54:42+00:00</time>
        <ele>2229.0</ele>
      </trkpt>
      <trkpt lat="44.32121" lon="6.83285">
        <time>2023-04-10T08:54:43+00:00</time>
        <ele>2229.0</ele>
      </trkpt>
      <trkpt lat="44.32121" lon="6.83285">
        <time>2023-04-10T08:54:44+00:00</time>
        <ele>2229.0</ele>
      </trkpt>
      <trkpt lat="44.32121" lon="6.83285">
        <time>2023-04-10T08:54:45+00:00</time>
        <ele>2229.0</ele>
      </trkpt>
      <trkpt lat="44.32121" lon="6.83285">
        <time>2023-04-10T08:54:46+00:00</time>
        <ele>2229.0</ele>
      </trkpt>
      <trkpt lat="44.32121" lon="6.83285">
        <time>2023-04-10T08:54:47+00:00</time>
        <ele>2229.0</ele>
      </trkpt>
      <trkpt lat="44.32121" lon="6.83285">
        <time>2023-04-10T08:54:48+00:00</time>
        <ele>2229.0</ele>
      </trkpt>
      <trkpt lat="44.32121" lon="6.83285">
        <time>2023-04-10T08:54:49+00:00</time>
        <ele>2229.0</ele>
      </trkpt>
      <trkpt lat="44.32121" lon="6.83285">
        <time>2023-04-10T08:54:50+00:00</time>
        <ele>2229.0</ele>
      </trkpt>
      <trkpt lat="44.32121" lon="6.83285">
        <time>2023-04-10T08:54:51+00:00</time>
        <ele>2229.0</ele>
      </trkpt>
      <trkpt lat="44.32121" lon="6.83285">
        <time>2023-04-10T08:54:52+00:00</time>
        <ele>2229.0</ele>
      </trkpt>
      <trkpt lat="44.32121" lon="6.83285">
        <time>2023-04-10T08:54:53+00:00</time>
        <ele>2229.0</ele>
      </trkpt>
      <trkpt lat="44.32121" lon="6.83285">
        <time>2023-04-10T08:54:54+00:00</time>
        <ele>2229.0</ele>
      </trkpt>
      <trkpt lat="44.32121" lon="6.83285">
        <time>2023-04-10T08:54:55+00:00</time>
        <ele>2229.0</ele>
      </trkpt>
      <trkpt lat="44.32121" lon="6.83285">
        <time>2023-04-10T08:54:56+00:00</time>
        <ele>2229.0</ele>
      </trkpt>
      <trkpt lat="44.32121" lon="6.83285">
        <time>2023-04-10T08:54:57+00:00</time>
        <ele>2229.0</ele>
      </trkpt>
      <trkpt lat="44.32121" lon="6.83285">
        <time>2023-04-10T08:54:58+00:00</time>
        <ele>2229.0</ele>
      </trkpt>
      <trkpt lat="44.32121" lon="6.83285">
        <time>2023-04-10T08:54:59+00:00</time>
        <ele>2229.0</ele>
      </trkpt>
      <trkpt lat="44.32121" lon="6.83285">
        <time>2023-04-10T08:55:00+00:00</time>
        <ele>2229.0</ele>
      </trkpt>
      <trkpt lat="44.32121" lon="6.83285">
        <time>2023-04-10T08:55:01+00:00</time>
        <ele>2229.0</ele>
      </trkpt>
      <trkpt lat="44.32121" lon="6.83285">
        <time>2023-04-10T08:55:02+00:00</time>
        <ele>2229.0</ele>
      </trkpt>
      <trkpt lat="44.32121" lon="6.83285">
        <time>2023-04-10T08:55:03+00:00</time>
        <ele>2229.0</ele>
      </trkpt>
      <trkpt lat="44.32121" lon="6.83285">
        <time>2023-04-10T08:55:04+00:00</time>
        <ele>2229.0</ele>
      </trkpt>
      <trkpt lat="44.32121" lon="6.83285">
        <time>2023-04-10T08:55:05+00:00</time>
        <ele>2229.0</ele>
      </trkpt>
      <trkpt lat="44.32121" lon="6.83285">
        <time>2023-04-10T08:55:06+00:00</time>
        <ele>2229.0</ele>
      </trkpt>
      <trkpt lat="44.32121" lon="6.83285">
        <time>2023-04-10T08:55:07+00:00</time>
        <ele>2229.0</ele>
      </trkpt>
      <trkpt lat="44.32121" lon="6.83285">
        <time>2023-04-10T08:55:08+00:00</time>
        <ele>2229.0</ele>
      </trkpt>
      <trkpt lat="44.32121" lon="6.83285">
        <time>2023-04-10T08:55:09+00:00</time>
        <ele>2229.0</ele>
      </trkpt>
      <trkpt lat="44.32121" lon="6.83285">
        <time>2023-04-10T08:55:10+00:00</time>
        <ele>2229.0</ele>
      </trkpt>
      <trkpt lat="44.32121" lon="6.83285">
        <time>2023-04-10T08:55:11+00:00</time>
        <ele>2229.0</ele>
      </trkpt>
      <trkpt lat="44.32121" lon="6.83285">
        <time>2023-04-10T08:55:12+00:00</time>
        <ele>2229.0</ele>
      </trkpt>
      <trkpt lat="44.32121" lon="6.83285">
        <time>2023-04-10T08:55:13+00:00</time>
        <ele>2229.0</ele>
      </trkpt>
      <trkpt lat="44.32121" lon="6.83285">
        <time>2023-04-10T08:55:14+00:00</time>
        <ele>2229.0</ele>
      </trkpt>
      <trkpt lat="44.32121" lon="6.83285">
        <time>2023-04-10T08:55:15+00:00</time>
        <ele>2229.0</ele>
      </trkpt>
      <trkpt lat="44.32121" lon="6.83285">
        <time>2023-04-10T08:55:16+00:00</time>
        <ele>2229.0</ele>
      </trkpt>
      <trkpt lat="44.32121" lon="6.83285">
        <time>2023-04-10T08:55:17+00:00</time>
        <ele>2229.0</ele>
      </trkpt>
      <trkpt lat="44.32121" lon="6.83285">
        <time>2023-04-10T08:55:18+00:00</time>
        <ele>2229.0</ele>
      </trkpt>
      <trkpt lat="44.32121" lon="6.83285">
        <time>2023-04-10T08:55:19+00:00</time>
        <ele>2229.0</ele>
      </trkpt>
      <trkpt lat="44.32121" lon="6.83285">
        <time>2023-04-10T08:55:20+00:00</time>
        <ele>2229.0</ele>
      </trkpt>
      <trkpt lat="44.32121" lon="6.83285">
        <time>2023-04-10T08:55:21+00:00</time>
        <ele>2229.0</ele>
      </trkpt>
      <trkpt lat="44.32121" lon="6.83285">
        <time>2023-04-10T08:55:22+00:00</time>
        <ele>2229.0</ele>
      </trkpt>
      <trkpt lat="44.32121" lon="6.83285">
        <time>2023-04-10T08:55:23+00:00</time>
        <ele>2229.0</ele>
      </trkpt>
      <trkpt lat="44.32121" lon="6.83285">
        <time>2023-04-10T08:55:24+00:00</time>
        <ele>2229.0</ele>
      </trkpt>
      <trkpt lat="44.32121" lon="6.83285">
        <time>2023-04-10T08:55:25+00:00</time>
        <ele>2229.0</ele>
      </trkpt>
      <trkpt lat="44.32121" lon="6.83285">
        <time>2023-04-10T08:55:26+00:00</time>
        <ele>2229.0</ele>
      </trkpt>
      <trkpt lat="44.32121" lon="6.83285">
        <time>2023-04-10T08:55:27+00:00</time>
        <ele>2229.0</ele>
      </trkpt>
      <trkpt lat="44.32121" lon="6.83285">
        <time>2023-04-10T08:55:28+00:00</time>
        <ele>2229.0</ele>
      </trkpt>
      <trkpt lat="44.32121" lon="6.83285">
        <time>2023-04-10T08:55:29+00:00</time>
        <ele>2229.0</ele>
      </trkpt>
      <trkpt lat="44.32121" lon="6.83285">
        <time>2023-04-10T08:55:30+00:00</time>
        <ele>2229.0</ele>
      </trkpt>
      <trkpt lat="44.32121" lon="6.83285">
        <time>2023-04-10T08:55:31+00:00</time>
        <ele>2229.0</ele>
      </trkpt>
      <trkpt lat="44.32121" lon="6.83285">
        <time>2023-04-10T08:55:32+00:00</time>
        <ele>2229.0</ele>
      </trkpt>
      <trkpt lat="44.32121" lon="6.83285">
        <time>2023-04-10T08:55:33+00:00</time>
        <ele>2229.0</ele>
      </trkpt>
      <trkpt lat="44.32121" lon="6.83285">
        <time>2023-04-10T08:55:34+00:00</time>
        <ele>2229.0</ele>
      </trkpt>
      <trkpt lat="44.32121" lon="6.83285">
        <time>2023-04-10T08:55:35+00:00</time>
        <ele>2229.0</ele>
      </trkpt>
      <trkpt lat="44.32121" lon="6.83285">
        <time>2023-04-10T08:55:36+00:00</time>
        <ele>2229.0</ele>
      </trkpt>
      <trkpt lat="44.32121" lon="6.83285">
        <time>2023-04-10T08:55:37+00:00</time>
        <ele>2229.0</ele>
      </trkpt>
      <trkpt lat="44.32121" lon="6.83285">
        <time>2023-04-10T08:55:38+00:00</time>
        <ele>2229.0</ele>
      </trkpt>
      <trkpt lat="44.32121" lon="6.83285">
        <time>2023-04-10T08:55:39+00:00</time>
        <ele>2229.0</ele>
      </trkpt>
      <trkpt lat="44.32121" lon="6.83285">
        <time>2023-04-10T08:55:40+00:00</time>
        <ele>2229.0</ele>
      </trkpt>
      <trkpt lat="44.32121" lon="6.83285">
        <time>2023-04-10T08:55:41+00:00</time>
        <ele>2229.0</ele>
      </trkpt>
      <trkpt lat="44.32121" lon="6.83285">
        <time>2023-04-10T08:55:42+00:00</time>
        <ele>2229.0</ele>
      </trkpt>
      <trkpt lat="44.32121" lon="6.83285">
        <time>2023-04-10T08:55:43+00:00</time>
        <ele>2229.0</ele>
      </trkpt>
      <trkpt lat="44.32121" lon="6.83285">
        <time>2023-04-10T08:55:44+00:00</time>
        <ele>2229.0</ele>
      </trkpt>
      <trkpt lat="44.32121" lon="6.83285">
        <time>2023-04-10T08:55:45+00:00</time>
        <ele>2229.0</ele>
      </trkpt>
      <trkpt lat="44.32121" lon="6.83285">
        <time>2023-04-10T08:55:46+00:00</time>
        <ele>2229.0</ele>
      </trkpt>
      <trkpt lat="44.32121" lon="6.83285">
        <time>2023-04-10T08:55:47+00:00</time>
        <ele>2229.0</ele>
      </trkpt>
      <trkpt lat="44.32121" lon="6.83285">
        <time>2023-04-10T08:55:48+00:00</time>
        <ele>2229.0</ele>
      </trkpt>
      <trkpt lat="44.32121" lon="6.83285">
        <time>2023-04-10T08:55:49+00:00</time>
        <ele>2229.0</ele>
      </trkpt>
      <trkpt lat="44.32121" lon="6.83285">
        <time>2023-04-10T08:55:50+00:00</time>
        <ele>2229.0</ele>
      </trkpt>
      <trkpt lat="44.32121" lon="6.83285">
        <time>2023-04-10T08:55:51+00:00</time>
        <ele>2229.0</ele>
      </trkpt>
      <trkpt lat="44.32121" lon="6.83285">
        <time>2023-04-10T08:55:52+00:00</time>
        <ele>2229.0</ele>
      </trkpt>
      <trkpt lat="44.32121" lon="6.83285">
        <time>2023-04-10T08:55:53+00:00</time>
        <ele>2229.0</ele>
      </trkpt>
      <trkpt lat="44.32121" lon="6.83285">
        <time>2023-04-10T08:55:54+00:00</time>
        <ele>2229.0</ele>
      </trkpt>
      <trkpt lat="44.32121" lon="6.83285">
        <time>2023-04-10T08:55:55+00:00</time>
        <ele>2229.0</ele>
      </trkpt>
      <trkpt lat="44.32121" lon="6.83285">
        <time>2023-04-10T08:55:56+00:00</time>
        <ele>2229.0</ele>
      </trkpt>
      <trkpt lat="44.32121" lon="6.83285">
        <time>2023-04-10T08:55:57+00:00</time>
        <ele>2229.0</ele>
      </trkpt>
      <trkpt lat="44.32121" lon="6.83285">
        <time>2023-04-10T08:55:58+00:00</time>
        <ele>2229.0</ele>
      </trkpt>
      <trkpt lat="44.32121" lon="6.83285">
        <time>2023-04-10T08:55:59+00:00</time>
        <ele>2229.0</ele>
      </trkpt>
      <trkpt lat="44.32121" lon="6.83285">
        <time>2023-04-10T08:56:00+00:00</time>
        <ele>2229.0</ele>
      </trkpt>
      <trkpt lat="44.32121" lon="6.83285">
        <time>2023-04-10T08:56:01+00:00</time>
        <ele>2229.0</ele>
      </trkpt>
      <trkpt lat="44.32121" lon="6.83285">
        <time>2023-04-10T08:56:02+00:00</time>
        <ele>2229.0</ele>
      </trkpt>
      <trkpt lat="44.32121" lon="6.83285">
        <time>2023-04-10T08:56:03+00:00</time>
        <ele>2229.0</ele>
      </trkpt>
      <trkpt lat="44.32121" lon="6.83285">
        <time>2023-04-10T08:56:04+00:00</time>
        <ele>2229.0</ele>
      </trkpt>
      <trkpt lat="44.32121" lon="6.83285">
        <time>2023-04-10T08:56:05+00:00</time>
        <ele>2229.0</ele>
      </trkpt>
      <trkpt lat="44.32121" lon="6.83285">
        <time>2023-04-10T08:56:06+00:00</time>
        <ele>2229.0</ele>
      </trkpt>
      <trkpt lat="44.32121" lon="6.83285">
        <time>2023-04-10T08:56:07+00:00</time>
        <ele>2229.0</ele>
      </trkpt>
      <trkpt lat="44.32121" lon="6.83285">
        <time>2023-04-10T08:56:08+00:00</time>
        <ele>2229.0</ele>
      </trkpt>
      <trkpt lat="44.32121" lon="6.83285">
        <time>2023-04-10T08:56:09+00:00</time>
        <ele>2229.0</ele>
      </trkpt>
      <trkpt lat="44.32121" lon="6.83285">
        <time>2023-04-10T08:56:10+00:00</time>
        <ele>2229.0</ele>
      </trkpt>
      <trkpt lat="44.32121" lon="6.83285">
        <time>2023-04-10T08:56:11+00:00</time>
        <ele>2229.0</ele>
      </trkpt>
      <trkpt lat="44.32121" lon="6.83285">
        <time>2023-04-10T08:56:12+00:00</time>
        <ele>2229.0</ele>
      </trkpt>
      <trkpt lat="44.32121" lon="6.83285">
        <time>2023-04-10T08:56:13+00:00</time>
        <ele>2229.0</ele>
      </trkpt>
      <trkpt lat="44.32121" lon="6.83285">
        <time>2023-04-10T08:56:14+00:00</time>
        <ele>2229.0</ele>
      </trkpt>
      <trkpt lat="44.32121" lon="6.83285">
        <time>2023-04-10T08:56:15+00:00</time>
        <ele>2229.0</ele>
      </trkpt>
      <trkpt lat="44.32121" lon="6.83285">
        <time>2023-04-10T08:56:16+00:00</time>
        <ele>2229.0</ele>
      </trkpt>
      <trkpt lat="44.32121" lon="6.83285">
        <time>2023-04-10T08:56:17+00:00</time>
        <ele>2229.0</ele>
      </trkpt>
      <trkpt lat="44.32121" lon="6.83285">
        <time>2023-04-10T08:56:18+00:00</time>
        <ele>2229.0</ele>
      </trkpt>
      <trkpt lat="44.32121" lon="6.83285">
        <time>2023-04-10T08:56:19+00:00</time>
        <ele>2229.0</ele>
      </trkpt>
      <trkpt lat="44.32121" lon="6.83285">
        <time>2023-04-10T08:56:20+00:00</time>
        <ele>2229.0</ele>
      </trkpt>
      <trkpt lat="44.32121" lon="6.83285">
        <time>2023-04-10T08:56:21+00:00</time>
        <ele>2229.0</ele>
      </trkpt>
      <trkpt lat="44.32121" lon="6.83285">
        <time>2023-04-10T08:56:22+00:00</time>
        <ele>2229.0</ele>
      </trkpt>
      <trkpt lat="44.32121" lon="6.83285">
        <time>2023-04-10T08:56:23+00:00</time>
        <ele>2229.0</ele>
      </trkpt>
      <trkpt lat="44.32121" lon="6.83285">
        <time>2023-04-10T08:56:24+00:00</time>
        <ele>2229.0</ele>
      </trkpt>
      <trkpt lat="44.32121" lon="6.83285">
        <time>2023-04-10T08:56:25+00:00</time>
        <ele>2229.0</ele>
      </trkpt>
      <trkpt lat="44.32121" lon="6.83285">
        <time>2023-04-10T08:56:26+00:00</time>
        <ele>2229.0</ele>
      </trkpt>
      <trkpt lat="44.32121" lon="6.83285">
        <time>2023-04-10T08:56:27+00:00</time>
        <ele>2229.0</ele>
      </trkpt>
      <trkpt lat="44.32121" lon="6.83285">
        <time>2023-04-10T08:56:28+00:00</time>
        <ele>2229.0</ele>
      </trkpt>
      <trkpt lat="44.32121" lon="6.83285">
        <time>2023-04-10T08:56:29+00:00</time>
        <ele>2229.0</ele>
      </trkpt>
      <trkpt lat="44.32121" lon="6.83285">
        <time>2023-04-10T08:56:30+00:00</time>
        <ele>2229.0</ele>
      </trkpt>
      <trkpt lat="44.32121" lon="6.83285">
        <time>2023-04-10T08:56:31+00:00</time>
        <ele>2229.0</ele>
      </trkpt>
      <trkpt lat="44.32121" lon="6.83285">
        <time>2023-04-10T08:56:32+00:00</time>
        <ele>2229.0</ele>
      </trkpt>
      <trkpt lat="44.32121" lon="6.83285">
        <time>2023-04-10T08:56:33+00:00</time>
        <ele>2229.0</ele>
      </trkpt>
      <trkpt lat="44.32121" lon="6.83285">
        <time>2023-04-10T08:56:34+00:00</time>
        <ele>2229.0</ele>
      </trkpt>
      <trkpt lat="44.32121" lon="6.83285">
        <time>2023-04-10T08:56:35+00:00</time>
        <ele>2229.0</ele>
      </trkpt>
      <trkpt lat="44.32121" lon="6.83285">
        <time>2023-04-10T08:56:36+00:00</time>
        <ele>2229.0</ele>
      </trkpt>
      <trkpt lat="44.32121" lon="6.83285">
        <time>2023-04-10T08:56:37+00:00</time>
        <ele>2229.0</ele>
      </trkpt>
      <trkpt lat="44.32121" lon="6.83285">
        <time>2023-04-10T08:56:38+00:00</time>
        <ele>2229.0</ele>
      </trkpt>
      <trkpt lat="44.32121" lon="6.83285">
        <time>2023-04-10T08:56:39+00:00</time>
        <ele>2229.0</ele>
      </trkpt>
      <trkpt lat="44.32121" lon="6.83285">
        <time>2023-04-10T08:56:40+00:00</time>
        <ele>2229.0</ele>
      </trkpt>
      <trkpt lat="44.32121" lon="6.83285">
        <time>2023-04-10T08:56:41+00:00</time>
        <ele>2229.0</ele>
      </trkpt>
      <trkpt lat="44.32121" lon="6.83285">
        <time>2023-04-10T08:56:42+00:00</time>
        <ele>2229.0</ele>
      </trkpt>
      <trkpt lat="44.32121" lon="6.83285">
        <time>2023-04-10T08:56:43+00:00</time>
        <ele>2229.0</ele>
      </trkpt>
      <trkpt lat="44.32121" lon="6.83285">
        <time>2023-04-10T08:56:44+00:00</time>
        <ele>2229.0</ele>
      </trkpt>
      <trkpt lat="44.32121" lon="6.83285">
        <time>2023-04-10T08:56:45+00:00</time>
        <ele>2229.0</ele>
      </trkpt>
      <trkpt lat="44.32121" lon="6.83285">
        <time>2023-04-10T08:56:46+00:00</time>
        <ele>2229.0</ele>
      </trkpt>
      <trkpt lat="44.32121" lon="6.83285">
        <time>2023-04-10T08:56:47+00:00</time>
        <ele>2229.0</ele>
      </trkpt>
      <trkpt lat="44.32121" lon="6.83285">
        <time>2023-04-10T08:56:48+00:00</time>
        <ele>2229.0</ele>
      </trkpt>
      <trkpt lat="44.32121" lon="6.83285">
        <time>2023-04-10T08:56:49+00:00</time>
        <ele>2229.0</ele>
      </trkpt>
      <trkpt lat="44.32121" lon="6.83285">
        <time>2023-04-10T08:56:50+00:00</time>
        <ele>2229.0</ele>
      </trkpt>
      <trkpt lat="44.32121" lon="6.83285">
        <time>2023-04-10T08:56:51+00:00</time>
        <ele>2229.0</ele>
      </trkpt>
      <trkpt lat="44.32121" lon="6.83285">
        <time>2023-04-10T08:56:52+00:00</time>
        <ele>2229.0</ele>
      </trkpt>
      <trkpt lat="44.32121" lon="6.83285">
        <time>2023-04-10T08:56:53+00:00</time>
        <ele>2229.0</ele>
      </trkpt>
      <trkpt lat="44.32121" lon="6.83285">
        <time>2023-04-10T08:56:54+00:00</time>
        <ele>2229.0</ele>
      </trkpt>
      <trkpt lat="44.32121" lon="6.83285">
        <time>2023-04-10T08:56:55+00:00</time>
        <ele>2229.0</ele>
      </trkpt>
      <trkpt lat="44.32121" lon="6.83285">
        <time>2023-04-10T08:56:56+00:00</time>
        <ele>2229.0</ele>
      </trkpt>
      <trkpt lat="44.32121" lon="6.83285">
        <time>2023-04-10T08:56:57+00:00</time>
        <ele>2229.0</ele>
      </trkpt>
      <trkpt lat="44.32121" lon="6.83285">
        <time>2023-04-10T08:56:58+00:00</time>
        <ele>2229.0</ele>
      </trkpt>
      <trkpt lat="44.32121" lon="6.83285">
        <time>2023-04-10T08:56:59+00:00</time>
        <ele>2229.0</ele>
      </trkpt>
      <trkpt lat="44.32121" lon="6.83285">
        <time>2023-04-10T08:57:00+00:00</time>
        <ele>2229.0</ele>
      </trkpt>
      <trkpt lat="44.32121" lon="6.83285">
        <time>2023-04-10T08:57:01+00:00</time>
        <ele>2229.0</ele>
      </trkpt>
      <trkpt lat="44.32121" lon="6.83285">
        <time>2023-04-10T08:57:02+00:00</time>
        <ele>2229.0</ele>
      </trkpt>
      <trkpt lat="44.32121" lon="6.83285">
        <time>2023-04-10T08:57:03+00:00</time>
        <ele>2229.0</ele>
      </trkpt>
      <trkpt lat="44.32121" lon="6.83285">
        <time>2023-04-10T08:57:04+00:00</time>
        <ele>2229.0</ele>
      </trkpt>
      <trkpt lat="44.32121" lon="6.83285">
        <time>2023-04-10T08:57:05+00:00</time>
        <ele>2229.0</ele>
      </trkpt>
      <trkpt lat="44.32121" lon="6.83285">
        <time>2023-04-10T08:57:06+00:00</time>
        <ele>2229.0</ele>
      </trkpt>
      <trkpt lat="44.32121" lon="6.83285">
        <time>2023-04-10T08:57:07+00:00</time>
        <ele>2229.0</ele>
      </trkpt>
      <trkpt lat="44.32121" lon="6.83285">
        <time>2023-04-10T08:57:08+00:00</time>
        <ele>2229.0</ele>
      </trkpt>
      <trkpt lat="44.32121" lon="6.83285">
        <time>2023-04-10T08:57:09+00:00</time>
        <ele>2229.0</ele>
      </trkpt>
      <trkpt lat="44.32121" lon="6.83285">
        <time>2023-04-10T08:57:10+00:00</time>
        <ele>2229.0</ele>
      </trkpt>
      <trkpt lat="44.32121" lon="6.83285">
        <time>2023-04-10T08:57:11+00:00</time>
        <ele>2229.0</ele>
      </trkpt>
      <trkpt lat="44.32121" lon="6.83285">
        <time>2023-04-10T08:57:12+00:00</time>
        <ele>2229.0</ele>
      </trkpt>
      <trkpt lat="44.32121" lon="6.83285">
        <time>2023-04-10T08:57:13+00:00</time>
        <ele>2229.0</ele>
      </trkpt>
      <trkpt lat="44.32121" lon="6.83285">
        <time>2023-04-10T08:57:14+00:00</time>
        <ele>2229.0</ele>
      </trkpt>
      <trkpt lat="44.32121" lon="6.83285">
        <time>2023-04-10T08:57:15+00:00</time>
        <ele>2229.0</ele>
      </trkpt>
      <trkpt lat="44.32121" lon="6.83285">
        <time>2023-04-10T08:57:16+00:00</time>
        <ele>2229.0</ele>
      </trkpt>
      <trkpt lat="44.32121" lon="6.83285">
        <time>2023-04-10T08:57:17+00:00</time>
        <ele>2229.0</ele>
      </trkpt>
      <trkpt lat="44.32121" lon="6.83285">
        <time>2023-04-10T08:57:18+00:00</time>
        <ele>2229.0</ele>
      </trkpt>
      <trkpt lat="44.32121" lon="6.83285">
        <time>2023-04-10T08:57:19+00:00</time>
        <ele>2229.0</ele>
      </trkpt>
      <trkpt lat="44.32121" lon="6.83285">
        <time>2023-04-10T08:57:20+00:00</time>
        <ele>2229.0</ele>
      </trkpt>
      <trkpt lat="44.32121" lon="6.83285">
        <time>2023-04-10T08:57:21+00:00</time>
        <ele>2229.0</ele>
      </trkpt>
      <trkpt lat="44.32121" lon="6.83285">
        <time>2023-04-10T08:57:22+00:00</time>
        <ele>2229.0</ele>
      </trkpt>
      <trkpt lat="44.32121" lon="6.83285">
        <time>2023-04-10T08:57:23+00:00</time>
        <ele>2229.0</ele>
      </trkpt>
      <trkpt lat="44.32121" lon="6.83285">
        <time>2023-04-10T08:57:24+00:00</time>
        <ele>2229.0</ele>
      </trkpt>
      <trkpt lat="44.32121" lon="6.83285">
        <time>2023-04-10T08:57:25+00:00</time>
        <ele>2229.0</ele>
      </trkpt>
      <trkpt lat="44.32121" lon="6.83285">
        <time>2023-04-10T08:57:26+00:00</time>
        <ele>2229.0</ele>
      </trkpt>
      <trkpt lat="44.32121" lon="6.83285">
        <time>2023-04-10T08:57:27+00:00</time>
        <ele>2229.0</ele>
      </trkpt>
      <trkpt lat="44.32121" lon="6.83285">
        <time>2023-04-10T08:57:28+00:00</time>
        <ele>2229.0</ele>
      </trkpt>
      <trkpt lat="44.32121" lon="6.83285">
        <time>2023-04-10T08:57:29+00:00</time>
        <ele>2229.0</ele>
      </trkpt>
      <trkpt lat="44.32121" lon="6.83285">
        <time>2023-04-10T08:57:30+00:00</time>
        <ele>2229.0</ele>
      </trkpt>
      <trkpt lat="44.32121" lon="6.83285">
        <time>2023-04-10T08:57:31+00:00</time>
        <ele>2229.0</ele>
      </trkpt>
      <trkpt lat="44.32121" lon="6.83285">
        <time>2023-04-10T08:57:32+00:00</time>
        <ele>2229.0</ele>
      </trkpt>
      <trkpt lat="44.32121" lon="6.83285">
        <time>2023-04-10T08:57:33+00:00</time>
        <ele>2229.0</ele>
      </trkpt>
      <trkpt lat="44.32121" lon="6.83285">
        <time>2023-04-10T08:57:34+00:00</time>
        <ele>2229.0</ele>
      </trkpt>
      <trkpt lat="44.32121" lon="6.83285">
        <time>2023-04-10T08:57:35+00:00</time>
        <ele>2229.0</ele>
      </trkpt>
      <trkpt lat="44.32121" lon="6.83285">
        <time>2023-04-10T08:57:36+00:00</time>
        <ele>2229.0</ele>
      </trkpt>
      <trkpt lat="44.32121" lon="6.83285">
        <time>2023-04-10T08:57:37+00:00</time>
        <ele>2229.0</ele>
      </trkpt>
      <trkpt lat="44.32121" lon="6.83285">
        <time>2023-04-10T08:57:38+00:00</time>
        <ele>2229.0</ele>
      </trkpt>
      <trkpt lat="44.32121" lon="6.83285">
        <time>2023-04-10T08:57:39+00:00</time>
        <ele>2229.0</ele>
      </trkpt>
      <trkpt lat="44.32121" lon="6.83285">
        <time>2023-04-10T08:57:40+00:00</time>
        <ele>2229.0</ele>
      </trkpt>
      <trkpt lat="44.32121" lon="6.83285">
        <time>2023-04-10T08:57:41+00:00</time>
        <ele>2229.0</ele>
      </trkpt>
      <trkpt lat="44.32121" lon="6.83285">
        <time>2023-04-10T08:57:42+00:00</time>
        <ele>2229.0</ele>
      </trkpt>
      <trkpt lat="44.32121" lon="6.83285">
        <time>2023-04-10T08:57:43+00:00</time>
        <ele>2229.0</ele>
      </trkpt>
      <trkpt lat="44.32121" lon="6.83285">
        <time>2023-04-10T08:57:44+00:00</time>
        <ele>2229.0</ele>
      </trkpt>
      <trkpt lat="44.32121" lon="6.83285">
        <time>2023-04-10T08:57:45+00:00</time>
        <ele>2229.0</ele>
      </trkpt>
      <trkpt lat="44.32121" lon="6.83285">
        <time>2023-04-10T08:57:46+00:00</time>
        <ele>2229.0</ele>
      </trkpt>
      <trkpt lat="44.32121" lon="6.83285">
        <time>2023-04-10T08:57:47+00:00</time>
        <ele>2229.0</ele>
      </trkpt>
      <trkpt lat="44.32121" lon="6.83285">
        <time>2023-04-10T08:57:48+00:00</time>
        <ele>2229.0</ele>
      </trkpt>
      <trkpt lat="44.32121" lon="6.83285">
        <time>2023-04-10T08:57:49+00:00</time>
        <ele>2229.0</ele>
      </trkpt>
      <trkpt lat="44.32121" lon="6.83285">
        <time>2023-04-10T08:57:50+00:00</time>
        <ele>2229.0</ele>
      </trkpt>
      <trkpt lat="44.32121" lon="6.83285">
        <time>2023-04-10T08:57:51+00:00</time>
        <ele>2229.0</ele>
      </trkpt>
      <trkpt lat="44.32121" lon="6.83285">
        <time>2023-04-10T08:57:52+00:00</time>
        <ele>2229.0</ele>
      </trkpt>
      <trkpt lat="44.32121" lon="6.83285">
        <time>2023-04-10T08:57:53+00:00</time>
        <ele>2229.0</ele>
      </trkpt>
      <trkpt lat="44.32121" lon="6.83285">
        <time>2023-04-10T08:57:54+00:00</time>
        <ele>2229.0</ele>
      </trkpt>
      <trkpt lat="44.32121" lon="6.83285">
        <time>2023-04-10T08:57:55+00:00</time>
        <ele>2229.0</ele>
      </trkpt>
      <trkpt lat="44.32121" lon="6.83285">
        <time>2023-04-10T08:57:56+00:00</time>
        <ele>2229.0</ele>
      </trkpt>
      <trkpt lat="44.32121" lon="6.83285">
        <time>2023-04-10T08:57:57+00:00</time>
        <ele>2229.0</ele>
      </trkpt>
      <trkpt lat="44.32121" lon="6.83285">
        <time>2023-04-10T08:57:58+00:00</time>
        <ele>2229.0</ele>
      </trkpt>
      <trkpt lat="44.32121" lon="6.83285">
        <time>2023-04-10T08:57:59+00:00</time>
        <ele>2229.0</ele>
      </trkpt>
      <trkpt lat="44.32121" lon="6.83285">
        <time>2023-04-10T08:58:00+00:00</time>
        <ele>2229.0</ele>
      </trkpt>
      <trkpt lat="44.32121" lon="6.83285">
        <time>2023-04-10T08:58:01+00:00</time>
        <ele>2229.0</ele>
      </trkpt>
      <trkpt lat="44.32121" lon="6.83285">
        <time>2023-04-10T08:58:02+00:00</time>
        <ele>2229.0</ele>
      </trkpt>
      <trkpt lat="44.32121" lon="6.83285">
        <time>2023-04-10T08:58:03+00:00</time>
        <ele>2229.0</ele>
      </trkpt>
      <trkpt lat="44.32121" lon="6.83285">
        <time>2023-04-10T08:58:04+00:00</time>
        <ele>2229.0</ele>
      </trkpt>
      <trkpt lat="44.32121" lon="6.83285">
        <time>2023-04-10T08:58:05+00:00</time>
        <ele>2229.0</ele>
      </trkpt>
      <trkpt lat="44.32121" lon="6.83285">
        <time>2023-04-10T08:58:06+00:00</time>
        <ele>2229.0</ele>
      </trkpt>
      <trkpt lat="44.32121" lon="6.83285">
        <time>2023-04-10T08:58:07+00:00</time>
        <ele>2229.0</ele>
      </trkpt>
      <trkpt lat="44.32121" lon="6.83285">
        <time>2023-04-10T08:58:08+00:00</time>
        <ele>2229.0</ele>
      </trkpt>
      <trkpt lat="44.32121" lon="6.83285">
        <time>2023-04-10T08:58:09+00:00</time>
        <ele>2229.0</ele>
      </trkpt>
      <trkpt lat="44.32121" lon="6.83285">
        <time>2023-04-10T08:58:10+00:00</time>
        <ele>2229.0</ele>
      </trkpt>
      <trkpt lat="44.32121" lon="6.83285">
        <time>2023-04-10T08:58:11+00:00</time>
        <ele>2229.0</ele>
      </trkpt>
      <trkpt lat="44.32121" lon="6.83285">
        <time>2023-04-10T08:58:12+00:00</time>
        <ele>2229.0</ele>
      </trkpt>
      <trkpt lat="44.32121" lon="6.83285">
        <time>2023-04-10T08:58:13+00:00</time>
        <ele>2229.0</ele>
      </trkpt>
      <trkpt lat="44.32121" lon="6.83285">
        <time>2023-04-10T08:58:14+00:00</time>
        <ele>2229.0</ele>
      </trkpt>
      <trkpt lat="44.32121" lon="6.83285">
        <time>2023-04-10T08:58:15+00:00</time>
        <ele>2229.0</ele>
      </trkpt>
      <trkpt lat="44.32121" lon="6.83285">
        <time>2023-04-10T08:58:16+00:00</time>
        <ele>2229.0</ele>
      </trkpt>
      <trkpt lat="44.32121" lon="6.83285">
        <time>2023-04-10T08:58:17+00:00</time>
        <ele>2229.0</ele>
      </trkpt>
      <trkpt lat="44.32121" lon="6.83285">
        <time>2023-04-10T08:58:18+00:00</time>
        <ele>2229.0</ele>
      </trkpt>
      <trkpt lat="44.32121" lon="6.83285">
        <time>2023-04-10T08:58:19+00:00</time>
        <ele>2229.0</ele>
      </trkpt>
      <trkpt lat="44.32121" lon="6.83285">
        <time>2023-04-10T08:58:20+00:00</time>
        <ele>2229.0</ele>
      </trkpt>
      <trkpt lat="44.32121" lon="6.83285">
        <time>2023-04-10T08:58:21+00:00</time>
        <ele>2229.0</ele>
      </trkpt>
      <trkpt lat="44.32121" lon="6.83285">
        <time>2023-04-10T08:58:22+00:00</time>
        <ele>2229.0</ele>
      </trkpt>
      <trkpt lat="44.32121" lon="6.83285">
        <time>2023-04-10T08:58:23+00:00</time>
        <ele>2229.0</ele>
      </trkpt>
      <trkpt lat="44.32121" lon="6.83285">
        <time>2023-04-10T08:58:24+00:00</time>
        <ele>2229.0</ele>
      </trkpt>
      <trkpt lat="44.32121" lon="6.83285">
        <time>2023-04-10T08:58:25+00:00</time>
        <ele>2229.0</ele>
      </trkpt>
      <trkpt lat="44.32121" lon="6.83285">
        <time>2023-04-10T08:58:26+00:00</time>
        <ele>2229.0</ele>
      </trkpt>
      <trkpt lat="44.32121" lon="6.83285">
        <time>2023-04-10T08:58:27+00:00</time>
        <ele>2229.0</ele>
      </trkpt>
      <trkpt lat="44.32121" lon="6.83285">
        <time>2023-04-10T08:58:28+00:00</time>
        <ele>2229.0</ele>
      </trkpt>
      <trkpt lat="44.32121" lon="6.83285">
        <time>2023-04-10T08:58:29+00:00</time>
        <ele>2229.0</ele>
      </trkpt>
      <trkpt lat="44.32121" lon="6.83285">
        <time>2023-04-10T08:58:30+00:00</time>
        <ele>2229.0</ele>
      </trkpt>
      <trkpt lat="44.32121" lon="6.83285">
        <time>2023-04-10T08:58:31+00:00</time>
        <ele>2229.0</ele>
      </trkpt>
      <trkpt lat="44.32121" lon="6.83285">
        <time>2023-04-10T08:58:32+00:00</time>
        <ele>2229.0</ele>
      </trkpt>
      <trkpt lat="44.32121" lon="6.83285">
        <time>2023-04-10T08:58:33+00:00</time>
        <ele>2229.0</ele>
      </trkpt>
      <trkpt lat="44.32121" lon="6.83285">
        <time>2023-04-10T08:58:34+00:00</time>
        <ele>2229.0</ele>
      </trkpt>
      <trkpt lat="44.32121" lon="6.83285">
        <time>2023-04-10T08:58:35+00:00</time>
        <ele>2229.0</ele>
      </trkpt>
      <trkpt lat="44.32121" lon="6.83285">
        <time>2023-04-10T08:58:36+00:00</time>
        <ele>2229.0</ele>
      </trkpt>
      <trkpt lat="44.32121" lon="6.83285">
        <time>2023-04-10T08:58:37+00:00</time>
        <ele>2229.0</ele>
      </trkpt>
      <trkpt lat="44.32121" lon="6.83285">
        <time>2023-04-10T08:58:38+00:00</time>
        <ele>2229.0</ele>
      </trkpt>
      <trkpt lat="44.32121" lon="6.83285">
        <time>2023-04-10T08:58:39+00:00</time>
        <ele>2229.0</ele>
      </trkpt>
      <trkpt lat="44.32121" lon="6.83285">
        <time>2023-04-10T08:58:40+00:00</time>
        <ele>2229.0</ele>
      </trkpt>
      <trkpt lat="44.32121" lon="6.83285">
        <time>2023-04-10T08:58:41+00:00</time>
        <ele>2229.0</ele>
      </trkpt>
      <trkpt lat="44.32121" lon="6.83285">
        <time>2023-04-10T08:58:42+00:00</time>
        <ele>2229.0</ele>
      </trkpt>
      <trkpt lat="44.32121" lon="6.83285">
        <time>2023-04-10T08:58:43+00:00</time>
        <ele>2229.0</ele>
      </trkpt>
      <trkpt lat="44.32121" lon="6.83285">
        <time>2023-04-10T08:58:44+00:00</time>
        <ele>2229.0</ele>
      </trkpt>
      <trkpt lat="44.32121" lon="6.83285">
        <time>2023-04-10T08:58:45+00:00</time>
        <ele>2229.0</ele>
      </trkpt>
      <trkpt lat="44.32121" lon="6.83285">
        <time>2023-04-10T08:58:46+00:00</time>
        <ele>2229.0</ele>
      </trkpt>
      <trkpt lat="44.32121" lon="6.83285">
        <time>2023-04-10T08:58:47+00:00</time>
        <ele>2229.0</ele>
      </trkpt>
      <trkpt lat="44.32121" lon="6.83285">
        <time>2023-04-10T08:58:48+00:00</time>
        <ele>2229.0</ele>
      </trkpt>
      <trkpt lat="44.32121" lon="6.83285">
        <time>2023-04-10T08:58:49+00:00</time>
        <ele>2229.0</ele>
      </trkpt>
      <trkpt lat="44.32121" lon="6.83285">
        <time>2023-04-10T08:58:50+00:00</time>
        <ele>2229.0</ele>
      </trkpt>
      <trkpt lat="44.32121" lon="6.83285">
        <time>2023-04-10T08:58:51+00:00</time>
        <ele>2229.0</ele>
      </trkpt>
      <trkpt lat="44.32121" lon="6.83285">
        <time>2023-04-10T08:58:52+00:00</time>
        <ele>2229.0</ele>
      </trkpt>
      <trkpt lat="44.32121" lon="6.83285">
        <time>2023-04-10T08:58:53+00:00</time>
        <ele>2229.0</ele>
      </trkpt>
      <trkpt lat="44.32121" lon="6.83285">
        <time>2023-04-10T08:58:54+00:00</time>
        <ele>2229.0</ele>
      </trkpt>
      <trkpt lat="44.32121" lon="6.83285">
        <time>2023-04-10T08:58:55+00:00</time>
        <ele>2229.0</ele>
      </trkpt>
      <trkpt lat="44.32121" lon="6.83285">
        <time>2023-04-10T08:58:56+00:00</time>
        <ele>2229.0</ele>
      </trkpt>
      <trkpt lat="44.32121" lon="6.83285">
        <time>2023-04-10T08:58:57+00:00</time>
        <ele>2229.0</ele>
      </trkpt>
      <trkpt lat="44.32121" lon="6.83285">
        <time>2023-04-10T08:58:58+00:00</time>
        <ele>2229.0</ele>
      </trkpt>
      <trkpt lat="44.32121" lon="6.83285">
        <time>2023-04-10T08:58:59+00:00</time>
        <ele>2229.0</ele>
      </trkpt>
      <trkpt lat="44.32121" lon="6.83285">
        <time>2023-04-10T08:59:00+00:00</time>
        <ele>2229.0</ele>
      </trkpt>
      <trkpt lat="44.32121" lon="6.83285">
        <time>2023-04-10T08:59:01+00:00</time>
        <ele>2229.0</ele>
      </trkpt>
      <trkpt lat="44.32121" lon="6.83285">
        <time>2023-04-10T08:59:02+00:00</time>
        <ele>2229.0</ele>
      </trkpt>
      <trkpt lat="44.32121" lon="6.83285">
        <time>2023-04-10T08:59:03+00:00</time>
        <ele>2229.0</ele>
      </trkpt>
      <trkpt lat="44.32121" lon="6.83285">
        <time>2023-04-10T08:59:04+00:00</time>
        <ele>2229.0</ele>
      </trkpt>
      <trkpt lat="44.32121" lon="6.83285">
        <time>2023-04-10T08:59:05+00:00</time>
        <ele>2229.0</ele>
      </trkpt>
      <trkpt lat="44.32121" lon="6.83285">
        <time>2023-04-10T08:59:06+00:00</time>
        <ele>2229.0</ele>
      </trkpt>
      <trkpt lat="44.32121" lon="6.83285">
        <time>2023-04-10T08:59:07+00:00</time>
        <ele>2229.0</ele>
      </trkpt>
      <trkpt lat="44.32121" lon="6.83285">
        <time>2023-04-10T08:59:08+00:00</time>
        <ele>2229.0</ele>
      </trkpt>
      <trkpt lat="44.32121" lon="6.83285">
        <time>2023-04-10T08:59:09+00:00</time>
        <ele>2229.0</ele>
      </trkpt>
      <trkpt lat="44.32121" lon="6.83285">
        <time>2023-04-10T08:59:10+00:00</time>
        <ele>2229.0</ele>
      </trkpt>
      <trkpt lat="44.32121" lon="6.83285">
        <time>2023-04-10T08:59:11+00:00</time>
        <ele>2229.0</ele>
      </trkpt>
      <trkpt lat="44.32121" lon="6.83285">
        <time>2023-04-10T08:59:12+00:00</time>
        <ele>2229.0</ele>
      </trkpt>
      <trkpt lat="44.32121" lon="6.83285">
        <time>2023-04-10T08:59:13+00:00</time>
        <ele>2229.0</ele>
      </trkpt>
      <trkpt lat="44.32121" lon="6.83285">
        <time>2023-04-10T08:59:14+00:00</time>
        <ele>2229.0</ele>
      </trkpt>
      <trkpt lat="44.32121" lon="6.83285">
        <time>2023-04-10T08:59:15+00:00</time>
        <ele>2229.0</ele>
      </trkpt>
      <trkpt lat="44.32121" lon="6.83285">
        <time>2023-04-10T08:59:16+00:00</time>
        <ele>2229.0</ele>
      </trkpt>
      <trkpt lat="44.32121" lon="6.83285">
        <time>2023-04-10T08:59:17+00:00</time>
        <ele>2229.0</ele>
      </trkpt>
      <trkpt lat="44.32121" lon="6.83285">
        <time>2023-04-10T08:59:18+00:00</time>
        <ele>2229.0</ele>
      </trkpt>
      <trkpt lat="44.32121" lon="6.83285">
        <time>2023-04-10T08:59:19+00:00</time>
        <ele>2229.0</ele>
      </trkpt>
      <trkpt lat="44.32121" lon="6.83285">
        <time>2023-04-10T08:59:20+00:00</time>
        <ele>2229.0</ele>
      </trkpt>
      <trkpt lat="44.32121" lon="6.83285">
        <time>2023-04-10T08:59:21+00:00</time>
        <ele>2229.0</ele>
      </trkpt>
      <trkpt lat="44.32121" lon="6.83285">
        <time>2023-04-10T08:59:22+00:00</time>
        <ele>2229.0</ele>
      </trkpt>
      <trkpt lat="44.32121" lon="6.83285">
        <time>2023-04-10T08:59:23+00:00</time>
        <ele>2229.0</ele>
      </trkpt>
      <trkpt lat="44.32121" lon="6.83285">
        <time>2023-04-10T08:59:24+00:00</time>
        <ele>2229.0</ele>
      </trkpt>
      <trkpt lat="44.32121" lon="6.83285">
        <time>2023-04-10T08:59:25+00:00</time>
        <ele>2229.0</ele>
      </trkpt>
      <trkpt lat="44.32121" lon="6.83285">
        <time>2023-04-10T08:59:26+00:00</time>
        <ele>2229.0</ele>
      </trkpt>
      <trkpt lat="44.32121" lon="6.83285">
        <time>2023-04-10T08:59:27+00:00</time>
        <ele>2229.0</ele>
      </trkpt>
      <trkpt lat="44.32121" lon="6.83285">
        <time>2023-04-10T08:59:28+00:00</time>
        <ele>2229.0</ele>
      </trkpt>
      <trkpt lat="44.32121" lon="6.83285">
        <time>2023-04-10T08:59:29+00:00</time>
        <ele>2229.0</ele>
      </trkpt>
      <trkpt lat="44.32121" lon="6.83285">
        <time>2023-04-10T08:59:30+00:00</time>
        <ele>2229.0</ele>
      </trkpt>
      <trkpt lat="44.32121" lon="6.83285">
        <time>2023-04-10T08:59:31+00:00</time>
        <ele>2229.0</ele>
      </trkpt>
      <trkpt lat="44.32121" lon="6.83285">
        <time>2023-04-10T08:59:32+00:00</time>
        <ele>2229.0</ele>
      </trkpt>
      <trkpt lat="44.32121" lon="6.83285">
        <time>2023-04-10T08:59:33+00:00</time>
        <ele>2229.0</ele>
      </trkpt>
      <trkpt lat="44.32121" lon="6.83285">
        <time>2023-04-10T08:59:34+00:00</time>
        <ele>2229.0</ele>
      </trkpt>
      <trkpt lat="44.32121" lon="6.83285">
        <time>2023-04-10T08:59:35+00:00</time>
        <ele>2229.0</ele>
      </trkpt>
      <trkpt lat="44.32121" lon="6.83285">
        <time>2023-04-10T08:59:36+00:00</time>
        <ele>2229.0</ele>
      </trkpt>
      <trkpt lat="44.32121" lon="6.83285">
        <time>2023-04-10T08:59:37+00:00</time>
        <ele>2229.0</ele>
      </trkpt>
      <trkpt lat="44.32121" lon="6.83285">
        <time>2023-04-10T08:59:38+00:00</time>
        <ele>2229.0</ele>
      </trkpt>
      <trkpt lat="44.32121" lon="6.83285">
        <time>2023-04-10T08:59:39+00:00</time>
        <ele>2229.0</ele>
      </trkpt>
      <trkpt lat="44.32121" lon="6.83285">
        <time>2023-04-10T08:59:40+00:00</time>
        <ele>2229.0</ele>
      </trkpt>
      <trkpt lat="44.32121" lon="6.83285">
        <time>2023-04-10T08:59:41+00:00</time>
        <ele>2229.0</ele>
      </trkpt>
      <trkpt lat="44.32121" lon="6.83285">
        <time>2023-04-10T08:59:42+00:00</time>
        <ele>2229.0</ele>
      </trkpt>
      <trkpt lat="44.32121" lon="6.83285">
        <time>2023-04-10T08:59:43+00:00</time>
        <ele>2229.0</ele>
      </trkpt>
      <trkpt lat="44.32121" lon="6.83285">
        <time>2023-04-10T08:59:44+00:00</time>
        <ele>2229.0</ele>
      </trkpt>
      <trkpt lat="44.32121" lon="6.83285">
        <time>2023-04-10T08:59:45+00:00</time>
        <ele>2229.0</ele>
      </trkpt>
      <trkpt lat="44.32121" lon="6.83285">
        <time>2023-04-10T08:59:46+00:00</time>
        <ele>2229.0</ele>
      </trkpt>
      <trkpt lat="44.32121" lon="6.83285">
        <time>2023-04-10T08:59:47+00:00</time>
        <ele>2229.0</ele>
      </trkpt>
      <trkpt lat="44.32121" lon="6.83285">
        <time>2023-04-10T08:59:48+00:00</time>
        <ele>2229.0</ele>
      </trkpt>
      <trkpt lat="44.32121" lon="6.83285">
        <time>2023-04-10T08:59:49+00:00</time>
        <ele>2229.0</ele>
      </trkpt>
      <trkpt lat="44.32121" lon="6.83285">
        <time>2023-04-10T08:59:50+00:00</time>
        <ele>2229.0</ele>
      </trkpt>
      <trkpt lat="44.32121" lon="6.83285">
        <time>2023-04-10T08:59:51+00:00</time>
        <ele>2229.0</ele>
      </trkpt>
      <trkpt lat="44.32121" lon="6.83285">
        <time>2023-04-10T08:59:52+00:00</time>
        <ele>2229.0</ele>
      </trkpt>
      <trkpt lat="44.32121" lon="6.83285">
        <time>2023-04-10T08:59:53+00:00</time>
        <ele>2229.0</ele>
      </trkpt>
      <trkpt lat="44.32121" lon="6.83285">
        <time>2023-04-10T08:59:54+00:00</time>
        <ele>2229.0</ele>
      </trkpt>
      <trkpt lat="44.32121" lon="6.83285">
        <time>2023-04-10T08:59:55+00:00</time>
        <ele>2229.0</ele>
      </trkpt>
      <trkpt lat="44.32121" lon="6.83285">
        <time>2023-04-10T08:59:56+00:00</time>
        <ele>2229.0</ele>
      </trkpt>
      <trkpt lat="44.32121" lon="6.83285">
        <time>2023-04-10T08:59:57+00:00</time>
        <ele>2229.0</ele>
      </trkpt>
      <trkpt lat="44.32121" lon="6.83285">
        <time>2023-04-10T08:59:58+00:00</time>
        <ele>2229.0</ele>
      </trkpt>
      <trkpt lat="44.32121" lon="6.83285">
        <time>2023-04-10T08:59:59+00:00</time>
        <ele>2229.0</ele>
      </trkpt>
      <trkpt lat="44.32121" lon="6.83285">
        <time>2023-04-10T09:00:00+00:00</time>
        <ele>2229.0</ele>
      </trkpt>
      <trkpt lat="44.32121" lon="6.83285">
        <time>2023-04-10T09:00:03+00:00</time>
        <ele>2229.0</ele>
      </trkpt>
      <trkpt lat="44.32121" lon="6.83285">
        <time>2023-04-10T09:00:04+00:00</time>
        <ele>2229.0</ele>
      </trkpt>
      <trkpt lat="44.32121" lon="6.83285">
        <time>2023-04-10T09:00:05+00:00</time>
        <ele>2229.0</ele>
      </trkpt>
      <trkpt lat="44.32121" lon="6.83285">
        <time>2023-04-10T09:00:06+00:00</time>
        <ele>2229.0</ele>
      </trkpt>
      <trkpt lat="44.32121" lon="6.83285">
        <time>2023-04-10T09:00:07+00:00</time>
        <ele>2229.0</ele>
      </trkpt>
      <trkpt lat="44.32121" lon="6.83285">
        <time>2023-04-10T09:00:08+00:00</time>
        <ele>2229.0</ele>
      </trkpt>
      <trkpt lat="44.32121" lon="6.83285">
        <time>2023-04-10T09:00:09+00:00</time>
        <ele>2229.0</ele>
      </trkpt>
      <trkpt lat="44.32121" lon="6.83285">
        <time>2023-04-10T09:00:10+00:00</time>
        <ele>2229.0</ele>
      </trkpt>
      <trkpt lat="44.32121" lon="6.83285">
        <time>2023-04-10T09:00:11+00:00</time>
        <ele>2229.0</ele>
      </trkpt>
      <trkpt lat="44.32121" lon="6.83285">
        <time>2023-04-10T09:00:12+00:00</time>
        <ele>2229.0</ele>
      </trkpt>
      <trkpt lat="44.32121" lon="6.83285">
        <time>2023-04-10T09:00:13+00:00</time>
        <ele>2229.0</ele>
      </trkpt>
      <trkpt lat="44.32121" lon="6.83285">
        <time>2023-04-10T09:00:14+00:00</time>
        <ele>2229.0</ele>
      </trkpt>
      <trkpt lat="44.32121" lon="6.83285">
        <time>2023-04-10T09:00:15+00:00</time>
        <ele>2229.0</ele>
      </trkpt>
      <trkpt lat="44.32121" lon="6.83285">
        <time>2023-04-10T09:00:16+00:00</time>
        <ele>2229.0</ele>
      </trkpt>
      <trkpt lat="44.32121" lon="6.83285">
        <time>2023-04-10T09:00:17+00:00</time>
        <ele>2229.0</ele>
      </trkpt>
      <trkpt lat="44.32121" lon="6.83285">
        <time>2023-04-10T09:00:18+00:00</time>
        <ele>2229.0</ele>
      </trkpt>
      <trkpt lat="44.32121" lon="6.83285">
        <time>2023-04-10T09:00:19+00:00</time>
        <ele>2229.0</ele>
      </trkpt>
      <trkpt lat="44.32121" lon="6.83285">
        <time>2023-04-10T09:00:20+00:00</time>
        <ele>2229.0</ele>
      </trkpt>
      <trkpt lat="44.32121" lon="6.83285">
        <time>2023-04-10T09:00:21+00:00</time>
        <ele>2229.0</ele>
      </trkpt>
      <trkpt lat="44.32121" lon="6.83285">
        <time>2023-04-10T09:00:22+00:00</time>
        <ele>2229.0</ele>
      </trkpt>
      <trkpt lat="44.32121" lon="6.83285">
        <time>2023-04-10T09:00:23+00:00</time>
        <ele>2229.0</ele>
      </trkpt>
      <trkpt lat="44.32121" lon="6.83285">
        <time>2023-04-10T09:00:24+00:00</time>
        <ele>2229.0</ele>
      </trkpt>
      <trkpt lat="44.32121" lon="6.83285">
        <time>2023-04-10T09:00:25+00:00</time>
        <ele>2229.0</ele>
      </trkpt>
      <trkpt lat="44.32121" lon="6.83285">
        <time>2023-04-10T09:00:26+00:00</time>
        <ele>2229.0</ele>
      </trkpt>
      <trkpt lat="44.32121" lon="6.83285">
        <time>2023-04-10T09:00:27+00:00</time>
        <ele>2229.0</ele>
      </trkpt>
      <trkpt lat="44.32121" lon="6.83285">
        <time>2023-04-10T09:00:28+00:00</time>
        <ele>2229.0</ele>
      </trkpt>
      <trkpt lat="44.32121" lon="6.83285">
        <time>2023-04-10T09:00:29+00:00</time>
        <ele>2229.0</ele>
      </trkpt>
      <trkpt lat="44.32121" lon="6.83285">
        <time>2023-04-10T09:00:30+00:00</time>
        <ele>2229.0</ele>
      </trkpt>
      <trkpt lat="44.32121" lon="6.83285">
        <time>2023-04-10T09:00:31+00:00</time>
        <ele>2229.0</ele>
      </trkpt>
      <trkpt lat="44.32121" lon="6.83285">
        <time>2023-04-10T09:00:32+00:00</time>
        <ele>2229.0</ele>
      </trkpt>
      <trkpt lat="44.32121" lon="6.83285">
        <time>2023-04-10T09:00:33+00:00</time>
        <ele>2229.0</ele>
      </trkpt>
      <trkpt lat="44.32121" lon="6.83285">
        <time>2023-04-10T09:00:34+00:00</time>
        <ele>2229.0</ele>
      </trkpt>
      <trkpt lat="44.32121" lon="6.83285">
        <time>2023-04-10T09:00:35+00:00</time>
        <ele>2229.0</ele>
      </trkpt>
      <trkpt lat="44.32121" lon="6.83285">
        <time>2023-04-10T09:00:36+00:00</time>
        <ele>2229.0</ele>
      </trkpt>
      <trkpt lat="44.32121" lon="6.83285">
        <time>2023-04-10T09:00:37+00:00</time>
        <ele>2229.0</ele>
      </trkpt>
      <trkpt lat="44.32121" lon="6.83285">
        <time>2023-04-10T09:00:38+00:00</time>
        <ele>2229.0</ele>
      </trkpt>
      <trkpt lat="44.32121" lon="6.83285">
        <time>2023-04-10T09:00:39+00:00</time>
        <ele>2229.0</ele>
      </trkpt>
      <trkpt lat="44.32121" lon="6.83285">
        <time>2023-04-10T09:00:40+00:00</time>
        <ele>2229.0</ele>
      </trkpt>
      <trkpt lat="44.32121" lon="6.83285">
        <time>2023-04-10T09:00:41+00:00</time>
        <ele>2229.0</ele>
      </trkpt>
      <trkpt lat="44.32121" lon="6.83285">
        <time>2023-04-10T09:00:42+00:00</time>
        <ele>2229.0</ele>
      </trkpt>
      <trkpt lat="44.32121" lon="6.83285">
        <time>2023-04-10T09:00:43+00:00</time>
        <ele>2229.0</ele>
      </trkpt>
      <trkpt lat="44.32121" lon="6.83285">
        <time>2023-04-10T09:00:44+00:00</time>
        <ele>2229.0</ele>
      </trkpt>
      <trkpt lat="44.32121" lon="6.83285">
        <time>2023-04-10T09:00:45+00:00</time>
        <ele>2229.0</ele>
      </trkpt>
      <trkpt lat="44.32121" lon="6.83285">
        <time>2023-04-10T09:00:46+00:00</time>
        <ele>2229.0</ele>
      </trkpt>
      <trkpt lat="44.32121" lon="6.83285">
        <time>2023-04-10T09:00:47+00:00</time>
        <ele>2229.0</ele>
      </trkpt>
      <trkpt lat="44.32121" lon="6.83285">
        <time>2023-04-10T09:00:48+00:00</time>
        <ele>2229.0</ele>
      </trkpt>
      <trkpt lat="44.32121" lon="6.83285">
        <time>2023-04-10T09:00:50+00:00</time>
        <ele>2229.0</ele>
      </trkpt>
      <trkpt lat="44.32121" lon="6.83285">
        <time>2023-04-10T09:00:51+00:00</time>
        <ele>2229.0</ele>
      </trkpt>
      <trkpt lat="44.32121" lon="6.83285">
        <time>2023-04-10T09:00:52+00:00</time>
        <ele>2229.0</ele>
      </trkpt>
      <trkpt lat="44.32121" lon="6.83285">
        <time>2023-04-10T09:00:53+00:00</time>
        <ele>2229.0</ele>
      </trkpt>
      <trkpt lat="44.32121" lon="6.83285">
        <time>2023-04-10T09:00:54+00:00</time>
        <ele>2229.0</ele>
      </trkpt>
      <trkpt lat="44.32121" lon="6.83285">
        <time>2023-04-10T09:00:55+00:00</time>
        <ele>2229.0</ele>
      </trkpt>
      <trkpt lat="44.32121" lon="6.83285">
        <time>2023-04-10T09:00:56+00:00</time>
        <ele>2229.0</ele>
      </trkpt>
      <trkpt lat="44.32121" lon="6.83285">
        <time>2023-04-10T09:00:57+00:00</time>
        <ele>2229.0</ele>
      </trkpt>
      <trkpt lat="44.32121" lon="6.83285">
        <time>2023-04-10T09:00:58+00:00</time>
        <ele>2229.0</ele>
      </trkpt>
      <trkpt lat="44.32121" lon="6.83285">
        <time>2023-04-10T09:00:59+00:00</time>
        <ele>2229.0</ele>
      </trkpt>
      <trkpt lat="44.32121" lon="6.83285">
        <time>2023-04-10T09:01:00+00:00</time>
        <ele>2229.0</ele>
      </trkpt>
      <trkpt lat="44.32121" lon="6.83285">
        <time>2023-04-10T09:01:01+00:00</time>
        <ele>2229.0</ele>
      </trkpt>
      <trkpt lat="44.32121" lon="6.83285">
        <time>2023-04-10T09:01:02+00:00</time>
        <ele>2229.0</ele>
      </trkpt>
      <trkpt lat="44.32121" lon="6.83285">
        <time>2023-04-10T09:01:03+00:00</time>
        <ele>2229.0</ele>
      </trkpt>
      <trkpt lat="44.32121" lon="6.83285">
        <time>2023-04-10T09:01:04+00:00</time>
        <ele>2229.0</ele>
      </trkpt>
      <trkpt lat="44.32121" lon="6.83285">
        <time>2023-04-10T09:01:05+00:00</time>
        <ele>2229.0</ele>
      </trkpt>
      <trkpt lat="44.32121" lon="6.83285">
        <time>2023-04-10T09:01:06+00:00</time>
        <ele>2229.0</ele>
      </trkpt>
      <trkpt lat="44.32121" lon="6.83285">
        <time>2023-04-10T09:01:07+00:00</time>
        <ele>2229.0</ele>
      </trkpt>
      <trkpt lat="44.32121" lon="6.83285">
        <time>2023-04-10T09:01:08+00:00</time>
        <ele>2229.0</ele>
      </trkpt>
      <trkpt lat="44.32121" lon="6.83285">
        <time>2023-04-10T09:01:09+00:00</time>
        <ele>2229.0</ele>
      </trkpt>
      <trkpt lat="44.32121" lon="6.83285">
        <time>2023-04-10T09:01:10+00:00</time>
        <ele>2229.0</ele>
      </trkpt>
      <trkpt lat="44.32121" lon="6.83285">
        <time>2023-04-10T09:01:11+00:00</time>
        <ele>2229.0</ele>
      </trkpt>
      <trkpt lat="44.32121" lon="6.83285">
        <time>2023-04-10T09:01:12+00:00</time>
        <ele>2229.0</ele>
      </trkpt>
      <trkpt lat="44.32121" lon="6.83285">
        <time>2023-04-10T09:01:13+00:00</time>
        <ele>2229.0</ele>
      </trkpt>
      <trkpt lat="44.32121" lon="6.83285">
        <time>2023-04-10T09:01:14+00:00</time>
        <ele>2229.0</ele>
      </trkpt>
      <trkpt lat="44.32121" lon="6.83285">
        <time>2023-04-10T09:01:15+00:00</time>
        <ele>2229.0</ele>
      </trkpt>
      <trkpt lat="44.32121" lon="6.83285">
        <time>2023-04-10T09:01:16+00:00</time>
        <ele>2229.0</ele>
      </trkpt>
      <trkpt lat="44.32121" lon="6.83285">
        <time>2023-04-10T09:01:17+00:00</time>
        <ele>2229.0</ele>
      </trkpt>
      <trkpt lat="44.32121" lon="6.83285">
        <time>2023-04-10T09:01:18+00:00</time>
        <ele>2229.0</ele>
      </trkpt>
      <trkpt lat="44.32121" lon="6.83285">
        <time>2023-04-10T09:01:19+00:00</time>
        <ele>2229.0</ele>
      </trkpt>
      <trkpt lat="44.32121" lon="6.83285">
        <time>2023-04-10T09:01:20+00:00</time>
        <ele>2229.0</ele>
      </trkpt>
      <trkpt lat="44.32121" lon="6.83285">
        <time>2023-04-10T09:01:21+00:00</time>
        <ele>2229.0</ele>
      </trkpt>
      <trkpt lat="44.32121" lon="6.83285">
        <time>2023-04-10T09:01:22+00:00</time>
        <ele>2229.0</ele>
      </trkpt>
      <trkpt lat="44.32121" lon="6.83285">
        <time>2023-04-10T09:01:23+00:00</time>
        <ele>2229.0</ele>
      </trkpt>
      <trkpt lat="44.32121" lon="6.83285">
        <time>2023-04-10T09:01:24+00:00</time>
        <ele>2229.0</ele>
      </trkpt>
      <trkpt lat="44.32121" lon="6.83285">
        <time>2023-04-10T09:01:25+00:00</time>
        <ele>2229.0</ele>
      </trkpt>
      <trkpt lat="44.32121" lon="6.83285">
        <time>2023-04-10T09:01:26+00:00</time>
        <ele>2229.0</ele>
      </trkpt>
      <trkpt lat="44.32121" lon="6.83285">
        <time>2023-04-10T09:01:27+00:00</time>
        <ele>2229.0</ele>
      </trkpt>
      <trkpt lat="44.32121" lon="6.83285">
        <time>2023-04-10T09:01:28+00:00</time>
        <ele>2229.0</ele>
      </trkpt>
      <trkpt lat="44.32121" lon="6.83285">
        <time>2023-04-10T09:01:29+00:00</time>
        <ele>2229.0</ele>
      </trkpt>
      <trkpt lat="44.32121" lon="6.83285">
        <time>2023-04-10T09:01:30+00:00</time>
        <ele>2229.0</ele>
      </trkpt>
      <trkpt lat="44.32121" lon="6.83285">
        <time>2023-04-10T09:01:31+00:00</time>
        <ele>2229.0</ele>
      </trkpt>
      <trkpt lat="44.32121" lon="6.83285">
        <time>2023-04-10T09:01:32+00:00</time>
        <ele>2229.0</ele>
      </trkpt>
      <trkpt lat="44.32121" lon="6.83285">
        <time>2023-04-10T09:01:33+00:00</time>
        <ele>2229.0</ele>
      </trkpt>
      <trkpt lat="44.32121" lon="6.83285">
        <time>2023-04-10T09:01:34+00:00</time>
        <ele>2229.0</ele>
      </trkpt>
      <trkpt lat="44.32121" lon="6.83285">
        <time>2023-04-10T09:01:35+00:00</time>
        <ele>2229.0</ele>
      </trkpt>
      <trkpt lat="44.32121" lon="6.83285">
        <time>2023-04-10T09:01:36+00:00</time>
        <ele>2229.0</ele>
      </trkpt>
      <trkpt lat="44.32121" lon="6.83285">
        <time>2023-04-10T09:01:37+00:00</time>
        <ele>2229.0</ele>
      </trkpt>
      <trkpt lat="44.32121" lon="6.83285">
        <time>2023-04-10T09:01:38+00:00</time>
        <ele>2229.0</ele>
      </trkpt>
      <trkpt lat="44.32121" lon="6.83285">
        <time>2023-04-10T09:01:39+00:00</time>
        <ele>2229.0</ele>
      </trkpt>
      <trkpt lat="44.32121" lon="6.83285">
        <time>2023-04-10T09:01:40+00:00</time>
        <ele>2229.0</ele>
      </trkpt>
      <trkpt lat="44.32121" lon="6.83285">
        <time>2023-04-10T09:01:41+00:00</time>
        <ele>2229.0</ele>
      </trkpt>
      <trkpt lat="44.32121" lon="6.83285">
        <time>2023-04-10T09:01:42+00:00</time>
        <ele>2229.0</ele>
      </trkpt>
      <trkpt lat="44.32121" lon="6.83285">
        <time>2023-04-10T09:01:43+00:00</time>
        <ele>2229.0</ele>
      </trkpt>
      <trkpt lat="44.32121" lon="6.83285">
        <time>2023-04-10T09:01:44+00:00</time>
        <ele>2229.0</ele>
      </trkpt>
      <trkpt lat="44.32121" lon="6.83285">
        <time>2023-04-10T09:01:45+00:00</time>
        <ele>2229.0</ele>
      </trkpt>
      <trkpt lat="44.32121" lon="6.83285">
        <time>2023-04-10T09:01:46+00:00</time>
        <ele>2229.0</ele>
      </trkpt>
      <trkpt lat="44.32121" lon="6.83285">
        <time>2023-04-10T09:01:47+00:00</time>
        <ele>2229.0</ele>
      </trkpt>
      <trkpt lat="44.32121" lon="6.83285">
        <time>2023-04-10T09:01:48+00:00</time>
        <ele>2229.0</ele>
      </trkpt>
      <trkpt lat="44.32121" lon="6.83285">
        <time>2023-04-10T09:01:49+00:00</time>
        <ele>2229.0</ele>
      </trkpt>
      <trkpt lat="44.32121" lon="6.83285">
        <time>2023-04-10T09:01:50+00:00</time>
        <ele>2229.0</ele>
      </trkpt>
      <trkpt lat="44.32121" lon="6.83285">
        <time>2023-04-10T09:01:51+00:00</time>
        <ele>2229.0</ele>
      </trkpt>
      <trkpt lat="44.32121" lon="6.83285">
        <time>2023-04-10T09:01:52+00:00</time>
        <ele>2229.0</ele>
      </trkpt>
      <trkpt lat="44.32121" lon="6.83285">
        <time>2023-04-10T09:01:53+00:00</time>
        <ele>2229.0</ele>
      </trkpt>
      <trkpt lat="44.32121" lon="6.83285">
        <time>2023-04-10T09:01:54+00:00</time>
        <ele>2229.0</ele>
      </trkpt>
      <trkpt lat="44.32121" lon="6.83285">
        <time>2023-04-10T09:01:55+00:00</time>
        <ele>2229.0</ele>
      </trkpt>
      <trkpt lat="44.32121" lon="6.83285">
        <time>2023-04-10T09:01:56+00:00</time>
        <ele>2229.0</ele>
      </trkpt>
      <trkpt lat="44.32121" lon="6.83285">
        <time>2023-04-10T09:01:57+00:00</time>
        <ele>2229.0</ele>
      </trkpt>
      <trkpt lat="44.32121" lon="6.83285">
        <time>2023-04-10T09:01:58+00:00</time>
        <ele>2229.0</ele>
      </trkpt>
      <trkpt lat="44.32121" lon="6.83285">
        <time>2023-04-10T09:01:59+00:00</time>
        <ele>2229.0</ele>
      </trkpt>
      <trkpt lat="44.32121" lon="6.83285">
        <time>2023-04-10T09:02:00+00:00</time>
        <ele>2229.0</ele>
      </trkpt>
      <trkpt lat="44.32121" lon="6.83285">
        <time>2023-04-10T09:02:01+00:00</time>
        <ele>2229.0</ele>
      </trkpt>
      <trkpt lat="44.32121" lon="6.83285">
        <time>2023-04-10T09:02:02+00:00</time>
        <ele>2229.0</ele>
      </trkpt>
      <trkpt lat="44.32121" lon="6.83285">
        <time>2023-04-10T09:02:03+00:00</time>
        <ele>2229.0</ele>
      </trkpt>
      <trkpt lat="44.32121" lon="6.83285">
        <time>2023-04-10T09:02:04+00:00</time>
        <ele>2229.0</ele>
      </trkpt>
      <trkpt lat="44.32121" lon="6.83285">
        <time>2023-04-10T09:02:05+00:00</time>
        <ele>2229.0</ele>
      </trkpt>
      <trkpt lat="44.32121" lon="6.83285">
        <time>2023-04-10T09:02:06+00:00</time>
        <ele>2229.0</ele>
      </trkpt>
      <trkpt lat="44.32121" lon="6.83285">
        <time>2023-04-10T09:02:07+00:00</time>
        <ele>2229.0</ele>
      </trkpt>
      <trkpt lat="44.32121" lon="6.83285">
        <time>2023-04-10T09:02:08+00:00</time>
        <ele>2229.0</ele>
      </trkpt>
      <trkpt lat="44.32121" lon="6.83285">
        <time>2023-04-10T09:02:09+00:00</time>
        <ele>2229.0</ele>
      </trkpt>
      <trkpt lat="44.32121" lon="6.83285">
        <time>2023-04-10T09:02:10+00:00</time>
        <ele>2229.0</ele>
      </trkpt>
      <trkpt lat="44.32121" lon="6.83285">
        <time>2023-04-10T09:02:11+00:00</time>
        <ele>2229.0</ele>
      </trkpt>
      <trkpt lat="44.32121" lon="6.83285">
        <time>2023-04-10T09:02:12+00:00</time>
        <ele>2229.0</ele>
      </trkpt>
      <trkpt lat="44.32121" lon="6.83285">
        <time>2023-04-10T09:02:13+00:00</time>
        <ele>2229.0</ele>
      </trkpt>
      <trkpt lat="44.32121" lon="6.83285">
        <time>2023-04-10T09:02:14+00:00</time>
        <ele>2229.0</ele>
      </trkpt>
      <trkpt lat="44.32121" lon="6.83285">
        <time>2023-04-10T09:02:15+00:00</time>
        <ele>2229.0</ele>
      </trkpt>
      <trkpt lat="44.32121" lon="6.83285">
        <time>2023-04-10T09:02:16+00:00</time>
        <ele>2229.0</ele>
      </trkpt>
      <trkpt lat="44.32121" lon="6.83285">
        <time>2023-04-10T09:02:17+00:00</time>
        <ele>2229.0</ele>
      </trkpt>
      <trkpt lat="44.32121" lon="6.83285">
        <time>2023-04-10T09:02:18+00:00</time>
        <ele>2229.0</ele>
      </trkpt>
      <trkpt lat="44.32121" lon="6.83285">
        <time>2023-04-10T09:02:19+00:00</time>
        <ele>2229.0</ele>
      </trkpt>
      <trkpt lat="44.32121" lon="6.83285">
        <time>2023-04-10T09:02:20+00:00</time>
        <ele>2229.0</ele>
      </trkpt>
      <trkpt lat="44.32121" lon="6.83285">
        <time>2023-04-10T09:02:21+00:00</time>
        <ele>2229.0</ele>
      </trkpt>
      <trkpt lat="44.32121" lon="6.83285">
        <time>2023-04-10T09:02:22+00:00</time>
        <ele>2229.0</ele>
      </trkpt>
      <trkpt lat="44.32121" lon="6.83285">
        <time>2023-04-10T09:02:23+00:00</time>
        <ele>2229.0</ele>
      </trkpt>
      <trkpt lat="44.32121" lon="6.83285">
        <time>2023-04-10T09:02:24+00:00</time>
        <ele>2229.0</ele>
      </trkpt>
      <trkpt lat="44.32121" lon="6.83285">
        <time>2023-04-10T09:02:25+00:00</time>
        <ele>2229.0</ele>
      </trkpt>
      <trkpt lat="44.32121" lon="6.83285">
        <time>2023-04-10T09:02:26+00:00</time>
        <ele>2229.0</ele>
      </trkpt>
      <trkpt lat="44.32121" lon="6.83285">
        <time>2023-04-10T09:02:27+00:00</time>
        <ele>2229.0</ele>
      </trkpt>
      <trkpt lat="44.32121" lon="6.83285">
        <time>2023-04-10T09:02:28+00:00</time>
        <ele>2229.0</ele>
      </trkpt>
      <trkpt lat="44.32121" lon="6.83285">
        <time>2023-04-10T09:02:29+00:00</time>
        <ele>2229.0</ele>
      </trkpt>
      <trkpt lat="44.32121" lon="6.83285">
        <time>2023-04-10T09:02:30+00:00</time>
        <ele>2229.0</ele>
      </trkpt>
      <trkpt lat="44.32121" lon="6.83285">
        <time>2023-04-10T09:02:31+00:00</time>
        <ele>2229.0</ele>
      </trkpt>
      <trkpt lat="44.32121" lon="6.83285">
        <time>2023-04-10T09:02:32+00:00</time>
        <ele>2229.0</ele>
      </trkpt>
      <trkpt lat="44.32121" lon="6.83285">
        <time>2023-04-10T09:02:33+00:00</time>
        <ele>2229.0</ele>
      </trkpt>
      <trkpt lat="44.32121" lon="6.83285">
        <time>2023-04-10T09:02:34+00:00</time>
        <ele>2229.0</ele>
      </trkpt>
      <trkpt lat="44.32121" lon="6.83285">
        <time>2023-04-10T09:02:35+00:00</time>
        <ele>2229.0</ele>
      </trkpt>
      <trkpt lat="44.32121" lon="6.83285">
        <time>2023-04-10T09:02:36+00:00</time>
        <ele>2229.0</ele>
      </trkpt>
      <trkpt lat="44.32121" lon="6.83285">
        <time>2023-04-10T09:02:37+00:00</time>
        <ele>2229.0</ele>
      </trkpt>
      <trkpt lat="44.32121" lon="6.83285">
        <time>2023-04-10T09:02:38+00:00</time>
        <ele>2229.0</ele>
      </trkpt>
      <trkpt lat="44.32121" lon="6.83285">
        <time>2023-04-10T09:02:39+00:00</time>
        <ele>2229.0</ele>
      </trkpt>
      <trkpt lat="44.32121" lon="6.83285">
        <time>2023-04-10T09:02:40+00:00</time>
        <ele>2229.0</ele>
      </trkpt>
      <trkpt lat="44.32121" lon="6.83285">
        <time>2023-04-10T09:02:41+00:00</time>
        <ele>2229.0</ele>
      </trkpt>
      <trkpt lat="44.32121" lon="6.83285">
        <time>2023-04-10T09:02:42+00:00</time>
        <ele>2229.0</ele>
      </trkpt>
      <trkpt lat="44.32121" lon="6.83285">
        <time>2023-04-10T09:02:43+00:00</time>
        <ele>2229.0</ele>
      </trkpt>
      <trkpt lat="44.32121" lon="6.83285">
        <time>2023-04-10T09:02:44+00:00</time>
        <ele>2229.0</ele>
      </trkpt>
      <trkpt lat="44.32121" lon="6.83285">
        <time>2023-04-10T09:02:45+00:00</time>
        <ele>2229.0</ele>
      </trkpt>
      <trkpt lat="44.32121" lon="6.83285">
        <time>2023-04-10T09:02:46+00:00</time>
        <ele>2229.0</ele>
      </trkpt>
      <trkpt lat="44.32121" lon="6.83285">
        <time>2023-04-10T09:02:47+00:00</time>
        <ele>2229.0</ele>
      </trkpt>
      <trkpt lat="44.32121" lon="6.83285">
        <time>2023-04-10T09:02:48+00:00</time>
        <ele>2229.0</ele>
      </trkpt>
      <trkpt lat="44.32121" lon="6.83285">
        <time>2023-04-10T09:02:49+00:00</time>
        <ele>2229.0</ele>
      </trkpt>
      <trkpt lat="44.32121" lon="6.83285">
        <time>2023-04-10T09:02:50+00:00</time>
        <ele>2229.0</ele>
      </trkpt>
      <trkpt lat="44.32121" lon="6.83285">
        <time>2023-04-10T09:02:51+00:00</time>
        <ele>2229.0</ele>
      </trkpt>
      <trkpt lat="44.32121" lon="6.83285">
        <time>2023-04-10T09:02:52+00:00</time>
        <ele>2229.0</ele>
      </trkpt>
      <trkpt lat="44.32121" lon="6.83285">
        <time>2023-04-10T09:02:53+00:00</time>
        <ele>2229.0</ele>
      </trkpt>
      <trkpt lat="44.32121" lon="6.83285">
        <time>2023-04-10T09:02:54+00:00</time>
        <ele>2229.0</ele>
      </trkpt>
      <trkpt lat="44.32121" lon="6.83285">
        <time>2023-04-10T09:02:55+00:00</time>
        <ele>2229.0</ele>
      </trkpt>
      <trkpt lat="44.32121" lon="6.83285">
        <time>2023-04-10T09:02:56+00:00</time>
        <ele>2229.0</ele>
      </trkpt>
      <trkpt lat="44.32121" lon="6.83285">
        <time>2023-04-10T09:02:57+00:00</time>
        <ele>2229.0</ele>
      </trkpt>
      <trkpt lat="44.32121" lon="6.83285">
        <time>2023-04-10T09:02:58+00:00</time>
        <ele>2229.0</ele>
      </trkpt>
      <trkpt lat="44.32121" lon="6.83285">
        <time>2023-04-10T09:02:59+00:00</time>
        <ele>2229.0</ele>
      </trkpt>
      <trkpt lat="44.32121" lon="6.83285">
        <time>2023-04-10T09:03:00+00:00</time>
        <ele>2229.0</ele>
      </trkpt>
      <trkpt lat="44.32121" lon="6.83285">
        <time>2023-04-10T09:03:01+00:00</time>
        <ele>2229.0</ele>
      </trkpt>
      <trkpt lat="44.32121" lon="6.83285">
        <time>2023-04-10T09:03:02+00:00</time>
        <ele>2229.0</ele>
      </trkpt>
      <trkpt lat="44.32121" lon="6.83285">
        <time>2023-04-10T09:03:03+00:00</time>
        <ele>2229.0</ele>
      </trkpt>
      <trkpt lat="44.32121" lon="6.83285">
        <time>2023-04-10T09:03:04+00:00</time>
        <ele>2229.0</ele>
      </trkpt>
      <trkpt lat="44.32121" lon="6.83285">
        <time>2023-04-10T09:03:05+00:00</time>
        <ele>2229.0</ele>
      </trkpt>
      <trkpt lat="44.32121" lon="6.83285">
        <time>2023-04-10T09:03:06+00:00</time>
        <ele>2229.0</ele>
      </trkpt>
      <trkpt lat="44.32121" lon="6.83285">
        <time>2023-04-10T09:03:07+00:00</time>
        <ele>2229.0</ele>
      </trkpt>
      <trkpt lat="44.32121" lon="6.83285">
        <time>2023-04-10T09:03:08+00:00</time>
        <ele>2229.0</ele>
      </trkpt>
      <trkpt lat="44.32121" lon="6.83285">
        <time>2023-04-10T09:03:09+00:00</time>
        <ele>2229.0</ele>
      </trkpt>
      <trkpt lat="44.32121" lon="6.83285">
        <time>2023-04-10T09:03:10+00:00</time>
        <ele>2229.0</ele>
      </trkpt>
      <trkpt lat="44.32121" lon="6.83285">
        <time>2023-04-10T09:03:11+00:00</time>
        <ele>2229.0</ele>
      </trkpt>
      <trkpt lat="44.32121" lon="6.83285">
        <time>2023-04-10T09:03:12+00:00</time>
        <ele>2229.0</ele>
      </trkpt>
      <trkpt lat="44.32121" lon="6.83285">
        <time>2023-04-10T09:03:13+00:00</time>
        <ele>2229.0</ele>
      </trkpt>
      <trkpt lat="44.32121" lon="6.83285">
        <time>2023-04-10T09:03:14+00:00</time>
        <ele>2229.0</ele>
      </trkpt>
      <trkpt lat="44.32121" lon="6.83285">
        <time>2023-04-10T09:03:15+00:00</time>
        <ele>2229.0</ele>
      </trkpt>
      <trkpt lat="44.32121" lon="6.83285">
        <time>2023-04-10T09:03:16+00:00</time>
        <ele>2229.0</ele>
      </trkpt>
      <trkpt lat="44.32121" lon="6.83285">
        <time>2023-04-10T09:03:17+00:00</time>
        <ele>2229.0</ele>
      </trkpt>
      <trkpt lat="44.32121" lon="6.83285">
        <time>2023-04-10T09:03:18+00:00</time>
        <ele>2229.0</ele>
      </trkpt>
      <trkpt lat="44.32121" lon="6.83285">
        <time>2023-04-10T09:03:19+00:00</time>
        <ele>2229.0</ele>
      </trkpt>
      <trkpt lat="44.32121" lon="6.83285">
        <time>2023-04-10T09:03:20+00:00</time>
        <ele>2229.0</ele>
      </trkpt>
      <trkpt lat="44.32121" lon="6.83285">
        <time>2023-04-10T09:03:21+00:00</time>
        <ele>2229.0</ele>
      </trkpt>
      <trkpt lat="44.32121" lon="6.83285">
        <time>2023-04-10T09:03:22+00:00</time>
        <ele>2229.0</ele>
      </trkpt>
      <trkpt lat="44.32121" lon="6.83285">
        <time>2023-04-10T09:03:23+00:00</time>
        <ele>2229.0</ele>
      </trkpt>
      <trkpt lat="44.32121" lon="6.83285">
        <time>2023-04-10T09:03:24+00:00</time>
        <ele>2229.0</ele>
      </trkpt>
      <trkpt lat="44.32121" lon="6.83285">
        <time>2023-04-10T09:03:25+00:00</time>
        <ele>2229.0</ele>
      </trkpt>
      <trkpt lat="44.32121" lon="6.83285">
        <time>2023-04-10T09:03:26+00:00</time>
        <ele>2229.0</ele>
      </trkpt>
      <trkpt lat="44.32121" lon="6.83285">
        <time>2023-04-10T09:03:27+00:00</time>
        <ele>2229.0</ele>
      </trkpt>
      <trkpt lat="44.32121" lon="6.83285">
        <time>2023-04-10T09:03:28+00:00</time>
        <ele>2229.0</ele>
      </trkpt>
      <trkpt lat="44.32121" lon="6.83285">
        <time>2023-04-10T09:03:29+00:00</time>
        <ele>2229.0</ele>
      </trkpt>
      <trkpt lat="44.32121" lon="6.83285">
        <time>2023-04-10T09:03:30+00:00</time>
        <ele>2229.0</ele>
      </trkpt>
      <trkpt lat="44.32121" lon="6.83285">
        <time>2023-04-10T09:03:31+00:00</time>
        <ele>2229.0</ele>
      </trkpt>
      <trkpt lat="44.32121" lon="6.83285">
        <time>2023-04-10T09:03:32+00:00</time>
        <ele>2229.0</ele>
      </trkpt>
      <trkpt lat="44.32121" lon="6.83285">
        <time>2023-04-10T09:03:33+00:00</time>
        <ele>2229.0</ele>
      </trkpt>
      <trkpt lat="44.32121" lon="6.83285">
        <time>2023-04-10T09:03:34+00:00</time>
        <ele>2229.0</ele>
      </trkpt>
      <trkpt lat="44.32121" lon="6.83285">
        <time>2023-04-10T09:03:35+00:00</time>
        <ele>2229.0</ele>
      </trkpt>
      <trkpt lat="44.32121" lon="6.83285">
        <time>2023-04-10T09:03:36+00:00</time>
        <ele>2229.0</ele>
      </trkpt>
      <trkpt lat="44.32121" lon="6.83285">
        <time>2023-04-10T09:03:37+00:00</time>
        <ele>2229.0</ele>
      </trkpt>
      <trkpt lat="44.32121" lon="6.83285">
        <time>2023-04-10T09:03:38+00:00</time>
        <ele>2229.0</ele>
      </trkpt>
      <trkpt lat="44.32121" lon="6.83285">
        <time>2023-04-10T09:03:39+00:00</time>
        <ele>2229.0</ele>
      </trkpt>
      <trkpt lat="44.32121" lon="6.83285">
        <time>2023-04-10T09:03:40+00:00</time>
        <ele>2229.0</ele>
      </trkpt>
      <trkpt lat="44.32121" lon="6.83285">
        <time>2023-04-10T09:03:41+00:00</time>
        <ele>2229.0</ele>
      </trkpt>
      <trkpt lat="44.32121" lon="6.83285">
        <time>2023-04-10T09:03:42+00:00</time>
        <ele>2229.0</ele>
      </trkpt>
      <trkpt lat="44.32121" lon="6.83285">
        <time>2023-04-10T09:03:43+00:00</time>
        <ele>2229.0</ele>
      </trkpt>
      <trkpt lat="44.32121" lon="6.83285">
        <time>2023-04-10T09:03:44+00:00</time>
        <ele>2229.0</ele>
      </trkpt>
      <trkpt lat="44.32121" lon="6.83285">
        <time>2023-04-10T09:03:45+00:00</time>
        <ele>2229.0</ele>
      </trkpt>
      <trkpt lat="44.32121" lon="6.83285">
        <time>2023-04-10T09:03:46+00:00</time>
        <ele>2229.0</ele>
      </trkpt>
      <trkpt lat="44.32121" lon="6.83285">
        <time>2023-04-10T09:03:47+00:00</time>
        <ele>2229.0</ele>
      </trkpt>
      <trkpt lat="44.32121" lon="6.83285">
        <time>2023-04-10T09:03:48+00:00</time>
        <ele>2229.0</ele>
      </trkpt>
      <trkpt lat="44.32121" lon="6.83285">
        <time>2023-04-10T09:03:49+00:00</time>
        <ele>2229.0</ele>
      </trkpt>
      <trkpt lat="44.32121" lon="6.83285">
        <time>2023-04-10T09:03:50+00:00</time>
        <ele>2229.0</ele>
      </trkpt>
      <trkpt lat="44.32121" lon="6.83285">
        <time>2023-04-10T09:03:51+00:00</time>
        <ele>2229.0</ele>
      </trkpt>
      <trkpt lat="44.32121" lon="6.83285">
        <time>2023-04-10T09:03:52+00:00</time>
        <ele>2229.0</ele>
      </trkpt>
      <trkpt lat="44.32121" lon="6.83285">
        <time>2023-04-10T09:03:53+00:00</time>
        <ele>2229.0</ele>
      </trkpt>
      <trkpt lat="44.32121" lon="6.83285">
        <time>2023-04-10T09:03:54+00:00</time>
        <ele>2229.0</ele>
      </trkpt>
      <trkpt lat="44.32121" lon="6.83285">
        <time>2023-04-10T09:03:55+00:00</time>
        <ele>2229.0</ele>
      </trkpt>
      <trkpt lat="44.32121" lon="6.83285">
        <time>2023-04-10T09:03:56+00:00</time>
        <ele>2229.0</ele>
      </trkpt>
      <trkpt lat="44.32121" lon="6.83285">
        <time>2023-04-10T09:03:57+00:00</time>
        <ele>2229.0</ele>
      </trkpt>
      <trkpt lat="44.32121" lon="6.83285">
        <time>2023-04-10T09:03:58+00:00</time>
        <ele>2229.0</ele>
      </trkpt>
      <trkpt lat="44.32121" lon="6.83285">
        <time>2023-04-10T09:03:59+00:00</time>
        <ele>2229.0</ele>
      </trkpt>
      <trkpt lat="44.32121" lon="6.83285">
        <time>2023-04-10T09:04:00+00:00</time>
        <ele>2229.0</ele>
      </trkpt>
      <trkpt lat="44.32121" lon="6.83285">
        <time>2023-04-10T09:04:01+00:00</time>
        <ele>2229.0</ele>
      </trkpt>
      <trkpt lat="44.32121" lon="6.83285">
        <time>2023-04-10T09:04:02+00:00</time>
        <ele>2229.0</ele>
      </trkpt>
      <trkpt lat="44.32121" lon="6.83285">
        <time>2023-04-10T09:04:03+00:00</time>
        <ele>2229.0</ele>
      </trkpt>
      <trkpt lat="44.32121" lon="6.83285">
        <time>2023-04-10T09:04:04+00:00</time>
        <ele>2229.0</ele>
      </trkpt>
      <trkpt lat="44.32121" lon="6.83285">
        <time>2023-04-10T09:04:05+00:00</time>
        <ele>2229.0</ele>
      </trkpt>
      <trkpt lat="44.32121" lon="6.83285">
        <time>2023-04-10T09:04:06+00:00</time>
        <ele>2229.0</ele>
      </trkpt>
      <trkpt lat="44.32121" lon="6.83285">
        <time>2023-04-10T09:04:07+00:00</time>
        <ele>2229.0</ele>
      </trkpt>
      <trkpt lat="44.32121" lon="6.83285">
        <time>2023-04-10T09:04:08+00:00</time>
        <ele>2229.0</ele>
      </trkpt>
      <trkpt lat="44.32121" lon="6.83285">
        <time>2023-04-10T09:04:09+00:00</time>
        <ele>2229.0</ele>
      </trkpt>
      <trkpt lat="44.32121" lon="6.83285">
        <time>2023-04-10T09:04:10+00:00</time>
        <ele>2229.0</ele>
      </trkpt>
      <trkpt lat="44.32121" lon="6.83285">
        <time>2023-04-10T09:04:11+00:00</time>
        <ele>2229.0</ele>
      </trkpt>
      <trkpt lat="44.32121" lon="6.83285">
        <time>2023-04-10T09:04:12+00:00</time>
        <ele>2229.0</ele>
      </trkpt>
      <trkpt lat="44.32121" lon="6.83285">
        <time>2023-04-10T09:04:13+00:00</time>
        <ele>2229.0</ele>
      </trkpt>
      <trkpt lat="44.32121" lon="6.83285">
        <time>2023-04-10T09:04:14+00:00</time>
        <ele>2229.0</ele>
      </trkpt>
      <trkpt lat="44.32121" lon="6.83285">
        <time>2023-04-10T09:04:15+00:00</time>
        <ele>2229.0</ele>
      </trkpt>
      <trkpt lat="44.32121" lon="6.83285">
        <time>2023-04-10T09:04:16+00:00</time>
        <ele>2229.0</ele>
      </trkpt>
      <trkpt lat="44.32121" lon="6.83285">
        <time>2023-04-10T09:04:17+00:00</time>
        <ele>2229.0</ele>
      </trkpt>
      <trkpt lat="44.32121" lon="6.83285">
        <time>2023-04-10T09:04:18+00:00</time>
        <ele>2229.0</ele>
      </trkpt>
      <trkpt lat="44.32121" lon="6.83285">
        <time>2023-04-10T09:04:19+00:00</time>
        <ele>2229.0</ele>
      </trkpt>
      <trkpt lat="44.32121" lon="6.83285">
        <time>2023-04-10T09:04:20+00:00</time>
        <ele>2229.0</ele>
      </trkpt>
      <trkpt lat="44.32121" lon="6.83285">
        <time>2023-04-10T09:04:21+00:00</time>
        <ele>2229.0</ele>
      </trkpt>
      <trkpt lat="44.32121" lon="6.83285">
        <time>2023-04-10T09:04:22+00:00</time>
        <ele>2229.0</ele>
      </trkpt>
      <trkpt lat="44.32121" lon="6.83285">
        <time>2023-04-10T09:04:23+00:00</time>
        <ele>2229.0</ele>
      </trkpt>
      <trkpt lat="44.32121" lon="6.83285">
        <time>2023-04-10T09:04:24+00:00</time>
        <ele>2229.0</ele>
      </trkpt>
      <trkpt lat="44.32118" lon="6.83283">
        <time>2023-04-10T09:04:25+00:00</time>
        <ele>2229.0</ele>
      </trkpt>
      <trkpt lat="44.32117" lon="6.83281">
        <time>2023-04-10T09:04:26+00:00</time>
        <ele>2229.0</ele>
      </trkpt>
      <trkpt lat="44.32117" lon="6.83281">
        <time>2023-04-10T09:04:27+00:00</time>
        <ele>2229.0</ele>
      </trkpt>
      <trkpt lat="44.32115" lon="6.83278">
        <time>2023-04-10T09:04:28+00:00</time>
        <ele>2229.0</ele>
      </trkpt>
      <trkpt lat="44.32115" lon="6.83278">
        <time>2023-04-10T09:04:29+00:00</time>
        <ele>2229.0</ele>
      </trkpt>
      <trkpt lat="44.32113" lon="6.83276">
        <time>2023-04-10T09:04:30+00:00</time>
        <ele>2229.0</ele>
      </trkpt>
      <trkpt lat="44.32113" lon="6.83276">
        <time>2023-04-10T09:04:31+00:00</time>
        <ele>2229.0</ele>
      </trkpt>
      <trkpt lat="44.3211" lon="6.83273">
        <time>2023-04-10T09:04:32+00:00</time>
        <ele>2230.0</ele>
      </trkpt>
      <trkpt lat="44.3211" lon="6.83273">
        <time>2023-04-10T09:04:33+00:00</time>
        <ele>2230.0</ele>
      </trkpt>
      <trkpt lat="44.32108" lon="6.83271">
        <time>2023-04-10T09:04:34+00:00</time>
        <ele>2230.0</ele>
      </trkpt>
      <trkpt lat="44.32108" lon="6.83271">
        <time>2023-04-10T09:04:35+00:00</time>
        <ele>2230.0</ele>
      </trkpt>
      <trkpt lat="44.32108" lon="6.83271">
        <time>2023-04-10T09:04:36+00:00</time>
        <ele>2230.0</ele>
      </trkpt>
      <trkpt lat="44.32105" lon="6.8327">
        <time>2023-04-10T09:04:37+00:00</time>
        <ele>2230.0</ele>
      </trkpt>
      <trkpt lat="44.32105" lon="6.8327">
        <time>2023-04-10T09:04:38+00:00</time>
        <ele>2230.0</ele>
      </trkpt>
      <trkpt lat="44.32104" lon="6.83268">
        <time>2023-04-10T09:04:39+00:00</time>
        <ele>2230.0</ele>
      </trkpt>
      <trkpt lat="44.32104" lon="6.83268">
        <time>2023-04-10T09:04:40+00:00</time>
        <ele>2230.0</ele>
      </trkpt>
      <trkpt lat="44.32104" lon="6.83268">
        <time>2023-04-10T09:04:41+00:00</time>
        <ele>2230.0</ele>
      </trkpt>
      <trkpt lat="44.32102" lon="6.83266">
        <time>2023-04-10T09:04:42+00:00</time>
        <ele>2231.0</ele>
      </trkpt>
      <trkpt lat="44.32102" lon="6.83266">
        <time>2023-04-10T09:04:43+00:00</time>
        <ele>2231.0</ele>
      </trkpt>
      <trkpt lat="44.32102" lon="6.83266">
        <time>2023-04-10T09:04:44+00:00</time>
        <ele>2231.0</ele>
      </trkpt>
      <trkpt lat="44.321" lon="6.83264">
        <time>2023-04-10T09:04:45+00:00</time>
        <ele>2231.0</ele>
      </trkpt>
      <trkpt lat="44.321" lon="6.83264">
        <time>2023-04-10T09:04:46+00:00</time>
        <ele>2231.0</ele>
      </trkpt>
      <trkpt lat="44.321" lon="6.83264">
        <time>2023-04-10T09:04:47+00:00</time>
        <ele>2231.0</ele>
      </trkpt>
      <trkpt lat="44.32098" lon="6.83261">
        <time>2023-04-10T09:04:48+00:00</time>
        <ele>2232.0</ele>
      </trkpt>
      <trkpt lat="44.32098" lon="6.83261">
        <time>2023-04-10T09:04:49+00:00</time>
        <ele>2232.0</ele>
      </trkpt>
      <trkpt lat="44.32098" lon="6.83261">
        <time>2023-04-10T09:04:50+00:00</time>
        <ele>2232.0</ele>
      </trkpt>
      <trkpt lat="44.32097" lon="6.8326">
        <time>2023-04-10T09:04:51+00:00</time>
        <ele>2232.0</ele>
      </trkpt>
      <trkpt lat="44.32097" lon="6.8326">
        <time>2023-04-10T09:04:52+00:00</time>
        <ele>2232.0</ele>
      </trkpt>
      <trkpt lat="44.32095" lon="6.83259">
        <time>2023-04-10T09:04:53+00:00</time>
        <ele>2233.0</ele>
      </trkpt>
      <trkpt lat="44.32095" lon="6.83259">
        <time>2023-04-10T09:04:54+00:00</time>
        <ele>2233.0</ele>
      </trkpt>
      <trkpt lat="44.32095" lon="6.83259">
        <time>2023-04-10T09:04:55+00:00</time>
        <ele>2233.0</ele>
      </trkpt>
      <trkpt lat="44.32093" lon="6.83257">
        <time>2023-04-10T09:04:56+00:00</time>
        <ele>2233.0</ele>
      </trkpt>
      <trkpt lat="44.32093" lon="6.83257">
        <time>2023-04-10T09:04:57+00:00</time>
        <ele>2233.0</ele>
      </trkpt>
      <trkpt lat="44.32093" lon="6.83257">
        <time>2023-04-10T09:04:58+00:00</time>
        <ele>2233.0</ele>
      </trkpt>
      <trkpt lat="44.3209" lon="6.83255">
        <time>2023-04-10T09:04:59+00:00</time>
        <ele>2234.0</ele>
      </trkpt>
      <trkpt lat="44.3209" lon="6.83255">
        <time>2023-04-10T09:05:00+00:00</time>
        <ele>2234.0</ele>
      </trkpt>
      <trkpt lat="44.3209" lon="6.83255">
        <time>2023-04-10T09:05:01+00:00</time>
        <ele>2234.0</ele>
      </trkpt>
      <trkpt lat="44.3209" lon="6.83255">
        <time>2023-04-10T09:05:02+00:00</time>
        <ele>2234.0</ele>
      </trkpt>
      <trkpt lat="44.32088" lon="6.83253">
        <time>2023-04-10T09:05:03+00:00</time>
        <ele>2234.0</ele>
      </trkpt>
      <trkpt lat="44.32088" lon="6.83253">
        <time>2023-04-10T09:05:04+00:00</time>
        <ele>2234.0</ele>
      </trkpt>
      <trkpt lat="44.32086" lon="6.83253">
        <time>2023-04-10T09:05:05+00:00</time>
        <ele>2235.0</ele>
      </trkpt>
      <trkpt lat="44.32086" lon="6.83253">
        <time>2023-04-10T09:05:06+00:00</time>
        <ele>2235.0</ele>
      </trkpt>
      <trkpt lat="44.32086" lon="6.83253">
        <time>2023-04-10T09:05:07+00:00</time>
        <ele>2235.0</ele>
      </trkpt>
      <trkpt lat="44.32084" lon="6.83251">
        <time>2023-04-10T09:05:08+00:00</time>
        <ele>2235.0</ele>
      </trkpt>
      <trkpt lat="44.32084" lon="6.83251">
        <time>2023-04-10T09:05:09+00:00</time>
        <ele>2235.0</ele>
      </trkpt>
      <trkpt lat="44.32084" lon="6.83251">
        <time>2023-04-10T09:05:10+00:00</time>
        <ele>2235.0</ele>
      </trkpt>
      <trkpt lat="44.32084" lon="6.83251">
        <time>2023-04-10T09:05:11+00:00</time>
        <ele>2235.0</ele>
      </trkpt>
      <trkpt lat="44.32082" lon="6.8325">
        <time>2023-04-10T09:05:12+00:00</time>
        <ele>2236.0</ele>
      </trkpt>
      <trkpt lat="44.32082" lon="6.8325">
        <time>2023-04-10T09:05:13+00:00</time>
        <ele>2236.0</ele>
      </trkpt>
      <trkpt lat="44.32082" lon="6.8325">
        <time>2023-04-10T09:05:14+00:00</time>
        <ele>2236.0</ele>
      </trkpt>
      <trkpt lat="44.32079" lon="6.8325">
        <time>2023-04-10T09:05:15+00:00</time>
        <ele>2236.0</ele>
      </trkpt>
      <trkpt lat="44.32079" lon="6.8325">
        <time>2023-04-10T09:05:16+00:00</time>
        <ele>2236.0</ele>
      </trkpt>
      <trkpt lat="44.32079" lon="6.8325">
        <time>2023-04-10T09:05:17+00:00</time>
        <ele>2236.0</ele>
      </trkpt>
      <trkpt lat="44.32079" lon="6.8325">
        <time>2023-04-10T09:05:18+00:00</time>
        <ele>2236.0</ele>
      </trkpt>
      <trkpt lat="44.32077" lon="6.8325">
        <time>2023-04-10T09:05:19+00:00</time>
        <ele>2237.0</ele>
      </trkpt>
      <trkpt lat="44.32077" lon="6.8325">
        <time>2023-04-10T09:05:20+00:00</time>
        <ele>2237.0</ele>
      </trkpt>
      <trkpt lat="44.32077" lon="6.8325">
        <time>2023-04-10T09:05:21+00:00</time>
        <ele>2237.0</ele>
      </trkpt>
      <trkpt lat="44.32077" lon="6.8325">
        <time>2023-04-10T09:05:22+00:00</time>
        <ele>2237.0</ele>
      </trkpt>
      <trkpt lat="44.32075" lon="6.83249">
        <time>2023-04-10T09:05:23+00:00</time>
        <ele>2237.0</ele>
      </trkpt>
      <trkpt lat="44.32075" lon="6.83249">
        <time>2023-04-10T09:05:24+00:00</time>
        <ele>2237.0</ele>
      </trkpt>
      <trkpt lat="44.32073" lon="6.8325">
        <time>2023-04-10T09:05:25+00:00</time>
        <ele>2237.0</ele>
      </trkpt>
      <trkpt lat="44.32073" lon="6.8325">
        <time>2023-04-10T09:05:26+00:00</time>
        <ele>2237.0</ele>
      </trkpt>
      <trkpt lat="44.32073" lon="6.8325">
        <time>2023-04-10T09:05:27+00:00</time>
        <ele>2237.0</ele>
      </trkpt>
      <trkpt lat="44.32071" lon="6.8325">
        <time>2023-04-10T09:05:28+00:00</time>
        <ele>2238.0</ele>
      </trkpt>
      <trkpt lat="44.32071" lon="6.8325">
        <time>2023-04-10T09:05:29+00:00</time>
        <ele>2238.0</ele>
      </trkpt>
      <trkpt lat="44.32071" lon="6.8325">
        <time>2023-04-10T09:05:30+00:00</time>
        <ele>2238.0</ele>
      </trkpt>
      <trkpt lat="44.32071" lon="6.8325">
        <time>2023-04-10T09:05:31+00:00</time>
        <ele>2238.0</ele>
      </trkpt>
      <trkpt lat="44.32071" lon="6.8325">
        <time>2023-04-10T09:05:32+00:00</time>
        <ele>2238.0</ele>
      </trkpt>
      <trkpt lat="44.32069" lon="6.83251">
        <time>2023-04-10T09:05:33+00:00</time>
        <ele>2238.0</ele>
      </trkpt>
      <trkpt lat="44.32069" lon="6.83251">
        <time>2023-04-10T09:05:34+00:00</time>
        <ele>2238.0</ele>
      </trkpt>
      <trkpt lat="44.32069" lon="6.83251">
        <time>2023-04-10T09:05:35+00:00</time>
        <ele>2238.0</ele>
      </trkpt>
      <trkpt lat="44.32069" lon="6.83251">
        <time>2023-04-10T09:05:36+00:00</time>
        <ele>2238.0</ele>
      </trkpt>
      <trkpt lat="44.32066" lon="6.83251">
        <time>2023-04-10T09:05:37+00:00</time>
        <ele>2238.0</ele>
      </trkpt>
      <trkpt lat="44.32066" lon="6.83251">
        <time>2023-04-10T09:05:38+00:00</time>
        <ele>2238.0</ele>
      </trkpt>
      <trkpt lat="44.32066" lon="6.83251">
        <time>2023-04-10T09:05:39+00:00</time>
        <ele>2238.0</ele>
      </trkpt>
      <trkpt lat="44.32064" lon="6.83251">
        <time>2023-04-10T09:05:40+00:00</time>
        <ele>2238.0</ele>
      </trkpt>
      <trkpt lat="44.32064" lon="6.83251">
        <time>2023-04-10T09:05:41+00:00</time>
        <ele>2238.0</ele>
      </trkpt>
      <trkpt lat="44.32064" lon="6.83251">
        <time>2023-04-10T09:05:42+00:00</time>
        <ele>2238.0</ele>
      </trkpt>
      <trkpt lat="44.32061" lon="6.83251">
        <time>2023-04-10T09:05:43+00:00</time>
        <ele>2239.0</ele>
      </trkpt>
      <trkpt lat="44.32061" lon="6.83251">
        <time>2023-04-10T09:05:44+00:00</time>
        <ele>2239.0</ele>
      </trkpt>
      <trkpt lat="44.32061" lon="6.83251">
        <time>2023-04-10T09:05:45+00:00</time>
        <ele>2239.0</ele>
      </trkpt>
      <trkpt lat="44.3206" lon="6.83251">
        <time>2023-04-10T09:05:46+00:00</time>
        <ele>2239.0</ele>
      </trkpt>
      <trkpt lat="44.3206" lon="6.83251">
        <time>2023-04-10T09:05:47+00:00</time>
        <ele>2239.0</ele>
      </trkpt>
      <trkpt lat="44.3206" lon="6.83251">
        <time>2023-04-10T09:05:48+00:00</time>
        <ele>2239.0</ele>
      </trkpt>
      <trkpt lat="44.32057" lon="6.8325">
        <time>2023-04-10T09:05:49+00:00</time>
        <ele>2240.0</ele>
      </trkpt>
      <trkpt lat="44.32057" lon="6.8325">
        <time>2023-04-10T09:05:50+00:00</time>
        <ele>2240.0</ele>
      </trkpt>
      <trkpt lat="44.32057" lon="6.8325">
        <time>2023-04-10T09:05:51+00:00</time>
        <ele>2240.0</ele>
      </trkpt>
      <trkpt lat="44.32055" lon="6.8325">
        <time>2023-04-10T09:05:52+00:00</time>
        <ele>2240.0</ele>
      </trkpt>
      <trkpt lat="44.32055" lon="6.8325">
        <time>2023-04-10T09:05:53+00:00</time>
        <ele>2240.0</ele>
      </trkpt>
      <trkpt lat="44.32055" lon="6.8325">
        <time>2023-04-10T09:05:54+00:00</time>
        <ele>2240.0</ele>
      </trkpt>
      <trkpt lat="44.32055" lon="6.8325">
        <time>2023-04-10T09:05:55+00:00</time>
        <ele>2240.0</ele>
      </trkpt>
      <trkpt lat="44.32055" lon="6.8325">
        <time>2023-04-10T09:05:56+00:00</time>
        <ele>2240.0</ele>
      </trkpt>
      <trkpt lat="44.32055" lon="6.8325">
        <time>2023-04-10T09:05:57+00:00</time>
        <ele>2240.0</ele>
      </trkpt>
      <trkpt lat="44.32055" lon="6.8325">
        <time>2023-04-10T09:05:58+00:00</time>
        <ele>2240.0</ele>
      </trkpt>
      <trkpt lat="44.32055" lon="6.8325">
        <time>2023-04-10T09:05:59+00:00</time>
        <ele>2240.0</ele>
      </trkpt>
      <trkpt lat="44.32055" lon="6.8325">
        <time>2023-04-10T09:06:00+00:00</time>
        <ele>2240.0</ele>
      </trkpt>
      <trkpt lat="44.32055" lon="6.8325">
        <time>2023-04-10T09:06:01+00:00</time>
        <ele>2240.0</ele>
      </trkpt>
      <trkpt lat="44.32055" lon="6.8325">
        <time>2023-04-10T09:06:02+00:00</time>
        <ele>2240.0</ele>
      </trkpt>
      <trkpt lat="44.32055" lon="6.8325">
        <time>2023-04-10T09:06:03+00:00</time>
        <ele>2240.0</ele>
      </trkpt>
      <trkpt lat="44.32055" lon="6.8325">
        <time>2023-04-10T09:06:04+00:00</time>
        <ele>2240.0</ele>
      </trkpt>
      <trkpt lat="44.32055" lon="6.8325">
        <time>2023-04-10T09:06:05+00:00</time>
        <ele>2240.0</ele>
      </trkpt>
      <trkpt lat="44.32053" lon="6.8325">
        <time>2023-04-10T09:06:06+00:00</time>
        <ele>2240.0</ele>
      </trkpt>
      <trkpt lat="44.32053" lon="6.8325">
        <time>2023-04-10T09:06:07+00:00</time>
        <ele>2240.0</ele>
      </trkpt>
      <trkpt lat="44.32053" lon="6.8325">
        <time>2023-04-10T09:06:08+00:00</time>
        <ele>2240.0</ele>
      </trkpt>
      <trkpt lat="44.32051" lon="6.83249">
        <time>2023-04-10T09:06:09+00:00</time>
        <ele>2241.0</ele>
      </trkpt>
      <trkpt lat="44.32051" lon="6.83249">
        <time>2023-04-10T09:06:10+00:00</time>
        <ele>2241.0</ele>
      </trkpt>
      <trkpt lat="44.32051" lon="6.83249">
        <time>2023-04-10T09:06:11+00:00</time>
        <ele>2241.0</ele>
      </trkpt>
      <trkpt lat="44.32049" lon="6.83249">
        <time>2023-04-10T09:06:12+00:00</time>
        <ele>2241.0</ele>
      </trkpt>
      <trkpt lat="44.32049" lon="6.83249">
        <time>2023-04-10T09:06:13+00:00</time>
        <ele>2241.0</ele>
      </trkpt>
      <trkpt lat="44.32049" lon="6.83249">
        <time>2023-04-10T09:06:14+00:00</time>
        <ele>2241.0</ele>
      </trkpt>
      <trkpt lat="44.32049" lon="6.83249">
        <time>2023-04-10T09:06:15+00:00</time>
        <ele>2241.0</ele>
      </trkpt>
      <trkpt lat="44.32049" lon="6.83249">
        <time>2023-04-10T09:06:16+00:00</time>
        <ele>2241.0</ele>
      </trkpt>
      <trkpt lat="44.32049" lon="6.83249">
        <time>2023-04-10T09:06:17+00:00</time>
        <ele>2241.0</ele>
      </trkpt>
      <trkpt lat="44.32049" lon="6.83249">
        <time>2023-04-10T09:06:18+00:00</time>
        <ele>2241.0</ele>
      </trkpt>
      <trkpt lat="44.32049" lon="6.83249">
        <time>2023-04-10T09:06:19+00:00</time>
        <ele>2241.0</ele>
      </trkpt>
      <trkpt lat="44.32047" lon="6.83248">
        <time>2023-04-10T09:06:20+00:00</time>
        <ele>2242.0</ele>
      </trkpt>
      <trkpt lat="44.32047" lon="6.83248">
        <time>2023-04-10T09:06:21+00:00</time>
        <ele>2242.0</ele>
      </trkpt>
      <trkpt lat="44.32047" lon="6.83248">
        <time>2023-04-10T09:06:22+00:00</time>
        <ele>2242.0</ele>
      </trkpt>
      <trkpt lat="44.32045" lon="6.83248">
        <time>2023-04-10T09:06:23+00:00</time>
        <ele>2242.0</ele>
      </trkpt>
      <trkpt lat="44.32045" lon="6.83248">
        <time>2023-04-10T09:06:24+00:00</time>
        <ele>2242.0</ele>
      </trkpt>
      <trkpt lat="44.32043" lon="6.83247">
        <time>2023-04-10T09:06:25+00:00</time>
        <ele>2243.0</ele>
      </trkpt>
      <trkpt lat="44.32043" lon="6.83247">
        <time>2023-04-10T09:06:26+00:00</time>
        <ele>2243.0</ele>
      </trkpt>
      <trkpt lat="44.32043" lon="6.83247">
        <time>2023-04-10T09:06:27+00:00</time>
        <ele>2243.0</ele>
      </trkpt>
      <trkpt lat="44.32043" lon="6.83247">
        <time>2023-04-10T09:06:28+00:00</time>
        <ele>2243.0</ele>
      </trkpt>
      <trkpt lat="44.32041" lon="6.83247">
        <time>2023-04-10T09:06:29+00:00</time>
        <ele>2243.0</ele>
      </trkpt>
      <trkpt lat="44.32041" lon="6.83247">
        <time>2023-04-10T09:06:30+00:00</time>
        <ele>2243.0</ele>
      </trkpt>
      <trkpt lat="44.32041" lon="6.83247">
        <time>2023-04-10T09:06:31+00:00</time>
        <ele>2243.0</ele>
      </trkpt>
      <trkpt lat="44.32038" lon="6.83246">
        <time>2023-04-10T09:06:32+00:00</time>
        <ele>2244.0</ele>
      </trkpt>
      <trkpt lat="44.32038" lon="6.83246">
        <time>2023-04-10T09:06:33+00:00</time>
        <ele>2244.0</ele>
      </trkpt>
      <trkpt lat="44.32038" lon="6.83246">
        <time>2023-04-10T09:06:34+00:00</time>
        <ele>2244.0</ele>
      </trkpt>
      <trkpt lat="44.32037" lon="6.83245">
        <time>2023-04-10T09:06:35+00:00</time>
        <ele>2245.0</ele>
      </trkpt>
      <trkpt lat="44.32037" lon="6.83245">
        <time>2023-04-10T09:06:36+00:00</time>
        <ele>2245.0</ele>
      </trkpt>
      <trkpt lat="44.32037" lon="6.83245">
        <time>2023-04-10T09:06:37+00:00</time>
        <ele>2245.0</ele>
      </trkpt>
      <trkpt lat="44.32035" lon="6.83245">
        <time>2023-04-10T09:06:38+00:00</time>
        <ele>2245.0</ele>
      </trkpt>
      <trkpt lat="44.32035" lon="6.83245">
        <time>2023-04-10T09:06:39+00:00</time>
        <ele>2245.0</ele>
      </trkpt>
      <trkpt lat="44.32035" lon="6.83245">
        <time>2023-04-10T09:06:40+00:00</time>
        <ele>2245.0</ele>
      </trkpt>
      <trkpt lat="44.32033" lon="6.83244">
        <time>2023-04-10T09:06:41+00:00</time>
        <ele>2246.0</ele>
      </trkpt>
      <trkpt lat="44.32033" lon="6.83244">
        <time>2023-04-10T09:06:42+00:00</time>
        <ele>2246.0</ele>
      </trkpt>
      <trkpt lat="44.32033" lon="6.83244">
        <time>2023-04-10T09:06:43+00:00</time>
        <ele>2246.0</ele>
      </trkpt>
      <trkpt lat="44.3203" lon="6.83244">
        <time>2023-04-10T09:06:44+00:00</time>
        <ele>2246.0</ele>
      </trkpt>
      <trkpt lat="44.3203" lon="6.83244">
        <time>2023-04-10T09:06:45+00:00</time>
        <ele>2246.0</ele>
      </trkpt>
      <trkpt lat="44.3203" lon="6.83244">
        <time>2023-04-10T09:06:46+00:00</time>
        <ele>2246.0</ele>
      </trkpt>
      <trkpt lat="44.32028" lon="6.83243">
        <time>2023-04-10T09:06:47+00:00</time>
        <ele>2247.0</ele>
      </trkpt>
      <trkpt lat="44.32028" lon="6.83243">
        <time>2023-04-10T09:06:48+00:00</time>
        <ele>2247.0</ele>
      </trkpt>
      <trkpt lat="44.32028" lon="6.83243">
        <time>2023-04-10T09:06:49+00:00</time>
        <ele>2247.0</ele>
      </trkpt>
      <trkpt lat="44.32028" lon="6.83243">
        <time>2023-04-10T09:06:50+00:00</time>
        <ele>2247.0</ele>
      </trkpt>
      <trkpt lat="44.32026" lon="6.83241">
        <time>2023-04-10T09:06:51+00:00</time>
        <ele>2248.0</ele>
      </trkpt>
      <trkpt lat="44.32026" lon="6.83241">
        <time>2023-04-10T09:06:52+00:00</time>
        <ele>2248.0</ele>
      </trkpt>
      <trkpt lat="44.32026" lon="6.83241">
        <time>2023-04-10T09:06:53+00:00</time>
        <ele>2248.0</ele>
      </trkpt>
      <trkpt lat="44.32023" lon="6.83241">
        <time>2023-04-10T09:06:54+00:00</time>
        <ele>2248.0</ele>
      </trkpt>
      <trkpt lat="44.32023" lon="6.83241">
        <time>2023-04-10T09:06:55+00:00</time>
        <ele>2248.0</ele>
      </trkpt>
      <trkpt lat="44.32021" lon="6.83241">
        <time>2023-04-10T09:06:56+00:00</time>
        <ele>2249.0</ele>
      </trkpt>
      <trkpt lat="44.32021" lon="6.83241">
        <time>2023-04-10T09:06:57+00:00</time>
        <ele>2249.0</ele>
      </trkpt>
      <trkpt lat="44.32021" lon="6.83241">
        <time>2023-04-10T09:06:58+00:00</time>
        <ele>2249.0</ele>
      </trkpt>
      <trkpt lat="44.32021" lon="6.83241">
        <time>2023-04-10T09:06:59+00:00</time>
        <ele>2249.0</ele>
      </trkpt>
      <trkpt lat="44.32019" lon="6.83241">
        <time>2023-04-10T09:07:00+00:00</time>
        <ele>2249.0</ele>
      </trkpt>
      <trkpt lat="44.32019" lon="6.83241">
        <time>2023-04-10T09:07:01+00:00</time>
        <ele>2249.0</ele>
      </trkpt>
      <trkpt lat="44.32019" lon="6.83241">
        <time>2023-04-10T09:07:02+00:00</time>
        <ele>2249.0</ele>
      </trkpt>
      <trkpt lat="44.32019" lon="6.83241">
        <time>2023-04-10T09:07:03+00:00</time>
        <ele>2249.0</ele>
      </trkpt>
      <trkpt lat="44.32017" lon="6.83238">
        <time>2023-04-10T09:07:04+00:00</time>
        <ele>2250.0</ele>
      </trkpt>
      <trkpt lat="44.32017" lon="6.83238">
        <time>2023-04-10T09:07:05+00:00</time>
        <ele>2250.0</ele>
      </trkpt>
      <trkpt lat="44.32017" lon="6.83238">
        <time>2023-04-10T09:07:06+00:00</time>
        <ele>2250.0</ele>
      </trkpt>
      <trkpt lat="44.32016" lon="6.83236">
        <time>2023-04-10T09:07:07+00:00</time>
        <ele>2251.0</ele>
      </trkpt>
      <trkpt lat="44.32016" lon="6.83236">
        <time>2023-04-10T09:07:08+00:00</time>
        <ele>2251.0</ele>
      </trkpt>
      <trkpt lat="44.32014" lon="6.83235">
        <time>2023-04-10T09:07:09+00:00</time>
        <ele>2251.0</ele>
      </trkpt>
      <trkpt lat="44.32014" lon="6.83235">
        <time>2023-04-10T09:07:10+00:00</time>
        <ele>2251.0</ele>
      </trkpt>
      <trkpt lat="44.32014" lon="6.83235">
        <time>2023-04-10T09:07:11+00:00</time>
        <ele>2251.0</ele>
      </trkpt>
      <trkpt lat="44.32013" lon="6.83232">
        <time>2023-04-10T09:07:12+00:00</time>
        <ele>2252.0</ele>
      </trkpt>
      <trkpt lat="44.32013" lon="6.83232">
        <time>2023-04-10T09:07:13+00:00</time>
        <ele>2252.0</ele>
      </trkpt>
      <trkpt lat="44.32013" lon="6.83232">
        <time>2023-04-10T09:07:14+00:00</time>
        <ele>2252.0</ele>
      </trkpt>
      <trkpt lat="44.32012" lon="6.8323">
        <time>2023-04-10T09:07:15+00:00</time>
        <ele>2253.0</ele>
      </trkpt>
      <trkpt lat="44.32012" lon="6.8323">
        <time>2023-04-10T09:07:16+00:00</time>
        <ele>2253.0</ele>
      </trkpt>
      <trkpt lat="44.32012" lon="6.8323">
        <time>2023-04-10T09:07:17+00:00</time>
        <ele>2253.0</ele>
      </trkpt>
      <trkpt lat="44.32012" lon="6.8323">
        <time>2023-04-10T09:07:18+00:00</time>
        <ele>2253.0</ele>
      </trkpt>
      <trkpt lat="44.32011" lon="6.83227">
        <time>2023-04-10T09:07:19+00:00</time>
        <ele>2254.0</ele>
      </trkpt>
      <trkpt lat="44.32011" lon="6.83227">
        <time>2023-04-10T09:07:20+00:00</time>
        <ele>2254.0</ele>
      </trkpt>
      <trkpt lat="44.32011" lon="6.83227">
        <time>2023-04-10T09:07:21+00:00</time>
        <ele>2254.0</ele>
      </trkpt>
      <trkpt lat="44.32011" lon="6.83227">
        <time>2023-04-10T09:07:22+00:00</time>
        <ele>2254.0</ele>
      </trkpt>
      <trkpt lat="44.32009" lon="6.83224">
        <time>2023-04-10T09:07:23+00:00</time>
        <ele>2255.0</ele>
      </trkpt>
      <trkpt lat="44.32009" lon="6.83224">
        <time>2023-04-10T09:07:24+00:00</time>
        <ele>2255.0</ele>
      </trkpt>
      <trkpt lat="44.32008" lon="6.83222">
        <time>2023-04-10T09:07:25+00:00</time>
        <ele>2256.0</ele>
      </trkpt>
      <trkpt lat="44.32008" lon="6.83222">
        <time>2023-04-10T09:07:26+00:00</time>
        <ele>2256.0</ele>
      </trkpt>
      <trkpt lat="44.32008" lon="6.83222">
        <time>2023-04-10T09:07:27+00:00</time>
        <ele>2256.0</ele>
      </trkpt>
      <trkpt lat="44.32007" lon="6.8322">
        <time>2023-04-10T09:07:28+00:00</time>
        <ele>2256.0</ele>
      </trkpt>
      <trkpt lat="44.32007" lon="6.8322">
        <time>2023-04-10T09:07:29+00:00</time>
        <ele>2256.0</ele>
      </trkpt>
      <trkpt lat="44.32007" lon="6.8322">
        <time>2023-04-10T09:07:30+00:00</time>
        <ele>2256.0</ele>
      </trkpt>
      <trkpt lat="44.32007" lon="6.8322">
        <time>2023-04-10T09:07:31+00:00</time>
        <ele>2256.0</ele>
      </trkpt>
      <trkpt lat="44.32005" lon="6.83217">
        <time>2023-04-10T09:07:32+00:00</time>
        <ele>2257.0</ele>
      </trkpt>
      <trkpt lat="44.32005" lon="6.83217">
        <time>2023-04-10T09:07:33+00:00</time>
        <ele>2257.0</ele>
      </trkpt>
      <trkpt lat="44.32005" lon="6.83217">
        <time>2023-04-10T09:07:34+00:00</time>
        <ele>2257.0</ele>
      </trkpt>
      <trkpt lat="44.32005" lon="6.83217">
        <time>2023-04-10T09:07:35+00:00</time>
        <ele>2257.0</ele>
      </trkpt>
      <trkpt lat="44.32004" lon="6.83214">
        <time>2023-04-10T09:07:36+00:00</time>
        <ele>2258.0</ele>
      </trkpt>
      <trkpt lat="44.32004" lon="6.83214">
        <time>2023-04-10T09:07:37+00:00</time>
        <ele>2258.0</ele>
      </trkpt>
      <trkpt lat="44.32004" lon="6.83214">
        <time>2023-04-10T09:07:38+00:00</time>
        <ele>2258.0</ele>
      </trkpt>
      <trkpt lat="44.32003" lon="6.83213">
        <time>2023-04-10T09:07:39+00:00</time>
        <ele>2258.0</ele>
      </trkpt>
      <trkpt lat="44.32003" lon="6.83213">
        <time>2023-04-10T09:07:40+00:00</time>
        <ele>2258.0</ele>
      </trkpt>
      <trkpt lat="44.32003" lon="6.83213">
        <time>2023-04-10T09:07:41+00:00</time>
        <ele>2258.0</ele>
      </trkpt>
      <trkpt lat="44.32001" lon="6.83212">
        <time>2023-04-10T09:07:42+00:00</time>
        <ele>2259.0</ele>
      </trkpt>
      <trkpt lat="44.32001" lon="6.83212">
        <time>2023-04-10T09:07:43+00:00</time>
        <ele>2259.0</ele>
      </trkpt>
      <trkpt lat="44.32001" lon="6.83212">
        <time>2023-04-10T09:07:44+00:00</time>
        <ele>2259.0</ele>
      </trkpt>
      <trkpt lat="44.31998" lon="6.83213">
        <time>2023-04-10T09:07:45+00:00</time>
        <ele>2260.0</ele>
      </trkpt>
      <trkpt lat="44.31998" lon="6.83213">
        <time>2023-04-10T09:07:46+00:00</time>
        <ele>2260.0</ele>
      </trkpt>
      <trkpt lat="44.31998" lon="6.83213">
        <time>2023-04-10T09:07:47+00:00</time>
        <ele>2260.0</ele>
      </trkpt>
      <trkpt lat="44.31997" lon="6.83212">
        <time>2023-04-10T09:07:48+00:00</time>
        <ele>2260.0</ele>
      </trkpt>
      <trkpt lat="44.31997" lon="6.83212">
        <time>2023-04-10T09:07:49+00:00</time>
        <ele>2260.0</ele>
      </trkpt>
      <trkpt lat="44.31997" lon="6.83212">
        <time>2023-04-10T09:07:50+00:00</time>
        <ele>2260.0</ele>
      </trkpt>
      <trkpt lat="44.31995" lon="6.83212">
        <time>2023-04-10T09:07:51+00:00</time>
        <ele>2261.0</ele>
      </trkpt>
      <trkpt lat="44.31995" lon="6.83212">
        <time>2023-04-10T09:07:52+00:00</time>
        <ele>2261.0</ele>
      </trkpt>
      <trkpt lat="44.31995" lon="6.83212">
        <time>2023-04-10T09:07:53+00:00</time>
        <ele>2261.0</ele>
      </trkpt>
      <trkpt lat="44.31995" lon="6.83212">
        <time>2023-04-10T09:07:54+00:00</time>
        <ele>2261.0</ele>
      </trkpt>
      <trkpt lat="44.31994" lon="6.83209">
        <time>2023-04-10T09:07:55+00:00</time>
        <ele>2262.0</ele>
      </trkpt>
      <trkpt lat="44.31994" lon="6.83209">
        <time>2023-04-10T09:07:56+00:00</time>
        <ele>2262.0</ele>
      </trkpt>
      <trkpt lat="44.31994" lon="6.83209">
        <time>2023-04-10T09:07:57+00:00</time>
        <ele>2262.0</ele>
      </trkpt>
      <trkpt lat="44.31992" lon="6.83206">
        <time>2023-04-10T09:07:58+00:00</time>
        <ele>2263.0</ele>
      </trkpt>
      <trkpt lat="44.31992" lon="6.83206">
        <time>2023-04-10T09:07:59+00:00</time>
        <ele>2263.0</ele>
      </trkpt>
      <trkpt lat="44.31992" lon="6.83206">
        <time>2023-04-10T09:08:00+00:00</time>
        <ele>2263.0</ele>
      </trkpt>
      <trkpt lat="44.31992" lon="6.83204">
        <time>2023-04-10T09:08:01+00:00</time>
        <ele>2263.0</ele>
      </trkpt>
      <trkpt lat="44.31992" lon="6.83204">
        <time>2023-04-10T09:08:02+00:00</time>
        <ele>2263.0</ele>
      </trkpt>
      <trkpt lat="44.31992" lon="6.83204">
        <time>2023-04-10T09:08:03+00:00</time>
        <ele>2263.0</ele>
      </trkpt>
      <trkpt lat="44.31991" lon="6.83201">
        <time>2023-04-10T09:08:04+00:00</time>
        <ele>2264.0</ele>
      </trkpt>
      <trkpt lat="44.31991" lon="6.83201">
        <time>2023-04-10T09:08:05+00:00</time>
        <ele>2264.0</ele>
      </trkpt>
      <trkpt lat="44.31991" lon="6.83201">
        <time>2023-04-10T09:08:06+00:00</time>
        <ele>2264.0</ele>
      </trkpt>
      <trkpt lat="44.3199" lon="6.83198">
        <time>2023-04-10T09:08:07+00:00</time>
        <ele>2265.0</ele>
      </trkpt>
      <trkpt lat="44.3199" lon="6.83198">
        <time>2023-04-10T09:08:08+00:00</time>
        <ele>2265.0</ele>
      </trkpt>
      <trkpt lat="44.3199" lon="6.83198">
        <time>2023-04-10T09:08:09+00:00</time>
        <ele>2265.0</ele>
      </trkpt>
      <trkpt lat="44.31989" lon="6.83195">
        <time>2023-04-10T09:08:10+00:00</time>
        <ele>2266.0</ele>
      </trkpt>
      <trkpt lat="44.31989" lon="6.83195">
        <time>2023-04-10T09:08:11+00:00</time>
        <ele>2266.0</ele>
      </trkpt>
      <trkpt lat="44.31989" lon="6.83195">
        <time>2023-04-10T09:08:12+00:00</time>
        <ele>2266.0</ele>
      </trkpt>
      <trkpt lat="44.31989" lon="6.83195">
        <time>2023-04-10T09:08:13+00:00</time>
        <ele>2266.0</ele>
      </trkpt>
      <trkpt lat="44.31987" lon="6.83193">
        <time>2023-04-10T09:08:14+00:00</time>
        <ele>2267.0</ele>
      </trkpt>
      <trkpt lat="44.31987" lon="6.83193">
        <time>2023-04-10T09:08:15+00:00</time>
        <ele>2267.0</ele>
      </trkpt>
      <trkpt lat="44.31987" lon="6.83193">
        <time>2023-04-10T09:08:16+00:00</time>
        <ele>2267.0</ele>
      </trkpt>
      <trkpt lat="44.31985" lon="6.83193">
        <time>2023-04-10T09:08:17+00:00</time>
        <ele>2267.0</ele>
      </trkpt>
      <trkpt lat="44.31985" lon="6.83193">
        <time>2023-04-10T09:08:18+00:00</time>
        <ele>2267.0</ele>
      </trkpt>
      <trkpt lat="44.31985" lon="6.83193">
        <time>2023-04-10T09:08:19+00:00</time>
        <ele>2267.0</ele>
      </trkpt>
      <trkpt lat="44.31983" lon="6.83195">
        <time>2023-04-10T09:08:20+00:00</time>
        <ele>2268.0</ele>
      </trkpt>
      <trkpt lat="44.31983" lon="6.83195">
        <time>2023-04-10T09:08:21+00:00</time>
        <ele>2268.0</ele>
      </trkpt>
      <trkpt lat="44.31981" lon="6.83196">
        <time>2023-04-10T09:08:22+00:00</time>
        <ele>2268.0</ele>
      </trkpt>
      <trkpt lat="44.31981" lon="6.83196">
        <time>2023-04-10T09:08:23+00:00</time>
        <ele>2268.0</ele>
      </trkpt>
      <trkpt lat="44.31981" lon="6.83196">
        <time>2023-04-10T09:08:24+00:00</time>
        <ele>2268.0</ele>
      </trkpt>
      <trkpt lat="44.31979" lon="6.83198">
        <time>2023-04-10T09:08:25+00:00</time>
        <ele>2269.0</ele>
      </trkpt>
      <trkpt lat="44.31979" lon="6.83198">
        <time>2023-04-10T09:08:26+00:00</time>
        <ele>2269.0</ele>
      </trkpt>
      <trkpt lat="44.31979" lon="6.83198">
        <time>2023-04-10T09:08:27+00:00</time>
        <ele>2269.0</ele>
      </trkpt>
      <trkpt lat="44.31977" lon="6.832">
        <time>2023-04-10T09:08:28+00:00</time>
        <ele>2269.0</ele>
      </trkpt>
      <trkpt lat="44.31977" lon="6.832">
        <time>2023-04-10T09:08:29+00:00</time>
        <ele>2269.0</ele>
      </trkpt>
      <trkpt lat="44.31977" lon="6.832">
        <time>2023-04-10T09:08:30+00:00</time>
        <ele>2269.0</ele>
      </trkpt>
      <trkpt lat="44.31975" lon="6.83202">
        <time>2023-04-10T09:08:31+00:00</time>
        <ele>2269.0</ele>
      </trkpt>
      <trkpt lat="44.31975" lon="6.83202">
        <time>2023-04-10T09:08:32+00:00</time>
        <ele>2269.0</ele>
      </trkpt>
      <trkpt lat="44.31973" lon="6.83203">
        <time>2023-04-10T09:08:33+00:00</time>
        <ele>2270.0</ele>
      </trkpt>
      <trkpt lat="44.31973" lon="6.83203">
        <time>2023-04-10T09:08:34+00:00</time>
        <ele>2270.0</ele>
      </trkpt>
      <trkpt lat="44.31973" lon="6.83203">
        <time>2023-04-10T09:08:35+00:00</time>
        <ele>2270.0</ele>
      </trkpt>
      <trkpt lat="44.31971" lon="6.83202">
        <time>2023-04-10T09:08:36+00:00</time>
        <ele>2271.0</ele>
      </trkpt>
      <trkpt lat="44.31971" lon="6.83202">
        <time>2023-04-10T09:08:37+00:00</time>
        <ele>2271.0</ele>
      </trkpt>
      <trkpt lat="44.31971" lon="6.83202">
        <time>2023-04-10T09:08:38+00:00</time>
        <ele>2271.0</ele>
      </trkpt>
      <trkpt lat="44.3197" lon="6.83199">
        <time>2023-04-10T09:08:39+00:00</time>
        <ele>2272.0</ele>
      </trkpt>
      <trkpt lat="44.3197" lon="6.83199">
        <time>2023-04-10T09:08:40+00:00</time>
        <ele>2272.0</ele>
      </trkpt>
      <trkpt lat="44.3197" lon="6.83199">
        <time>2023-04-10T09:08:41+00:00</time>
        <ele>2272.0</ele>
      </trkpt>
      <trkpt lat="44.3197" lon="6.83196">
        <time>2023-04-10T09:08:42+00:00</time>
        <ele>2272.0</ele>
      </trkpt>
      <trkpt lat="44.3197" lon="6.83196">
        <time>2023-04-10T09:08:43+00:00</time>
        <ele>2272.0</ele>
      </trkpt>
      <trkpt lat="44.31969" lon="6.83193">
        <time>2023-04-10T09:08:44+00:00</time>
        <ele>2273.0</ele>
      </trkpt>
      <trkpt lat="44.31969" lon="6.83193">
        <time>2023-04-10T09:08:45+00:00</time>
        <ele>2273.0</ele>
      </trkpt>
      <trkpt lat="44.31968" lon="6.83191">
        <time>2023-04-10T09:08:46+00:00</time>
        <ele>2273.0</ele>
      </trkpt>
      <trkpt lat="44.31968" lon="6.83191">
        <time>2023-04-10T09:08:47+00:00</time>
        <ele>2273.0</ele>
      </trkpt>
      <trkpt lat="44.31968" lon="6.83191">
        <time>2023-04-10T09:08:48+00:00</time>
        <ele>2273.0</ele>
      </trkpt>
      <trkpt lat="44.31968" lon="6.83187">
        <time>2023-04-10T09:08:49+00:00</time>
        <ele>2274.0</ele>
      </trkpt>
      <trkpt lat="44.31968" lon="6.83187">
        <time>2023-04-10T09:08:50+00:00</time>
        <ele>2274.0</ele>
      </trkpt>
      <trkpt lat="44.31967" lon="6.83185">
        <time>2023-04-10T09:08:51+00:00</time>
        <ele>2275.0</ele>
      </trkpt>
      <trkpt lat="44.31967" lon="6.83185">
        <time>2023-04-10T09:08:52+00:00</time>
        <ele>2275.0</ele>
      </trkpt>
      <trkpt lat="44.31967" lon="6.83185">
        <time>2023-04-10T09:08:53+00:00</time>
        <ele>2275.0</ele>
      </trkpt>
      <trkpt lat="44.31967" lon="6.83181">
        <time>2023-04-10T09:08:54+00:00</time>
        <ele>2275.0</ele>
      </trkpt>
      <trkpt lat="44.31967" lon="6.83181">
        <time>2023-04-10T09:08:55+00:00</time>
        <ele>2275.0</ele>
      </trkpt>
      <trkpt lat="44.31967" lon="6.83181">
        <time>2023-04-10T09:08:56+00:00</time>
        <ele>2275.0</ele>
      </trkpt>
      <trkpt lat="44.31967" lon="6.83179">
        <time>2023-04-10T09:08:57+00:00</time>
        <ele>2275.0</ele>
      </trkpt>
      <trkpt lat="44.31967" lon="6.83179">
        <time>2023-04-10T09:08:58+00:00</time>
        <ele>2275.0</ele>
      </trkpt>
      <trkpt lat="44.31967" lon="6.83179">
        <time>2023-04-10T09:08:59+00:00</time>
        <ele>2275.0</ele>
      </trkpt>
      <trkpt lat="44.31967" lon="6.83179">
        <time>2023-04-10T09:09:00+00:00</time>
        <ele>2275.0</ele>
      </trkpt>
      <trkpt lat="44.31965" lon="6.83178">
        <time>2023-04-10T09:09:01+00:00</time>
        <ele>2276.0</ele>
      </trkpt>
      <trkpt lat="44.31965" lon="6.83178">
        <time>2023-04-10T09:09:02+00:00</time>
        <ele>2276.0</ele>
      </trkpt>
      <trkpt lat="44.31965" lon="6.83178">
        <time>2023-04-10T09:09:03+00:00</time>
        <ele>2276.0</ele>
      </trkpt>
      <trkpt lat="44.31963" lon="6.83179">
        <time>2023-04-10T09:09:04+00:00</time>
        <ele>2277.0</ele>
      </trkpt>
      <trkpt lat="44.31963" lon="6.83179">
        <time>2023-04-10T09:09:05+00:00</time>
        <ele>2277.0</ele>
      </trkpt>
      <trkpt lat="44.31963" lon="6.83179">
        <time>2023-04-10T09:09:06+00:00</time>
        <ele>2277.0</ele>
      </trkpt>
      <trkpt lat="44.31961" lon="6.83181">
        <time>2023-04-10T09:09:07+00:00</time>
        <ele>2277.0</ele>
      </trkpt>
      <trkpt lat="44.31961" lon="6.83181">
        <time>2023-04-10T09:09:08+00:00</time>
        <ele>2277.0</ele>
      </trkpt>
      <trkpt lat="44.31959" lon="6.83183">
        <time>2023-04-10T09:09:09+00:00</time>
        <ele>2277.0</ele>
      </trkpt>
      <trkpt lat="44.31959" lon="6.83183">
        <time>2023-04-10T09:09:10+00:00</time>
        <ele>2277.0</ele>
      </trkpt>
      <trkpt lat="44.31959" lon="6.83183">
        <time>2023-04-10T09:09:11+00:00</time>
        <ele>2277.0</ele>
      </trkpt>
      <trkpt lat="44.31958" lon="6.83185">
        <time>2023-04-10T09:09:12+00:00</time>
        <ele>2277.0</ele>
      </trkpt>
      <trkpt lat="44.31958" lon="6.83185">
        <time>2023-04-10T09:09:13+00:00</time>
        <ele>2277.0</ele>
      </trkpt>
      <trkpt lat="44.31958" lon="6.83185">
        <time>2023-04-10T09:09:14+00:00</time>
        <ele>2277.0</ele>
      </trkpt>
      <trkpt lat="44.31956" lon="6.83188">
        <time>2023-04-10T09:09:15+00:00</time>
        <ele>2277.0</ele>
      </trkpt>
      <trkpt lat="44.31956" lon="6.83188">
        <time>2023-04-10T09:09:16+00:00</time>
        <ele>2277.0</ele>
      </trkpt>
      <trkpt lat="44.31954" lon="6.83189">
        <time>2023-04-10T09:09:17+00:00</time>
        <ele>2277.0</ele>
      </trkpt>
      <trkpt lat="44.31954" lon="6.83189">
        <time>2023-04-10T09:09:18+00:00</time>
        <ele>2277.0</ele>
      </trkpt>
      <trkpt lat="44.31954" lon="6.83189">
        <time>2023-04-10T09:09:19+00:00</time>
        <ele>2277.0</ele>
      </trkpt>
      <trkpt lat="44.31953" lon="6.83191">
        <time>2023-04-10T09:09:20+00:00</time>
        <ele>2277.0</ele>
      </trkpt>
      <trkpt lat="44.31953" lon="6.83191">
        <time>2023-04-10T09:09:21+00:00</time>
        <ele>2277.0</ele>
      </trkpt>
      <trkpt lat="44.31953" lon="6.83191">
        <time>2023-04-10T09:09:22+00:00</time>
        <ele>2277.0</ele>
      </trkpt>
      <trkpt lat="44.31951" lon="6.83193">
        <time>2023-04-10T09:09:23+00:00</time>
        <ele>2278.0</ele>
      </trkpt>
      <trkpt lat="44.31951" lon="6.83193">
        <time>2023-04-10T09:09:24+00:00</time>
        <ele>2278.0</ele>
      </trkpt>
      <trkpt lat="44.31951" lon="6.83193">
        <time>2023-04-10T09:09:25+00:00</time>
        <ele>2278.0</ele>
      </trkpt>
      <trkpt lat="44.31949" lon="6.83195">
        <time>2023-04-10T09:09:26+00:00</time>
        <ele>2278.0</ele>
      </trkpt>
      <trkpt lat="44.31949" lon="6.83195">
        <time>2023-04-10T09:09:27+00:00</time>
        <ele>2278.0</ele>
      </trkpt>
      <trkpt lat="44.31949" lon="6.83195">
        <time>2023-04-10T09:09:28+00:00</time>
        <ele>2278.0</ele>
      </trkpt>
      <trkpt lat="44.31948" lon="6.83198">
        <time>2023-04-10T09:09:29+00:00</time>
        <ele>2278.0</ele>
      </trkpt>
      <trkpt lat="44.31948" lon="6.83198">
        <time>2023-04-10T09:09:30+00:00</time>
        <ele>2278.0</ele>
      </trkpt>
      <trkpt lat="44.31948" lon="6.83198">
        <time>2023-04-10T09:09:31+00:00</time>
        <ele>2278.0</ele>
      </trkpt>
      <trkpt lat="44.31947" lon="6.832">
        <time>2023-04-10T09:09:32+00:00</time>
        <ele>2278.0</ele>
      </trkpt>
      <trkpt lat="44.31947" lon="6.832">
        <time>2023-04-10T09:09:33+00:00</time>
        <ele>2278.0</ele>
      </trkpt>
      <trkpt lat="44.31947" lon="6.832">
        <time>2023-04-10T09:09:34+00:00</time>
        <ele>2278.0</ele>
      </trkpt>
      <trkpt lat="44.31944" lon="6.83201">
        <time>2023-04-10T09:09:35+00:00</time>
        <ele>2279.0</ele>
      </trkpt>
      <trkpt lat="44.31944" lon="6.83201">
        <time>2023-04-10T09:09:36+00:00</time>
        <ele>2279.0</ele>
      </trkpt>
      <trkpt lat="44.31944" lon="6.83201">
        <time>2023-04-10T09:09:37+00:00</time>
        <ele>2279.0</ele>
      </trkpt>
      <trkpt lat="44.31942" lon="6.83204">
        <time>2023-04-10T09:09:38+00:00</time>
        <ele>2279.0</ele>
      </trkpt>
      <trkpt lat="44.31942" lon="6.83204">
        <time>2023-04-10T09:09:39+00:00</time>
        <ele>2279.0</ele>
      </trkpt>
      <trkpt lat="44.3194" lon="6.83205">
        <time>2023-04-10T09:09:40+00:00</time>
        <ele>2279.0</ele>
      </trkpt>
      <trkpt lat="44.3194" lon="6.83205">
        <time>2023-04-10T09:09:41+00:00</time>
        <ele>2279.0</ele>
      </trkpt>
      <trkpt lat="44.3194" lon="6.83205">
        <time>2023-04-10T09:09:42+00:00</time>
        <ele>2279.0</ele>
      </trkpt>
      <trkpt lat="44.31938" lon="6.83206">
        <time>2023-04-10T09:09:43+00:00</time>
        <ele>2280.0</ele>
      </trkpt>
      <trkpt lat="44.31938" lon="6.83206">
        <time>2023-04-10T09:09:44+00:00</time>
        <ele>2280.0</ele>
      </trkpt>
      <trkpt lat="44.31938" lon="6.83206">
        <time>2023-04-10T09:09:45+00:00</time>
        <ele>2280.0</ele>
      </trkpt>
      <trkpt lat="44.31936" lon="6.83206">
        <time>2023-04-10T09:09:46+00:00</time>
        <ele>2280.0</ele>
      </trkpt>
      <trkpt lat="44.31936" lon="6.83206">
        <time>2023-04-10T09:09:47+00:00</time>
        <ele>2280.0</ele>
      </trkpt>
      <trkpt lat="44.31936" lon="6.83206">
        <time>2023-04-10T09:09:48+00:00</time>
        <ele>2280.0</ele>
      </trkpt>
      <trkpt lat="44.31934" lon="6.83204">
        <time>2023-04-10T09:09:49+00:00</time>
        <ele>2281.0</ele>
      </trkpt>
      <trkpt lat="44.31934" lon="6.83204">
        <time>2023-04-10T09:09:50+00:00</time>
        <ele>2281.0</ele>
      </trkpt>
      <trkpt lat="44.31934" lon="6.83204">
        <time>2023-04-10T09:09:51+00:00</time>
        <ele>2281.0</ele>
      </trkpt>
      <trkpt lat="44.31933" lon="6.83202">
        <time>2023-04-10T09:09:52+00:00</time>
        <ele>2282.0</ele>
      </trkpt>
      <trkpt lat="44.31933" lon="6.83202">
        <time>2023-04-10T09:09:53+00:00</time>
        <ele>2282.0</ele>
      </trkpt>
      <trkpt lat="44.31933" lon="6.83202">
        <time>2023-04-10T09:09:54+00:00</time>
        <ele>2282.0</ele>
      </trkpt>
      <trkpt lat="44.31932" lon="6.83199">
        <time>2023-04-10T09:09:55+00:00</time>
        <ele>2283.0</ele>
      </trkpt>
      <trkpt lat="44.31932" lon="6.83199">
        <time>2023-04-10T09:09:56+00:00</time>
        <ele>2283.0</ele>
      </trkpt>
      <trkpt lat="44.31932" lon="6.83199">
        <time>2023-04-10T09:09:57+00:00</time>
        <ele>2283.0</ele>
      </trkpt>
      <trkpt lat="44.3193" lon="6.83197">
        <time>2023-04-10T09:09:58+00:00</time>
        <ele>2284.0</ele>
      </trkpt>
      <trkpt lat="44.3193" lon="6.83197">
        <time>2023-04-10T09:09:59+00:00</time>
        <ele>2284.0</ele>
      </trkpt>
      <trkpt lat="44.31929" lon="6.83195">
        <time>2023-04-10T09:10:00+00:00</time>
        <ele>2284.0</ele>
      </trkpt>
      <trkpt lat="44.31928" lon="6.83193">
        <time>2023-04-10T09:10:02+00:00</time>
        <ele>2285.0</ele>
      </trkpt>
      <trkpt lat="44.31928" lon="6.83193">
        <time>2023-04-10T09:10:03+00:00</time>
        <ele>2285.0</ele>
      </trkpt>
      <trkpt lat="44.31928" lon="6.83193">
        <time>2023-04-10T09:10:04+00:00</time>
        <ele>2285.0</ele>
      </trkpt>
      <trkpt lat="44.31926" lon="6.83191">
        <time>2023-04-10T09:10:05+00:00</time>
        <ele>2286.0</ele>
      </trkpt>
      <trkpt lat="44.31926" lon="6.83191">
        <time>2023-04-10T09:10:06+00:00</time>
        <ele>2286.0</ele>
      </trkpt>
      <trkpt lat="44.31926" lon="6.83191">
        <time>2023-04-10T09:10:07+00:00</time>
        <ele>2286.0</ele>
      </trkpt>
      <trkpt lat="44.31925" lon="6.83189">
        <time>2023-04-10T09:10:08+00:00</time>
        <ele>2286.0</ele>
      </trkpt>
      <trkpt lat="44.31925" lon="6.83189">
        <time>2023-04-10T09:10:09+00:00</time>
        <ele>2286.0</ele>
      </trkpt>
      <trkpt lat="44.31925" lon="6.83189">
        <time>2023-04-10T09:10:10+00:00</time>
        <ele>2286.0</ele>
      </trkpt>
      <trkpt lat="44.31925" lon="6.83189">
        <time>2023-04-10T09:10:11+00:00</time>
        <ele>2286.0</ele>
      </trkpt>
      <trkpt lat="44.31925" lon="6.83189">
        <time>2023-04-10T09:10:12+00:00</time>
        <ele>2286.0</ele>
      </trkpt>
      <trkpt lat="44.31923" lon="6.83188">
        <time>2023-04-10T09:10:13+00:00</time>
        <ele>2287.0</ele>
      </trkpt>
      <trkpt lat="44.31923" lon="6.83188">
        <time>2023-04-10T09:10:14+00:00</time>
        <ele>2287.0</ele>
      </trkpt>
      <trkpt lat="44.31921" lon="6.83188">
        <time>2023-04-10T09:10:15+00:00</time>
        <ele>2287.0</ele>
      </trkpt>
      <trkpt lat="44.31921" lon="6.83188">
        <time>2023-04-10T09:10:16+00:00</time>
        <ele>2287.0</ele>
      </trkpt>
      <trkpt lat="44.31919" lon="6.83188">
        <time>2023-04-10T09:10:17+00:00</time>
        <ele>2288.0</ele>
      </trkpt>
      <trkpt lat="44.31919" lon="6.83188">
        <time>2023-04-10T09:10:18+00:00</time>
        <ele>2288.0</ele>
      </trkpt>
      <trkpt lat="44.31919" lon="6.83188">
        <time>2023-04-10T09:10:19+00:00</time>
        <ele>2288.0</ele>
      </trkpt>
      <trkpt lat="44.31919" lon="6.83188">
        <time>2023-04-10T09:10:20+00:00</time>
        <ele>2288.0</ele>
      </trkpt>
      <trkpt lat="44.31917" lon="6.83187">
        <time>2023-04-10T09:10:21+00:00</time>
        <ele>2289.0</ele>
      </trkpt>
      <trkpt lat="44.31917" lon="6.83187">
        <time>2023-04-10T09:10:22+00:00</time>
        <ele>2289.0</ele>
      </trkpt>
      <trkpt lat="44.31915" lon="6.83187">
        <time>2023-04-10T09:10:23+00:00</time>
        <ele>2289.0</ele>
      </trkpt>
      <trkpt lat="44.31915" lon="6.83187">
        <time>2023-04-10T09:10:25+00:00</time>
        <ele>2289.0</ele>
      </trkpt>
      <trkpt lat="44.31912" lon="6.83186">
        <time>2023-04-10T09:10:26+00:00</time>
        <ele>2290.0</ele>
      </trkpt>
      <trkpt lat="44.31912" lon="6.83186">
        <time>2023-04-10T09:10:27+00:00</time>
        <ele>2290.0</ele>
      </trkpt>
      <trkpt lat="44.3191" lon="6.83186">
        <time>2023-04-10T09:10:28+00:00</time>
        <ele>2291.0</ele>
      </trkpt>
      <trkpt lat="44.3191" lon="6.83186">
        <time>2023-04-10T09:10:29+00:00</time>
        <ele>2291.0</ele>
      </trkpt>
      <trkpt lat="44.3191" lon="6.83186">
        <time>2023-04-10T09:10:30+00:00</time>
        <ele>2291.0</ele>
      </trkpt>
      <trkpt lat="44.31908" lon="6.83185">
        <time>2023-04-10T09:10:31+00:00</time>
        <ele>2291.0</ele>
      </trkpt>
      <trkpt lat="44.31908" lon="6.83185">
        <time>2023-04-10T09:10:32+00:00</time>
        <ele>2291.0</ele>
      </trkpt>
      <trkpt lat="44.31908" lon="6.83185">
        <time>2023-04-10T09:10:33+00:00</time>
        <ele>2291.0</ele>
      </trkpt>
      <trkpt lat="44.31905" lon="6.83184">
        <time>2023-04-10T09:10:34+00:00</time>
        <ele>2292.0</ele>
      </trkpt>
      <trkpt lat="44.31905" lon="6.83184">
        <time>2023-04-10T09:10:35+00:00</time>
        <ele>2292.0</ele>
      </trkpt>
      <trkpt lat="44.31905" lon="6.83184">
        <time>2023-04-10T09:10:36+00:00</time>
        <ele>2292.0</ele>
      </trkpt>
      <trkpt lat="44.31903" lon="6.83183">
        <time>2023-04-10T09:10:37+00:00</time>
        <ele>2293.0</ele>
      </trkpt>
      <trkpt lat="44.31903" lon="6.83183">
        <time>2023-04-10T09:10:38+00:00</time>
        <ele>2293.0</ele>
      </trkpt>
      <trkpt lat="44.31903" lon="6.83183">
        <time>2023-04-10T09:10:39+00:00</time>
        <ele>2293.0</ele>
      </trkpt>
      <trkpt lat="44.31901" lon="6.83182">
        <time>2023-04-10T09:10:40+00:00</time>
        <ele>2294.0</ele>
      </trkpt>
      <trkpt lat="44.31901" lon="6.83182">
        <time>2023-04-10T09:10:41+00:00</time>
        <ele>2294.0</ele>
      </trkpt>
      <trkpt lat="44.31901" lon="6.83182">
        <time>2023-04-10T09:10:42+00:00</time>
        <ele>2294.0</ele>
      </trkpt>
      <trkpt lat="44.31899" lon="6.83181">
        <time>2023-04-10T09:10:43+00:00</time>
        <ele>2294.0</ele>
      </trkpt>
      <trkpt lat="44.31899" lon="6.83181">
        <time>2023-04-10T09:10:44+00:00</time>
        <ele>2294.0</ele>
      </trkpt>
      <trkpt lat="44.31899" lon="6.83181">
        <time>2023-04-10T09:10:45+00:00</time>
        <ele>2294.0</ele>
      </trkpt>
      <trkpt lat="44.31897" lon="6.83181">
        <time>2023-04-10T09:10:46+00:00</time>
        <ele>2295.0</ele>
      </trkpt>
      <trkpt lat="44.31897" lon="6.83181">
        <time>2023-04-10T09:10:47+00:00</time>
        <ele>2295.0</ele>
      </trkpt>
      <trkpt lat="44.31897" lon="6.83181">
        <time>2023-04-10T09:10:48+00:00</time>
        <ele>2295.0</ele>
      </trkpt>
      <trkpt lat="44.31895" lon="6.83181">
        <time>2023-04-10T09:10:49+00:00</time>
        <ele>2296.0</ele>
      </trkpt>
      <trkpt lat="44.31895" lon="6.83181">
        <time>2023-04-10T09:10:50+00:00</time>
        <ele>2296.0</ele>
      </trkpt>
      <trkpt lat="44.31895" lon="6.83181">
        <time>2023-04-10T09:10:51+00:00</time>
        <ele>2296.0</ele>
      </trkpt>
      <trkpt lat="44.31893" lon="6.83181">
        <time>2023-04-10T09:10:52+00:00</time>
        <ele>2296.0</ele>
      </trkpt>
      <trkpt lat="44.31893" lon="6.83181">
        <time>2023-04-10T09:10:53+00:00</time>
        <ele>2296.0</ele>
      </trkpt>
      <trkpt lat="44.31893" lon="6.83181">
        <time>2023-04-10T09:10:54+00:00</time>
        <ele>2296.0</ele>
      </trkpt>
      <trkpt lat="44.3189" lon="6.83179">
        <time>2023-04-10T09:10:55+00:00</time>
        <ele>2297.0</ele>
      </trkpt>
      <trkpt lat="44.3189" lon="6.83179">
        <time>2023-04-10T09:10:56+00:00</time>
        <ele>2297.0</ele>
      </trkpt>
      <trkpt lat="44.3189" lon="6.83179">
        <time>2023-04-10T09:10:57+00:00</time>
        <ele>2297.0</ele>
      </trkpt>
      <trkpt lat="44.31888" lon="6.83179">
        <time>2023-04-10T09:10:58+00:00</time>
        <ele>2298.0</ele>
      </trkpt>
      <trkpt lat="44.31888" lon="6.83179">
        <time>2023-04-10T09:10:59+00:00</time>
        <ele>2298.0</ele>
      </trkpt>
      <trkpt lat="44.31888" lon="6.83179">
        <time>2023-04-10T09:11:00+00:00</time>
        <ele>2298.0</ele>
      </trkpt>
      <trkpt lat="44.31885" lon="6.83178">
        <time>2023-04-10T09:11:01+00:00</time>
        <ele>2298.0</ele>
      </trkpt>
      <trkpt lat="44.31885" lon="6.83178">
        <time>2023-04-10T09:11:02+00:00</time>
        <ele>2298.0</ele>
      </trkpt>
      <trkpt lat="44.31885" lon="6.83178">
        <time>2023-04-10T09:11:03+00:00</time>
        <ele>2298.0</ele>
      </trkpt>
      <trkpt lat="44.31884" lon="6.83178">
        <time>2023-04-10T09:11:04+00:00</time>
        <ele>2299.0</ele>
      </trkpt>
      <trkpt lat="44.31884" lon="6.83178">
        <time>2023-04-10T09:11:05+00:00</time>
        <ele>2299.0</ele>
      </trkpt>
      <trkpt lat="44.31882" lon="6.83177">
        <time>2023-04-10T09:11:06+00:00</time>
        <ele>2299.0</ele>
      </trkpt>
      <trkpt lat="44.31882" lon="6.83177">
        <time>2023-04-10T09:11:07+00:00</time>
        <ele>2299.0</ele>
      </trkpt>
      <trkpt lat="44.31882" lon="6.83177">
        <time>2023-04-10T09:11:08+00:00</time>
        <ele>2299.0</ele>
      </trkpt>
      <trkpt lat="44.3188" lon="6.83177">
        <time>2023-04-10T09:11:09+00:00</time>
        <ele>2300.0</ele>
      </trkpt>
      <trkpt lat="44.3188" lon="6.83177">
        <time>2023-04-10T09:11:10+00:00</time>
        <ele>2300.0</ele>
      </trkpt>
      <trkpt lat="44.3188" lon="6.83177">
        <time>2023-04-10T09:11:11+00:00</time>
        <ele>2300.0</ele>
      </trkpt>
      <trkpt lat="44.31877" lon="6.83176">
        <time>2023-04-10T09:11:12+00:00</time>
        <ele>2301.0</ele>
      </trkpt>
      <trkpt lat="44.31877" lon="6.83176">
        <time>2023-04-10T09:11:13+00:00</time>
        <ele>2301.0</ele>
      </trkpt>
      <trkpt lat="44.31877" lon="6.83176">
        <time>2023-04-10T09:11:14+00:00</time>
        <ele>2301.0</ele>
      </trkpt>
      <trkpt lat="44.31875" lon="6.83177">
        <time>2023-04-10T09:11:15+00:00</time>
        <ele>2301.0</ele>
      </trkpt>
      <trkpt lat="44.31875" lon="6.83177">
        <time>2023-04-10T09:11:16+00:00</time>
        <ele>2301.0</ele>
      </trkpt>
      <trkpt lat="44.31875" lon="6.83177">
        <time>2023-04-10T09:11:17+00:00</time>
        <ele>2301.0</ele>
      </trkpt>
      <trkpt lat="44.31873" lon="6.83178">
        <time>2023-04-10T09:11:18+00:00</time>
        <ele>2302.0</ele>
      </trkpt>
      <trkpt lat="44.31873" lon="6.83178">
        <time>2023-04-10T09:11:19+00:00</time>
        <ele>2302.0</ele>
      </trkpt>
      <trkpt lat="44.31871" lon="6.83178">
        <time>2023-04-10T09:11:20+00:00</time>
        <ele>2302.0</ele>
      </trkpt>
      <trkpt lat="44.31871" lon="6.83178">
        <time>2023-04-10T09:11:21+00:00</time>
        <ele>2302.0</ele>
      </trkpt>
      <trkpt lat="44.31871" lon="6.83178">
        <time>2023-04-10T09:11:22+00:00</time>
        <ele>2302.0</ele>
      </trkpt>
      <trkpt lat="44.31869" lon="6.83178">
        <time>2023-04-10T09:11:23+00:00</time>
        <ele>2303.0</ele>
      </trkpt>
      <trkpt lat="44.31869" lon="6.83178">
        <time>2023-04-10T09:11:24+00:00</time>
        <ele>2303.0</ele>
      </trkpt>
      <trkpt lat="44.31867" lon="6.83178">
        <time>2023-04-10T09:11:25+00:00</time>
        <ele>2303.0</ele>
      </trkpt>
      <trkpt lat="44.31867" lon="6.83178">
        <time>2023-04-10T09:11:26+00:00</time>
        <ele>2303.0</ele>
      </trkpt>
      <trkpt lat="44.31867" lon="6.83178">
        <time>2023-04-10T09:11:27+00:00</time>
        <ele>2303.0</ele>
      </trkpt>
      <trkpt lat="44.31865" lon="6.83177">
        <time>2023-04-10T09:11:28+00:00</time>
        <ele>2304.0</ele>
      </trkpt>
      <trkpt lat="44.31865" lon="6.83177">
        <time>2023-04-10T09:11:29+00:00</time>
        <ele>2304.0</ele>
      </trkpt>
      <trkpt lat="44.31865" lon="6.83177">
        <time>2023-04-10T09:11:30+00:00</time>
        <ele>2304.0</ele>
      </trkpt>
      <trkpt lat="44.31865" lon="6.83177">
        <time>2023-04-10T09:11:31+00:00</time>
        <ele>2304.0</ele>
      </trkpt>
      <trkpt lat="44.31862" lon="6.83176">
        <time>2023-04-10T09:11:32+00:00</time>
        <ele>2304.0</ele>
      </trkpt>
      <trkpt lat="44.31862" lon="6.83176">
        <time>2023-04-10T09:11:33+00:00</time>
        <ele>2304.0</ele>
      </trkpt>
      <trkpt lat="44.31862" lon="6.83176">
        <time>2023-04-10T09:11:34+00:00</time>
        <ele>2304.0</ele>
      </trkpt>
      <trkpt lat="44.3186" lon="6.83176">
        <time>2023-04-10T09:11:35+00:00</time>
        <ele>2305.0</ele>
      </trkpt>
      <trkpt lat="44.3186" lon="6.83176">
        <time>2023-04-10T09:11:36+00:00</time>
        <ele>2305.0</ele>
      </trkpt>
      <trkpt lat="44.3186" lon="6.83176">
        <time>2023-04-10T09:11:37+00:00</time>
        <ele>2305.0</ele>
      </trkpt>
      <trkpt lat="44.31858" lon="6.83175">
        <time>2023-04-10T09:11:38+00:00</time>
        <ele>2305.0</ele>
      </trkpt>
      <trkpt lat="44.31858" lon="6.83175">
        <time>2023-04-10T09:11:39+00:00</time>
        <ele>2305.0</ele>
      </trkpt>
      <trkpt lat="44.31858" lon="6.83175">
        <time>2023-04-10T09:11:40+00:00</time>
        <ele>2305.0</ele>
      </trkpt>
      <trkpt lat="44.31855" lon="6.83174">
        <time>2023-04-10T09:11:41+00:00</time>
        <ele>2306.0</ele>
      </trkpt>
      <trkpt lat="44.31855" lon="6.83174">
        <time>2023-04-10T09:11:42+00:00</time>
        <ele>2306.0</ele>
      </trkpt>
      <trkpt lat="44.31855" lon="6.83174">
        <time>2023-04-10T09:11:43+00:00</time>
        <ele>2306.0</ele>
      </trkpt>
      <trkpt lat="44.31853" lon="6.83174">
        <time>2023-04-10T09:11:44+00:00</time>
        <ele>2307.0</ele>
      </trkpt>
      <trkpt lat="44.31853" lon="6.83174">
        <time>2023-04-10T09:11:45+00:00</time>
        <ele>2307.0</ele>
      </trkpt>
      <trkpt lat="44.31853" lon="6.83174">
        <time>2023-04-10T09:11:46+00:00</time>
        <ele>2307.0</ele>
      </trkpt>
      <trkpt lat="44.3185" lon="6.83173">
        <time>2023-04-10T09:11:47+00:00</time>
        <ele>2307.0</ele>
      </trkpt>
      <trkpt lat="44.3185" lon="6.83173">
        <time>2023-04-10T09:11:48+00:00</time>
        <ele>2307.0</ele>
      </trkpt>
      <trkpt lat="44.3185" lon="6.83173">
        <time>2023-04-10T09:11:49+00:00</time>
        <ele>2307.0</ele>
      </trkpt>
      <trkpt lat="44.31847" lon="6.83173">
        <time>2023-04-10T09:11:50+00:00</time>
        <ele>2308.0</ele>
      </trkpt>
      <trkpt lat="44.31847" lon="6.83173">
        <time>2023-04-10T09:11:51+00:00</time>
        <ele>2308.0</ele>
      </trkpt>
      <trkpt lat="44.31847" lon="6.83173">
        <time>2023-04-10T09:11:52+00:00</time>
        <ele>2308.0</ele>
      </trkpt>
      <trkpt lat="44.31845" lon="6.83172">
        <time>2023-04-10T09:11:53+00:00</time>
        <ele>2308.0</ele>
      </trkpt>
      <trkpt lat="44.31845" lon="6.83172">
        <time>2023-04-10T09:11:54+00:00</time>
        <ele>2308.0</ele>
      </trkpt>
      <trkpt lat="44.31845" lon="6.83172">
        <time>2023-04-10T09:11:55+00:00</time>
        <ele>2308.0</ele>
      </trkpt>
      <trkpt lat="44.31843" lon="6.83171">
        <time>2023-04-10T09:11:56+00:00</time>
        <ele>2308.0</ele>
      </trkpt>
      <trkpt lat="44.31843" lon="6.83171">
        <time>2023-04-10T09:11:57+00:00</time>
        <ele>2308.0</ele>
      </trkpt>
      <trkpt lat="44.31843" lon="6.83171">
        <time>2023-04-10T09:11:58+00:00</time>
        <ele>2308.0</ele>
      </trkpt>
      <trkpt lat="44.31841" lon="6.8317">
        <time>2023-04-10T09:11:59+00:00</time>
        <ele>2309.0</ele>
      </trkpt>
      <trkpt lat="44.31841" lon="6.8317">
        <time>2023-04-10T09:12:00+00:00</time>
        <ele>2309.0</ele>
      </trkpt>
      <trkpt lat="44.31839" lon="6.83169">
        <time>2023-04-10T09:12:01+00:00</time>
        <ele>2309.0</ele>
      </trkpt>
      <trkpt lat="44.31839" lon="6.83169">
        <time>2023-04-10T09:12:02+00:00</time>
        <ele>2309.0</ele>
      </trkpt>
      <trkpt lat="44.31839" lon="6.83169">
        <time>2023-04-10T09:12:03+00:00</time>
        <ele>2309.0</ele>
      </trkpt>
      <trkpt lat="44.31837" lon="6.83168">
        <time>2023-04-10T09:12:04+00:00</time>
        <ele>2310.0</ele>
      </trkpt>
      <trkpt lat="44.31837" lon="6.83168">
        <time>2023-04-10T09:12:05+00:00</time>
        <ele>2310.0</ele>
      </trkpt>
      <trkpt lat="44.31837" lon="6.83168">
        <time>2023-04-10T09:12:06+00:00</time>
        <ele>2310.0</ele>
      </trkpt>
      <trkpt lat="44.31835" lon="6.83167">
        <time>2023-04-10T09:12:07+00:00</time>
        <ele>2310.0</ele>
      </trkpt>
      <trkpt lat="44.31835" lon="6.83167">
        <time>2023-04-10T09:12:08+00:00</time>
        <ele>2310.0</ele>
      </trkpt>
      <trkpt lat="44.31835" lon="6.83167">
        <time>2023-04-10T09:12:09+00:00</time>
        <ele>2310.0</ele>
      </trkpt>
      <trkpt lat="44.31833" lon="6.83166">
        <time>2023-04-10T09:12:10+00:00</time>
        <ele>2311.0</ele>
      </trkpt>
      <trkpt lat="44.31833" lon="6.83166">
        <time>2023-04-10T09:12:11+00:00</time>
        <ele>2311.0</ele>
      </trkpt>
      <trkpt lat="44.31833" lon="6.83166">
        <time>2023-04-10T09:12:12+00:00</time>
        <ele>2311.0</ele>
      </trkpt>
      <trkpt lat="44.31831" lon="6.83165">
        <time>2023-04-10T09:12:13+00:00</time>
        <ele>2311.0</ele>
      </trkpt>
      <trkpt lat="44.31831" lon="6.83165">
        <time>2023-04-10T09:12:14+00:00</time>
        <ele>2311.0</ele>
      </trkpt>
      <trkpt lat="44.31831" lon="6.83165">
        <time>2023-04-10T09:12:15+00:00</time>
        <ele>2311.0</ele>
      </trkpt>
      <trkpt lat="44.31829" lon="6.83164">
        <time>2023-04-10T09:12:16+00:00</time>
        <ele>2312.0</ele>
      </trkpt>
      <trkpt lat="44.31829" lon="6.83164">
        <time>2023-04-10T09:12:17+00:00</time>
        <ele>2312.0</ele>
      </trkpt>
      <trkpt lat="44.31829" lon="6.83164">
        <time>2023-04-10T09:12:18+00:00</time>
        <ele>2312.0</ele>
      </trkpt>
      <trkpt lat="44.31826" lon="6.83162">
        <time>2023-04-10T09:12:19+00:00</time>
        <ele>2313.0</ele>
      </trkpt>
      <trkpt lat="44.31826" lon="6.83162">
        <time>2023-04-10T09:12:20+00:00</time>
        <ele>2313.0</ele>
      </trkpt>
      <trkpt lat="44.31826" lon="6.83162">
        <time>2023-04-10T09:12:21+00:00</time>
        <ele>2313.0</ele>
      </trkpt>
      <trkpt lat="44.31825" lon="6.8316">
        <time>2023-04-10T09:12:22+00:00</time>
        <ele>2313.0</ele>
      </trkpt>
      <trkpt lat="44.31825" lon="6.8316">
        <time>2023-04-10T09:12:23+00:00</time>
        <ele>2313.0</ele>
      </trkpt>
      <trkpt lat="44.31825" lon="6.8316">
        <time>2023-04-10T09:12:24+00:00</time>
        <ele>2313.0</ele>
      </trkpt>
      <trkpt lat="44.31823" lon="6.83158">
        <time>2023-04-10T09:12:25+00:00</time>
        <ele>2314.0</ele>
      </trkpt>
      <trkpt lat="44.31823" lon="6.83158">
        <time>2023-04-10T09:12:26+00:00</time>
        <ele>2314.0</ele>
      </trkpt>
      <trkpt lat="44.31823" lon="6.83158">
        <time>2023-04-10T09:12:27+00:00</time>
        <ele>2314.0</ele>
      </trkpt>
      <trkpt lat="44.31822" lon="6.83155">
        <time>2023-04-10T09:12:28+00:00</time>
        <ele>2314.0</ele>
      </trkpt>
      <trkpt lat="44.31822" lon="6.83155">
        <time>2023-04-10T09:12:29+00:00</time>
        <ele>2314.0</ele>
      </trkpt>
      <trkpt lat="44.31822" lon="6.83155">
        <time>2023-04-10T09:12:30+00:00</time>
        <ele>2314.0</ele>
      </trkpt>
      <trkpt lat="44.31821" lon="6.83152">
        <time>2023-04-10T09:12:31+00:00</time>
        <ele>2315.0</ele>
      </trkpt>
      <trkpt lat="44.31821" lon="6.83152">
        <time>2023-04-10T09:12:32+00:00</time>
        <ele>2315.0</ele>
      </trkpt>
      <trkpt lat="44.31821" lon="6.83152">
        <time>2023-04-10T09:12:33+00:00</time>
        <ele>2315.0</ele>
      </trkpt>
      <trkpt lat="44.31821" lon="6.83149">
        <time>2023-04-10T09:12:34+00:00</time>
        <ele>2315.0</ele>
      </trkpt>
      <trkpt lat="44.31821" lon="6.83149">
        <time>2023-04-10T09:12:35+00:00</time>
        <ele>2315.0</ele>
      </trkpt>
      <trkpt lat="44.31821" lon="6.83149">
        <time>2023-04-10T09:12:36+00:00</time>
        <ele>2315.0</ele>
      </trkpt>
      <trkpt lat="44.3182" lon="6.83146">
        <time>2023-04-10T09:12:37+00:00</time>
        <ele>2316.0</ele>
      </trkpt>
      <trkpt lat="44.3182" lon="6.83146">
        <time>2023-04-10T09:12:38+00:00</time>
        <ele>2316.0</ele>
      </trkpt>
      <trkpt lat="44.3182" lon="6.83146">
        <time>2023-04-10T09:12:39+00:00</time>
        <ele>2316.0</ele>
      </trkpt>
      <trkpt lat="44.31821" lon="6.83142">
        <time>2023-04-10T09:12:40+00:00</time>
        <ele>2316.0</ele>
      </trkpt>
      <trkpt lat="44.31821" lon="6.83142">
        <time>2023-04-10T09:12:41+00:00</time>
        <ele>2316.0</ele>
      </trkpt>
      <trkpt lat="44.31821" lon="6.83142">
        <time>2023-04-10T09:12:42+00:00</time>
        <ele>2316.0</ele>
      </trkpt>
      <trkpt lat="44.31821" lon="6.83139">
        <time>2023-04-10T09:12:43+00:00</time>
        <ele>2316.0</ele>
      </trkpt>
      <trkpt lat="44.31821" lon="6.83139">
        <time>2023-04-10T09:12:44+00:00</time>
        <ele>2316.0</ele>
      </trkpt>
      <trkpt lat="44.31821" lon="6.83139">
        <time>2023-04-10T09:12:45+00:00</time>
        <ele>2316.0</ele>
      </trkpt>
      <trkpt lat="44.31822" lon="6.83136">
        <time>2023-04-10T09:12:46+00:00</time>
        <ele>2316.0</ele>
      </trkpt>
      <trkpt lat="44.31822" lon="6.83136">
        <time>2023-04-10T09:12:47+00:00</time>
        <ele>2316.0</ele>
      </trkpt>
      <trkpt lat="44.31822" lon="6.83136">
        <time>2023-04-10T09:12:48+00:00</time>
        <ele>2316.0</ele>
      </trkpt>
      <trkpt lat="44.31821" lon="6.83133">
        <time>2023-04-10T09:12:49+00:00</time>
        <ele>2317.0</ele>
      </trkpt>
      <trkpt lat="44.31821" lon="6.83133">
        <time>2023-04-10T09:12:50+00:00</time>
        <ele>2317.0</ele>
      </trkpt>
      <trkpt lat="44.31821" lon="6.83133">
        <time>2023-04-10T09:12:51+00:00</time>
        <ele>2317.0</ele>
      </trkpt>
      <trkpt lat="44.3182" lon="6.83131">
        <time>2023-04-10T09:12:52+00:00</time>
        <ele>2317.0</ele>
      </trkpt>
      <trkpt lat="44.3182" lon="6.83131">
        <time>2023-04-10T09:12:53+00:00</time>
        <ele>2317.0</ele>
      </trkpt>
      <trkpt lat="44.3182" lon="6.83131">
        <time>2023-04-10T09:12:54+00:00</time>
        <ele>2317.0</ele>
      </trkpt>
      <trkpt lat="44.31818" lon="6.83129">
        <time>2023-04-10T09:12:55+00:00</time>
        <ele>2318.0</ele>
      </trkpt>
      <trkpt lat="44.31818" lon="6.83129">
        <time>2023-04-10T09:12:56+00:00</time>
        <ele>2318.0</ele>
      </trkpt>
      <trkpt lat="44.31818" lon="6.83129">
        <time>2023-04-10T09:12:57+00:00</time>
        <ele>2318.0</ele>
      </trkpt>
      <trkpt lat="44.31815" lon="6.83129">
        <time>2023-04-10T09:12:58+00:00</time>
        <ele>2319.0</ele>
      </trkpt>
      <trkpt lat="44.31815" lon="6.83129">
        <time>2023-04-10T09:12:59+00:00</time>
        <ele>2319.0</ele>
      </trkpt>
      <trkpt lat="44.31813" lon="6.83128">
        <time>2023-04-10T09:13:00+00:00</time>
        <ele>2319.0</ele>
      </trkpt>
      <trkpt lat="44.31813" lon="6.83128">
        <time>2023-04-10T09:13:01+00:00</time>
        <ele>2319.0</ele>
      </trkpt>
      <trkpt lat="44.31813" lon="6.83128">
        <time>2023-04-10T09:13:02+00:00</time>
        <ele>2319.0</ele>
      </trkpt>
      <trkpt lat="44.31812" lon="6.83127">
        <time>2023-04-10T09:13:03+00:00</time>
        <ele>2320.0</ele>
      </trkpt>
      <trkpt lat="44.31812" lon="6.83127">
        <time>2023-04-10T09:13:04+00:00</time>
        <ele>2320.0</ele>
      </trkpt>
      <trkpt lat="44.31812" lon="6.83127">
        <time>2023-04-10T09:13:05+00:00</time>
        <ele>2320.0</ele>
      </trkpt>
      <trkpt lat="44.3181" lon="6.83126">
        <time>2023-04-10T09:13:06+00:00</time>
        <ele>2320.0</ele>
      </trkpt>
      <trkpt lat="44.3181" lon="6.83126">
        <time>2023-04-10T09:13:07+00:00</time>
        <ele>2320.0</ele>
      </trkpt>
      <trkpt lat="44.31808" lon="6.83126">
        <time>2023-04-10T09:13:08+00:00</time>
        <ele>2321.0</ele>
      </trkpt>
      <trkpt lat="44.31808" lon="6.83126">
        <time>2023-04-10T09:13:09+00:00</time>
        <ele>2321.0</ele>
      </trkpt>
      <trkpt lat="44.31808" lon="6.83126">
        <time>2023-04-10T09:13:10+00:00</time>
        <ele>2321.0</ele>
      </trkpt>
      <trkpt lat="44.31805" lon="6.83125">
        <time>2023-04-10T09:13:11+00:00</time>
        <ele>2322.0</ele>
      </trkpt>
      <trkpt lat="44.31805" lon="6.83125">
        <time>2023-04-10T09:13:12+00:00</time>
        <ele>2322.0</ele>
      </trkpt>
      <trkpt lat="44.31805" lon="6.83125">
        <time>2023-04-10T09:13:13+00:00</time>
        <ele>2322.0</ele>
      </trkpt>
      <trkpt lat="44.31803" lon="6.83124">
        <time>2023-04-10T09:13:14+00:00</time>
        <ele>2322.0</ele>
      </trkpt>
      <trkpt lat="44.31803" lon="6.83124">
        <time>2023-04-10T09:13:15+00:00</time>
        <ele>2322.0</ele>
      </trkpt>
      <trkpt lat="44.31803" lon="6.83124">
        <time>2023-04-10T09:13:16+00:00</time>
        <ele>2322.0</ele>
      </trkpt>
      <trkpt lat="44.31801" lon="6.83123">
        <time>2023-04-10T09:13:17+00:00</time>
        <ele>2323.0</ele>
      </trkpt>
      <trkpt lat="44.31801" lon="6.83123">
        <time>2023-04-10T09:13:18+00:00</time>
        <ele>2323.0</ele>
      </trkpt>
      <trkpt lat="44.31801" lon="6.83123">
        <time>2023-04-10T09:13:19+00:00</time>
        <ele>2323.0</ele>
      </trkpt>
      <trkpt lat="44.31799" lon="6.83123">
        <time>2023-04-10T09:13:20+00:00</time>
        <ele>2324.0</ele>
      </trkpt>
      <trkpt lat="44.31799" lon="6.83123">
        <time>2023-04-10T09:13:21+00:00</time>
        <ele>2324.0</ele>
      </trkpt>
      <trkpt lat="44.31797" lon="6.83122">
        <time>2023-04-10T09:13:22+00:00</time>
        <ele>2324.0</ele>
      </trkpt>
      <trkpt lat="44.31797" lon="6.83122">
        <time>2023-04-10T09:13:23+00:00</time>
        <ele>2324.0</ele>
      </trkpt>
      <trkpt lat="44.31795" lon="6.83121">
        <time>2023-04-10T09:13:24+00:00</time>
        <ele>2325.0</ele>
      </trkpt>
      <trkpt lat="44.31795" lon="6.83121">
        <time>2023-04-10T09:13:25+00:00</time>
        <ele>2325.0</ele>
      </trkpt>
      <trkpt lat="44.31793" lon="6.83121">
        <time>2023-04-10T09:13:26+00:00</time>
        <ele>2325.0</ele>
      </trkpt>
      <trkpt lat="44.31793" lon="6.83121">
        <time>2023-04-10T09:13:27+00:00</time>
        <ele>2325.0</ele>
      </trkpt>
      <trkpt lat="44.31793" lon="6.83121">
        <time>2023-04-10T09:13:28+00:00</time>
        <ele>2325.0</ele>
      </trkpt>
      <trkpt lat="44.31791" lon="6.83121">
        <time>2023-04-10T09:13:29+00:00</time>
        <ele>2326.0</ele>
      </trkpt>
      <trkpt lat="44.31791" lon="6.83121">
        <time>2023-04-10T09:13:30+00:00</time>
        <ele>2326.0</ele>
      </trkpt>
      <trkpt lat="44.31791" lon="6.83121">
        <time>2023-04-10T09:13:31+00:00</time>
        <ele>2326.0</ele>
      </trkpt>
      <trkpt lat="44.31789" lon="6.83121">
        <time>2023-04-10T09:13:32+00:00</time>
        <ele>2326.0</ele>
      </trkpt>
      <trkpt lat="44.31789" lon="6.83121">
        <time>2023-04-10T09:13:33+00:00</time>
        <ele>2326.0</ele>
      </trkpt>
      <trkpt lat="44.31787" lon="6.83122">
        <time>2023-04-10T09:13:34+00:00</time>
        <ele>2327.0</ele>
      </trkpt>
      <trkpt lat="44.31787" lon="6.83122">
        <time>2023-04-10T09:13:35+00:00</time>
        <ele>2327.0</ele>
      </trkpt>
      <trkpt lat="44.31787" lon="6.83122">
        <time>2023-04-10T09:13:36+00:00</time>
        <ele>2327.0</ele>
      </trkpt>
      <trkpt lat="44.31786" lon="6.83123">
        <time>2023-04-10T09:13:37+00:00</time>
        <ele>2327.0</ele>
      </trkpt>
      <trkpt lat="44.31786" lon="6.83123">
        <time>2023-04-10T09:13:38+00:00</time>
        <ele>2327.0</ele>
      </trkpt>
      <trkpt lat="44.31786" lon="6.83123">
        <time>2023-04-10T09:13:39+00:00</time>
        <ele>2327.0</ele>
      </trkpt>
      <trkpt lat="44.31784" lon="6.83125">
        <time>2023-04-10T09:13:40+00:00</time>
        <ele>2328.0</ele>
      </trkpt>
      <trkpt lat="44.31784" lon="6.83125">
        <time>2023-04-10T09:13:41+00:00</time>
        <ele>2328.0</ele>
      </trkpt>
      <trkpt lat="44.31784" lon="6.83125">
        <time>2023-04-10T09:13:42+00:00</time>
        <ele>2328.0</ele>
      </trkpt>
      <trkpt lat="44.31782" lon="6.83127">
        <time>2023-04-10T09:13:43+00:00</time>
        <ele>2328.0</ele>
      </trkpt>
      <trkpt lat="44.31782" lon="6.83127">
        <time>2023-04-10T09:13:44+00:00</time>
        <ele>2328.0</ele>
      </trkpt>
      <trkpt lat="44.31782" lon="6.83127">
        <time>2023-04-10T09:13:45+00:00</time>
        <ele>2328.0</ele>
      </trkpt>
      <trkpt lat="44.31781" lon="6.8313">
        <time>2023-04-10T09:13:46+00:00</time>
        <ele>2328.0</ele>
      </trkpt>
      <trkpt lat="44.31781" lon="6.8313">
        <time>2023-04-10T09:13:47+00:00</time>
        <ele>2328.0</ele>
      </trkpt>
      <trkpt lat="44.3178" lon="6.83131">
        <time>2023-04-10T09:13:48+00:00</time>
        <ele>2328.0</ele>
      </trkpt>
      <trkpt lat="44.3178" lon="6.83131">
        <time>2023-04-10T09:13:49+00:00</time>
        <ele>2328.0</ele>
      </trkpt>
      <trkpt lat="44.31778" lon="6.83133">
        <time>2023-04-10T09:13:50+00:00</time>
        <ele>2329.0</ele>
      </trkpt>
      <trkpt lat="44.31778" lon="6.83133">
        <time>2023-04-10T09:13:51+00:00</time>
        <ele>2329.0</ele>
      </trkpt>
      <trkpt lat="44.31776" lon="6.83133">
        <time>2023-04-10T09:13:52+00:00</time>
        <ele>2330.0</ele>
      </trkpt>
      <trkpt lat="44.31776" lon="6.83133">
        <time>2023-04-10T09:13:53+00:00</time>
        <ele>2330.0</ele>
      </trkpt>
      <trkpt lat="44.31776" lon="6.83133">
        <time>2023-04-10T09:13:54+00:00</time>
        <ele>2330.0</ele>
      </trkpt>
      <trkpt lat="44.31773" lon="6.83132">
        <time>2023-04-10T09:13:55+00:00</time>
        <ele>2331.0</ele>
      </trkpt>
      <trkpt lat="44.31773" lon="6.83132">
        <time>2023-04-10T09:13:56+00:00</time>
        <ele>2331.0</ele>
      </trkpt>
      <trkpt lat="44.31773" lon="6.83132">
        <time>2023-04-10T09:13:57+00:00</time>
        <ele>2331.0</ele>
      </trkpt>
      <trkpt lat="44.31772" lon="6.8313">
        <time>2023-04-10T09:13:58+00:00</time>
        <ele>2331.0</ele>
      </trkpt>
      <trkpt lat="44.31772" lon="6.8313">
        <time>2023-04-10T09:13:59+00:00</time>
        <ele>2331.0</ele>
      </trkpt>
      <trkpt lat="44.31772" lon="6.8313">
        <time>2023-04-10T09:14:00+00:00</time>
        <ele>2331.0</ele>
      </trkpt>
      <trkpt lat="44.3177" lon="6.83126">
        <time>2023-04-10T09:14:01+00:00</time>
        <ele>2332.0</ele>
      </trkpt>
      <trkpt lat="44.3177" lon="6.83126">
        <time>2023-04-10T09:14:02+00:00</time>
        <ele>2332.0</ele>
      </trkpt>
      <trkpt lat="44.3177" lon="6.83126">
        <time>2023-04-10T09:14:03+00:00</time>
        <ele>2332.0</ele>
      </trkpt>
      <trkpt lat="44.31769" lon="6.83124">
        <time>2023-04-10T09:14:04+00:00</time>
        <ele>2333.0</ele>
      </trkpt>
      <trkpt lat="44.31769" lon="6.83124">
        <time>2023-04-10T09:14:05+00:00</time>
        <ele>2333.0</ele>
      </trkpt>
      <trkpt lat="44.31768" lon="6.83122">
        <time>2023-04-10T09:14:06+00:00</time>
        <ele>2333.0</ele>
      </trkpt>
      <trkpt lat="44.31768" lon="6.83122">
        <time>2023-04-10T09:14:07+00:00</time>
        <ele>2333.0</ele>
      </trkpt>
      <trkpt lat="44.31768" lon="6.83122">
        <time>2023-04-10T09:14:08+00:00</time>
        <ele>2333.0</ele>
      </trkpt>
      <trkpt lat="44.31766" lon="6.83121">
        <time>2023-04-10T09:14:09+00:00</time>
        <ele>2334.0</ele>
      </trkpt>
      <trkpt lat="44.31766" lon="6.83121">
        <time>2023-04-10T09:14:10+00:00</time>
        <ele>2334.0</ele>
      </trkpt>
      <trkpt lat="44.31766" lon="6.83121">
        <time>2023-04-10T09:14:11+00:00</time>
        <ele>2334.0</ele>
      </trkpt>
      <trkpt lat="44.31765" lon="6.8312">
        <time>2023-04-10T09:14:12+00:00</time>
        <ele>2334.0</ele>
      </trkpt>
      <trkpt lat="44.31765" lon="6.8312">
        <time>2023-04-10T09:14:13+00:00</time>
        <ele>2334.0</ele>
      </trkpt>
      <trkpt lat="44.31765" lon="6.8312">
        <time>2023-04-10T09:14:14+00:00</time>
        <ele>2334.0</ele>
      </trkpt>
      <trkpt lat="44.31763" lon="6.8312">
        <time>2023-04-10T09:14:15+00:00</time>
        <ele>2335.0</ele>
      </trkpt>
      <trkpt lat="44.31763" lon="6.8312">
        <time>2023-04-10T09:14:16+00:00</time>
        <ele>2335.0</ele>
      </trkpt>
      <trkpt lat="44.31763" lon="6.8312">
        <time>2023-04-10T09:14:17+00:00</time>
        <ele>2335.0</ele>
      </trkpt>
      <trkpt lat="44.3176" lon="6.83121">
        <time>2023-04-10T09:14:18+00:00</time>
        <ele>2336.0</ele>
      </trkpt>
      <trkpt lat="44.3176" lon="6.83121">
        <time>2023-04-10T09:14:19+00:00</time>
        <ele>2336.0</ele>
      </trkpt>
      <trkpt lat="44.3176" lon="6.83121">
        <time>2023-04-10T09:14:20+00:00</time>
        <ele>2336.0</ele>
      </trkpt>
      <trkpt lat="44.31758" lon="6.83122">
        <time>2023-04-10T09:14:21+00:00</time>
        <ele>2337.0</ele>
      </trkpt>
      <trkpt lat="44.31758" lon="6.83122">
        <time>2023-04-10T09:14:22+00:00</time>
        <ele>2337.0</ele>
      </trkpt>
      <trkpt lat="44.31758" lon="6.83122">
        <time>2023-04-10T09:14:23+00:00</time>
        <ele>2337.0</ele>
      </trkpt>
      <trkpt lat="44.31756" lon="6.83123">
        <time>2023-04-10T09:14:24+00:00</time>
        <ele>2337.0</ele>
      </trkpt>
      <trkpt lat="44.31756" lon="6.83123">
        <time>2023-04-10T09:14:25+00:00</time>
        <ele>2337.0</ele>
      </trkpt>
      <trkpt lat="44.31756" lon="6.83123">
        <time>2023-04-10T09:14:26+00:00</time>
        <ele>2337.0</ele>
      </trkpt>
      <trkpt lat="44.31756" lon="6.83123">
        <time>2023-04-10T09:14:27+00:00</time>
        <ele>2337.0</ele>
      </trkpt>
      <trkpt lat="44.31754" lon="6.83122">
        <time>2023-04-10T09:14:28+00:00</time>
        <ele>2338.0</ele>
      </trkpt>
      <trkpt lat="44.31754" lon="6.83122">
        <time>2023-04-10T09:14:29+00:00</time>
        <ele>2338.0</ele>
      </trkpt>
      <trkpt lat="44.31754" lon="6.83122">
        <time>2023-04-10T09:14:30+00:00</time>
        <ele>2338.0</ele>
      </trkpt>
      <trkpt lat="44.31753" lon="6.83119">
        <time>2023-04-10T09:14:31+00:00</time>
        <ele>2338.0</ele>
      </trkpt>
      <trkpt lat="44.31753" lon="6.83119">
        <time>2023-04-10T09:14:32+00:00</time>
        <ele>2338.0</ele>
      </trkpt>
      <trkpt lat="44.31753" lon="6.83119">
        <time>2023-04-10T09:14:33+00:00</time>
        <ele>2338.0</ele>
      </trkpt>
      <trkpt lat="44.31752" lon="6.83116">
        <time>2023-04-10T09:14:34+00:00</time>
        <ele>2339.0</ele>
      </trkpt>
      <trkpt lat="44.31752" lon="6.83116">
        <time>2023-04-10T09:14:35+00:00</time>
        <ele>2339.0</ele>
      </trkpt>
      <trkpt lat="44.31752" lon="6.83116">
        <time>2023-04-10T09:14:36+00:00</time>
        <ele>2339.0</ele>
      </trkpt>
      <trkpt lat="44.31752" lon="6.83116">
        <time>2023-04-10T09:14:37+00:00</time>
        <ele>2339.0</ele>
      </trkpt>
      <trkpt lat="44.3175" lon="6.83115">
        <time>2023-04-10T09:14:38+00:00</time>
        <ele>2340.0</ele>
      </trkpt>
      <trkpt lat="44.3175" lon="6.83115">
        <time>2023-04-10T09:14:39+00:00</time>
        <ele>2340.0</ele>
      </trkpt>
      <trkpt lat="44.3175" lon="6.83115">
        <time>2023-04-10T09:14:40+00:00</time>
        <ele>2340.0</ele>
      </trkpt>
      <trkpt lat="44.31748" lon="6.83116">
        <time>2023-04-10T09:14:41+00:00</time>
        <ele>2340.0</ele>
      </trkpt>
      <trkpt lat="44.31748" lon="6.83116">
        <time>2023-04-10T09:14:42+00:00</time>
        <ele>2340.0</ele>
      </trkpt>
      <trkpt lat="44.31746" lon="6.83117">
        <time>2023-04-10T09:14:43+00:00</time>
        <ele>2341.0</ele>
      </trkpt>
      <trkpt lat="44.31746" lon="6.83117">
        <time>2023-04-10T09:14:44+00:00</time>
        <ele>2341.0</ele>
      </trkpt>
      <trkpt lat="44.31746" lon="6.83117">
        <time>2023-04-10T09:14:45+00:00</time>
        <ele>2341.0</ele>
      </trkpt>
      <trkpt lat="44.31744" lon="6.83118">
        <time>2023-04-10T09:14:46+00:00</time>
        <ele>2341.0</ele>
      </trkpt>
      <trkpt lat="44.31744" lon="6.83118">
        <time>2023-04-10T09:14:47+00:00</time>
        <ele>2341.0</ele>
      </trkpt>
      <trkpt lat="44.31744" lon="6.83118">
        <time>2023-04-10T09:14:48+00:00</time>
        <ele>2341.0</ele>
      </trkpt>
      <trkpt lat="44.31742" lon="6.83119">
        <time>2023-04-10T09:14:49+00:00</time>
        <ele>2342.0</ele>
      </trkpt>
      <trkpt lat="44.31742" lon="6.83119">
        <time>2023-04-10T09:14:50+00:00</time>
        <ele>2342.0</ele>
      </trkpt>
      <trkpt lat="44.31742" lon="6.83119">
        <time>2023-04-10T09:14:51+00:00</time>
        <ele>2342.0</ele>
      </trkpt>
      <trkpt lat="44.3174" lon="6.8312">
        <time>2023-04-10T09:14:52+00:00</time>
        <ele>2342.0</ele>
      </trkpt>
      <trkpt lat="44.3174" lon="6.8312">
        <time>2023-04-10T09:14:53+00:00</time>
        <ele>2342.0</ele>
      </trkpt>
      <trkpt lat="44.3174" lon="6.8312">
        <time>2023-04-10T09:14:54+00:00</time>
        <ele>2342.0</ele>
      </trkpt>
      <trkpt lat="44.31738" lon="6.83119">
        <time>2023-04-10T09:14:55+00:00</time>
        <ele>2343.0</ele>
      </trkpt>
      <trkpt lat="44.31738" lon="6.83119">
        <time>2023-04-10T09:14:56+00:00</time>
        <ele>2343.0</ele>
      </trkpt>
      <trkpt lat="44.31736" lon="6.83118">
        <time>2023-04-10T09:14:57+00:00</time>
        <ele>2344.0</ele>
      </trkpt>
      <trkpt lat="44.31736" lon="6.83118">
        <time>2023-04-10T09:14:58+00:00</time>
        <ele>2344.0</ele>
      </trkpt>
      <trkpt lat="44.31736" lon="6.83118">
        <time>2023-04-10T09:14:59+00:00</time>
        <ele>2344.0</ele>
      </trkpt>
      <trkpt lat="44.31734" lon="6.83117">
        <time>2023-04-10T09:15:00+00:00</time>
        <ele>2345.0</ele>
      </trkpt>
      <trkpt lat="44.31734" lon="6.83117">
        <time>2023-04-10T09:15:01+00:00</time>
        <ele>2345.0</ele>
      </trkpt>
      <trkpt lat="44.31734" lon="6.83117">
        <time>2023-04-10T09:15:02+00:00</time>
        <ele>2345.0</ele>
      </trkpt>
      <trkpt lat="44.31734" lon="6.83117">
        <time>2023-04-10T09:15:03+00:00</time>
        <ele>2345.0</ele>
      </trkpt>
      <trkpt lat="44.31734" lon="6.83117">
        <time>2023-04-10T09:15:04+00:00</time>
        <ele>2345.0</ele>
      </trkpt>
      <trkpt lat="44.31734" lon="6.83117">
        <time>2023-04-10T09:15:05+00:00</time>
        <ele>2345.0</ele>
      </trkpt>
      <trkpt lat="44.31733" lon="6.83115">
        <time>2023-04-10T09:15:06+00:00</time>
        <ele>2345.0</ele>
      </trkpt>
      <trkpt lat="44.31733" lon="6.83115">
        <time>2023-04-10T09:15:07+00:00</time>
        <ele>2345.0</ele>
      </trkpt>
      <trkpt lat="44.31733" lon="6.83115">
        <time>2023-04-10T09:15:08+00:00</time>
        <ele>2345.0</ele>
      </trkpt>
      <trkpt lat="44.31732" lon="6.83112">
        <time>2023-04-10T09:15:09+00:00</time>
        <ele>2346.0</ele>
      </trkpt>
      <trkpt lat="44.31732" lon="6.83112">
        <time>2023-04-10T09:15:10+00:00</time>
        <ele>2346.0</ele>
      </trkpt>
      <trkpt lat="44.31732" lon="6.83112">
        <time>2023-04-10T09:15:11+00:00</time>
        <ele>2346.0</ele>
      </trkpt>
      <trkpt lat="44.31732" lon="6.83109">
        <time>2023-04-10T09:15:12+00:00</time>
        <ele>2346.0</ele>
      </trkpt>
      <trkpt lat="44.31732" lon="6.83109">
        <time>2023-04-10T09:15:13+00:00</time>
        <ele>2346.0</ele>
      </trkpt>
      <trkpt lat="44.31732" lon="6.83109">
        <time>2023-04-10T09:15:14+00:00</time>
        <ele>2346.0</ele>
      </trkpt>
      <trkpt lat="44.31731" lon="6.83106">
        <time>2023-04-10T09:15:15+00:00</time>
        <ele>2347.0</ele>
      </trkpt>
      <trkpt lat="44.31731" lon="6.83106">
        <time>2023-04-10T09:15:16+00:00</time>
        <ele>2347.0</ele>
      </trkpt>
      <trkpt lat="44.31731" lon="6.83106">
        <time>2023-04-10T09:15:17+00:00</time>
        <ele>2347.0</ele>
      </trkpt>
      <trkpt lat="44.31731" lon="6.83103">
        <time>2023-04-10T09:15:18+00:00</time>
        <ele>2347.0</ele>
      </trkpt>
      <trkpt lat="44.31731" lon="6.83103">
        <time>2023-04-10T09:15:19+00:00</time>
        <ele>2347.0</ele>
      </trkpt>
      <trkpt lat="44.31731" lon="6.83103">
        <time>2023-04-10T09:15:20+00:00</time>
        <ele>2347.0</ele>
      </trkpt>
      <trkpt lat="44.31731" lon="6.83103">
        <time>2023-04-10T09:15:21+00:00</time>
        <ele>2347.0</ele>
      </trkpt>
      <trkpt lat="44.31729" lon="6.83104">
        <time>2023-04-10T09:15:22+00:00</time>
        <ele>2348.0</ele>
      </trkpt>
      <trkpt lat="44.31729" lon="6.83104">
        <time>2023-04-10T09:15:23+00:00</time>
        <ele>2348.0</ele>
      </trkpt>
      <trkpt lat="44.31729" lon="6.83104">
        <time>2023-04-10T09:15:24+00:00</time>
        <ele>2348.0</ele>
      </trkpt>
      <trkpt lat="44.31729" lon="6.83104">
        <time>2023-04-10T09:15:25+00:00</time>
        <ele>2348.0</ele>
      </trkpt>
      <trkpt lat="44.31727" lon="6.83105">
        <time>2023-04-10T09:15:26+00:00</time>
        <ele>2349.0</ele>
      </trkpt>
      <trkpt lat="44.31727" lon="6.83105">
        <time>2023-04-10T09:15:27+00:00</time>
        <ele>2349.0</ele>
      </trkpt>
      <trkpt lat="44.31727" lon="6.83105">
        <time>2023-04-10T09:15:28+00:00</time>
        <ele>2349.0</ele>
      </trkpt>
      <trkpt lat="44.31725" lon="6.83105">
        <time>2023-04-10T09:15:29+00:00</time>
        <ele>2349.0</ele>
      </trkpt>
      <trkpt lat="44.31725" lon="6.83105">
        <time>2023-04-10T09:15:30+00:00</time>
        <ele>2349.0</ele>
      </trkpt>
      <trkpt lat="44.31725" lon="6.83105">
        <time>2023-04-10T09:15:31+00:00</time>
        <ele>2349.0</ele>
      </trkpt>
      <trkpt lat="44.31725" lon="6.83105">
        <time>2023-04-10T09:15:32+00:00</time>
        <ele>2349.0</ele>
      </trkpt>
      <trkpt lat="44.31724" lon="6.83102">
        <time>2023-04-10T09:15:33+00:00</time>
        <ele>2350.0</ele>
      </trkpt>
      <trkpt lat="44.31724" lon="6.83102">
        <time>2023-04-10T09:15:34+00:00</time>
        <ele>2350.0</ele>
      </trkpt>
      <trkpt lat="44.31723" lon="6.831">
        <time>2023-04-10T09:15:35+00:00</time>
        <ele>2351.0</ele>
      </trkpt>
      <trkpt lat="44.31723" lon="6.831">
        <time>2023-04-10T09:15:36+00:00</time>
        <ele>2351.0</ele>
      </trkpt>
      <trkpt lat="44.31723" lon="6.831">
        <time>2023-04-10T09:15:37+00:00</time>
        <ele>2351.0</ele>
      </trkpt>
      <trkpt lat="44.31723" lon="6.83097">
        <time>2023-04-10T09:15:38+00:00</time>
        <ele>2351.0</ele>
      </trkpt>
      <trkpt lat="44.31723" lon="6.83097">
        <time>2023-04-10T09:15:39+00:00</time>
        <ele>2351.0</ele>
      </trkpt>
      <trkpt lat="44.31723" lon="6.83097">
        <time>2023-04-10T09:15:40+00:00</time>
        <ele>2351.0</ele>
      </trkpt>
      <trkpt lat="44.31723" lon="6.83094">
        <time>2023-04-10T09:15:41+00:00</time>
        <ele>2351.0</ele>
      </trkpt>
      <trkpt lat="44.31723" lon="6.83094">
        <time>2023-04-10T09:15:42+00:00</time>
        <ele>2351.0</ele>
      </trkpt>
      <trkpt lat="44.31723" lon="6.83094">
        <time>2023-04-10T09:15:43+00:00</time>
        <ele>2351.0</ele>
      </trkpt>
      <trkpt lat="44.31723" lon="6.83091">
        <time>2023-04-10T09:15:44+00:00</time>
        <ele>2352.0</ele>
      </trkpt>
      <trkpt lat="44.31723" lon="6.83091">
        <time>2023-04-10T09:15:45+00:00</time>
        <ele>2352.0</ele>
      </trkpt>
      <trkpt lat="44.31723" lon="6.83091">
        <time>2023-04-10T09:15:46+00:00</time>
        <ele>2352.0</ele>
      </trkpt>
      <trkpt lat="44.31724" lon="6.83088">
        <time>2023-04-10T09:15:47+00:00</time>
        <ele>2352.0</ele>
      </trkpt>
      <trkpt lat="44.31724" lon="6.83088">
        <time>2023-04-10T09:15:48+00:00</time>
        <ele>2352.0</ele>
      </trkpt>
      <trkpt lat="44.31724" lon="6.83088">
        <time>2023-04-10T09:15:49+00:00</time>
        <ele>2352.0</ele>
      </trkpt>
      <trkpt lat="44.31725" lon="6.83085">
        <time>2023-04-10T09:15:50+00:00</time>
        <ele>2352.0</ele>
      </trkpt>
      <trkpt lat="44.31725" lon="6.83085">
        <time>2023-04-10T09:15:51+00:00</time>
        <ele>2352.0</ele>
      </trkpt>
      <trkpt lat="44.31725" lon="6.83085">
        <time>2023-04-10T09:15:52+00:00</time>
        <ele>2352.0</ele>
      </trkpt>
      <trkpt lat="44.31725" lon="6.83082">
        <time>2023-04-10T09:15:53+00:00</time>
        <ele>2352.0</ele>
      </trkpt>
      <trkpt lat="44.31725" lon="6.83082">
        <time>2023-04-10T09:15:54+00:00</time>
        <ele>2352.0</ele>
      </trkpt>
      <trkpt lat="44.31725" lon="6.83082">
        <time>2023-04-10T09:15:55+00:00</time>
        <ele>2352.0</ele>
      </trkpt>
      <trkpt lat="44.31725" lon="6.83079">
        <time>2023-04-10T09:15:56+00:00</time>
        <ele>2352.0</ele>
      </trkpt>
      <trkpt lat="44.31725" lon="6.83079">
        <time>2023-04-10T09:15:57+00:00</time>
        <ele>2352.0</ele>
      </trkpt>
      <trkpt lat="44.31725" lon="6.83079">
        <time>2023-04-10T09:15:58+00:00</time>
        <ele>2352.0</ele>
      </trkpt>
      <trkpt lat="44.31725" lon="6.83076">
        <time>2023-04-10T09:15:59+00:00</time>
        <ele>2353.0</ele>
      </trkpt>
      <trkpt lat="44.31725" lon="6.83076">
        <time>2023-04-10T09:16:00+00:00</time>
        <ele>2353.0</ele>
      </trkpt>
      <trkpt lat="44.31725" lon="6.83076">
        <time>2023-04-10T09:16:01+00:00</time>
        <ele>2353.0</ele>
      </trkpt>
      <trkpt lat="44.31725" lon="6.83074">
        <time>2023-04-10T09:16:02+00:00</time>
        <ele>2353.0</ele>
      </trkpt>
      <trkpt lat="44.31725" lon="6.83074">
        <time>2023-04-10T09:16:03+00:00</time>
        <ele>2353.0</ele>
      </trkpt>
      <trkpt lat="44.31725" lon="6.83074">
        <time>2023-04-10T09:16:04+00:00</time>
        <ele>2353.0</ele>
      </trkpt>
      <trkpt lat="44.31724" lon="6.83071">
        <time>2023-04-10T09:16:05+00:00</time>
        <ele>2354.0</ele>
      </trkpt>
      <trkpt lat="44.31724" lon="6.83071">
        <time>2023-04-10T09:16:06+00:00</time>
        <ele>2354.0</ele>
      </trkpt>
      <trkpt lat="44.31724" lon="6.83071">
        <time>2023-04-10T09:16:07+00:00</time>
        <ele>2354.0</ele>
      </trkpt>
      <trkpt lat="44.31722" lon="6.83069">
        <time>2023-04-10T09:16:08+00:00</time>
        <ele>2355.0</ele>
      </trkpt>
      <trkpt lat="44.31722" lon="6.83069">
        <time>2023-04-10T09:16:09+00:00</time>
        <ele>2355.0</ele>
      </trkpt>
      <trkpt lat="44.3172" lon="6.83068">
        <time>2023-04-10T09:16:10+00:00</time>
        <ele>2355.0</ele>
      </trkpt>
      <trkpt lat="44.3172" lon="6.83068">
        <time>2023-04-10T09:16:11+00:00</time>
        <ele>2355.0</ele>
      </trkpt>
      <trkpt lat="44.3172" lon="6.83068">
        <time>2023-04-10T09:16:12+00:00</time>
        <ele>2355.0</ele>
      </trkpt>
      <trkpt lat="44.31719" lon="6.83066">
        <time>2023-04-10T09:16:13+00:00</time>
        <ele>2356.0</ele>
      </trkpt>
      <trkpt lat="44.31719" lon="6.83066">
        <time>2023-04-10T09:16:14+00:00</time>
        <ele>2356.0</ele>
      </trkpt>
      <trkpt lat="44.31719" lon="6.83066">
        <time>2023-04-10T09:16:15+00:00</time>
        <ele>2356.0</ele>
      </trkpt>
      <trkpt lat="44.31717" lon="6.83064">
        <time>2023-04-10T09:16:16+00:00</time>
        <ele>2357.0</ele>
      </trkpt>
      <trkpt lat="44.31717" lon="6.83064">
        <time>2023-04-10T09:16:17+00:00</time>
        <ele>2357.0</ele>
      </trkpt>
      <trkpt lat="44.31717" lon="6.83064">
        <time>2023-04-10T09:16:18+00:00</time>
        <ele>2357.0</ele>
      </trkpt>
      <trkpt lat="44.31717" lon="6.83064">
        <time>2023-04-10T09:16:19+00:00</time>
        <ele>2357.0</ele>
      </trkpt>
      <trkpt lat="44.31715" lon="6.83062">
        <time>2023-04-10T09:16:20+00:00</time>
        <ele>2358.0</ele>
      </trkpt>
      <trkpt lat="44.31715" lon="6.83062">
        <time>2023-04-10T09:16:21+00:00</time>
        <ele>2358.0</ele>
      </trkpt>
      <trkpt lat="44.31715" lon="6.83062">
        <time>2023-04-10T09:16:22+00:00</time>
        <ele>2358.0</ele>
      </trkpt>
      <trkpt lat="44.31714" lon="6.83059">
        <time>2023-04-10T09:16:23+00:00</time>
        <ele>2358.0</ele>
      </trkpt>
      <trkpt lat="44.31714" lon="6.83059">
        <time>2023-04-10T09:16:24+00:00</time>
        <ele>2358.0</ele>
      </trkpt>
      <trkpt lat="44.31714" lon="6.83059">
        <time>2023-04-10T09:16:25+00:00</time>
        <ele>2358.0</ele>
      </trkpt>
      <trkpt lat="44.31712" lon="6.83057">
        <time>2023-04-10T09:16:26+00:00</time>
        <ele>2359.0</ele>
      </trkpt>
      <trkpt lat="44.31712" lon="6.83057">
        <time>2023-04-10T09:16:27+00:00</time>
        <ele>2359.0</ele>
      </trkpt>
      <trkpt lat="44.31712" lon="6.83057">
        <time>2023-04-10T09:16:28+00:00</time>
        <ele>2359.0</ele>
      </trkpt>
      <trkpt lat="44.31711" lon="6.83056">
        <time>2023-04-10T09:16:29+00:00</time>
        <ele>2360.0</ele>
      </trkpt>
      <trkpt lat="44.31711" lon="6.83056">
        <time>2023-04-10T09:16:30+00:00</time>
        <ele>2360.0</ele>
      </trkpt>
      <trkpt lat="44.31711" lon="6.83056">
        <time>2023-04-10T09:16:31+00:00</time>
        <ele>2360.0</ele>
      </trkpt>
      <trkpt lat="44.31711" lon="6.83056">
        <time>2023-04-10T09:16:32+00:00</time>
        <ele>2360.0</ele>
      </trkpt>
      <trkpt lat="44.31711" lon="6.83056">
        <time>2023-04-10T09:16:33+00:00</time>
        <ele>2360.0</ele>
      </trkpt>
      <trkpt lat="44.31711" lon="6.83056">
        <time>2023-04-10T09:16:34+00:00</time>
        <ele>2360.0</ele>
      </trkpt>
      <trkpt lat="44.31711" lon="6.83056">
        <time>2023-04-10T09:16:35+00:00</time>
        <ele>2360.0</ele>
      </trkpt>
      <trkpt lat="44.31711" lon="6.83056">
        <time>2023-04-10T09:16:36+00:00</time>
        <ele>2360.0</ele>
      </trkpt>
      <trkpt lat="44.31711" lon="6.83056">
        <time>2023-04-10T09:16:37+00:00</time>
        <ele>2360.0</ele>
      </trkpt>
      <trkpt lat="44.31711" lon="6.83056">
        <time>2023-04-10T09:16:38+00:00</time>
        <ele>2360.0</ele>
      </trkpt>
      <trkpt lat="44.31711" lon="6.83056">
        <time>2023-04-10T09:16:39+00:00</time>
        <ele>2360.0</ele>
      </trkpt>
      <trkpt lat="44.31709" lon="6.83054">
        <time>2023-04-10T09:16:40+00:00</time>
        <ele>2360.0</ele>
      </trkpt>
      <trkpt lat="44.31709" lon="6.83054">
        <time>2023-04-10T09:16:41+00:00</time>
        <ele>2360.0</ele>
      </trkpt>
      <trkpt lat="44.31709" lon="6.83054">
        <time>2023-04-10T09:16:42+00:00</time>
        <ele>2360.0</ele>
      </trkpt>
      <trkpt lat="44.31709" lon="6.83054">
        <time>2023-04-10T09:16:43+00:00</time>
        <ele>2360.0</ele>
      </trkpt>
      <trkpt lat="44.31707" lon="6.83052">
        <time>2023-04-10T09:16:44+00:00</time>
        <ele>2361.0</ele>
      </trkpt>
      <trkpt lat="44.31707" lon="6.83052">
        <time>2023-04-10T09:16:45+00:00</time>
        <ele>2361.0</ele>
      </trkpt>
      <trkpt lat="44.31707" lon="6.83052">
        <time>2023-04-10T09:16:46+00:00</time>
        <ele>2361.0</ele>
      </trkpt>
      <trkpt lat="44.31707" lon="6.83052">
        <time>2023-04-10T09:16:47+00:00</time>
        <ele>2361.0</ele>
      </trkpt>
      <trkpt lat="44.31707" lon="6.83052">
        <time>2023-04-10T09:16:48+00:00</time>
        <ele>2361.0</ele>
      </trkpt>
      <trkpt lat="44.31707" lon="6.83052">
        <time>2023-04-10T09:16:49+00:00</time>
        <ele>2361.0</ele>
      </trkpt>
      <trkpt lat="44.31707" lon="6.83052">
        <time>2023-04-10T09:16:50+00:00</time>
        <ele>2361.0</ele>
      </trkpt>
      <trkpt lat="44.31707" lon="6.83052">
        <time>2023-04-10T09:16:51+00:00</time>
        <ele>2361.0</ele>
      </trkpt>
      <trkpt lat="44.31707" lon="6.83052">
        <time>2023-04-10T09:16:52+00:00</time>
        <ele>2361.0</ele>
      </trkpt>
      <trkpt lat="44.31707" lon="6.83052">
        <time>2023-04-10T09:16:53+00:00</time>
        <ele>2361.0</ele>
      </trkpt>
      <trkpt lat="44.31707" lon="6.83052">
        <time>2023-04-10T09:16:54+00:00</time>
        <ele>2361.0</ele>
      </trkpt>
      <trkpt lat="44.31707" lon="6.83052">
        <time>2023-04-10T09:16:55+00:00</time>
        <ele>2361.0</ele>
      </trkpt>
      <trkpt lat="44.31707" lon="6.83052">
        <time>2023-04-10T09:16:56+00:00</time>
        <ele>2361.0</ele>
      </trkpt>
      <trkpt lat="44.31707" lon="6.83052">
        <time>2023-04-10T09:16:57+00:00</time>
        <ele>2361.0</ele>
      </trkpt>
      <trkpt lat="44.31707" lon="6.83052">
        <time>2023-04-10T09:16:58+00:00</time>
        <ele>2361.0</ele>
      </trkpt>
      <trkpt lat="44.31707" lon="6.83052">
        <time>2023-04-10T09:16:59+00:00</time>
        <ele>2361.0</ele>
      </trkpt>
      <trkpt lat="44.31707" lon="6.83052">
        <time>2023-04-10T09:17:00+00:00</time>
        <ele>2361.0</ele>
      </trkpt>
      <trkpt lat="44.31707" lon="6.83052">
        <time>2023-04-10T09:17:01+00:00</time>
        <ele>2361.0</ele>
      </trkpt>
      <trkpt lat="44.31707" lon="6.83052">
        <time>2023-04-10T09:17:02+00:00</time>
        <ele>2361.0</ele>
      </trkpt>
      <trkpt lat="44.31707" lon="6.83052">
        <time>2023-04-10T09:17:03+00:00</time>
        <ele>2361.0</ele>
      </trkpt>
      <trkpt lat="44.31707" lon="6.83052">
        <time>2023-04-10T09:17:04+00:00</time>
        <ele>2361.0</ele>
      </trkpt>
      <trkpt lat="44.31707" lon="6.83052">
        <time>2023-04-10T09:17:05+00:00</time>
        <ele>2361.0</ele>
      </trkpt>
      <trkpt lat="44.31707" lon="6.83052">
        <time>2023-04-10T09:17:06+00:00</time>
        <ele>2361.0</ele>
      </trkpt>
      <trkpt lat="44.31707" lon="6.83052">
        <time>2023-04-10T09:17:07+00:00</time>
        <ele>2361.0</ele>
      </trkpt>
      <trkpt lat="44.31707" lon="6.83052">
        <time>2023-04-10T09:17:08+00:00</time>
        <ele>2361.0</ele>
      </trkpt>
      <trkpt lat="44.31707" lon="6.83052">
        <time>2023-04-10T09:17:09+00:00</time>
        <ele>2361.0</ele>
      </trkpt>
      <trkpt lat="44.31707" lon="6.83052">
        <time>2023-04-10T09:17:10+00:00</time>
        <ele>2361.0</ele>
      </trkpt>
      <trkpt lat="44.31707" lon="6.83052">
        <time>2023-04-10T09:17:11+00:00</time>
        <ele>2361.0</ele>
      </trkpt>
      <trkpt lat="44.31707" lon="6.83052">
        <time>2023-04-10T09:17:12+00:00</time>
        <ele>2361.0</ele>
      </trkpt>
      <trkpt lat="44.31706" lon="6.8305">
        <time>2023-04-10T09:17:13+00:00</time>
        <ele>2362.0</ele>
      </trkpt>
      <trkpt lat="44.31706" lon="6.8305">
        <time>2023-04-10T09:17:14+00:00</time>
        <ele>2362.0</ele>
      </trkpt>
      <trkpt lat="44.31703" lon="6.83048">
        <time>2023-04-10T09:17:15+00:00</time>
        <ele>2363.0</ele>
      </trkpt>
      <trkpt lat="44.31703" lon="6.83048">
        <time>2023-04-10T09:17:16+00:00</time>
        <ele>2363.0</ele>
      </trkpt>
      <trkpt lat="44.31703" lon="6.83048">
        <time>2023-04-10T09:17:17+00:00</time>
        <ele>2363.0</ele>
      </trkpt>
      <trkpt lat="44.31701" lon="6.83045">
        <time>2023-04-10T09:17:18+00:00</time>
        <ele>2363.0</ele>
      </trkpt>
      <trkpt lat="44.31701" lon="6.83045">
        <time>2023-04-10T09:17:19+00:00</time>
        <ele>2363.0</ele>
      </trkpt>
      <trkpt lat="44.31698" lon="6.83044">
        <time>2023-04-10T09:17:20+00:00</time>
        <ele>2364.0</ele>
      </trkpt>
      <trkpt lat="44.31698" lon="6.83044">
        <time>2023-04-10T09:17:21+00:00</time>
        <ele>2364.0</ele>
      </trkpt>
      <trkpt lat="44.31696" lon="6.83042">
        <time>2023-04-10T09:17:22+00:00</time>
        <ele>2365.0</ele>
      </trkpt>
      <trkpt lat="44.31696" lon="6.83042">
        <time>2023-04-10T09:17:23+00:00</time>
        <ele>2365.0</ele>
      </trkpt>
      <trkpt lat="44.31696" lon="6.83042">
        <time>2023-04-10T09:17:24+00:00</time>
        <ele>2365.0</ele>
      </trkpt>
      <trkpt lat="44.31694" lon="6.83041">
        <time>2023-04-10T09:17:25+00:00</time>
        <ele>2366.0</ele>
      </trkpt>
      <trkpt lat="44.31694" lon="6.83041">
        <time>2023-04-10T09:17:26+00:00</time>
        <ele>2366.0</ele>
      </trkpt>
      <trkpt lat="44.31694" lon="6.83041">
        <time>2023-04-10T09:17:27+00:00</time>
        <ele>2366.0</ele>
      </trkpt>
      <trkpt lat="44.31693" lon="6.83038">
        <time>2023-04-10T09:17:28+00:00</time>
        <ele>2366.0</ele>
      </trkpt>
      <trkpt lat="44.31693" lon="6.83038">
        <time>2023-04-10T09:17:29+00:00</time>
        <ele>2366.0</ele>
      </trkpt>
      <trkpt lat="44.31693" lon="6.83038">
        <time>2023-04-10T09:17:30+00:00</time>
        <ele>2366.0</ele>
      </trkpt>
      <trkpt lat="44.3169" lon="6.83037">
        <time>2023-04-10T09:17:31+00:00</time>
        <ele>2367.0</ele>
      </trkpt>
      <trkpt lat="44.3169" lon="6.83037">
        <time>2023-04-10T09:17:32+00:00</time>
        <ele>2367.0</ele>
      </trkpt>
      <trkpt lat="44.3169" lon="6.83037">
        <time>2023-04-10T09:17:33+00:00</time>
        <ele>2367.0</ele>
      </trkpt>
      <trkpt lat="44.31688" lon="6.83035">
        <time>2023-04-10T09:17:34+00:00</time>
        <ele>2368.0</ele>
      </trkpt>
      <trkpt lat="44.31688" lon="6.83035">
        <time>2023-04-10T09:17:35+00:00</time>
        <ele>2368.0</ele>
      </trkpt>
      <trkpt lat="44.31688" lon="6.83035">
        <time>2023-04-10T09:17:36+00:00</time>
        <ele>2368.0</ele>
      </trkpt>
      <trkpt lat="44.31687" lon="6.83033">
        <time>2023-04-10T09:17:37+00:00</time>
        <ele>2368.0</ele>
      </trkpt>
      <trkpt lat="44.31687" lon="6.83033">
        <time>2023-04-10T09:17:38+00:00</time>
        <ele>2368.0</ele>
      </trkpt>
      <trkpt lat="44.31687" lon="6.83033">
        <time>2023-04-10T09:17:39+00:00</time>
        <ele>2368.0</ele>
      </trkpt>
      <trkpt lat="44.31685" lon="6.8303">
        <time>2023-04-10T09:17:40+00:00</time>
        <ele>2369.0</ele>
      </trkpt>
      <trkpt lat="44.31685" lon="6.8303">
        <time>2023-04-10T09:17:41+00:00</time>
        <ele>2369.0</ele>
      </trkpt>
      <trkpt lat="44.31685" lon="6.8303">
        <time>2023-04-10T09:17:42+00:00</time>
        <ele>2369.0</ele>
      </trkpt>
      <trkpt lat="44.31684" lon="6.83028">
        <time>2023-04-10T09:17:43+00:00</time>
        <ele>2370.0</ele>
      </trkpt>
      <trkpt lat="44.31684" lon="6.83028">
        <time>2023-04-10T09:17:44+00:00</time>
        <ele>2370.0</ele>
      </trkpt>
      <trkpt lat="44.31683" lon="6.83027">
        <time>2023-04-10T09:17:45+00:00</time>
        <ele>2370.0</ele>
      </trkpt>
      <trkpt lat="44.31683" lon="6.83027">
        <time>2023-04-10T09:17:46+00:00</time>
        <ele>2370.0</ele>
      </trkpt>
      <trkpt lat="44.31681" lon="6.83026">
        <time>2023-04-10T09:17:47+00:00</time>
        <ele>2371.0</ele>
      </trkpt>
      <trkpt lat="44.31681" lon="6.83026">
        <time>2023-04-10T09:17:48+00:00</time>
        <ele>2371.0</ele>
      </trkpt>
      <trkpt lat="44.31681" lon="6.83026">
        <time>2023-04-10T09:17:49+00:00</time>
        <ele>2371.0</ele>
      </trkpt>
      <trkpt lat="44.31679" lon="6.83025">
        <time>2023-04-10T09:17:50+00:00</time>
        <ele>2371.0</ele>
      </trkpt>
      <trkpt lat="44.31679" lon="6.83025">
        <time>2023-04-10T09:17:51+00:00</time>
        <ele>2371.0</ele>
      </trkpt>
      <trkpt lat="44.31679" lon="6.83025">
        <time>2023-04-10T09:17:52+00:00</time>
        <ele>2371.0</ele>
      </trkpt>
      <trkpt lat="44.31677" lon="6.83023">
        <time>2023-04-10T09:17:53+00:00</time>
        <ele>2372.0</ele>
      </trkpt>
      <trkpt lat="44.31677" lon="6.83023">
        <time>2023-04-10T09:17:54+00:00</time>
        <ele>2372.0</ele>
      </trkpt>
      <trkpt lat="44.31677" lon="6.83023">
        <time>2023-04-10T09:17:55+00:00</time>
        <ele>2372.0</ele>
      </trkpt>
      <trkpt lat="44.31677" lon="6.83023">
        <time>2023-04-10T09:17:56+00:00</time>
        <ele>2372.0</ele>
      </trkpt>
      <trkpt lat="44.31675" lon="6.8302">
        <time>2023-04-10T09:17:57+00:00</time>
        <ele>2373.0</ele>
      </trkpt>
      <trkpt lat="44.31675" lon="6.8302">
        <time>2023-04-10T09:17:58+00:00</time>
        <ele>2373.0</ele>
      </trkpt>
      <trkpt lat="44.31675" lon="6.8302">
        <time>2023-04-10T09:17:59+00:00</time>
        <ele>2373.0</ele>
      </trkpt>
      <trkpt lat="44.31674" lon="6.83019">
        <time>2023-04-10T09:18:00+00:00</time>
        <ele>2374.0</ele>
      </trkpt>
      <trkpt lat="44.31674" lon="6.83019">
        <time>2023-04-10T09:18:01+00:00</time>
        <ele>2374.0</ele>
      </trkpt>
      <trkpt lat="44.31674" lon="6.83019">
        <time>2023-04-10T09:18:02+00:00</time>
        <ele>2374.0</ele>
      </trkpt>
      <trkpt lat="44.31674" lon="6.83019">
        <time>2023-04-10T09:18:03+00:00</time>
        <ele>2374.0</ele>
      </trkpt>
      <trkpt lat="44.31672" lon="6.83018">
        <time>2023-04-10T09:18:04+00:00</time>
        <ele>2374.0</ele>
      </trkpt>
      <trkpt lat="44.31672" lon="6.83018">
        <time>2023-04-10T09:18:05+00:00</time>
        <ele>2374.0</ele>
      </trkpt>
      <trkpt lat="44.31672" lon="6.83018">
        <time>2023-04-10T09:18:06+00:00</time>
        <ele>2374.0</ele>
      </trkpt>
      <trkpt lat="44.3167" lon="6.8302">
        <time>2023-04-10T09:18:07+00:00</time>
        <ele>2375.0</ele>
      </trkpt>
      <trkpt lat="44.3167" lon="6.8302">
        <time>2023-04-10T09:18:08+00:00</time>
        <ele>2375.0</ele>
      </trkpt>
      <trkpt lat="44.31668" lon="6.83021">
        <time>2023-04-10T09:18:09+00:00</time>
        <ele>2376.0</ele>
      </trkpt>
      <trkpt lat="44.31668" lon="6.83021">
        <time>2023-04-10T09:18:10+00:00</time>
        <ele>2376.0</ele>
      </trkpt>
      <trkpt lat="44.31666" lon="6.83023">
        <time>2023-04-10T09:18:11+00:00</time>
        <ele>2376.0</ele>
      </trkpt>
      <trkpt lat="44.31666" lon="6.83023">
        <time>2023-04-10T09:18:12+00:00</time>
        <ele>2376.0</ele>
      </trkpt>
      <trkpt lat="44.31666" lon="6.83023">
        <time>2023-04-10T09:18:13+00:00</time>
        <ele>2376.0</ele>
      </trkpt>
      <trkpt lat="44.31664" lon="6.83024">
        <time>2023-04-10T09:18:14+00:00</time>
        <ele>2377.0</ele>
      </trkpt>
      <trkpt lat="44.31664" lon="6.83024">
        <time>2023-04-10T09:18:15+00:00</time>
        <ele>2377.0</ele>
      </trkpt>
      <trkpt lat="44.31664" lon="6.83024">
        <time>2023-04-10T09:18:16+00:00</time>
        <ele>2377.0</ele>
      </trkpt>
      <trkpt lat="44.31662" lon="6.83026">
        <time>2023-04-10T09:18:17+00:00</time>
        <ele>2378.0</ele>
      </trkpt>
      <trkpt lat="44.31662" lon="6.83026">
        <time>2023-04-10T09:18:18+00:00</time>
        <ele>2378.0</ele>
      </trkpt>
      <trkpt lat="44.31662" lon="6.83026">
        <time>2023-04-10T09:18:19+00:00</time>
        <ele>2378.0</ele>
      </trkpt>
      <trkpt lat="44.3166" lon="6.83027">
        <time>2023-04-10T09:18:20+00:00</time>
        <ele>2378.0</ele>
      </trkpt>
      <trkpt lat="44.3166" lon="6.83027">
        <time>2023-04-10T09:18:21+00:00</time>
        <ele>2378.0</ele>
      </trkpt>
      <trkpt lat="44.31658" lon="6.83027">
        <time>2023-04-10T09:18:22+00:00</time>
        <ele>2379.0</ele>
      </trkpt>
      <trkpt lat="44.31658" lon="6.83027">
        <time>2023-04-10T09:18:23+00:00</time>
        <ele>2379.0</ele>
      </trkpt>
      <trkpt lat="44.31658" lon="6.83027">
        <time>2023-04-10T09:18:24+00:00</time>
        <ele>2379.0</ele>
      </trkpt>
      <trkpt lat="44.31656" lon="6.83027">
        <time>2023-04-10T09:18:25+00:00</time>
        <ele>2380.0</ele>
      </trkpt>
      <trkpt lat="44.31656" lon="6.83027">
        <time>2023-04-10T09:18:26+00:00</time>
        <ele>2380.0</ele>
      </trkpt>
      <trkpt lat="44.31656" lon="6.83027">
        <time>2023-04-10T09:18:27+00:00</time>
        <ele>2380.0</ele>
      </trkpt>
      <trkpt lat="44.31654" lon="6.83025">
        <time>2023-04-10T09:18:28+00:00</time>
        <ele>2381.0</ele>
      </trkpt>
      <trkpt lat="44.31654" lon="6.83025">
        <time>2023-04-10T09:18:29+00:00</time>
        <ele>2381.0</ele>
      </trkpt>
      <trkpt lat="44.31654" lon="6.83025">
        <time>2023-04-10T09:18:30+00:00</time>
        <ele>2381.0</ele>
      </trkpt>
      <trkpt lat="44.31653" lon="6.83023">
        <time>2023-04-10T09:18:31+00:00</time>
        <ele>2381.0</ele>
      </trkpt>
      <trkpt lat="44.31653" lon="6.83023">
        <time>2023-04-10T09:18:32+00:00</time>
        <ele>2381.0</ele>
      </trkpt>
      <trkpt lat="44.31653" lon="6.83023">
        <time>2023-04-10T09:18:33+00:00</time>
        <ele>2381.0</ele>
      </trkpt>
      <trkpt lat="44.31653" lon="6.83023">
        <time>2023-04-10T09:18:34+00:00</time>
        <ele>2381.0</ele>
      </trkpt>
      <trkpt lat="44.31653" lon="6.8302">
        <time>2023-04-10T09:18:35+00:00</time>
        <ele>2381.0</ele>
      </trkpt>
      <trkpt lat="44.31653" lon="6.8302">
        <time>2023-04-10T09:18:36+00:00</time>
        <ele>2381.0</ele>
      </trkpt>
      <trkpt lat="44.31653" lon="6.8302">
        <time>2023-04-10T09:18:37+00:00</time>
        <ele>2381.0</ele>
      </trkpt>
      <trkpt lat="44.31651" lon="6.83017">
        <time>2023-04-10T09:18:38+00:00</time>
        <ele>2382.0</ele>
      </trkpt>
      <trkpt lat="44.31651" lon="6.83017">
        <time>2023-04-10T09:18:39+00:00</time>
        <ele>2382.0</ele>
      </trkpt>
      <trkpt lat="44.31651" lon="6.83017">
        <time>2023-04-10T09:18:40+00:00</time>
        <ele>2382.0</ele>
      </trkpt>
      <trkpt lat="44.31651" lon="6.83015">
        <time>2023-04-10T09:18:41+00:00</time>
        <ele>2382.0</ele>
      </trkpt>
      <trkpt lat="44.31651" lon="6.83015">
        <time>2023-04-10T09:18:42+00:00</time>
        <ele>2382.0</ele>
      </trkpt>
      <trkpt lat="44.31651" lon="6.83015">
        <time>2023-04-10T09:18:43+00:00</time>
        <ele>2382.0</ele>
      </trkpt>
      <trkpt lat="44.31651" lon="6.83015">
        <time>2023-04-10T09:18:44+00:00</time>
        <ele>2382.0</ele>
      </trkpt>
      <trkpt lat="44.31651" lon="6.83011">
        <time>2023-04-10T09:18:45+00:00</time>
        <ele>2382.0</ele>
      </trkpt>
      <trkpt lat="44.31651" lon="6.83011">
        <time>2023-04-10T09:18:46+00:00</time>
        <ele>2382.0</ele>
      </trkpt>
      <trkpt lat="44.31651" lon="6.83011">
        <time>2023-04-10T09:18:47+00:00</time>
        <ele>2382.0</ele>
      </trkpt>
      <trkpt lat="44.3165" lon="6.83009">
        <time>2023-04-10T09:18:48+00:00</time>
        <ele>2383.0</ele>
      </trkpt>
      <trkpt lat="44.3165" lon="6.83009">
        <time>2023-04-10T09:18:49+00:00</time>
        <ele>2383.0</ele>
      </trkpt>
      <trkpt lat="44.3165" lon="6.83009">
        <time>2023-04-10T09:18:50+00:00</time>
        <ele>2383.0</ele>
      </trkpt>
      <trkpt lat="44.31649" lon="6.83006">
        <time>2023-04-10T09:18:51+00:00</time>
        <ele>2384.0</ele>
      </trkpt>
      <trkpt lat="44.31649" lon="6.83006">
        <time>2023-04-10T09:18:52+00:00</time>
        <ele>2384.0</ele>
      </trkpt>
      <trkpt lat="44.31649" lon="6.83006">
        <time>2023-04-10T09:18:53+00:00</time>
        <ele>2384.0</ele>
      </trkpt>
      <trkpt lat="44.31649" lon="6.83003">
        <time>2023-04-10T09:18:54+00:00</time>
        <ele>2384.0</ele>
      </trkpt>
      <trkpt lat="44.31649" lon="6.83003">
        <time>2023-04-10T09:18:55+00:00</time>
        <ele>2384.0</ele>
      </trkpt>
      <trkpt lat="44.31649" lon="6.83003">
        <time>2023-04-10T09:18:56+00:00</time>
        <ele>2384.0</ele>
      </trkpt>
      <trkpt lat="44.31649" lon="6.83">
        <time>2023-04-10T09:18:57+00:00</time>
        <ele>2385.0</ele>
      </trkpt>
      <trkpt lat="44.31649" lon="6.83">
        <time>2023-04-10T09:18:58+00:00</time>
        <ele>2385.0</ele>
      </trkpt>
      <trkpt lat="44.31649" lon="6.83">
        <time>2023-04-10T09:18:59+00:00</time>
        <ele>2385.0</ele>
      </trkpt>
      <trkpt lat="44.31648" lon="6.82996">
        <time>2023-04-10T09:19:00+00:00</time>
        <ele>2386.0</ele>
      </trkpt>
      <trkpt lat="44.31648" lon="6.82996">
        <time>2023-04-10T09:19:01+00:00</time>
        <ele>2386.0</ele>
      </trkpt>
      <trkpt lat="44.31648" lon="6.82996">
        <time>2023-04-10T09:19:02+00:00</time>
        <ele>2386.0</ele>
      </trkpt>
      <trkpt lat="44.31648" lon="6.82993">
        <time>2023-04-10T09:19:03+00:00</time>
        <ele>2386.0</ele>
      </trkpt>
      <trkpt lat="44.31648" lon="6.82993">
        <time>2023-04-10T09:19:04+00:00</time>
        <ele>2386.0</ele>
      </trkpt>
      <trkpt lat="44.31648" lon="6.82993">
        <time>2023-04-10T09:19:05+00:00</time>
        <ele>2386.0</ele>
      </trkpt>
      <trkpt lat="44.31648" lon="6.8299">
        <time>2023-04-10T09:19:06+00:00</time>
        <ele>2386.0</ele>
      </trkpt>
      <trkpt lat="44.31648" lon="6.8299">
        <time>2023-04-10T09:19:07+00:00</time>
        <ele>2386.0</ele>
      </trkpt>
      <trkpt lat="44.31648" lon="6.8299">
        <time>2023-04-10T09:19:08+00:00</time>
        <ele>2386.0</ele>
      </trkpt>
      <trkpt lat="44.31648" lon="6.82987">
        <time>2023-04-10T09:19:09+00:00</time>
        <ele>2387.0</ele>
      </trkpt>
      <trkpt lat="44.31648" lon="6.82987">
        <time>2023-04-10T09:19:10+00:00</time>
        <ele>2387.0</ele>
      </trkpt>
      <trkpt lat="44.31648" lon="6.82987">
        <time>2023-04-10T09:19:11+00:00</time>
        <ele>2387.0</ele>
      </trkpt>
      <trkpt lat="44.31648" lon="6.82985">
        <time>2023-04-10T09:19:12+00:00</time>
        <ele>2387.0</ele>
      </trkpt>
      <trkpt lat="44.31648" lon="6.82985">
        <time>2023-04-10T09:19:13+00:00</time>
        <ele>2387.0</ele>
      </trkpt>
      <trkpt lat="44.31648" lon="6.82985">
        <time>2023-04-10T09:19:14+00:00</time>
        <ele>2387.0</ele>
      </trkpt>
      <trkpt lat="44.31649" lon="6.82981">
        <time>2023-04-10T09:19:15+00:00</time>
        <ele>2388.0</ele>
      </trkpt>
      <trkpt lat="44.31649" lon="6.82981">
        <time>2023-04-10T09:19:16+00:00</time>
        <ele>2388.0</ele>
      </trkpt>
      <trkpt lat="44.31649" lon="6.82981">
        <time>2023-04-10T09:19:17+00:00</time>
        <ele>2388.0</ele>
      </trkpt>
      <trkpt lat="44.31648" lon="6.82978">
        <time>2023-04-10T09:19:18+00:00</time>
        <ele>2388.0</ele>
      </trkpt>
      <trkpt lat="44.31648" lon="6.82978">
        <time>2023-04-10T09:19:19+00:00</time>
        <ele>2388.0</ele>
      </trkpt>
      <trkpt lat="44.31648" lon="6.82978">
        <time>2023-04-10T09:19:20+00:00</time>
        <ele>2388.0</ele>
      </trkpt>
      <trkpt lat="44.31648" lon="6.82978">
        <time>2023-04-10T09:19:21+00:00</time>
        <ele>2388.0</ele>
      </trkpt>
      <trkpt lat="44.31647" lon="6.82975">
        <time>2023-04-10T09:19:22+00:00</time>
        <ele>2389.0</ele>
      </trkpt>
      <trkpt lat="44.31647" lon="6.82975">
        <time>2023-04-10T09:19:23+00:00</time>
        <ele>2389.0</ele>
      </trkpt>
      <trkpt lat="44.31647" lon="6.82975">
        <time>2023-04-10T09:19:24+00:00</time>
        <ele>2389.0</ele>
      </trkpt>
      <trkpt lat="44.31647" lon="6.82973">
        <time>2023-04-10T09:19:25+00:00</time>
        <ele>2390.0</ele>
      </trkpt>
      <trkpt lat="44.31647" lon="6.82973">
        <time>2023-04-10T09:19:26+00:00</time>
        <ele>2390.0</ele>
      </trkpt>
      <trkpt lat="44.31647" lon="6.82973">
        <time>2023-04-10T09:19:27+00:00</time>
        <ele>2390.0</ele>
      </trkpt>
      <trkpt lat="44.31647" lon="6.8297">
        <time>2023-04-10T09:19:28+00:00</time>
        <ele>2390.0</ele>
      </trkpt>
      <trkpt lat="44.31647" lon="6.8297">
        <time>2023-04-10T09:19:29+00:00</time>
        <ele>2390.0</ele>
      </trkpt>
      <trkpt lat="44.31647" lon="6.8297">
        <time>2023-04-10T09:19:30+00:00</time>
        <ele>2390.0</ele>
      </trkpt>
      <trkpt lat="44.31646" lon="6.82968">
        <time>2023-04-10T09:19:31+00:00</time>
        <ele>2391.0</ele>
      </trkpt>
      <trkpt lat="44.31646" lon="6.82968">
        <time>2023-04-10T09:19:32+00:00</time>
        <ele>2391.0</ele>
      </trkpt>
      <trkpt lat="44.31646" lon="6.82968">
        <time>2023-04-10T09:19:33+00:00</time>
        <ele>2391.0</ele>
      </trkpt>
      <trkpt lat="44.31646" lon="6.82968">
        <time>2023-04-10T09:19:34+00:00</time>
        <ele>2391.0</ele>
      </trkpt>
      <trkpt lat="44.31645" lon="6.82965">
        <time>2023-04-10T09:19:35+00:00</time>
        <ele>2392.0</ele>
      </trkpt>
      <trkpt lat="44.31645" lon="6.82965">
        <time>2023-04-10T09:19:36+00:00</time>
        <ele>2392.0</ele>
      </trkpt>
      <trkpt lat="44.31645" lon="6.82965">
        <time>2023-04-10T09:19:37+00:00</time>
        <ele>2392.0</ele>
      </trkpt>
      <trkpt lat="44.31645" lon="6.82965">
        <time>2023-04-10T09:19:38+00:00</time>
        <ele>2392.0</ele>
      </trkpt>
      <trkpt lat="44.31645" lon="6.82962">
        <time>2023-04-10T09:19:39+00:00</time>
        <ele>2393.0</ele>
      </trkpt>
      <trkpt lat="44.31645" lon="6.82962">
        <time>2023-04-10T09:19:40+00:00</time>
        <ele>2393.0</ele>
      </trkpt>
      <trkpt lat="44.31645" lon="6.82962">
        <time>2023-04-10T09:19:41+00:00</time>
        <ele>2393.0</ele>
      </trkpt>
      <trkpt lat="44.31645" lon="6.8296">
        <time>2023-04-10T09:19:42+00:00</time>
        <ele>2393.0</ele>
      </trkpt>
      <trkpt lat="44.31645" lon="6.8296">
        <time>2023-04-10T09:19:43+00:00</time>
        <ele>2393.0</ele>
      </trkpt>
      <trkpt lat="44.31645" lon="6.8296">
        <time>2023-04-10T09:19:44+00:00</time>
        <ele>2393.0</ele>
      </trkpt>
      <trkpt lat="44.31645" lon="6.8296">
        <time>2023-04-10T09:19:45+00:00</time>
        <ele>2393.0</ele>
      </trkpt>
      <trkpt lat="44.31644" lon="6.82956">
        <time>2023-04-10T09:19:46+00:00</time>
        <ele>2394.0</ele>
      </trkpt>
      <trkpt lat="44.31644" lon="6.82956">
        <time>2023-04-10T09:19:47+00:00</time>
        <ele>2394.0</ele>
      </trkpt>
      <trkpt lat="44.31644" lon="6.82956">
        <time>2023-04-10T09:19:48+00:00</time>
        <ele>2394.0</ele>
      </trkpt>
      <trkpt lat="44.31644" lon="6.82956">
        <time>2023-04-10T09:19:49+00:00</time>
        <ele>2394.0</ele>
      </trkpt>
      <trkpt lat="44.31643" lon="6.82953">
        <time>2023-04-10T09:19:50+00:00</time>
        <ele>2395.0</ele>
      </trkpt>
      <trkpt lat="44.31643" lon="6.82953">
        <time>2023-04-10T09:19:51+00:00</time>
        <ele>2395.0</ele>
      </trkpt>
      <trkpt lat="44.31643" lon="6.82953">
        <time>2023-04-10T09:19:52+00:00</time>
        <ele>2395.0</ele>
      </trkpt>
      <trkpt lat="44.31643" lon="6.82953">
        <time>2023-04-10T09:19:53+00:00</time>
        <ele>2395.0</ele>
      </trkpt>
      <trkpt lat="44.31642" lon="6.8295">
        <time>2023-04-10T09:19:54+00:00</time>
        <ele>2396.0</ele>
      </trkpt>
      <trkpt lat="44.31642" lon="6.8295">
        <time>2023-04-10T09:19:55+00:00</time>
        <ele>2396.0</ele>
      </trkpt>
      <trkpt lat="44.31642" lon="6.8295">
        <time>2023-04-10T09:19:56+00:00</time>
        <ele>2396.0</ele>
      </trkpt>
      <trkpt lat="44.31641" lon="6.82948">
        <time>2023-04-10T09:19:57+00:00</time>
        <ele>2396.0</ele>
      </trkpt>
      <trkpt lat="44.31641" lon="6.82948">
        <time>2023-04-10T09:19:58+00:00</time>
        <ele>2396.0</ele>
      </trkpt>
      <trkpt lat="44.31641" lon="6.82948">
        <time>2023-04-10T09:19:59+00:00</time>
        <ele>2396.0</ele>
      </trkpt>
      <trkpt lat="44.3164" lon="6.82945">
        <time>2023-04-10T09:20:01+00:00</time>
        <ele>2397.0</ele>
      </trkpt>
      <trkpt lat="44.3164" lon="6.82945">
        <time>2023-04-10T09:20:02+00:00</time>
        <ele>2397.0</ele>
      </trkpt>
      <trkpt lat="44.3164" lon="6.82945">
        <time>2023-04-10T09:20:03+00:00</time>
        <ele>2397.0</ele>
      </trkpt>
      <trkpt lat="44.31639" lon="6.82943">
        <time>2023-04-10T09:20:04+00:00</time>
        <ele>2397.0</ele>
      </trkpt>
      <trkpt lat="44.31639" lon="6.82943">
        <time>2023-04-10T09:20:05+00:00</time>
        <ele>2397.0</ele>
      </trkpt>
      <trkpt lat="44.31639" lon="6.82943">
        <time>2023-04-10T09:20:06+00:00</time>
        <ele>2397.0</ele>
      </trkpt>
      <trkpt lat="44.31639" lon="6.82943">
        <time>2023-04-10T09:20:07+00:00</time>
        <ele>2397.0</ele>
      </trkpt>
      <trkpt lat="44.31638" lon="6.8294">
        <time>2023-04-10T09:20:08+00:00</time>
        <ele>2398.0</ele>
      </trkpt>
      <trkpt lat="44.31638" lon="6.8294">
        <time>2023-04-10T09:20:09+00:00</time>
        <ele>2398.0</ele>
      </trkpt>
      <trkpt lat="44.31638" lon="6.8294">
        <time>2023-04-10T09:20:10+00:00</time>
        <ele>2398.0</ele>
      </trkpt>
      <trkpt lat="44.31638" lon="6.8294">
        <time>2023-04-10T09:20:11+00:00</time>
        <ele>2398.0</ele>
      </trkpt>
      <trkpt lat="44.31636" lon="6.82938">
        <time>2023-04-10T09:20:12+00:00</time>
        <ele>2399.0</ele>
      </trkpt>
      <trkpt lat="44.31636" lon="6.82938">
        <time>2023-04-10T09:20:13+00:00</time>
        <ele>2399.0</ele>
      </trkpt>
      <trkpt lat="44.31636" lon="6.82938">
        <time>2023-04-10T09:20:14+00:00</time>
        <ele>2399.0</ele>
      </trkpt>
      <trkpt lat="44.31634" lon="6.82936">
        <time>2023-04-10T09:20:15+00:00</time>
        <ele>2400.0</ele>
      </trkpt>
      <trkpt lat="44.31634" lon="6.82936">
        <time>2023-04-10T09:20:16+00:00</time>
        <ele>2400.0</ele>
      </trkpt>
      <trkpt lat="44.31634" lon="6.82936">
        <time>2023-04-10T09:20:17+00:00</time>
        <ele>2400.0</ele>
      </trkpt>
      <trkpt lat="44.31632" lon="6.82935">
        <time>2023-04-10T09:20:18+00:00</time>
        <ele>2401.0</ele>
      </trkpt>
      <trkpt lat="44.31632" lon="6.82935">
        <time>2023-04-10T09:20:19+00:00</time>
        <ele>2401.0</ele>
      </trkpt>
      <trkpt lat="44.31632" lon="6.82935">
        <time>2023-04-10T09:20:20+00:00</time>
        <ele>2401.0</ele>
      </trkpt>
      <trkpt lat="44.31629" lon="6.82934">
        <time>2023-04-10T09:20:21+00:00</time>
        <ele>2402.0</ele>
      </trkpt>
      <trkpt lat="44.31629" lon="6.82934">
        <time>2023-04-10T09:20:22+00:00</time>
        <ele>2402.0</ele>
      </trkpt>
      <trkpt lat="44.31629" lon="6.82934">
        <time>2023-04-10T09:20:23+00:00</time>
        <ele>2402.0</ele>
      </trkpt>
      <trkpt lat="44.31628" lon="6.82933">
        <time>2023-04-10T09:20:24+00:00</time>
        <ele>2403.0</ele>
      </trkpt>
      <trkpt lat="44.31628" lon="6.82933">
        <time>2023-04-10T09:20:25+00:00</time>
        <ele>2403.0</ele>
      </trkpt>
      <trkpt lat="44.31628" lon="6.82933">
        <time>2023-04-10T09:20:26+00:00</time>
        <ele>2403.0</ele>
      </trkpt>
      <trkpt lat="44.31625" lon="6.82931">
        <time>2023-04-10T09:20:27+00:00</time>
        <ele>2404.0</ele>
      </trkpt>
      <trkpt lat="44.31625" lon="6.82931">
        <time>2023-04-10T09:20:28+00:00</time>
        <ele>2404.0</ele>
      </trkpt>
      <trkpt lat="44.31625" lon="6.82931">
        <time>2023-04-10T09:20:29+00:00</time>
        <ele>2404.0</ele>
      </trkpt>
      <trkpt lat="44.31623" lon="6.8293">
        <time>2023-04-10T09:20:30+00:00</time>
        <ele>2405.0</ele>
      </trkpt>
      <trkpt lat="44.31623" lon="6.8293">
        <time>2023-04-10T09:20:31+00:00</time>
        <ele>2405.0</ele>
      </trkpt>
      <trkpt lat="44.31623" lon="6.8293">
        <time>2023-04-10T09:20:32+00:00</time>
        <ele>2405.0</ele>
      </trkpt>
      <trkpt lat="44.31621" lon="6.82929">
        <time>2023-04-10T09:20:33+00:00</time>
        <ele>2406.0</ele>
      </trkpt>
      <trkpt lat="44.31621" lon="6.82929">
        <time>2023-04-10T09:20:34+00:00</time>
        <ele>2406.0</ele>
      </trkpt>
      <trkpt lat="44.31621" lon="6.82929">
        <time>2023-04-10T09:20:35+00:00</time>
        <ele>2406.0</ele>
      </trkpt>
      <trkpt lat="44.3162" lon="6.82927">
        <time>2023-04-10T09:20:36+00:00</time>
        <ele>2407.0</ele>
      </trkpt>
      <trkpt lat="44.3162" lon="6.82927">
        <time>2023-04-10T09:20:37+00:00</time>
        <ele>2407.0</ele>
      </trkpt>
      <trkpt lat="44.3162" lon="6.82927">
        <time>2023-04-10T09:20:38+00:00</time>
        <ele>2407.0</ele>
      </trkpt>
      <trkpt lat="44.3162" lon="6.82927">
        <time>2023-04-10T09:20:39+00:00</time>
        <ele>2407.0</ele>
      </trkpt>
      <trkpt lat="44.31618" lon="6.82924">
        <time>2023-04-10T09:20:40+00:00</time>
        <ele>2408.0</ele>
      </trkpt>
      <trkpt lat="44.31618" lon="6.82924">
        <time>2023-04-10T09:20:41+00:00</time>
        <ele>2408.0</ele>
      </trkpt>
      <trkpt lat="44.31618" lon="6.82924">
        <time>2023-04-10T09:20:42+00:00</time>
        <ele>2408.0</ele>
      </trkpt>
      <trkpt lat="44.31617" lon="6.82922">
        <time>2023-04-10T09:20:43+00:00</time>
        <ele>2408.0</ele>
      </trkpt>
      <trkpt lat="44.31617" lon="6.82922">
        <time>2023-04-10T09:20:44+00:00</time>
        <ele>2408.0</ele>
      </trkpt>
      <trkpt lat="44.31617" lon="6.82922">
        <time>2023-04-10T09:20:45+00:00</time>
        <ele>2408.0</ele>
      </trkpt>
      <trkpt lat="44.31615" lon="6.8292">
        <time>2023-04-10T09:20:46+00:00</time>
        <ele>2410.0</ele>
      </trkpt>
      <trkpt lat="44.31615" lon="6.8292">
        <time>2023-04-10T09:20:47+00:00</time>
        <ele>2410.0</ele>
      </trkpt>
      <trkpt lat="44.31615" lon="6.8292">
        <time>2023-04-10T09:20:49+00:00</time>
        <ele>2410.0</ele>
      </trkpt>
      <trkpt lat="44.31613" lon="6.82918">
        <time>2023-04-10T09:20:50+00:00</time>
        <ele>2411.0</ele>
      </trkpt>
      <trkpt lat="44.31613" lon="6.82918">
        <time>2023-04-10T09:20:51+00:00</time>
        <ele>2411.0</ele>
      </trkpt>
      <trkpt lat="44.31613" lon="6.82918">
        <time>2023-04-10T09:20:52+00:00</time>
        <ele>2411.0</ele>
      </trkpt>
      <trkpt lat="44.31613" lon="6.82918">
        <time>2023-04-10T09:20:53+00:00</time>
        <ele>2411.0</ele>
      </trkpt>
      <trkpt lat="44.31613" lon="6.82918">
        <time>2023-04-10T09:20:54+00:00</time>
        <ele>2411.0</ele>
      </trkpt>
      <trkpt lat="44.31612" lon="6.82916">
        <time>2023-04-10T09:20:55+00:00</time>
        <ele>2411.0</ele>
      </trkpt>
      <trkpt lat="44.31612" lon="6.82916">
        <time>2023-04-10T09:20:56+00:00</time>
        <ele>2411.0</ele>
      </trkpt>
      <trkpt lat="44.31612" lon="6.82916">
        <time>2023-04-10T09:20:57+00:00</time>
        <ele>2411.0</ele>
      </trkpt>
      <trkpt lat="44.31612" lon="6.82916">
        <time>2023-04-10T09:20:58+00:00</time>
        <ele>2411.0</ele>
      </trkpt>
      <trkpt lat="44.31612" lon="6.82916">
        <time>2023-04-10T09:20:59+00:00</time>
        <ele>2411.0</ele>
      </trkpt>
      <trkpt lat="44.31612" lon="6.82916">
        <time>2023-04-10T09:21:00+00:00</time>
        <ele>2411.0</ele>
      </trkpt>
      <trkpt lat="44.31612" lon="6.82916">
        <time>2023-04-10T09:21:01+00:00</time>
        <ele>2411.0</ele>
      </trkpt>
      <trkpt lat="44.31612" lon="6.82916">
        <time>2023-04-10T09:21:02+00:00</time>
        <ele>2411.0</ele>
      </trkpt>
      <trkpt lat="44.3161" lon="6.82917">
        <time>2023-04-10T09:21:03+00:00</time>
        <ele>2412.0</ele>
      </trkpt>
      <trkpt lat="44.3161" lon="6.82917">
        <time>2023-04-10T09:21:04+00:00</time>
        <ele>2412.0</ele>
      </trkpt>
      <trkpt lat="44.3161" lon="6.82917">
        <time>2023-04-10T09:21:05+00:00</time>
        <ele>2412.0</ele>
      </trkpt>
      <trkpt lat="44.3161" lon="6.82917">
        <time>2023-04-10T09:21:06+00:00</time>
        <ele>2412.0</ele>
      </trkpt>
      <trkpt lat="44.31608" lon="6.82919">
        <time>2023-04-10T09:21:07+00:00</time>
        <ele>2413.0</ele>
      </trkpt>
      <trkpt lat="44.31608" lon="6.82919">
        <time>2023-04-10T09:21:08+00:00</time>
        <ele>2413.0</ele>
      </trkpt>
      <trkpt lat="44.31608" lon="6.82919">
        <time>2023-04-10T09:21:09+00:00</time>
        <ele>2413.0</ele>
      </trkpt>
      <trkpt lat="44.31607" lon="6.82921">
        <time>2023-04-10T09:21:10+00:00</time>
        <ele>2413.0</ele>
      </trkpt>
      <trkpt lat="44.31607" lon="6.82921">
        <time>2023-04-10T09:21:11+00:00</time>
        <ele>2413.0</ele>
      </trkpt>
      <trkpt lat="44.31607" lon="6.82921">
        <time>2023-04-10T09:21:12+00:00</time>
        <ele>2413.0</ele>
      </trkpt>
      <trkpt lat="44.31605" lon="6.82924">
        <time>2023-04-10T09:21:13+00:00</time>
        <ele>2414.0</ele>
      </trkpt>
      <trkpt lat="44.31605" lon="6.82924">
        <time>2023-04-10T09:21:14+00:00</time>
        <ele>2414.0</ele>
      </trkpt>
      <trkpt lat="44.31605" lon="6.82924">
        <time>2023-04-10T09:21:15+00:00</time>
        <ele>2414.0</ele>
      </trkpt>
      <trkpt lat="44.31604" lon="6.82926">
        <time>2023-04-10T09:21:16+00:00</time>
        <ele>2414.0</ele>
      </trkpt>
      <trkpt lat="44.31604" lon="6.82926">
        <time>2023-04-10T09:21:17+00:00</time>
        <ele>2414.0</ele>
      </trkpt>
      <trkpt lat="44.31604" lon="6.82926">
        <time>2023-04-10T09:21:18+00:00</time>
        <ele>2414.0</ele>
      </trkpt>
      <trkpt lat="44.31604" lon="6.82926">
        <time>2023-04-10T09:21:19+00:00</time>
        <ele>2414.0</ele>
      </trkpt>
      <trkpt lat="44.31602" lon="6.82928">
        <time>2023-04-10T09:21:20+00:00</time>
        <ele>2415.0</ele>
      </trkpt>
      <trkpt lat="44.31602" lon="6.82928">
        <time>2023-04-10T09:21:21+00:00</time>
        <ele>2415.0</ele>
      </trkpt>
      <trkpt lat="44.31602" lon="6.82928">
        <time>2023-04-10T09:21:22+00:00</time>
        <ele>2415.0</ele>
      </trkpt>
      <trkpt lat="44.31602" lon="6.82928">
        <time>2023-04-10T09:21:23+00:00</time>
        <ele>2415.0</ele>
      </trkpt>
      <trkpt lat="44.31601" lon="6.8293">
        <time>2023-04-10T09:21:24+00:00</time>
        <ele>2415.0</ele>
      </trkpt>
      <trkpt lat="44.31601" lon="6.8293">
        <time>2023-04-10T09:21:25+00:00</time>
        <ele>2415.0</ele>
      </trkpt>
      <trkpt lat="44.31601" lon="6.8293">
        <time>2023-04-10T09:21:26+00:00</time>
        <ele>2415.0</ele>
      </trkpt>
      <trkpt lat="44.31599" lon="6.82931">
        <time>2023-04-10T09:21:27+00:00</time>
        <ele>2416.0</ele>
      </trkpt>
      <trkpt lat="44.31599" lon="6.82931">
        <time>2023-04-10T09:21:28+00:00</time>
        <ele>2416.0</ele>
      </trkpt>
      <trkpt lat="44.31599" lon="6.82931">
        <time>2023-04-10T09:21:29+00:00</time>
        <ele>2416.0</ele>
      </trkpt>
      <trkpt lat="44.31599" lon="6.82931">
        <time>2023-04-10T09:21:30+00:00</time>
        <ele>2416.0</ele>
      </trkpt>
      <trkpt lat="44.31599" lon="6.82931">
        <time>2023-04-10T09:21:31+00:00</time>
        <ele>2416.0</ele>
      </trkpt>
      <trkpt lat="44.31597" lon="6.82933">
        <time>2023-04-10T09:21:32+00:00</time>
        <ele>2417.0</ele>
      </trkpt>
      <trkpt lat="44.31597" lon="6.82933">
        <time>2023-04-10T09:21:33+00:00</time>
        <ele>2417.0</ele>
      </trkpt>
      <trkpt lat="44.31597" lon="6.82933">
        <time>2023-04-10T09:21:34+00:00</time>
        <ele>2417.0</ele>
      </trkpt>
      <trkpt lat="44.31597" lon="6.82933">
        <time>2023-04-10T09:21:35+00:00</time>
        <ele>2417.0</ele>
      </trkpt>
      <trkpt lat="44.31594" lon="6.82934">
        <time>2023-04-10T09:21:36+00:00</time>
        <ele>2419.0</ele>
      </trkpt>
      <trkpt lat="44.31594" lon="6.82934">
        <time>2023-04-10T09:21:37+00:00</time>
        <ele>2419.0</ele>
      </trkpt>
      <trkpt lat="44.31594" lon="6.82934">
        <time>2023-04-10T09:21:38+00:00</time>
        <ele>2419.0</ele>
      </trkpt>
      <trkpt lat="44.31594" lon="6.82934">
        <time>2023-04-10T09:21:39+00:00</time>
        <ele>2419.0</ele>
      </trkpt>
      <trkpt lat="44.31592" lon="6.82935">
        <time>2023-04-10T09:21:40+00:00</time>
        <ele>2420.0</ele>
      </trkpt>
      <trkpt lat="44.31592" lon="6.82935">
        <time>2023-04-10T09:21:41+00:00</time>
        <ele>2420.0</ele>
      </trkpt>
      <trkpt lat="44.31592" lon="6.82935">
        <time>2023-04-10T09:21:42+00:00</time>
        <ele>2420.0</ele>
      </trkpt>
      <trkpt lat="44.31591" lon="6.82936">
        <time>2023-04-10T09:21:43+00:00</time>
        <ele>2420.0</ele>
      </trkpt>
      <trkpt lat="44.31591" lon="6.82936">
        <time>2023-04-10T09:21:44+00:00</time>
        <ele>2420.0</ele>
      </trkpt>
      <trkpt lat="44.31591" lon="6.82936">
        <time>2023-04-10T09:21:45+00:00</time>
        <ele>2420.0</ele>
      </trkpt>
      <trkpt lat="44.31589" lon="6.82938">
        <time>2023-04-10T09:21:46+00:00</time>
        <ele>2421.0</ele>
      </trkpt>
      <trkpt lat="44.31589" lon="6.82938">
        <time>2023-04-10T09:21:47+00:00</time>
        <ele>2421.0</ele>
      </trkpt>
      <trkpt lat="44.31589" lon="6.82938">
        <time>2023-04-10T09:21:48+00:00</time>
        <ele>2421.0</ele>
      </trkpt>
      <trkpt lat="44.31587" lon="6.82939">
        <time>2023-04-10T09:21:49+00:00</time>
        <ele>2422.0</ele>
      </trkpt>
      <trkpt lat="44.31587" lon="6.82939">
        <time>2023-04-10T09:21:50+00:00</time>
        <ele>2422.0</ele>
      </trkpt>
      <trkpt lat="44.31587" lon="6.82939">
        <time>2023-04-10T09:21:51+00:00</time>
        <ele>2422.0</ele>
      </trkpt>
      <trkpt lat="44.31585" lon="6.8294">
        <time>2023-04-10T09:21:52+00:00</time>
        <ele>2423.0</ele>
      </trkpt>
      <trkpt lat="44.31585" lon="6.8294">
        <time>2023-04-10T09:21:53+00:00</time>
        <ele>2423.0</ele>
      </trkpt>
      <trkpt lat="44.31585" lon="6.8294">
        <time>2023-04-10T09:21:54+00:00</time>
        <ele>2423.0</ele>
      </trkpt>
      <trkpt lat="44.31585" lon="6.8294">
        <time>2023-04-10T09:21:55+00:00</time>
        <ele>2423.0</ele>
      </trkpt>
      <trkpt lat="44.31583" lon="6.82942">
        <time>2023-04-10T09:21:56+00:00</time>
        <ele>2424.0</ele>
      </trkpt>
      <trkpt lat="44.31583" lon="6.82942">
        <time>2023-04-10T09:21:57+00:00</time>
        <ele>2424.0</ele>
      </trkpt>
      <trkpt lat="44.31583" lon="6.82942">
        <time>2023-04-10T09:21:58+00:00</time>
        <ele>2424.0</ele>
      </trkpt>
      <trkpt lat="44.31581" lon="6.82944">
        <time>2023-04-10T09:21:59+00:00</time>
        <ele>2425.0</ele>
      </trkpt>
      <trkpt lat="44.31581" lon="6.82944">
        <time>2023-04-10T09:22:00+00:00</time>
        <ele>2425.0</ele>
      </trkpt>
      <trkpt lat="44.31581" lon="6.82944">
        <time>2023-04-10T09:22:01+00:00</time>
        <ele>2425.0</ele>
      </trkpt>
      <trkpt lat="44.31581" lon="6.82944">
        <time>2023-04-10T09:22:02+00:00</time>
        <ele>2425.0</ele>
      </trkpt>
      <trkpt lat="44.31581" lon="6.82946">
        <time>2023-04-10T09:22:03+00:00</time>
        <ele>2425.0</ele>
      </trkpt>
      <trkpt lat="44.31581" lon="6.82946">
        <time>2023-04-10T09:22:04+00:00</time>
        <ele>2425.0</ele>
      </trkpt>
      <trkpt lat="44.31581" lon="6.82946">
        <time>2023-04-10T09:22:05+00:00</time>
        <ele>2425.0</ele>
      </trkpt>
      <trkpt lat="44.31579" lon="6.82948">
        <time>2023-04-10T09:22:06+00:00</time>
        <ele>2426.0</ele>
      </trkpt>
      <trkpt lat="44.31579" lon="6.82948">
        <time>2023-04-10T09:22:07+00:00</time>
        <ele>2426.0</ele>
      </trkpt>
      <trkpt lat="44.31579" lon="6.82948">
        <time>2023-04-10T09:22:08+00:00</time>
        <ele>2426.0</ele>
      </trkpt>
      <trkpt lat="44.31579" lon="6.82948">
        <time>2023-04-10T09:22:09+00:00</time>
        <ele>2426.0</ele>
      </trkpt>
      <trkpt lat="44.31577" lon="6.8295">
        <time>2023-04-10T09:22:10+00:00</time>
        <ele>2427.0</ele>
      </trkpt>
      <trkpt lat="44.31577" lon="6.8295">
        <time>2023-04-10T09:22:11+00:00</time>
        <ele>2427.0</ele>
      </trkpt>
      <trkpt lat="44.31577" lon="6.8295">
        <time>2023-04-10T09:22:12+00:00</time>
        <ele>2427.0</ele>
      </trkpt>
      <trkpt lat="44.31577" lon="6.8295">
        <time>2023-04-10T09:22:13+00:00</time>
        <ele>2427.0</ele>
      </trkpt>
      <trkpt lat="44.31577" lon="6.8295">
        <time>2023-04-10T09:22:14+00:00</time>
        <ele>2427.0</ele>
      </trkpt>
      <trkpt lat="44.31577" lon="6.8295">
        <time>2023-04-10T09:22:15+00:00</time>
        <ele>2427.0</ele>
      </trkpt>
      <trkpt lat="44.31576" lon="6.82947">
        <time>2023-04-10T09:22:16+00:00</time>
        <ele>2427.0</ele>
      </trkpt>
      <trkpt lat="44.31576" lon="6.82947">
        <time>2023-04-10T09:22:17+00:00</time>
        <ele>2427.0</ele>
      </trkpt>
      <trkpt lat="44.31576" lon="6.82947">
        <time>2023-04-10T09:22:18+00:00</time>
        <ele>2427.0</ele>
      </trkpt>
      <trkpt lat="44.31576" lon="6.82947">
        <time>2023-04-10T09:22:19+00:00</time>
        <ele>2427.0</ele>
      </trkpt>
      <trkpt lat="44.31576" lon="6.82944">
        <time>2023-04-10T09:22:20+00:00</time>
        <ele>2428.0</ele>
      </trkpt>
      <trkpt lat="44.31576" lon="6.82944">
        <time>2023-04-10T09:22:21+00:00</time>
        <ele>2428.0</ele>
      </trkpt>
      <trkpt lat="44.31576" lon="6.82944">
        <time>2023-04-10T09:22:22+00:00</time>
        <ele>2428.0</ele>
      </trkpt>
      <trkpt lat="44.31576" lon="6.82944">
        <time>2023-04-10T09:22:23+00:00</time>
        <ele>2428.0</ele>
      </trkpt>
      <trkpt lat="44.31575" lon="6.82941">
        <time>2023-04-10T09:22:24+00:00</time>
        <ele>2428.0</ele>
      </trkpt>
      <trkpt lat="44.31575" lon="6.82941">
        <time>2023-04-10T09:22:25+00:00</time>
        <ele>2428.0</ele>
      </trkpt>
      <trkpt lat="44.31575" lon="6.82941">
        <time>2023-04-10T09:22:26+00:00</time>
        <ele>2428.0</ele>
      </trkpt>
      <trkpt lat="44.31575" lon="6.82941">
        <time>2023-04-10T09:22:27+00:00</time>
        <ele>2428.0</ele>
      </trkpt>
      <trkpt lat="44.31574" lon="6.82939">
        <time>2023-04-10T09:22:28+00:00</time>
        <ele>2429.0</ele>
      </trkpt>
      <trkpt lat="44.31574" lon="6.82939">
        <time>2023-04-10T09:22:29+00:00</time>
        <ele>2429.0</ele>
      </trkpt>
      <trkpt lat="44.31574" lon="6.82939">
        <time>2023-04-10T09:22:30+00:00</time>
        <ele>2429.0</ele>
      </trkpt>
      <trkpt lat="44.31574" lon="6.82939">
        <time>2023-04-10T09:22:31+00:00</time>
        <ele>2429.0</ele>
      </trkpt>
      <trkpt lat="44.31574" lon="6.82936">
        <time>2023-04-10T09:22:32+00:00</time>
        <ele>2429.0</ele>
      </trkpt>
      <trkpt lat="44.31574" lon="6.82936">
        <time>2023-04-10T09:22:33+00:00</time>
        <ele>2429.0</ele>
      </trkpt>
      <trkpt lat="44.31574" lon="6.82936">
        <time>2023-04-10T09:22:34+00:00</time>
        <ele>2429.0</ele>
      </trkpt>
      <trkpt lat="44.31574" lon="6.82936">
        <time>2023-04-10T09:22:35+00:00</time>
        <ele>2429.0</ele>
      </trkpt>
      <trkpt lat="44.31574" lon="6.82936">
        <time>2023-04-10T09:22:36+00:00</time>
        <ele>2429.0</ele>
      </trkpt>
      <trkpt lat="44.31574" lon="6.82936">
        <time>2023-04-10T09:22:37+00:00</time>
        <ele>2429.0</ele>
      </trkpt>
      <trkpt lat="44.31574" lon="6.82936">
        <time>2023-04-10T09:22:38+00:00</time>
        <ele>2429.0</ele>
      </trkpt>
      <trkpt lat="44.31574" lon="6.82936">
        <time>2023-04-10T09:22:39+00:00</time>
        <ele>2429.0</ele>
      </trkpt>
      <trkpt lat="44.31574" lon="6.82936">
        <time>2023-04-10T09:22:40+00:00</time>
        <ele>2429.0</ele>
      </trkpt>
      <trkpt lat="44.31574" lon="6.82936">
        <time>2023-04-10T09:22:41+00:00</time>
        <ele>2429.0</ele>
      </trkpt>
      <trkpt lat="44.31574" lon="6.82936">
        <time>2023-04-10T09:22:42+00:00</time>
        <ele>2429.0</ele>
      </trkpt>
      <trkpt lat="44.31574" lon="6.82936">
        <time>2023-04-10T09:22:43+00:00</time>
        <ele>2429.0</ele>
      </trkpt>
      <trkpt lat="44.31574" lon="6.82936">
        <time>2023-04-10T09:22:44+00:00</time>
        <ele>2429.0</ele>
      </trkpt>
      <trkpt lat="44.31574" lon="6.82936">
        <time>2023-04-10T09:22:45+00:00</time>
        <ele>2429.0</ele>
      </trkpt>
      <trkpt lat="44.31574" lon="6.82936">
        <time>2023-04-10T09:22:46+00:00</time>
        <ele>2429.0</ele>
      </trkpt>
      <trkpt lat="44.31574" lon="6.82936">
        <time>2023-04-10T09:22:47+00:00</time>
        <ele>2429.0</ele>
      </trkpt>
      <trkpt lat="44.31574" lon="6.82936">
        <time>2023-04-10T09:22:48+00:00</time>
        <ele>2429.0</ele>
      </trkpt>
      <trkpt lat="44.31574" lon="6.82936">
        <time>2023-04-10T09:22:49+00:00</time>
        <ele>2429.0</ele>
      </trkpt>
      <trkpt lat="44.31574" lon="6.82936">
        <time>2023-04-10T09:22:50+00:00</time>
        <ele>2429.0</ele>
      </trkpt>
      <trkpt lat="44.31574" lon="6.82936">
        <time>2023-04-10T09:22:51+00:00</time>
        <ele>2429.0</ele>
      </trkpt>
      <trkpt lat="44.31574" lon="6.82936">
        <time>2023-04-10T09:22:52+00:00</time>
        <ele>2429.0</ele>
      </trkpt>
      <trkpt lat="44.31574" lon="6.82936">
        <time>2023-04-10T09:22:53+00:00</time>
        <ele>2429.0</ele>
      </trkpt>
      <trkpt lat="44.31574" lon="6.82936">
        <time>2023-04-10T09:22:54+00:00</time>
        <ele>2429.0</ele>
      </trkpt>
      <trkpt lat="44.31574" lon="6.82936">
        <time>2023-04-10T09:22:55+00:00</time>
        <ele>2429.0</ele>
      </trkpt>
      <trkpt lat="44.31574" lon="6.82936">
        <time>2023-04-10T09:22:56+00:00</time>
        <ele>2429.0</ele>
      </trkpt>
      <trkpt lat="44.31574" lon="6.82936">
        <time>2023-04-10T09:22:57+00:00</time>
        <ele>2429.0</ele>
      </trkpt>
      <trkpt lat="44.31574" lon="6.82936">
        <time>2023-04-10T09:22:58+00:00</time>
        <ele>2429.0</ele>
      </trkpt>
      <trkpt lat="44.31574" lon="6.82936">
        <time>2023-04-10T09:22:59+00:00</time>
        <ele>2429.0</ele>
      </trkpt>
      <trkpt lat="44.31573" lon="6.82932">
        <time>2023-04-10T09:23:00+00:00</time>
        <ele>2430.0</ele>
      </trkpt>
      <trkpt lat="44.31573" lon="6.82932">
        <time>2023-04-10T09:23:01+00:00</time>
        <ele>2430.0</ele>
      </trkpt>
      <trkpt lat="44.31573" lon="6.82928">
        <time>2023-04-10T09:23:02+00:00</time>
        <ele>2430.0</ele>
      </trkpt>
      <trkpt lat="44.31573" lon="6.82928">
        <time>2023-04-10T09:23:03+00:00</time>
        <ele>2430.0</ele>
      </trkpt>
      <trkpt lat="44.31573" lon="6.82925">
        <time>2023-04-10T09:23:04+00:00</time>
        <ele>2431.0</ele>
      </trkpt>
      <trkpt lat="44.31573" lon="6.82925">
        <time>2023-04-10T09:23:05+00:00</time>
        <ele>2431.0</ele>
      </trkpt>
      <trkpt lat="44.31573" lon="6.82922">
        <time>2023-04-10T09:23:06+00:00</time>
        <ele>2431.0</ele>
      </trkpt>
      <trkpt lat="44.31573" lon="6.82922">
        <time>2023-04-10T09:23:07+00:00</time>
        <ele>2431.0</ele>
      </trkpt>
      <trkpt lat="44.31573" lon="6.82919">
        <time>2023-04-10T09:23:08+00:00</time>
        <ele>2431.0</ele>
      </trkpt>
      <trkpt lat="44.31573" lon="6.82919">
        <time>2023-04-10T09:23:09+00:00</time>
        <ele>2431.0</ele>
      </trkpt>
      <trkpt lat="44.31573" lon="6.82919">
        <time>2023-04-10T09:23:10+00:00</time>
        <ele>2431.0</ele>
      </trkpt>
      <trkpt lat="44.31572" lon="6.82916">
        <time>2023-04-10T09:23:11+00:00</time>
        <ele>2432.0</ele>
      </trkpt>
      <trkpt lat="44.31572" lon="6.82916">
        <time>2023-04-10T09:23:12+00:00</time>
        <ele>2432.0</ele>
      </trkpt>
      <trkpt lat="44.31572" lon="6.82916">
        <time>2023-04-10T09:23:13+00:00</time>
        <ele>2432.0</ele>
      </trkpt>
      <trkpt lat="44.31572" lon="6.82913">
        <time>2023-04-10T09:23:14+00:00</time>
        <ele>2433.0</ele>
      </trkpt>
      <trkpt lat="44.31572" lon="6.82913">
        <time>2023-04-10T09:23:15+00:00</time>
        <ele>2433.0</ele>
      </trkpt>
      <trkpt lat="44.31572" lon="6.82913">
        <time>2023-04-10T09:23:16+00:00</time>
        <ele>2433.0</ele>
      </trkpt>
      <trkpt lat="44.31572" lon="6.82913">
        <time>2023-04-10T09:23:17+00:00</time>
        <ele>2433.0</ele>
      </trkpt>
      <trkpt lat="44.31571" lon="6.8291">
        <time>2023-04-10T09:23:18+00:00</time>
        <ele>2434.0</ele>
      </trkpt>
      <trkpt lat="44.31571" lon="6.8291">
        <time>2023-04-10T09:23:19+00:00</time>
        <ele>2434.0</ele>
      </trkpt>
      <trkpt lat="44.31571" lon="6.8291">
        <time>2023-04-10T09:23:20+00:00</time>
        <ele>2434.0</ele>
      </trkpt>
      <trkpt lat="44.31571" lon="6.8291">
        <time>2023-04-10T09:23:21+00:00</time>
        <ele>2434.0</ele>
      </trkpt>
      <trkpt lat="44.31571" lon="6.8291">
        <time>2023-04-10T09:23:22+00:00</time>
        <ele>2434.0</ele>
      </trkpt>
      <trkpt lat="44.31571" lon="6.8291">
        <time>2023-04-10T09:23:23+00:00</time>
        <ele>2434.0</ele>
      </trkpt>
      <trkpt lat="44.31571" lon="6.8291">
        <time>2023-04-10T09:23:24+00:00</time>
        <ele>2434.0</ele>
      </trkpt>
      <trkpt lat="44.31569" lon="6.82912">
        <time>2023-04-10T09:23:25+00:00</time>
        <ele>2435.0</ele>
      </trkpt>
      <trkpt lat="44.31569" lon="6.82912">
        <time>2023-04-10T09:23:26+00:00</time>
        <ele>2435.0</ele>
      </trkpt>
      <trkpt lat="44.31569" lon="6.82912">
        <time>2023-04-10T09:23:27+00:00</time>
        <ele>2435.0</ele>
      </trkpt>
      <trkpt lat="44.31569" lon="6.82912">
        <time>2023-04-10T09:23:28+00:00</time>
        <ele>2435.0</ele>
      </trkpt>
      <trkpt lat="44.31567" lon="6.82913">
        <time>2023-04-10T09:23:29+00:00</time>
        <ele>2435.0</ele>
      </trkpt>
      <trkpt lat="44.31567" lon="6.82913">
        <time>2023-04-10T09:23:30+00:00</time>
        <ele>2435.0</ele>
      </trkpt>
      <trkpt lat="44.31567" lon="6.82913">
        <time>2023-04-10T09:23:31+00:00</time>
        <ele>2435.0</ele>
      </trkpt>
      <trkpt lat="44.31565" lon="6.82915">
        <time>2023-04-10T09:23:32+00:00</time>
        <ele>2436.0</ele>
      </trkpt>
      <trkpt lat="44.31565" lon="6.82915">
        <time>2023-04-10T09:23:33+00:00</time>
        <ele>2436.0</ele>
      </trkpt>
      <trkpt lat="44.31565" lon="6.82915">
        <time>2023-04-10T09:23:34+00:00</time>
        <ele>2436.0</ele>
      </trkpt>
      <trkpt lat="44.31565" lon="6.82915">
        <time>2023-04-10T09:23:35+00:00</time>
        <ele>2436.0</ele>
      </trkpt>
      <trkpt lat="44.31565" lon="6.82915">
        <time>2023-04-10T09:23:36+00:00</time>
        <ele>2436.0</ele>
      </trkpt>
      <trkpt lat="44.31563" lon="6.82914">
        <time>2023-04-10T09:23:37+00:00</time>
        <ele>2438.0</ele>
      </trkpt>
      <trkpt lat="44.31563" lon="6.82914">
        <time>2023-04-10T09:23:38+00:00</time>
        <ele>2438.0</ele>
      </trkpt>
      <trkpt lat="44.31563" lon="6.82914">
        <time>2023-04-10T09:23:39+00:00</time>
        <ele>2438.0</ele>
      </trkpt>
      <trkpt lat="44.31563" lon="6.82914">
        <time>2023-04-10T09:23:40+00:00</time>
        <ele>2438.0</ele>
      </trkpt>
      <trkpt lat="44.31563" lon="6.82911">
        <time>2023-04-10T09:23:41+00:00</time>
        <ele>2438.0</ele>
      </trkpt>
      <trkpt lat="44.31563" lon="6.82911">
        <time>2023-04-10T09:23:42+00:00</time>
        <ele>2438.0</ele>
      </trkpt>
      <trkpt lat="44.31563" lon="6.82911">
        <time>2023-04-10T09:23:43+00:00</time>
        <ele>2438.0</ele>
      </trkpt>
      <trkpt lat="44.31563" lon="6.82911">
        <time>2023-04-10T09:23:44+00:00</time>
        <ele>2438.0</ele>
      </trkpt>
      <trkpt lat="44.31563" lon="6.82908">
        <time>2023-04-10T09:23:45+00:00</time>
        <ele>2439.0</ele>
      </trkpt>
      <trkpt lat="44.31563" lon="6.82908">
        <time>2023-04-10T09:23:46+00:00</time>
        <ele>2439.0</ele>
      </trkpt>
      <trkpt lat="44.31563" lon="6.82908">
        <time>2023-04-10T09:23:47+00:00</time>
        <ele>2439.0</ele>
      </trkpt>
      <trkpt lat="44.31563" lon="6.82905">
        <time>2023-04-10T09:23:48+00:00</time>
        <ele>2439.0</ele>
      </trkpt>
      <trkpt lat="44.31563" lon="6.82905">
        <time>2023-04-10T09:23:49+00:00</time>
        <ele>2439.0</ele>
      </trkpt>
      <trkpt lat="44.31563" lon="6.82905">
        <time>2023-04-10T09:23:50+00:00</time>
        <ele>2439.0</ele>
      </trkpt>
      <trkpt lat="44.31563" lon="6.82905">
        <time>2023-04-10T09:23:51+00:00</time>
        <ele>2439.0</ele>
      </trkpt>
      <trkpt lat="44.31563" lon="6.82905">
        <time>2023-04-10T09:23:52+00:00</time>
        <ele>2439.0</ele>
      </trkpt>
      <trkpt lat="44.31563" lon="6.82905">
        <time>2023-04-10T09:23:53+00:00</time>
        <ele>2439.0</ele>
      </trkpt>
      <trkpt lat="44.31563" lon="6.82905">
        <time>2023-04-10T09:23:54+00:00</time>
        <ele>2439.0</ele>
      </trkpt>
      <trkpt lat="44.31563" lon="6.82905">
        <time>2023-04-10T09:23:55+00:00</time>
        <ele>2439.0</ele>
      </trkpt>
      <trkpt lat="44.31563" lon="6.82905">
        <time>2023-04-10T09:23:56+00:00</time>
        <ele>2439.0</ele>
      </trkpt>
      <trkpt lat="44.31561" lon="6.82906">
        <time>2023-04-10T09:23:57+00:00</time>
        <ele>2441.0</ele>
      </trkpt>
      <trkpt lat="44.31561" lon="6.82906">
        <time>2023-04-10T09:23:58+00:00</time>
        <ele>2441.0</ele>
      </trkpt>
      <trkpt lat="44.31559" lon="6.82907">
        <time>2023-04-10T09:23:59+00:00</time>
        <ele>2442.0</ele>
      </trkpt>
      <trkpt lat="44.31559" lon="6.82907">
        <time>2023-04-10T09:24:00+00:00</time>
        <ele>2442.0</ele>
      </trkpt>
      <trkpt lat="44.31559" lon="6.82907">
        <time>2023-04-10T09:24:01+00:00</time>
        <ele>2442.0</ele>
      </trkpt>
      <trkpt lat="44.31559" lon="6.82907">
        <time>2023-04-10T09:24:02+00:00</time>
        <ele>2442.0</ele>
      </trkpt>
      <trkpt lat="44.31558" lon="6.82909">
        <time>2023-04-10T09:24:03+00:00</time>
        <ele>2442.0</ele>
      </trkpt>
      <trkpt lat="44.31558" lon="6.82909">
        <time>2023-04-10T09:24:04+00:00</time>
        <ele>2442.0</ele>
      </trkpt>
      <trkpt lat="44.31558" lon="6.82909">
        <time>2023-04-10T09:24:05+00:00</time>
        <ele>2442.0</ele>
      </trkpt>
      <trkpt lat="44.31558" lon="6.82909">
        <time>2023-04-10T09:24:06+00:00</time>
        <ele>2442.0</ele>
      </trkpt>
      <trkpt lat="44.31558" lon="6.82909">
        <time>2023-04-10T09:24:07+00:00</time>
        <ele>2442.0</ele>
      </trkpt>
      <trkpt lat="44.31558" lon="6.82909">
        <time>2023-04-10T09:24:08+00:00</time>
        <ele>2442.0</ele>
      </trkpt>
      <trkpt lat="44.31558" lon="6.82906">
        <time>2023-04-10T09:24:09+00:00</time>
        <ele>2443.0</ele>
      </trkpt>
      <trkpt lat="44.31558" lon="6.82906">
        <time>2023-04-10T09:24:10+00:00</time>
        <ele>2443.0</ele>
      </trkpt>
      <trkpt lat="44.31558" lon="6.82906">
        <time>2023-04-10T09:24:11+00:00</time>
        <ele>2443.0</ele>
      </trkpt>
      <trkpt lat="44.31558" lon="6.82903">
        <time>2023-04-10T09:24:12+00:00</time>
        <ele>2443.0</ele>
      </trkpt>
      <trkpt lat="44.31558" lon="6.82903">
        <time>2023-04-10T09:24:13+00:00</time>
        <ele>2443.0</ele>
      </trkpt>
      <trkpt lat="44.31558" lon="6.82903">
        <time>2023-04-10T09:24:14+00:00</time>
        <ele>2443.0</ele>
      </trkpt>
      <trkpt lat="44.31558" lon="6.82903">
        <time>2023-04-10T09:24:15+00:00</time>
        <ele>2443.0</ele>
      </trkpt>
      <trkpt lat="44.31558" lon="6.829">
        <time>2023-04-10T09:24:16+00:00</time>
        <ele>2444.0</ele>
      </trkpt>
      <trkpt lat="44.31558" lon="6.829">
        <time>2023-04-10T09:24:17+00:00</time>
        <ele>2444.0</ele>
      </trkpt>
      <trkpt lat="44.31558" lon="6.829">
        <time>2023-04-10T09:24:18+00:00</time>
        <ele>2444.0</ele>
      </trkpt>
      <trkpt lat="44.31559" lon="6.82897">
        <time>2023-04-10T09:24:19+00:00</time>
        <ele>2444.0</ele>
      </trkpt>
      <trkpt lat="44.31559" lon="6.82897">
        <time>2023-04-10T09:24:20+00:00</time>
        <ele>2444.0</ele>
      </trkpt>
      <trkpt lat="44.31559" lon="6.82897">
        <time>2023-04-10T09:24:21+00:00</time>
        <ele>2444.0</ele>
      </trkpt>
      <trkpt lat="44.31559" lon="6.82897">
        <time>2023-04-10T09:24:22+00:00</time>
        <ele>2444.0</ele>
      </trkpt>
      <trkpt lat="44.31559" lon="6.82894">
        <time>2023-04-10T09:24:23+00:00</time>
        <ele>2444.0</ele>
      </trkpt>
      <trkpt lat="44.31559" lon="6.82894">
        <time>2023-04-10T09:24:24+00:00</time>
        <ele>2444.0</ele>
      </trkpt>
      <trkpt lat="44.31559" lon="6.82894">
        <time>2023-04-10T09:24:25+00:00</time>
        <ele>2444.0</ele>
      </trkpt>
      <trkpt lat="44.31559" lon="6.82894">
        <time>2023-04-10T09:24:26+00:00</time>
        <ele>2444.0</ele>
      </trkpt>
      <trkpt lat="44.31559" lon="6.82894">
        <time>2023-04-10T09:24:27+00:00</time>
        <ele>2444.0</ele>
      </trkpt>
      <trkpt lat="44.3156" lon="6.82891">
        <time>2023-04-10T09:24:28+00:00</time>
        <ele>2444.0</ele>
      </trkpt>
      <trkpt lat="44.3156" lon="6.82891">
        <time>2023-04-10T09:24:29+00:00</time>
        <ele>2444.0</ele>
      </trkpt>
      <trkpt lat="44.3156" lon="6.82891">
        <time>2023-04-10T09:24:30+00:00</time>
        <ele>2444.0</ele>
      </trkpt>
      <trkpt lat="44.3156" lon="6.82891">
        <time>2023-04-10T09:24:31+00:00</time>
        <ele>2444.0</ele>
      </trkpt>
      <trkpt lat="44.3156" lon="6.82891">
        <time>2023-04-10T09:24:32+00:00</time>
        <ele>2444.0</ele>
      </trkpt>
      <trkpt lat="44.3156" lon="6.82891">
        <time>2023-04-10T09:24:33+00:00</time>
        <ele>2444.0</ele>
      </trkpt>
      <trkpt lat="44.3156" lon="6.82891">
        <time>2023-04-10T09:24:34+00:00</time>
        <ele>2444.0</ele>
      </trkpt>
      <trkpt lat="44.3156" lon="6.82891">
        <time>2023-04-10T09:24:35+00:00</time>
        <ele>2444.0</ele>
      </trkpt>
      <trkpt lat="44.3156" lon="6.82891">
        <time>2023-04-10T09:24:36+00:00</time>
        <ele>2444.0</ele>
      </trkpt>
      <trkpt lat="44.3156" lon="6.82891">
        <time>2023-04-10T09:24:37+00:00</time>
        <ele>2444.0</ele>
      </trkpt>
      <trkpt lat="44.3156" lon="6.82891">
        <time>2023-04-10T09:24:38+00:00</time>
        <ele>2444.0</ele>
      </trkpt>
      <trkpt lat="44.3156" lon="6.82891">
        <time>2023-04-10T09:24:39+00:00</time>
        <ele>2444.0</ele>
      </trkpt>
      <trkpt lat="44.3156" lon="6.82891">
        <time>2023-04-10T09:24:40+00:00</time>
        <ele>2444.0</ele>
      </trkpt>
      <trkpt lat="44.3156" lon="6.82889">
        <time>2023-04-10T09:24:41+00:00</time>
        <ele>2444.0</ele>
      </trkpt>
      <trkpt lat="44.3156" lon="6.82889">
        <time>2023-04-10T09:24:42+00:00</time>
        <ele>2444.0</ele>
      </trkpt>
      <trkpt lat="44.3156" lon="6.82889">
        <time>2023-04-10T09:24:43+00:00</time>
        <ele>2444.0</ele>
      </trkpt>
      <trkpt lat="44.3156" lon="6.82889">
        <time>2023-04-10T09:24:44+00:00</time>
        <ele>2444.0</ele>
      </trkpt>
      <trkpt lat="44.31561" lon="6.82886">
        <time>2023-04-10T09:24:45+00:00</time>
        <ele>2444.0</ele>
      </trkpt>
      <trkpt lat="44.31561" lon="6.82886">
        <time>2023-04-10T09:24:46+00:00</time>
        <ele>2444.0</ele>
      </trkpt>
      <trkpt lat="44.31561" lon="6.82886">
        <time>2023-04-10T09:24:47+00:00</time>
        <ele>2444.0</ele>
      </trkpt>
      <trkpt lat="44.31561" lon="6.82886">
        <time>2023-04-10T09:24:48+00:00</time>
        <ele>2444.0</ele>
      </trkpt>
      <trkpt lat="44.31561" lon="6.82886">
        <time>2023-04-10T09:24:49+00:00</time>
        <ele>2444.0</ele>
      </trkpt>
      <trkpt lat="44.31561" lon="6.82883">
        <time>2023-04-10T09:24:50+00:00</time>
        <ele>2445.0</ele>
      </trkpt>
      <trkpt lat="44.31561" lon="6.82883">
        <time>2023-04-10T09:24:51+00:00</time>
        <ele>2445.0</ele>
      </trkpt>
      <trkpt lat="44.31561" lon="6.82883">
        <time>2023-04-10T09:24:52+00:00</time>
        <ele>2445.0</ele>
      </trkpt>
      <trkpt lat="44.31561" lon="6.82883">
        <time>2023-04-10T09:24:53+00:00</time>
        <ele>2445.0</ele>
      </trkpt>
      <trkpt lat="44.31561" lon="6.82883">
        <time>2023-04-10T09:24:54+00:00</time>
        <ele>2445.0</ele>
      </trkpt>
      <trkpt lat="44.31561" lon="6.82883">
        <time>2023-04-10T09:24:55+00:00</time>
        <ele>2445.0</ele>
      </trkpt>
      <trkpt lat="44.31561" lon="6.82883">
        <time>2023-04-10T09:24:56+00:00</time>
        <ele>2445.0</ele>
      </trkpt>
      <trkpt lat="44.31561" lon="6.82883">
        <time>2023-04-10T09:24:57+00:00</time>
        <ele>2445.0</ele>
      </trkpt>
      <trkpt lat="44.31561" lon="6.82883">
        <time>2023-04-10T09:24:58+00:00</time>
        <ele>2445.0</ele>
      </trkpt>
      <trkpt lat="44.31559" lon="6.82884">
        <time>2023-04-10T09:24:59+00:00</time>
        <ele>2446.0</ele>
      </trkpt>
      <trkpt lat="44.31559" lon="6.82884">
        <time>2023-04-10T09:25:00+00:00</time>
        <ele>2446.0</ele>
      </trkpt>
      <trkpt lat="44.31559" lon="6.82884">
        <time>2023-04-10T09:25:01+00:00</time>
        <ele>2446.0</ele>
      </trkpt>
      <trkpt lat="44.31559" lon="6.82884">
        <time>2023-04-10T09:25:02+00:00</time>
        <ele>2446.0</ele>
      </trkpt>
      <trkpt lat="44.31558" lon="6.82885">
        <time>2023-04-10T09:25:03+00:00</time>
        <ele>2446.0</ele>
      </trkpt>
      <trkpt lat="44.31558" lon="6.82885">
        <time>2023-04-10T09:25:04+00:00</time>
        <ele>2446.0</ele>
      </trkpt>
      <trkpt lat="44.31558" lon="6.82885">
        <time>2023-04-10T09:25:05+00:00</time>
        <ele>2446.0</ele>
      </trkpt>
      <trkpt lat="44.31558" lon="6.82885">
        <time>2023-04-10T09:25:06+00:00</time>
        <ele>2446.0</ele>
      </trkpt>
      <trkpt lat="44.31558" lon="6.82885">
        <time>2023-04-10T09:25:07+00:00</time>
        <ele>2446.0</ele>
      </trkpt>
      <trkpt lat="44.31558" lon="6.82885">
        <time>2023-04-10T09:25:08+00:00</time>
        <ele>2446.0</ele>
      </trkpt>
      <trkpt lat="44.31558" lon="6.82885">
        <time>2023-04-10T09:25:09+00:00</time>
        <ele>2446.0</ele>
      </trkpt>
      <trkpt lat="44.31556" lon="6.82887">
        <time>2023-04-10T09:25:10+00:00</time>
        <ele>2447.0</ele>
      </trkpt>
      <trkpt lat="44.31556" lon="6.82887">
        <time>2023-04-10T09:25:11+00:00</time>
        <ele>2447.0</ele>
      </trkpt>
      <trkpt lat="44.31556" lon="6.82887">
        <time>2023-04-10T09:25:12+00:00</time>
        <ele>2447.0</ele>
      </trkpt>
      <trkpt lat="44.31556" lon="6.82887">
        <time>2023-04-10T09:25:13+00:00</time>
        <ele>2447.0</ele>
      </trkpt>
      <trkpt lat="44.31556" lon="6.82887">
        <time>2023-04-10T09:25:14+00:00</time>
        <ele>2447.0</ele>
      </trkpt>
      <trkpt lat="44.31556" lon="6.82887">
        <time>2023-04-10T09:25:15+00:00</time>
        <ele>2447.0</ele>
      </trkpt>
      <trkpt lat="44.31556" lon="6.82887">
        <time>2023-04-10T09:25:16+00:00</time>
        <ele>2447.0</ele>
      </trkpt>
      <trkpt lat="44.31556" lon="6.82887">
        <time>2023-04-10T09:25:17+00:00</time>
        <ele>2447.0</ele>
      </trkpt>
      <trkpt lat="44.31554" lon="6.82888">
        <time>2023-04-10T09:25:18+00:00</time>
        <ele>2449.0</ele>
      </trkpt>
      <trkpt lat="44.31554" lon="6.82888">
        <time>2023-04-10T09:25:19+00:00</time>
        <ele>2449.0</ele>
      </trkpt>
      <trkpt lat="44.31554" lon="6.82888">
        <time>2023-04-10T09:25:20+00:00</time>
        <ele>2449.0</ele>
      </trkpt>
      <trkpt lat="44.31554" lon="6.82888">
        <time>2023-04-10T09:25:21+00:00</time>
        <ele>2449.0</ele>
      </trkpt>
      <trkpt lat="44.31554" lon="6.82888">
        <time>2023-04-10T09:25:22+00:00</time>
        <ele>2449.0</ele>
      </trkpt>
      <trkpt lat="44.31554" lon="6.82888">
        <time>2023-04-10T09:25:23+00:00</time>
        <ele>2449.0</ele>
      </trkpt>
      <trkpt lat="44.31552" lon="6.8289">
        <time>2023-04-10T09:25:24+00:00</time>
        <ele>2450.0</ele>
      </trkpt>
      <trkpt lat="44.31552" lon="6.8289">
        <time>2023-04-10T09:25:25+00:00</time>
        <ele>2450.0</ele>
      </trkpt>
      <trkpt lat="44.31552" lon="6.8289">
        <time>2023-04-10T09:25:26+00:00</time>
        <ele>2450.0</ele>
      </trkpt>
      <trkpt lat="44.31552" lon="6.8289">
        <time>2023-04-10T09:25:27+00:00</time>
        <ele>2450.0</ele>
      </trkpt>
      <trkpt lat="44.31552" lon="6.8289">
        <time>2023-04-10T09:25:28+00:00</time>
        <ele>2450.0</ele>
      </trkpt>
      <trkpt lat="44.3155" lon="6.82892">
        <time>2023-04-10T09:25:29+00:00</time>
        <ele>2451.0</ele>
      </trkpt>
      <trkpt lat="44.3155" lon="6.82892">
        <time>2023-04-10T09:25:30+00:00</time>
        <ele>2451.0</ele>
      </trkpt>
      <trkpt lat="44.3155" lon="6.82892">
        <time>2023-04-10T09:25:31+00:00</time>
        <ele>2451.0</ele>
      </trkpt>
      <trkpt lat="44.3155" lon="6.82892">
        <time>2023-04-10T09:25:32+00:00</time>
        <ele>2451.0</ele>
      </trkpt>
      <trkpt lat="44.3155" lon="6.82892">
        <time>2023-04-10T09:25:33+00:00</time>
        <ele>2451.0</ele>
      </trkpt>
      <trkpt lat="44.31548" lon="6.82894">
        <time>2023-04-10T09:25:34+00:00</time>
        <ele>2452.0</ele>
      </trkpt>
      <trkpt lat="44.31548" lon="6.82894">
        <time>2023-04-10T09:25:35+00:00</time>
        <ele>2452.0</ele>
      </trkpt>
      <trkpt lat="44.31548" lon="6.82894">
        <time>2023-04-10T09:25:36+00:00</time>
        <ele>2452.0</ele>
      </trkpt>
      <trkpt lat="44.31548" lon="6.82894">
        <time>2023-04-10T09:25:37+00:00</time>
        <ele>2452.0</ele>
      </trkpt>
      <trkpt lat="44.31547" lon="6.82896">
        <time>2023-04-10T09:25:38+00:00</time>
        <ele>2452.0</ele>
      </trkpt>
      <trkpt lat="44.31547" lon="6.82896">
        <time>2023-04-10T09:25:39+00:00</time>
        <ele>2452.0</ele>
      </trkpt>
      <trkpt lat="44.31547" lon="6.82896">
        <time>2023-04-10T09:25:40+00:00</time>
        <ele>2452.0</ele>
      </trkpt>
      <trkpt lat="44.31547" lon="6.82896">
        <time>2023-04-10T09:25:41+00:00</time>
        <ele>2452.0</ele>
      </trkpt>
      <trkpt lat="44.31547" lon="6.82896">
        <time>2023-04-10T09:25:42+00:00</time>
        <ele>2452.0</ele>
      </trkpt>
      <trkpt lat="44.31547" lon="6.82896">
        <time>2023-04-10T09:25:43+00:00</time>
        <ele>2452.0</ele>
      </trkpt>
      <trkpt lat="44.31545" lon="6.82895">
        <time>2023-04-10T09:25:44+00:00</time>
        <ele>2454.0</ele>
      </trkpt>
      <trkpt lat="44.31545" lon="6.82895">
        <time>2023-04-10T09:25:45+00:00</time>
        <ele>2454.0</ele>
      </trkpt>
      <trkpt lat="44.31545" lon="6.82895">
        <time>2023-04-10T09:25:46+00:00</time>
        <ele>2454.0</ele>
      </trkpt>
      <trkpt lat="44.31545" lon="6.82895">
        <time>2023-04-10T09:25:47+00:00</time>
        <ele>2454.0</ele>
      </trkpt>
      <trkpt lat="44.31545" lon="6.82895">
        <time>2023-04-10T09:25:48+00:00</time>
        <ele>2454.0</ele>
      </trkpt>
      <trkpt lat="44.31545" lon="6.82895">
        <time>2023-04-10T09:25:49+00:00</time>
        <ele>2454.0</ele>
      </trkpt>
      <trkpt lat="44.31545" lon="6.82895">
        <time>2023-04-10T09:25:50+00:00</time>
        <ele>2454.0</ele>
      </trkpt>
      <trkpt lat="44.31545" lon="6.82895">
        <time>2023-04-10T09:25:51+00:00</time>
        <ele>2454.0</ele>
      </trkpt>
      <trkpt lat="44.31545" lon="6.82895">
        <time>2023-04-10T09:25:52+00:00</time>
        <ele>2454.0</ele>
      </trkpt>
      <trkpt lat="44.31545" lon="6.82895">
        <time>2023-04-10T09:25:53+00:00</time>
        <ele>2454.0</ele>
      </trkpt>
      <trkpt lat="44.31545" lon="6.82895">
        <time>2023-04-10T09:25:54+00:00</time>
        <ele>2454.0</ele>
      </trkpt>
      <trkpt lat="44.31545" lon="6.82895">
        <time>2023-04-10T09:25:55+00:00</time>
        <ele>2454.0</ele>
      </trkpt>
      <trkpt lat="44.31545" lon="6.82895">
        <time>2023-04-10T09:25:56+00:00</time>
        <ele>2454.0</ele>
      </trkpt>
      <trkpt lat="44.31545" lon="6.82895">
        <time>2023-04-10T09:25:57+00:00</time>
        <ele>2454.0</ele>
      </trkpt>
      <trkpt lat="44.31545" lon="6.82895">
        <time>2023-04-10T09:25:58+00:00</time>
        <ele>2454.0</ele>
      </trkpt>
      <trkpt lat="44.31545" lon="6.82895">
        <time>2023-04-10T09:25:59+00:00</time>
        <ele>2454.0</ele>
      </trkpt>
      <trkpt lat="44.31545" lon="6.82895">
        <time>2023-04-10T09:26:00+00:00</time>
        <ele>2454.0</ele>
      </trkpt>
      <trkpt lat="44.31545" lon="6.82895">
        <time>2023-04-10T09:26:01+00:00</time>
        <ele>2454.0</ele>
      </trkpt>
      <trkpt lat="44.31545" lon="6.82895">
        <time>2023-04-10T09:26:02+00:00</time>
        <ele>2454.0</ele>
      </trkpt>
      <trkpt lat="44.31545" lon="6.82895">
        <time>2023-04-10T09:26:03+00:00</time>
        <ele>2454.0</ele>
      </trkpt>
      <trkpt lat="44.31545" lon="6.82895">
        <time>2023-04-10T09:26:04+00:00</time>
        <ele>2454.0</ele>
      </trkpt>
      <trkpt lat="44.31545" lon="6.82895">
        <time>2023-04-10T09:26:05+00:00</time>
        <ele>2454.0</ele>
      </trkpt>
      <trkpt lat="44.31545" lon="6.82895">
        <time>2023-04-10T09:26:06+00:00</time>
        <ele>2454.0</ele>
      </trkpt>
      <trkpt lat="44.31545" lon="6.82895">
        <time>2023-04-10T09:26:07+00:00</time>
        <ele>2454.0</ele>
      </trkpt>
      <trkpt lat="44.31545" lon="6.82895">
        <time>2023-04-10T09:26:08+00:00</time>
        <ele>2454.0</ele>
      </trkpt>
      <trkpt lat="44.31545" lon="6.82895">
        <time>2023-04-10T09:26:09+00:00</time>
        <ele>2454.0</ele>
      </trkpt>
      <trkpt lat="44.31545" lon="6.82895">
        <time>2023-04-10T09:26:10+00:00</time>
        <ele>2454.0</ele>
      </trkpt>
      <trkpt lat="44.31545" lon="6.82895">
        <time>2023-04-10T09:26:11+00:00</time>
        <ele>2454.0</ele>
      </trkpt>
      <trkpt lat="44.31545" lon="6.82895">
        <time>2023-04-10T09:26:12+00:00</time>
        <ele>2454.0</ele>
      </trkpt>
      <trkpt lat="44.31545" lon="6.82895">
        <time>2023-04-10T09:26:13+00:00</time>
        <ele>2454.0</ele>
      </trkpt>
      <trkpt lat="44.31546" lon="6.82891">
        <time>2023-04-10T09:26:14+00:00</time>
        <ele>2454.0</ele>
      </trkpt>
      <trkpt lat="44.31546" lon="6.82891">
        <time>2023-04-10T09:26:15+00:00</time>
        <ele>2454.0</ele>
      </trkpt>
      <trkpt lat="44.31547" lon="6.82887">
        <time>2023-04-10T09:26:16+00:00</time>
        <ele>2454.0</ele>
      </trkpt>
      <trkpt lat="44.31547" lon="6.82887">
        <time>2023-04-10T09:26:17+00:00</time>
        <ele>2454.0</ele>
      </trkpt>
      <trkpt lat="44.31548" lon="6.82884">
        <time>2023-04-10T09:26:18+00:00</time>
        <ele>2453.0</ele>
      </trkpt>
      <trkpt lat="44.31548" lon="6.82884">
        <time>2023-04-10T09:26:19+00:00</time>
        <ele>2453.0</ele>
      </trkpt>
      <trkpt lat="44.31548" lon="6.82881">
        <time>2023-04-10T09:26:20+00:00</time>
        <ele>2454.0</ele>
      </trkpt>
      <trkpt lat="44.31548" lon="6.82881">
        <time>2023-04-10T09:26:21+00:00</time>
        <ele>2454.0</ele>
      </trkpt>
      <trkpt lat="44.3155" lon="6.82877">
        <time>2023-04-10T09:26:22+00:00</time>
        <ele>2453.0</ele>
      </trkpt>
      <trkpt lat="44.3155" lon="6.82877">
        <time>2023-04-10T09:26:23+00:00</time>
        <ele>2453.0</ele>
      </trkpt>
      <trkpt lat="44.3155" lon="6.82877">
        <time>2023-04-10T09:26:24+00:00</time>
        <ele>2453.0</ele>
      </trkpt>
      <trkpt lat="44.3155" lon="6.82877">
        <time>2023-04-10T09:26:25+00:00</time>
        <ele>2453.0</ele>
      </trkpt>
      <trkpt lat="44.3155" lon="6.82877">
        <time>2023-04-10T09:26:26+00:00</time>
        <ele>2453.0</ele>
      </trkpt>
      <trkpt lat="44.3155" lon="6.82874">
        <time>2023-04-10T09:26:27+00:00</time>
        <ele>2454.0</ele>
      </trkpt>
      <trkpt lat="44.3155" lon="6.82874">
        <time>2023-04-10T09:26:28+00:00</time>
        <ele>2454.0</ele>
      </trkpt>
      <trkpt lat="44.3155" lon="6.82874">
        <time>2023-04-10T09:26:29+00:00</time>
        <ele>2454.0</ele>
      </trkpt>
      <trkpt lat="44.3155" lon="6.82874">
        <time>2023-04-10T09:26:30+00:00</time>
        <ele>2454.0</ele>
      </trkpt>
      <trkpt lat="44.3155" lon="6.82874">
        <time>2023-04-10T09:26:31+00:00</time>
        <ele>2454.0</ele>
      </trkpt>
      <trkpt lat="44.3155" lon="6.82874">
        <time>2023-04-10T09:26:32+00:00</time>
        <ele>2454.0</ele>
      </trkpt>
      <trkpt lat="44.3155" lon="6.82874">
        <time>2023-04-10T09:26:33+00:00</time>
        <ele>2454.0</ele>
      </trkpt>
      <trkpt lat="44.3155" lon="6.82874">
        <time>2023-04-10T09:26:34+00:00</time>
        <ele>2454.0</ele>
      </trkpt>
      <trkpt lat="44.3155" lon="6.82874">
        <time>2023-04-10T09:26:35+00:00</time>
        <ele>2454.0</ele>
      </trkpt>
      <trkpt lat="44.3155" lon="6.82874">
        <time>2023-04-10T09:26:36+00:00</time>
        <ele>2454.0</ele>
      </trkpt>
      <trkpt lat="44.3155" lon="6.82874">
        <time>2023-04-10T09:26:37+00:00</time>
        <ele>2454.0</ele>
      </trkpt>
      <trkpt lat="44.3155" lon="6.82874">
        <time>2023-04-10T09:26:38+00:00</time>
        <ele>2454.0</ele>
      </trkpt>
      <trkpt lat="44.3155" lon="6.82874">
        <time>2023-04-10T09:26:39+00:00</time>
        <ele>2454.0</ele>
      </trkpt>
      <trkpt lat="44.3155" lon="6.82874">
        <time>2023-04-10T09:26:40+00:00</time>
        <ele>2454.0</ele>
      </trkpt>
      <trkpt lat="44.3155" lon="6.82874">
        <time>2023-04-10T09:26:41+00:00</time>
        <ele>2454.0</ele>
      </trkpt>
      <trkpt lat="44.3155" lon="6.82874">
        <time>2023-04-10T09:26:42+00:00</time>
        <ele>2454.0</ele>
      </trkpt>
      <trkpt lat="44.3155" lon="6.82874">
        <time>2023-04-10T09:26:43+00:00</time>
        <ele>2454.0</ele>
      </trkpt>
      <trkpt lat="44.3155" lon="6.82874">
        <time>2023-04-10T09:26:44+00:00</time>
        <ele>2454.0</ele>
      </trkpt>
      <trkpt lat="44.3155" lon="6.82874">
        <time>2023-04-10T09:26:45+00:00</time>
        <ele>2454.0</ele>
      </trkpt>
      <trkpt lat="44.3155" lon="6.82874">
        <time>2023-04-10T09:26:46+00:00</time>
        <ele>2454.0</ele>
      </trkpt>
      <trkpt lat="44.3155" lon="6.82874">
        <time>2023-04-10T09:26:47+00:00</time>
        <ele>2454.0</ele>
      </trkpt>
      <trkpt lat="44.3155" lon="6.82874">
        <time>2023-04-10T09:26:48+00:00</time>
        <ele>2454.0</ele>
      </trkpt>
      <trkpt lat="44.3155" lon="6.82873">
        <time>2023-04-10T09:26:49+00:00</time>
        <ele>2454.0</ele>
      </trkpt>
      <trkpt lat="44.3155" lon="6.82873">
        <time>2023-04-10T09:26:50+00:00</time>
        <ele>2454.0</ele>
      </trkpt>
      <trkpt lat="44.3155" lon="6.82873">
        <time>2023-04-10T09:26:51+00:00</time>
        <ele>2454.0</ele>
      </trkpt>
      <trkpt lat="44.3155" lon="6.82873">
        <time>2023-04-10T09:26:52+00:00</time>
        <ele>2454.0</ele>
      </trkpt>
      <trkpt lat="44.3155" lon="6.82873">
        <time>2023-04-10T09:26:53+00:00</time>
        <ele>2454.0</ele>
      </trkpt>
      <trkpt lat="44.3155" lon="6.82873">
        <time>2023-04-10T09:26:54+00:00</time>
        <ele>2454.0</ele>
      </trkpt>
      <trkpt lat="44.3155" lon="6.82873">
        <time>2023-04-10T09:26:55+00:00</time>
        <ele>2454.0</ele>
      </trkpt>
      <trkpt lat="44.3155" lon="6.82873">
        <time>2023-04-10T09:26:56+00:00</time>
        <ele>2454.0</ele>
      </trkpt>
      <trkpt lat="44.31551" lon="6.82873">
        <time>2023-04-10T09:26:57+00:00</time>
        <ele>2453.0</ele>
      </trkpt>
      <trkpt lat="44.31551" lon="6.82873">
        <time>2023-04-10T09:26:58+00:00</time>
        <ele>2453.0</ele>
      </trkpt>
      <trkpt lat="44.31551" lon="6.82873">
        <time>2023-04-10T09:26:59+00:00</time>
        <ele>2453.0</ele>
      </trkpt>
      <trkpt lat="44.31551" lon="6.82873">
        <time>2023-04-10T09:27:00+00:00</time>
        <ele>2453.0</ele>
      </trkpt>
      <trkpt lat="44.31551" lon="6.82873">
        <time>2023-04-10T09:27:01+00:00</time>
        <ele>2453.0</ele>
      </trkpt>
      <trkpt lat="44.31551" lon="6.82873">
        <time>2023-04-10T09:27:02+00:00</time>
        <ele>2453.0</ele>
      </trkpt>
      <trkpt lat="44.31551" lon="6.82873">
        <time>2023-04-10T09:27:03+00:00</time>
        <ele>2453.0</ele>
      </trkpt>
      <trkpt lat="44.31551" lon="6.82873">
        <time>2023-04-10T09:27:04+00:00</time>
        <ele>2453.0</ele>
      </trkpt>
      <trkpt lat="44.31551" lon="6.82873">
        <time>2023-04-10T09:27:05+00:00</time>
        <ele>2453.0</ele>
      </trkpt>
      <trkpt lat="44.31551" lon="6.82873">
        <time>2023-04-10T09:27:06+00:00</time>
        <ele>2453.0</ele>
      </trkpt>
      <trkpt lat="44.31551" lon="6.82873">
        <time>2023-04-10T09:27:07+00:00</time>
        <ele>2453.0</ele>
      </trkpt>
      <trkpt lat="44.31551" lon="6.82873">
        <time>2023-04-10T09:27:08+00:00</time>
        <ele>2453.0</ele>
      </trkpt>
      <trkpt lat="44.31551" lon="6.82873">
        <time>2023-04-10T09:27:09+00:00</time>
        <ele>2453.0</ele>
      </trkpt>
      <trkpt lat="44.31551" lon="6.82873">
        <time>2023-04-10T09:27:10+00:00</time>
        <ele>2453.0</ele>
      </trkpt>
      <trkpt lat="44.31551" lon="6.82873">
        <time>2023-04-10T09:27:11+00:00</time>
        <ele>2453.0</ele>
      </trkpt>
      <trkpt lat="44.31551" lon="6.82873">
        <time>2023-04-10T09:27:12+00:00</time>
        <ele>2453.0</ele>
      </trkpt>
      <trkpt lat="44.31551" lon="6.82873">
        <time>2023-04-10T09:27:13+00:00</time>
        <ele>2453.0</ele>
      </trkpt>
      <trkpt lat="44.31551" lon="6.82873">
        <time>2023-04-10T09:27:14+00:00</time>
        <ele>2453.0</ele>
      </trkpt>
      <trkpt lat="44.31551" lon="6.82873">
        <time>2023-04-10T09:27:15+00:00</time>
        <ele>2453.0</ele>
      </trkpt>
      <trkpt lat="44.31551" lon="6.82873">
        <time>2023-04-10T09:27:16+00:00</time>
        <ele>2453.0</ele>
      </trkpt>
      <trkpt lat="44.31551" lon="6.82873">
        <time>2023-04-10T09:27:17+00:00</time>
        <ele>2453.0</ele>
      </trkpt>
      <trkpt lat="44.31551" lon="6.82873">
        <time>2023-04-10T09:27:18+00:00</time>
        <ele>2453.0</ele>
      </trkpt>
      <trkpt lat="44.31551" lon="6.82873">
        <time>2023-04-10T09:27:19+00:00</time>
        <ele>2453.0</ele>
      </trkpt>
      <trkpt lat="44.31551" lon="6.82873">
        <time>2023-04-10T09:27:20+00:00</time>
        <ele>2453.0</ele>
      </trkpt>
      <trkpt lat="44.31551" lon="6.82872">
        <time>2023-04-10T09:27:21+00:00</time>
        <ele>2454.0</ele>
      </trkpt>
      <trkpt lat="44.31551" lon="6.82872">
        <time>2023-04-10T09:27:22+00:00</time>
        <ele>2454.0</ele>
      </trkpt>
      <trkpt lat="44.31551" lon="6.82872">
        <time>2023-04-10T09:27:23+00:00</time>
        <ele>2454.0</ele>
      </trkpt>
      <trkpt lat="44.31551" lon="6.82872">
        <time>2023-04-10T09:27:24+00:00</time>
        <ele>2454.0</ele>
      </trkpt>
      <trkpt lat="44.31551" lon="6.82872">
        <time>2023-04-10T09:27:25+00:00</time>
        <ele>2454.0</ele>
      </trkpt>
      <trkpt lat="44.31551" lon="6.82872">
        <time>2023-04-10T09:27:26+00:00</time>
        <ele>2454.0</ele>
      </trkpt>
      <trkpt lat="44.31551" lon="6.82872">
        <time>2023-04-10T09:27:27+00:00</time>
        <ele>2454.0</ele>
      </trkpt>
      <trkpt lat="44.31551" lon="6.82872">
        <time>2023-04-10T09:27:28+00:00</time>
        <ele>2454.0</ele>
      </trkpt>
      <trkpt lat="44.31551" lon="6.82872">
        <time>2023-04-10T09:27:29+00:00</time>
        <ele>2454.0</ele>
      </trkpt>
      <trkpt lat="44.31551" lon="6.82872">
        <time>2023-04-10T09:27:30+00:00</time>
        <ele>2454.0</ele>
      </trkpt>
      <trkpt lat="44.31551" lon="6.82872">
        <time>2023-04-10T09:27:31+00:00</time>
        <ele>2454.0</ele>
      </trkpt>
      <trkpt lat="44.31551" lon="6.82872">
        <time>2023-04-10T09:27:32+00:00</time>
        <ele>2454.0</ele>
      </trkpt>
      <trkpt lat="44.31551" lon="6.82872">
        <time>2023-04-10T09:27:33+00:00</time>
        <ele>2454.0</ele>
      </trkpt>
      <trkpt lat="44.31551" lon="6.82872">
        <time>2023-04-10T09:27:34+00:00</time>
        <ele>2454.0</ele>
      </trkpt>
      <trkpt lat="44.31551" lon="6.82872">
        <time>2023-04-10T09:27:35+00:00</time>
        <ele>2454.0</ele>
      </trkpt>
      <trkpt lat="44.31551" lon="6.82872">
        <time>2023-04-10T09:27:36+00:00</time>
        <ele>2454.0</ele>
      </trkpt>
      <trkpt lat="44.31551" lon="6.82872">
        <time>2023-04-10T09:27:37+00:00</time>
        <ele>2454.0</ele>
      </trkpt>
      <trkpt lat="44.31551" lon="6.82872">
        <time>2023-04-10T09:27:38+00:00</time>
        <ele>2454.0</ele>
      </trkpt>
      <trkpt lat="44.31551" lon="6.82872">
        <time>2023-04-10T09:27:39+00:00</time>
        <ele>2454.0</ele>
      </trkpt>
      <trkpt lat="44.31551" lon="6.82872">
        <time>2023-04-10T09:27:40+00:00</time>
        <ele>2454.0</ele>
      </trkpt>
      <trkpt lat="44.31551" lon="6.82872">
        <time>2023-04-10T09:27:41+00:00</time>
        <ele>2454.0</ele>
      </trkpt>
      <trkpt lat="44.31551" lon="6.82872">
        <time>2023-04-10T09:27:42+00:00</time>
        <ele>2454.0</ele>
      </trkpt>
      <trkpt lat="44.31551" lon="6.82872">
        <time>2023-04-10T09:27:43+00:00</time>
        <ele>2454.0</ele>
      </trkpt>
      <trkpt lat="44.31551" lon="6.82872">
        <time>2023-04-10T09:27:44+00:00</time>
        <ele>2454.0</ele>
      </trkpt>
      <trkpt lat="44.31551" lon="6.82872">
        <time>2023-04-10T09:27:45+00:00</time>
        <ele>2454.0</ele>
      </trkpt>
      <trkpt lat="44.31551" lon="6.82872">
        <time>2023-04-10T09:27:46+00:00</time>
        <ele>2454.0</ele>
      </trkpt>
      <trkpt lat="44.31551" lon="6.82872">
        <time>2023-04-10T09:27:47+00:00</time>
        <ele>2454.0</ele>
      </trkpt>
      <trkpt lat="44.31551" lon="6.82872">
        <time>2023-04-10T09:27:48+00:00</time>
        <ele>2454.0</ele>
      </trkpt>
      <trkpt lat="44.31551" lon="6.82872">
        <time>2023-04-10T09:27:49+00:00</time>
        <ele>2454.0</ele>
      </trkpt>
      <trkpt lat="44.31551" lon="6.82872">
        <time>2023-04-10T09:27:50+00:00</time>
        <ele>2454.0</ele>
      </trkpt>
      <trkpt lat="44.31551" lon="6.82872">
        <time>2023-04-10T09:27:51+00:00</time>
        <ele>2454.0</ele>
      </trkpt>
      <trkpt lat="44.31546" lon="6.8287">
        <time>2023-04-10T09:27:52+00:00</time>
        <ele>2457.0</ele>
      </trkpt>
      <trkpt lat="44.31546" lon="6.8287">
        <time>2023-04-10T09:27:53+00:00</time>
        <ele>2457.0</ele>
      </trkpt>
      <trkpt lat="44.31547" lon="6.82866">
        <time>2023-04-10T09:27:54+00:00</time>
        <ele>2458.0</ele>
      </trkpt>
      <trkpt lat="44.31547" lon="6.82866">
        <time>2023-04-10T09:27:55+00:00</time>
        <ele>2458.0</ele>
      </trkpt>
      <trkpt lat="44.31547" lon="6.82863">
        <time>2023-04-10T09:27:56+00:00</time>
        <ele>2459.0</ele>
      </trkpt>
      <trkpt lat="44.31547" lon="6.82863">
        <time>2023-04-10T09:27:57+00:00</time>
        <ele>2459.0</ele>
      </trkpt>
      <trkpt lat="44.31547" lon="6.82863">
        <time>2023-04-10T09:27:58+00:00</time>
        <ele>2459.0</ele>
      </trkpt>
      <trkpt lat="44.31547" lon="6.82863">
        <time>2023-04-10T09:27:59+00:00</time>
        <ele>2459.0</ele>
      </trkpt>
      <trkpt lat="44.31546" lon="6.82859">
        <time>2023-04-10T09:28:00+00:00</time>
        <ele>2460.0</ele>
      </trkpt>
      <trkpt lat="44.31546" lon="6.82859">
        <time>2023-04-10T09:28:01+00:00</time>
        <ele>2460.0</ele>
      </trkpt>
      <trkpt lat="44.31546" lon="6.82859">
        <time>2023-04-10T09:28:02+00:00</time>
        <ele>2460.0</ele>
      </trkpt>
      <trkpt lat="44.31546" lon="6.82859">
        <time>2023-04-10T09:28:03+00:00</time>
        <ele>2460.0</ele>
      </trkpt>
      <trkpt lat="44.31543" lon="6.8286">
        <time>2023-04-10T09:28:04+00:00</time>
        <ele>2462.0</ele>
      </trkpt>
      <trkpt lat="44.31543" lon="6.8286">
        <time>2023-04-10T09:28:05+00:00</time>
        <ele>2462.0</ele>
      </trkpt>
      <trkpt lat="44.31543" lon="6.8286">
        <time>2023-04-10T09:28:06+00:00</time>
        <ele>2462.0</ele>
      </trkpt>
      <trkpt lat="44.31543" lon="6.8286">
        <time>2023-04-10T09:28:07+00:00</time>
        <ele>2462.0</ele>
      </trkpt>
      <trkpt lat="44.31541" lon="6.82862">
        <time>2023-04-10T09:28:08+00:00</time>
        <ele>2463.0</ele>
      </trkpt>
      <trkpt lat="44.31541" lon="6.82862">
        <time>2023-04-10T09:28:09+00:00</time>
        <ele>2463.0</ele>
      </trkpt>
      <trkpt lat="44.31541" lon="6.82862">
        <time>2023-04-10T09:28:10+00:00</time>
        <ele>2463.0</ele>
      </trkpt>
      <trkpt lat="44.3154" lon="6.82862">
        <time>2023-04-10T09:28:11+00:00</time>
        <ele>2464.0</ele>
      </trkpt>
      <trkpt lat="44.3154" lon="6.82862">
        <time>2023-04-10T09:28:12+00:00</time>
        <ele>2464.0</ele>
      </trkpt>
      <trkpt lat="44.31538" lon="6.82864">
        <time>2023-04-10T09:28:13+00:00</time>
        <ele>2464.0</ele>
      </trkpt>
      <trkpt lat="44.31538" lon="6.82864">
        <time>2023-04-10T09:28:14+00:00</time>
        <ele>2464.0</ele>
      </trkpt>
      <trkpt lat="44.31538" lon="6.82864">
        <time>2023-04-10T09:28:15+00:00</time>
        <ele>2464.0</ele>
      </trkpt>
      <trkpt lat="44.31538" lon="6.82864">
        <time>2023-04-10T09:28:16+00:00</time>
        <ele>2464.0</ele>
      </trkpt>
      <trkpt lat="44.31536" lon="6.82865">
        <time>2023-04-10T09:28:17+00:00</time>
        <ele>2466.0</ele>
      </trkpt>
      <trkpt lat="44.31536" lon="6.82865">
        <time>2023-04-10T09:28:18+00:00</time>
        <ele>2466.0</ele>
      </trkpt>
      <trkpt lat="44.31536" lon="6.82865">
        <time>2023-04-10T09:28:19+00:00</time>
        <ele>2466.0</ele>
      </trkpt>
      <trkpt lat="44.31534" lon="6.82867">
        <time>2023-04-10T09:28:20+00:00</time>
        <ele>2467.0</ele>
      </trkpt>
      <trkpt lat="44.31534" lon="6.82867">
        <time>2023-04-10T09:28:21+00:00</time>
        <ele>2467.0</ele>
      </trkpt>
      <trkpt lat="44.31534" lon="6.82867">
        <time>2023-04-10T09:28:22+00:00</time>
        <ele>2467.0</ele>
      </trkpt>
      <trkpt lat="44.31532" lon="6.82869">
        <time>2023-04-10T09:28:23+00:00</time>
        <ele>2468.0</ele>
      </trkpt>
      <trkpt lat="44.31532" lon="6.82869">
        <time>2023-04-10T09:28:24+00:00</time>
        <ele>2468.0</ele>
      </trkpt>
      <trkpt lat="44.31532" lon="6.82869">
        <time>2023-04-10T09:28:25+00:00</time>
        <ele>2468.0</ele>
      </trkpt>
      <trkpt lat="44.3153" lon="6.82872">
        <time>2023-04-10T09:28:26+00:00</time>
        <ele>2468.0</ele>
      </trkpt>
      <trkpt lat="44.3153" lon="6.82872">
        <time>2023-04-10T09:28:27+00:00</time>
        <ele>2468.0</ele>
      </trkpt>
      <trkpt lat="44.3153" lon="6.82872">
        <time>2023-04-10T09:28:28+00:00</time>
        <ele>2468.0</ele>
      </trkpt>
      <trkpt lat="44.3153" lon="6.82872">
        <time>2023-04-10T09:28:29+00:00</time>
        <ele>2468.0</ele>
      </trkpt>
      <trkpt lat="44.31529" lon="6.82874">
        <time>2023-04-10T09:28:30+00:00</time>
        <ele>2469.0</ele>
      </trkpt>
      <trkpt lat="44.31529" lon="6.82874">
        <time>2023-04-10T09:28:31+00:00</time>
        <ele>2469.0</ele>
      </trkpt>
      <trkpt lat="44.31529" lon="6.82874">
        <time>2023-04-10T09:28:32+00:00</time>
        <ele>2469.0</ele>
      </trkpt>
      <trkpt lat="44.31528" lon="6.82877">
        <time>2023-04-10T09:28:33+00:00</time>
        <ele>2469.0</ele>
      </trkpt>
      <trkpt lat="44.31528" lon="6.82877">
        <time>2023-04-10T09:28:34+00:00</time>
        <ele>2469.0</ele>
      </trkpt>
      <trkpt lat="44.31528" lon="6.82877">
        <time>2023-04-10T09:28:35+00:00</time>
        <ele>2469.0</ele>
      </trkpt>
      <trkpt lat="44.31528" lon="6.82877">
        <time>2023-04-10T09:28:36+00:00</time>
        <ele>2469.0</ele>
      </trkpt>
      <trkpt lat="44.31527" lon="6.82879">
        <time>2023-04-10T09:28:37+00:00</time>
        <ele>2469.0</ele>
      </trkpt>
      <trkpt lat="44.31527" lon="6.82879">
        <time>2023-04-10T09:28:38+00:00</time>
        <ele>2469.0</ele>
      </trkpt>
      <trkpt lat="44.31527" lon="6.82879">
        <time>2023-04-10T09:28:39+00:00</time>
        <ele>2469.0</ele>
      </trkpt>
      <trkpt lat="44.31527" lon="6.82879">
        <time>2023-04-10T09:28:40+00:00</time>
        <ele>2469.0</ele>
      </trkpt>
      <trkpt lat="44.31525" lon="6.82882">
        <time>2023-04-10T09:28:41+00:00</time>
        <ele>2471.0</ele>
      </trkpt>
      <trkpt lat="44.31525" lon="6.82882">
        <time>2023-04-10T09:28:42+00:00</time>
        <ele>2471.0</ele>
      </trkpt>
      <trkpt lat="44.31525" lon="6.82882">
        <time>2023-04-10T09:28:43+00:00</time>
        <ele>2471.0</ele>
      </trkpt>
      <trkpt lat="44.31525" lon="6.82882">
        <time>2023-04-10T09:28:44+00:00</time>
        <ele>2471.0</ele>
      </trkpt>
      <trkpt lat="44.31524" lon="6.82885">
        <time>2023-04-10T09:28:45+00:00</time>
        <ele>2471.0</ele>
      </trkpt>
      <trkpt lat="44.31524" lon="6.82885">
        <time>2023-04-10T09:28:46+00:00</time>
        <ele>2471.0</ele>
      </trkpt>
      <trkpt lat="44.31524" lon="6.82885">
        <time>2023-04-10T09:28:47+00:00</time>
        <ele>2471.0</ele>
      </trkpt>
      <trkpt lat="44.31524" lon="6.82885">
        <time>2023-04-10T09:28:48+00:00</time>
        <ele>2471.0</ele>
      </trkpt>
      <trkpt lat="44.31522" lon="6.82888">
        <time>2023-04-10T09:28:49+00:00</time>
        <ele>2472.0</ele>
      </trkpt>
      <trkpt lat="44.31522" lon="6.82888">
        <time>2023-04-10T09:28:50+00:00</time>
        <ele>2472.0</ele>
      </trkpt>
      <trkpt lat="44.31522" lon="6.82888">
        <time>2023-04-10T09:28:51+00:00</time>
        <ele>2472.0</ele>
      </trkpt>
      <trkpt lat="44.31522" lon="6.82888">
        <time>2023-04-10T09:28:52+00:00</time>
        <ele>2472.0</ele>
      </trkpt>
      <trkpt lat="44.31522" lon="6.8289">
        <time>2023-04-10T09:28:53+00:00</time>
        <ele>2472.0</ele>
      </trkpt>
      <trkpt lat="44.31522" lon="6.8289">
        <time>2023-04-10T09:28:54+00:00</time>
        <ele>2472.0</ele>
      </trkpt>
      <trkpt lat="44.31522" lon="6.8289">
        <time>2023-04-10T09:28:55+00:00</time>
        <ele>2472.0</ele>
      </trkpt>
      <trkpt lat="44.31521" lon="6.82893">
        <time>2023-04-10T09:28:56+00:00</time>
        <ele>2472.0</ele>
      </trkpt>
      <trkpt lat="44.31521" lon="6.82893">
        <time>2023-04-10T09:28:57+00:00</time>
        <ele>2472.0</ele>
      </trkpt>
      <trkpt lat="44.31521" lon="6.82893">
        <time>2023-04-10T09:28:58+00:00</time>
        <ele>2472.0</ele>
      </trkpt>
      <trkpt lat="44.3152" lon="6.82895">
        <time>2023-04-10T09:28:59+00:00</time>
        <ele>2472.0</ele>
      </trkpt>
      <trkpt lat="44.3152" lon="6.82895">
        <time>2023-04-10T09:29:00+00:00</time>
        <ele>2472.0</ele>
      </trkpt>
      <trkpt lat="44.3152" lon="6.82895">
        <time>2023-04-10T09:29:01+00:00</time>
        <ele>2472.0</ele>
      </trkpt>
      <trkpt lat="44.31519" lon="6.82897">
        <time>2023-04-10T09:29:02+00:00</time>
        <ele>2473.0</ele>
      </trkpt>
      <trkpt lat="44.31519" lon="6.82897">
        <time>2023-04-10T09:29:03+00:00</time>
        <ele>2473.0</ele>
      </trkpt>
      <trkpt lat="44.31519" lon="6.82897">
        <time>2023-04-10T09:29:04+00:00</time>
        <ele>2473.0</ele>
      </trkpt>
      <trkpt lat="44.31518" lon="6.829">
        <time>2023-04-10T09:29:05+00:00</time>
        <ele>2473.0</ele>
      </trkpt>
      <trkpt lat="44.31518" lon="6.829">
        <time>2023-04-10T09:29:06+00:00</time>
        <ele>2473.0</ele>
      </trkpt>
      <trkpt lat="44.31518" lon="6.829">
        <time>2023-04-10T09:29:07+00:00</time>
        <ele>2473.0</ele>
      </trkpt>
      <trkpt lat="44.31518" lon="6.829">
        <time>2023-04-10T09:29:08+00:00</time>
        <ele>2473.0</ele>
      </trkpt>
      <trkpt lat="44.31518" lon="6.829">
        <time>2023-04-10T09:29:09+00:00</time>
        <ele>2473.0</ele>
      </trkpt>
      <trkpt lat="44.31516" lon="6.82903">
        <time>2023-04-10T09:29:10+00:00</time>
        <ele>2474.0</ele>
      </trkpt>
      <trkpt lat="44.31516" lon="6.82903">
        <time>2023-04-10T09:29:11+00:00</time>
        <ele>2474.0</ele>
      </trkpt>
      <trkpt lat="44.31516" lon="6.82903">
        <time>2023-04-10T09:29:12+00:00</time>
        <ele>2474.0</ele>
      </trkpt>
      <trkpt lat="44.31516" lon="6.82903">
        <time>2023-04-10T09:29:13+00:00</time>
        <ele>2474.0</ele>
      </trkpt>
      <trkpt lat="44.31516" lon="6.82903">
        <time>2023-04-10T09:29:14+00:00</time>
        <ele>2474.0</ele>
      </trkpt>
      <trkpt lat="44.31514" lon="6.82905">
        <time>2023-04-10T09:29:15+00:00</time>
        <ele>2475.0</ele>
      </trkpt>
      <trkpt lat="44.31514" lon="6.82905">
        <time>2023-04-10T09:29:16+00:00</time>
        <ele>2475.0</ele>
      </trkpt>
      <trkpt lat="44.31514" lon="6.82905">
        <time>2023-04-10T09:29:17+00:00</time>
        <ele>2475.0</ele>
      </trkpt>
      <trkpt lat="44.31513" lon="6.82908">
        <time>2023-04-10T09:29:18+00:00</time>
        <ele>2476.0</ele>
      </trkpt>
      <trkpt lat="44.31513" lon="6.82908">
        <time>2023-04-10T09:29:19+00:00</time>
        <ele>2476.0</ele>
      </trkpt>
      <trkpt lat="44.31513" lon="6.82908">
        <time>2023-04-10T09:29:20+00:00</time>
        <ele>2476.0</ele>
      </trkpt>
      <trkpt lat="44.31511" lon="6.82911">
        <time>2023-04-10T09:29:21+00:00</time>
        <ele>2477.0</ele>
      </trkpt>
      <trkpt lat="44.31511" lon="6.82911">
        <time>2023-04-10T09:29:22+00:00</time>
        <ele>2477.0</ele>
      </trkpt>
      <trkpt lat="44.31511" lon="6.82911">
        <time>2023-04-10T09:29:23+00:00</time>
        <ele>2477.0</ele>
      </trkpt>
      <trkpt lat="44.3151" lon="6.82913">
        <time>2023-04-10T09:29:24+00:00</time>
        <ele>2477.0</ele>
      </trkpt>
      <trkpt lat="44.3151" lon="6.82913">
        <time>2023-04-10T09:29:25+00:00</time>
        <ele>2477.0</ele>
      </trkpt>
      <trkpt lat="44.3151" lon="6.82913">
        <time>2023-04-10T09:29:26+00:00</time>
        <ele>2477.0</ele>
      </trkpt>
      <trkpt lat="44.31509" lon="6.82915">
        <time>2023-04-10T09:29:27+00:00</time>
        <ele>2478.0</ele>
      </trkpt>
      <trkpt lat="44.31509" lon="6.82915">
        <time>2023-04-10T09:29:28+00:00</time>
        <ele>2478.0</ele>
      </trkpt>
      <trkpt lat="44.31509" lon="6.82915">
        <time>2023-04-10T09:29:29+00:00</time>
        <ele>2478.0</ele>
      </trkpt>
      <trkpt lat="44.31509" lon="6.82915">
        <time>2023-04-10T09:29:30+00:00</time>
        <ele>2478.0</ele>
      </trkpt>
      <trkpt lat="44.31508" lon="6.82918">
        <time>2023-04-10T09:29:31+00:00</time>
        <ele>2478.0</ele>
      </trkpt>
      <trkpt lat="44.31508" lon="6.82918">
        <time>2023-04-10T09:29:32+00:00</time>
        <ele>2478.0</ele>
      </trkpt>
      <trkpt lat="44.31508" lon="6.82918">
        <time>2023-04-10T09:29:33+00:00</time>
        <ele>2478.0</ele>
      </trkpt>
      <trkpt lat="44.31507" lon="6.8292">
        <time>2023-04-10T09:29:34+00:00</time>
        <ele>2478.0</ele>
      </trkpt>
      <trkpt lat="44.31507" lon="6.8292">
        <time>2023-04-10T09:29:35+00:00</time>
        <ele>2478.0</ele>
      </trkpt>
      <trkpt lat="44.31507" lon="6.8292">
        <time>2023-04-10T09:29:36+00:00</time>
        <ele>2478.0</ele>
      </trkpt>
      <trkpt lat="44.31507" lon="6.8292">
        <time>2023-04-10T09:29:37+00:00</time>
        <ele>2478.0</ele>
      </trkpt>
      <trkpt lat="44.31506" lon="6.82923">
        <time>2023-04-10T09:29:38+00:00</time>
        <ele>2479.0</ele>
      </trkpt>
      <trkpt lat="44.31506" lon="6.82923">
        <time>2023-04-10T09:29:39+00:00</time>
        <ele>2479.0</ele>
      </trkpt>
      <trkpt lat="44.31506" lon="6.82923">
        <time>2023-04-10T09:29:40+00:00</time>
        <ele>2479.0</ele>
      </trkpt>
      <trkpt lat="44.31506" lon="6.82923">
        <time>2023-04-10T09:29:41+00:00</time>
        <ele>2479.0</ele>
      </trkpt>
      <trkpt lat="44.31504" lon="6.82925">
        <time>2023-04-10T09:29:42+00:00</time>
        <ele>2480.0</ele>
      </trkpt>
      <trkpt lat="44.31504" lon="6.82925">
        <time>2023-04-10T09:29:43+00:00</time>
        <ele>2480.0</ele>
      </trkpt>
      <trkpt lat="44.31504" lon="6.82925">
        <time>2023-04-10T09:29:44+00:00</time>
        <ele>2480.0</ele>
      </trkpt>
      <trkpt lat="44.31504" lon="6.82925">
        <time>2023-04-10T09:29:45+00:00</time>
        <ele>2480.0</ele>
      </trkpt>
      <trkpt lat="44.31502" lon="6.82927">
        <time>2023-04-10T09:29:46+00:00</time>
        <ele>2481.0</ele>
      </trkpt>
      <trkpt lat="44.31502" lon="6.82927">
        <time>2023-04-10T09:29:47+00:00</time>
        <ele>2481.0</ele>
      </trkpt>
      <trkpt lat="44.31502" lon="6.82927">
        <time>2023-04-10T09:29:48+00:00</time>
        <ele>2481.0</ele>
      </trkpt>
      <trkpt lat="44.31502" lon="6.82927">
        <time>2023-04-10T09:29:49+00:00</time>
        <ele>2481.0</ele>
      </trkpt>
      <trkpt lat="44.31502" lon="6.82927">
        <time>2023-04-10T09:29:50+00:00</time>
        <ele>2481.0</ele>
      </trkpt>
      <trkpt lat="44.31501" lon="6.82929">
        <time>2023-04-10T09:29:51+00:00</time>
        <ele>2482.0</ele>
      </trkpt>
      <trkpt lat="44.31501" lon="6.82929">
        <time>2023-04-10T09:29:52+00:00</time>
        <ele>2482.0</ele>
      </trkpt>
      <trkpt lat="44.31501" lon="6.82929">
        <time>2023-04-10T09:29:53+00:00</time>
        <ele>2482.0</ele>
      </trkpt>
      <trkpt lat="44.315" lon="6.82931">
        <time>2023-04-10T09:29:54+00:00</time>
        <ele>2482.0</ele>
      </trkpt>
      <trkpt lat="44.315" lon="6.82931">
        <time>2023-04-10T09:29:55+00:00</time>
        <ele>2482.0</ele>
      </trkpt>
      <trkpt lat="44.315" lon="6.82931">
        <time>2023-04-10T09:29:56+00:00</time>
        <ele>2482.0</ele>
      </trkpt>
      <trkpt lat="44.315" lon="6.82931">
        <time>2023-04-10T09:29:57+00:00</time>
        <ele>2482.0</ele>
      </trkpt>
      <trkpt lat="44.315" lon="6.82931">
        <time>2023-04-10T09:29:58+00:00</time>
        <ele>2482.0</ele>
      </trkpt>
      <trkpt lat="44.315" lon="6.82934">
        <time>2023-04-10T09:29:59+00:00</time>
        <ele>2482.0</ele>
      </trkpt>
      <trkpt lat="44.315" lon="6.82934">
        <time>2023-04-10T09:30:00+00:00</time>
        <ele>2482.0</ele>
      </trkpt>
      <trkpt lat="44.31498" lon="6.82936">
        <time>2023-04-10T09:30:03+00:00</time>
        <ele>2483.0</ele>
      </trkpt>
      <trkpt lat="44.31498" lon="6.82936">
        <time>2023-04-10T09:30:04+00:00</time>
        <ele>2483.0</ele>
      </trkpt>
      <trkpt lat="44.31498" lon="6.82936">
        <time>2023-04-10T09:30:05+00:00</time>
        <ele>2483.0</ele>
      </trkpt>
      <trkpt lat="44.31498" lon="6.82936">
        <time>2023-04-10T09:30:06+00:00</time>
        <ele>2483.0</ele>
      </trkpt>
      <trkpt lat="44.31498" lon="6.82936">
        <time>2023-04-10T09:30:07+00:00</time>
        <ele>2483.0</ele>
      </trkpt>
      <trkpt lat="44.31498" lon="6.82936">
        <time>2023-04-10T09:30:08+00:00</time>
        <ele>2483.0</ele>
      </trkpt>
      <trkpt lat="44.31498" lon="6.82936">
        <time>2023-04-10T09:30:09+00:00</time>
        <ele>2483.0</ele>
      </trkpt>
      <trkpt lat="44.31497" lon="6.82938">
        <time>2023-04-10T09:30:10+00:00</time>
        <ele>2484.0</ele>
      </trkpt>
      <trkpt lat="44.31497" lon="6.82938">
        <time>2023-04-10T09:30:11+00:00</time>
        <ele>2484.0</ele>
      </trkpt>
      <trkpt lat="44.31497" lon="6.82938">
        <time>2023-04-10T09:30:12+00:00</time>
        <ele>2484.0</ele>
      </trkpt>
      <trkpt lat="44.31497" lon="6.82938">
        <time>2023-04-10T09:30:13+00:00</time>
        <ele>2484.0</ele>
      </trkpt>
      <trkpt lat="44.31496" lon="6.82936">
        <time>2023-04-10T09:30:14+00:00</time>
        <ele>2485.0</ele>
      </trkpt>
      <trkpt lat="44.31496" lon="6.82936">
        <time>2023-04-10T09:30:15+00:00</time>
        <ele>2485.0</ele>
      </trkpt>
      <trkpt lat="44.31496" lon="6.82936">
        <time>2023-04-10T09:30:16+00:00</time>
        <ele>2485.0</ele>
      </trkpt>
      <trkpt lat="44.31496" lon="6.82936">
        <time>2023-04-10T09:30:17+00:00</time>
        <ele>2485.0</ele>
      </trkpt>
      <trkpt lat="44.31496" lon="6.82936">
        <time>2023-04-10T09:30:18+00:00</time>
        <ele>2485.0</ele>
      </trkpt>
      <trkpt lat="44.31496" lon="6.82936">
        <time>2023-04-10T09:30:19+00:00</time>
        <ele>2485.0</ele>
      </trkpt>
      <trkpt lat="44.31496" lon="6.82933">
        <time>2023-04-10T09:30:20+00:00</time>
        <ele>2485.0</ele>
      </trkpt>
      <trkpt lat="44.31496" lon="6.82933">
        <time>2023-04-10T09:30:21+00:00</time>
        <ele>2485.0</ele>
      </trkpt>
      <trkpt lat="44.31496" lon="6.82933">
        <time>2023-04-10T09:30:22+00:00</time>
        <ele>2485.0</ele>
      </trkpt>
      <trkpt lat="44.31496" lon="6.82933">
        <time>2023-04-10T09:30:23+00:00</time>
        <ele>2485.0</ele>
      </trkpt>
      <trkpt lat="44.31496" lon="6.8293">
        <time>2023-04-10T09:30:24+00:00</time>
        <ele>2485.0</ele>
      </trkpt>
      <trkpt lat="44.31496" lon="6.8293">
        <time>2023-04-10T09:30:25+00:00</time>
        <ele>2485.0</ele>
      </trkpt>
      <trkpt lat="44.31496" lon="6.8293">
        <time>2023-04-10T09:30:26+00:00</time>
        <ele>2485.0</ele>
      </trkpt>
      <trkpt lat="44.31496" lon="6.8293">
        <time>2023-04-10T09:30:27+00:00</time>
        <ele>2485.0</ele>
      </trkpt>
      <trkpt lat="44.31496" lon="6.8293">
        <time>2023-04-10T09:30:28+00:00</time>
        <ele>2485.0</ele>
      </trkpt>
      <trkpt lat="44.31496" lon="6.82927">
        <time>2023-04-10T09:30:29+00:00</time>
        <ele>2486.0</ele>
      </trkpt>
      <trkpt lat="44.31496" lon="6.82927">
        <time>2023-04-10T09:30:30+00:00</time>
        <ele>2486.0</ele>
      </trkpt>
      <trkpt lat="44.31496" lon="6.82927">
        <time>2023-04-10T09:30:31+00:00</time>
        <ele>2486.0</ele>
      </trkpt>
      <trkpt lat="44.31496" lon="6.82927">
        <time>2023-04-10T09:30:32+00:00</time>
        <ele>2486.0</ele>
      </trkpt>
      <trkpt lat="44.31496" lon="6.82927">
        <time>2023-04-10T09:30:33+00:00</time>
        <ele>2486.0</ele>
      </trkpt>
      <trkpt lat="44.31496" lon="6.82927">
        <time>2023-04-10T09:30:34+00:00</time>
        <ele>2486.0</ele>
      </trkpt>
      <trkpt lat="44.31496" lon="6.82927">
        <time>2023-04-10T09:30:35+00:00</time>
        <ele>2486.0</ele>
      </trkpt>
      <trkpt lat="44.31496" lon="6.82927">
        <time>2023-04-10T09:30:36+00:00</time>
        <ele>2486.0</ele>
      </trkpt>
      <trkpt lat="44.31496" lon="6.82927">
        <time>2023-04-10T09:30:37+00:00</time>
        <ele>2486.0</ele>
      </trkpt>
      <trkpt lat="44.31496" lon="6.82927">
        <time>2023-04-10T09:30:38+00:00</time>
        <ele>2486.0</ele>
      </trkpt>
      <trkpt lat="44.31496" lon="6.82927">
        <time>2023-04-10T09:30:39+00:00</time>
        <ele>2486.0</ele>
      </trkpt>
      <trkpt lat="44.31496" lon="6.82927">
        <time>2023-04-10T09:30:40+00:00</time>
        <ele>2486.0</ele>
      </trkpt>
      <trkpt lat="44.31496" lon="6.82927">
        <time>2023-04-10T09:30:41+00:00</time>
        <ele>2486.0</ele>
      </trkpt>
      <trkpt lat="44.31494" lon="6.82927">
        <time>2023-04-10T09:30:42+00:00</time>
        <ele>2487.0</ele>
      </trkpt>
      <trkpt lat="44.31494" lon="6.82927">
        <time>2023-04-10T09:30:43+00:00</time>
        <ele>2487.0</ele>
      </trkpt>
      <trkpt lat="44.31494" lon="6.82927">
        <time>2023-04-10T09:30:44+00:00</time>
        <ele>2487.0</ele>
      </trkpt>
      <trkpt lat="44.31494" lon="6.82927">
        <time>2023-04-10T09:30:45+00:00</time>
        <ele>2487.0</ele>
      </trkpt>
      <trkpt lat="44.31493" lon="6.82929">
        <time>2023-04-10T09:30:46+00:00</time>
        <ele>2488.0</ele>
      </trkpt>
      <trkpt lat="44.31493" lon="6.82929">
        <time>2023-04-10T09:30:47+00:00</time>
        <ele>2488.0</ele>
      </trkpt>
      <trkpt lat="44.31493" lon="6.82929">
        <time>2023-04-10T09:30:48+00:00</time>
        <ele>2488.0</ele>
      </trkpt>
      <trkpt lat="44.31493" lon="6.82929">
        <time>2023-04-10T09:30:49+00:00</time>
        <ele>2488.0</ele>
      </trkpt>
      <trkpt lat="44.31493" lon="6.82929">
        <time>2023-04-10T09:30:50+00:00</time>
        <ele>2488.0</ele>
      </trkpt>
      <trkpt lat="44.31491" lon="6.82931">
        <time>2023-04-10T09:30:51+00:00</time>
        <ele>2489.0</ele>
      </trkpt>
      <trkpt lat="44.31491" lon="6.82931">
        <time>2023-04-10T09:30:52+00:00</time>
        <ele>2489.0</ele>
      </trkpt>
      <trkpt lat="44.31491" lon="6.82931">
        <time>2023-04-10T09:30:53+00:00</time>
        <ele>2489.0</ele>
      </trkpt>
      <trkpt lat="44.31491" lon="6.82931">
        <time>2023-04-10T09:30:54+00:00</time>
        <ele>2489.0</ele>
      </trkpt>
      <trkpt lat="44.31491" lon="6.82931">
        <time>2023-04-10T09:30:55+00:00</time>
        <ele>2489.0</ele>
      </trkpt>
      <trkpt lat="44.31491" lon="6.82931">
        <time>2023-04-10T09:30:56+00:00</time>
        <ele>2489.0</ele>
      </trkpt>
      <trkpt lat="44.3149" lon="6.82933">
        <time>2023-04-10T09:30:57+00:00</time>
        <ele>2489.0</ele>
      </trkpt>
      <trkpt lat="44.3149" lon="6.82933">
        <time>2023-04-10T09:30:58+00:00</time>
        <ele>2489.0</ele>
      </trkpt>
      <trkpt lat="44.3149" lon="6.82933">
        <time>2023-04-10T09:30:59+00:00</time>
        <ele>2489.0</ele>
      </trkpt>
      <trkpt lat="44.3149" lon="6.82933">
        <time>2023-04-10T09:31:00+00:00</time>
        <ele>2489.0</ele>
      </trkpt>
      <trkpt lat="44.3149" lon="6.82933">
        <time>2023-04-10T09:31:01+00:00</time>
        <ele>2489.0</ele>
      </trkpt>
      <trkpt lat="44.31488" lon="6.82935">
        <time>2023-04-10T09:31:02+00:00</time>
        <ele>2491.0</ele>
      </trkpt>
      <trkpt lat="44.31488" lon="6.82935">
        <time>2023-04-10T09:31:03+00:00</time>
        <ele>2491.0</ele>
      </trkpt>
      <trkpt lat="44.31488" lon="6.82935">
        <time>2023-04-10T09:31:04+00:00</time>
        <ele>2491.0</ele>
      </trkpt>
      <trkpt lat="44.31486" lon="6.82938">
        <time>2023-04-10T09:31:05+00:00</time>
        <ele>2492.0</ele>
      </trkpt>
      <trkpt lat="44.31486" lon="6.82938">
        <time>2023-04-10T09:31:06+00:00</time>
        <ele>2492.0</ele>
      </trkpt>
      <trkpt lat="44.31486" lon="6.82938">
        <time>2023-04-10T09:31:07+00:00</time>
        <ele>2492.0</ele>
      </trkpt>
      <trkpt lat="44.31485" lon="6.8294">
        <time>2023-04-10T09:31:08+00:00</time>
        <ele>2492.0</ele>
      </trkpt>
      <trkpt lat="44.31485" lon="6.8294">
        <time>2023-04-10T09:31:09+00:00</time>
        <ele>2492.0</ele>
      </trkpt>
      <trkpt lat="44.31485" lon="6.8294">
        <time>2023-04-10T09:31:10+00:00</time>
        <ele>2492.0</ele>
      </trkpt>
      <trkpt lat="44.31485" lon="6.82942">
        <time>2023-04-10T09:31:11+00:00</time>
        <ele>2492.0</ele>
      </trkpt>
      <trkpt lat="44.31485" lon="6.82942">
        <time>2023-04-10T09:31:12+00:00</time>
        <ele>2492.0</ele>
      </trkpt>
      <trkpt lat="44.31484" lon="6.82944">
        <time>2023-04-10T09:31:13+00:00</time>
        <ele>2492.0</ele>
      </trkpt>
      <trkpt lat="44.31484" lon="6.82944">
        <time>2023-04-10T09:31:14+00:00</time>
        <ele>2492.0</ele>
      </trkpt>
      <trkpt lat="44.31484" lon="6.82944">
        <time>2023-04-10T09:31:15+00:00</time>
        <ele>2492.0</ele>
      </trkpt>
      <trkpt lat="44.31483" lon="6.82947">
        <time>2023-04-10T09:31:16+00:00</time>
        <ele>2493.0</ele>
      </trkpt>
      <trkpt lat="44.31483" lon="6.82947">
        <time>2023-04-10T09:31:17+00:00</time>
        <ele>2493.0</ele>
      </trkpt>
      <trkpt lat="44.31483" lon="6.82947">
        <time>2023-04-10T09:31:18+00:00</time>
        <ele>2493.0</ele>
      </trkpt>
      <trkpt lat="44.31483" lon="6.82947">
        <time>2023-04-10T09:31:19+00:00</time>
        <ele>2493.0</ele>
      </trkpt>
      <trkpt lat="44.31482" lon="6.82949">
        <time>2023-04-10T09:31:20+00:00</time>
        <ele>2493.0</ele>
      </trkpt>
      <trkpt lat="44.31482" lon="6.82949">
        <time>2023-04-10T09:31:21+00:00</time>
        <ele>2493.0</ele>
      </trkpt>
      <trkpt lat="44.31482" lon="6.82949">
        <time>2023-04-10T09:31:22+00:00</time>
        <ele>2493.0</ele>
      </trkpt>
      <trkpt lat="44.31482" lon="6.82949">
        <time>2023-04-10T09:31:23+00:00</time>
        <ele>2493.0</ele>
      </trkpt>
      <trkpt lat="44.31481" lon="6.82952">
        <time>2023-04-10T09:31:24+00:00</time>
        <ele>2494.0</ele>
      </trkpt>
      <trkpt lat="44.31481" lon="6.82952">
        <time>2023-04-10T09:31:25+00:00</time>
        <ele>2494.0</ele>
      </trkpt>
      <trkpt lat="44.31481" lon="6.82952">
        <time>2023-04-10T09:31:26+00:00</time>
        <ele>2494.0</ele>
      </trkpt>
      <trkpt lat="44.31481" lon="6.82952">
        <time>2023-04-10T09:31:27+00:00</time>
        <ele>2494.0</ele>
      </trkpt>
      <trkpt lat="44.31481" lon="6.82952">
        <time>2023-04-10T09:31:28+00:00</time>
        <ele>2494.0</ele>
      </trkpt>
      <trkpt lat="44.31479" lon="6.82954">
        <time>2023-04-10T09:31:29+00:00</time>
        <ele>2495.0</ele>
      </trkpt>
      <trkpt lat="44.31479" lon="6.82954">
        <time>2023-04-10T09:31:30+00:00</time>
        <ele>2495.0</ele>
      </trkpt>
      <trkpt lat="44.31479" lon="6.82954">
        <time>2023-04-10T09:31:31+00:00</time>
        <ele>2495.0</ele>
      </trkpt>
      <trkpt lat="44.31479" lon="6.82954">
        <time>2023-04-10T09:31:32+00:00</time>
        <ele>2495.0</ele>
      </trkpt>
      <trkpt lat="44.31479" lon="6.82954">
        <time>2023-04-10T09:31:33+00:00</time>
        <ele>2495.0</ele>
      </trkpt>
      <trkpt lat="44.31479" lon="6.82954">
        <time>2023-04-10T09:31:34+00:00</time>
        <ele>2495.0</ele>
      </trkpt>
      <trkpt lat="44.31479" lon="6.82954">
        <time>2023-04-10T09:31:35+00:00</time>
        <ele>2495.0</ele>
      </trkpt>
      <trkpt lat="44.31479" lon="6.82954">
        <time>2023-04-10T09:31:36+00:00</time>
        <ele>2495.0</ele>
      </trkpt>
      <trkpt lat="44.31479" lon="6.82954">
        <time>2023-04-10T09:31:37+00:00</time>
        <ele>2495.0</ele>
      </trkpt>
      <trkpt lat="44.31479" lon="6.82954">
        <time>2023-04-10T09:31:38+00:00</time>
        <ele>2495.0</ele>
      </trkpt>
      <trkpt lat="44.31479" lon="6.82954">
        <time>2023-04-10T09:31:39+00:00</time>
        <ele>2495.0</ele>
      </trkpt>
      <trkpt lat="44.31479" lon="6.82954">
        <time>2023-04-10T09:31:40+00:00</time>
        <ele>2495.0</ele>
      </trkpt>
      <trkpt lat="44.31479" lon="6.82954">
        <time>2023-04-10T09:31:41+00:00</time>
        <ele>2495.0</ele>
      </trkpt>
      <trkpt lat="44.31479" lon="6.82954">
        <time>2023-04-10T09:31:42+00:00</time>
        <ele>2495.0</ele>
      </trkpt>
      <trkpt lat="44.31479" lon="6.82954">
        <time>2023-04-10T09:31:43+00:00</time>
        <ele>2495.0</ele>
      </trkpt>
      <trkpt lat="44.31479" lon="6.82954">
        <time>2023-04-10T09:31:44+00:00</time>
        <ele>2495.0</ele>
      </trkpt>
      <trkpt lat="44.31479" lon="6.82954">
        <time>2023-04-10T09:31:45+00:00</time>
        <ele>2495.0</ele>
      </trkpt>
      <trkpt lat="44.31479" lon="6.82954">
        <time>2023-04-10T09:31:46+00:00</time>
        <ele>2495.0</ele>
      </trkpt>
      <trkpt lat="44.31479" lon="6.82954">
        <time>2023-04-10T09:31:47+00:00</time>
        <ele>2495.0</ele>
      </trkpt>
      <trkpt lat="44.31479" lon="6.82954">
        <time>2023-04-10T09:31:48+00:00</time>
        <ele>2495.0</ele>
      </trkpt>
      <trkpt lat="44.31479" lon="6.82954">
        <time>2023-04-10T09:31:49+00:00</time>
        <ele>2495.0</ele>
      </trkpt>
      <trkpt lat="44.31479" lon="6.82954">
        <time>2023-04-10T09:31:50+00:00</time>
        <ele>2495.0</ele>
      </trkpt>
      <trkpt lat="44.31479" lon="6.82954">
        <time>2023-04-10T09:31:51+00:00</time>
        <ele>2495.0</ele>
      </trkpt>
      <trkpt lat="44.31479" lon="6.82954">
        <time>2023-04-10T09:31:52+00:00</time>
        <ele>2495.0</ele>
      </trkpt>
      <trkpt lat="44.31479" lon="6.82954">
        <time>2023-04-10T09:31:53+00:00</time>
        <ele>2495.0</ele>
      </trkpt>
      <trkpt lat="44.31479" lon="6.82954">
        <time>2023-04-10T09:31:54+00:00</time>
        <ele>2495.0</ele>
      </trkpt>
      <trkpt lat="44.31479" lon="6.82954">
        <time>2023-04-10T09:31:55+00:00</time>
        <ele>2495.0</ele>
      </trkpt>
      <trkpt lat="44.31479" lon="6.82954">
        <time>2023-04-10T09:31:56+00:00</time>
        <ele>2495.0</ele>
      </trkpt>
      <trkpt lat="44.31479" lon="6.82954">
        <time>2023-04-10T09:31:57+00:00</time>
        <ele>2495.0</ele>
      </trkpt>
      <trkpt lat="44.31479" lon="6.82954">
        <time>2023-04-10T09:31:58+00:00</time>
        <ele>2495.0</ele>
      </trkpt>
      <trkpt lat="44.31479" lon="6.82954">
        <time>2023-04-10T09:31:59+00:00</time>
        <ele>2495.0</ele>
      </trkpt>
      <trkpt lat="44.31479" lon="6.82954">
        <time>2023-04-10T09:32:00+00:00</time>
        <ele>2495.0</ele>
      </trkpt>
      <trkpt lat="44.31479" lon="6.82954">
        <time>2023-04-10T09:32:01+00:00</time>
        <ele>2495.0</ele>
      </trkpt>
      <trkpt lat="44.31479" lon="6.82954">
        <time>2023-04-10T09:32:02+00:00</time>
        <ele>2495.0</ele>
      </trkpt>
      <trkpt lat="44.31479" lon="6.82954">
        <time>2023-04-10T09:32:03+00:00</time>
        <ele>2495.0</ele>
      </trkpt>
      <trkpt lat="44.31478" lon="6.82956">
        <time>2023-04-10T09:32:04+00:00</time>
        <ele>2495.0</ele>
      </trkpt>
      <trkpt lat="44.31478" lon="6.82956">
        <time>2023-04-10T09:32:05+00:00</time>
        <ele>2495.0</ele>
      </trkpt>
      <trkpt lat="44.31476" lon="6.82957">
        <time>2023-04-10T09:32:06+00:00</time>
        <ele>2497.0</ele>
      </trkpt>
      <trkpt lat="44.31476" lon="6.82957">
        <time>2023-04-10T09:32:07+00:00</time>
        <ele>2497.0</ele>
      </trkpt>
      <trkpt lat="44.31474" lon="6.82959">
        <time>2023-04-10T09:32:08+00:00</time>
        <ele>2498.0</ele>
      </trkpt>
      <trkpt lat="44.31474" lon="6.82959">
        <time>2023-04-10T09:32:09+00:00</time>
        <ele>2498.0</ele>
      </trkpt>
      <trkpt lat="44.31474" lon="6.82959">
        <time>2023-04-10T09:32:10+00:00</time>
        <ele>2498.0</ele>
      </trkpt>
      <trkpt lat="44.31472" lon="6.82959">
        <time>2023-04-10T09:32:11+00:00</time>
        <ele>2499.0</ele>
      </trkpt>
      <trkpt lat="44.31472" lon="6.82959">
        <time>2023-04-10T09:32:12+00:00</time>
        <ele>2499.0</ele>
      </trkpt>
      <trkpt lat="44.31472" lon="6.82959">
        <time>2023-04-10T09:32:13+00:00</time>
        <ele>2499.0</ele>
      </trkpt>
      <trkpt lat="44.3147" lon="6.82958">
        <time>2023-04-10T09:32:14+00:00</time>
        <ele>2500.0</ele>
      </trkpt>
      <trkpt lat="44.3147" lon="6.82958">
        <time>2023-04-10T09:32:15+00:00</time>
        <ele>2500.0</ele>
      </trkpt>
      <trkpt lat="44.31469" lon="6.82957">
        <time>2023-04-10T09:32:16+00:00</time>
        <ele>2501.0</ele>
      </trkpt>
      <trkpt lat="44.31469" lon="6.82957">
        <time>2023-04-10T09:32:17+00:00</time>
        <ele>2501.0</ele>
      </trkpt>
      <trkpt lat="44.31469" lon="6.82957">
        <time>2023-04-10T09:32:18+00:00</time>
        <ele>2501.0</ele>
      </trkpt>
      <trkpt lat="44.31467" lon="6.82957">
        <time>2023-04-10T09:32:19+00:00</time>
        <ele>2502.0</ele>
      </trkpt>
      <trkpt lat="44.31467" lon="6.82957">
        <time>2023-04-10T09:32:20+00:00</time>
        <ele>2502.0</ele>
      </trkpt>
      <trkpt lat="44.31467" lon="6.82957">
        <time>2023-04-10T09:32:21+00:00</time>
        <ele>2502.0</ele>
      </trkpt>
      <trkpt lat="44.31467" lon="6.82957">
        <time>2023-04-10T09:32:22+00:00</time>
        <ele>2502.0</ele>
      </trkpt>
      <trkpt lat="44.31467" lon="6.82957">
        <time>2023-04-10T09:32:23+00:00</time>
        <ele>2502.0</ele>
      </trkpt>
      <trkpt lat="44.31464" lon="6.82959">
        <time>2023-04-10T09:32:24+00:00</time>
        <ele>2503.0</ele>
      </trkpt>
      <trkpt lat="44.31464" lon="6.82959">
        <time>2023-04-10T09:32:25+00:00</time>
        <ele>2503.0</ele>
      </trkpt>
      <trkpt lat="44.31464" lon="6.82959">
        <time>2023-04-10T09:32:26+00:00</time>
        <ele>2503.0</ele>
      </trkpt>
      <trkpt lat="44.31463" lon="6.82961">
        <time>2023-04-10T09:32:27+00:00</time>
        <ele>2503.0</ele>
      </trkpt>
      <trkpt lat="44.31463" lon="6.82961">
        <time>2023-04-10T09:32:28+00:00</time>
        <ele>2503.0</ele>
      </trkpt>
      <trkpt lat="44.31463" lon="6.82961">
        <time>2023-04-10T09:32:29+00:00</time>
        <ele>2503.0</ele>
      </trkpt>
      <trkpt lat="44.31463" lon="6.82961">
        <time>2023-04-10T09:32:30+00:00</time>
        <ele>2503.0</ele>
      </trkpt>
      <trkpt lat="44.31461" lon="6.82963">
        <time>2023-04-10T09:32:31+00:00</time>
        <ele>2504.0</ele>
      </trkpt>
      <trkpt lat="44.31461" lon="6.82963">
        <time>2023-04-10T09:32:32+00:00</time>
        <ele>2504.0</ele>
      </trkpt>
      <trkpt lat="44.31461" lon="6.82963">
        <time>2023-04-10T09:32:33+00:00</time>
        <ele>2504.0</ele>
      </trkpt>
      <trkpt lat="44.3146" lon="6.82965">
        <time>2023-04-10T09:32:34+00:00</time>
        <ele>2505.0</ele>
      </trkpt>
      <trkpt lat="44.3146" lon="6.82965">
        <time>2023-04-10T09:32:35+00:00</time>
        <ele>2505.0</ele>
      </trkpt>
      <trkpt lat="44.3146" lon="6.82965">
        <time>2023-04-10T09:32:36+00:00</time>
        <ele>2505.0</ele>
      </trkpt>
      <trkpt lat="44.3146" lon="6.82965">
        <time>2023-04-10T09:32:37+00:00</time>
        <ele>2505.0</ele>
      </trkpt>
      <trkpt lat="44.31458" lon="6.82967">
        <time>2023-04-10T09:32:38+00:00</time>
        <ele>2506.0</ele>
      </trkpt>
      <trkpt lat="44.31458" lon="6.82967">
        <time>2023-04-10T09:32:39+00:00</time>
        <ele>2506.0</ele>
      </trkpt>
      <trkpt lat="44.31458" lon="6.82967">
        <time>2023-04-10T09:32:40+00:00</time>
        <ele>2506.0</ele>
      </trkpt>
      <trkpt lat="44.31457" lon="6.82969">
        <time>2023-04-10T09:32:41+00:00</time>
        <ele>2506.0</ele>
      </trkpt>
      <trkpt lat="44.31457" lon="6.82969">
        <time>2023-04-10T09:32:42+00:00</time>
        <ele>2506.0</ele>
      </trkpt>
      <trkpt lat="44.31457" lon="6.82969">
        <time>2023-04-10T09:32:43+00:00</time>
        <ele>2506.0</ele>
      </trkpt>
      <trkpt lat="44.31457" lon="6.82969">
        <time>2023-04-10T09:32:44+00:00</time>
        <ele>2506.0</ele>
      </trkpt>
      <trkpt lat="44.31456" lon="6.82972">
        <time>2023-04-10T09:32:45+00:00</time>
        <ele>2507.0</ele>
      </trkpt>
      <trkpt lat="44.31456" lon="6.82972">
        <time>2023-04-10T09:32:46+00:00</time>
        <ele>2507.0</ele>
      </trkpt>
      <trkpt lat="44.31456" lon="6.82972">
        <time>2023-04-10T09:32:47+00:00</time>
        <ele>2507.0</ele>
      </trkpt>
      <trkpt lat="44.31456" lon="6.82972">
        <time>2023-04-10T09:32:48+00:00</time>
        <ele>2507.0</ele>
      </trkpt>
      <trkpt lat="44.31455" lon="6.82974">
        <time>2023-04-10T09:32:49+00:00</time>
        <ele>2507.0</ele>
      </trkpt>
      <trkpt lat="44.31455" lon="6.82974">
        <time>2023-04-10T09:32:50+00:00</time>
        <ele>2507.0</ele>
      </trkpt>
      <trkpt lat="44.31455" lon="6.82974">
        <time>2023-04-10T09:32:51+00:00</time>
        <ele>2507.0</ele>
      </trkpt>
      <trkpt lat="44.31455" lon="6.82974">
        <time>2023-04-10T09:32:52+00:00</time>
        <ele>2507.0</ele>
      </trkpt>
      <trkpt lat="44.31453" lon="6.82973">
        <time>2023-04-10T09:32:53+00:00</time>
        <ele>2508.0</ele>
      </trkpt>
      <trkpt lat="44.31453" lon="6.82973">
        <time>2023-04-10T09:32:54+00:00</time>
        <ele>2508.0</ele>
      </trkpt>
      <trkpt lat="44.31453" lon="6.82973">
        <time>2023-04-10T09:32:55+00:00</time>
        <ele>2508.0</ele>
      </trkpt>
      <trkpt lat="44.31451" lon="6.82971">
        <time>2023-04-10T09:32:56+00:00</time>
        <ele>2509.0</ele>
      </trkpt>
      <trkpt lat="44.31451" lon="6.82971">
        <time>2023-04-10T09:32:57+00:00</time>
        <ele>2509.0</ele>
      </trkpt>
      <trkpt lat="44.31451" lon="6.82971">
        <time>2023-04-10T09:32:58+00:00</time>
        <ele>2509.0</ele>
      </trkpt>
      <trkpt lat="44.31451" lon="6.82971">
        <time>2023-04-10T09:32:59+00:00</time>
        <ele>2509.0</ele>
      </trkpt>
      <trkpt lat="44.31449" lon="6.82969">
        <time>2023-04-10T09:33:00+00:00</time>
        <ele>2509.0</ele>
      </trkpt>
      <trkpt lat="44.31449" lon="6.82969">
        <time>2023-04-10T09:33:01+00:00</time>
        <ele>2509.0</ele>
      </trkpt>
      <trkpt lat="44.31449" lon="6.82969">
        <time>2023-04-10T09:33:02+00:00</time>
        <ele>2509.0</ele>
      </trkpt>
      <trkpt lat="44.31449" lon="6.82969">
        <time>2023-04-10T09:33:03+00:00</time>
        <ele>2509.0</ele>
      </trkpt>
      <trkpt lat="44.31447" lon="6.82967">
        <time>2023-04-10T09:33:04+00:00</time>
        <ele>2510.0</ele>
      </trkpt>
      <trkpt lat="44.31447" lon="6.82967">
        <time>2023-04-10T09:33:05+00:00</time>
        <ele>2510.0</ele>
      </trkpt>
      <trkpt lat="44.31447" lon="6.82967">
        <time>2023-04-10T09:33:06+00:00</time>
        <ele>2510.0</ele>
      </trkpt>
      <trkpt lat="44.31446" lon="6.82965">
        <time>2023-04-10T09:33:07+00:00</time>
        <ele>2511.0</ele>
      </trkpt>
      <trkpt lat="44.31446" lon="6.82965">
        <time>2023-04-10T09:33:08+00:00</time>
        <ele>2511.0</ele>
      </trkpt>
      <trkpt lat="44.31446" lon="6.82965">
        <time>2023-04-10T09:33:09+00:00</time>
        <ele>2511.0</ele>
      </trkpt>
      <trkpt lat="44.31446" lon="6.82965">
        <time>2023-04-10T09:33:10+00:00</time>
        <ele>2511.0</ele>
      </trkpt>
      <trkpt lat="44.31445" lon="6.82962">
        <time>2023-04-10T09:33:11+00:00</time>
        <ele>2511.0</ele>
      </trkpt>
      <trkpt lat="44.31445" lon="6.82962">
        <time>2023-04-10T09:33:12+00:00</time>
        <ele>2511.0</ele>
      </trkpt>
      <trkpt lat="44.31445" lon="6.82962">
        <time>2023-04-10T09:33:13+00:00</time>
        <ele>2511.0</ele>
      </trkpt>
      <trkpt lat="44.31445" lon="6.82962">
        <time>2023-04-10T09:33:14+00:00</time>
        <ele>2511.0</ele>
      </trkpt>
      <trkpt lat="44.31445" lon="6.82962">
        <time>2023-04-10T09:33:15+00:00</time>
        <ele>2511.0</ele>
      </trkpt>
      <trkpt lat="44.31445" lon="6.82962">
        <time>2023-04-10T09:33:16+00:00</time>
        <ele>2511.0</ele>
      </trkpt>
      <trkpt lat="44.31442" lon="6.82961">
        <time>2023-04-10T09:33:17+00:00</time>
        <ele>2513.0</ele>
      </trkpt>
      <trkpt lat="44.31442" lon="6.82961">
        <time>2023-04-10T09:33:18+00:00</time>
        <ele>2513.0</ele>
      </trkpt>
      <trkpt lat="44.31442" lon="6.82961">
        <time>2023-04-10T09:33:19+00:00</time>
        <ele>2513.0</ele>
      </trkpt>
      <trkpt lat="44.31442" lon="6.82961">
        <time>2023-04-10T09:33:20+00:00</time>
        <ele>2513.0</ele>
      </trkpt>
      <trkpt lat="44.3144" lon="6.82963">
        <time>2023-04-10T09:33:21+00:00</time>
        <ele>2513.0</ele>
      </trkpt>
      <trkpt lat="44.3144" lon="6.82963">
        <time>2023-04-10T09:33:22+00:00</time>
        <ele>2513.0</ele>
      </trkpt>
      <trkpt lat="44.3144" lon="6.82963">
        <time>2023-04-10T09:33:23+00:00</time>
        <ele>2513.0</ele>
      </trkpt>
      <trkpt lat="44.31438" lon="6.82965">
        <time>2023-04-10T09:33:24+00:00</time>
        <ele>2514.0</ele>
      </trkpt>
      <trkpt lat="44.31438" lon="6.82965">
        <time>2023-04-10T09:33:25+00:00</time>
        <ele>2514.0</ele>
      </trkpt>
      <trkpt lat="44.31438" lon="6.82965">
        <time>2023-04-10T09:33:26+00:00</time>
        <ele>2514.0</ele>
      </trkpt>
      <trkpt lat="44.31437" lon="6.82967">
        <time>2023-04-10T09:33:27+00:00</time>
        <ele>2514.0</ele>
      </trkpt>
      <trkpt lat="44.31437" lon="6.82967">
        <time>2023-04-10T09:33:28+00:00</time>
        <ele>2514.0</ele>
      </trkpt>
      <trkpt lat="44.31437" lon="6.82967">
        <time>2023-04-10T09:33:29+00:00</time>
        <ele>2514.0</ele>
      </trkpt>
      <trkpt lat="44.31437" lon="6.82967">
        <time>2023-04-10T09:33:30+00:00</time>
        <ele>2514.0</ele>
      </trkpt>
      <trkpt lat="44.31434" lon="6.82967">
        <time>2023-04-10T09:33:31+00:00</time>
        <ele>2515.0</ele>
      </trkpt>
      <trkpt lat="44.31434" lon="6.82967">
        <time>2023-04-10T09:33:32+00:00</time>
        <ele>2515.0</ele>
      </trkpt>
      <trkpt lat="44.31434" lon="6.82967">
        <time>2023-04-10T09:33:33+00:00</time>
        <ele>2515.0</ele>
      </trkpt>
      <trkpt lat="44.31434" lon="6.82967">
        <time>2023-04-10T09:33:34+00:00</time>
        <ele>2515.0</ele>
      </trkpt>
      <trkpt lat="44.31433" lon="6.82965">
        <time>2023-04-10T09:33:35+00:00</time>
        <ele>2516.0</ele>
      </trkpt>
      <trkpt lat="44.31433" lon="6.82965">
        <time>2023-04-10T09:33:36+00:00</time>
        <ele>2516.0</ele>
      </trkpt>
      <trkpt lat="44.31433" lon="6.82965">
        <time>2023-04-10T09:33:37+00:00</time>
        <ele>2516.0</ele>
      </trkpt>
      <trkpt lat="44.31433" lon="6.82965">
        <time>2023-04-10T09:33:38+00:00</time>
        <ele>2516.0</ele>
      </trkpt>
      <trkpt lat="44.31433" lon="6.82965">
        <time>2023-04-10T09:33:39+00:00</time>
        <ele>2516.0</ele>
      </trkpt>
      <trkpt lat="44.31433" lon="6.82965">
        <time>2023-04-10T09:33:40+00:00</time>
        <ele>2516.0</ele>
      </trkpt>
      <trkpt lat="44.31433" lon="6.82965">
        <time>2023-04-10T09:33:41+00:00</time>
        <ele>2516.0</ele>
      </trkpt>
      <trkpt lat="44.31433" lon="6.82965">
        <time>2023-04-10T09:33:42+00:00</time>
        <ele>2516.0</ele>
      </trkpt>
      <trkpt lat="44.31432" lon="6.82962">
        <time>2023-04-10T09:33:43+00:00</time>
        <ele>2517.0</ele>
      </trkpt>
      <trkpt lat="44.31432" lon="6.82962">
        <time>2023-04-10T09:33:44+00:00</time>
        <ele>2517.0</ele>
      </trkpt>
      <trkpt lat="44.31432" lon="6.82962">
        <time>2023-04-10T09:33:45+00:00</time>
        <ele>2517.0</ele>
      </trkpt>
      <trkpt lat="44.31432" lon="6.82959">
        <time>2023-04-10T09:33:46+00:00</time>
        <ele>2518.0</ele>
      </trkpt>
      <trkpt lat="44.31432" lon="6.82959">
        <time>2023-04-10T09:33:47+00:00</time>
        <ele>2518.0</ele>
      </trkpt>
      <trkpt lat="44.31432" lon="6.82959">
        <time>2023-04-10T09:33:48+00:00</time>
        <ele>2518.0</ele>
      </trkpt>
      <trkpt lat="44.31432" lon="6.82956">
        <time>2023-04-10T09:33:49+00:00</time>
        <ele>2518.0</ele>
      </trkpt>
      <trkpt lat="44.31432" lon="6.82956">
        <time>2023-04-10T09:33:50+00:00</time>
        <ele>2518.0</ele>
      </trkpt>
      <trkpt lat="44.31432" lon="6.82956">
        <time>2023-04-10T09:33:51+00:00</time>
        <ele>2518.0</ele>
      </trkpt>
      <trkpt lat="44.31431" lon="6.82954">
        <time>2023-04-10T09:33:52+00:00</time>
        <ele>2519.0</ele>
      </trkpt>
      <trkpt lat="44.31431" lon="6.82954">
        <time>2023-04-10T09:33:53+00:00</time>
        <ele>2519.0</ele>
      </trkpt>
      <trkpt lat="44.31431" lon="6.82954">
        <time>2023-04-10T09:33:54+00:00</time>
        <ele>2519.0</ele>
      </trkpt>
      <trkpt lat="44.31431" lon="6.82954">
        <time>2023-04-10T09:33:55+00:00</time>
        <ele>2519.0</ele>
      </trkpt>
      <trkpt lat="44.3143" lon="6.8295">
        <time>2023-04-10T09:33:56+00:00</time>
        <ele>2520.0</ele>
      </trkpt>
      <trkpt lat="44.3143" lon="6.8295">
        <time>2023-04-10T09:33:57+00:00</time>
        <ele>2520.0</ele>
      </trkpt>
      <trkpt lat="44.3143" lon="6.8295">
        <time>2023-04-10T09:33:58+00:00</time>
        <ele>2520.0</ele>
      </trkpt>
      <trkpt lat="44.3143" lon="6.8295">
        <time>2023-04-10T09:33:59+00:00</time>
        <ele>2520.0</ele>
      </trkpt>
      <trkpt lat="44.3143" lon="6.82947">
        <time>2023-04-10T09:34:00+00:00</time>
        <ele>2520.0</ele>
      </trkpt>
      <trkpt lat="44.3143" lon="6.82947">
        <time>2023-04-10T09:34:01+00:00</time>
        <ele>2520.0</ele>
      </trkpt>
      <trkpt lat="44.3143" lon="6.82947">
        <time>2023-04-10T09:34:02+00:00</time>
        <ele>2520.0</ele>
      </trkpt>
      <trkpt lat="44.3143" lon="6.82947">
        <time>2023-04-10T09:34:03+00:00</time>
        <ele>2520.0</ele>
      </trkpt>
      <trkpt lat="44.31429" lon="6.82944">
        <time>2023-04-10T09:34:04+00:00</time>
        <ele>2521.0</ele>
      </trkpt>
      <trkpt lat="44.31429" lon="6.82944">
        <time>2023-04-10T09:34:05+00:00</time>
        <ele>2521.0</ele>
      </trkpt>
      <trkpt lat="44.31429" lon="6.82944">
        <time>2023-04-10T09:34:06+00:00</time>
        <ele>2521.0</ele>
      </trkpt>
      <trkpt lat="44.31429" lon="6.82944">
        <time>2023-04-10T09:34:07+00:00</time>
        <ele>2521.0</ele>
      </trkpt>
      <trkpt lat="44.31429" lon="6.82942">
        <time>2023-04-10T09:34:08+00:00</time>
        <ele>2521.0</ele>
      </trkpt>
      <trkpt lat="44.31429" lon="6.82942">
        <time>2023-04-10T09:34:09+00:00</time>
        <ele>2521.0</ele>
      </trkpt>
      <trkpt lat="44.31429" lon="6.82942">
        <time>2023-04-10T09:34:10+00:00</time>
        <ele>2521.0</ele>
      </trkpt>
      <trkpt lat="44.31429" lon="6.82939">
        <time>2023-04-10T09:34:11+00:00</time>
        <ele>2521.0</ele>
      </trkpt>
      <trkpt lat="44.31429" lon="6.82939">
        <time>2023-04-10T09:34:12+00:00</time>
        <ele>2521.0</ele>
      </trkpt>
      <trkpt lat="44.31429" lon="6.82939">
        <time>2023-04-10T09:34:13+00:00</time>
        <ele>2521.0</ele>
      </trkpt>
      <trkpt lat="44.31429" lon="6.82939">
        <time>2023-04-10T09:34:14+00:00</time>
        <ele>2521.0</ele>
      </trkpt>
      <trkpt lat="44.31429" lon="6.82936">
        <time>2023-04-10T09:34:15+00:00</time>
        <ele>2522.0</ele>
      </trkpt>
      <trkpt lat="44.31429" lon="6.82936">
        <time>2023-04-10T09:34:16+00:00</time>
        <ele>2522.0</ele>
      </trkpt>
      <trkpt lat="44.31429" lon="6.82936">
        <time>2023-04-10T09:34:17+00:00</time>
        <ele>2522.0</ele>
      </trkpt>
      <trkpt lat="44.31429" lon="6.82933">
        <time>2023-04-10T09:34:18+00:00</time>
        <ele>2522.0</ele>
      </trkpt>
      <trkpt lat="44.31429" lon="6.82933">
        <time>2023-04-10T09:34:19+00:00</time>
        <ele>2522.0</ele>
      </trkpt>
      <trkpt lat="44.31429" lon="6.82933">
        <time>2023-04-10T09:34:20+00:00</time>
        <ele>2522.0</ele>
      </trkpt>
      <trkpt lat="44.31429" lon="6.82933">
        <time>2023-04-10T09:34:21+00:00</time>
        <ele>2522.0</ele>
      </trkpt>
      <trkpt lat="44.31429" lon="6.82933">
        <time>2023-04-10T09:34:22+00:00</time>
        <ele>2522.0</ele>
      </trkpt>
      <trkpt lat="44.31429" lon="6.82933">
        <time>2023-04-10T09:34:23+00:00</time>
        <ele>2522.0</ele>
      </trkpt>
      <trkpt lat="44.31429" lon="6.82933">
        <time>2023-04-10T09:34:24+00:00</time>
        <ele>2522.0</ele>
      </trkpt>
      <trkpt lat="44.31429" lon="6.82933">
        <time>2023-04-10T09:34:25+00:00</time>
        <ele>2522.0</ele>
      </trkpt>
      <trkpt lat="44.31429" lon="6.82933">
        <time>2023-04-10T09:34:26+00:00</time>
        <ele>2522.0</ele>
      </trkpt>
      <trkpt lat="44.31427" lon="6.82934">
        <time>2023-04-10T09:34:27+00:00</time>
        <ele>2523.0</ele>
      </trkpt>
      <trkpt lat="44.31427" lon="6.82934">
        <time>2023-04-10T09:34:28+00:00</time>
        <ele>2523.0</ele>
      </trkpt>
      <trkpt lat="44.31427" lon="6.82934">
        <time>2023-04-10T09:34:29+00:00</time>
        <ele>2523.0</ele>
      </trkpt>
      <trkpt lat="44.31427" lon="6.82934">
        <time>2023-04-10T09:34:30+00:00</time>
        <ele>2523.0</ele>
      </trkpt>
      <trkpt lat="44.31424" lon="6.82937">
        <time>2023-04-10T09:34:31+00:00</time>
        <ele>2524.0</ele>
      </trkpt>
      <trkpt lat="44.31424" lon="6.82937">
        <time>2023-04-10T09:34:32+00:00</time>
        <ele>2524.0</ele>
      </trkpt>
      <trkpt lat="44.31424" lon="6.82937">
        <time>2023-04-10T09:34:33+00:00</time>
        <ele>2524.0</ele>
      </trkpt>
      <trkpt lat="44.31424" lon="6.82937">
        <time>2023-04-10T09:34:34+00:00</time>
        <ele>2524.0</ele>
      </trkpt>
      <trkpt lat="44.31422" lon="6.82939">
        <time>2023-04-10T09:34:35+00:00</time>
        <ele>2524.0</ele>
      </trkpt>
      <trkpt lat="44.31422" lon="6.82939">
        <time>2023-04-10T09:34:36+00:00</time>
        <ele>2524.0</ele>
      </trkpt>
      <trkpt lat="44.31422" lon="6.82939">
        <time>2023-04-10T09:34:37+00:00</time>
        <ele>2524.0</ele>
      </trkpt>
      <trkpt lat="44.31422" lon="6.82939">
        <time>2023-04-10T09:34:38+00:00</time>
        <ele>2524.0</ele>
      </trkpt>
      <trkpt lat="44.31421" lon="6.82941">
        <time>2023-04-10T09:34:39+00:00</time>
        <ele>2524.0</ele>
      </trkpt>
      <trkpt lat="44.31421" lon="6.82941">
        <time>2023-04-10T09:34:40+00:00</time>
        <ele>2524.0</ele>
      </trkpt>
      <trkpt lat="44.31421" lon="6.82941">
        <time>2023-04-10T09:34:41+00:00</time>
        <ele>2524.0</ele>
      </trkpt>
      <trkpt lat="44.31421" lon="6.82941">
        <time>2023-04-10T09:34:42+00:00</time>
        <ele>2524.0</ele>
      </trkpt>
      <trkpt lat="44.31421" lon="6.82941">
        <time>2023-04-10T09:34:43+00:00</time>
        <ele>2524.0</ele>
      </trkpt>
      <trkpt lat="44.3142" lon="6.82944">
        <time>2023-04-10T09:34:44+00:00</time>
        <ele>2524.0</ele>
      </trkpt>
      <trkpt lat="44.3142" lon="6.82944">
        <time>2023-04-10T09:34:45+00:00</time>
        <ele>2524.0</ele>
      </trkpt>
      <trkpt lat="44.3142" lon="6.82944">
        <time>2023-04-10T09:34:46+00:00</time>
        <ele>2524.0</ele>
      </trkpt>
      <trkpt lat="44.3142" lon="6.82944">
        <time>2023-04-10T09:34:47+00:00</time>
        <ele>2524.0</ele>
      </trkpt>
      <trkpt lat="44.31418" lon="6.82946">
        <time>2023-04-10T09:34:48+00:00</time>
        <ele>2524.0</ele>
      </trkpt>
      <trkpt lat="44.31418" lon="6.82946">
        <time>2023-04-10T09:34:49+00:00</time>
        <ele>2524.0</ele>
      </trkpt>
      <trkpt lat="44.31418" lon="6.82946">
        <time>2023-04-10T09:34:50+00:00</time>
        <ele>2524.0</ele>
      </trkpt>
      <trkpt lat="44.31418" lon="6.82946">
        <time>2023-04-10T09:34:51+00:00</time>
        <ele>2524.0</ele>
      </trkpt>
      <trkpt lat="44.31418" lon="6.82946">
        <time>2023-04-10T09:34:52+00:00</time>
        <ele>2524.0</ele>
      </trkpt>
      <trkpt lat="44.31418" lon="6.82946">
        <time>2023-04-10T09:34:53+00:00</time>
        <ele>2524.0</ele>
      </trkpt>
      <trkpt lat="44.31418" lon="6.82946">
        <time>2023-04-10T09:34:54+00:00</time>
        <ele>2524.0</ele>
      </trkpt>
      <trkpt lat="44.31418" lon="6.82946">
        <time>2023-04-10T09:34:55+00:00</time>
        <ele>2524.0</ele>
      </trkpt>
      <trkpt lat="44.31417" lon="6.82948">
        <time>2023-04-10T09:34:56+00:00</time>
        <ele>2524.0</ele>
      </trkpt>
      <trkpt lat="44.31417" lon="6.82948">
        <time>2023-04-10T09:34:57+00:00</time>
        <ele>2524.0</ele>
      </trkpt>
      <trkpt lat="44.31417" lon="6.82948">
        <time>2023-04-10T09:34:58+00:00</time>
        <ele>2524.0</ele>
      </trkpt>
      <trkpt lat="44.31417" lon="6.82948">
        <time>2023-04-10T09:34:59+00:00</time>
        <ele>2524.0</ele>
      </trkpt>
      <trkpt lat="44.31417" lon="6.82948">
        <time>2023-04-10T09:35:00+00:00</time>
        <ele>2524.0</ele>
      </trkpt>
      <trkpt lat="44.31417" lon="6.82948">
        <time>2023-04-10T09:35:01+00:00</time>
        <ele>2524.0</ele>
      </trkpt>
      <trkpt lat="44.31415" lon="6.8295">
        <time>2023-04-10T09:35:02+00:00</time>
        <ele>2524.0</ele>
      </trkpt>
      <trkpt lat="44.31415" lon="6.8295">
        <time>2023-04-10T09:35:03+00:00</time>
        <ele>2524.0</ele>
      </trkpt>
      <trkpt lat="44.31415" lon="6.8295">
        <time>2023-04-10T09:35:04+00:00</time>
        <ele>2524.0</ele>
      </trkpt>
      <trkpt lat="44.31415" lon="6.8295">
        <time>2023-04-10T09:35:05+00:00</time>
        <ele>2524.0</ele>
      </trkpt>
      <trkpt lat="44.31415" lon="6.8295">
        <time>2023-04-10T09:35:06+00:00</time>
        <ele>2524.0</ele>
      </trkpt>
      <trkpt lat="44.31415" lon="6.8295">
        <time>2023-04-10T09:35:07+00:00</time>
        <ele>2524.0</ele>
      </trkpt>
      <trkpt lat="44.31414" lon="6.82952">
        <time>2023-04-10T09:35:08+00:00</time>
        <ele>2524.0</ele>
      </trkpt>
      <trkpt lat="44.31414" lon="6.82952">
        <time>2023-04-10T09:35:09+00:00</time>
        <ele>2524.0</ele>
      </trkpt>
      <trkpt lat="44.31414" lon="6.82952">
        <time>2023-04-10T09:35:10+00:00</time>
        <ele>2524.0</ele>
      </trkpt>
      <trkpt lat="44.31414" lon="6.82952">
        <time>2023-04-10T09:35:11+00:00</time>
        <ele>2524.0</ele>
      </trkpt>
      <trkpt lat="44.31414" lon="6.82952">
        <time>2023-04-10T09:35:12+00:00</time>
        <ele>2524.0</ele>
      </trkpt>
      <trkpt lat="44.31414" lon="6.82952">
        <time>2023-04-10T09:35:13+00:00</time>
        <ele>2524.0</ele>
      </trkpt>
      <trkpt lat="44.31414" lon="6.82952">
        <time>2023-04-10T09:35:14+00:00</time>
        <ele>2524.0</ele>
      </trkpt>
      <trkpt lat="44.31414" lon="6.82952">
        <time>2023-04-10T09:35:15+00:00</time>
        <ele>2524.0</ele>
      </trkpt>
      <trkpt lat="44.31414" lon="6.82952">
        <time>2023-04-10T09:35:16+00:00</time>
        <ele>2524.0</ele>
      </trkpt>
      <trkpt lat="44.31414" lon="6.82952">
        <time>2023-04-10T09:35:17+00:00</time>
        <ele>2524.0</ele>
      </trkpt>
      <trkpt lat="44.31414" lon="6.82952">
        <time>2023-04-10T09:35:18+00:00</time>
        <ele>2524.0</ele>
      </trkpt>
      <trkpt lat="44.31414" lon="6.82952">
        <time>2023-04-10T09:35:19+00:00</time>
        <ele>2524.0</ele>
      </trkpt>
      <trkpt lat="44.31414" lon="6.82952">
        <time>2023-04-10T09:35:20+00:00</time>
        <ele>2524.0</ele>
      </trkpt>
      <trkpt lat="44.31414" lon="6.82952">
        <time>2023-04-10T09:35:21+00:00</time>
        <ele>2524.0</ele>
      </trkpt>
      <trkpt lat="44.31414" lon="6.82952">
        <time>2023-04-10T09:35:22+00:00</time>
        <ele>2524.0</ele>
      </trkpt>
      <trkpt lat="44.31414" lon="6.82952">
        <time>2023-04-10T09:35:23+00:00</time>
        <ele>2524.0</ele>
      </trkpt>
      <trkpt lat="44.31414" lon="6.82952">
        <time>2023-04-10T09:35:24+00:00</time>
        <ele>2524.0</ele>
      </trkpt>
      <trkpt lat="44.31414" lon="6.82952">
        <time>2023-04-10T09:35:25+00:00</time>
        <ele>2524.0</ele>
      </trkpt>
      <trkpt lat="44.31414" lon="6.82953">
        <time>2023-04-10T09:35:26+00:00</time>
        <ele>2524.0</ele>
      </trkpt>
      <trkpt lat="44.31414" lon="6.82953">
        <time>2023-04-10T09:35:27+00:00</time>
        <ele>2524.0</ele>
      </trkpt>
      <trkpt lat="44.31414" lon="6.82953">
        <time>2023-04-10T09:35:28+00:00</time>
        <ele>2524.0</ele>
      </trkpt>
      <trkpt lat="44.31414" lon="6.82953">
        <time>2023-04-10T09:35:29+00:00</time>
        <ele>2524.0</ele>
      </trkpt>
      <trkpt lat="44.31413" lon="6.82953">
        <time>2023-04-10T09:35:30+00:00</time>
        <ele>2524.0</ele>
      </trkpt>
      <trkpt lat="44.31413" lon="6.82953">
        <time>2023-04-10T09:35:31+00:00</time>
        <ele>2524.0</ele>
      </trkpt>
      <trkpt lat="44.31413" lon="6.82953">
        <time>2023-04-10T09:35:32+00:00</time>
        <ele>2524.0</ele>
      </trkpt>
      <trkpt lat="44.31413" lon="6.82953">
        <time>2023-04-10T09:35:33+00:00</time>
        <ele>2524.0</ele>
      </trkpt>
      <trkpt lat="44.31413" lon="6.82953">
        <time>2023-04-10T09:35:34+00:00</time>
        <ele>2524.0</ele>
      </trkpt>
      <trkpt lat="44.31413" lon="6.82953">
        <time>2023-04-10T09:35:35+00:00</time>
        <ele>2524.0</ele>
      </trkpt>
      <trkpt lat="44.31413" lon="6.82953">
        <time>2023-04-10T09:35:36+00:00</time>
        <ele>2524.0</ele>
      </trkpt>
      <trkpt lat="44.31413" lon="6.82953">
        <time>2023-04-10T09:35:37+00:00</time>
        <ele>2524.0</ele>
      </trkpt>
      <trkpt lat="44.31413" lon="6.82953">
        <time>2023-04-10T09:35:38+00:00</time>
        <ele>2524.0</ele>
      </trkpt>
      <trkpt lat="44.31413" lon="6.82953">
        <time>2023-04-10T09:35:39+00:00</time>
        <ele>2524.0</ele>
      </trkpt>
      <trkpt lat="44.31413" lon="6.82953">
        <time>2023-04-10T09:35:40+00:00</time>
        <ele>2524.0</ele>
      </trkpt>
      <trkpt lat="44.31413" lon="6.82953">
        <time>2023-04-10T09:35:41+00:00</time>
        <ele>2524.0</ele>
      </trkpt>
      <trkpt lat="44.31413" lon="6.82953">
        <time>2023-04-10T09:35:42+00:00</time>
        <ele>2524.0</ele>
      </trkpt>
      <trkpt lat="44.31413" lon="6.82953">
        <time>2023-04-10T09:35:43+00:00</time>
        <ele>2524.0</ele>
      </trkpt>
      <trkpt lat="44.31413" lon="6.82953">
        <time>2023-04-10T09:35:44+00:00</time>
        <ele>2524.0</ele>
      </trkpt>
      <trkpt lat="44.31413" lon="6.82953">
        <time>2023-04-10T09:35:45+00:00</time>
        <ele>2524.0</ele>
      </trkpt>
      <trkpt lat="44.31413" lon="6.82953">
        <time>2023-04-10T09:35:46+00:00</time>
        <ele>2524.0</ele>
      </trkpt>
      <trkpt lat="44.31413" lon="6.82953">
        <time>2023-04-10T09:35:47+00:00</time>
        <ele>2524.0</ele>
      </trkpt>
      <trkpt lat="44.31413" lon="6.82953">
        <time>2023-04-10T09:35:48+00:00</time>
        <ele>2524.0</ele>
      </trkpt>
      <trkpt lat="44.31413" lon="6.82953">
        <time>2023-04-10T09:35:49+00:00</time>
        <ele>2524.0</ele>
      </trkpt>
      <trkpt lat="44.31413" lon="6.82953">
        <time>2023-04-10T09:35:50+00:00</time>
        <ele>2524.0</ele>
      </trkpt>
      <trkpt lat="44.31413" lon="6.82954">
        <time>2023-04-10T09:35:51+00:00</time>
        <ele>2524.0</ele>
      </trkpt>
      <trkpt lat="44.31413" lon="6.82954">
        <time>2023-04-10T09:35:52+00:00</time>
        <ele>2524.0</ele>
      </trkpt>
      <trkpt lat="44.31413" lon="6.82954">
        <time>2023-04-10T09:35:53+00:00</time>
        <ele>2524.0</ele>
      </trkpt>
      <trkpt lat="44.31413" lon="6.82954">
        <time>2023-04-10T09:35:54+00:00</time>
        <ele>2524.0</ele>
      </trkpt>
      <trkpt lat="44.31413" lon="6.82954">
        <time>2023-04-10T09:35:55+00:00</time>
        <ele>2524.0</ele>
      </trkpt>
      <trkpt lat="44.31413" lon="6.82954">
        <time>2023-04-10T09:35:56+00:00</time>
        <ele>2524.0</ele>
      </trkpt>
      <trkpt lat="44.31413" lon="6.82954">
        <time>2023-04-10T09:35:57+00:00</time>
        <ele>2524.0</ele>
      </trkpt>
      <trkpt lat="44.31413" lon="6.82954">
        <time>2023-04-10T09:35:58+00:00</time>
        <ele>2524.0</ele>
      </trkpt>
      <trkpt lat="44.3141" lon="6.82962">
        <time>2023-04-10T09:35:59+00:00</time>
        <ele>2522.0</ele>
      </trkpt>
      <trkpt lat="44.3141" lon="6.82962">
        <time>2023-04-10T09:36:00+00:00</time>
        <ele>2522.0</ele>
      </trkpt>
      <trkpt lat="44.31408" lon="6.82963">
        <time>2023-04-10T09:36:01+00:00</time>
        <ele>2521.0</ele>
      </trkpt>
      <trkpt lat="44.31408" lon="6.82963">
        <time>2023-04-10T09:36:02+00:00</time>
        <ele>2521.0</ele>
      </trkpt>
      <trkpt lat="44.31405" lon="6.82962">
        <time>2023-04-10T09:36:03+00:00</time>
        <ele>2522.0</ele>
      </trkpt>
      <trkpt lat="44.31405" lon="6.82962">
        <time>2023-04-10T09:36:04+00:00</time>
        <ele>2522.0</ele>
      </trkpt>
      <trkpt lat="44.31405" lon="6.82962">
        <time>2023-04-10T09:36:05+00:00</time>
        <ele>2522.0</ele>
      </trkpt>
      <trkpt lat="44.31403" lon="6.82961">
        <time>2023-04-10T09:36:06+00:00</time>
        <ele>2522.0</ele>
      </trkpt>
      <trkpt lat="44.31403" lon="6.82961">
        <time>2023-04-10T09:36:07+00:00</time>
        <ele>2522.0</ele>
      </trkpt>
      <trkpt lat="44.31403" lon="6.82961">
        <time>2023-04-10T09:36:08+00:00</time>
        <ele>2522.0</ele>
      </trkpt>
      <trkpt lat="44.31402" lon="6.82959">
        <time>2023-04-10T09:36:09+00:00</time>
        <ele>2523.0</ele>
      </trkpt>
      <trkpt lat="44.31402" lon="6.82959">
        <time>2023-04-10T09:36:10+00:00</time>
        <ele>2523.0</ele>
      </trkpt>
      <trkpt lat="44.31402" lon="6.82959">
        <time>2023-04-10T09:36:11+00:00</time>
        <ele>2523.0</ele>
      </trkpt>
      <trkpt lat="44.314" lon="6.82957">
        <time>2023-04-10T09:36:12+00:00</time>
        <ele>2523.0</ele>
      </trkpt>
      <trkpt lat="44.314" lon="6.82957">
        <time>2023-04-10T09:36:13+00:00</time>
        <ele>2523.0</ele>
      </trkpt>
      <trkpt lat="44.314" lon="6.82957">
        <time>2023-04-10T09:36:14+00:00</time>
        <ele>2523.0</ele>
      </trkpt>
      <trkpt lat="44.31399" lon="6.82955">
        <time>2023-04-10T09:36:15+00:00</time>
        <ele>2524.0</ele>
      </trkpt>
      <trkpt lat="44.31399" lon="6.82955">
        <time>2023-04-10T09:36:16+00:00</time>
        <ele>2524.0</ele>
      </trkpt>
      <trkpt lat="44.31399" lon="6.82955">
        <time>2023-04-10T09:36:17+00:00</time>
        <ele>2524.0</ele>
      </trkpt>
      <trkpt lat="44.31399" lon="6.82955">
        <time>2023-04-10T09:36:18+00:00</time>
        <ele>2524.0</ele>
      </trkpt>
      <trkpt lat="44.31397" lon="6.82952">
        <time>2023-04-10T09:36:19+00:00</time>
        <ele>2525.0</ele>
      </trkpt>
      <trkpt lat="44.31397" lon="6.82952">
        <time>2023-04-10T09:36:20+00:00</time>
        <ele>2525.0</ele>
      </trkpt>
      <trkpt lat="44.31397" lon="6.82952">
        <time>2023-04-10T09:36:21+00:00</time>
        <ele>2525.0</ele>
      </trkpt>
      <trkpt lat="44.31395" lon="6.8295">
        <time>2023-04-10T09:36:22+00:00</time>
        <ele>2526.0</ele>
      </trkpt>
      <trkpt lat="44.31395" lon="6.8295">
        <time>2023-04-10T09:36:23+00:00</time>
        <ele>2526.0</ele>
      </trkpt>
      <trkpt lat="44.31395" lon="6.8295">
        <time>2023-04-10T09:36:24+00:00</time>
        <ele>2526.0</ele>
      </trkpt>
      <trkpt lat="44.31395" lon="6.8295">
        <time>2023-04-10T09:36:25+00:00</time>
        <ele>2526.0</ele>
      </trkpt>
      <trkpt lat="44.31393" lon="6.82949">
        <time>2023-04-10T09:36:26+00:00</time>
        <ele>2526.0</ele>
      </trkpt>
      <trkpt lat="44.31393" lon="6.82949">
        <time>2023-04-10T09:36:27+00:00</time>
        <ele>2526.0</ele>
      </trkpt>
      <trkpt lat="44.31393" lon="6.82949">
        <time>2023-04-10T09:36:28+00:00</time>
        <ele>2526.0</ele>
      </trkpt>
      <trkpt lat="44.31393" lon="6.82949">
        <time>2023-04-10T09:36:29+00:00</time>
        <ele>2526.0</ele>
      </trkpt>
      <trkpt lat="44.31393" lon="6.82949">
        <time>2023-04-10T09:36:30+00:00</time>
        <ele>2526.0</ele>
      </trkpt>
      <trkpt lat="44.31393" lon="6.82949">
        <time>2023-04-10T09:36:31+00:00</time>
        <ele>2526.0</ele>
      </trkpt>
      <trkpt lat="44.31395" lon="6.82947">
        <time>2023-04-10T09:36:32+00:00</time>
        <ele>2527.0</ele>
      </trkpt>
      <trkpt lat="44.31395" lon="6.82947">
        <time>2023-04-10T09:36:33+00:00</time>
        <ele>2527.0</ele>
      </trkpt>
      <trkpt lat="44.31395" lon="6.82947">
        <time>2023-04-10T09:36:34+00:00</time>
        <ele>2527.0</ele>
      </trkpt>
      <trkpt lat="44.31397" lon="6.82946">
        <time>2023-04-10T09:36:35+00:00</time>
        <ele>2527.0</ele>
      </trkpt>
      <trkpt lat="44.31397" lon="6.82946">
        <time>2023-04-10T09:36:36+00:00</time>
        <ele>2527.0</ele>
      </trkpt>
      <trkpt lat="44.31397" lon="6.82946">
        <time>2023-04-10T09:36:37+00:00</time>
        <ele>2527.0</ele>
      </trkpt>
      <trkpt lat="44.31397" lon="6.82946">
        <time>2023-04-10T09:36:38+00:00</time>
        <ele>2527.0</ele>
      </trkpt>
      <trkpt lat="44.31397" lon="6.82946">
        <time>2023-04-10T09:36:39+00:00</time>
        <ele>2527.0</ele>
      </trkpt>
      <trkpt lat="44.31397" lon="6.82946">
        <time>2023-04-10T09:36:40+00:00</time>
        <ele>2527.0</ele>
      </trkpt>
      <trkpt lat="44.31397" lon="6.82946">
        <time>2023-04-10T09:36:41+00:00</time>
        <ele>2527.0</ele>
      </trkpt>
      <trkpt lat="44.31397" lon="6.82946">
        <time>2023-04-10T09:36:42+00:00</time>
        <ele>2527.0</ele>
      </trkpt>
      <trkpt lat="44.31397" lon="6.82946">
        <time>2023-04-10T09:36:43+00:00</time>
        <ele>2527.0</ele>
      </trkpt>
      <trkpt lat="44.31397" lon="6.82946">
        <time>2023-04-10T09:36:44+00:00</time>
        <ele>2527.0</ele>
      </trkpt>
      <trkpt lat="44.31395" lon="6.82943">
        <time>2023-04-10T09:36:45+00:00</time>
        <ele>2528.0</ele>
      </trkpt>
      <trkpt lat="44.31395" lon="6.82943">
        <time>2023-04-10T09:36:46+00:00</time>
        <ele>2528.0</ele>
      </trkpt>
      <trkpt lat="44.31395" lon="6.82943">
        <time>2023-04-10T09:36:47+00:00</time>
        <ele>2528.0</ele>
      </trkpt>
      <trkpt lat="44.31395" lon="6.82943">
        <time>2023-04-10T09:36:48+00:00</time>
        <ele>2528.0</ele>
      </trkpt>
      <trkpt lat="44.31393" lon="6.82942">
        <time>2023-04-10T09:36:49+00:00</time>
        <ele>2528.0</ele>
      </trkpt>
      <trkpt lat="44.31393" lon="6.82942">
        <time>2023-04-10T09:36:50+00:00</time>
        <ele>2528.0</ele>
      </trkpt>
      <trkpt lat="44.31393" lon="6.82942">
        <time>2023-04-10T09:36:51+00:00</time>
        <ele>2528.0</ele>
      </trkpt>
      <trkpt lat="44.31391" lon="6.82942">
        <time>2023-04-10T09:36:52+00:00</time>
        <ele>2528.0</ele>
      </trkpt>
      <trkpt lat="44.31391" lon="6.82942">
        <time>2023-04-10T09:36:53+00:00</time>
        <ele>2528.0</ele>
      </trkpt>
      <trkpt lat="44.31391" lon="6.82942">
        <time>2023-04-10T09:36:54+00:00</time>
        <ele>2528.0</ele>
      </trkpt>
      <trkpt lat="44.31391" lon="6.82942">
        <time>2023-04-10T09:36:55+00:00</time>
        <ele>2528.0</ele>
      </trkpt>
      <trkpt lat="44.31391" lon="6.82942">
        <time>2023-04-10T09:36:56+00:00</time>
        <ele>2528.0</ele>
      </trkpt>
      <trkpt lat="44.31391" lon="6.82942">
        <time>2023-04-10T09:36:57+00:00</time>
        <ele>2528.0</ele>
      </trkpt>
      <trkpt lat="44.31391" lon="6.82942">
        <time>2023-04-10T09:36:58+00:00</time>
        <ele>2528.0</ele>
      </trkpt>
      <trkpt lat="44.31391" lon="6.82939">
        <time>2023-04-10T09:36:59+00:00</time>
        <ele>2529.0</ele>
      </trkpt>
      <trkpt lat="44.31391" lon="6.82939">
        <time>2023-04-10T09:37:00+00:00</time>
        <ele>2529.0</ele>
      </trkpt>
      <trkpt lat="44.31391" lon="6.82939">
        <time>2023-04-10T09:37:01+00:00</time>
        <ele>2529.0</ele>
      </trkpt>
      <trkpt lat="44.31392" lon="6.82937">
        <time>2023-04-10T09:37:02+00:00</time>
        <ele>2530.0</ele>
      </trkpt>
      <trkpt lat="44.31392" lon="6.82937">
        <time>2023-04-10T09:37:03+00:00</time>
        <ele>2530.0</ele>
      </trkpt>
      <trkpt lat="44.31392" lon="6.82937">
        <time>2023-04-10T09:37:04+00:00</time>
        <ele>2530.0</ele>
      </trkpt>
      <trkpt lat="44.31393" lon="6.82934">
        <time>2023-04-10T09:37:05+00:00</time>
        <ele>2531.0</ele>
      </trkpt>
      <trkpt lat="44.31393" lon="6.82934">
        <time>2023-04-10T09:37:06+00:00</time>
        <ele>2531.0</ele>
      </trkpt>
      <trkpt lat="44.31393" lon="6.82934">
        <time>2023-04-10T09:37:07+00:00</time>
        <ele>2531.0</ele>
      </trkpt>
      <trkpt lat="44.31393" lon="6.82934">
        <time>2023-04-10T09:37:08+00:00</time>
        <ele>2531.0</ele>
      </trkpt>
      <trkpt lat="44.31394" lon="6.82932">
        <time>2023-04-10T09:37:09+00:00</time>
        <ele>2532.0</ele>
      </trkpt>
      <trkpt lat="44.31394" lon="6.82932">
        <time>2023-04-10T09:37:10+00:00</time>
        <ele>2532.0</ele>
      </trkpt>
      <trkpt lat="44.31394" lon="6.82932">
        <time>2023-04-10T09:37:11+00:00</time>
        <ele>2532.0</ele>
      </trkpt>
      <trkpt lat="44.31395" lon="6.82928">
        <time>2023-04-10T09:37:12+00:00</time>
        <ele>2533.0</ele>
      </trkpt>
      <trkpt lat="44.31395" lon="6.82928">
        <time>2023-04-10T09:37:13+00:00</time>
        <ele>2533.0</ele>
      </trkpt>
      <trkpt lat="44.31395" lon="6.82928">
        <time>2023-04-10T09:37:14+00:00</time>
        <ele>2533.0</ele>
      </trkpt>
      <trkpt lat="44.31395" lon="6.82928">
        <time>2023-04-10T09:37:15+00:00</time>
        <ele>2533.0</ele>
      </trkpt>
      <trkpt lat="44.31395" lon="6.82925">
        <time>2023-04-10T09:37:16+00:00</time>
        <ele>2534.0</ele>
      </trkpt>
      <trkpt lat="44.31395" lon="6.82925">
        <time>2023-04-10T09:37:17+00:00</time>
        <ele>2534.0</ele>
      </trkpt>
      <trkpt lat="44.31395" lon="6.82925">
        <time>2023-04-10T09:37:18+00:00</time>
        <ele>2534.0</ele>
      </trkpt>
      <trkpt lat="44.31395" lon="6.82923">
        <time>2023-04-10T09:37:19+00:00</time>
        <ele>2534.0</ele>
      </trkpt>
      <trkpt lat="44.31395" lon="6.82923">
        <time>2023-04-10T09:37:20+00:00</time>
        <ele>2534.0</ele>
      </trkpt>
      <trkpt lat="44.31395" lon="6.82923">
        <time>2023-04-10T09:37:21+00:00</time>
        <ele>2534.0</ele>
      </trkpt>
      <trkpt lat="44.31395" lon="6.8292">
        <time>2023-04-10T09:37:22+00:00</time>
        <ele>2535.0</ele>
      </trkpt>
      <trkpt lat="44.31395" lon="6.8292">
        <time>2023-04-10T09:37:23+00:00</time>
        <ele>2535.0</ele>
      </trkpt>
      <trkpt lat="44.31395" lon="6.8292">
        <time>2023-04-10T09:37:24+00:00</time>
        <ele>2535.0</ele>
      </trkpt>
      <trkpt lat="44.31396" lon="6.82917">
        <time>2023-04-10T09:37:25+00:00</time>
        <ele>2536.0</ele>
      </trkpt>
      <trkpt lat="44.31396" lon="6.82917">
        <time>2023-04-10T09:37:26+00:00</time>
        <ele>2536.0</ele>
      </trkpt>
      <trkpt lat="44.31396" lon="6.82917">
        <time>2023-04-10T09:37:27+00:00</time>
        <ele>2536.0</ele>
      </trkpt>
      <trkpt lat="44.31396" lon="6.82913">
        <time>2023-04-10T09:37:28+00:00</time>
        <ele>2537.0</ele>
      </trkpt>
      <trkpt lat="44.31396" lon="6.82913">
        <time>2023-04-10T09:37:29+00:00</time>
        <ele>2537.0</ele>
      </trkpt>
      <trkpt lat="44.31396" lon="6.82913">
        <time>2023-04-10T09:37:30+00:00</time>
        <ele>2537.0</ele>
      </trkpt>
      <trkpt lat="44.31396" lon="6.82911">
        <time>2023-04-10T09:37:31+00:00</time>
        <ele>2538.0</ele>
      </trkpt>
      <trkpt lat="44.31396" lon="6.82911">
        <time>2023-04-10T09:37:32+00:00</time>
        <ele>2538.0</ele>
      </trkpt>
      <trkpt lat="44.31396" lon="6.82911">
        <time>2023-04-10T09:37:33+00:00</time>
        <ele>2538.0</ele>
      </trkpt>
      <trkpt lat="44.31396" lon="6.82911">
        <time>2023-04-10T09:37:34+00:00</time>
        <ele>2538.0</ele>
      </trkpt>
      <trkpt lat="44.31396" lon="6.82907">
        <time>2023-04-10T09:37:35+00:00</time>
        <ele>2539.0</ele>
      </trkpt>
      <trkpt lat="44.31396" lon="6.82907">
        <time>2023-04-10T09:37:36+00:00</time>
        <ele>2539.0</ele>
      </trkpt>
      <trkpt lat="44.31396" lon="6.82907">
        <time>2023-04-10T09:37:37+00:00</time>
        <ele>2539.0</ele>
      </trkpt>
      <trkpt lat="44.31396" lon="6.82907">
        <time>2023-04-10T09:37:38+00:00</time>
        <ele>2539.0</ele>
      </trkpt>
      <trkpt lat="44.31396" lon="6.82907">
        <time>2023-04-10T09:37:39+00:00</time>
        <ele>2539.0</ele>
      </trkpt>
      <trkpt lat="44.31396" lon="6.82907">
        <time>2023-04-10T09:37:40+00:00</time>
        <ele>2539.0</ele>
      </trkpt>
      <trkpt lat="44.31396" lon="6.82907">
        <time>2023-04-10T09:37:41+00:00</time>
        <ele>2539.0</ele>
      </trkpt>
      <trkpt lat="44.31396" lon="6.82907">
        <time>2023-04-10T09:37:42+00:00</time>
        <ele>2539.0</ele>
      </trkpt>
      <trkpt lat="44.31396" lon="6.82907">
        <time>2023-04-10T09:37:43+00:00</time>
        <ele>2539.0</ele>
      </trkpt>
      <trkpt lat="44.31396" lon="6.82907">
        <time>2023-04-10T09:37:44+00:00</time>
        <ele>2539.0</ele>
      </trkpt>
      <trkpt lat="44.31396" lon="6.82907">
        <time>2023-04-10T09:37:45+00:00</time>
        <ele>2539.0</ele>
      </trkpt>
      <trkpt lat="44.31396" lon="6.82907">
        <time>2023-04-10T09:37:46+00:00</time>
        <ele>2539.0</ele>
      </trkpt>
      <trkpt lat="44.31396" lon="6.82907">
        <time>2023-04-10T09:37:47+00:00</time>
        <ele>2539.0</ele>
      </trkpt>
      <trkpt lat="44.31396" lon="6.82907">
        <time>2023-04-10T09:37:48+00:00</time>
        <ele>2539.0</ele>
      </trkpt>
      <trkpt lat="44.31396" lon="6.82907">
        <time>2023-04-10T09:37:49+00:00</time>
        <ele>2539.0</ele>
      </trkpt>
      <trkpt lat="44.31396" lon="6.82907">
        <time>2023-04-10T09:37:50+00:00</time>
        <ele>2539.0</ele>
      </trkpt>
      <trkpt lat="44.31396" lon="6.82907">
        <time>2023-04-10T09:37:51+00:00</time>
        <ele>2539.0</ele>
      </trkpt>
      <trkpt lat="44.31396" lon="6.82907">
        <time>2023-04-10T09:37:52+00:00</time>
        <ele>2539.0</ele>
      </trkpt>
      <trkpt lat="44.31396" lon="6.82907">
        <time>2023-04-10T09:37:53+00:00</time>
        <ele>2539.0</ele>
      </trkpt>
      <trkpt lat="44.31396" lon="6.82907">
        <time>2023-04-10T09:37:54+00:00</time>
        <ele>2539.0</ele>
      </trkpt>
      <trkpt lat="44.31396" lon="6.82907">
        <time>2023-04-10T09:37:55+00:00</time>
        <ele>2539.0</ele>
      </trkpt>
      <trkpt lat="44.31396" lon="6.82907">
        <time>2023-04-10T09:37:56+00:00</time>
        <ele>2539.0</ele>
      </trkpt>
      <trkpt lat="44.31396" lon="6.82907">
        <time>2023-04-10T09:37:57+00:00</time>
        <ele>2539.0</ele>
      </trkpt>
      <trkpt lat="44.31396" lon="6.82907">
        <time>2023-04-10T09:37:58+00:00</time>
        <ele>2539.0</ele>
      </trkpt>
      <trkpt lat="44.31396" lon="6.82907">
        <time>2023-04-10T09:37:59+00:00</time>
        <ele>2539.0</ele>
      </trkpt>
      <trkpt lat="44.31396" lon="6.82907">
        <time>2023-04-10T09:38:00+00:00</time>
        <ele>2539.0</ele>
      </trkpt>
      <trkpt lat="44.31396" lon="6.82907">
        <time>2023-04-10T09:38:01+00:00</time>
        <ele>2539.0</ele>
      </trkpt>
      <trkpt lat="44.31396" lon="6.82907">
        <time>2023-04-10T09:38:02+00:00</time>
        <ele>2539.0</ele>
      </trkpt>
      <trkpt lat="44.31396" lon="6.82907">
        <time>2023-04-10T09:38:03+00:00</time>
        <ele>2539.0</ele>
      </trkpt>
      <trkpt lat="44.31396" lon="6.82907">
        <time>2023-04-10T09:38:04+00:00</time>
        <ele>2539.0</ele>
      </trkpt>
      <trkpt lat="44.31396" lon="6.82907">
        <time>2023-04-10T09:38:05+00:00</time>
        <ele>2539.0</ele>
      </trkpt>
      <trkpt lat="44.31396" lon="6.82907">
        <time>2023-04-10T09:38:06+00:00</time>
        <ele>2539.0</ele>
      </trkpt>
      <trkpt lat="44.31396" lon="6.82907">
        <time>2023-04-10T09:38:07+00:00</time>
        <ele>2539.0</ele>
      </trkpt>
      <trkpt lat="44.31396" lon="6.82907">
        <time>2023-04-10T09:38:08+00:00</time>
        <ele>2539.0</ele>
      </trkpt>
      <trkpt lat="44.31396" lon="6.82907">
        <time>2023-04-10T09:38:09+00:00</time>
        <ele>2539.0</ele>
      </trkpt>
      <trkpt lat="44.31396" lon="6.82907">
        <time>2023-04-10T09:38:10+00:00</time>
        <ele>2539.0</ele>
      </trkpt>
      <trkpt lat="44.31396" lon="6.82907">
        <time>2023-04-10T09:38:11+00:00</time>
        <ele>2539.0</ele>
      </trkpt>
      <trkpt lat="44.31396" lon="6.82907">
        <time>2023-04-10T09:38:12+00:00</time>
        <ele>2539.0</ele>
      </trkpt>
      <trkpt lat="44.31396" lon="6.82907">
        <time>2023-04-10T09:38:13+00:00</time>
        <ele>2539.0</ele>
      </trkpt>
      <trkpt lat="44.31396" lon="6.82907">
        <time>2023-04-10T09:38:14+00:00</time>
        <ele>2539.0</ele>
      </trkpt>
      <trkpt lat="44.31396" lon="6.82907">
        <time>2023-04-10T09:38:15+00:00</time>
        <ele>2539.0</ele>
      </trkpt>
      <trkpt lat="44.31396" lon="6.82907">
        <time>2023-04-10T09:38:16+00:00</time>
        <ele>2539.0</ele>
      </trkpt>
      <trkpt lat="44.31396" lon="6.82907">
        <time>2023-04-10T09:38:17+00:00</time>
        <ele>2539.0</ele>
      </trkpt>
      <trkpt lat="44.31396" lon="6.82907">
        <time>2023-04-10T09:38:18+00:00</time>
        <ele>2539.0</ele>
      </trkpt>
      <trkpt lat="44.31396" lon="6.82907">
        <time>2023-04-10T09:38:19+00:00</time>
        <ele>2539.0</ele>
      </trkpt>
      <trkpt lat="44.31396" lon="6.82907">
        <time>2023-04-10T09:38:20+00:00</time>
        <ele>2539.0</ele>
      </trkpt>
      <trkpt lat="44.31397" lon="6.82905">
        <time>2023-04-10T09:38:21+00:00</time>
        <ele>2539.0</ele>
      </trkpt>
      <trkpt lat="44.31397" lon="6.82905">
        <time>2023-04-10T09:38:22+00:00</time>
        <ele>2539.0</ele>
      </trkpt>
      <trkpt lat="44.31397" lon="6.82905">
        <time>2023-04-10T09:38:23+00:00</time>
        <ele>2539.0</ele>
      </trkpt>
      <trkpt lat="44.31397" lon="6.82905">
        <time>2023-04-10T09:38:24+00:00</time>
        <ele>2539.0</ele>
      </trkpt>
      <trkpt lat="44.31397" lon="6.82905">
        <time>2023-04-10T09:38:25+00:00</time>
        <ele>2539.0</ele>
      </trkpt>
      <trkpt lat="44.31397" lon="6.82905">
        <time>2023-04-10T09:38:26+00:00</time>
        <ele>2539.0</ele>
      </trkpt>
      <trkpt lat="44.31397" lon="6.82905">
        <time>2023-04-10T09:38:27+00:00</time>
        <ele>2539.0</ele>
      </trkpt>
      <trkpt lat="44.31397" lon="6.82905">
        <time>2023-04-10T09:38:28+00:00</time>
        <ele>2539.0</ele>
      </trkpt>
      <trkpt lat="44.31397" lon="6.82905">
        <time>2023-04-10T09:38:29+00:00</time>
        <ele>2539.0</ele>
      </trkpt>
      <trkpt lat="44.31397" lon="6.82905">
        <time>2023-04-10T09:38:30+00:00</time>
        <ele>2539.0</ele>
      </trkpt>
      <trkpt lat="44.31397" lon="6.82905">
        <time>2023-04-10T09:38:31+00:00</time>
        <ele>2539.0</ele>
      </trkpt>
      <trkpt lat="44.31397" lon="6.82905">
        <time>2023-04-10T09:38:32+00:00</time>
        <ele>2539.0</ele>
      </trkpt>
      <trkpt lat="44.31397" lon="6.82905">
        <time>2023-04-10T09:38:33+00:00</time>
        <ele>2539.0</ele>
      </trkpt>
      <trkpt lat="44.31397" lon="6.82905">
        <time>2023-04-10T09:38:34+00:00</time>
        <ele>2539.0</ele>
      </trkpt>
      <trkpt lat="44.31397" lon="6.82905">
        <time>2023-04-10T09:38:35+00:00</time>
        <ele>2539.0</ele>
      </trkpt>
      <trkpt lat="44.31397" lon="6.82905">
        <time>2023-04-10T09:38:36+00:00</time>
        <ele>2539.0</ele>
      </trkpt>
      <trkpt lat="44.31397" lon="6.82905">
        <time>2023-04-10T09:38:37+00:00</time>
        <ele>2539.0</ele>
      </trkpt>
      <trkpt lat="44.31397" lon="6.82905">
        <time>2023-04-10T09:38:38+00:00</time>
        <ele>2539.0</ele>
      </trkpt>
      <trkpt lat="44.31397" lon="6.82905">
        <time>2023-04-10T09:38:39+00:00</time>
        <ele>2539.0</ele>
      </trkpt>
      <trkpt lat="44.31397" lon="6.82905">
        <time>2023-04-10T09:38:40+00:00</time>
        <ele>2539.0</ele>
      </trkpt>
      <trkpt lat="44.31397" lon="6.82905">
        <time>2023-04-10T09:38:41+00:00</time>
        <ele>2539.0</ele>
      </trkpt>
      <trkpt lat="44.31397" lon="6.82905">
        <time>2023-04-10T09:38:42+00:00</time>
        <ele>2539.0</ele>
      </trkpt>
      <trkpt lat="44.31397" lon="6.82905">
        <time>2023-04-10T09:38:43+00:00</time>
        <ele>2539.0</ele>
      </trkpt>
      <trkpt lat="44.31395" lon="6.829">
        <time>2023-04-10T09:38:44+00:00</time>
        <ele>2541.0</ele>
      </trkpt>
      <trkpt lat="44.31395" lon="6.829">
        <time>2023-04-10T09:38:45+00:00</time>
        <ele>2541.0</ele>
      </trkpt>
      <trkpt lat="44.31395" lon="6.82897">
        <time>2023-04-10T09:38:46+00:00</time>
        <ele>2541.0</ele>
      </trkpt>
      <trkpt lat="44.31395" lon="6.82897">
        <time>2023-04-10T09:38:47+00:00</time>
        <ele>2541.0</ele>
      </trkpt>
      <trkpt lat="44.31394" lon="6.82893">
        <time>2023-04-10T09:38:48+00:00</time>
        <ele>2542.0</ele>
      </trkpt>
      <trkpt lat="44.31394" lon="6.82893">
        <time>2023-04-10T09:38:49+00:00</time>
        <ele>2542.0</ele>
      </trkpt>
      <trkpt lat="44.31394" lon="6.82889">
        <time>2023-04-10T09:38:50+00:00</time>
        <ele>2543.0</ele>
      </trkpt>
      <trkpt lat="44.31394" lon="6.82889">
        <time>2023-04-10T09:38:51+00:00</time>
        <ele>2543.0</ele>
      </trkpt>
      <trkpt lat="44.31394" lon="6.82885">
        <time>2023-04-10T09:38:52+00:00</time>
        <ele>2544.0</ele>
      </trkpt>
      <trkpt lat="44.31394" lon="6.82885">
        <time>2023-04-10T09:38:53+00:00</time>
        <ele>2544.0</ele>
      </trkpt>
      <trkpt lat="44.31395" lon="6.82882">
        <time>2023-04-10T09:38:54+00:00</time>
        <ele>2544.0</ele>
      </trkpt>
      <trkpt lat="44.31395" lon="6.82882">
        <time>2023-04-10T09:38:55+00:00</time>
        <ele>2544.0</ele>
      </trkpt>
      <trkpt lat="44.31395" lon="6.82882">
        <time>2023-04-10T09:38:56+00:00</time>
        <ele>2544.0</ele>
      </trkpt>
      <trkpt lat="44.31395" lon="6.82879">
        <time>2023-04-10T09:38:57+00:00</time>
        <ele>2545.0</ele>
      </trkpt>
      <trkpt lat="44.31395" lon="6.82879">
        <time>2023-04-10T09:38:58+00:00</time>
        <ele>2545.0</ele>
      </trkpt>
      <trkpt lat="44.31395" lon="6.82879">
        <time>2023-04-10T09:38:59+00:00</time>
        <ele>2545.0</ele>
      </trkpt>
      <trkpt lat="44.31395" lon="6.82879">
        <time>2023-04-10T09:39:00+00:00</time>
        <ele>2545.0</ele>
      </trkpt>
      <trkpt lat="44.31395" lon="6.82876">
        <time>2023-04-10T09:39:01+00:00</time>
        <ele>2545.0</ele>
      </trkpt>
      <trkpt lat="44.31395" lon="6.82876">
        <time>2023-04-10T09:39:02+00:00</time>
        <ele>2545.0</ele>
      </trkpt>
      <trkpt lat="44.31395" lon="6.82876">
        <time>2023-04-10T09:39:03+00:00</time>
        <ele>2545.0</ele>
      </trkpt>
      <trkpt lat="44.31395" lon="6.82873">
        <time>2023-04-10T09:39:04+00:00</time>
        <ele>2546.0</ele>
      </trkpt>
      <trkpt lat="44.31395" lon="6.82873">
        <time>2023-04-10T09:39:05+00:00</time>
        <ele>2546.0</ele>
      </trkpt>
      <trkpt lat="44.31395" lon="6.82873">
        <time>2023-04-10T09:39:06+00:00</time>
        <ele>2546.0</ele>
      </trkpt>
      <trkpt lat="44.31395" lon="6.8287">
        <time>2023-04-10T09:39:07+00:00</time>
        <ele>2547.0</ele>
      </trkpt>
      <trkpt lat="44.31395" lon="6.8287">
        <time>2023-04-10T09:39:08+00:00</time>
        <ele>2547.0</ele>
      </trkpt>
      <trkpt lat="44.31395" lon="6.8287">
        <time>2023-04-10T09:39:09+00:00</time>
        <ele>2547.0</ele>
      </trkpt>
      <trkpt lat="44.31395" lon="6.8287">
        <time>2023-04-10T09:39:10+00:00</time>
        <ele>2547.0</ele>
      </trkpt>
      <trkpt lat="44.31395" lon="6.82867">
        <time>2023-04-10T09:39:11+00:00</time>
        <ele>2547.0</ele>
      </trkpt>
      <trkpt lat="44.31395" lon="6.82867">
        <time>2023-04-10T09:39:12+00:00</time>
        <ele>2547.0</ele>
      </trkpt>
      <trkpt lat="44.31395" lon="6.82867">
        <time>2023-04-10T09:39:13+00:00</time>
        <ele>2547.0</ele>
      </trkpt>
      <trkpt lat="44.31396" lon="6.82864">
        <time>2023-04-10T09:39:14+00:00</time>
        <ele>2548.0</ele>
      </trkpt>
      <trkpt lat="44.31396" lon="6.82864">
        <time>2023-04-10T09:39:15+00:00</time>
        <ele>2548.0</ele>
      </trkpt>
      <trkpt lat="44.31396" lon="6.82864">
        <time>2023-04-10T09:39:16+00:00</time>
        <ele>2548.0</ele>
      </trkpt>
      <trkpt lat="44.31396" lon="6.82862">
        <time>2023-04-10T09:39:17+00:00</time>
        <ele>2548.0</ele>
      </trkpt>
      <trkpt lat="44.31396" lon="6.82862">
        <time>2023-04-10T09:39:18+00:00</time>
        <ele>2548.0</ele>
      </trkpt>
      <trkpt lat="44.31396" lon="6.82862">
        <time>2023-04-10T09:39:19+00:00</time>
        <ele>2548.0</ele>
      </trkpt>
      <trkpt lat="44.31396" lon="6.82862">
        <time>2023-04-10T09:39:20+00:00</time>
        <ele>2548.0</ele>
      </trkpt>
      <trkpt lat="44.31397" lon="6.82859">
        <time>2023-04-10T09:39:21+00:00</time>
        <ele>2549.0</ele>
      </trkpt>
      <trkpt lat="44.31397" lon="6.82859">
        <time>2023-04-10T09:39:22+00:00</time>
        <ele>2549.0</ele>
      </trkpt>
      <trkpt lat="44.31397" lon="6.82859">
        <time>2023-04-10T09:39:23+00:00</time>
        <ele>2549.0</ele>
      </trkpt>
      <trkpt lat="44.31398" lon="6.82857">
        <time>2023-04-10T09:39:24+00:00</time>
        <ele>2550.0</ele>
      </trkpt>
      <trkpt lat="44.31398" lon="6.82857">
        <time>2023-04-10T09:39:25+00:00</time>
        <ele>2550.0</ele>
      </trkpt>
      <trkpt lat="44.31398" lon="6.82857">
        <time>2023-04-10T09:39:26+00:00</time>
        <ele>2550.0</ele>
      </trkpt>
      <trkpt lat="44.31398" lon="6.82857">
        <time>2023-04-10T09:39:27+00:00</time>
        <ele>2550.0</ele>
      </trkpt>
      <trkpt lat="44.31399" lon="6.82854">
        <time>2023-04-10T09:39:28+00:00</time>
        <ele>2550.0</ele>
      </trkpt>
      <trkpt lat="44.31399" lon="6.82854">
        <time>2023-04-10T09:39:29+00:00</time>
        <ele>2550.0</ele>
      </trkpt>
      <trkpt lat="44.31399" lon="6.82854">
        <time>2023-04-10T09:39:30+00:00</time>
        <ele>2550.0</ele>
      </trkpt>
      <trkpt lat="44.31401" lon="6.82852">
        <time>2023-04-10T09:39:31+00:00</time>
        <ele>2551.0</ele>
      </trkpt>
      <trkpt lat="44.31401" lon="6.82852">
        <time>2023-04-10T09:39:32+00:00</time>
        <ele>2551.0</ele>
      </trkpt>
      <trkpt lat="44.31401" lon="6.82852">
        <time>2023-04-10T09:39:33+00:00</time>
        <ele>2551.0</ele>
      </trkpt>
      <trkpt lat="44.31402" lon="6.8285">
        <time>2023-04-10T09:39:34+00:00</time>
        <ele>2552.0</ele>
      </trkpt>
      <trkpt lat="44.31402" lon="6.8285">
        <time>2023-04-10T09:39:35+00:00</time>
        <ele>2552.0</ele>
      </trkpt>
      <trkpt lat="44.31402" lon="6.8285">
        <time>2023-04-10T09:39:36+00:00</time>
        <ele>2552.0</ele>
      </trkpt>
      <trkpt lat="44.31402" lon="6.8285">
        <time>2023-04-10T09:39:37+00:00</time>
        <ele>2552.0</ele>
      </trkpt>
      <trkpt lat="44.31403" lon="6.82847">
        <time>2023-04-10T09:39:38+00:00</time>
        <ele>2552.0</ele>
      </trkpt>
      <trkpt lat="44.31403" lon="6.82847">
        <time>2023-04-10T09:39:39+00:00</time>
        <ele>2552.0</ele>
      </trkpt>
      <trkpt lat="44.31403" lon="6.82847">
        <time>2023-04-10T09:39:40+00:00</time>
        <ele>2552.0</ele>
      </trkpt>
      <trkpt lat="44.31404" lon="6.82845">
        <time>2023-04-10T09:39:41+00:00</time>
        <ele>2553.0</ele>
      </trkpt>
      <trkpt lat="44.31404" lon="6.82845">
        <time>2023-04-10T09:39:42+00:00</time>
        <ele>2553.0</ele>
      </trkpt>
      <trkpt lat="44.31404" lon="6.82845">
        <time>2023-04-10T09:39:43+00:00</time>
        <ele>2553.0</ele>
      </trkpt>
      <trkpt lat="44.31404" lon="6.82845">
        <time>2023-04-10T09:39:44+00:00</time>
        <ele>2553.0</ele>
      </trkpt>
      <trkpt lat="44.31406" lon="6.82843">
        <time>2023-04-10T09:39:45+00:00</time>
        <ele>2554.0</ele>
      </trkpt>
      <trkpt lat="44.31406" lon="6.82843">
        <time>2023-04-10T09:39:46+00:00</time>
        <ele>2554.0</ele>
      </trkpt>
      <trkpt lat="44.31406" lon="6.82843">
        <time>2023-04-10T09:39:47+00:00</time>
        <ele>2554.0</ele>
      </trkpt>
      <trkpt lat="44.31406" lon="6.82843">
        <time>2023-04-10T09:39:48+00:00</time>
        <ele>2554.0</ele>
      </trkpt>
      <trkpt lat="44.31408" lon="6.82841">
        <time>2023-04-10T09:39:49+00:00</time>
        <ele>2554.0</ele>
      </trkpt>
      <trkpt lat="44.31408" lon="6.82841">
        <time>2023-04-10T09:39:50+00:00</time>
        <ele>2554.0</ele>
      </trkpt>
      <trkpt lat="44.31408" lon="6.82841">
        <time>2023-04-10T09:39:51+00:00</time>
        <ele>2554.0</ele>
      </trkpt>
      <trkpt lat="44.31408" lon="6.82841">
        <time>2023-04-10T09:39:52+00:00</time>
        <ele>2554.0</ele>
      </trkpt>
      <trkpt lat="44.3141" lon="6.82839">
        <time>2023-04-10T09:39:53+00:00</time>
        <ele>2555.0</ele>
      </trkpt>
      <trkpt lat="44.3141" lon="6.82839">
        <time>2023-04-10T09:39:54+00:00</time>
        <ele>2555.0</ele>
      </trkpt>
      <trkpt lat="44.3141" lon="6.82839">
        <time>2023-04-10T09:39:55+00:00</time>
        <ele>2555.0</ele>
      </trkpt>
      <trkpt lat="44.3141" lon="6.82839">
        <time>2023-04-10T09:39:56+00:00</time>
        <ele>2555.0</ele>
      </trkpt>
      <trkpt lat="44.3141" lon="6.82839">
        <time>2023-04-10T09:39:57+00:00</time>
        <ele>2555.0</ele>
      </trkpt>
      <trkpt lat="44.31412" lon="6.82837">
        <time>2023-04-10T09:39:58+00:00</time>
        <ele>2556.0</ele>
      </trkpt>
      <trkpt lat="44.31412" lon="6.82837">
        <time>2023-04-10T09:39:59+00:00</time>
        <ele>2556.0</ele>
      </trkpt>
      <trkpt lat="44.31412" lon="6.82837">
        <time>2023-04-10T09:40:02+00:00</time>
        <ele>2556.0</ele>
      </trkpt>
      <trkpt lat="44.31413" lon="6.82835">
        <time>2023-04-10T09:40:03+00:00</time>
        <ele>2556.0</ele>
      </trkpt>
      <trkpt lat="44.31413" lon="6.82835">
        <time>2023-04-10T09:40:04+00:00</time>
        <ele>2556.0</ele>
      </trkpt>
      <trkpt lat="44.31413" lon="6.82835">
        <time>2023-04-10T09:40:05+00:00</time>
        <ele>2556.0</ele>
      </trkpt>
      <trkpt lat="44.31413" lon="6.82835">
        <time>2023-04-10T09:40:06+00:00</time>
        <ele>2556.0</ele>
      </trkpt>
      <trkpt lat="44.31415" lon="6.82833">
        <time>2023-04-10T09:40:07+00:00</time>
        <ele>2556.0</ele>
      </trkpt>
      <trkpt lat="44.31415" lon="6.82833">
        <time>2023-04-10T09:40:08+00:00</time>
        <ele>2556.0</ele>
      </trkpt>
      <trkpt lat="44.31415" lon="6.82833">
        <time>2023-04-10T09:40:09+00:00</time>
        <ele>2556.0</ele>
      </trkpt>
      <trkpt lat="44.31415" lon="6.82833">
        <time>2023-04-10T09:40:10+00:00</time>
        <ele>2556.0</ele>
      </trkpt>
      <trkpt lat="44.31416" lon="6.82831">
        <time>2023-04-10T09:40:11+00:00</time>
        <ele>2556.0</ele>
      </trkpt>
      <trkpt lat="44.31416" lon="6.82831">
        <time>2023-04-10T09:40:12+00:00</time>
        <ele>2556.0</ele>
      </trkpt>
      <trkpt lat="44.31416" lon="6.82831">
        <time>2023-04-10T09:40:13+00:00</time>
        <ele>2556.0</ele>
      </trkpt>
      <trkpt lat="44.31416" lon="6.82831">
        <time>2023-04-10T09:40:14+00:00</time>
        <ele>2556.0</ele>
      </trkpt>
      <trkpt lat="44.31418" lon="6.8283">
        <time>2023-04-10T09:40:15+00:00</time>
        <ele>2556.0</ele>
      </trkpt>
      <trkpt lat="44.31418" lon="6.8283">
        <time>2023-04-10T09:40:16+00:00</time>
        <ele>2556.0</ele>
      </trkpt>
      <trkpt lat="44.31418" lon="6.8283">
        <time>2023-04-10T09:40:17+00:00</time>
        <ele>2556.0</ele>
      </trkpt>
      <trkpt lat="44.31418" lon="6.8283">
        <time>2023-04-10T09:40:18+00:00</time>
        <ele>2556.0</ele>
      </trkpt>
      <trkpt lat="44.31418" lon="6.8283">
        <time>2023-04-10T09:40:19+00:00</time>
        <ele>2556.0</ele>
      </trkpt>
      <trkpt lat="44.31418" lon="6.8283">
        <time>2023-04-10T09:40:20+00:00</time>
        <ele>2556.0</ele>
      </trkpt>
      <trkpt lat="44.31418" lon="6.8283">
        <time>2023-04-10T09:40:21+00:00</time>
        <ele>2556.0</ele>
      </trkpt>
      <trkpt lat="44.31418" lon="6.8283">
        <time>2023-04-10T09:40:22+00:00</time>
        <ele>2556.0</ele>
      </trkpt>
      <trkpt lat="44.31418" lon="6.8283">
        <time>2023-04-10T09:40:23+00:00</time>
        <ele>2556.0</ele>
      </trkpt>
      <trkpt lat="44.31418" lon="6.8283">
        <time>2023-04-10T09:40:24+00:00</time>
        <ele>2556.0</ele>
      </trkpt>
      <trkpt lat="44.31418" lon="6.8283">
        <time>2023-04-10T09:40:25+00:00</time>
        <ele>2556.0</ele>
      </trkpt>
      <trkpt lat="44.31418" lon="6.8283">
        <time>2023-04-10T09:40:26+00:00</time>
        <ele>2556.0</ele>
      </trkpt>
      <trkpt lat="44.31418" lon="6.8283">
        <time>2023-04-10T09:40:27+00:00</time>
        <ele>2556.0</ele>
      </trkpt>
      <trkpt lat="44.31418" lon="6.8283">
        <time>2023-04-10T09:40:28+00:00</time>
        <ele>2556.0</ele>
      </trkpt>
      <trkpt lat="44.31418" lon="6.8283">
        <time>2023-04-10T09:40:29+00:00</time>
        <ele>2556.0</ele>
      </trkpt>
      <trkpt lat="44.31418" lon="6.8283">
        <time>2023-04-10T09:40:30+00:00</time>
        <ele>2556.0</ele>
      </trkpt>
      <trkpt lat="44.31418" lon="6.8283">
        <time>2023-04-10T09:40:31+00:00</time>
        <ele>2556.0</ele>
      </trkpt>
      <trkpt lat="44.31418" lon="6.8283">
        <time>2023-04-10T09:40:32+00:00</time>
        <ele>2556.0</ele>
      </trkpt>
      <trkpt lat="44.31418" lon="6.8283">
        <time>2023-04-10T09:40:33+00:00</time>
        <ele>2556.0</ele>
      </trkpt>
      <trkpt lat="44.31418" lon="6.8283">
        <time>2023-04-10T09:40:34+00:00</time>
        <ele>2556.0</ele>
      </trkpt>
      <trkpt lat="44.31418" lon="6.8283">
        <time>2023-04-10T09:40:35+00:00</time>
        <ele>2556.0</ele>
      </trkpt>
      <trkpt lat="44.31418" lon="6.8283">
        <time>2023-04-10T09:40:36+00:00</time>
        <ele>2556.0</ele>
      </trkpt>
      <trkpt lat="44.31418" lon="6.8283">
        <time>2023-04-10T09:40:39+00:00</time>
        <ele>2556.0</ele>
      </trkpt>
      <trkpt lat="44.31418" lon="6.8283">
        <time>2023-04-10T09:40:40+00:00</time>
        <ele>2556.0</ele>
      </trkpt>
      <trkpt lat="44.31418" lon="6.8283">
        <time>2023-04-10T09:40:41+00:00</time>
        <ele>2556.0</ele>
      </trkpt>
      <trkpt lat="44.31418" lon="6.8283">
        <time>2023-04-10T09:40:42+00:00</time>
        <ele>2556.0</ele>
      </trkpt>
      <trkpt lat="44.31418" lon="6.8283">
        <time>2023-04-10T09:40:43+00:00</time>
        <ele>2556.0</ele>
      </trkpt>
      <trkpt lat="44.31418" lon="6.8283">
        <time>2023-04-10T09:40:44+00:00</time>
        <ele>2556.0</ele>
      </trkpt>
      <trkpt lat="44.31418" lon="6.8283">
        <time>2023-04-10T09:40:45+00:00</time>
        <ele>2556.0</ele>
      </trkpt>
      <trkpt lat="44.31418" lon="6.8283">
        <time>2023-04-10T09:40:46+00:00</time>
        <ele>2556.0</ele>
      </trkpt>
      <trkpt lat="44.31418" lon="6.8283">
        <time>2023-04-10T09:40:47+00:00</time>
        <ele>2556.0</ele>
      </trkpt>
      <trkpt lat="44.31418" lon="6.8283">
        <time>2023-04-10T09:40:48+00:00</time>
        <ele>2556.0</ele>
      </trkpt>
      <trkpt lat="44.31418" lon="6.8283">
        <time>2023-04-10T09:40:49+00:00</time>
        <ele>2556.0</ele>
      </trkpt>
      <trkpt lat="44.31418" lon="6.8283">
        <time>2023-04-10T09:40:50+00:00</time>
        <ele>2556.0</ele>
      </trkpt>
      <trkpt lat="44.31418" lon="6.8283">
        <time>2023-04-10T09:40:51+00:00</time>
        <ele>2556.0</ele>
      </trkpt>
      <trkpt lat="44.31418" lon="6.8283">
        <time>2023-04-10T09:40:52+00:00</time>
        <ele>2556.0</ele>
      </trkpt>
      <trkpt lat="44.31418" lon="6.8283">
        <time>2023-04-10T09:40:53+00:00</time>
        <ele>2556.0</ele>
      </trkpt>
      <trkpt lat="44.31418" lon="6.8283">
        <time>2023-04-10T09:40:54+00:00</time>
        <ele>2556.0</ele>
      </trkpt>
      <trkpt lat="44.31418" lon="6.8283">
        <time>2023-04-10T09:40:55+00:00</time>
        <ele>2556.0</ele>
      </trkpt>
      <trkpt lat="44.31418" lon="6.8283">
        <time>2023-04-10T09:40:56+00:00</time>
        <ele>2556.0</ele>
      </trkpt>
      <trkpt lat="44.31418" lon="6.8283">
        <time>2023-04-10T09:40:57+00:00</time>
        <ele>2556.0</ele>
      </trkpt>
      <trkpt lat="44.31418" lon="6.8283">
        <time>2023-04-10T09:40:58+00:00</time>
        <ele>2556.0</ele>
      </trkpt>
      <trkpt lat="44.31418" lon="6.8283">
        <time>2023-04-10T09:40:59+00:00</time>
        <ele>2556.0</ele>
      </trkpt>
      <trkpt lat="44.31418" lon="6.8283">
        <time>2023-04-10T09:41:00+00:00</time>
        <ele>2556.0</ele>
      </trkpt>
      <trkpt lat="44.31418" lon="6.8283">
        <time>2023-04-10T09:41:01+00:00</time>
        <ele>2556.0</ele>
      </trkpt>
      <trkpt lat="44.31418" lon="6.8283">
        <time>2023-04-10T09:41:02+00:00</time>
        <ele>2556.0</ele>
      </trkpt>
      <trkpt lat="44.31418" lon="6.8283">
        <time>2023-04-10T09:41:03+00:00</time>
        <ele>2556.0</ele>
      </trkpt>
      <trkpt lat="44.31418" lon="6.8283">
        <time>2023-04-10T09:41:04+00:00</time>
        <ele>2556.0</ele>
      </trkpt>
      <trkpt lat="44.31418" lon="6.8283">
        <time>2023-04-10T09:41:05+00:00</time>
        <ele>2556.0</ele>
      </trkpt>
      <trkpt lat="44.31418" lon="6.8283">
        <time>2023-04-10T09:41:06+00:00</time>
        <ele>2556.0</ele>
      </trkpt>
      <trkpt lat="44.31418" lon="6.8283">
        <time>2023-04-10T09:41:07+00:00</time>
        <ele>2556.0</ele>
      </trkpt>
      <trkpt lat="44.31418" lon="6.8283">
        <time>2023-04-10T09:41:08+00:00</time>
        <ele>2556.0</ele>
      </trkpt>
      <trkpt lat="44.31418" lon="6.8283">
        <time>2023-04-10T09:41:09+00:00</time>
        <ele>2556.0</ele>
      </trkpt>
      <trkpt lat="44.31418" lon="6.8283">
        <time>2023-04-10T09:41:10+00:00</time>
        <ele>2556.0</ele>
      </trkpt>
      <trkpt lat="44.31418" lon="6.8283">
        <time>2023-04-10T09:41:11+00:00</time>
        <ele>2556.0</ele>
      </trkpt>
      <trkpt lat="44.31418" lon="6.8283">
        <time>2023-04-10T09:41:12+00:00</time>
        <ele>2556.0</ele>
      </trkpt>
      <trkpt lat="44.31418" lon="6.8283">
        <time>2023-04-10T09:41:13+00:00</time>
        <ele>2556.0</ele>
      </trkpt>
      <trkpt lat="44.31418" lon="6.8283">
        <time>2023-04-10T09:41:14+00:00</time>
        <ele>2556.0</ele>
      </trkpt>
      <trkpt lat="44.31418" lon="6.8283">
        <time>2023-04-10T09:41:15+00:00</time>
        <ele>2556.0</ele>
      </trkpt>
      <trkpt lat="44.31418" lon="6.8283">
        <time>2023-04-10T09:41:16+00:00</time>
        <ele>2556.0</ele>
      </trkpt>
      <trkpt lat="44.31418" lon="6.8283">
        <time>2023-04-10T09:41:17+00:00</time>
        <ele>2556.0</ele>
      </trkpt>
      <trkpt lat="44.31418" lon="6.8283">
        <time>2023-04-10T09:41:18+00:00</time>
        <ele>2556.0</ele>
      </trkpt>
      <trkpt lat="44.31418" lon="6.8283">
        <time>2023-04-10T09:41:19+00:00</time>
        <ele>2556.0</ele>
      </trkpt>
      <trkpt lat="44.31418" lon="6.8283">
        <time>2023-04-10T09:41:20+00:00</time>
        <ele>2556.0</ele>
      </trkpt>
      <trkpt lat="44.31418" lon="6.8283">
        <time>2023-04-10T09:41:21+00:00</time>
        <ele>2556.0</ele>
      </trkpt>
      <trkpt lat="44.31418" lon="6.8283">
        <time>2023-04-10T09:41:22+00:00</time>
        <ele>2556.0</ele>
      </trkpt>
      <trkpt lat="44.31418" lon="6.8283">
        <time>2023-04-10T09:41:23+00:00</time>
        <ele>2556.0</ele>
      </trkpt>
      <trkpt lat="44.31418" lon="6.8283">
        <time>2023-04-10T09:41:24+00:00</time>
        <ele>2556.0</ele>
      </trkpt>
      <trkpt lat="44.31418" lon="6.8283">
        <time>2023-04-10T09:41:25+00:00</time>
        <ele>2556.0</ele>
      </trkpt>
      <trkpt lat="44.31418" lon="6.8283">
        <time>2023-04-10T09:41:26+00:00</time>
        <ele>2556.0</ele>
      </trkpt>
      <trkpt lat="44.31418" lon="6.8283">
        <time>2023-04-10T09:41:27+00:00</time>
        <ele>2556.0</ele>
      </trkpt>
      <trkpt lat="44.31418" lon="6.8283">
        <time>2023-04-10T09:41:28+00:00</time>
        <ele>2556.0</ele>
      </trkpt>
      <trkpt lat="44.31418" lon="6.8283">
        <time>2023-04-10T09:41:29+00:00</time>
        <ele>2556.0</ele>
      </trkpt>
      <trkpt lat="44.31418" lon="6.8283">
        <time>2023-04-10T09:41:30+00:00</time>
        <ele>2556.0</ele>
      </trkpt>
      <trkpt lat="44.31418" lon="6.8283">
        <time>2023-04-10T09:41:31+00:00</time>
        <ele>2556.0</ele>
      </trkpt>
      <trkpt lat="44.31418" lon="6.8283">
        <time>2023-04-10T09:41:32+00:00</time>
        <ele>2556.0</ele>
      </trkpt>
      <trkpt lat="44.31418" lon="6.8283">
        <time>2023-04-10T09:41:33+00:00</time>
        <ele>2556.0</ele>
      </trkpt>
      <trkpt lat="44.31418" lon="6.8283">
        <time>2023-04-10T09:41:34+00:00</time>
        <ele>2556.0</ele>
      </trkpt>
      <trkpt lat="44.31418" lon="6.8283">
        <time>2023-04-10T09:41:35+00:00</time>
        <ele>2556.0</ele>
      </trkpt>
      <trkpt lat="44.31418" lon="6.8283">
        <time>2023-04-10T09:41:36+00:00</time>
        <ele>2556.0</ele>
      </trkpt>
      <trkpt lat="44.31418" lon="6.8283">
        <time>2023-04-10T09:41:37+00:00</time>
        <ele>2556.0</ele>
      </trkpt>
      <trkpt lat="44.31418" lon="6.8283">
        <time>2023-04-10T09:41:38+00:00</time>
        <ele>2556.0</ele>
      </trkpt>
      <trkpt lat="44.31418" lon="6.8283">
        <time>2023-04-10T09:41:39+00:00</time>
        <ele>2556.0</ele>
      </trkpt>
      <trkpt lat="44.31418" lon="6.8283">
        <time>2023-04-10T09:41:40+00:00</time>
        <ele>2556.0</ele>
      </trkpt>
      <trkpt lat="44.31418" lon="6.8283">
        <time>2023-04-10T09:41:41+00:00</time>
        <ele>2556.0</ele>
      </trkpt>
      <trkpt lat="44.31418" lon="6.8283">
        <time>2023-04-10T09:41:42+00:00</time>
        <ele>2556.0</ele>
      </trkpt>
      <trkpt lat="44.31418" lon="6.8283">
        <time>2023-04-10T09:41:43+00:00</time>
        <ele>2556.0</ele>
      </trkpt>
      <trkpt lat="44.31418" lon="6.8283">
        <time>2023-04-10T09:41:44+00:00</time>
        <ele>2556.0</ele>
      </trkpt>
      <trkpt lat="44.31418" lon="6.8283">
        <time>2023-04-10T09:41:45+00:00</time>
        <ele>2556.0</ele>
      </trkpt>
      <trkpt lat="44.31418" lon="6.8283">
        <time>2023-04-10T09:41:46+00:00</time>
        <ele>2556.0</ele>
      </trkpt>
      <trkpt lat="44.31418" lon="6.8283">
        <time>2023-04-10T09:41:47+00:00</time>
        <ele>2556.0</ele>
      </trkpt>
      <trkpt lat="44.31418" lon="6.8283">
        <time>2023-04-10T09:41:48+00:00</time>
        <ele>2556.0</ele>
      </trkpt>
      <trkpt lat="44.31418" lon="6.8283">
        <time>2023-04-10T09:41:49+00:00</time>
        <ele>2556.0</ele>
      </trkpt>
      <trkpt lat="44.31418" lon="6.8283">
        <time>2023-04-10T09:41:50+00:00</time>
        <ele>2556.0</ele>
      </trkpt>
      <trkpt lat="44.31418" lon="6.8283">
        <time>2023-04-10T09:41:51+00:00</time>
        <ele>2556.0</ele>
      </trkpt>
      <trkpt lat="44.31418" lon="6.8283">
        <time>2023-04-10T09:41:52+00:00</time>
        <ele>2556.0</ele>
      </trkpt>
      <trkpt lat="44.31418" lon="6.8283">
        <time>2023-04-10T09:41:53+00:00</time>
        <ele>2556.0</ele>
      </trkpt>
      <trkpt lat="44.31418" lon="6.8283">
        <time>2023-04-10T09:41:54+00:00</time>
        <ele>2556.0</ele>
      </trkpt>
      <trkpt lat="44.31418" lon="6.8283">
        <time>2023-04-10T09:41:55+00:00</time>
        <ele>2556.0</ele>
      </trkpt>
      <trkpt lat="44.31418" lon="6.8283">
        <time>2023-04-10T09:41:56+00:00</time>
        <ele>2556.0</ele>
      </trkpt>
      <trkpt lat="44.31418" lon="6.8283">
        <time>2023-04-10T09:41:57+00:00</time>
        <ele>2556.0</ele>
      </trkpt>
      <trkpt lat="44.31418" lon="6.8283">
        <time>2023-04-10T09:41:58+00:00</time>
        <ele>2556.0</ele>
      </trkpt>
      <trkpt lat="44.31418" lon="6.8283">
        <time>2023-04-10T09:41:59+00:00</time>
        <ele>2556.0</ele>
      </trkpt>
      <trkpt lat="44.31418" lon="6.8283">
        <time>2023-04-10T09:42:00+00:00</time>
        <ele>2556.0</ele>
      </trkpt>
      <trkpt lat="44.31418" lon="6.8283">
        <time>2023-04-10T09:42:01+00:00</time>
        <ele>2556.0</ele>
      </trkpt>
      <trkpt lat="44.31418" lon="6.8283">
        <time>2023-04-10T09:42:02+00:00</time>
        <ele>2556.0</ele>
      </trkpt>
      <trkpt lat="44.31418" lon="6.8283">
        <time>2023-04-10T09:42:03+00:00</time>
        <ele>2556.0</ele>
      </trkpt>
      <trkpt lat="44.31418" lon="6.8283">
        <time>2023-04-10T09:42:04+00:00</time>
        <ele>2556.0</ele>
      </trkpt>
      <trkpt lat="44.31418" lon="6.8283">
        <time>2023-04-10T09:42:05+00:00</time>
        <ele>2556.0</ele>
      </trkpt>
      <trkpt lat="44.31418" lon="6.8283">
        <time>2023-04-10T09:42:06+00:00</time>
        <ele>2556.0</ele>
      </trkpt>
      <trkpt lat="44.31418" lon="6.8283">
        <time>2023-04-10T09:42:07+00:00</time>
        <ele>2556.0</ele>
      </trkpt>
      <trkpt lat="44.31418" lon="6.8283">
        <time>2023-04-10T09:42:08+00:00</time>
        <ele>2556.0</ele>
      </trkpt>
      <trkpt lat="44.31418" lon="6.8283">
        <time>2023-04-10T09:42:09+00:00</time>
        <ele>2556.0</ele>
      </trkpt>
      <trkpt lat="44.31418" lon="6.8283">
        <time>2023-04-10T09:42:10+00:00</time>
        <ele>2556.0</ele>
      </trkpt>
      <trkpt lat="44.31418" lon="6.8283">
        <time>2023-04-10T09:42:11+00:00</time>
        <ele>2556.0</ele>
      </trkpt>
      <trkpt lat="44.31418" lon="6.8283">
        <time>2023-04-10T09:42:12+00:00</time>
        <ele>2556.0</ele>
      </trkpt>
      <trkpt lat="44.31418" lon="6.8283">
        <time>2023-04-10T09:42:13+00:00</time>
        <ele>2556.0</ele>
      </trkpt>
      <trkpt lat="44.31418" lon="6.8283">
        <time>2023-04-10T09:42:14+00:00</time>
        <ele>2556.0</ele>
      </trkpt>
      <trkpt lat="44.31418" lon="6.8283">
        <time>2023-04-10T09:42:15+00:00</time>
        <ele>2556.0</ele>
      </trkpt>
      <trkpt lat="44.31418" lon="6.8283">
        <time>2023-04-10T09:42:16+00:00</time>
        <ele>2556.0</ele>
      </trkpt>
      <trkpt lat="44.31418" lon="6.8283">
        <time>2023-04-10T09:42:17+00:00</time>
        <ele>2556.0</ele>
      </trkpt>
      <trkpt lat="44.31418" lon="6.8283">
        <time>2023-04-10T09:42:18+00:00</time>
        <ele>2556.0</ele>
      </trkpt>
      <trkpt lat="44.31418" lon="6.8283">
        <time>2023-04-10T09:42:19+00:00</time>
        <ele>2556.0</ele>
      </trkpt>
      <trkpt lat="44.31418" lon="6.8283">
        <time>2023-04-10T09:42:20+00:00</time>
        <ele>2556.0</ele>
      </trkpt>
      <trkpt lat="44.31418" lon="6.8283">
        <time>2023-04-10T09:42:21+00:00</time>
        <ele>2556.0</ele>
      </trkpt>
      <trkpt lat="44.31418" lon="6.8283">
        <time>2023-04-10T09:42:22+00:00</time>
        <ele>2556.0</ele>
      </trkpt>
      <trkpt lat="44.31418" lon="6.8283">
        <time>2023-04-10T09:42:23+00:00</time>
        <ele>2556.0</ele>
      </trkpt>
      <trkpt lat="44.31418" lon="6.8283">
        <time>2023-04-10T09:42:24+00:00</time>
        <ele>2556.0</ele>
      </trkpt>
      <trkpt lat="44.31418" lon="6.8283">
        <time>2023-04-10T09:42:25+00:00</time>
        <ele>2556.0</ele>
      </trkpt>
      <trkpt lat="44.31418" lon="6.8283">
        <time>2023-04-10T09:42:26+00:00</time>
        <ele>2556.0</ele>
      </trkpt>
      <trkpt lat="44.31418" lon="6.8283">
        <time>2023-04-10T09:42:27+00:00</time>
        <ele>2556.0</ele>
      </trkpt>
      <trkpt lat="44.31418" lon="6.8283">
        <time>2023-04-10T09:42:28+00:00</time>
        <ele>2556.0</ele>
      </trkpt>
      <trkpt lat="44.31418" lon="6.8283">
        <time>2023-04-10T09:42:29+00:00</time>
        <ele>2556.0</ele>
      </trkpt>
      <trkpt lat="44.31418" lon="6.8283">
        <time>2023-04-10T09:42:30+00:00</time>
        <ele>2556.0</ele>
      </trkpt>
      <trkpt lat="44.31418" lon="6.8283">
        <time>2023-04-10T09:42:31+00:00</time>
        <ele>2556.0</ele>
      </trkpt>
      <trkpt lat="44.31418" lon="6.8283">
        <time>2023-04-10T09:42:32+00:00</time>
        <ele>2556.0</ele>
      </trkpt>
      <trkpt lat="44.31418" lon="6.8283">
        <time>2023-04-10T09:42:33+00:00</time>
        <ele>2556.0</ele>
      </trkpt>
      <trkpt lat="44.31418" lon="6.8283">
        <time>2023-04-10T09:42:34+00:00</time>
        <ele>2556.0</ele>
      </trkpt>
      <trkpt lat="44.31418" lon="6.8283">
        <time>2023-04-10T09:42:35+00:00</time>
        <ele>2556.0</ele>
      </trkpt>
      <trkpt lat="44.31418" lon="6.8283">
        <time>2023-04-10T09:42:36+00:00</time>
        <ele>2556.0</ele>
      </trkpt>
      <trkpt lat="44.31418" lon="6.8283">
        <time>2023-04-10T09:42:37+00:00</time>
        <ele>2556.0</ele>
      </trkpt>
      <trkpt lat="44.31418" lon="6.8283">
        <time>2023-04-10T09:42:38+00:00</time>
        <ele>2556.0</ele>
      </trkpt>
      <trkpt lat="44.31418" lon="6.8283">
        <time>2023-04-10T09:42:39+00:00</time>
        <ele>2556.0</ele>
      </trkpt>
      <trkpt lat="44.31418" lon="6.8283">
        <time>2023-04-10T09:42:40+00:00</time>
        <ele>2556.0</ele>
      </trkpt>
      <trkpt lat="44.31418" lon="6.8283">
        <time>2023-04-10T09:42:41+00:00</time>
        <ele>2556.0</ele>
      </trkpt>
      <trkpt lat="44.31418" lon="6.8283">
        <time>2023-04-10T09:42:42+00:00</time>
        <ele>2556.0</ele>
      </trkpt>
      <trkpt lat="44.31418" lon="6.8283">
        <time>2023-04-10T09:42:43+00:00</time>
        <ele>2556.0</ele>
      </trkpt>
      <trkpt lat="44.31418" lon="6.8283">
        <time>2023-04-10T09:42:44+00:00</time>
        <ele>2556.0</ele>
      </trkpt>
      <trkpt lat="44.31418" lon="6.8283">
        <time>2023-04-10T09:42:45+00:00</time>
        <ele>2556.0</ele>
      </trkpt>
      <trkpt lat="44.31418" lon="6.8283">
        <time>2023-04-10T09:42:46+00:00</time>
        <ele>2556.0</ele>
      </trkpt>
      <trkpt lat="44.31418" lon="6.8283">
        <time>2023-04-10T09:42:47+00:00</time>
        <ele>2556.0</ele>
      </trkpt>
      <trkpt lat="44.31418" lon="6.8283">
        <time>2023-04-10T09:42:48+00:00</time>
        <ele>2556.0</ele>
      </trkpt>
      <trkpt lat="44.31418" lon="6.8283">
        <time>2023-04-10T09:42:49+00:00</time>
        <ele>2556.0</ele>
      </trkpt>
      <trkpt lat="44.31418" lon="6.8283">
        <time>2023-04-10T09:42:50+00:00</time>
        <ele>2556.0</ele>
      </trkpt>
      <trkpt lat="44.31418" lon="6.8283">
        <time>2023-04-10T09:42:51+00:00</time>
        <ele>2556.0</ele>
      </trkpt>
      <trkpt lat="44.31418" lon="6.8283">
        <time>2023-04-10T09:42:52+00:00</time>
        <ele>2556.0</ele>
      </trkpt>
      <trkpt lat="44.31418" lon="6.8283">
        <time>2023-04-10T09:42:53+00:00</time>
        <ele>2556.0</ele>
      </trkpt>
      <trkpt lat="44.31418" lon="6.8283">
        <time>2023-04-10T09:42:54+00:00</time>
        <ele>2556.0</ele>
      </trkpt>
      <trkpt lat="44.31418" lon="6.8283">
        <time>2023-04-10T09:42:55+00:00</time>
        <ele>2556.0</ele>
      </trkpt>
      <trkpt lat="44.31418" lon="6.8283">
        <time>2023-04-10T09:42:56+00:00</time>
        <ele>2556.0</ele>
      </trkpt>
      <trkpt lat="44.31418" lon="6.8283">
        <time>2023-04-10T09:42:57+00:00</time>
        <ele>2556.0</ele>
      </trkpt>
      <trkpt lat="44.31418" lon="6.8283">
        <time>2023-04-10T09:42:58+00:00</time>
        <ele>2556.0</ele>
      </trkpt>
      <trkpt lat="44.31418" lon="6.8283">
        <time>2023-04-10T09:42:59+00:00</time>
        <ele>2556.0</ele>
      </trkpt>
      <trkpt lat="44.31418" lon="6.8283">
        <time>2023-04-10T09:43:00+00:00</time>
        <ele>2556.0</ele>
      </trkpt>
      <trkpt lat="44.31418" lon="6.8283">
        <time>2023-04-10T09:43:01+00:00</time>
        <ele>2556.0</ele>
      </trkpt>
      <trkpt lat="44.31418" lon="6.8283">
        <time>2023-04-10T09:43:02+00:00</time>
        <ele>2556.0</ele>
      </trkpt>
      <trkpt lat="44.31418" lon="6.8283">
        <time>2023-04-10T09:43:03+00:00</time>
        <ele>2556.0</ele>
      </trkpt>
      <trkpt lat="44.31418" lon="6.8283">
        <time>2023-04-10T09:43:04+00:00</time>
        <ele>2556.0</ele>
      </trkpt>
      <trkpt lat="44.31418" lon="6.8283">
        <time>2023-04-10T09:43:05+00:00</time>
        <ele>2556.0</ele>
      </trkpt>
      <trkpt lat="44.31418" lon="6.8283">
        <time>2023-04-10T09:43:06+00:00</time>
        <ele>2556.0</ele>
      </trkpt>
      <trkpt lat="44.31418" lon="6.8283">
        <time>2023-04-10T09:43:07+00:00</time>
        <ele>2556.0</ele>
      </trkpt>
      <trkpt lat="44.31418" lon="6.8283">
        <time>2023-04-10T09:43:08+00:00</time>
        <ele>2556.0</ele>
      </trkpt>
      <trkpt lat="44.31418" lon="6.8283">
        <time>2023-04-10T09:43:09+00:00</time>
        <ele>2556.0</ele>
      </trkpt>
      <trkpt lat="44.31418" lon="6.8283">
        <time>2023-04-10T09:43:10+00:00</time>
        <ele>2556.0</ele>
      </trkpt>
      <trkpt lat="44.31418" lon="6.8283">
        <time>2023-04-10T09:43:11+00:00</time>
        <ele>2556.0</ele>
      </trkpt>
      <trkpt lat="44.31418" lon="6.8283">
        <time>2023-04-10T09:43:12+00:00</time>
        <ele>2556.0</ele>
      </trkpt>
      <trkpt lat="44.31418" lon="6.8283">
        <time>2023-04-10T09:43:13+00:00</time>
        <ele>2556.0</ele>
      </trkpt>
      <trkpt lat="44.31418" lon="6.8283">
        <time>2023-04-10T09:43:14+00:00</time>
        <ele>2556.0</ele>
      </trkpt>
      <trkpt lat="44.31418" lon="6.8283">
        <time>2023-04-10T09:43:15+00:00</time>
        <ele>2556.0</ele>
      </trkpt>
      <trkpt lat="44.31418" lon="6.8283">
        <time>2023-04-10T09:43:16+00:00</time>
        <ele>2556.0</ele>
      </trkpt>
      <trkpt lat="44.31418" lon="6.8283">
        <time>2023-04-10T09:43:17+00:00</time>
        <ele>2556.0</ele>
      </trkpt>
      <trkpt lat="44.31418" lon="6.8283">
        <time>2023-04-10T09:43:18+00:00</time>
        <ele>2556.0</ele>
      </trkpt>
      <trkpt lat="44.31418" lon="6.8283">
        <time>2023-04-10T09:43:19+00:00</time>
        <ele>2556.0</ele>
      </trkpt>
      <trkpt lat="44.31418" lon="6.8283">
        <time>2023-04-10T09:43:20+00:00</time>
        <ele>2556.0</ele>
      </trkpt>
      <trkpt lat="44.31418" lon="6.8283">
        <time>2023-04-10T09:43:21+00:00</time>
        <ele>2556.0</ele>
      </trkpt>
      <trkpt lat="44.31418" lon="6.8283">
        <time>2023-04-10T09:43:22+00:00</time>
        <ele>2556.0</ele>
      </trkpt>
      <trkpt lat="44.31418" lon="6.8283">
        <time>2023-04-10T09:43:23+00:00</time>
        <ele>2556.0</ele>
      </trkpt>
      <trkpt lat="44.31418" lon="6.8283">
        <time>2023-04-10T09:43:24+00:00</time>
        <ele>2556.0</ele>
      </trkpt>
      <trkpt lat="44.31418" lon="6.8283">
        <time>2023-04-10T09:43:25+00:00</time>
        <ele>2556.0</ele>
      </trkpt>
      <trkpt lat="44.31418" lon="6.8283">
        <time>2023-04-10T09:43:26+00:00</time>
        <ele>2556.0</ele>
      </trkpt>
      <trkpt lat="44.31418" lon="6.8283">
        <time>2023-04-10T09:43:27+00:00</time>
        <ele>2556.0</ele>
      </trkpt>
      <trkpt lat="44.31418" lon="6.8283">
        <time>2023-04-10T09:43:28+00:00</time>
        <ele>2556.0</ele>
      </trkpt>
      <trkpt lat="44.31418" lon="6.8283">
        <time>2023-04-10T09:43:29+00:00</time>
        <ele>2556.0</ele>
      </trkpt>
      <trkpt lat="44.31418" lon="6.8283">
        <time>2023-04-10T09:43:30+00:00</time>
        <ele>2556.0</ele>
      </trkpt>
      <trkpt lat="44.31418" lon="6.8283">
        <time>2023-04-10T09:43:31+00:00</time>
        <ele>2556.0</ele>
      </trkpt>
      <trkpt lat="44.31418" lon="6.8283">
        <time>2023-04-10T09:43:32+00:00</time>
        <ele>2556.0</ele>
      </trkpt>
      <trkpt lat="44.31418" lon="6.8283">
        <time>2023-04-10T09:43:33+00:00</time>
        <ele>2556.0</ele>
      </trkpt>
      <trkpt lat="44.31418" lon="6.8283">
        <time>2023-04-10T09:43:34+00:00</time>
        <ele>2556.0</ele>
      </trkpt>
      <trkpt lat="44.31418" lon="6.8283">
        <time>2023-04-10T09:43:35+00:00</time>
        <ele>2556.0</ele>
      </trkpt>
      <trkpt lat="44.31418" lon="6.8283">
        <time>2023-04-10T09:43:36+00:00</time>
        <ele>2556.0</ele>
      </trkpt>
      <trkpt lat="44.31418" lon="6.8283">
        <time>2023-04-10T09:43:37+00:00</time>
        <ele>2556.0</ele>
      </trkpt>
      <trkpt lat="44.31418" lon="6.8283">
        <time>2023-04-10T09:43:38+00:00</time>
        <ele>2556.0</ele>
      </trkpt>
      <trkpt lat="44.31418" lon="6.8283">
        <time>2023-04-10T09:43:39+00:00</time>
        <ele>2556.0</ele>
      </trkpt>
      <trkpt lat="44.31418" lon="6.8283">
        <time>2023-04-10T09:43:40+00:00</time>
        <ele>2556.0</ele>
      </trkpt>
      <trkpt lat="44.31418" lon="6.8283">
        <time>2023-04-10T09:43:41+00:00</time>
        <ele>2556.0</ele>
      </trkpt>
      <trkpt lat="44.31418" lon="6.8283">
        <time>2023-04-10T09:43:42+00:00</time>
        <ele>2556.0</ele>
      </trkpt>
      <trkpt lat="44.31418" lon="6.8283">
        <time>2023-04-10T09:43:43+00:00</time>
        <ele>2556.0</ele>
      </trkpt>
      <trkpt lat="44.31418" lon="6.8283">
        <time>2023-04-10T09:43:44+00:00</time>
        <ele>2556.0</ele>
      </trkpt>
      <trkpt lat="44.31418" lon="6.8283">
        <time>2023-04-10T09:43:45+00:00</time>
        <ele>2556.0</ele>
      </trkpt>
      <trkpt lat="44.31418" lon="6.8283">
        <time>2023-04-10T09:43:46+00:00</time>
        <ele>2556.0</ele>
      </trkpt>
      <trkpt lat="44.31418" lon="6.8283">
        <time>2023-04-10T09:43:47+00:00</time>
        <ele>2556.0</ele>
      </trkpt>
      <trkpt lat="44.31418" lon="6.8283">
        <time>2023-04-10T09:43:48+00:00</time>
        <ele>2556.0</ele>
      </trkpt>
      <trkpt lat="44.31418" lon="6.8283">
        <time>2023-04-10T09:43:49+00:00</time>
        <ele>2556.0</ele>
      </trkpt>
      <trkpt lat="44.31418" lon="6.8283">
        <time>2023-04-10T09:43:50+00:00</time>
        <ele>2556.0</ele>
      </trkpt>
      <trkpt lat="44.31418" lon="6.8283">
        <time>2023-04-10T09:43:51+00:00</time>
        <ele>2556.0</ele>
      </trkpt>
      <trkpt lat="44.31418" lon="6.8283">
        <time>2023-04-10T09:43:52+00:00</time>
        <ele>2556.0</ele>
      </trkpt>
      <trkpt lat="44.31418" lon="6.8283">
        <time>2023-04-10T09:43:53+00:00</time>
        <ele>2556.0</ele>
      </trkpt>
      <trkpt lat="44.31418" lon="6.8283">
        <time>2023-04-10T09:43:54+00:00</time>
        <ele>2556.0</ele>
      </trkpt>
      <trkpt lat="44.31418" lon="6.8283">
        <time>2023-04-10T09:43:55+00:00</time>
        <ele>2556.0</ele>
      </trkpt>
      <trkpt lat="44.31418" lon="6.8283">
        <time>2023-04-10T09:43:56+00:00</time>
        <ele>2556.0</ele>
      </trkpt>
      <trkpt lat="44.31418" lon="6.8283">
        <time>2023-04-10T09:43:57+00:00</time>
        <ele>2556.0</ele>
      </trkpt>
      <trkpt lat="44.31418" lon="6.8283">
        <time>2023-04-10T09:43:58+00:00</time>
        <ele>2556.0</ele>
      </trkpt>
      <trkpt lat="44.31418" lon="6.8283">
        <time>2023-04-10T09:43:59+00:00</time>
        <ele>2556.0</ele>
      </trkpt>
      <trkpt lat="44.31418" lon="6.8283">
        <time>2023-04-10T09:44:00+00:00</time>
        <ele>2556.0</ele>
      </trkpt>
      <trkpt lat="44.31418" lon="6.8283">
        <time>2023-04-10T09:44:01+00:00</time>
        <ele>2556.0</ele>
      </trkpt>
      <trkpt lat="44.31418" lon="6.8283">
        <time>2023-04-10T09:44:02+00:00</time>
        <ele>2556.0</ele>
      </trkpt>
      <trkpt lat="44.31418" lon="6.8283">
        <time>2023-04-10T09:44:03+00:00</time>
        <ele>2556.0</ele>
      </trkpt>
      <trkpt lat="44.31418" lon="6.8283">
        <time>2023-04-10T09:44:04+00:00</time>
        <ele>2556.0</ele>
      </trkpt>
      <trkpt lat="44.31418" lon="6.8283">
        <time>2023-04-10T09:44:05+00:00</time>
        <ele>2556.0</ele>
      </trkpt>
      <trkpt lat="44.31418" lon="6.8283">
        <time>2023-04-10T09:44:06+00:00</time>
        <ele>2556.0</ele>
      </trkpt>
      <trkpt lat="44.31418" lon="6.8283">
        <time>2023-04-10T09:44:07+00:00</time>
        <ele>2556.0</ele>
      </trkpt>
      <trkpt lat="44.31418" lon="6.8283">
        <time>2023-04-10T09:44:08+00:00</time>
        <ele>2556.0</ele>
      </trkpt>
      <trkpt lat="44.31418" lon="6.8283">
        <time>2023-04-10T09:44:09+00:00</time>
        <ele>2556.0</ele>
      </trkpt>
      <trkpt lat="44.31418" lon="6.8283">
        <time>2023-04-10T09:44:10+00:00</time>
        <ele>2556.0</ele>
      </trkpt>
      <trkpt lat="44.31418" lon="6.8283">
        <time>2023-04-10T09:44:11+00:00</time>
        <ele>2556.0</ele>
      </trkpt>
      <trkpt lat="44.31418" lon="6.8283">
        <time>2023-04-10T09:44:12+00:00</time>
        <ele>2556.0</ele>
      </trkpt>
      <trkpt lat="44.31418" lon="6.8283">
        <time>2023-04-10T09:44:13+00:00</time>
        <ele>2556.0</ele>
      </trkpt>
      <trkpt lat="44.31418" lon="6.8283">
        <time>2023-04-10T09:44:14+00:00</time>
        <ele>2556.0</ele>
      </trkpt>
      <trkpt lat="44.31418" lon="6.8283">
        <time>2023-04-10T09:44:15+00:00</time>
        <ele>2556.0</ele>
      </trkpt>
      <trkpt lat="44.31418" lon="6.8283">
        <time>2023-04-10T09:44:16+00:00</time>
        <ele>2556.0</ele>
      </trkpt>
      <trkpt lat="44.31418" lon="6.8283">
        <time>2023-04-10T09:44:17+00:00</time>
        <ele>2556.0</ele>
      </trkpt>
      <trkpt lat="44.31418" lon="6.8283">
        <time>2023-04-10T09:44:18+00:00</time>
        <ele>2556.0</ele>
      </trkpt>
      <trkpt lat="44.31418" lon="6.8283">
        <time>2023-04-10T09:44:19+00:00</time>
        <ele>2556.0</ele>
      </trkpt>
      <trkpt lat="44.31418" lon="6.8283">
        <time>2023-04-10T09:44:20+00:00</time>
        <ele>2556.0</ele>
      </trkpt>
      <trkpt lat="44.31418" lon="6.8283">
        <time>2023-04-10T09:44:21+00:00</time>
        <ele>2556.0</ele>
      </trkpt>
      <trkpt lat="44.31418" lon="6.8283">
        <time>2023-04-10T09:44:22+00:00</time>
        <ele>2556.0</ele>
      </trkpt>
      <trkpt lat="44.31418" lon="6.8283">
        <time>2023-04-10T09:44:23+00:00</time>
        <ele>2556.0</ele>
      </trkpt>
      <trkpt lat="44.31418" lon="6.8283">
        <time>2023-04-10T09:44:24+00:00</time>
        <ele>2556.0</ele>
      </trkpt>
      <trkpt lat="44.31418" lon="6.8283">
        <time>2023-04-10T09:44:25+00:00</time>
        <ele>2556.0</ele>
      </trkpt>
      <trkpt lat="44.31418" lon="6.8283">
        <time>2023-04-10T09:44:26+00:00</time>
        <ele>2556.0</ele>
      </trkpt>
      <trkpt lat="44.31418" lon="6.8283">
        <time>2023-04-10T09:44:27+00:00</time>
        <ele>2556.0</ele>
      </trkpt>
      <trkpt lat="44.31418" lon="6.8283">
        <time>2023-04-10T09:44:28+00:00</time>
        <ele>2556.0</ele>
      </trkpt>
      <trkpt lat="44.31418" lon="6.8283">
        <time>2023-04-10T09:44:29+00:00</time>
        <ele>2556.0</ele>
      </trkpt>
      <trkpt lat="44.31418" lon="6.8283">
        <time>2023-04-10T09:44:30+00:00</time>
        <ele>2556.0</ele>
      </trkpt>
      <trkpt lat="44.31418" lon="6.8283">
        <time>2023-04-10T09:44:31+00:00</time>
        <ele>2556.0</ele>
      </trkpt>
      <trkpt lat="44.31418" lon="6.8283">
        <time>2023-04-10T09:44:32+00:00</time>
        <ele>2556.0</ele>
      </trkpt>
      <trkpt lat="44.31418" lon="6.8283">
        <time>2023-04-10T09:44:33+00:00</time>
        <ele>2556.0</ele>
      </trkpt>
      <trkpt lat="44.31418" lon="6.8283">
        <time>2023-04-10T09:44:34+00:00</time>
        <ele>2556.0</ele>
      </trkpt>
      <trkpt lat="44.31418" lon="6.8283">
        <time>2023-04-10T09:44:35+00:00</time>
        <ele>2556.0</ele>
      </trkpt>
      <trkpt lat="44.31418" lon="6.8283">
        <time>2023-04-10T09:44:36+00:00</time>
        <ele>2556.0</ele>
      </trkpt>
      <trkpt lat="44.31418" lon="6.8283">
        <time>2023-04-10T09:44:37+00:00</time>
        <ele>2556.0</ele>
      </trkpt>
      <trkpt lat="44.31418" lon="6.8283">
        <time>2023-04-10T09:44:38+00:00</time>
        <ele>2556.0</ele>
      </trkpt>
      <trkpt lat="44.31418" lon="6.8283">
        <time>2023-04-10T09:44:39+00:00</time>
        <ele>2556.0</ele>
      </trkpt>
      <trkpt lat="44.31418" lon="6.8283">
        <time>2023-04-10T09:44:40+00:00</time>
        <ele>2556.0</ele>
      </trkpt>
      <trkpt lat="44.31418" lon="6.8283">
        <time>2023-04-10T09:44:41+00:00</time>
        <ele>2556.0</ele>
      </trkpt>
      <trkpt lat="44.31418" lon="6.8283">
        <time>2023-04-10T09:44:42+00:00</time>
        <ele>2556.0</ele>
      </trkpt>
      <trkpt lat="44.31418" lon="6.8283">
        <time>2023-04-10T09:44:43+00:00</time>
        <ele>2556.0</ele>
      </trkpt>
      <trkpt lat="44.31418" lon="6.8283">
        <time>2023-04-10T09:44:44+00:00</time>
        <ele>2556.0</ele>
      </trkpt>
      <trkpt lat="44.31418" lon="6.8283">
        <time>2023-04-10T09:44:45+00:00</time>
        <ele>2556.0</ele>
      </trkpt>
      <trkpt lat="44.31418" lon="6.8283">
        <time>2023-04-10T09:44:46+00:00</time>
        <ele>2556.0</ele>
      </trkpt>
      <trkpt lat="44.31418" lon="6.8283">
        <time>2023-04-10T09:44:47+00:00</time>
        <ele>2556.0</ele>
      </trkpt>
      <trkpt lat="44.31418" lon="6.8283">
        <time>2023-04-10T09:44:48+00:00</time>
        <ele>2556.0</ele>
      </trkpt>
      <trkpt lat="44.31418" lon="6.8283">
        <time>2023-04-10T09:44:49+00:00</time>
        <ele>2556.0</ele>
      </trkpt>
      <trkpt lat="44.31418" lon="6.8283">
        <time>2023-04-10T09:44:50+00:00</time>
        <ele>2556.0</ele>
      </trkpt>
      <trkpt lat="44.31418" lon="6.8283">
        <time>2023-04-10T09:44:51+00:00</time>
        <ele>2556.0</ele>
      </trkpt>
      <trkpt lat="44.31418" lon="6.8283">
        <time>2023-04-10T09:44:52+00:00</time>
        <ele>2556.0</ele>
      </trkpt>
      <trkpt lat="44.31418" lon="6.8283">
        <time>2023-04-10T09:44:53+00:00</time>
        <ele>2556.0</ele>
      </trkpt>
      <trkpt lat="44.31418" lon="6.8283">
        <time>2023-04-10T09:44:54+00:00</time>
        <ele>2556.0</ele>
      </trkpt>
      <trkpt lat="44.31418" lon="6.8283">
        <time>2023-04-10T09:44:55+00:00</time>
        <ele>2556.0</ele>
      </trkpt>
      <trkpt lat="44.31418" lon="6.8283">
        <time>2023-04-10T09:44:56+00:00</time>
        <ele>2556.0</ele>
      </trkpt>
      <trkpt lat="44.31418" lon="6.8283">
        <time>2023-04-10T09:44:57+00:00</time>
        <ele>2556.0</ele>
      </trkpt>
      <trkpt lat="44.31418" lon="6.8283">
        <time>2023-04-10T09:44:58+00:00</time>
        <ele>2556.0</ele>
      </trkpt>
      <trkpt lat="44.31418" lon="6.8283">
        <time>2023-04-10T09:44:59+00:00</time>
        <ele>2556.0</ele>
      </trkpt>
      <trkpt lat="44.31418" lon="6.8283">
        <time>2023-04-10T09:45:00+00:00</time>
        <ele>2556.0</ele>
      </trkpt>
      <trkpt lat="44.31418" lon="6.8283">
        <time>2023-04-10T09:45:01+00:00</time>
        <ele>2556.0</ele>
      </trkpt>
      <trkpt lat="44.31418" lon="6.8283">
        <time>2023-04-10T09:45:02+00:00</time>
        <ele>2556.0</ele>
      </trkpt>
      <trkpt lat="44.31418" lon="6.8283">
        <time>2023-04-10T09:45:03+00:00</time>
        <ele>2556.0</ele>
      </trkpt>
      <trkpt lat="44.31418" lon="6.8283">
        <time>2023-04-10T09:45:04+00:00</time>
        <ele>2556.0</ele>
      </trkpt>
      <trkpt lat="44.31418" lon="6.8283">
        <time>2023-04-10T09:45:05+00:00</time>
        <ele>2556.0</ele>
      </trkpt>
      <trkpt lat="44.31418" lon="6.8283">
        <time>2023-04-10T09:45:06+00:00</time>
        <ele>2556.0</ele>
      </trkpt>
      <trkpt lat="44.31418" lon="6.8283">
        <time>2023-04-10T09:45:07+00:00</time>
        <ele>2556.0</ele>
      </trkpt>
      <trkpt lat="44.31418" lon="6.8283">
        <time>2023-04-10T09:45:08+00:00</time>
        <ele>2556.0</ele>
      </trkpt>
      <trkpt lat="44.31418" lon="6.8283">
        <time>2023-04-10T09:45:09+00:00</time>
        <ele>2556.0</ele>
      </trkpt>
      <trkpt lat="44.31418" lon="6.8283">
        <time>2023-04-10T09:45:10+00:00</time>
        <ele>2556.0</ele>
      </trkpt>
      <trkpt lat="44.31418" lon="6.8283">
        <time>2023-04-10T09:45:11+00:00</time>
        <ele>2556.0</ele>
      </trkpt>
      <trkpt lat="44.31418" lon="6.8283">
        <time>2023-04-10T09:45:12+00:00</time>
        <ele>2556.0</ele>
      </trkpt>
      <trkpt lat="44.31418" lon="6.8283">
        <time>2023-04-10T09:45:13+00:00</time>
        <ele>2556.0</ele>
      </trkpt>
      <trkpt lat="44.31418" lon="6.8283">
        <time>2023-04-10T09:45:14+00:00</time>
        <ele>2556.0</ele>
      </trkpt>
      <trkpt lat="44.31418" lon="6.8283">
        <time>2023-04-10T09:45:15+00:00</time>
        <ele>2556.0</ele>
      </trkpt>
      <trkpt lat="44.31418" lon="6.8283">
        <time>2023-04-10T09:45:16+00:00</time>
        <ele>2556.0</ele>
      </trkpt>
      <trkpt lat="44.31418" lon="6.8283">
        <time>2023-04-10T09:45:17+00:00</time>
        <ele>2556.0</ele>
      </trkpt>
      <trkpt lat="44.31418" lon="6.8283">
        <time>2023-04-10T09:45:18+00:00</time>
        <ele>2556.0</ele>
      </trkpt>
      <trkpt lat="44.31418" lon="6.8283">
        <time>2023-04-10T09:45:19+00:00</time>
        <ele>2556.0</ele>
      </trkpt>
      <trkpt lat="44.31418" lon="6.8283">
        <time>2023-04-10T09:45:20+00:00</time>
        <ele>2556.0</ele>
      </trkpt>
      <trkpt lat="44.31418" lon="6.8283">
        <time>2023-04-10T09:45:21+00:00</time>
        <ele>2556.0</ele>
      </trkpt>
      <trkpt lat="44.31418" lon="6.8283">
        <time>2023-04-10T09:45:22+00:00</time>
        <ele>2556.0</ele>
      </trkpt>
      <trkpt lat="44.31418" lon="6.8283">
        <time>2023-04-10T09:45:23+00:00</time>
        <ele>2556.0</ele>
      </trkpt>
      <trkpt lat="44.31418" lon="6.8283">
        <time>2023-04-10T09:45:24+00:00</time>
        <ele>2556.0</ele>
      </trkpt>
      <trkpt lat="44.31418" lon="6.8283">
        <time>2023-04-10T09:45:25+00:00</time>
        <ele>2556.0</ele>
      </trkpt>
      <trkpt lat="44.31418" lon="6.8283">
        <time>2023-04-10T09:45:26+00:00</time>
        <ele>2556.0</ele>
      </trkpt>
      <trkpt lat="44.31418" lon="6.8283">
        <time>2023-04-10T09:45:27+00:00</time>
        <ele>2556.0</ele>
      </trkpt>
      <trkpt lat="44.31418" lon="6.8283">
        <time>2023-04-10T09:45:28+00:00</time>
        <ele>2556.0</ele>
      </trkpt>
      <trkpt lat="44.31418" lon="6.8283">
        <time>2023-04-10T09:45:29+00:00</time>
        <ele>2556.0</ele>
      </trkpt>
      <trkpt lat="44.31418" lon="6.8283">
        <time>2023-04-10T09:45:30+00:00</time>
        <ele>2556.0</ele>
      </trkpt>
      <trkpt lat="44.31418" lon="6.8283">
        <time>2023-04-10T09:45:31+00:00</time>
        <ele>2556.0</ele>
      </trkpt>
      <trkpt lat="44.31418" lon="6.8283">
        <time>2023-04-10T09:45:32+00:00</time>
        <ele>2556.0</ele>
      </trkpt>
      <trkpt lat="44.31418" lon="6.8283">
        <time>2023-04-10T09:45:33+00:00</time>
        <ele>2556.0</ele>
      </trkpt>
      <trkpt lat="44.31418" lon="6.8283">
        <time>2023-04-10T09:45:34+00:00</time>
        <ele>2556.0</ele>
      </trkpt>
      <trkpt lat="44.31418" lon="6.8283">
        <time>2023-04-10T09:45:35+00:00</time>
        <ele>2556.0</ele>
      </trkpt>
      <trkpt lat="44.31418" lon="6.8283">
        <time>2023-04-10T09:45:36+00:00</time>
        <ele>2556.0</ele>
      </trkpt>
      <trkpt lat="44.31418" lon="6.8283">
        <time>2023-04-10T09:45:37+00:00</time>
        <ele>2556.0</ele>
      </trkpt>
      <trkpt lat="44.31418" lon="6.8283">
        <time>2023-04-10T09:45:38+00:00</time>
        <ele>2556.0</ele>
      </trkpt>
      <trkpt lat="44.31418" lon="6.8283">
        <time>2023-04-10T09:45:39+00:00</time>
        <ele>2556.0</ele>
      </trkpt>
      <trkpt lat="44.31418" lon="6.8283">
        <time>2023-04-10T09:45:40+00:00</time>
        <ele>2556.0</ele>
      </trkpt>
      <trkpt lat="44.31418" lon="6.8283">
        <time>2023-04-10T09:45:41+00:00</time>
        <ele>2556.0</ele>
      </trkpt>
      <trkpt lat="44.31418" lon="6.8283">
        <time>2023-04-10T09:45:42+00:00</time>
        <ele>2556.0</ele>
      </trkpt>
      <trkpt lat="44.31418" lon="6.8283">
        <time>2023-04-10T09:45:43+00:00</time>
        <ele>2556.0</ele>
      </trkpt>
      <trkpt lat="44.31418" lon="6.8283">
        <time>2023-04-10T09:45:44+00:00</time>
        <ele>2556.0</ele>
      </trkpt>
      <trkpt lat="44.31418" lon="6.8283">
        <time>2023-04-10T09:45:45+00:00</time>
        <ele>2556.0</ele>
      </trkpt>
      <trkpt lat="44.31418" lon="6.8283">
        <time>2023-04-10T09:45:46+00:00</time>
        <ele>2556.0</ele>
      </trkpt>
      <trkpt lat="44.31418" lon="6.8283">
        <time>2023-04-10T09:45:47+00:00</time>
        <ele>2556.0</ele>
      </trkpt>
      <trkpt lat="44.31418" lon="6.8283">
        <time>2023-04-10T09:45:48+00:00</time>
        <ele>2556.0</ele>
      </trkpt>
      <trkpt lat="44.31418" lon="6.8283">
        <time>2023-04-10T09:45:49+00:00</time>
        <ele>2556.0</ele>
      </trkpt>
      <trkpt lat="44.31418" lon="6.8283">
        <time>2023-04-10T09:45:50+00:00</time>
        <ele>2556.0</ele>
      </trkpt>
      <trkpt lat="44.31418" lon="6.8283">
        <time>2023-04-10T09:45:51+00:00</time>
        <ele>2556.0</ele>
      </trkpt>
      <trkpt lat="44.31418" lon="6.8283">
        <time>2023-04-10T09:45:52+00:00</time>
        <ele>2556.0</ele>
      </trkpt>
      <trkpt lat="44.31418" lon="6.8283">
        <time>2023-04-10T09:45:53+00:00</time>
        <ele>2556.0</ele>
      </trkpt>
      <trkpt lat="44.31418" lon="6.8283">
        <time>2023-04-10T09:45:54+00:00</time>
        <ele>2556.0</ele>
      </trkpt>
      <trkpt lat="44.31418" lon="6.8283">
        <time>2023-04-10T09:45:55+00:00</time>
        <ele>2556.0</ele>
      </trkpt>
      <trkpt lat="44.31418" lon="6.8283">
        <time>2023-04-10T09:45:56+00:00</time>
        <ele>2556.0</ele>
      </trkpt>
      <trkpt lat="44.31418" lon="6.8283">
        <time>2023-04-10T09:45:57+00:00</time>
        <ele>2556.0</ele>
      </trkpt>
      <trkpt lat="44.31418" lon="6.8283">
        <time>2023-04-10T09:45:58+00:00</time>
        <ele>2556.0</ele>
      </trkpt>
      <trkpt lat="44.31418" lon="6.8283">
        <time>2023-04-10T09:45:59+00:00</time>
        <ele>2556.0</ele>
      </trkpt>
      <trkpt lat="44.31418" lon="6.8283">
        <time>2023-04-10T09:46:00+00:00</time>
        <ele>2556.0</ele>
      </trkpt>
      <trkpt lat="44.31418" lon="6.8283">
        <time>2023-04-10T09:46:01+00:00</time>
        <ele>2556.0</ele>
      </trkpt>
      <trkpt lat="44.31418" lon="6.8283">
        <time>2023-04-10T09:46:02+00:00</time>
        <ele>2556.0</ele>
      </trkpt>
      <trkpt lat="44.31418" lon="6.8283">
        <time>2023-04-10T09:46:03+00:00</time>
        <ele>2556.0</ele>
      </trkpt>
      <trkpt lat="44.31418" lon="6.8283">
        <time>2023-04-10T09:46:04+00:00</time>
        <ele>2556.0</ele>
      </trkpt>
      <trkpt lat="44.31418" lon="6.8283">
        <time>2023-04-10T09:46:05+00:00</time>
        <ele>2556.0</ele>
      </trkpt>
      <trkpt lat="44.31418" lon="6.8283">
        <time>2023-04-10T09:46:06+00:00</time>
        <ele>2556.0</ele>
      </trkpt>
      <trkpt lat="44.31418" lon="6.8283">
        <time>2023-04-10T09:46:07+00:00</time>
        <ele>2556.0</ele>
      </trkpt>
      <trkpt lat="44.31418" lon="6.8283">
        <time>2023-04-10T09:46:08+00:00</time>
        <ele>2556.0</ele>
      </trkpt>
      <trkpt lat="44.31418" lon="6.8283">
        <time>2023-04-10T09:46:09+00:00</time>
        <ele>2556.0</ele>
      </trkpt>
      <trkpt lat="44.31418" lon="6.8283">
        <time>2023-04-10T09:46:10+00:00</time>
        <ele>2556.0</ele>
      </trkpt>
      <trkpt lat="44.31418" lon="6.8283">
        <time>2023-04-10T09:46:11+00:00</time>
        <ele>2556.0</ele>
      </trkpt>
      <trkpt lat="44.31418" lon="6.8283">
        <time>2023-04-10T09:46:12+00:00</time>
        <ele>2556.0</ele>
      </trkpt>
      <trkpt lat="44.31418" lon="6.8283">
        <time>2023-04-10T09:46:13+00:00</time>
        <ele>2556.0</ele>
      </trkpt>
      <trkpt lat="44.31418" lon="6.8283">
        <time>2023-04-10T09:46:14+00:00</time>
        <ele>2556.0</ele>
      </trkpt>
      <trkpt lat="44.31418" lon="6.8283">
        <time>2023-04-10T09:46:15+00:00</time>
        <ele>2556.0</ele>
      </trkpt>
      <trkpt lat="44.31418" lon="6.8283">
        <time>2023-04-10T09:46:16+00:00</time>
        <ele>2556.0</ele>
      </trkpt>
      <trkpt lat="44.31418" lon="6.8283">
        <time>2023-04-10T09:46:17+00:00</time>
        <ele>2556.0</ele>
      </trkpt>
      <trkpt lat="44.31418" lon="6.8283">
        <time>2023-04-10T09:46:18+00:00</time>
        <ele>2556.0</ele>
      </trkpt>
      <trkpt lat="44.31418" lon="6.8283">
        <time>2023-04-10T09:46:19+00:00</time>
        <ele>2556.0</ele>
      </trkpt>
      <trkpt lat="44.31418" lon="6.8283">
        <time>2023-04-10T09:46:20+00:00</time>
        <ele>2556.0</ele>
      </trkpt>
      <trkpt lat="44.31418" lon="6.8283">
        <time>2023-04-10T09:46:21+00:00</time>
        <ele>2556.0</ele>
      </trkpt>
      <trkpt lat="44.31418" lon="6.8283">
        <time>2023-04-10T09:46:22+00:00</time>
        <ele>2556.0</ele>
      </trkpt>
      <trkpt lat="44.31418" lon="6.8283">
        <time>2023-04-10T09:46:23+00:00</time>
        <ele>2556.0</ele>
      </trkpt>
      <trkpt lat="44.31418" lon="6.8283">
        <time>2023-04-10T09:46:24+00:00</time>
        <ele>2556.0</ele>
      </trkpt>
      <trkpt lat="44.31418" lon="6.8283">
        <time>2023-04-10T09:46:25+00:00</time>
        <ele>2556.0</ele>
      </trkpt>
      <trkpt lat="44.31418" lon="6.8283">
        <time>2023-04-10T09:46:26+00:00</time>
        <ele>2556.0</ele>
      </trkpt>
      <trkpt lat="44.31418" lon="6.8283">
        <time>2023-04-10T09:46:27+00:00</time>
        <ele>2556.0</ele>
      </trkpt>
      <trkpt lat="44.31418" lon="6.8283">
        <time>2023-04-10T09:46:28+00:00</time>
        <ele>2556.0</ele>
      </trkpt>
      <trkpt lat="44.31418" lon="6.8283">
        <time>2023-04-10T09:46:29+00:00</time>
        <ele>2556.0</ele>
      </trkpt>
      <trkpt lat="44.31418" lon="6.8283">
        <time>2023-04-10T09:46:30+00:00</time>
        <ele>2556.0</ele>
      </trkpt>
      <trkpt lat="44.31418" lon="6.8283">
        <time>2023-04-10T09:46:31+00:00</time>
        <ele>2556.0</ele>
      </trkpt>
      <trkpt lat="44.31418" lon="6.8283">
        <time>2023-04-10T09:46:32+00:00</time>
        <ele>2556.0</ele>
      </trkpt>
      <trkpt lat="44.31418" lon="6.8283">
        <time>2023-04-10T09:46:33+00:00</time>
        <ele>2556.0</ele>
      </trkpt>
      <trkpt lat="44.31418" lon="6.8283">
        <time>2023-04-10T09:46:34+00:00</time>
        <ele>2556.0</ele>
      </trkpt>
      <trkpt lat="44.31418" lon="6.8283">
        <time>2023-04-10T09:46:35+00:00</time>
        <ele>2556.0</ele>
      </trkpt>
      <trkpt lat="44.31418" lon="6.8283">
        <time>2023-04-10T09:46:36+00:00</time>
        <ele>2556.0</ele>
      </trkpt>
      <trkpt lat="44.31418" lon="6.8283">
        <time>2023-04-10T09:46:37+00:00</time>
        <ele>2556.0</ele>
      </trkpt>
      <trkpt lat="44.31418" lon="6.8283">
        <time>2023-04-10T09:46:38+00:00</time>
        <ele>2556.0</ele>
      </trkpt>
      <trkpt lat="44.31418" lon="6.8283">
        <time>2023-04-10T09:46:39+00:00</time>
        <ele>2556.0</ele>
      </trkpt>
      <trkpt lat="44.31418" lon="6.8283">
        <time>2023-04-10T09:46:40+00:00</time>
        <ele>2556.0</ele>
      </trkpt>
      <trkpt lat="44.31418" lon="6.8283">
        <time>2023-04-10T09:46:41+00:00</time>
        <ele>2556.0</ele>
      </trkpt>
      <trkpt lat="44.31418" lon="6.8283">
        <time>2023-04-10T09:46:42+00:00</time>
        <ele>2556.0</ele>
      </trkpt>
      <trkpt lat="44.31418" lon="6.8283">
        <time>2023-04-10T09:46:43+00:00</time>
        <ele>2556.0</ele>
      </trkpt>
      <trkpt lat="44.31418" lon="6.8283">
        <time>2023-04-10T09:46:44+00:00</time>
        <ele>2556.0</ele>
      </trkpt>
      <trkpt lat="44.31418" lon="6.8283">
        <time>2023-04-10T09:46:45+00:00</time>
        <ele>2556.0</ele>
      </trkpt>
      <trkpt lat="44.31418" lon="6.8283">
        <time>2023-04-10T09:46:46+00:00</time>
        <ele>2556.0</ele>
      </trkpt>
      <trkpt lat="44.31418" lon="6.8283">
        <time>2023-04-10T09:46:47+00:00</time>
        <ele>2556.0</ele>
      </trkpt>
      <trkpt lat="44.31418" lon="6.8283">
        <time>2023-04-10T09:46:48+00:00</time>
        <ele>2556.0</ele>
      </trkpt>
      <trkpt lat="44.31418" lon="6.8283">
        <time>2023-04-10T09:46:49+00:00</time>
        <ele>2556.0</ele>
      </trkpt>
      <trkpt lat="44.31418" lon="6.8283">
        <time>2023-04-10T09:46:50+00:00</time>
        <ele>2556.0</ele>
      </trkpt>
      <trkpt lat="44.31418" lon="6.8283">
        <time>2023-04-10T09:46:51+00:00</time>
        <ele>2556.0</ele>
      </trkpt>
      <trkpt lat="44.31418" lon="6.8283">
        <time>2023-04-10T09:46:52+00:00</time>
        <ele>2556.0</ele>
      </trkpt>
      <trkpt lat="44.31418" lon="6.8283">
        <time>2023-04-10T09:46:53+00:00</time>
        <ele>2556.0</ele>
      </trkpt>
      <trkpt lat="44.31418" lon="6.8283">
        <time>2023-04-10T09:46:54+00:00</time>
        <ele>2556.0</ele>
      </trkpt>
      <trkpt lat="44.31418" lon="6.8283">
        <time>2023-04-10T09:46:55+00:00</time>
        <ele>2556.0</ele>
      </trkpt>
      <trkpt lat="44.31418" lon="6.8283">
        <time>2023-04-10T09:46:56+00:00</time>
        <ele>2556.0</ele>
      </trkpt>
      <trkpt lat="44.31418" lon="6.8283">
        <time>2023-04-10T09:46:57+00:00</time>
        <ele>2556.0</ele>
      </trkpt>
      <trkpt lat="44.31418" lon="6.8283">
        <time>2023-04-10T09:46:58+00:00</time>
        <ele>2556.0</ele>
      </trkpt>
      <trkpt lat="44.31418" lon="6.8283">
        <time>2023-04-10T09:46:59+00:00</time>
        <ele>2556.0</ele>
      </trkpt>
      <trkpt lat="44.31418" lon="6.8283">
        <time>2023-04-10T09:47:00+00:00</time>
        <ele>2556.0</ele>
      </trkpt>
      <trkpt lat="44.31418" lon="6.8283">
        <time>2023-04-10T09:47:01+00:00</time>
        <ele>2556.0</ele>
      </trkpt>
      <trkpt lat="44.31418" lon="6.8283">
        <time>2023-04-10T09:47:02+00:00</time>
        <ele>2556.0</ele>
      </trkpt>
      <trkpt lat="44.31418" lon="6.8283">
        <time>2023-04-10T09:47:03+00:00</time>
        <ele>2556.0</ele>
      </trkpt>
      <trkpt lat="44.31418" lon="6.8283">
        <time>2023-04-10T09:47:04+00:00</time>
        <ele>2556.0</ele>
      </trkpt>
      <trkpt lat="44.31418" lon="6.8283">
        <time>2023-04-10T09:47:05+00:00</time>
        <ele>2556.0</ele>
      </trkpt>
      <trkpt lat="44.31418" lon="6.8283">
        <time>2023-04-10T09:47:06+00:00</time>
        <ele>2556.0</ele>
      </trkpt>
      <trkpt lat="44.31418" lon="6.8283">
        <time>2023-04-10T09:47:07+00:00</time>
        <ele>2556.0</ele>
      </trkpt>
      <trkpt lat="44.31418" lon="6.8283">
        <time>2023-04-10T09:47:08+00:00</time>
        <ele>2556.0</ele>
      </trkpt>
      <trkpt lat="44.31418" lon="6.8283">
        <time>2023-04-10T09:47:09+00:00</time>
        <ele>2556.0</ele>
      </trkpt>
      <trkpt lat="44.31418" lon="6.8283">
        <time>2023-04-10T09:47:10+00:00</time>
        <ele>2556.0</ele>
      </trkpt>
      <trkpt lat="44.31418" lon="6.8283">
        <time>2023-04-10T09:47:11+00:00</time>
        <ele>2556.0</ele>
      </trkpt>
      <trkpt lat="44.31418" lon="6.8283">
        <time>2023-04-10T09:47:12+00:00</time>
        <ele>2556.0</ele>
      </trkpt>
      <trkpt lat="44.31414" lon="6.82833">
        <time>2023-04-10T09:47:13+00:00</time>
        <ele>2556.0</ele>
      </trkpt>
      <trkpt lat="44.31414" lon="6.82833">
        <time>2023-04-10T09:47:14+00:00</time>
        <ele>2556.0</ele>
      </trkpt>
      <trkpt lat="44.31412" lon="6.82834">
        <time>2023-04-10T09:47:15+00:00</time>
        <ele>2557.0</ele>
      </trkpt>
      <trkpt lat="44.31412" lon="6.82834">
        <time>2023-04-10T09:47:16+00:00</time>
        <ele>2557.0</ele>
      </trkpt>
      <trkpt lat="44.3141" lon="6.82835">
        <time>2023-04-10T09:47:17+00:00</time>
        <ele>2556.0</ele>
      </trkpt>
      <trkpt lat="44.3141" lon="6.82835">
        <time>2023-04-10T09:47:18+00:00</time>
        <ele>2556.0</ele>
      </trkpt>
      <trkpt lat="44.31407" lon="6.82835">
        <time>2023-04-10T09:47:19+00:00</time>
        <ele>2556.0</ele>
      </trkpt>
      <trkpt lat="44.31407" lon="6.82835">
        <time>2023-04-10T09:47:20+00:00</time>
        <ele>2556.0</ele>
      </trkpt>
      <trkpt lat="44.31405" lon="6.82836">
        <time>2023-04-10T09:47:21+00:00</time>
        <ele>2556.0</ele>
      </trkpt>
      <trkpt lat="44.31405" lon="6.82836">
        <time>2023-04-10T09:47:22+00:00</time>
        <ele>2556.0</ele>
      </trkpt>
      <trkpt lat="44.31402" lon="6.82836">
        <time>2023-04-10T09:47:23+00:00</time>
        <ele>2555.0</ele>
      </trkpt>
      <trkpt lat="44.31402" lon="6.82836">
        <time>2023-04-10T09:47:24+00:00</time>
        <ele>2555.0</ele>
      </trkpt>
      <trkpt lat="44.314" lon="6.82836">
        <time>2023-04-10T09:47:25+00:00</time>
        <ele>2555.0</ele>
      </trkpt>
      <trkpt lat="44.314" lon="6.82836">
        <time>2023-04-10T09:47:26+00:00</time>
        <ele>2555.0</ele>
      </trkpt>
      <trkpt lat="44.31398" lon="6.82835">
        <time>2023-04-10T09:47:27+00:00</time>
        <ele>2555.0</ele>
      </trkpt>
      <trkpt lat="44.31398" lon="6.82835">
        <time>2023-04-10T09:47:28+00:00</time>
        <ele>2555.0</ele>
      </trkpt>
      <trkpt lat="44.31397" lon="6.82833">
        <time>2023-04-10T09:47:29+00:00</time>
        <ele>2555.0</ele>
      </trkpt>
      <trkpt lat="44.31397" lon="6.82833">
        <time>2023-04-10T09:47:30+00:00</time>
        <ele>2555.0</ele>
      </trkpt>
      <trkpt lat="44.31397" lon="6.82833">
        <time>2023-04-10T09:47:31+00:00</time>
        <ele>2555.0</ele>
      </trkpt>
      <trkpt lat="44.31398" lon="6.82829">
        <time>2023-04-10T09:47:32+00:00</time>
        <ele>2557.0</ele>
      </trkpt>
      <trkpt lat="44.31398" lon="6.82829">
        <time>2023-04-10T09:47:33+00:00</time>
        <ele>2557.0</ele>
      </trkpt>
      <trkpt lat="44.31398" lon="6.82829">
        <time>2023-04-10T09:47:34+00:00</time>
        <ele>2557.0</ele>
      </trkpt>
      <trkpt lat="44.314" lon="6.82827">
        <time>2023-04-10T09:47:35+00:00</time>
        <ele>2557.0</ele>
      </trkpt>
      <trkpt lat="44.314" lon="6.82827">
        <time>2023-04-10T09:47:36+00:00</time>
        <ele>2557.0</ele>
      </trkpt>
      <trkpt lat="44.31402" lon="6.82825">
        <time>2023-04-10T09:47:37+00:00</time>
        <ele>2558.0</ele>
      </trkpt>
      <trkpt lat="44.31402" lon="6.82825">
        <time>2023-04-10T09:47:38+00:00</time>
        <ele>2558.0</ele>
      </trkpt>
      <trkpt lat="44.31403" lon="6.82823">
        <time>2023-04-10T09:47:39+00:00</time>
        <ele>2559.0</ele>
      </trkpt>
      <trkpt lat="44.31403" lon="6.82823">
        <time>2023-04-10T09:47:40+00:00</time>
        <ele>2559.0</ele>
      </trkpt>
      <trkpt lat="44.31404" lon="6.82821">
        <time>2023-04-10T09:47:41+00:00</time>
        <ele>2559.0</ele>
      </trkpt>
      <trkpt lat="44.31404" lon="6.82821">
        <time>2023-04-10T09:47:42+00:00</time>
        <ele>2559.0</ele>
      </trkpt>
      <trkpt lat="44.31404" lon="6.82821">
        <time>2023-04-10T09:47:43+00:00</time>
        <ele>2559.0</ele>
      </trkpt>
      <trkpt lat="44.31405" lon="6.82819">
        <time>2023-04-10T09:47:44+00:00</time>
        <ele>2560.0</ele>
      </trkpt>
      <trkpt lat="44.31405" lon="6.82819">
        <time>2023-04-10T09:47:45+00:00</time>
        <ele>2560.0</ele>
      </trkpt>
      <trkpt lat="44.31406" lon="6.82817">
        <time>2023-04-10T09:47:46+00:00</time>
        <ele>2561.0</ele>
      </trkpt>
      <trkpt lat="44.31406" lon="6.82817">
        <time>2023-04-10T09:47:47+00:00</time>
        <ele>2561.0</ele>
      </trkpt>
      <trkpt lat="44.31406" lon="6.82817">
        <time>2023-04-10T09:47:48+00:00</time>
        <ele>2561.0</ele>
      </trkpt>
      <trkpt lat="44.31406" lon="6.82817">
        <time>2023-04-10T09:47:49+00:00</time>
        <ele>2561.0</ele>
      </trkpt>
      <trkpt lat="44.31406" lon="6.82817">
        <time>2023-04-10T09:47:50+00:00</time>
        <ele>2561.0</ele>
      </trkpt>
      <trkpt lat="44.31406" lon="6.82817">
        <time>2023-04-10T09:47:51+00:00</time>
        <ele>2561.0</ele>
      </trkpt>
      <trkpt lat="44.31406" lon="6.82817">
        <time>2023-04-10T09:47:52+00:00</time>
        <ele>2561.0</ele>
      </trkpt>
      <trkpt lat="44.31405" lon="6.82815">
        <time>2023-04-10T09:47:53+00:00</time>
        <ele>2561.0</ele>
      </trkpt>
      <trkpt lat="44.31405" lon="6.82815">
        <time>2023-04-10T09:47:54+00:00</time>
        <ele>2561.0</ele>
      </trkpt>
      <trkpt lat="44.31405" lon="6.82815">
        <time>2023-04-10T09:47:55+00:00</time>
        <ele>2561.0</ele>
      </trkpt>
      <trkpt lat="44.31403" lon="6.82813">
        <time>2023-04-10T09:47:56+00:00</time>
        <ele>2561.0</ele>
      </trkpt>
      <trkpt lat="44.31403" lon="6.82813">
        <time>2023-04-10T09:47:57+00:00</time>
        <ele>2561.0</ele>
      </trkpt>
      <trkpt lat="44.31403" lon="6.82813">
        <time>2023-04-10T09:47:58+00:00</time>
        <ele>2561.0</ele>
      </trkpt>
      <trkpt lat="44.31403" lon="6.8281">
        <time>2023-04-10T09:47:59+00:00</time>
        <ele>2562.0</ele>
      </trkpt>
      <trkpt lat="44.31403" lon="6.8281">
        <time>2023-04-10T09:48:00+00:00</time>
        <ele>2562.0</ele>
      </trkpt>
      <trkpt lat="44.31403" lon="6.8281">
        <time>2023-04-10T09:48:01+00:00</time>
        <ele>2562.0</ele>
      </trkpt>
      <trkpt lat="44.31403" lon="6.82807">
        <time>2023-04-10T09:48:02+00:00</time>
        <ele>2563.0</ele>
      </trkpt>
      <trkpt lat="44.31403" lon="6.82807">
        <time>2023-04-10T09:48:03+00:00</time>
        <ele>2563.0</ele>
      </trkpt>
      <trkpt lat="44.31403" lon="6.82807">
        <time>2023-04-10T09:48:04+00:00</time>
        <ele>2563.0</ele>
      </trkpt>
      <trkpt lat="44.31403" lon="6.82803">
        <time>2023-04-10T09:48:05+00:00</time>
        <ele>2564.0</ele>
      </trkpt>
      <trkpt lat="44.31403" lon="6.82803">
        <time>2023-04-10T09:48:06+00:00</time>
        <ele>2564.0</ele>
      </trkpt>
      <trkpt lat="44.31403" lon="6.82803">
        <time>2023-04-10T09:48:07+00:00</time>
        <ele>2564.0</ele>
      </trkpt>
      <trkpt lat="44.31403" lon="6.82801">
        <time>2023-04-10T09:48:08+00:00</time>
        <ele>2564.0</ele>
      </trkpt>
      <trkpt lat="44.31403" lon="6.82801">
        <time>2023-04-10T09:48:09+00:00</time>
        <ele>2564.0</ele>
      </trkpt>
      <trkpt lat="44.31403" lon="6.82801">
        <time>2023-04-10T09:48:10+00:00</time>
        <ele>2564.0</ele>
      </trkpt>
      <trkpt lat="44.31403" lon="6.82797">
        <time>2023-04-10T09:48:11+00:00</time>
        <ele>2565.0</ele>
      </trkpt>
      <trkpt lat="44.31403" lon="6.82797">
        <time>2023-04-10T09:48:12+00:00</time>
        <ele>2565.0</ele>
      </trkpt>
      <trkpt lat="44.31404" lon="6.82795">
        <time>2023-04-10T09:48:13+00:00</time>
        <ele>2566.0</ele>
      </trkpt>
      <trkpt lat="44.31404" lon="6.82795">
        <time>2023-04-10T09:48:14+00:00</time>
        <ele>2566.0</ele>
      </trkpt>
      <trkpt lat="44.31404" lon="6.82795">
        <time>2023-04-10T09:48:15+00:00</time>
        <ele>2566.0</ele>
      </trkpt>
      <trkpt lat="44.31404" lon="6.82791">
        <time>2023-04-10T09:48:16+00:00</time>
        <ele>2567.0</ele>
      </trkpt>
      <trkpt lat="44.31404" lon="6.82791">
        <time>2023-04-10T09:48:17+00:00</time>
        <ele>2567.0</ele>
      </trkpt>
      <trkpt lat="44.31404" lon="6.82791">
        <time>2023-04-10T09:48:18+00:00</time>
        <ele>2567.0</ele>
      </trkpt>
      <trkpt lat="44.31403" lon="6.82788">
        <time>2023-04-10T09:48:19+00:00</time>
        <ele>2567.0</ele>
      </trkpt>
      <trkpt lat="44.31403" lon="6.82788">
        <time>2023-04-10T09:48:20+00:00</time>
        <ele>2567.0</ele>
      </trkpt>
      <trkpt lat="44.31403" lon="6.82788">
        <time>2023-04-10T09:48:21+00:00</time>
        <ele>2567.0</ele>
      </trkpt>
      <trkpt lat="44.31403" lon="6.82785">
        <time>2023-04-10T09:48:22+00:00</time>
        <ele>2568.0</ele>
      </trkpt>
      <trkpt lat="44.31403" lon="6.82785">
        <time>2023-04-10T09:48:23+00:00</time>
        <ele>2568.0</ele>
      </trkpt>
      <trkpt lat="44.31403" lon="6.82785">
        <time>2023-04-10T09:48:24+00:00</time>
        <ele>2568.0</ele>
      </trkpt>
      <trkpt lat="44.31404" lon="6.82782">
        <time>2023-04-10T09:48:25+00:00</time>
        <ele>2569.0</ele>
      </trkpt>
      <trkpt lat="44.31404" lon="6.82782">
        <time>2023-04-10T09:48:26+00:00</time>
        <ele>2569.0</ele>
      </trkpt>
      <trkpt lat="44.31403" lon="6.82779">
        <time>2023-04-10T09:48:27+00:00</time>
        <ele>2570.0</ele>
      </trkpt>
      <trkpt lat="44.31403" lon="6.82779">
        <time>2023-04-10T09:48:28+00:00</time>
        <ele>2570.0</ele>
      </trkpt>
      <trkpt lat="44.31403" lon="6.82777">
        <time>2023-04-10T09:48:29+00:00</time>
        <ele>2570.0</ele>
      </trkpt>
      <trkpt lat="44.31403" lon="6.82777">
        <time>2023-04-10T09:48:30+00:00</time>
        <ele>2570.0</ele>
      </trkpt>
      <trkpt lat="44.31403" lon="6.82777">
        <time>2023-04-10T09:48:31+00:00</time>
        <ele>2570.0</ele>
      </trkpt>
      <trkpt lat="44.31404" lon="6.82773">
        <time>2023-04-10T09:48:32+00:00</time>
        <ele>2571.0</ele>
      </trkpt>
      <trkpt lat="44.31404" lon="6.82773">
        <time>2023-04-10T09:48:33+00:00</time>
        <ele>2571.0</ele>
      </trkpt>
      <trkpt lat="44.31404" lon="6.82773">
        <time>2023-04-10T09:48:34+00:00</time>
        <ele>2571.0</ele>
      </trkpt>
      <trkpt lat="44.31404" lon="6.8277">
        <time>2023-04-10T09:48:35+00:00</time>
        <ele>2572.0</ele>
      </trkpt>
      <trkpt lat="44.31404" lon="6.8277">
        <time>2023-04-10T09:48:36+00:00</time>
        <ele>2572.0</ele>
      </trkpt>
      <trkpt lat="44.31404" lon="6.8277">
        <time>2023-04-10T09:48:37+00:00</time>
        <ele>2572.0</ele>
      </trkpt>
      <trkpt lat="44.31404" lon="6.82767">
        <time>2023-04-10T09:48:38+00:00</time>
        <ele>2573.0</ele>
      </trkpt>
      <trkpt lat="44.31404" lon="6.82767">
        <time>2023-04-10T09:48:39+00:00</time>
        <ele>2573.0</ele>
      </trkpt>
      <trkpt lat="44.31404" lon="6.82767">
        <time>2023-04-10T09:48:40+00:00</time>
        <ele>2573.0</ele>
      </trkpt>
      <trkpt lat="44.31405" lon="6.82763">
        <time>2023-04-10T09:48:41+00:00</time>
        <ele>2574.0</ele>
      </trkpt>
      <trkpt lat="44.31405" lon="6.82763">
        <time>2023-04-10T09:48:42+00:00</time>
        <ele>2574.0</ele>
      </trkpt>
      <trkpt lat="44.31405" lon="6.82763">
        <time>2023-04-10T09:48:43+00:00</time>
        <ele>2574.0</ele>
      </trkpt>
      <trkpt lat="44.31405" lon="6.8276">
        <time>2023-04-10T09:48:44+00:00</time>
        <ele>2574.0</ele>
      </trkpt>
      <trkpt lat="44.31405" lon="6.8276">
        <time>2023-04-10T09:48:45+00:00</time>
        <ele>2574.0</ele>
      </trkpt>
      <trkpt lat="44.31405" lon="6.8276">
        <time>2023-04-10T09:48:46+00:00</time>
        <ele>2574.0</ele>
      </trkpt>
      <trkpt lat="44.31405" lon="6.82757">
        <time>2023-04-10T09:48:47+00:00</time>
        <ele>2575.0</ele>
      </trkpt>
      <trkpt lat="44.31405" lon="6.82757">
        <time>2023-04-10T09:48:48+00:00</time>
        <ele>2575.0</ele>
      </trkpt>
      <trkpt lat="44.31405" lon="6.82757">
        <time>2023-04-10T09:48:49+00:00</time>
        <ele>2575.0</ele>
      </trkpt>
      <trkpt lat="44.31405" lon="6.82754">
        <time>2023-04-10T09:48:50+00:00</time>
        <ele>2575.0</ele>
      </trkpt>
      <trkpt lat="44.31405" lon="6.82754">
        <time>2023-04-10T09:48:51+00:00</time>
        <ele>2575.0</ele>
      </trkpt>
      <trkpt lat="44.31405" lon="6.82754">
        <time>2023-04-10T09:48:52+00:00</time>
        <ele>2575.0</ele>
      </trkpt>
      <trkpt lat="44.31405" lon="6.82751">
        <time>2023-04-10T09:48:53+00:00</time>
        <ele>2576.0</ele>
      </trkpt>
      <trkpt lat="44.31405" lon="6.82751">
        <time>2023-04-10T09:48:54+00:00</time>
        <ele>2576.0</ele>
      </trkpt>
      <trkpt lat="44.31405" lon="6.82751">
        <time>2023-04-10T09:48:55+00:00</time>
        <ele>2576.0</ele>
      </trkpt>
      <trkpt lat="44.31405" lon="6.82751">
        <time>2023-04-10T09:48:56+00:00</time>
        <ele>2576.0</ele>
      </trkpt>
      <trkpt lat="44.31404" lon="6.82748">
        <time>2023-04-10T09:48:57+00:00</time>
        <ele>2576.0</ele>
      </trkpt>
      <trkpt lat="44.31404" lon="6.82748">
        <time>2023-04-10T09:48:58+00:00</time>
        <ele>2576.0</ele>
      </trkpt>
      <trkpt lat="44.31404" lon="6.82748">
        <time>2023-04-10T09:48:59+00:00</time>
        <ele>2576.0</ele>
      </trkpt>
      <trkpt lat="44.31403" lon="6.82745">
        <time>2023-04-10T09:49:00+00:00</time>
        <ele>2576.0</ele>
      </trkpt>
      <trkpt lat="44.31403" lon="6.82745">
        <time>2023-04-10T09:49:01+00:00</time>
        <ele>2576.0</ele>
      </trkpt>
      <trkpt lat="44.31403" lon="6.82742">
        <time>2023-04-10T09:49:02+00:00</time>
        <ele>2577.0</ele>
      </trkpt>
      <trkpt lat="44.31403" lon="6.82742">
        <time>2023-04-10T09:49:03+00:00</time>
        <ele>2577.0</ele>
      </trkpt>
      <trkpt lat="44.31403" lon="6.82742">
        <time>2023-04-10T09:49:04+00:00</time>
        <ele>2577.0</ele>
      </trkpt>
      <trkpt lat="44.31403" lon="6.82742">
        <time>2023-04-10T09:49:05+00:00</time>
        <ele>2577.0</ele>
      </trkpt>
      <trkpt lat="44.31403" lon="6.82739">
        <time>2023-04-10T09:49:06+00:00</time>
        <ele>2577.0</ele>
      </trkpt>
      <trkpt lat="44.31403" lon="6.82739">
        <time>2023-04-10T09:49:07+00:00</time>
        <ele>2577.0</ele>
      </trkpt>
      <trkpt lat="44.31403" lon="6.82739">
        <time>2023-04-10T09:49:08+00:00</time>
        <ele>2577.0</ele>
      </trkpt>
      <trkpt lat="44.31403" lon="6.82739">
        <time>2023-04-10T09:49:09+00:00</time>
        <ele>2577.0</ele>
      </trkpt>
      <trkpt lat="44.31402" lon="6.82735">
        <time>2023-04-10T09:49:10+00:00</time>
        <ele>2577.0</ele>
      </trkpt>
      <trkpt lat="44.31402" lon="6.82735">
        <time>2023-04-10T09:49:11+00:00</time>
        <ele>2577.0</ele>
      </trkpt>
      <trkpt lat="44.31402" lon="6.82735">
        <time>2023-04-10T09:49:12+00:00</time>
        <ele>2577.0</ele>
      </trkpt>
      <trkpt lat="44.31403" lon="6.82733">
        <time>2023-04-10T09:49:13+00:00</time>
        <ele>2578.0</ele>
      </trkpt>
      <trkpt lat="44.31403" lon="6.82733">
        <time>2023-04-10T09:49:14+00:00</time>
        <ele>2578.0</ele>
      </trkpt>
      <trkpt lat="44.31403" lon="6.82733">
        <time>2023-04-10T09:49:15+00:00</time>
        <ele>2578.0</ele>
      </trkpt>
      <trkpt lat="44.31403" lon="6.8273">
        <time>2023-04-10T09:49:16+00:00</time>
        <ele>2579.0</ele>
      </trkpt>
      <trkpt lat="44.31403" lon="6.8273">
        <time>2023-04-10T09:49:17+00:00</time>
        <ele>2579.0</ele>
      </trkpt>
      <trkpt lat="44.31403" lon="6.8273">
        <time>2023-04-10T09:49:18+00:00</time>
        <ele>2579.0</ele>
      </trkpt>
      <trkpt lat="44.31403" lon="6.82727">
        <time>2023-04-10T09:49:19+00:00</time>
        <ele>2579.0</ele>
      </trkpt>
      <trkpt lat="44.31403" lon="6.82727">
        <time>2023-04-10T09:49:20+00:00</time>
        <ele>2579.0</ele>
      </trkpt>
      <trkpt lat="44.31403" lon="6.82727">
        <time>2023-04-10T09:49:21+00:00</time>
        <ele>2579.0</ele>
      </trkpt>
      <trkpt lat="44.31405" lon="6.82724">
        <time>2023-04-10T09:49:22+00:00</time>
        <ele>2581.0</ele>
      </trkpt>
      <trkpt lat="44.31405" lon="6.82724">
        <time>2023-04-10T09:49:23+00:00</time>
        <ele>2581.0</ele>
      </trkpt>
      <trkpt lat="44.31405" lon="6.82724">
        <time>2023-04-10T09:49:24+00:00</time>
        <ele>2581.0</ele>
      </trkpt>
      <trkpt lat="44.31407" lon="6.82722">
        <time>2023-04-10T09:49:25+00:00</time>
        <ele>2582.0</ele>
      </trkpt>
      <trkpt lat="44.31407" lon="6.82722">
        <time>2023-04-10T09:49:26+00:00</time>
        <ele>2582.0</ele>
      </trkpt>
      <trkpt lat="44.31407" lon="6.82722">
        <time>2023-04-10T09:49:27+00:00</time>
        <ele>2582.0</ele>
      </trkpt>
      <trkpt lat="44.31408" lon="6.8272">
        <time>2023-04-10T09:49:28+00:00</time>
        <ele>2583.0</ele>
      </trkpt>
      <trkpt lat="44.31408" lon="6.8272">
        <time>2023-04-10T09:49:29+00:00</time>
        <ele>2583.0</ele>
      </trkpt>
      <trkpt lat="44.31408" lon="6.8272">
        <time>2023-04-10T09:49:30+00:00</time>
        <ele>2583.0</ele>
      </trkpt>
      <trkpt lat="44.3141" lon="6.82717">
        <time>2023-04-10T09:49:31+00:00</time>
        <ele>2584.0</ele>
      </trkpt>
      <trkpt lat="44.3141" lon="6.82717">
        <time>2023-04-10T09:49:32+00:00</time>
        <ele>2584.0</ele>
      </trkpt>
      <trkpt lat="44.3141" lon="6.82717">
        <time>2023-04-10T09:49:33+00:00</time>
        <ele>2584.0</ele>
      </trkpt>
      <trkpt lat="44.31411" lon="6.82715">
        <time>2023-04-10T09:49:34+00:00</time>
        <ele>2585.0</ele>
      </trkpt>
      <trkpt lat="44.31411" lon="6.82715">
        <time>2023-04-10T09:49:35+00:00</time>
        <ele>2585.0</ele>
      </trkpt>
      <trkpt lat="44.31413" lon="6.82713">
        <time>2023-04-10T09:49:36+00:00</time>
        <ele>2585.0</ele>
      </trkpt>
      <trkpt lat="44.31413" lon="6.82713">
        <time>2023-04-10T09:49:37+00:00</time>
        <ele>2585.0</ele>
      </trkpt>
      <trkpt lat="44.31413" lon="6.82713">
        <time>2023-04-10T09:49:38+00:00</time>
        <ele>2585.0</ele>
      </trkpt>
      <trkpt lat="44.31413" lon="6.8271">
        <time>2023-04-10T09:49:39+00:00</time>
        <ele>2586.0</ele>
      </trkpt>
      <trkpt lat="44.31413" lon="6.8271">
        <time>2023-04-10T09:49:40+00:00</time>
        <ele>2586.0</ele>
      </trkpt>
      <trkpt lat="44.31413" lon="6.8271">
        <time>2023-04-10T09:49:41+00:00</time>
        <ele>2586.0</ele>
      </trkpt>
      <trkpt lat="44.31414" lon="6.82707">
        <time>2023-04-10T09:49:42+00:00</time>
        <ele>2586.0</ele>
      </trkpt>
      <trkpt lat="44.31414" lon="6.82707">
        <time>2023-04-10T09:49:43+00:00</time>
        <ele>2586.0</ele>
      </trkpt>
      <trkpt lat="44.31414" lon="6.82707">
        <time>2023-04-10T09:49:44+00:00</time>
        <ele>2586.0</ele>
      </trkpt>
      <trkpt lat="44.31415" lon="6.82704">
        <time>2023-04-10T09:49:45+00:00</time>
        <ele>2587.0</ele>
      </trkpt>
      <trkpt lat="44.31415" lon="6.82704">
        <time>2023-04-10T09:49:46+00:00</time>
        <ele>2587.0</ele>
      </trkpt>
      <trkpt lat="44.31416" lon="6.82702">
        <time>2023-04-10T09:49:47+00:00</time>
        <ele>2587.0</ele>
      </trkpt>
      <trkpt lat="44.31416" lon="6.82702">
        <time>2023-04-10T09:49:48+00:00</time>
        <ele>2587.0</ele>
      </trkpt>
      <trkpt lat="44.31416" lon="6.82702">
        <time>2023-04-10T09:49:49+00:00</time>
        <ele>2587.0</ele>
      </trkpt>
      <trkpt lat="44.31416" lon="6.82699">
        <time>2023-04-10T09:49:50+00:00</time>
        <ele>2587.0</ele>
      </trkpt>
      <trkpt lat="44.31416" lon="6.82699">
        <time>2023-04-10T09:49:51+00:00</time>
        <ele>2587.0</ele>
      </trkpt>
      <trkpt lat="44.31416" lon="6.82699">
        <time>2023-04-10T09:49:52+00:00</time>
        <ele>2587.0</ele>
      </trkpt>
      <trkpt lat="44.31417" lon="6.82696">
        <time>2023-04-10T09:49:53+00:00</time>
        <ele>2588.0</ele>
      </trkpt>
      <trkpt lat="44.31417" lon="6.82696">
        <time>2023-04-10T09:49:54+00:00</time>
        <ele>2588.0</ele>
      </trkpt>
      <trkpt lat="44.31417" lon="6.82696">
        <time>2023-04-10T09:49:55+00:00</time>
        <ele>2588.0</ele>
      </trkpt>
      <trkpt lat="44.31418" lon="6.82693">
        <time>2023-04-10T09:49:56+00:00</time>
        <ele>2588.0</ele>
      </trkpt>
      <trkpt lat="44.31418" lon="6.82693">
        <time>2023-04-10T09:49:57+00:00</time>
        <ele>2588.0</ele>
      </trkpt>
      <trkpt lat="44.31418" lon="6.82693">
        <time>2023-04-10T09:49:58+00:00</time>
        <ele>2588.0</ele>
      </trkpt>
      <trkpt lat="44.31418" lon="6.82689">
        <time>2023-04-10T09:49:59+00:00</time>
        <ele>2589.0</ele>
      </trkpt>
      <trkpt lat="44.31419" lon="6.82687">
        <time>2023-04-10T09:50:02+00:00</time>
        <ele>2589.0</ele>
      </trkpt>
      <trkpt lat="44.31419" lon="6.82687">
        <time>2023-04-10T09:50:03+00:00</time>
        <ele>2589.0</ele>
      </trkpt>
      <trkpt lat="44.31419" lon="6.82684">
        <time>2023-04-10T09:50:04+00:00</time>
        <ele>2590.0</ele>
      </trkpt>
      <trkpt lat="44.31419" lon="6.82684">
        <time>2023-04-10T09:50:05+00:00</time>
        <ele>2590.0</ele>
      </trkpt>
      <trkpt lat="44.31419" lon="6.82684">
        <time>2023-04-10T09:50:06+00:00</time>
        <ele>2590.0</ele>
      </trkpt>
      <trkpt lat="44.31419" lon="6.82681">
        <time>2023-04-10T09:50:07+00:00</time>
        <ele>2591.0</ele>
      </trkpt>
      <trkpt lat="44.31419" lon="6.82681">
        <time>2023-04-10T09:50:08+00:00</time>
        <ele>2591.0</ele>
      </trkpt>
      <trkpt lat="44.31419" lon="6.82681">
        <time>2023-04-10T09:50:09+00:00</time>
        <ele>2591.0</ele>
      </trkpt>
      <trkpt lat="44.31419" lon="6.82678">
        <time>2023-04-10T09:50:10+00:00</time>
        <ele>2591.0</ele>
      </trkpt>
      <trkpt lat="44.31419" lon="6.82678">
        <time>2023-04-10T09:50:11+00:00</time>
        <ele>2591.0</ele>
      </trkpt>
      <trkpt lat="44.31419" lon="6.82678">
        <time>2023-04-10T09:50:12+00:00</time>
        <ele>2591.0</ele>
      </trkpt>
      <trkpt lat="44.3142" lon="6.82675">
        <time>2023-04-10T09:50:13+00:00</time>
        <ele>2592.0</ele>
      </trkpt>
      <trkpt lat="44.3142" lon="6.82675">
        <time>2023-04-10T09:50:14+00:00</time>
        <ele>2592.0</ele>
      </trkpt>
      <trkpt lat="44.3142" lon="6.82672">
        <time>2023-04-10T09:50:15+00:00</time>
        <ele>2592.0</ele>
      </trkpt>
      <trkpt lat="44.3142" lon="6.82672">
        <time>2023-04-10T09:50:16+00:00</time>
        <ele>2592.0</ele>
      </trkpt>
      <trkpt lat="44.3142" lon="6.82672">
        <time>2023-04-10T09:50:17+00:00</time>
        <ele>2592.0</ele>
      </trkpt>
      <trkpt lat="44.3142" lon="6.82669">
        <time>2023-04-10T09:50:18+00:00</time>
        <ele>2593.0</ele>
      </trkpt>
      <trkpt lat="44.3142" lon="6.82669">
        <time>2023-04-10T09:50:19+00:00</time>
        <ele>2593.0</ele>
      </trkpt>
      <trkpt lat="44.3142" lon="6.82669">
        <time>2023-04-10T09:50:20+00:00</time>
        <ele>2593.0</ele>
      </trkpt>
      <trkpt lat="44.3142" lon="6.82666">
        <time>2023-04-10T09:50:21+00:00</time>
        <ele>2593.0</ele>
      </trkpt>
      <trkpt lat="44.3142" lon="6.82666">
        <time>2023-04-10T09:50:22+00:00</time>
        <ele>2593.0</ele>
      </trkpt>
      <trkpt lat="44.3142" lon="6.82666">
        <time>2023-04-10T09:50:23+00:00</time>
        <ele>2593.0</ele>
      </trkpt>
      <trkpt lat="44.31419" lon="6.82663">
        <time>2023-04-10T09:50:24+00:00</time>
        <ele>2594.0</ele>
      </trkpt>
      <trkpt lat="44.31419" lon="6.82663">
        <time>2023-04-10T09:50:25+00:00</time>
        <ele>2594.0</ele>
      </trkpt>
      <trkpt lat="44.31418" lon="6.82661">
        <time>2023-04-10T09:50:27+00:00</time>
        <ele>2594.0</ele>
      </trkpt>
      <trkpt lat="44.31418" lon="6.82661">
        <time>2023-04-10T09:50:28+00:00</time>
        <ele>2594.0</ele>
      </trkpt>
      <trkpt lat="44.31418" lon="6.82661">
        <time>2023-04-10T09:50:29+00:00</time>
        <ele>2594.0</ele>
      </trkpt>
      <trkpt lat="44.31418" lon="6.82658">
        <time>2023-04-10T09:50:30+00:00</time>
        <ele>2594.0</ele>
      </trkpt>
      <trkpt lat="44.31418" lon="6.82658">
        <time>2023-04-10T09:50:31+00:00</time>
        <ele>2594.0</ele>
      </trkpt>
      <trkpt lat="44.31418" lon="6.82658">
        <time>2023-04-10T09:50:32+00:00</time>
        <ele>2594.0</ele>
      </trkpt>
      <trkpt lat="44.31417" lon="6.82655">
        <time>2023-04-10T09:50:33+00:00</time>
        <ele>2595.0</ele>
      </trkpt>
      <trkpt lat="44.31417" lon="6.82655">
        <time>2023-04-10T09:50:34+00:00</time>
        <ele>2595.0</ele>
      </trkpt>
      <trkpt lat="44.31417" lon="6.82655">
        <time>2023-04-10T09:50:35+00:00</time>
        <ele>2595.0</ele>
      </trkpt>
      <trkpt lat="44.31416" lon="6.82652">
        <time>2023-04-10T09:50:36+00:00</time>
        <ele>2595.0</ele>
      </trkpt>
      <trkpt lat="44.31416" lon="6.82652">
        <time>2023-04-10T09:50:37+00:00</time>
        <ele>2595.0</ele>
      </trkpt>
      <trkpt lat="44.31416" lon="6.82652">
        <time>2023-04-10T09:50:38+00:00</time>
        <ele>2595.0</ele>
      </trkpt>
      <trkpt lat="44.31415" lon="6.82649">
        <time>2023-04-10T09:50:39+00:00</time>
        <ele>2596.0</ele>
      </trkpt>
      <trkpt lat="44.31415" lon="6.82649">
        <time>2023-04-10T09:50:40+00:00</time>
        <ele>2596.0</ele>
      </trkpt>
      <trkpt lat="44.31415" lon="6.82649">
        <time>2023-04-10T09:50:41+00:00</time>
        <ele>2596.0</ele>
      </trkpt>
      <trkpt lat="44.31414" lon="6.82647">
        <time>2023-04-10T09:50:42+00:00</time>
        <ele>2596.0</ele>
      </trkpt>
      <trkpt lat="44.31414" lon="6.82647">
        <time>2023-04-10T09:50:43+00:00</time>
        <ele>2596.0</ele>
      </trkpt>
      <trkpt lat="44.31414" lon="6.82647">
        <time>2023-04-10T09:50:44+00:00</time>
        <ele>2596.0</ele>
      </trkpt>
      <trkpt lat="44.31413" lon="6.82644">
        <time>2023-04-10T09:50:45+00:00</time>
        <ele>2596.0</ele>
      </trkpt>
      <trkpt lat="44.31413" lon="6.82644">
        <time>2023-04-10T09:50:46+00:00</time>
        <ele>2596.0</ele>
      </trkpt>
      <trkpt lat="44.31413" lon="6.82644">
        <time>2023-04-10T09:50:47+00:00</time>
        <ele>2596.0</ele>
      </trkpt>
      <trkpt lat="44.31412" lon="6.82642">
        <time>2023-04-10T09:50:48+00:00</time>
        <ele>2596.0</ele>
      </trkpt>
      <trkpt lat="44.31412" lon="6.82642">
        <time>2023-04-10T09:50:49+00:00</time>
        <ele>2596.0</ele>
      </trkpt>
      <trkpt lat="44.31412" lon="6.82642">
        <time>2023-04-10T09:50:50+00:00</time>
        <ele>2596.0</ele>
      </trkpt>
      <trkpt lat="44.3141" lon="6.82639">
        <time>2023-04-10T09:50:51+00:00</time>
        <ele>2596.0</ele>
      </trkpt>
      <trkpt lat="44.3141" lon="6.82639">
        <time>2023-04-10T09:50:52+00:00</time>
        <ele>2596.0</ele>
      </trkpt>
      <trkpt lat="44.3141" lon="6.82639">
        <time>2023-04-10T09:50:53+00:00</time>
        <ele>2596.0</ele>
      </trkpt>
      <trkpt lat="44.3141" lon="6.82637">
        <time>2023-04-10T09:50:54+00:00</time>
        <ele>2596.0</ele>
      </trkpt>
      <trkpt lat="44.3141" lon="6.82637">
        <time>2023-04-10T09:50:55+00:00</time>
        <ele>2596.0</ele>
      </trkpt>
      <trkpt lat="44.31409" lon="6.82635">
        <time>2023-04-10T09:50:56+00:00</time>
        <ele>2596.0</ele>
      </trkpt>
      <trkpt lat="44.31409" lon="6.82635">
        <time>2023-04-10T09:50:57+00:00</time>
        <ele>2596.0</ele>
      </trkpt>
      <trkpt lat="44.31409" lon="6.82635">
        <time>2023-04-10T09:50:58+00:00</time>
        <ele>2596.0</ele>
      </trkpt>
      <trkpt lat="44.31408" lon="6.82632">
        <time>2023-04-10T09:50:59+00:00</time>
        <ele>2596.0</ele>
      </trkpt>
      <trkpt lat="44.31408" lon="6.82632">
        <time>2023-04-10T09:51:00+00:00</time>
        <ele>2596.0</ele>
      </trkpt>
      <trkpt lat="44.31408" lon="6.82632">
        <time>2023-04-10T09:51:01+00:00</time>
        <ele>2596.0</ele>
      </trkpt>
      <trkpt lat="44.3141" lon="6.8263">
        <time>2023-04-10T09:51:02+00:00</time>
        <ele>2598.0</ele>
      </trkpt>
      <trkpt lat="44.3141" lon="6.8263">
        <time>2023-04-10T09:51:03+00:00</time>
        <ele>2598.0</ele>
      </trkpt>
      <trkpt lat="44.3141" lon="6.8263">
        <time>2023-04-10T09:51:04+00:00</time>
        <ele>2598.0</ele>
      </trkpt>
      <trkpt lat="44.31412" lon="6.82628">
        <time>2023-04-10T09:51:05+00:00</time>
        <ele>2599.0</ele>
      </trkpt>
      <trkpt lat="44.31412" lon="6.82628">
        <time>2023-04-10T09:51:06+00:00</time>
        <ele>2599.0</ele>
      </trkpt>
      <trkpt lat="44.31412" lon="6.82628">
        <time>2023-04-10T09:51:07+00:00</time>
        <ele>2599.0</ele>
      </trkpt>
      <trkpt lat="44.31414" lon="6.82628">
        <time>2023-04-10T09:51:08+00:00</time>
        <ele>2600.0</ele>
      </trkpt>
      <trkpt lat="44.31414" lon="6.82628">
        <time>2023-04-10T09:51:09+00:00</time>
        <ele>2600.0</ele>
      </trkpt>
      <trkpt lat="44.31414" lon="6.82628">
        <time>2023-04-10T09:51:10+00:00</time>
        <ele>2600.0</ele>
      </trkpt>
      <trkpt lat="44.31414" lon="6.82628">
        <time>2023-04-10T09:51:11+00:00</time>
        <ele>2600.0</ele>
      </trkpt>
      <trkpt lat="44.31416" lon="6.82626">
        <time>2023-04-10T09:51:12+00:00</time>
        <ele>2601.0</ele>
      </trkpt>
      <trkpt lat="44.31416" lon="6.82626">
        <time>2023-04-10T09:51:13+00:00</time>
        <ele>2601.0</ele>
      </trkpt>
      <trkpt lat="44.31416" lon="6.82626">
        <time>2023-04-10T09:51:14+00:00</time>
        <ele>2601.0</ele>
      </trkpt>
      <trkpt lat="44.31418" lon="6.82625">
        <time>2023-04-10T09:51:15+00:00</time>
        <ele>2601.0</ele>
      </trkpt>
      <trkpt lat="44.31418" lon="6.82625">
        <time>2023-04-10T09:51:16+00:00</time>
        <ele>2601.0</ele>
      </trkpt>
      <trkpt lat="44.31418" lon="6.82625">
        <time>2023-04-10T09:51:17+00:00</time>
        <ele>2601.0</ele>
      </trkpt>
      <trkpt lat="44.3142" lon="6.82623">
        <time>2023-04-10T09:51:18+00:00</time>
        <ele>2603.0</ele>
      </trkpt>
      <trkpt lat="44.3142" lon="6.82623">
        <time>2023-04-10T09:51:19+00:00</time>
        <ele>2603.0</ele>
      </trkpt>
      <trkpt lat="44.3142" lon="6.82623">
        <time>2023-04-10T09:51:20+00:00</time>
        <ele>2603.0</ele>
      </trkpt>
      <trkpt lat="44.3142" lon="6.82623">
        <time>2023-04-10T09:51:21+00:00</time>
        <ele>2603.0</ele>
      </trkpt>
      <trkpt lat="44.31421" lon="6.82621">
        <time>2023-04-10T09:51:22+00:00</time>
        <ele>2603.0</ele>
      </trkpt>
      <trkpt lat="44.31421" lon="6.82621">
        <time>2023-04-10T09:51:23+00:00</time>
        <ele>2603.0</ele>
      </trkpt>
      <trkpt lat="44.31421" lon="6.82621">
        <time>2023-04-10T09:51:24+00:00</time>
        <ele>2603.0</ele>
      </trkpt>
      <trkpt lat="44.31423" lon="6.82619">
        <time>2023-04-10T09:51:25+00:00</time>
        <ele>2604.0</ele>
      </trkpt>
      <trkpt lat="44.31423" lon="6.82619">
        <time>2023-04-10T09:51:26+00:00</time>
        <ele>2604.0</ele>
      </trkpt>
      <trkpt lat="44.31423" lon="6.82619">
        <time>2023-04-10T09:51:27+00:00</time>
        <ele>2604.0</ele>
      </trkpt>
      <trkpt lat="44.31423" lon="6.82619">
        <time>2023-04-10T09:51:28+00:00</time>
        <ele>2604.0</ele>
      </trkpt>
      <trkpt lat="44.31424" lon="6.82617">
        <time>2023-04-10T09:51:29+00:00</time>
        <ele>2605.0</ele>
      </trkpt>
      <trkpt lat="44.31424" lon="6.82617">
        <time>2023-04-10T09:51:30+00:00</time>
        <ele>2605.0</ele>
      </trkpt>
      <trkpt lat="44.31424" lon="6.82617">
        <time>2023-04-10T09:51:31+00:00</time>
        <ele>2605.0</ele>
      </trkpt>
      <trkpt lat="44.31424" lon="6.82617">
        <time>2023-04-10T09:51:32+00:00</time>
        <ele>2605.0</ele>
      </trkpt>
      <trkpt lat="44.31424" lon="6.82617">
        <time>2023-04-10T09:51:33+00:00</time>
        <ele>2605.0</ele>
      </trkpt>
      <trkpt lat="44.31424" lon="6.82617">
        <time>2023-04-10T09:51:34+00:00</time>
        <ele>2605.0</ele>
      </trkpt>
      <trkpt lat="44.31424" lon="6.82617">
        <time>2023-04-10T09:51:35+00:00</time>
        <ele>2605.0</ele>
      </trkpt>
      <trkpt lat="44.31423" lon="6.82616">
        <time>2023-04-10T09:51:36+00:00</time>
        <ele>2605.0</ele>
      </trkpt>
      <trkpt lat="44.31423" lon="6.82616">
        <time>2023-04-10T09:51:37+00:00</time>
        <ele>2605.0</ele>
      </trkpt>
      <trkpt lat="44.31423" lon="6.82616">
        <time>2023-04-10T09:51:38+00:00</time>
        <ele>2605.0</ele>
      </trkpt>
      <trkpt lat="44.31421" lon="6.82614">
        <time>2023-04-10T09:51:39+00:00</time>
        <ele>2606.0</ele>
      </trkpt>
      <trkpt lat="44.31421" lon="6.82614">
        <time>2023-04-10T09:51:40+00:00</time>
        <ele>2606.0</ele>
      </trkpt>
      <trkpt lat="44.31421" lon="6.82614">
        <time>2023-04-10T09:51:41+00:00</time>
        <ele>2606.0</ele>
      </trkpt>
      <trkpt lat="44.3142" lon="6.82611">
        <time>2023-04-10T09:51:42+00:00</time>
        <ele>2607.0</ele>
      </trkpt>
      <trkpt lat="44.3142" lon="6.82611">
        <time>2023-04-10T09:51:43+00:00</time>
        <ele>2607.0</ele>
      </trkpt>
      <trkpt lat="44.3142" lon="6.82611">
        <time>2023-04-10T09:51:44+00:00</time>
        <ele>2607.0</ele>
      </trkpt>
      <trkpt lat="44.31421" lon="6.82609">
        <time>2023-04-10T09:51:45+00:00</time>
        <ele>2607.0</ele>
      </trkpt>
      <trkpt lat="44.31421" lon="6.82609">
        <time>2023-04-10T09:51:46+00:00</time>
        <ele>2607.0</ele>
      </trkpt>
      <trkpt lat="44.31421" lon="6.82609">
        <time>2023-04-10T09:51:47+00:00</time>
        <ele>2607.0</ele>
      </trkpt>
      <trkpt lat="44.31421" lon="6.82609">
        <time>2023-04-10T09:51:48+00:00</time>
        <ele>2607.0</ele>
      </trkpt>
      <trkpt lat="44.31422" lon="6.82607">
        <time>2023-04-10T09:51:49+00:00</time>
        <ele>2608.0</ele>
      </trkpt>
      <trkpt lat="44.31422" lon="6.82607">
        <time>2023-04-10T09:51:50+00:00</time>
        <ele>2608.0</ele>
      </trkpt>
      <trkpt lat="44.31422" lon="6.82607">
        <time>2023-04-10T09:51:51+00:00</time>
        <ele>2608.0</ele>
      </trkpt>
      <trkpt lat="44.31423" lon="6.82605">
        <time>2023-04-10T09:51:52+00:00</time>
        <ele>2609.0</ele>
      </trkpt>
      <trkpt lat="44.31423" lon="6.82605">
        <time>2023-04-10T09:51:53+00:00</time>
        <ele>2609.0</ele>
      </trkpt>
      <trkpt lat="44.31423" lon="6.82605">
        <time>2023-04-10T09:51:54+00:00</time>
        <ele>2609.0</ele>
      </trkpt>
      <trkpt lat="44.31424" lon="6.82603">
        <time>2023-04-10T09:51:55+00:00</time>
        <ele>2610.0</ele>
      </trkpt>
      <trkpt lat="44.31424" lon="6.82603">
        <time>2023-04-10T09:51:56+00:00</time>
        <ele>2610.0</ele>
      </trkpt>
      <trkpt lat="44.31424" lon="6.82603">
        <time>2023-04-10T09:51:57+00:00</time>
        <ele>2610.0</ele>
      </trkpt>
      <trkpt lat="44.31426" lon="6.82601">
        <time>2023-04-10T09:51:58+00:00</time>
        <ele>2611.0</ele>
      </trkpt>
      <trkpt lat="44.31426" lon="6.82601">
        <time>2023-04-10T09:51:59+00:00</time>
        <ele>2611.0</ele>
      </trkpt>
      <trkpt lat="44.31426" lon="6.82601">
        <time>2023-04-10T09:52:00+00:00</time>
        <ele>2611.0</ele>
      </trkpt>
      <trkpt lat="44.31427" lon="6.82599">
        <time>2023-04-10T09:52:01+00:00</time>
        <ele>2612.0</ele>
      </trkpt>
      <trkpt lat="44.31427" lon="6.82599">
        <time>2023-04-10T09:52:02+00:00</time>
        <ele>2612.0</ele>
      </trkpt>
      <trkpt lat="44.31427" lon="6.82599">
        <time>2023-04-10T09:52:03+00:00</time>
        <ele>2612.0</ele>
      </trkpt>
      <trkpt lat="44.31427" lon="6.82599">
        <time>2023-04-10T09:52:04+00:00</time>
        <ele>2612.0</ele>
      </trkpt>
      <trkpt lat="44.31427" lon="6.82599">
        <time>2023-04-10T09:52:05+00:00</time>
        <ele>2612.0</ele>
      </trkpt>
      <trkpt lat="44.31427" lon="6.82599">
        <time>2023-04-10T09:52:06+00:00</time>
        <ele>2612.0</ele>
      </trkpt>
      <trkpt lat="44.31425" lon="6.82596">
        <time>2023-04-10T09:52:07+00:00</time>
        <ele>2613.0</ele>
      </trkpt>
      <trkpt lat="44.31425" lon="6.82596">
        <time>2023-04-10T09:52:08+00:00</time>
        <ele>2613.0</ele>
      </trkpt>
      <trkpt lat="44.31425" lon="6.82596">
        <time>2023-04-10T09:52:09+00:00</time>
        <ele>2613.0</ele>
      </trkpt>
      <trkpt lat="44.31423" lon="6.82595">
        <time>2023-04-10T09:52:10+00:00</time>
        <ele>2613.0</ele>
      </trkpt>
      <trkpt lat="44.31423" lon="6.82595">
        <time>2023-04-10T09:52:11+00:00</time>
        <ele>2613.0</ele>
      </trkpt>
      <trkpt lat="44.31423" lon="6.82595">
        <time>2023-04-10T09:52:12+00:00</time>
        <ele>2613.0</ele>
      </trkpt>
      <trkpt lat="44.31421" lon="6.82593">
        <time>2023-04-10T09:52:13+00:00</time>
        <ele>2613.0</ele>
      </trkpt>
      <trkpt lat="44.31421" lon="6.82593">
        <time>2023-04-10T09:52:14+00:00</time>
        <ele>2613.0</ele>
      </trkpt>
      <trkpt lat="44.31419" lon="6.82592">
        <time>2023-04-10T09:52:15+00:00</time>
        <ele>2613.0</ele>
      </trkpt>
      <trkpt lat="44.31419" lon="6.82592">
        <time>2023-04-10T09:52:16+00:00</time>
        <ele>2613.0</ele>
      </trkpt>
      <trkpt lat="44.31419" lon="6.82592">
        <time>2023-04-10T09:52:17+00:00</time>
        <ele>2613.0</ele>
      </trkpt>
      <trkpt lat="44.31417" lon="6.8259">
        <time>2023-04-10T09:52:18+00:00</time>
        <ele>2613.0</ele>
      </trkpt>
      <trkpt lat="44.31417" lon="6.8259">
        <time>2023-04-10T09:52:19+00:00</time>
        <ele>2613.0</ele>
      </trkpt>
      <trkpt lat="44.31417" lon="6.8259">
        <time>2023-04-10T09:52:20+00:00</time>
        <ele>2613.0</ele>
      </trkpt>
      <trkpt lat="44.31415" lon="6.82589">
        <time>2023-04-10T09:52:21+00:00</time>
        <ele>2613.0</ele>
      </trkpt>
      <trkpt lat="44.31415" lon="6.82589">
        <time>2023-04-10T09:52:22+00:00</time>
        <ele>2613.0</ele>
      </trkpt>
      <trkpt lat="44.31415" lon="6.82589">
        <time>2023-04-10T09:52:23+00:00</time>
        <ele>2613.0</ele>
      </trkpt>
      <trkpt lat="44.31413" lon="6.82588">
        <time>2023-04-10T09:52:24+00:00</time>
        <ele>2613.0</ele>
      </trkpt>
      <trkpt lat="44.31413" lon="6.82588">
        <time>2023-04-10T09:52:25+00:00</time>
        <ele>2613.0</ele>
      </trkpt>
      <trkpt lat="44.31413" lon="6.82588">
        <time>2023-04-10T09:52:26+00:00</time>
        <ele>2613.0</ele>
      </trkpt>
      <trkpt lat="44.31412" lon="6.82585">
        <time>2023-04-10T09:52:27+00:00</time>
        <ele>2614.0</ele>
      </trkpt>
      <trkpt lat="44.31412" lon="6.82585">
        <time>2023-04-10T09:52:28+00:00</time>
        <ele>2614.0</ele>
      </trkpt>
      <trkpt lat="44.31412" lon="6.82585">
        <time>2023-04-10T09:52:29+00:00</time>
        <ele>2614.0</ele>
      </trkpt>
      <trkpt lat="44.3141" lon="6.82583">
        <time>2023-04-10T09:52:30+00:00</time>
        <ele>2614.0</ele>
      </trkpt>
      <trkpt lat="44.3141" lon="6.82583">
        <time>2023-04-10T09:52:31+00:00</time>
        <ele>2614.0</ele>
      </trkpt>
      <trkpt lat="44.3141" lon="6.82583">
        <time>2023-04-10T09:52:32+00:00</time>
        <ele>2614.0</ele>
      </trkpt>
      <trkpt lat="44.3141" lon="6.82583">
        <time>2023-04-10T09:52:33+00:00</time>
        <ele>2614.0</ele>
      </trkpt>
      <trkpt lat="44.31412" lon="6.82581">
        <time>2023-04-10T09:52:34+00:00</time>
        <ele>2616.0</ele>
      </trkpt>
      <trkpt lat="44.31412" lon="6.82581">
        <time>2023-04-10T09:52:35+00:00</time>
        <ele>2616.0</ele>
      </trkpt>
      <trkpt lat="44.31414" lon="6.8258">
        <time>2023-04-10T09:52:36+00:00</time>
        <ele>2616.0</ele>
      </trkpt>
      <trkpt lat="44.31414" lon="6.8258">
        <time>2023-04-10T09:52:37+00:00</time>
        <ele>2616.0</ele>
      </trkpt>
      <trkpt lat="44.31414" lon="6.8258">
        <time>2023-04-10T09:52:38+00:00</time>
        <ele>2616.0</ele>
      </trkpt>
      <trkpt lat="44.31415" lon="6.82578">
        <time>2023-04-10T09:52:39+00:00</time>
        <ele>2617.0</ele>
      </trkpt>
      <trkpt lat="44.31415" lon="6.82578">
        <time>2023-04-10T09:52:40+00:00</time>
        <ele>2617.0</ele>
      </trkpt>
      <trkpt lat="44.31415" lon="6.82578">
        <time>2023-04-10T09:52:41+00:00</time>
        <ele>2617.0</ele>
      </trkpt>
      <trkpt lat="44.31417" lon="6.82576">
        <time>2023-04-10T09:52:42+00:00</time>
        <ele>2618.0</ele>
      </trkpt>
      <trkpt lat="44.31417" lon="6.82576">
        <time>2023-04-10T09:52:43+00:00</time>
        <ele>2618.0</ele>
      </trkpt>
      <trkpt lat="44.31418" lon="6.82575">
        <time>2023-04-10T09:52:44+00:00</time>
        <ele>2619.0</ele>
      </trkpt>
      <trkpt lat="44.31418" lon="6.82575">
        <time>2023-04-10T09:52:45+00:00</time>
        <ele>2619.0</ele>
      </trkpt>
      <trkpt lat="44.31418" lon="6.82575">
        <time>2023-04-10T09:52:46+00:00</time>
        <ele>2619.0</ele>
      </trkpt>
      <trkpt lat="44.3142" lon="6.82573">
        <time>2023-04-10T09:52:47+00:00</time>
        <ele>2620.0</ele>
      </trkpt>
      <trkpt lat="44.3142" lon="6.82573">
        <time>2023-04-10T09:52:48+00:00</time>
        <ele>2620.0</ele>
      </trkpt>
      <trkpt lat="44.3142" lon="6.82573">
        <time>2023-04-10T09:52:49+00:00</time>
        <ele>2620.0</ele>
      </trkpt>
      <trkpt lat="44.31422" lon="6.82571">
        <time>2023-04-10T09:52:50+00:00</time>
        <ele>2621.0</ele>
      </trkpt>
      <trkpt lat="44.31422" lon="6.82571">
        <time>2023-04-10T09:52:51+00:00</time>
        <ele>2621.0</ele>
      </trkpt>
      <trkpt lat="44.31422" lon="6.82571">
        <time>2023-04-10T09:52:52+00:00</time>
        <ele>2621.0</ele>
      </trkpt>
      <trkpt lat="44.31423" lon="6.82569">
        <time>2023-04-10T09:52:53+00:00</time>
        <ele>2622.0</ele>
      </trkpt>
      <trkpt lat="44.31423" lon="6.82569">
        <time>2023-04-10T09:52:54+00:00</time>
        <ele>2622.0</ele>
      </trkpt>
      <trkpt lat="44.31423" lon="6.82569">
        <time>2023-04-10T09:52:55+00:00</time>
        <ele>2622.0</ele>
      </trkpt>
      <trkpt lat="44.31424" lon="6.82566">
        <time>2023-04-10T09:52:56+00:00</time>
        <ele>2623.0</ele>
      </trkpt>
      <trkpt lat="44.31424" lon="6.82566">
        <time>2023-04-10T09:52:57+00:00</time>
        <ele>2623.0</ele>
      </trkpt>
      <trkpt lat="44.31424" lon="6.82566">
        <time>2023-04-10T09:52:58+00:00</time>
        <ele>2623.0</ele>
      </trkpt>
      <trkpt lat="44.31424" lon="6.82566">
        <time>2023-04-10T09:52:59+00:00</time>
        <ele>2623.0</ele>
      </trkpt>
      <trkpt lat="44.31426" lon="6.82563">
        <time>2023-04-10T09:53:00+00:00</time>
        <ele>2624.0</ele>
      </trkpt>
      <trkpt lat="44.31426" lon="6.82563">
        <time>2023-04-10T09:53:01+00:00</time>
        <ele>2624.0</ele>
      </trkpt>
      <trkpt lat="44.31426" lon="6.82563">
        <time>2023-04-10T09:53:02+00:00</time>
        <ele>2624.0</ele>
      </trkpt>
      <trkpt lat="44.31426" lon="6.82563">
        <time>2023-04-10T09:53:03+00:00</time>
        <ele>2624.0</ele>
      </trkpt>
      <trkpt lat="44.31424" lon="6.82562">
        <time>2023-04-10T09:53:04+00:00</time>
        <ele>2624.0</ele>
      </trkpt>
      <trkpt lat="44.31424" lon="6.82562">
        <time>2023-04-10T09:53:05+00:00</time>
        <ele>2624.0</ele>
      </trkpt>
      <trkpt lat="44.31424" lon="6.82562">
        <time>2023-04-10T09:53:06+00:00</time>
        <ele>2624.0</ele>
      </trkpt>
      <trkpt lat="44.31422" lon="6.8256">
        <time>2023-04-10T09:53:07+00:00</time>
        <ele>2625.0</ele>
      </trkpt>
      <trkpt lat="44.31422" lon="6.8256">
        <time>2023-04-10T09:53:08+00:00</time>
        <ele>2625.0</ele>
      </trkpt>
      <trkpt lat="44.31422" lon="6.8256">
        <time>2023-04-10T09:53:09+00:00</time>
        <ele>2625.0</ele>
      </trkpt>
      <trkpt lat="44.3142" lon="6.82559">
        <time>2023-04-10T09:53:10+00:00</time>
        <ele>2625.0</ele>
      </trkpt>
      <trkpt lat="44.3142" lon="6.82559">
        <time>2023-04-10T09:53:11+00:00</time>
        <ele>2625.0</ele>
      </trkpt>
      <trkpt lat="44.3142" lon="6.82559">
        <time>2023-04-10T09:53:12+00:00</time>
        <ele>2625.0</ele>
      </trkpt>
      <trkpt lat="44.31418" lon="6.82558">
        <time>2023-04-10T09:53:13+00:00</time>
        <ele>2625.0</ele>
      </trkpt>
      <trkpt lat="44.31418" lon="6.82558">
        <time>2023-04-10T09:53:14+00:00</time>
        <ele>2625.0</ele>
      </trkpt>
      <trkpt lat="44.31418" lon="6.82558">
        <time>2023-04-10T09:53:15+00:00</time>
        <ele>2625.0</ele>
      </trkpt>
      <trkpt lat="44.31416" lon="6.82556">
        <time>2023-04-10T09:53:16+00:00</time>
        <ele>2626.0</ele>
      </trkpt>
      <trkpt lat="44.31416" lon="6.82556">
        <time>2023-04-10T09:53:17+00:00</time>
        <ele>2626.0</ele>
      </trkpt>
      <trkpt lat="44.31416" lon="6.82556">
        <time>2023-04-10T09:53:18+00:00</time>
        <ele>2626.0</ele>
      </trkpt>
      <trkpt lat="44.31414" lon="6.82555">
        <time>2023-04-10T09:53:19+00:00</time>
        <ele>2626.0</ele>
      </trkpt>
      <trkpt lat="44.31414" lon="6.82555">
        <time>2023-04-10T09:53:20+00:00</time>
        <ele>2626.0</ele>
      </trkpt>
      <trkpt lat="44.31414" lon="6.82555">
        <time>2023-04-10T09:53:21+00:00</time>
        <ele>2626.0</ele>
      </trkpt>
      <trkpt lat="44.31413" lon="6.82553">
        <time>2023-04-10T09:53:22+00:00</time>
        <ele>2626.0</ele>
      </trkpt>
      <trkpt lat="44.31413" lon="6.82553">
        <time>2023-04-10T09:53:23+00:00</time>
        <ele>2626.0</ele>
      </trkpt>
      <trkpt lat="44.31413" lon="6.82553">
        <time>2023-04-10T09:53:24+00:00</time>
        <ele>2626.0</ele>
      </trkpt>
      <trkpt lat="44.31411" lon="6.82551">
        <time>2023-04-10T09:53:25+00:00</time>
        <ele>2627.0</ele>
      </trkpt>
      <trkpt lat="44.31411" lon="6.82551">
        <time>2023-04-10T09:53:26+00:00</time>
        <ele>2627.0</ele>
      </trkpt>
      <trkpt lat="44.31411" lon="6.82551">
        <time>2023-04-10T09:53:27+00:00</time>
        <ele>2627.0</ele>
      </trkpt>
      <trkpt lat="44.3141" lon="6.82548">
        <time>2023-04-10T09:53:28+00:00</time>
        <ele>2627.0</ele>
      </trkpt>
      <trkpt lat="44.3141" lon="6.82548">
        <time>2023-04-10T09:53:29+00:00</time>
        <ele>2627.0</ele>
      </trkpt>
      <trkpt lat="44.3141" lon="6.82548">
        <time>2023-04-10T09:53:30+00:00</time>
        <ele>2627.0</ele>
      </trkpt>
      <trkpt lat="44.3141" lon="6.82548">
        <time>2023-04-10T09:53:31+00:00</time>
        <ele>2627.0</ele>
      </trkpt>
      <trkpt lat="44.3141" lon="6.82546">
        <time>2023-04-10T09:53:32+00:00</time>
        <ele>2628.0</ele>
      </trkpt>
      <trkpt lat="44.3141" lon="6.82546">
        <time>2023-04-10T09:53:33+00:00</time>
        <ele>2628.0</ele>
      </trkpt>
      <trkpt lat="44.3141" lon="6.82546">
        <time>2023-04-10T09:53:34+00:00</time>
        <ele>2628.0</ele>
      </trkpt>
      <trkpt lat="44.3141" lon="6.82546">
        <time>2023-04-10T09:53:35+00:00</time>
        <ele>2628.0</ele>
      </trkpt>
      <trkpt lat="44.3141" lon="6.82546">
        <time>2023-04-10T09:53:36+00:00</time>
        <ele>2628.0</ele>
      </trkpt>
      <trkpt lat="44.31409" lon="6.82542">
        <time>2023-04-10T09:53:37+00:00</time>
        <ele>2629.0</ele>
      </trkpt>
      <trkpt lat="44.31409" lon="6.82542">
        <time>2023-04-10T09:53:38+00:00</time>
        <ele>2629.0</ele>
      </trkpt>
      <trkpt lat="44.31409" lon="6.82542">
        <time>2023-04-10T09:53:39+00:00</time>
        <ele>2629.0</ele>
      </trkpt>
      <trkpt lat="44.31409" lon="6.82542">
        <time>2023-04-10T09:53:40+00:00</time>
        <ele>2629.0</ele>
      </trkpt>
      <trkpt lat="44.31409" lon="6.82542">
        <time>2023-04-10T09:53:41+00:00</time>
        <ele>2629.0</ele>
      </trkpt>
      <trkpt lat="44.31408" lon="6.82539">
        <time>2023-04-10T09:53:42+00:00</time>
        <ele>2630.0</ele>
      </trkpt>
      <trkpt lat="44.31408" lon="6.82539">
        <time>2023-04-10T09:53:43+00:00</time>
        <ele>2630.0</ele>
      </trkpt>
      <trkpt lat="44.31408" lon="6.82539">
        <time>2023-04-10T09:53:44+00:00</time>
        <ele>2630.0</ele>
      </trkpt>
      <trkpt lat="44.31408" lon="6.82539">
        <time>2023-04-10T09:53:45+00:00</time>
        <ele>2630.0</ele>
      </trkpt>
      <trkpt lat="44.31408" lon="6.82539">
        <time>2023-04-10T09:53:46+00:00</time>
        <ele>2630.0</ele>
      </trkpt>
      <trkpt lat="44.31408" lon="6.82536">
        <time>2023-04-10T09:53:47+00:00</time>
        <ele>2631.0</ele>
      </trkpt>
      <trkpt lat="44.31408" lon="6.82536">
        <time>2023-04-10T09:53:48+00:00</time>
        <ele>2631.0</ele>
      </trkpt>
      <trkpt lat="44.31408" lon="6.82536">
        <time>2023-04-10T09:53:49+00:00</time>
        <ele>2631.0</ele>
      </trkpt>
      <trkpt lat="44.31408" lon="6.82536">
        <time>2023-04-10T09:53:50+00:00</time>
        <ele>2631.0</ele>
      </trkpt>
      <trkpt lat="44.31408" lon="6.82536">
        <time>2023-04-10T09:53:51+00:00</time>
        <ele>2631.0</ele>
      </trkpt>
      <trkpt lat="44.31408" lon="6.82536">
        <time>2023-04-10T09:53:52+00:00</time>
        <ele>2631.0</ele>
      </trkpt>
      <trkpt lat="44.31409" lon="6.82534">
        <time>2023-04-10T09:53:53+00:00</time>
        <ele>2632.0</ele>
      </trkpt>
      <trkpt lat="44.31409" lon="6.82534">
        <time>2023-04-10T09:53:54+00:00</time>
        <ele>2632.0</ele>
      </trkpt>
      <trkpt lat="44.31409" lon="6.82534">
        <time>2023-04-10T09:53:55+00:00</time>
        <ele>2632.0</ele>
      </trkpt>
      <trkpt lat="44.31409" lon="6.82534">
        <time>2023-04-10T09:53:56+00:00</time>
        <ele>2632.0</ele>
      </trkpt>
      <trkpt lat="44.31409" lon="6.82534">
        <time>2023-04-10T09:53:57+00:00</time>
        <ele>2632.0</ele>
      </trkpt>
      <trkpt lat="44.31409" lon="6.82534">
        <time>2023-04-10T09:53:58+00:00</time>
        <ele>2632.0</ele>
      </trkpt>
      <trkpt lat="44.31409" lon="6.82534">
        <time>2023-04-10T09:53:59+00:00</time>
        <ele>2632.0</ele>
      </trkpt>
      <trkpt lat="44.31409" lon="6.82534">
        <time>2023-04-10T09:54:00+00:00</time>
        <ele>2632.0</ele>
      </trkpt>
      <trkpt lat="44.31409" lon="6.82534">
        <time>2023-04-10T09:54:01+00:00</time>
        <ele>2632.0</ele>
      </trkpt>
      <trkpt lat="44.31409" lon="6.82534">
        <time>2023-04-10T09:54:02+00:00</time>
        <ele>2632.0</ele>
      </trkpt>
      <trkpt lat="44.31409" lon="6.82534">
        <time>2023-04-10T09:54:03+00:00</time>
        <ele>2632.0</ele>
      </trkpt>
      <trkpt lat="44.31409" lon="6.82534">
        <time>2023-04-10T09:54:04+00:00</time>
        <ele>2632.0</ele>
      </trkpt>
      <trkpt lat="44.31409" lon="6.82534">
        <time>2023-04-10T09:54:05+00:00</time>
        <ele>2632.0</ele>
      </trkpt>
      <trkpt lat="44.31409" lon="6.82534">
        <time>2023-04-10T09:54:06+00:00</time>
        <ele>2632.0</ele>
      </trkpt>
      <trkpt lat="44.31409" lon="6.82534">
        <time>2023-04-10T09:54:07+00:00</time>
        <ele>2632.0</ele>
      </trkpt>
      <trkpt lat="44.31409" lon="6.82534">
        <time>2023-04-10T09:54:08+00:00</time>
        <ele>2632.0</ele>
      </trkpt>
      <trkpt lat="44.31409" lon="6.82534">
        <time>2023-04-10T09:54:09+00:00</time>
        <ele>2632.0</ele>
      </trkpt>
      <trkpt lat="44.31409" lon="6.82534">
        <time>2023-04-10T09:54:10+00:00</time>
        <ele>2632.0</ele>
      </trkpt>
      <trkpt lat="44.31409" lon="6.82534">
        <time>2023-04-10T09:54:11+00:00</time>
        <ele>2632.0</ele>
      </trkpt>
      <trkpt lat="44.31409" lon="6.82534">
        <time>2023-04-10T09:54:12+00:00</time>
        <ele>2632.0</ele>
      </trkpt>
      <trkpt lat="44.31409" lon="6.82534">
        <time>2023-04-10T09:54:13+00:00</time>
        <ele>2632.0</ele>
      </trkpt>
      <trkpt lat="44.31409" lon="6.82534">
        <time>2023-04-10T09:54:14+00:00</time>
        <ele>2632.0</ele>
      </trkpt>
      <trkpt lat="44.31409" lon="6.82534">
        <time>2023-04-10T09:54:15+00:00</time>
        <ele>2632.0</ele>
      </trkpt>
      <trkpt lat="44.31409" lon="6.82534">
        <time>2023-04-10T09:54:16+00:00</time>
        <ele>2632.0</ele>
      </trkpt>
      <trkpt lat="44.31409" lon="6.82533">
        <time>2023-04-10T09:54:17+00:00</time>
        <ele>2633.0</ele>
      </trkpt>
      <trkpt lat="44.31409" lon="6.82533">
        <time>2023-04-10T09:54:18+00:00</time>
        <ele>2633.0</ele>
      </trkpt>
      <trkpt lat="44.3141" lon="6.82533">
        <time>2023-04-10T09:54:19+00:00</time>
        <ele>2633.0</ele>
      </trkpt>
      <trkpt lat="44.3141" lon="6.82533">
        <time>2023-04-10T09:54:20+00:00</time>
        <ele>2633.0</ele>
      </trkpt>
      <trkpt lat="44.3141" lon="6.82533">
        <time>2023-04-10T09:54:21+00:00</time>
        <ele>2633.0</ele>
      </trkpt>
      <trkpt lat="44.3141" lon="6.82533">
        <time>2023-04-10T09:54:22+00:00</time>
        <ele>2633.0</ele>
      </trkpt>
      <trkpt lat="44.3141" lon="6.82533">
        <time>2023-04-10T09:54:23+00:00</time>
        <ele>2633.0</ele>
      </trkpt>
      <trkpt lat="44.3141" lon="6.82533">
        <time>2023-04-10T09:54:24+00:00</time>
        <ele>2633.0</ele>
      </trkpt>
      <trkpt lat="44.3141" lon="6.82533">
        <time>2023-04-10T09:54:25+00:00</time>
        <ele>2633.0</ele>
      </trkpt>
      <trkpt lat="44.3141" lon="6.82533">
        <time>2023-04-10T09:54:26+00:00</time>
        <ele>2633.0</ele>
      </trkpt>
      <trkpt lat="44.3141" lon="6.82533">
        <time>2023-04-10T09:54:27+00:00</time>
        <ele>2633.0</ele>
      </trkpt>
      <trkpt lat="44.3141" lon="6.82533">
        <time>2023-04-10T09:54:28+00:00</time>
        <ele>2633.0</ele>
      </trkpt>
      <trkpt lat="44.31411" lon="6.82533">
        <time>2023-04-10T09:54:29+00:00</time>
        <ele>2633.0</ele>
      </trkpt>
      <trkpt lat="44.31411" lon="6.82533">
        <time>2023-04-10T09:54:30+00:00</time>
        <ele>2633.0</ele>
      </trkpt>
      <trkpt lat="44.31411" lon="6.82533">
        <time>2023-04-10T09:54:31+00:00</time>
        <ele>2633.0</ele>
      </trkpt>
      <trkpt lat="44.31411" lon="6.82533">
        <time>2023-04-10T09:54:32+00:00</time>
        <ele>2633.0</ele>
      </trkpt>
      <trkpt lat="44.31411" lon="6.82533">
        <time>2023-04-10T09:54:33+00:00</time>
        <ele>2633.0</ele>
      </trkpt>
      <trkpt lat="44.31411" lon="6.82533">
        <time>2023-04-10T09:54:34+00:00</time>
        <ele>2633.0</ele>
      </trkpt>
      <trkpt lat="44.31411" lon="6.82533">
        <time>2023-04-10T09:54:35+00:00</time>
        <ele>2633.0</ele>
      </trkpt>
      <trkpt lat="44.31411" lon="6.82533">
        <time>2023-04-10T09:54:36+00:00</time>
        <ele>2633.0</ele>
      </trkpt>
      <trkpt lat="44.31416" lon="6.82529">
        <time>2023-04-10T09:54:37+00:00</time>
        <ele>2635.0</ele>
      </trkpt>
      <trkpt lat="44.31416" lon="6.82529">
        <time>2023-04-10T09:54:38+00:00</time>
        <ele>2635.0</ele>
      </trkpt>
      <trkpt lat="44.31414" lon="6.82528">
        <time>2023-04-10T09:54:39+00:00</time>
        <ele>2635.0</ele>
      </trkpt>
      <trkpt lat="44.31414" lon="6.82528">
        <time>2023-04-10T09:54:40+00:00</time>
        <ele>2635.0</ele>
      </trkpt>
      <trkpt lat="44.31412" lon="6.82526">
        <time>2023-04-10T09:54:41+00:00</time>
        <ele>2636.0</ele>
      </trkpt>
      <trkpt lat="44.31412" lon="6.82526">
        <time>2023-04-10T09:54:42+00:00</time>
        <ele>2636.0</ele>
      </trkpt>
      <trkpt lat="44.31409" lon="6.82524">
        <time>2023-04-10T09:54:43+00:00</time>
        <ele>2636.0</ele>
      </trkpt>
      <trkpt lat="44.31409" lon="6.82524">
        <time>2023-04-10T09:54:44+00:00</time>
        <ele>2636.0</ele>
      </trkpt>
      <trkpt lat="44.31408" lon="6.82522">
        <time>2023-04-10T09:54:45+00:00</time>
        <ele>2637.0</ele>
      </trkpt>
      <trkpt lat="44.31408" lon="6.82522">
        <time>2023-04-10T09:54:46+00:00</time>
        <ele>2637.0</ele>
      </trkpt>
      <trkpt lat="44.31408" lon="6.82522">
        <time>2023-04-10T09:54:47+00:00</time>
        <ele>2637.0</ele>
      </trkpt>
      <trkpt lat="44.31407" lon="6.82519">
        <time>2023-04-10T09:54:48+00:00</time>
        <ele>2637.0</ele>
      </trkpt>
      <trkpt lat="44.31407" lon="6.82519">
        <time>2023-04-10T09:54:49+00:00</time>
        <ele>2637.0</ele>
      </trkpt>
      <trkpt lat="44.31407" lon="6.82519">
        <time>2023-04-10T09:54:50+00:00</time>
        <ele>2637.0</ele>
      </trkpt>
      <trkpt lat="44.31408" lon="6.82516">
        <time>2023-04-10T09:54:51+00:00</time>
        <ele>2639.0</ele>
      </trkpt>
      <trkpt lat="44.31408" lon="6.82516">
        <time>2023-04-10T09:54:52+00:00</time>
        <ele>2639.0</ele>
      </trkpt>
      <trkpt lat="44.31408" lon="6.82516">
        <time>2023-04-10T09:54:53+00:00</time>
        <ele>2639.0</ele>
      </trkpt>
      <trkpt lat="44.31408" lon="6.82516">
        <time>2023-04-10T09:54:54+00:00</time>
        <ele>2639.0</ele>
      </trkpt>
      <trkpt lat="44.31408" lon="6.82516">
        <time>2023-04-10T09:54:55+00:00</time>
        <ele>2639.0</ele>
      </trkpt>
      <trkpt lat="44.31407" lon="6.82514">
        <time>2023-04-10T09:54:56+00:00</time>
        <ele>2639.0</ele>
      </trkpt>
      <trkpt lat="44.31407" lon="6.82514">
        <time>2023-04-10T09:54:57+00:00</time>
        <ele>2639.0</ele>
      </trkpt>
      <trkpt lat="44.31407" lon="6.82514">
        <time>2023-04-10T09:54:58+00:00</time>
        <ele>2639.0</ele>
      </trkpt>
      <trkpt lat="44.31407" lon="6.82514">
        <time>2023-04-10T09:54:59+00:00</time>
        <ele>2639.0</ele>
      </trkpt>
      <trkpt lat="44.31406" lon="6.82511">
        <time>2023-04-10T09:55:00+00:00</time>
        <ele>2640.0</ele>
      </trkpt>
      <trkpt lat="44.31406" lon="6.82511">
        <time>2023-04-10T09:55:01+00:00</time>
        <ele>2640.0</ele>
      </trkpt>
      <trkpt lat="44.31406" lon="6.82511">
        <time>2023-04-10T09:55:02+00:00</time>
        <ele>2640.0</ele>
      </trkpt>
      <trkpt lat="44.31406" lon="6.82511">
        <time>2023-04-10T09:55:03+00:00</time>
        <ele>2640.0</ele>
      </trkpt>
      <trkpt lat="44.31406" lon="6.82511">
        <time>2023-04-10T09:55:04+00:00</time>
        <ele>2640.0</ele>
      </trkpt>
      <trkpt lat="44.31406" lon="6.82508">
        <time>2023-04-10T09:55:05+00:00</time>
        <ele>2641.0</ele>
      </trkpt>
      <trkpt lat="44.31406" lon="6.82508">
        <time>2023-04-10T09:55:06+00:00</time>
        <ele>2641.0</ele>
      </trkpt>
      <trkpt lat="44.31406" lon="6.82508">
        <time>2023-04-10T09:55:07+00:00</time>
        <ele>2641.0</ele>
      </trkpt>
      <trkpt lat="44.31406" lon="6.82508">
        <time>2023-04-10T09:55:08+00:00</time>
        <ele>2641.0</ele>
      </trkpt>
      <trkpt lat="44.31406" lon="6.82508">
        <time>2023-04-10T09:55:09+00:00</time>
        <ele>2641.0</ele>
      </trkpt>
      <trkpt lat="44.31406" lon="6.82508">
        <time>2023-04-10T09:55:10+00:00</time>
        <ele>2641.0</ele>
      </trkpt>
      <trkpt lat="44.31406" lon="6.82508">
        <time>2023-04-10T09:55:11+00:00</time>
        <ele>2641.0</ele>
      </trkpt>
      <trkpt lat="44.31406" lon="6.82508">
        <time>2023-04-10T09:55:12+00:00</time>
        <ele>2641.0</ele>
      </trkpt>
      <trkpt lat="44.31406" lon="6.82508">
        <time>2023-04-10T09:55:13+00:00</time>
        <ele>2641.0</ele>
      </trkpt>
      <trkpt lat="44.31406" lon="6.82508">
        <time>2023-04-10T09:55:14+00:00</time>
        <ele>2641.0</ele>
      </trkpt>
      <trkpt lat="44.31406" lon="6.82508">
        <time>2023-04-10T09:55:15+00:00</time>
        <ele>2641.0</ele>
      </trkpt>
      <trkpt lat="44.31406" lon="6.82508">
        <time>2023-04-10T09:55:16+00:00</time>
        <ele>2641.0</ele>
      </trkpt>
      <trkpt lat="44.31406" lon="6.82508">
        <time>2023-04-10T09:55:17+00:00</time>
        <ele>2641.0</ele>
      </trkpt>
      <trkpt lat="44.31406" lon="6.82508">
        <time>2023-04-10T09:55:18+00:00</time>
        <ele>2641.0</ele>
      </trkpt>
      <trkpt lat="44.31406" lon="6.82508">
        <time>2023-04-10T09:55:19+00:00</time>
        <ele>2641.0</ele>
      </trkpt>
      <trkpt lat="44.31406" lon="6.82508">
        <time>2023-04-10T09:55:20+00:00</time>
        <ele>2641.0</ele>
      </trkpt>
      <trkpt lat="44.31406" lon="6.82508">
        <time>2023-04-10T09:55:21+00:00</time>
        <ele>2641.0</ele>
      </trkpt>
      <trkpt lat="44.31406" lon="6.82508">
        <time>2023-04-10T09:55:22+00:00</time>
        <ele>2641.0</ele>
      </trkpt>
      <trkpt lat="44.31406" lon="6.82508">
        <time>2023-04-10T09:55:23+00:00</time>
        <ele>2641.0</ele>
      </trkpt>
      <trkpt lat="44.31406" lon="6.82508">
        <time>2023-04-10T09:55:24+00:00</time>
        <ele>2641.0</ele>
      </trkpt>
      <trkpt lat="44.31406" lon="6.82508">
        <time>2023-04-10T09:55:25+00:00</time>
        <ele>2641.0</ele>
      </trkpt>
      <trkpt lat="44.31406" lon="6.82508">
        <time>2023-04-10T09:55:26+00:00</time>
        <ele>2641.0</ele>
      </trkpt>
      <trkpt lat="44.31406" lon="6.82508">
        <time>2023-04-10T09:55:27+00:00</time>
        <ele>2641.0</ele>
      </trkpt>
      <trkpt lat="44.31406" lon="6.82508">
        <time>2023-04-10T09:55:28+00:00</time>
        <ele>2641.0</ele>
      </trkpt>
      <trkpt lat="44.31406" lon="6.82508">
        <time>2023-04-10T09:55:29+00:00</time>
        <ele>2641.0</ele>
      </trkpt>
      <trkpt lat="44.31406" lon="6.82508">
        <time>2023-04-10T09:55:30+00:00</time>
        <ele>2641.0</ele>
      </trkpt>
      <trkpt lat="44.31406" lon="6.82508">
        <time>2023-04-10T09:55:31+00:00</time>
        <ele>2641.0</ele>
      </trkpt>
      <trkpt lat="44.31406" lon="6.82508">
        <time>2023-04-10T09:55:32+00:00</time>
        <ele>2641.0</ele>
      </trkpt>
      <trkpt lat="44.31406" lon="6.82508">
        <time>2023-04-10T09:55:33+00:00</time>
        <ele>2641.0</ele>
      </trkpt>
      <trkpt lat="44.31406" lon="6.82508">
        <time>2023-04-10T09:55:34+00:00</time>
        <ele>2641.0</ele>
      </trkpt>
      <trkpt lat="44.31406" lon="6.82508">
        <time>2023-04-10T09:55:35+00:00</time>
        <ele>2641.0</ele>
      </trkpt>
      <trkpt lat="44.31406" lon="6.82508">
        <time>2023-04-10T09:55:36+00:00</time>
        <ele>2641.0</ele>
      </trkpt>
      <trkpt lat="44.31406" lon="6.82508">
        <time>2023-04-10T09:55:37+00:00</time>
        <ele>2641.0</ele>
      </trkpt>
      <trkpt lat="44.31406" lon="6.82508">
        <time>2023-04-10T09:55:38+00:00</time>
        <ele>2641.0</ele>
      </trkpt>
      <trkpt lat="44.31406" lon="6.82507">
        <time>2023-04-10T09:55:39+00:00</time>
        <ele>2642.0</ele>
      </trkpt>
      <trkpt lat="44.31406" lon="6.82507">
        <time>2023-04-10T09:55:40+00:00</time>
        <ele>2642.0</ele>
      </trkpt>
      <trkpt lat="44.31406" lon="6.82507">
        <time>2023-04-10T09:55:41+00:00</time>
        <ele>2642.0</ele>
      </trkpt>
      <trkpt lat="44.31406" lon="6.82507">
        <time>2023-04-10T09:55:42+00:00</time>
        <ele>2642.0</ele>
      </trkpt>
      <trkpt lat="44.31406" lon="6.82507">
        <time>2023-04-10T09:55:43+00:00</time>
        <ele>2642.0</ele>
      </trkpt>
      <trkpt lat="44.31406" lon="6.82507">
        <time>2023-04-10T09:55:44+00:00</time>
        <ele>2642.0</ele>
      </trkpt>
      <trkpt lat="44.31406" lon="6.82507">
        <time>2023-04-10T09:55:45+00:00</time>
        <ele>2642.0</ele>
      </trkpt>
      <trkpt lat="44.31406" lon="6.82507">
        <time>2023-04-10T09:55:46+00:00</time>
        <ele>2642.0</ele>
      </trkpt>
      <trkpt lat="44.31406" lon="6.82507">
        <time>2023-04-10T09:55:47+00:00</time>
        <ele>2642.0</ele>
      </trkpt>
      <trkpt lat="44.31406" lon="6.82507">
        <time>2023-04-10T09:55:48+00:00</time>
        <ele>2642.0</ele>
      </trkpt>
      <trkpt lat="44.31406" lon="6.82507">
        <time>2023-04-10T09:55:49+00:00</time>
        <ele>2642.0</ele>
      </trkpt>
      <trkpt lat="44.31406" lon="6.82507">
        <time>2023-04-10T09:55:50+00:00</time>
        <ele>2642.0</ele>
      </trkpt>
      <trkpt lat="44.31406" lon="6.82507">
        <time>2023-04-10T09:55:51+00:00</time>
        <ele>2642.0</ele>
      </trkpt>
      <trkpt lat="44.31406" lon="6.82507">
        <time>2023-04-10T09:55:52+00:00</time>
        <ele>2642.0</ele>
      </trkpt>
      <trkpt lat="44.31406" lon="6.82507">
        <time>2023-04-10T09:55:53+00:00</time>
        <ele>2642.0</ele>
      </trkpt>
      <trkpt lat="44.31406" lon="6.82507">
        <time>2023-04-10T09:55:54+00:00</time>
        <ele>2642.0</ele>
      </trkpt>
      <trkpt lat="44.31406" lon="6.82507">
        <time>2023-04-10T09:55:55+00:00</time>
        <ele>2642.0</ele>
      </trkpt>
      <trkpt lat="44.31406" lon="6.82507">
        <time>2023-04-10T09:55:56+00:00</time>
        <ele>2642.0</ele>
      </trkpt>
      <trkpt lat="44.31406" lon="6.82507">
        <time>2023-04-10T09:55:57+00:00</time>
        <ele>2642.0</ele>
      </trkpt>
      <trkpt lat="44.31406" lon="6.82507">
        <time>2023-04-10T09:55:58+00:00</time>
        <ele>2642.0</ele>
      </trkpt>
      <trkpt lat="44.31406" lon="6.82507">
        <time>2023-04-10T09:55:59+00:00</time>
        <ele>2642.0</ele>
      </trkpt>
      <trkpt lat="44.31406" lon="6.82507">
        <time>2023-04-10T09:56:00+00:00</time>
        <ele>2642.0</ele>
      </trkpt>
      <trkpt lat="44.31406" lon="6.82507">
        <time>2023-04-10T09:56:01+00:00</time>
        <ele>2642.0</ele>
      </trkpt>
      <trkpt lat="44.31406" lon="6.82507">
        <time>2023-04-10T09:56:02+00:00</time>
        <ele>2642.0</ele>
      </trkpt>
      <trkpt lat="44.31406" lon="6.82507">
        <time>2023-04-10T09:56:03+00:00</time>
        <ele>2642.0</ele>
      </trkpt>
      <trkpt lat="44.31406" lon="6.82507">
        <time>2023-04-10T09:56:04+00:00</time>
        <ele>2642.0</ele>
      </trkpt>
      <trkpt lat="44.31406" lon="6.82507">
        <time>2023-04-10T09:56:05+00:00</time>
        <ele>2642.0</ele>
      </trkpt>
      <trkpt lat="44.31406" lon="6.82507">
        <time>2023-04-10T09:56:06+00:00</time>
        <ele>2642.0</ele>
      </trkpt>
      <trkpt lat="44.31406" lon="6.82507">
        <time>2023-04-10T09:56:07+00:00</time>
        <ele>2642.0</ele>
      </trkpt>
      <trkpt lat="44.31406" lon="6.82507">
        <time>2023-04-10T09:56:08+00:00</time>
        <ele>2642.0</ele>
      </trkpt>
      <trkpt lat="44.31406" lon="6.82507">
        <time>2023-04-10T09:56:09+00:00</time>
        <ele>2642.0</ele>
      </trkpt>
      <trkpt lat="44.31406" lon="6.82507">
        <time>2023-04-10T09:56:10+00:00</time>
        <ele>2642.0</ele>
      </trkpt>
      <trkpt lat="44.31406" lon="6.82507">
        <time>2023-04-10T09:56:11+00:00</time>
        <ele>2642.0</ele>
      </trkpt>
      <trkpt lat="44.31406" lon="6.82507">
        <time>2023-04-10T09:56:12+00:00</time>
        <ele>2642.0</ele>
      </trkpt>
      <trkpt lat="44.31406" lon="6.82507">
        <time>2023-04-10T09:56:13+00:00</time>
        <ele>2642.0</ele>
      </trkpt>
      <trkpt lat="44.31406" lon="6.82507">
        <time>2023-04-10T09:56:14+00:00</time>
        <ele>2642.0</ele>
      </trkpt>
      <trkpt lat="44.31406" lon="6.82507">
        <time>2023-04-10T09:56:15+00:00</time>
        <ele>2642.0</ele>
      </trkpt>
      <trkpt lat="44.31406" lon="6.82507">
        <time>2023-04-10T09:56:16+00:00</time>
        <ele>2642.0</ele>
      </trkpt>
      <trkpt lat="44.31406" lon="6.82507">
        <time>2023-04-10T09:56:17+00:00</time>
        <ele>2642.0</ele>
      </trkpt>
      <trkpt lat="44.31406" lon="6.82507">
        <time>2023-04-10T09:56:18+00:00</time>
        <ele>2642.0</ele>
      </trkpt>
      <trkpt lat="44.31406" lon="6.82507">
        <time>2023-04-10T09:56:19+00:00</time>
        <ele>2642.0</ele>
      </trkpt>
      <trkpt lat="44.31406" lon="6.82507">
        <time>2023-04-10T09:56:20+00:00</time>
        <ele>2642.0</ele>
      </trkpt>
      <trkpt lat="44.31405" lon="6.82507">
        <time>2023-04-10T09:56:21+00:00</time>
        <ele>2642.0</ele>
      </trkpt>
      <trkpt lat="44.31405" lon="6.82507">
        <time>2023-04-10T09:56:22+00:00</time>
        <ele>2642.0</ele>
      </trkpt>
      <trkpt lat="44.31405" lon="6.82507">
        <time>2023-04-10T09:56:23+00:00</time>
        <ele>2642.0</ele>
      </trkpt>
      <trkpt lat="44.31405" lon="6.82507">
        <time>2023-04-10T09:56:24+00:00</time>
        <ele>2642.0</ele>
      </trkpt>
      <trkpt lat="44.31405" lon="6.82507">
        <time>2023-04-10T09:56:25+00:00</time>
        <ele>2642.0</ele>
      </trkpt>
      <trkpt lat="44.31405" lon="6.82506">
        <time>2023-04-10T09:56:26+00:00</time>
        <ele>2642.0</ele>
      </trkpt>
      <trkpt lat="44.31405" lon="6.82506">
        <time>2023-04-10T09:56:27+00:00</time>
        <ele>2642.0</ele>
      </trkpt>
      <trkpt lat="44.31405" lon="6.82506">
        <time>2023-04-10T09:56:28+00:00</time>
        <ele>2642.0</ele>
      </trkpt>
      <trkpt lat="44.31405" lon="6.82506">
        <time>2023-04-10T09:56:29+00:00</time>
        <ele>2642.0</ele>
      </trkpt>
      <trkpt lat="44.31405" lon="6.82506">
        <time>2023-04-10T09:56:30+00:00</time>
        <ele>2642.0</ele>
      </trkpt>
      <trkpt lat="44.31405" lon="6.82506">
        <time>2023-04-10T09:56:31+00:00</time>
        <ele>2642.0</ele>
      </trkpt>
      <trkpt lat="44.31405" lon="6.82506">
        <time>2023-04-10T09:56:32+00:00</time>
        <ele>2642.0</ele>
      </trkpt>
      <trkpt lat="44.31405" lon="6.82506">
        <time>2023-04-10T09:56:33+00:00</time>
        <ele>2642.0</ele>
      </trkpt>
      <trkpt lat="44.31405" lon="6.82506">
        <time>2023-04-10T09:56:34+00:00</time>
        <ele>2642.0</ele>
      </trkpt>
      <trkpt lat="44.31405" lon="6.82506">
        <time>2023-04-10T09:56:35+00:00</time>
        <ele>2642.0</ele>
      </trkpt>
      <trkpt lat="44.31405" lon="6.82506">
        <time>2023-04-10T09:56:36+00:00</time>
        <ele>2642.0</ele>
      </trkpt>
      <trkpt lat="44.31405" lon="6.82506">
        <time>2023-04-10T09:56:37+00:00</time>
        <ele>2642.0</ele>
      </trkpt>
      <trkpt lat="44.31405" lon="6.82506">
        <time>2023-04-10T09:56:38+00:00</time>
        <ele>2642.0</ele>
      </trkpt>
      <trkpt lat="44.31405" lon="6.82506">
        <time>2023-04-10T09:56:39+00:00</time>
        <ele>2642.0</ele>
      </trkpt>
      <trkpt lat="44.31405" lon="6.82506">
        <time>2023-04-10T09:56:40+00:00</time>
        <ele>2642.0</ele>
      </trkpt>
      <trkpt lat="44.31405" lon="6.82506">
        <time>2023-04-10T09:56:41+00:00</time>
        <ele>2642.0</ele>
      </trkpt>
      <trkpt lat="44.31405" lon="6.82506">
        <time>2023-04-10T09:56:42+00:00</time>
        <ele>2642.0</ele>
      </trkpt>
      <trkpt lat="44.31405" lon="6.82506">
        <time>2023-04-10T09:56:43+00:00</time>
        <ele>2642.0</ele>
      </trkpt>
      <trkpt lat="44.31405" lon="6.82506">
        <time>2023-04-10T09:56:44+00:00</time>
        <ele>2642.0</ele>
      </trkpt>
      <trkpt lat="44.31405" lon="6.82506">
        <time>2023-04-10T09:56:45+00:00</time>
        <ele>2642.0</ele>
      </trkpt>
      <trkpt lat="44.31405" lon="6.82506">
        <time>2023-04-10T09:56:46+00:00</time>
        <ele>2642.0</ele>
      </trkpt>
      <trkpt lat="44.31405" lon="6.82506">
        <time>2023-04-10T09:56:47+00:00</time>
        <ele>2642.0</ele>
      </trkpt>
      <trkpt lat="44.31405" lon="6.82506">
        <time>2023-04-10T09:56:48+00:00</time>
        <ele>2642.0</ele>
      </trkpt>
      <trkpt lat="44.31405" lon="6.82506">
        <time>2023-04-10T09:56:49+00:00</time>
        <ele>2642.0</ele>
      </trkpt>
      <trkpt lat="44.31405" lon="6.82506">
        <time>2023-04-10T09:56:50+00:00</time>
        <ele>2642.0</ele>
      </trkpt>
      <trkpt lat="44.31405" lon="6.82506">
        <time>2023-04-10T09:56:51+00:00</time>
        <ele>2642.0</ele>
      </trkpt>
      <trkpt lat="44.31405" lon="6.82506">
        <time>2023-04-10T09:56:52+00:00</time>
        <ele>2642.0</ele>
      </trkpt>
      <trkpt lat="44.31405" lon="6.82506">
        <time>2023-04-10T09:56:53+00:00</time>
        <ele>2642.0</ele>
      </trkpt>
      <trkpt lat="44.31408" lon="6.82493">
        <time>2023-04-10T09:56:54+00:00</time>
        <ele>2648.0</ele>
      </trkpt>
      <trkpt lat="44.31408" lon="6.82493">
        <time>2023-04-10T09:56:55+00:00</time>
        <ele>2648.0</ele>
      </trkpt>
      <trkpt lat="44.31408" lon="6.8249">
        <time>2023-04-10T09:56:56+00:00</time>
        <ele>2649.0</ele>
      </trkpt>
      <trkpt lat="44.31408" lon="6.8249">
        <time>2023-04-10T09:56:57+00:00</time>
        <ele>2649.0</ele>
      </trkpt>
      <trkpt lat="44.31408" lon="6.82487">
        <time>2023-04-10T09:56:58+00:00</time>
        <ele>2650.0</ele>
      </trkpt>
      <trkpt lat="44.31408" lon="6.82487">
        <time>2023-04-10T09:56:59+00:00</time>
        <ele>2650.0</ele>
      </trkpt>
      <trkpt lat="44.31408" lon="6.82484">
        <time>2023-04-10T09:57:00+00:00</time>
        <ele>2652.0</ele>
      </trkpt>
      <trkpt lat="44.31408" lon="6.82484">
        <time>2023-04-10T09:57:01+00:00</time>
        <ele>2652.0</ele>
      </trkpt>
      <trkpt lat="44.31408" lon="6.82481">
        <time>2023-04-10T09:57:02+00:00</time>
        <ele>2653.0</ele>
      </trkpt>
      <trkpt lat="44.31408" lon="6.82481">
        <time>2023-04-10T09:57:03+00:00</time>
        <ele>2653.0</ele>
      </trkpt>
      <trkpt lat="44.31408" lon="6.82481">
        <time>2023-04-10T09:57:04+00:00</time>
        <ele>2653.0</ele>
      </trkpt>
      <trkpt lat="44.31408" lon="6.82481">
        <time>2023-04-10T09:57:05+00:00</time>
        <ele>2653.0</ele>
      </trkpt>
      <trkpt lat="44.31408" lon="6.82478">
        <time>2023-04-10T09:57:06+00:00</time>
        <ele>2654.0</ele>
      </trkpt>
      <trkpt lat="44.31408" lon="6.82478">
        <time>2023-04-10T09:57:07+00:00</time>
        <ele>2654.0</ele>
      </trkpt>
      <trkpt lat="44.31408" lon="6.82478">
        <time>2023-04-10T09:57:08+00:00</time>
        <ele>2654.0</ele>
      </trkpt>
      <trkpt lat="44.31408" lon="6.82478">
        <time>2023-04-10T09:57:09+00:00</time>
        <ele>2654.0</ele>
      </trkpt>
      <trkpt lat="44.31408" lon="6.82478">
        <time>2023-04-10T09:57:10+00:00</time>
        <ele>2654.0</ele>
      </trkpt>
      <trkpt lat="44.31408" lon="6.82478">
        <time>2023-04-10T09:57:11+00:00</time>
        <ele>2654.0</ele>
      </trkpt>
      <trkpt lat="44.31406" lon="6.82476">
        <time>2023-04-10T09:57:12+00:00</time>
        <ele>2655.0</ele>
      </trkpt>
      <trkpt lat="44.31406" lon="6.82476">
        <time>2023-04-10T09:57:13+00:00</time>
        <ele>2655.0</ele>
      </trkpt>
      <trkpt lat="44.31406" lon="6.82476">
        <time>2023-04-10T09:57:14+00:00</time>
        <ele>2655.0</ele>
      </trkpt>
      <trkpt lat="44.31406" lon="6.82476">
        <time>2023-04-10T09:57:15+00:00</time>
        <ele>2655.0</ele>
      </trkpt>
      <trkpt lat="44.31405" lon="6.82475">
        <time>2023-04-10T09:57:16+00:00</time>
        <ele>2655.0</ele>
      </trkpt>
      <trkpt lat="44.31405" lon="6.82475">
        <time>2023-04-10T09:57:17+00:00</time>
        <ele>2655.0</ele>
      </trkpt>
      <trkpt lat="44.31405" lon="6.82475">
        <time>2023-04-10T09:57:18+00:00</time>
        <ele>2655.0</ele>
      </trkpt>
      <trkpt lat="44.31405" lon="6.82475">
        <time>2023-04-10T09:57:19+00:00</time>
        <ele>2655.0</ele>
      </trkpt>
      <trkpt lat="44.31403" lon="6.82473">
        <time>2023-04-10T09:57:20+00:00</time>
        <ele>2655.0</ele>
      </trkpt>
      <trkpt lat="44.31403" lon="6.82473">
        <time>2023-04-10T09:57:21+00:00</time>
        <ele>2655.0</ele>
      </trkpt>
      <trkpt lat="44.31403" lon="6.82473">
        <time>2023-04-10T09:57:22+00:00</time>
        <ele>2655.0</ele>
      </trkpt>
      <trkpt lat="44.31403" lon="6.82473">
        <time>2023-04-10T09:57:23+00:00</time>
        <ele>2655.0</ele>
      </trkpt>
      <trkpt lat="44.31403" lon="6.82473">
        <time>2023-04-10T09:57:24+00:00</time>
        <ele>2655.0</ele>
      </trkpt>
      <trkpt lat="44.31403" lon="6.82473">
        <time>2023-04-10T09:57:25+00:00</time>
        <ele>2655.0</ele>
      </trkpt>
      <trkpt lat="44.31403" lon="6.82473">
        <time>2023-04-10T09:57:26+00:00</time>
        <ele>2655.0</ele>
      </trkpt>
      <trkpt lat="44.31403" lon="6.82473">
        <time>2023-04-10T09:57:27+00:00</time>
        <ele>2655.0</ele>
      </trkpt>
      <trkpt lat="44.31403" lon="6.82473">
        <time>2023-04-10T09:57:28+00:00</time>
        <ele>2655.0</ele>
      </trkpt>
      <trkpt lat="44.31405" lon="6.82472">
        <time>2023-04-10T09:57:29+00:00</time>
        <ele>2656.0</ele>
      </trkpt>
      <trkpt lat="44.31405" lon="6.82472">
        <time>2023-04-10T09:57:30+00:00</time>
        <ele>2656.0</ele>
      </trkpt>
      <trkpt lat="44.31405" lon="6.82472">
        <time>2023-04-10T09:57:31+00:00</time>
        <ele>2656.0</ele>
      </trkpt>
      <trkpt lat="44.31405" lon="6.82472">
        <time>2023-04-10T09:57:32+00:00</time>
        <ele>2656.0</ele>
      </trkpt>
      <trkpt lat="44.31405" lon="6.82472">
        <time>2023-04-10T09:57:33+00:00</time>
        <ele>2656.0</ele>
      </trkpt>
      <trkpt lat="44.31406" lon="6.8247">
        <time>2023-04-10T09:57:34+00:00</time>
        <ele>2657.0</ele>
      </trkpt>
      <trkpt lat="44.31406" lon="6.8247">
        <time>2023-04-10T09:57:35+00:00</time>
        <ele>2657.0</ele>
      </trkpt>
      <trkpt lat="44.31406" lon="6.8247">
        <time>2023-04-10T09:57:36+00:00</time>
        <ele>2657.0</ele>
      </trkpt>
      <trkpt lat="44.31406" lon="6.8247">
        <time>2023-04-10T09:57:37+00:00</time>
        <ele>2657.0</ele>
      </trkpt>
      <trkpt lat="44.31405" lon="6.82467">
        <time>2023-04-10T09:57:38+00:00</time>
        <ele>2658.0</ele>
      </trkpt>
      <trkpt lat="44.31405" lon="6.82467">
        <time>2023-04-10T09:57:39+00:00</time>
        <ele>2658.0</ele>
      </trkpt>
      <trkpt lat="44.31405" lon="6.82467">
        <time>2023-04-10T09:57:40+00:00</time>
        <ele>2658.0</ele>
      </trkpt>
      <trkpt lat="44.31405" lon="6.82467">
        <time>2023-04-10T09:57:41+00:00</time>
        <ele>2658.0</ele>
      </trkpt>
      <trkpt lat="44.31405" lon="6.82467">
        <time>2023-04-10T09:57:42+00:00</time>
        <ele>2658.0</ele>
      </trkpt>
      <trkpt lat="44.31405" lon="6.82464">
        <time>2023-04-10T09:57:43+00:00</time>
        <ele>2660.0</ele>
      </trkpt>
      <trkpt lat="44.31405" lon="6.82464">
        <time>2023-04-10T09:57:44+00:00</time>
        <ele>2660.0</ele>
      </trkpt>
      <trkpt lat="44.31405" lon="6.82464">
        <time>2023-04-10T09:57:45+00:00</time>
        <ele>2660.0</ele>
      </trkpt>
      <trkpt lat="44.31405" lon="6.82464">
        <time>2023-04-10T09:57:46+00:00</time>
        <ele>2660.0</ele>
      </trkpt>
      <trkpt lat="44.31406" lon="6.82462">
        <time>2023-04-10T09:57:47+00:00</time>
        <ele>2661.0</ele>
      </trkpt>
      <trkpt lat="44.31406" lon="6.82462">
        <time>2023-04-10T09:57:48+00:00</time>
        <ele>2661.0</ele>
      </trkpt>
      <trkpt lat="44.31406" lon="6.82462">
        <time>2023-04-10T09:57:49+00:00</time>
        <ele>2661.0</ele>
      </trkpt>
      <trkpt lat="44.31406" lon="6.82462">
        <time>2023-04-10T09:57:50+00:00</time>
        <ele>2661.0</ele>
      </trkpt>
      <trkpt lat="44.31406" lon="6.82462">
        <time>2023-04-10T09:57:51+00:00</time>
        <ele>2661.0</ele>
      </trkpt>
      <trkpt lat="44.31406" lon="6.82459">
        <time>2023-04-10T09:57:52+00:00</time>
        <ele>2662.0</ele>
      </trkpt>
      <trkpt lat="44.31406" lon="6.82459">
        <time>2023-04-10T09:57:53+00:00</time>
        <ele>2662.0</ele>
      </trkpt>
      <trkpt lat="44.31406" lon="6.82459">
        <time>2023-04-10T09:57:54+00:00</time>
        <ele>2662.0</ele>
      </trkpt>
      <trkpt lat="44.31406" lon="6.82459">
        <time>2023-04-10T09:57:55+00:00</time>
        <ele>2662.0</ele>
      </trkpt>
      <trkpt lat="44.31406" lon="6.82459">
        <time>2023-04-10T09:57:56+00:00</time>
        <ele>2662.0</ele>
      </trkpt>
      <trkpt lat="44.31406" lon="6.82459">
        <time>2023-04-10T09:57:57+00:00</time>
        <ele>2662.0</ele>
      </trkpt>
      <trkpt lat="44.31406" lon="6.82456">
        <time>2023-04-10T09:57:58+00:00</time>
        <ele>2663.0</ele>
      </trkpt>
      <trkpt lat="44.31406" lon="6.82456">
        <time>2023-04-10T09:57:59+00:00</time>
        <ele>2663.0</ele>
      </trkpt>
      <trkpt lat="44.31406" lon="6.82456">
        <time>2023-04-10T09:58:00+00:00</time>
        <ele>2663.0</ele>
      </trkpt>
      <trkpt lat="44.31406" lon="6.82456">
        <time>2023-04-10T09:58:01+00:00</time>
        <ele>2663.0</ele>
      </trkpt>
      <trkpt lat="44.31406" lon="6.82456">
        <time>2023-04-10T09:58:02+00:00</time>
        <ele>2663.0</ele>
      </trkpt>
      <trkpt lat="44.31405" lon="6.82454">
        <time>2023-04-10T09:58:03+00:00</time>
        <ele>2664.0</ele>
      </trkpt>
      <trkpt lat="44.31405" lon="6.82454">
        <time>2023-04-10T09:58:04+00:00</time>
        <ele>2664.0</ele>
      </trkpt>
      <trkpt lat="44.31405" lon="6.82454">
        <time>2023-04-10T09:58:05+00:00</time>
        <ele>2664.0</ele>
      </trkpt>
      <trkpt lat="44.31405" lon="6.82454">
        <time>2023-04-10T09:58:06+00:00</time>
        <ele>2664.0</ele>
      </trkpt>
      <trkpt lat="44.31405" lon="6.82454">
        <time>2023-04-10T09:58:07+00:00</time>
        <ele>2664.0</ele>
      </trkpt>
      <trkpt lat="44.31406" lon="6.82451">
        <time>2023-04-10T09:58:08+00:00</time>
        <ele>2666.0</ele>
      </trkpt>
      <trkpt lat="44.31406" lon="6.82451">
        <time>2023-04-10T09:58:09+00:00</time>
        <ele>2666.0</ele>
      </trkpt>
      <trkpt lat="44.31406" lon="6.82451">
        <time>2023-04-10T09:58:10+00:00</time>
        <ele>2666.0</ele>
      </trkpt>
      <trkpt lat="44.31406" lon="6.82451">
        <time>2023-04-10T09:58:11+00:00</time>
        <ele>2666.0</ele>
      </trkpt>
      <trkpt lat="44.31406" lon="6.82451">
        <time>2023-04-10T09:58:12+00:00</time>
        <ele>2666.0</ele>
      </trkpt>
      <trkpt lat="44.31406" lon="6.82451">
        <time>2023-04-10T09:58:13+00:00</time>
        <ele>2666.0</ele>
      </trkpt>
      <trkpt lat="44.31406" lon="6.82451">
        <time>2023-04-10T09:58:14+00:00</time>
        <ele>2666.0</ele>
      </trkpt>
      <trkpt lat="44.31406" lon="6.82451">
        <time>2023-04-10T09:58:15+00:00</time>
        <ele>2666.0</ele>
      </trkpt>
      <trkpt lat="44.31406" lon="6.82451">
        <time>2023-04-10T09:58:16+00:00</time>
        <ele>2666.0</ele>
      </trkpt>
      <trkpt lat="44.31406" lon="6.82451">
        <time>2023-04-10T09:58:17+00:00</time>
        <ele>2666.0</ele>
      </trkpt>
      <trkpt lat="44.31406" lon="6.82451">
        <time>2023-04-10T09:58:18+00:00</time>
        <ele>2666.0</ele>
      </trkpt>
      <trkpt lat="44.31406" lon="6.82451">
        <time>2023-04-10T09:58:19+00:00</time>
        <ele>2666.0</ele>
      </trkpt>
      <trkpt lat="44.31406" lon="6.82451">
        <time>2023-04-10T09:58:20+00:00</time>
        <ele>2666.0</ele>
      </trkpt>
      <trkpt lat="44.31406" lon="6.8245">
        <time>2023-04-10T09:58:21+00:00</time>
        <ele>2666.0</ele>
      </trkpt>
      <trkpt lat="44.31406" lon="6.8245">
        <time>2023-04-10T09:58:22+00:00</time>
        <ele>2666.0</ele>
      </trkpt>
      <trkpt lat="44.31406" lon="6.8245">
        <time>2023-04-10T09:58:23+00:00</time>
        <ele>2666.0</ele>
      </trkpt>
      <trkpt lat="44.31406" lon="6.8245">
        <time>2023-04-10T09:58:24+00:00</time>
        <ele>2666.0</ele>
      </trkpt>
      <trkpt lat="44.31406" lon="6.8245">
        <time>2023-04-10T09:58:25+00:00</time>
        <ele>2666.0</ele>
      </trkpt>
      <trkpt lat="44.31406" lon="6.8245">
        <time>2023-04-10T09:58:26+00:00</time>
        <ele>2666.0</ele>
      </trkpt>
      <trkpt lat="44.31406" lon="6.8245">
        <time>2023-04-10T09:58:27+00:00</time>
        <ele>2666.0</ele>
      </trkpt>
      <trkpt lat="44.31406" lon="6.8245">
        <time>2023-04-10T09:58:28+00:00</time>
        <ele>2666.0</ele>
      </trkpt>
      <trkpt lat="44.31406" lon="6.8245">
        <time>2023-04-10T09:58:29+00:00</time>
        <ele>2666.0</ele>
      </trkpt>
      <trkpt lat="44.31406" lon="6.8245">
        <time>2023-04-10T09:58:30+00:00</time>
        <ele>2666.0</ele>
      </trkpt>
      <trkpt lat="44.31406" lon="6.8245">
        <time>2023-04-10T09:58:31+00:00</time>
        <ele>2666.0</ele>
      </trkpt>
      <trkpt lat="44.31406" lon="6.8245">
        <time>2023-04-10T09:58:32+00:00</time>
        <ele>2666.0</ele>
      </trkpt>
      <trkpt lat="44.31406" lon="6.8245">
        <time>2023-04-10T09:58:33+00:00</time>
        <ele>2666.0</ele>
      </trkpt>
      <trkpt lat="44.31406" lon="6.8245">
        <time>2023-04-10T09:58:34+00:00</time>
        <ele>2666.0</ele>
      </trkpt>
      <trkpt lat="44.31406" lon="6.8245">
        <time>2023-04-10T09:58:35+00:00</time>
        <ele>2666.0</ele>
      </trkpt>
      <trkpt lat="44.31406" lon="6.8245">
        <time>2023-04-10T09:58:36+00:00</time>
        <ele>2666.0</ele>
      </trkpt>
      <trkpt lat="44.31406" lon="6.82449">
        <time>2023-04-10T09:58:37+00:00</time>
        <ele>2666.0</ele>
      </trkpt>
      <trkpt lat="44.31406" lon="6.82449">
        <time>2023-04-10T09:58:38+00:00</time>
        <ele>2666.0</ele>
      </trkpt>
      <trkpt lat="44.31406" lon="6.82449">
        <time>2023-04-10T09:58:39+00:00</time>
        <ele>2666.0</ele>
      </trkpt>
      <trkpt lat="44.31406" lon="6.82449">
        <time>2023-04-10T09:58:40+00:00</time>
        <ele>2666.0</ele>
      </trkpt>
      <trkpt lat="44.31406" lon="6.82449">
        <time>2023-04-10T09:58:41+00:00</time>
        <ele>2666.0</ele>
      </trkpt>
      <trkpt lat="44.31406" lon="6.82449">
        <time>2023-04-10T09:58:42+00:00</time>
        <ele>2666.0</ele>
      </trkpt>
      <trkpt lat="44.31406" lon="6.82449">
        <time>2023-04-10T09:58:43+00:00</time>
        <ele>2666.0</ele>
      </trkpt>
      <trkpt lat="44.31406" lon="6.82449">
        <time>2023-04-10T09:58:44+00:00</time>
        <ele>2666.0</ele>
      </trkpt>
      <trkpt lat="44.31406" lon="6.82449">
        <time>2023-04-10T09:58:45+00:00</time>
        <ele>2666.0</ele>
      </trkpt>
      <trkpt lat="44.31406" lon="6.82449">
        <time>2023-04-10T09:58:46+00:00</time>
        <ele>2666.0</ele>
      </trkpt>
      <trkpt lat="44.31406" lon="6.82449">
        <time>2023-04-10T09:58:47+00:00</time>
        <ele>2666.0</ele>
      </trkpt>
      <trkpt lat="44.31406" lon="6.82449">
        <time>2023-04-10T09:58:48+00:00</time>
        <ele>2666.0</ele>
      </trkpt>
      <trkpt lat="44.31406" lon="6.82449">
        <time>2023-04-10T09:58:49+00:00</time>
        <ele>2666.0</ele>
      </trkpt>
      <trkpt lat="44.31406" lon="6.82449">
        <time>2023-04-10T09:58:50+00:00</time>
        <ele>2666.0</ele>
      </trkpt>
      <trkpt lat="44.31406" lon="6.82449">
        <time>2023-04-10T09:58:51+00:00</time>
        <ele>2666.0</ele>
      </trkpt>
      <trkpt lat="44.31406" lon="6.82448">
        <time>2023-04-10T09:58:52+00:00</time>
        <ele>2667.0</ele>
      </trkpt>
      <trkpt lat="44.31406" lon="6.82448">
        <time>2023-04-10T09:58:53+00:00</time>
        <ele>2667.0</ele>
      </trkpt>
      <trkpt lat="44.31406" lon="6.82448">
        <time>2023-04-10T09:58:54+00:00</time>
        <ele>2667.0</ele>
      </trkpt>
      <trkpt lat="44.31406" lon="6.82448">
        <time>2023-04-10T09:58:55+00:00</time>
        <ele>2667.0</ele>
      </trkpt>
      <trkpt lat="44.31406" lon="6.82448">
        <time>2023-04-10T09:58:56+00:00</time>
        <ele>2667.0</ele>
      </trkpt>
      <trkpt lat="44.31406" lon="6.82448">
        <time>2023-04-10T09:58:57+00:00</time>
        <ele>2667.0</ele>
      </trkpt>
      <trkpt lat="44.31406" lon="6.82448">
        <time>2023-04-10T09:58:58+00:00</time>
        <ele>2667.0</ele>
      </trkpt>
      <trkpt lat="44.31406" lon="6.82448">
        <time>2023-04-10T09:58:59+00:00</time>
        <ele>2667.0</ele>
      </trkpt>
      <trkpt lat="44.31406" lon="6.82448">
        <time>2023-04-10T09:59:00+00:00</time>
        <ele>2667.0</ele>
      </trkpt>
      <trkpt lat="44.31406" lon="6.82448">
        <time>2023-04-10T09:59:01+00:00</time>
        <ele>2667.0</ele>
      </trkpt>
      <trkpt lat="44.31406" lon="6.82448">
        <time>2023-04-10T09:59:02+00:00</time>
        <ele>2667.0</ele>
      </trkpt>
      <trkpt lat="44.31406" lon="6.82448">
        <time>2023-04-10T09:59:03+00:00</time>
        <ele>2667.0</ele>
      </trkpt>
      <trkpt lat="44.31406" lon="6.82448">
        <time>2023-04-10T09:59:04+00:00</time>
        <ele>2667.0</ele>
      </trkpt>
      <trkpt lat="44.31406" lon="6.82448">
        <time>2023-04-10T09:59:05+00:00</time>
        <ele>2667.0</ele>
      </trkpt>
      <trkpt lat="44.31406" lon="6.82448">
        <time>2023-04-10T09:59:06+00:00</time>
        <ele>2667.0</ele>
      </trkpt>
      <trkpt lat="44.31406" lon="6.82447">
        <time>2023-04-10T09:59:07+00:00</time>
        <ele>2667.0</ele>
      </trkpt>
      <trkpt lat="44.31406" lon="6.82447">
        <time>2023-04-10T09:59:08+00:00</time>
        <ele>2667.0</ele>
      </trkpt>
      <trkpt lat="44.31406" lon="6.82447">
        <time>2023-04-10T09:59:09+00:00</time>
        <ele>2667.0</ele>
      </trkpt>
      <trkpt lat="44.31406" lon="6.82447">
        <time>2023-04-10T09:59:10+00:00</time>
        <ele>2667.0</ele>
      </trkpt>
      <trkpt lat="44.31406" lon="6.82447">
        <time>2023-04-10T09:59:11+00:00</time>
        <ele>2667.0</ele>
      </trkpt>
      <trkpt lat="44.31406" lon="6.82447">
        <time>2023-04-10T09:59:12+00:00</time>
        <ele>2667.0</ele>
      </trkpt>
      <trkpt lat="44.31406" lon="6.82447">
        <time>2023-04-10T09:59:13+00:00</time>
        <ele>2667.0</ele>
      </trkpt>
      <trkpt lat="44.31406" lon="6.82447">
        <time>2023-04-10T09:59:14+00:00</time>
        <ele>2667.0</ele>
      </trkpt>
      <trkpt lat="44.31406" lon="6.82447">
        <time>2023-04-10T09:59:15+00:00</time>
        <ele>2667.0</ele>
      </trkpt>
      <trkpt lat="44.31406" lon="6.82447">
        <time>2023-04-10T09:59:16+00:00</time>
        <ele>2667.0</ele>
      </trkpt>
      <trkpt lat="44.31406" lon="6.82447">
        <time>2023-04-10T09:59:17+00:00</time>
        <ele>2667.0</ele>
      </trkpt>
      <trkpt lat="44.31406" lon="6.82447">
        <time>2023-04-10T09:59:18+00:00</time>
        <ele>2667.0</ele>
      </trkpt>
      <trkpt lat="44.31406" lon="6.82447">
        <time>2023-04-10T09:59:19+00:00</time>
        <ele>2667.0</ele>
      </trkpt>
      <trkpt lat="44.31406" lon="6.82447">
        <time>2023-04-10T09:59:20+00:00</time>
        <ele>2667.0</ele>
      </trkpt>
      <trkpt lat="44.31406" lon="6.82447">
        <time>2023-04-10T09:59:21+00:00</time>
        <ele>2667.0</ele>
      </trkpt>
      <trkpt lat="44.31406" lon="6.82447">
        <time>2023-04-10T09:59:22+00:00</time>
        <ele>2667.0</ele>
      </trkpt>
      <trkpt lat="44.31406" lon="6.82446">
        <time>2023-04-10T09:59:23+00:00</time>
        <ele>2668.0</ele>
      </trkpt>
      <trkpt lat="44.31406" lon="6.82446">
        <time>2023-04-10T09:59:24+00:00</time>
        <ele>2668.0</ele>
      </trkpt>
      <trkpt lat="44.31406" lon="6.82446">
        <time>2023-04-10T09:59:25+00:00</time>
        <ele>2668.0</ele>
      </trkpt>
      <trkpt lat="44.31406" lon="6.82446">
        <time>2023-04-10T09:59:26+00:00</time>
        <ele>2668.0</ele>
      </trkpt>
      <trkpt lat="44.31406" lon="6.82446">
        <time>2023-04-10T09:59:27+00:00</time>
        <ele>2668.0</ele>
      </trkpt>
      <trkpt lat="44.31406" lon="6.82446">
        <time>2023-04-10T09:59:28+00:00</time>
        <ele>2668.0</ele>
      </trkpt>
      <trkpt lat="44.31406" lon="6.82446">
        <time>2023-04-10T09:59:29+00:00</time>
        <ele>2668.0</ele>
      </trkpt>
      <trkpt lat="44.31406" lon="6.82446">
        <time>2023-04-10T09:59:30+00:00</time>
        <ele>2668.0</ele>
      </trkpt>
      <trkpt lat="44.31406" lon="6.82446">
        <time>2023-04-10T09:59:31+00:00</time>
        <ele>2668.0</ele>
      </trkpt>
      <trkpt lat="44.31406" lon="6.82446">
        <time>2023-04-10T09:59:32+00:00</time>
        <ele>2668.0</ele>
      </trkpt>
      <trkpt lat="44.31406" lon="6.82446">
        <time>2023-04-10T09:59:33+00:00</time>
        <ele>2668.0</ele>
      </trkpt>
      <trkpt lat="44.31406" lon="6.82446">
        <time>2023-04-10T09:59:34+00:00</time>
        <ele>2668.0</ele>
      </trkpt>
      <trkpt lat="44.31406" lon="6.82446">
        <time>2023-04-10T09:59:35+00:00</time>
        <ele>2668.0</ele>
      </trkpt>
      <trkpt lat="44.31406" lon="6.82446">
        <time>2023-04-10T09:59:36+00:00</time>
        <ele>2668.0</ele>
      </trkpt>
      <trkpt lat="44.31406" lon="6.82446">
        <time>2023-04-10T09:59:37+00:00</time>
        <ele>2668.0</ele>
      </trkpt>
      <trkpt lat="44.31406" lon="6.82445">
        <time>2023-04-10T09:59:38+00:00</time>
        <ele>2668.0</ele>
      </trkpt>
      <trkpt lat="44.31406" lon="6.82445">
        <time>2023-04-10T09:59:39+00:00</time>
        <ele>2668.0</ele>
      </trkpt>
      <trkpt lat="44.31406" lon="6.82445">
        <time>2023-04-10T09:59:40+00:00</time>
        <ele>2668.0</ele>
      </trkpt>
      <trkpt lat="44.31406" lon="6.82445">
        <time>2023-04-10T09:59:41+00:00</time>
        <ele>2668.0</ele>
      </trkpt>
      <trkpt lat="44.31406" lon="6.82445">
        <time>2023-04-10T09:59:42+00:00</time>
        <ele>2668.0</ele>
      </trkpt>
      <trkpt lat="44.31406" lon="6.82445">
        <time>2023-04-10T09:59:43+00:00</time>
        <ele>2668.0</ele>
      </trkpt>
      <trkpt lat="44.31406" lon="6.82445">
        <time>2023-04-10T09:59:44+00:00</time>
        <ele>2668.0</ele>
      </trkpt>
      <trkpt lat="44.31406" lon="6.82445">
        <time>2023-04-10T09:59:45+00:00</time>
        <ele>2668.0</ele>
      </trkpt>
      <trkpt lat="44.31407" lon="6.82433">
        <time>2023-04-10T09:59:46+00:00</time>
        <ele>2672.0</ele>
      </trkpt>
      <trkpt lat="44.31407" lon="6.82433">
        <time>2023-04-10T09:59:47+00:00</time>
        <ele>2672.0</ele>
      </trkpt>
      <trkpt lat="44.31408" lon="6.82429">
        <time>2023-04-10T09:59:48+00:00</time>
        <ele>2673.0</ele>
      </trkpt>
      <trkpt lat="44.31408" lon="6.82429">
        <time>2023-04-10T09:59:49+00:00</time>
        <ele>2673.0</ele>
      </trkpt>
      <trkpt lat="44.31408" lon="6.82425">
        <time>2023-04-10T09:59:50+00:00</time>
        <ele>2674.0</ele>
      </trkpt>
      <trkpt lat="44.31408" lon="6.82425">
        <time>2023-04-10T09:59:51+00:00</time>
        <ele>2674.0</ele>
      </trkpt>
      <trkpt lat="44.31408" lon="6.82422">
        <time>2023-04-10T09:59:52+00:00</time>
        <ele>2675.0</ele>
      </trkpt>
      <trkpt lat="44.31408" lon="6.82422">
        <time>2023-04-10T09:59:53+00:00</time>
        <ele>2675.0</ele>
      </trkpt>
      <trkpt lat="44.31408" lon="6.82419">
        <time>2023-04-10T09:59:54+00:00</time>
        <ele>2676.0</ele>
      </trkpt>
      <trkpt lat="44.31408" lon="6.82419">
        <time>2023-04-10T09:59:55+00:00</time>
        <ele>2676.0</ele>
      </trkpt>
      <trkpt lat="44.31408" lon="6.82419">
        <time>2023-04-10T09:59:56+00:00</time>
        <ele>2676.0</ele>
      </trkpt>
      <trkpt lat="44.3141" lon="6.82416">
        <time>2023-04-10T09:59:57+00:00</time>
        <ele>2677.0</ele>
      </trkpt>
      <trkpt lat="44.3141" lon="6.82416">
        <time>2023-04-10T09:59:58+00:00</time>
        <ele>2677.0</ele>
      </trkpt>
      <trkpt lat="44.3141" lon="6.82416">
        <time>2023-04-10T09:59:59+00:00</time>
        <ele>2677.0</ele>
      </trkpt>
      <trkpt lat="44.31411" lon="6.82414">
        <time>2023-04-10T10:00:01+00:00</time>
        <ele>2678.0</ele>
      </trkpt>
      <trkpt lat="44.31411" lon="6.82414">
        <time>2023-04-10T10:00:03+00:00</time>
        <ele>2678.0</ele>
      </trkpt>
      <trkpt lat="44.31411" lon="6.82414">
        <time>2023-04-10T10:00:04+00:00</time>
        <ele>2678.0</ele>
      </trkpt>
      <trkpt lat="44.31411" lon="6.82414">
        <time>2023-04-10T10:00:05+00:00</time>
        <ele>2678.0</ele>
      </trkpt>
      <trkpt lat="44.31411" lon="6.82414">
        <time>2023-04-10T10:00:06+00:00</time>
        <ele>2678.0</ele>
      </trkpt>
      <trkpt lat="44.31411" lon="6.82414">
        <time>2023-04-10T10:00:07+00:00</time>
        <ele>2678.0</ele>
      </trkpt>
      <trkpt lat="44.31411" lon="6.82414">
        <time>2023-04-10T10:00:08+00:00</time>
        <ele>2678.0</ele>
      </trkpt>
      <trkpt lat="44.31411" lon="6.82414">
        <time>2023-04-10T10:00:09+00:00</time>
        <ele>2678.0</ele>
      </trkpt>
      <trkpt lat="44.31411" lon="6.82414">
        <time>2023-04-10T10:00:10+00:00</time>
        <ele>2678.0</ele>
      </trkpt>
      <trkpt lat="44.31411" lon="6.82414">
        <time>2023-04-10T10:00:11+00:00</time>
        <ele>2678.0</ele>
      </trkpt>
      <trkpt lat="44.31411" lon="6.82414">
        <time>2023-04-10T10:00:12+00:00</time>
        <ele>2678.0</ele>
      </trkpt>
      <trkpt lat="44.31411" lon="6.82414">
        <time>2023-04-10T10:00:13+00:00</time>
        <ele>2678.0</ele>
      </trkpt>
      <trkpt lat="44.31411" lon="6.82414">
        <time>2023-04-10T10:00:14+00:00</time>
        <ele>2678.0</ele>
      </trkpt>
      <trkpt lat="44.31411" lon="6.82414">
        <time>2023-04-10T10:00:15+00:00</time>
        <ele>2678.0</ele>
      </trkpt>
      <trkpt lat="44.31411" lon="6.82414">
        <time>2023-04-10T10:00:16+00:00</time>
        <ele>2678.0</ele>
      </trkpt>
      <trkpt lat="44.31411" lon="6.82414">
        <time>2023-04-10T10:00:17+00:00</time>
        <ele>2678.0</ele>
      </trkpt>
      <trkpt lat="44.31411" lon="6.82414">
        <time>2023-04-10T10:00:18+00:00</time>
        <ele>2678.0</ele>
      </trkpt>
      <trkpt lat="44.31411" lon="6.82414">
        <time>2023-04-10T10:00:19+00:00</time>
        <ele>2678.0</ele>
      </trkpt>
      <trkpt lat="44.31411" lon="6.82414">
        <time>2023-04-10T10:00:20+00:00</time>
        <ele>2678.0</ele>
      </trkpt>
      <trkpt lat="44.31411" lon="6.82414">
        <time>2023-04-10T10:00:21+00:00</time>
        <ele>2678.0</ele>
      </trkpt>
      <trkpt lat="44.31411" lon="6.82414">
        <time>2023-04-10T10:00:22+00:00</time>
        <ele>2678.0</ele>
      </trkpt>
      <trkpt lat="44.31411" lon="6.82414">
        <time>2023-04-10T10:00:23+00:00</time>
        <ele>2678.0</ele>
      </trkpt>
      <trkpt lat="44.31411" lon="6.82414">
        <time>2023-04-10T10:00:24+00:00</time>
        <ele>2678.0</ele>
      </trkpt>
      <trkpt lat="44.31411" lon="6.82414">
        <time>2023-04-10T10:00:25+00:00</time>
        <ele>2678.0</ele>
      </trkpt>
      <trkpt lat="44.31411" lon="6.82414">
        <time>2023-04-10T10:00:26+00:00</time>
        <ele>2678.0</ele>
      </trkpt>
      <trkpt lat="44.31411" lon="6.82414">
        <time>2023-04-10T10:00:27+00:00</time>
        <ele>2678.0</ele>
      </trkpt>
      <trkpt lat="44.31411" lon="6.82414">
        <time>2023-04-10T10:00:28+00:00</time>
        <ele>2678.0</ele>
      </trkpt>
      <trkpt lat="44.31411" lon="6.82414">
        <time>2023-04-10T10:00:29+00:00</time>
        <ele>2678.0</ele>
      </trkpt>
      <trkpt lat="44.31411" lon="6.82414">
        <time>2023-04-10T10:00:30+00:00</time>
        <ele>2678.0</ele>
      </trkpt>
      <trkpt lat="44.31411" lon="6.82414">
        <time>2023-04-10T10:00:31+00:00</time>
        <ele>2678.0</ele>
      </trkpt>
      <trkpt lat="44.31411" lon="6.82414">
        <time>2023-04-10T10:00:32+00:00</time>
        <ele>2678.0</ele>
      </trkpt>
      <trkpt lat="44.31411" lon="6.82414">
        <time>2023-04-10T10:00:33+00:00</time>
        <ele>2678.0</ele>
      </trkpt>
      <trkpt lat="44.31411" lon="6.82414">
        <time>2023-04-10T10:00:34+00:00</time>
        <ele>2678.0</ele>
      </trkpt>
      <trkpt lat="44.31411" lon="6.82414">
        <time>2023-04-10T10:00:35+00:00</time>
        <ele>2678.0</ele>
      </trkpt>
      <trkpt lat="44.31411" lon="6.82414">
        <time>2023-04-10T10:00:36+00:00</time>
        <ele>2678.0</ele>
      </trkpt>
      <trkpt lat="44.31411" lon="6.82414">
        <time>2023-04-10T10:00:37+00:00</time>
        <ele>2678.0</ele>
      </trkpt>
      <trkpt lat="44.31411" lon="6.82414">
        <time>2023-04-10T10:00:38+00:00</time>
        <ele>2678.0</ele>
      </trkpt>
      <trkpt lat="44.31411" lon="6.82414">
        <time>2023-04-10T10:00:39+00:00</time>
        <ele>2678.0</ele>
      </trkpt>
      <trkpt lat="44.31413" lon="6.82412">
        <time>2023-04-10T10:00:40+00:00</time>
        <ele>2678.0</ele>
      </trkpt>
      <trkpt lat="44.31414" lon="6.8241">
        <time>2023-04-10T10:00:41+00:00</time>
        <ele>2677.0</ele>
      </trkpt>
      <trkpt lat="44.31415" lon="6.82407">
        <time>2023-04-10T10:00:42+00:00</time>
        <ele>2677.0</ele>
      </trkpt>
      <trkpt lat="44.31416" lon="6.82405">
        <time>2023-04-10T10:00:43+00:00</time>
        <ele>2677.0</ele>
      </trkpt>
      <trkpt lat="44.31418" lon="6.82403">
        <time>2023-04-10T10:00:44+00:00</time>
        <ele>2677.0</ele>
      </trkpt>
      <trkpt lat="44.31418" lon="6.82401">
        <time>2023-04-10T10:00:45+00:00</time>
        <ele>2678.0</ele>
      </trkpt>
      <trkpt lat="44.3142" lon="6.82398">
        <time>2023-04-10T10:00:46+00:00</time>
        <ele>2678.0</ele>
      </trkpt>
      <trkpt lat="44.3142" lon="6.82398">
        <time>2023-04-10T10:00:47+00:00</time>
        <ele>2678.0</ele>
      </trkpt>
      <trkpt lat="44.31421" lon="6.82394">
        <time>2023-04-10T10:00:48+00:00</time>
        <ele>2678.0</ele>
      </trkpt>
      <trkpt lat="44.31421" lon="6.82394">
        <time>2023-04-10T10:00:49+00:00</time>
        <ele>2678.0</ele>
      </trkpt>
      <trkpt lat="44.31423" lon="6.82391">
        <time>2023-04-10T10:00:50+00:00</time>
        <ele>2679.0</ele>
      </trkpt>
      <trkpt lat="44.31423" lon="6.82391">
        <time>2023-04-10T10:00:51+00:00</time>
        <ele>2679.0</ele>
      </trkpt>
      <trkpt lat="44.31424" lon="6.82388">
        <time>2023-04-10T10:00:52+00:00</time>
        <ele>2679.0</ele>
      </trkpt>
      <trkpt lat="44.31424" lon="6.82388">
        <time>2023-04-10T10:00:53+00:00</time>
        <ele>2679.0</ele>
      </trkpt>
      <trkpt lat="44.31426" lon="6.82384">
        <time>2023-04-10T10:00:54+00:00</time>
        <ele>2679.0</ele>
      </trkpt>
      <trkpt lat="44.31426" lon="6.82384">
        <time>2023-04-10T10:00:55+00:00</time>
        <ele>2679.0</ele>
      </trkpt>
      <trkpt lat="44.31427" lon="6.82381">
        <time>2023-04-10T10:00:56+00:00</time>
        <ele>2680.0</ele>
      </trkpt>
      <trkpt lat="44.31427" lon="6.82381">
        <time>2023-04-10T10:00:57+00:00</time>
        <ele>2680.0</ele>
      </trkpt>
      <trkpt lat="44.31428" lon="6.82378">
        <time>2023-04-10T10:00:58+00:00</time>
        <ele>2680.0</ele>
      </trkpt>
      <trkpt lat="44.31428" lon="6.82378">
        <time>2023-04-10T10:00:59+00:00</time>
        <ele>2680.0</ele>
      </trkpt>
      <trkpt lat="44.31429" lon="6.82375">
        <time>2023-04-10T10:01:00+00:00</time>
        <ele>2681.0</ele>
      </trkpt>
      <trkpt lat="44.31429" lon="6.82375">
        <time>2023-04-10T10:01:01+00:00</time>
        <ele>2681.0</ele>
      </trkpt>
      <trkpt lat="44.3143" lon="6.82372">
        <time>2023-04-10T10:01:02+00:00</time>
        <ele>2681.0</ele>
      </trkpt>
      <trkpt lat="44.3143" lon="6.82372">
        <time>2023-04-10T10:01:03+00:00</time>
        <ele>2681.0</ele>
      </trkpt>
      <trkpt lat="44.31431" lon="6.82369">
        <time>2023-04-10T10:01:04+00:00</time>
        <ele>2682.0</ele>
      </trkpt>
      <trkpt lat="44.31431" lon="6.82369">
        <time>2023-04-10T10:01:05+00:00</time>
        <ele>2682.0</ele>
      </trkpt>
      <trkpt lat="44.31432" lon="6.82367">
        <time>2023-04-10T10:01:06+00:00</time>
        <ele>2682.0</ele>
      </trkpt>
      <trkpt lat="44.31432" lon="6.82367">
        <time>2023-04-10T10:01:07+00:00</time>
        <ele>2682.0</ele>
      </trkpt>
      <trkpt lat="44.31434" lon="6.82364">
        <time>2023-04-10T10:01:08+00:00</time>
        <ele>2682.0</ele>
      </trkpt>
      <trkpt lat="44.31434" lon="6.82364">
        <time>2023-04-10T10:01:09+00:00</time>
        <ele>2682.0</ele>
      </trkpt>
      <trkpt lat="44.31436" lon="6.82361">
        <time>2023-04-10T10:01:10+00:00</time>
        <ele>2681.0</ele>
      </trkpt>
      <trkpt lat="44.31436" lon="6.82361">
        <time>2023-04-10T10:01:11+00:00</time>
        <ele>2681.0</ele>
      </trkpt>
      <trkpt lat="44.31437" lon="6.82358">
        <time>2023-04-10T10:01:12+00:00</time>
        <ele>2681.0</ele>
      </trkpt>
      <trkpt lat="44.31437" lon="6.82358">
        <time>2023-04-10T10:01:13+00:00</time>
        <ele>2681.0</ele>
      </trkpt>
      <trkpt lat="44.31438" lon="6.82355">
        <time>2023-04-10T10:01:14+00:00</time>
        <ele>2682.0</ele>
      </trkpt>
      <trkpt lat="44.31438" lon="6.82355">
        <time>2023-04-10T10:01:15+00:00</time>
        <ele>2682.0</ele>
      </trkpt>
      <trkpt lat="44.3144" lon="6.82353">
        <time>2023-04-10T10:01:16+00:00</time>
        <ele>2682.0</ele>
      </trkpt>
      <trkpt lat="44.3144" lon="6.82353">
        <time>2023-04-10T10:01:17+00:00</time>
        <ele>2682.0</ele>
      </trkpt>
      <trkpt lat="44.31442" lon="6.8235">
        <time>2023-04-10T10:01:18+00:00</time>
        <ele>2682.0</ele>
      </trkpt>
      <trkpt lat="44.31442" lon="6.8235">
        <time>2023-04-10T10:01:19+00:00</time>
        <ele>2682.0</ele>
      </trkpt>
      <trkpt lat="44.31443" lon="6.82348">
        <time>2023-04-10T10:01:20+00:00</time>
        <ele>2682.0</ele>
      </trkpt>
      <trkpt lat="44.31443" lon="6.82348">
        <time>2023-04-10T10:01:21+00:00</time>
        <ele>2682.0</ele>
      </trkpt>
      <trkpt lat="44.31444" lon="6.82346">
        <time>2023-04-10T10:01:22+00:00</time>
        <ele>2683.0</ele>
      </trkpt>
      <trkpt lat="44.31444" lon="6.82346">
        <time>2023-04-10T10:01:23+00:00</time>
        <ele>2683.0</ele>
      </trkpt>
      <trkpt lat="44.31445" lon="6.82343">
        <time>2023-04-10T10:01:24+00:00</time>
        <ele>2683.0</ele>
      </trkpt>
      <trkpt lat="44.31445" lon="6.82343">
        <time>2023-04-10T10:01:25+00:00</time>
        <ele>2683.0</ele>
      </trkpt>
      <trkpt lat="44.31447" lon="6.8234">
        <time>2023-04-10T10:01:26+00:00</time>
        <ele>2684.0</ele>
      </trkpt>
      <trkpt lat="44.31447" lon="6.8234">
        <time>2023-04-10T10:01:27+00:00</time>
        <ele>2684.0</ele>
      </trkpt>
      <trkpt lat="44.31449" lon="6.82338">
        <time>2023-04-10T10:01:28+00:00</time>
        <ele>2685.0</ele>
      </trkpt>
      <trkpt lat="44.31449" lon="6.82338">
        <time>2023-04-10T10:01:29+00:00</time>
        <ele>2685.0</ele>
      </trkpt>
      <trkpt lat="44.3145" lon="6.82336">
        <time>2023-04-10T10:01:30+00:00</time>
        <ele>2686.0</ele>
      </trkpt>
      <trkpt lat="44.3145" lon="6.82336">
        <time>2023-04-10T10:01:31+00:00</time>
        <ele>2686.0</ele>
      </trkpt>
      <trkpt lat="44.31452" lon="6.82334">
        <time>2023-04-10T10:01:32+00:00</time>
        <ele>2685.0</ele>
      </trkpt>
      <trkpt lat="44.31452" lon="6.82334">
        <time>2023-04-10T10:01:33+00:00</time>
        <ele>2685.0</ele>
      </trkpt>
      <trkpt lat="44.31453" lon="6.82332">
        <time>2023-04-10T10:01:34+00:00</time>
        <ele>2686.0</ele>
      </trkpt>
      <trkpt lat="44.31453" lon="6.82332">
        <time>2023-04-10T10:01:35+00:00</time>
        <ele>2686.0</ele>
      </trkpt>
      <trkpt lat="44.31453" lon="6.82332">
        <time>2023-04-10T10:01:36+00:00</time>
        <ele>2686.0</ele>
      </trkpt>
      <trkpt lat="44.31455" lon="6.8233">
        <time>2023-04-10T10:01:37+00:00</time>
        <ele>2686.0</ele>
      </trkpt>
      <trkpt lat="44.31455" lon="6.8233">
        <time>2023-04-10T10:01:38+00:00</time>
        <ele>2686.0</ele>
      </trkpt>
      <trkpt lat="44.31455" lon="6.8233">
        <time>2023-04-10T10:01:39+00:00</time>
        <ele>2686.0</ele>
      </trkpt>
      <trkpt lat="44.31455" lon="6.8233">
        <time>2023-04-10T10:01:40+00:00</time>
        <ele>2686.0</ele>
      </trkpt>
      <trkpt lat="44.31455" lon="6.8233">
        <time>2023-04-10T10:01:41+00:00</time>
        <ele>2686.0</ele>
      </trkpt>
      <trkpt lat="44.31455" lon="6.8233">
        <time>2023-04-10T10:01:42+00:00</time>
        <ele>2686.0</ele>
      </trkpt>
      <trkpt lat="44.31457" lon="6.82329">
        <time>2023-04-10T10:01:43+00:00</time>
        <ele>2685.0</ele>
      </trkpt>
      <trkpt lat="44.31457" lon="6.82329">
        <time>2023-04-10T10:01:44+00:00</time>
        <ele>2685.0</ele>
      </trkpt>
      <trkpt lat="44.31457" lon="6.82329">
        <time>2023-04-10T10:01:45+00:00</time>
        <ele>2685.0</ele>
      </trkpt>
      <trkpt lat="44.31459" lon="6.82327">
        <time>2023-04-10T10:01:46+00:00</time>
        <ele>2686.0</ele>
      </trkpt>
      <trkpt lat="44.31459" lon="6.82327">
        <time>2023-04-10T10:01:47+00:00</time>
        <ele>2686.0</ele>
      </trkpt>
      <trkpt lat="44.3146" lon="6.82326">
        <time>2023-04-10T10:01:48+00:00</time>
        <ele>2686.0</ele>
      </trkpt>
      <trkpt lat="44.3146" lon="6.82326">
        <time>2023-04-10T10:01:49+00:00</time>
        <ele>2686.0</ele>
      </trkpt>
      <trkpt lat="44.3146" lon="6.82326">
        <time>2023-04-10T10:01:50+00:00</time>
        <ele>2686.0</ele>
      </trkpt>
      <trkpt lat="44.31462" lon="6.82323">
        <time>2023-04-10T10:01:51+00:00</time>
        <ele>2686.0</ele>
      </trkpt>
      <trkpt lat="44.31462" lon="6.82323">
        <time>2023-04-10T10:01:52+00:00</time>
        <ele>2686.0</ele>
      </trkpt>
      <trkpt lat="44.31462" lon="6.82323">
        <time>2023-04-10T10:01:53+00:00</time>
        <ele>2686.0</ele>
      </trkpt>
      <trkpt lat="44.31465" lon="6.82322">
        <time>2023-04-10T10:01:54+00:00</time>
        <ele>2686.0</ele>
      </trkpt>
      <trkpt lat="44.31465" lon="6.82322">
        <time>2023-04-10T10:01:55+00:00</time>
        <ele>2686.0</ele>
      </trkpt>
      <trkpt lat="44.31465" lon="6.82322">
        <time>2023-04-10T10:01:56+00:00</time>
        <ele>2686.0</ele>
      </trkpt>
      <trkpt lat="44.31468" lon="6.82322">
        <time>2023-04-10T10:01:57+00:00</time>
        <ele>2686.0</ele>
      </trkpt>
      <trkpt lat="44.31468" lon="6.82322">
        <time>2023-04-10T10:01:58+00:00</time>
        <ele>2686.0</ele>
      </trkpt>
      <trkpt lat="44.31469" lon="6.82322">
        <time>2023-04-10T10:01:59+00:00</time>
        <ele>2686.0</ele>
      </trkpt>
      <trkpt lat="44.31469" lon="6.82322">
        <time>2023-04-10T10:02:00+00:00</time>
        <ele>2686.0</ele>
      </trkpt>
      <trkpt lat="44.31469" lon="6.82322">
        <time>2023-04-10T10:02:01+00:00</time>
        <ele>2686.0</ele>
      </trkpt>
      <trkpt lat="44.31471" lon="6.82322">
        <time>2023-04-10T10:02:02+00:00</time>
        <ele>2685.0</ele>
      </trkpt>
      <trkpt lat="44.31471" lon="6.82322">
        <time>2023-04-10T10:02:03+00:00</time>
        <ele>2685.0</ele>
      </trkpt>
      <trkpt lat="44.31471" lon="6.82322">
        <time>2023-04-10T10:02:04+00:00</time>
        <ele>2685.0</ele>
      </trkpt>
      <trkpt lat="44.31474" lon="6.8232">
        <time>2023-04-10T10:02:05+00:00</time>
        <ele>2685.0</ele>
      </trkpt>
      <trkpt lat="44.31474" lon="6.8232">
        <time>2023-04-10T10:02:06+00:00</time>
        <ele>2685.0</ele>
      </trkpt>
      <trkpt lat="44.31474" lon="6.8232">
        <time>2023-04-10T10:02:07+00:00</time>
        <ele>2685.0</ele>
      </trkpt>
      <trkpt lat="44.31474" lon="6.8232">
        <time>2023-04-10T10:02:08+00:00</time>
        <ele>2685.0</ele>
      </trkpt>
      <trkpt lat="44.31475" lon="6.82319">
        <time>2023-04-10T10:02:09+00:00</time>
        <ele>2685.0</ele>
      </trkpt>
      <trkpt lat="44.31475" lon="6.82319">
        <time>2023-04-10T10:02:10+00:00</time>
        <ele>2685.0</ele>
      </trkpt>
      <trkpt lat="44.31475" lon="6.82319">
        <time>2023-04-10T10:02:11+00:00</time>
        <ele>2685.0</ele>
      </trkpt>
      <trkpt lat="44.31475" lon="6.82319">
        <time>2023-04-10T10:02:12+00:00</time>
        <ele>2685.0</ele>
      </trkpt>
      <trkpt lat="44.31475" lon="6.82319">
        <time>2023-04-10T10:02:13+00:00</time>
        <ele>2685.0</ele>
      </trkpt>
      <trkpt lat="44.31476" lon="6.82317">
        <time>2023-04-10T10:02:14+00:00</time>
        <ele>2685.0</ele>
      </trkpt>
      <trkpt lat="44.31476" lon="6.82317">
        <time>2023-04-10T10:02:15+00:00</time>
        <ele>2685.0</ele>
      </trkpt>
      <trkpt lat="44.31476" lon="6.82317">
        <time>2023-04-10T10:02:16+00:00</time>
        <ele>2685.0</ele>
      </trkpt>
      <trkpt lat="44.31476" lon="6.82317">
        <time>2023-04-10T10:02:17+00:00</time>
        <ele>2685.0</ele>
      </trkpt>
      <trkpt lat="44.31476" lon="6.82317">
        <time>2023-04-10T10:02:18+00:00</time>
        <ele>2685.0</ele>
      </trkpt>
      <trkpt lat="44.31476" lon="6.82317">
        <time>2023-04-10T10:02:19+00:00</time>
        <ele>2685.0</ele>
      </trkpt>
      <trkpt lat="44.31476" lon="6.82317">
        <time>2023-04-10T10:02:20+00:00</time>
        <ele>2685.0</ele>
      </trkpt>
      <trkpt lat="44.31476" lon="6.82314">
        <time>2023-04-10T10:02:21+00:00</time>
        <ele>2686.0</ele>
      </trkpt>
      <trkpt lat="44.31476" lon="6.82314">
        <time>2023-04-10T10:02:22+00:00</time>
        <ele>2686.0</ele>
      </trkpt>
      <trkpt lat="44.31476" lon="6.82314">
        <time>2023-04-10T10:02:23+00:00</time>
        <ele>2686.0</ele>
      </trkpt>
      <trkpt lat="44.31476" lon="6.82314">
        <time>2023-04-10T10:02:24+00:00</time>
        <ele>2686.0</ele>
      </trkpt>
      <trkpt lat="44.31476" lon="6.82311">
        <time>2023-04-10T10:02:25+00:00</time>
        <ele>2688.0</ele>
      </trkpt>
      <trkpt lat="44.31476" lon="6.82311">
        <time>2023-04-10T10:02:26+00:00</time>
        <ele>2688.0</ele>
      </trkpt>
      <trkpt lat="44.31476" lon="6.82311">
        <time>2023-04-10T10:02:27+00:00</time>
        <ele>2688.0</ele>
      </trkpt>
      <trkpt lat="44.31476" lon="6.82311">
        <time>2023-04-10T10:02:28+00:00</time>
        <ele>2688.0</ele>
      </trkpt>
      <trkpt lat="44.31476" lon="6.82311">
        <time>2023-04-10T10:02:29+00:00</time>
        <ele>2688.0</ele>
      </trkpt>
      <trkpt lat="44.31476" lon="6.82311">
        <time>2023-04-10T10:02:30+00:00</time>
        <ele>2688.0</ele>
      </trkpt>
      <trkpt lat="44.31476" lon="6.82311">
        <time>2023-04-10T10:02:31+00:00</time>
        <ele>2688.0</ele>
      </trkpt>
      <trkpt lat="44.31476" lon="6.82311">
        <time>2023-04-10T10:02:32+00:00</time>
        <ele>2688.0</ele>
      </trkpt>
      <trkpt lat="44.31476" lon="6.82311">
        <time>2023-04-10T10:02:33+00:00</time>
        <ele>2688.0</ele>
      </trkpt>
      <trkpt lat="44.31476" lon="6.82311">
        <time>2023-04-10T10:02:34+00:00</time>
        <ele>2688.0</ele>
      </trkpt>
      <trkpt lat="44.31476" lon="6.82311">
        <time>2023-04-10T10:02:35+00:00</time>
        <ele>2688.0</ele>
      </trkpt>
      <trkpt lat="44.31476" lon="6.82311">
        <time>2023-04-10T10:02:36+00:00</time>
        <ele>2688.0</ele>
      </trkpt>
      <trkpt lat="44.31476" lon="6.82311">
        <time>2023-04-10T10:02:37+00:00</time>
        <ele>2688.0</ele>
      </trkpt>
      <trkpt lat="44.31476" lon="6.82311">
        <time>2023-04-10T10:02:38+00:00</time>
        <ele>2688.0</ele>
      </trkpt>
      <trkpt lat="44.31476" lon="6.82311">
        <time>2023-04-10T10:02:39+00:00</time>
        <ele>2688.0</ele>
      </trkpt>
      <trkpt lat="44.31476" lon="6.82311">
        <time>2023-04-10T10:02:40+00:00</time>
        <ele>2688.0</ele>
      </trkpt>
      <trkpt lat="44.31476" lon="6.82311">
        <time>2023-04-10T10:02:41+00:00</time>
        <ele>2688.0</ele>
      </trkpt>
      <trkpt lat="44.31476" lon="6.82311">
        <time>2023-04-10T10:02:42+00:00</time>
        <ele>2688.0</ele>
      </trkpt>
      <trkpt lat="44.31476" lon="6.82311">
        <time>2023-04-10T10:02:43+00:00</time>
        <ele>2688.0</ele>
      </trkpt>
      <trkpt lat="44.31476" lon="6.82311">
        <time>2023-04-10T10:02:44+00:00</time>
        <ele>2688.0</ele>
      </trkpt>
      <trkpt lat="44.31476" lon="6.82311">
        <time>2023-04-10T10:02:45+00:00</time>
        <ele>2688.0</ele>
      </trkpt>
      <trkpt lat="44.31476" lon="6.82311">
        <time>2023-04-10T10:02:46+00:00</time>
        <ele>2688.0</ele>
      </trkpt>
      <trkpt lat="44.31476" lon="6.82311">
        <time>2023-04-10T10:02:47+00:00</time>
        <ele>2688.0</ele>
      </trkpt>
      <trkpt lat="44.31476" lon="6.82311">
        <time>2023-04-10T10:02:48+00:00</time>
        <ele>2688.0</ele>
      </trkpt>
      <trkpt lat="44.31476" lon="6.82311">
        <time>2023-04-10T10:02:49+00:00</time>
        <ele>2688.0</ele>
      </trkpt>
      <trkpt lat="44.31476" lon="6.82311">
        <time>2023-04-10T10:02:50+00:00</time>
        <ele>2688.0</ele>
      </trkpt>
      <trkpt lat="44.31476" lon="6.82311">
        <time>2023-04-10T10:02:51+00:00</time>
        <ele>2688.0</ele>
      </trkpt>
      <trkpt lat="44.31476" lon="6.82311">
        <time>2023-04-10T10:02:52+00:00</time>
        <ele>2688.0</ele>
      </trkpt>
      <trkpt lat="44.31476" lon="6.82311">
        <time>2023-04-10T10:02:53+00:00</time>
        <ele>2688.0</ele>
      </trkpt>
      <trkpt lat="44.31476" lon="6.82311">
        <time>2023-04-10T10:02:54+00:00</time>
        <ele>2688.0</ele>
      </trkpt>
      <trkpt lat="44.31476" lon="6.82311">
        <time>2023-04-10T10:02:55+00:00</time>
        <ele>2688.0</ele>
      </trkpt>
      <trkpt lat="44.31476" lon="6.82311">
        <time>2023-04-10T10:02:56+00:00</time>
        <ele>2688.0</ele>
      </trkpt>
      <trkpt lat="44.31476" lon="6.82311">
        <time>2023-04-10T10:02:57+00:00</time>
        <ele>2688.0</ele>
      </trkpt>
      <trkpt lat="44.31476" lon="6.82311">
        <time>2023-04-10T10:02:58+00:00</time>
        <ele>2688.0</ele>
      </trkpt>
      <trkpt lat="44.31476" lon="6.82311">
        <time>2023-04-10T10:02:59+00:00</time>
        <ele>2688.0</ele>
      </trkpt>
      <trkpt lat="44.31476" lon="6.82311">
        <time>2023-04-10T10:03:00+00:00</time>
        <ele>2688.0</ele>
      </trkpt>
      <trkpt lat="44.31476" lon="6.82311">
        <time>2023-04-10T10:03:01+00:00</time>
        <ele>2688.0</ele>
      </trkpt>
      <trkpt lat="44.31476" lon="6.82311">
        <time>2023-04-10T10:03:02+00:00</time>
        <ele>2688.0</ele>
      </trkpt>
      <trkpt lat="44.31476" lon="6.82311">
        <time>2023-04-10T10:03:03+00:00</time>
        <ele>2688.0</ele>
      </trkpt>
      <trkpt lat="44.31476" lon="6.82311">
        <time>2023-04-10T10:03:04+00:00</time>
        <ele>2688.0</ele>
      </trkpt>
      <trkpt lat="44.31476" lon="6.82311">
        <time>2023-04-10T10:03:05+00:00</time>
        <ele>2688.0</ele>
      </trkpt>
      <trkpt lat="44.31476" lon="6.82311">
        <time>2023-04-10T10:03:06+00:00</time>
        <ele>2688.0</ele>
      </trkpt>
      <trkpt lat="44.31476" lon="6.82311">
        <time>2023-04-10T10:03:07+00:00</time>
        <ele>2688.0</ele>
      </trkpt>
      <trkpt lat="44.31476" lon="6.82311">
        <time>2023-04-10T10:03:08+00:00</time>
        <ele>2688.0</ele>
      </trkpt>
      <trkpt lat="44.31476" lon="6.82311">
        <time>2023-04-10T10:03:09+00:00</time>
        <ele>2688.0</ele>
      </trkpt>
      <trkpt lat="44.31476" lon="6.82311">
        <time>2023-04-10T10:03:10+00:00</time>
        <ele>2688.0</ele>
      </trkpt>
      <trkpt lat="44.31476" lon="6.82311">
        <time>2023-04-10T10:03:11+00:00</time>
        <ele>2688.0</ele>
      </trkpt>
      <trkpt lat="44.31476" lon="6.82311">
        <time>2023-04-10T10:03:12+00:00</time>
        <ele>2688.0</ele>
      </trkpt>
      <trkpt lat="44.31476" lon="6.82311">
        <time>2023-04-10T10:03:13+00:00</time>
        <ele>2688.0</ele>
      </trkpt>
      <trkpt lat="44.31476" lon="6.82311">
        <time>2023-04-10T10:03:14+00:00</time>
        <ele>2688.0</ele>
      </trkpt>
      <trkpt lat="44.31476" lon="6.82311">
        <time>2023-04-10T10:03:15+00:00</time>
        <ele>2688.0</ele>
      </trkpt>
      <trkpt lat="44.31476" lon="6.82311">
        <time>2023-04-10T10:03:16+00:00</time>
        <ele>2688.0</ele>
      </trkpt>
      <trkpt lat="44.31476" lon="6.82311">
        <time>2023-04-10T10:03:17+00:00</time>
        <ele>2688.0</ele>
      </trkpt>
      <trkpt lat="44.31476" lon="6.82311">
        <time>2023-04-10T10:03:18+00:00</time>
        <ele>2688.0</ele>
      </trkpt>
      <trkpt lat="44.31476" lon="6.82311">
        <time>2023-04-10T10:03:19+00:00</time>
        <ele>2688.0</ele>
      </trkpt>
      <trkpt lat="44.31476" lon="6.82311">
        <time>2023-04-10T10:03:20+00:00</time>
        <ele>2688.0</ele>
      </trkpt>
      <trkpt lat="44.31476" lon="6.82311">
        <time>2023-04-10T10:03:21+00:00</time>
        <ele>2688.0</ele>
      </trkpt>
      <trkpt lat="44.31476" lon="6.82311">
        <time>2023-04-10T10:03:22+00:00</time>
        <ele>2688.0</ele>
      </trkpt>
      <trkpt lat="44.31476" lon="6.82311">
        <time>2023-04-10T10:03:23+00:00</time>
        <ele>2688.0</ele>
      </trkpt>
      <trkpt lat="44.31476" lon="6.82311">
        <time>2023-04-10T10:03:24+00:00</time>
        <ele>2688.0</ele>
      </trkpt>
      <trkpt lat="44.31476" lon="6.82311">
        <time>2023-04-10T10:03:25+00:00</time>
        <ele>2688.0</ele>
      </trkpt>
      <trkpt lat="44.31476" lon="6.82311">
        <time>2023-04-10T10:03:26+00:00</time>
        <ele>2688.0</ele>
      </trkpt>
      <trkpt lat="44.31476" lon="6.82311">
        <time>2023-04-10T10:03:27+00:00</time>
        <ele>2688.0</ele>
      </trkpt>
      <trkpt lat="44.31476" lon="6.82311">
        <time>2023-04-10T10:03:28+00:00</time>
        <ele>2688.0</ele>
      </trkpt>
      <trkpt lat="44.31476" lon="6.82311">
        <time>2023-04-10T10:03:29+00:00</time>
        <ele>2688.0</ele>
      </trkpt>
      <trkpt lat="44.31476" lon="6.82311">
        <time>2023-04-10T10:03:30+00:00</time>
        <ele>2688.0</ele>
      </trkpt>
      <trkpt lat="44.31476" lon="6.82311">
        <time>2023-04-10T10:03:31+00:00</time>
        <ele>2688.0</ele>
      </trkpt>
      <trkpt lat="44.31476" lon="6.82311">
        <time>2023-04-10T10:03:32+00:00</time>
        <ele>2688.0</ele>
      </trkpt>
      <trkpt lat="44.31476" lon="6.82311">
        <time>2023-04-10T10:03:33+00:00</time>
        <ele>2688.0</ele>
      </trkpt>
      <trkpt lat="44.31476" lon="6.82311">
        <time>2023-04-10T10:03:34+00:00</time>
        <ele>2688.0</ele>
      </trkpt>
      <trkpt lat="44.31476" lon="6.82311">
        <time>2023-04-10T10:03:35+00:00</time>
        <ele>2688.0</ele>
      </trkpt>
      <trkpt lat="44.31476" lon="6.82311">
        <time>2023-04-10T10:03:36+00:00</time>
        <ele>2688.0</ele>
      </trkpt>
      <trkpt lat="44.31476" lon="6.82311">
        <time>2023-04-10T10:03:37+00:00</time>
        <ele>2688.0</ele>
      </trkpt>
      <trkpt lat="44.31476" lon="6.82311">
        <time>2023-04-10T10:03:38+00:00</time>
        <ele>2688.0</ele>
      </trkpt>
      <trkpt lat="44.31476" lon="6.82311">
        <time>2023-04-10T10:03:39+00:00</time>
        <ele>2688.0</ele>
      </trkpt>
      <trkpt lat="44.31476" lon="6.82311">
        <time>2023-04-10T10:03:40+00:00</time>
        <ele>2688.0</ele>
      </trkpt>
      <trkpt lat="44.31476" lon="6.82311">
        <time>2023-04-10T10:03:41+00:00</time>
        <ele>2688.0</ele>
      </trkpt>
      <trkpt lat="44.31476" lon="6.82311">
        <time>2023-04-10T10:03:42+00:00</time>
        <ele>2688.0</ele>
      </trkpt>
      <trkpt lat="44.31476" lon="6.82311">
        <time>2023-04-10T10:03:43+00:00</time>
        <ele>2688.0</ele>
      </trkpt>
      <trkpt lat="44.31476" lon="6.82311">
        <time>2023-04-10T10:03:44+00:00</time>
        <ele>2688.0</ele>
      </trkpt>
      <trkpt lat="44.31476" lon="6.82311">
        <time>2023-04-10T10:03:45+00:00</time>
        <ele>2688.0</ele>
      </trkpt>
      <trkpt lat="44.31476" lon="6.82311">
        <time>2023-04-10T10:03:46+00:00</time>
        <ele>2688.0</ele>
      </trkpt>
      <trkpt lat="44.31476" lon="6.82311">
        <time>2023-04-10T10:03:47+00:00</time>
        <ele>2688.0</ele>
      </trkpt>
      <trkpt lat="44.31476" lon="6.82311">
        <time>2023-04-10T10:03:48+00:00</time>
        <ele>2688.0</ele>
      </trkpt>
      <trkpt lat="44.31476" lon="6.82311">
        <time>2023-04-10T10:03:49+00:00</time>
        <ele>2688.0</ele>
      </trkpt>
      <trkpt lat="44.31476" lon="6.82311">
        <time>2023-04-10T10:03:50+00:00</time>
        <ele>2688.0</ele>
      </trkpt>
      <trkpt lat="44.31476" lon="6.82311">
        <time>2023-04-10T10:03:51+00:00</time>
        <ele>2688.0</ele>
      </trkpt>
      <trkpt lat="44.31476" lon="6.82311">
        <time>2023-04-10T10:03:52+00:00</time>
        <ele>2688.0</ele>
      </trkpt>
      <trkpt lat="44.31476" lon="6.82311">
        <time>2023-04-10T10:03:53+00:00</time>
        <ele>2688.0</ele>
      </trkpt>
      <trkpt lat="44.31477" lon="6.82315">
        <time>2023-04-10T10:03:54+00:00</time>
        <ele>2686.0</ele>
      </trkpt>
      <trkpt lat="44.31477" lon="6.82313">
        <time>2023-04-10T10:03:55+00:00</time>
        <ele>2686.0</ele>
      </trkpt>
      <trkpt lat="44.31477" lon="6.82313">
        <time>2023-04-10T10:03:56+00:00</time>
        <ele>2686.0</ele>
      </trkpt>
      <trkpt lat="44.31477" lon="6.82308">
        <time>2023-04-10T10:03:57+00:00</time>
        <ele>2688.0</ele>
      </trkpt>
      <trkpt lat="44.31477" lon="6.82308">
        <time>2023-04-10T10:03:58+00:00</time>
        <ele>2688.0</ele>
      </trkpt>
      <trkpt lat="44.31476" lon="6.82304">
        <time>2023-04-10T10:03:59+00:00</time>
        <ele>2689.0</ele>
      </trkpt>
      <trkpt lat="44.31476" lon="6.82304">
        <time>2023-04-10T10:04:00+00:00</time>
        <ele>2689.0</ele>
      </trkpt>
      <trkpt lat="44.31476" lon="6.823">
        <time>2023-04-10T10:04:01+00:00</time>
        <ele>2690.0</ele>
      </trkpt>
      <trkpt lat="44.31476" lon="6.823">
        <time>2023-04-10T10:04:02+00:00</time>
        <ele>2690.0</ele>
      </trkpt>
      <trkpt lat="44.31477" lon="6.82296">
        <time>2023-04-10T10:04:03+00:00</time>
        <ele>2690.0</ele>
      </trkpt>
      <trkpt lat="44.31477" lon="6.82296">
        <time>2023-04-10T10:04:04+00:00</time>
        <ele>2690.0</ele>
      </trkpt>
      <trkpt lat="44.31477" lon="6.82296">
        <time>2023-04-10T10:04:05+00:00</time>
        <ele>2690.0</ele>
      </trkpt>
      <trkpt lat="44.31478" lon="6.82293">
        <time>2023-04-10T10:04:06+00:00</time>
        <ele>2691.0</ele>
      </trkpt>
      <trkpt lat="44.31478" lon="6.82293">
        <time>2023-04-10T10:04:07+00:00</time>
        <ele>2691.0</ele>
      </trkpt>
      <trkpt lat="44.3148" lon="6.8229">
        <time>2023-04-10T10:04:08+00:00</time>
        <ele>2691.0</ele>
      </trkpt>
      <trkpt lat="44.3148" lon="6.8229">
        <time>2023-04-10T10:04:09+00:00</time>
        <ele>2691.0</ele>
      </trkpt>
      <trkpt lat="44.31481" lon="6.82288">
        <time>2023-04-10T10:04:10+00:00</time>
        <ele>2692.0</ele>
      </trkpt>
      <trkpt lat="44.31481" lon="6.82288">
        <time>2023-04-10T10:04:11+00:00</time>
        <ele>2692.0</ele>
      </trkpt>
      <trkpt lat="44.31482" lon="6.82285">
        <time>2023-04-10T10:04:12+00:00</time>
        <ele>2692.0</ele>
      </trkpt>
      <trkpt lat="44.31482" lon="6.82285">
        <time>2023-04-10T10:04:13+00:00</time>
        <ele>2692.0</ele>
      </trkpt>
      <trkpt lat="44.31483" lon="6.82283">
        <time>2023-04-10T10:04:14+00:00</time>
        <ele>2693.0</ele>
      </trkpt>
      <trkpt lat="44.31483" lon="6.82283">
        <time>2023-04-10T10:04:15+00:00</time>
        <ele>2693.0</ele>
      </trkpt>
      <trkpt lat="44.31484" lon="6.82281">
        <time>2023-04-10T10:04:16+00:00</time>
        <ele>2693.0</ele>
      </trkpt>
      <trkpt lat="44.31484" lon="6.82281">
        <time>2023-04-10T10:04:17+00:00</time>
        <ele>2693.0</ele>
      </trkpt>
      <trkpt lat="44.31485" lon="6.82279">
        <time>2023-04-10T10:04:18+00:00</time>
        <ele>2693.0</ele>
      </trkpt>
      <trkpt lat="44.31485" lon="6.82279">
        <time>2023-04-10T10:04:19+00:00</time>
        <ele>2693.0</ele>
      </trkpt>
      <trkpt lat="44.31486" lon="6.82276">
        <time>2023-04-10T10:04:20+00:00</time>
        <ele>2694.0</ele>
      </trkpt>
      <trkpt lat="44.31486" lon="6.82276">
        <time>2023-04-10T10:04:21+00:00</time>
        <ele>2694.0</ele>
      </trkpt>
      <trkpt lat="44.31486" lon="6.82273">
        <time>2023-04-10T10:04:22+00:00</time>
        <ele>2694.0</ele>
      </trkpt>
      <trkpt lat="44.31488" lon="6.82271">
        <time>2023-04-10T10:04:23+00:00</time>
        <ele>2695.0</ele>
      </trkpt>
      <trkpt lat="44.31488" lon="6.82271">
        <time>2023-04-10T10:04:24+00:00</time>
        <ele>2695.0</ele>
      </trkpt>
      <trkpt lat="44.31488" lon="6.82268">
        <time>2023-04-10T10:04:25+00:00</time>
        <ele>2695.0</ele>
      </trkpt>
      <trkpt lat="44.31488" lon="6.82268">
        <time>2023-04-10T10:04:26+00:00</time>
        <ele>2695.0</ele>
      </trkpt>
      <trkpt lat="44.3149" lon="6.82266">
        <time>2023-04-10T10:04:27+00:00</time>
        <ele>2695.0</ele>
      </trkpt>
      <trkpt lat="44.3149" lon="6.82266">
        <time>2023-04-10T10:04:28+00:00</time>
        <ele>2695.0</ele>
      </trkpt>
      <trkpt lat="44.3149" lon="6.82266">
        <time>2023-04-10T10:04:29+00:00</time>
        <ele>2695.0</ele>
      </trkpt>
      <trkpt lat="44.31492" lon="6.82263">
        <time>2023-04-10T10:04:30+00:00</time>
        <ele>2695.0</ele>
      </trkpt>
      <trkpt lat="44.31492" lon="6.82263">
        <time>2023-04-10T10:04:31+00:00</time>
        <ele>2695.0</ele>
      </trkpt>
      <trkpt lat="44.31492" lon="6.82263">
        <time>2023-04-10T10:04:32+00:00</time>
        <ele>2695.0</ele>
      </trkpt>
      <trkpt lat="44.31493" lon="6.8226">
        <time>2023-04-10T10:04:33+00:00</time>
        <ele>2696.0</ele>
      </trkpt>
      <trkpt lat="44.31493" lon="6.8226">
        <time>2023-04-10T10:04:34+00:00</time>
        <ele>2696.0</ele>
      </trkpt>
      <trkpt lat="44.31494" lon="6.82258">
        <time>2023-04-10T10:04:35+00:00</time>
        <ele>2696.0</ele>
      </trkpt>
      <trkpt lat="44.31494" lon="6.82258">
        <time>2023-04-10T10:04:36+00:00</time>
        <ele>2696.0</ele>
      </trkpt>
      <trkpt lat="44.31496" lon="6.82256">
        <time>2023-04-10T10:04:37+00:00</time>
        <ele>2696.0</ele>
      </trkpt>
      <trkpt lat="44.31496" lon="6.82256">
        <time>2023-04-10T10:04:38+00:00</time>
        <ele>2696.0</ele>
      </trkpt>
      <trkpt lat="44.31496" lon="6.82256">
        <time>2023-04-10T10:04:39+00:00</time>
        <ele>2696.0</ele>
      </trkpt>
      <trkpt lat="44.31498" lon="6.82254">
        <time>2023-04-10T10:04:40+00:00</time>
        <ele>2696.0</ele>
      </trkpt>
      <trkpt lat="44.31498" lon="6.82254">
        <time>2023-04-10T10:04:41+00:00</time>
        <ele>2696.0</ele>
      </trkpt>
      <trkpt lat="44.31498" lon="6.82254">
        <time>2023-04-10T10:04:42+00:00</time>
        <ele>2696.0</ele>
      </trkpt>
      <trkpt lat="44.315" lon="6.82252">
        <time>2023-04-10T10:04:43+00:00</time>
        <ele>2696.0</ele>
      </trkpt>
      <trkpt lat="44.315" lon="6.82252">
        <time>2023-04-10T10:04:44+00:00</time>
        <ele>2696.0</ele>
      </trkpt>
      <trkpt lat="44.315" lon="6.82252">
        <time>2023-04-10T10:04:45+00:00</time>
        <ele>2696.0</ele>
      </trkpt>
      <trkpt lat="44.31501" lon="6.8225">
        <time>2023-04-10T10:04:46+00:00</time>
        <ele>2696.0</ele>
      </trkpt>
      <trkpt lat="44.31501" lon="6.8225">
        <time>2023-04-10T10:04:47+00:00</time>
        <ele>2696.0</ele>
      </trkpt>
      <trkpt lat="44.31501" lon="6.8225">
        <time>2023-04-10T10:04:48+00:00</time>
        <ele>2696.0</ele>
      </trkpt>
      <trkpt lat="44.31503" lon="6.82248">
        <time>2023-04-10T10:04:49+00:00</time>
        <ele>2697.0</ele>
      </trkpt>
      <trkpt lat="44.31503" lon="6.82248">
        <time>2023-04-10T10:04:50+00:00</time>
        <ele>2697.0</ele>
      </trkpt>
      <trkpt lat="44.31503" lon="6.82248">
        <time>2023-04-10T10:04:51+00:00</time>
        <ele>2697.0</ele>
      </trkpt>
      <trkpt lat="44.31505" lon="6.82246">
        <time>2023-04-10T10:04:52+00:00</time>
        <ele>2697.0</ele>
      </trkpt>
      <trkpt lat="44.31505" lon="6.82246">
        <time>2023-04-10T10:04:53+00:00</time>
        <ele>2697.0</ele>
      </trkpt>
      <trkpt lat="44.31506" lon="6.82244">
        <time>2023-04-10T10:04:54+00:00</time>
        <ele>2698.0</ele>
      </trkpt>
      <trkpt lat="44.31506" lon="6.82244">
        <time>2023-04-10T10:04:55+00:00</time>
        <ele>2698.0</ele>
      </trkpt>
      <trkpt lat="44.31508" lon="6.82242">
        <time>2023-04-10T10:04:56+00:00</time>
        <ele>2699.0</ele>
      </trkpt>
      <trkpt lat="44.31508" lon="6.82242">
        <time>2023-04-10T10:04:57+00:00</time>
        <ele>2699.0</ele>
      </trkpt>
      <trkpt lat="44.31508" lon="6.82242">
        <time>2023-04-10T10:04:58+00:00</time>
        <ele>2699.0</ele>
      </trkpt>
      <trkpt lat="44.31509" lon="6.8224">
        <time>2023-04-10T10:04:59+00:00</time>
        <ele>2699.0</ele>
      </trkpt>
      <trkpt lat="44.31509" lon="6.8224">
        <time>2023-04-10T10:05:00+00:00</time>
        <ele>2699.0</ele>
      </trkpt>
      <trkpt lat="44.31509" lon="6.8224">
        <time>2023-04-10T10:05:01+00:00</time>
        <ele>2699.0</ele>
      </trkpt>
      <trkpt lat="44.3151" lon="6.82237">
        <time>2023-04-10T10:05:02+00:00</time>
        <ele>2700.0</ele>
      </trkpt>
      <trkpt lat="44.3151" lon="6.82237">
        <time>2023-04-10T10:05:03+00:00</time>
        <ele>2700.0</ele>
      </trkpt>
      <trkpt lat="44.31512" lon="6.82235">
        <time>2023-04-10T10:05:04+00:00</time>
        <ele>2700.0</ele>
      </trkpt>
      <trkpt lat="44.31512" lon="6.82235">
        <time>2023-04-10T10:05:05+00:00</time>
        <ele>2700.0</ele>
      </trkpt>
      <trkpt lat="44.31512" lon="6.82235">
        <time>2023-04-10T10:05:06+00:00</time>
        <ele>2700.0</ele>
      </trkpt>
      <trkpt lat="44.31513" lon="6.82233">
        <time>2023-04-10T10:05:07+00:00</time>
        <ele>2701.0</ele>
      </trkpt>
      <trkpt lat="44.31513" lon="6.82233">
        <time>2023-04-10T10:05:08+00:00</time>
        <ele>2701.0</ele>
      </trkpt>
      <trkpt lat="44.31513" lon="6.82233">
        <time>2023-04-10T10:05:09+00:00</time>
        <ele>2701.0</ele>
      </trkpt>
      <trkpt lat="44.31514" lon="6.8223">
        <time>2023-04-10T10:05:10+00:00</time>
        <ele>2702.0</ele>
      </trkpt>
      <trkpt lat="44.31514" lon="6.8223">
        <time>2023-04-10T10:05:11+00:00</time>
        <ele>2702.0</ele>
      </trkpt>
      <trkpt lat="44.31514" lon="6.8223">
        <time>2023-04-10T10:05:12+00:00</time>
        <ele>2702.0</ele>
      </trkpt>
      <trkpt lat="44.31516" lon="6.82228">
        <time>2023-04-10T10:05:13+00:00</time>
        <ele>2702.0</ele>
      </trkpt>
      <trkpt lat="44.31516" lon="6.82228">
        <time>2023-04-10T10:05:14+00:00</time>
        <ele>2702.0</ele>
      </trkpt>
      <trkpt lat="44.31516" lon="6.82228">
        <time>2023-04-10T10:05:15+00:00</time>
        <ele>2702.0</ele>
      </trkpt>
      <trkpt lat="44.31517" lon="6.82225">
        <time>2023-04-10T10:05:16+00:00</time>
        <ele>2703.0</ele>
      </trkpt>
      <trkpt lat="44.31517" lon="6.82225">
        <time>2023-04-10T10:05:17+00:00</time>
        <ele>2703.0</ele>
      </trkpt>
      <trkpt lat="44.31517" lon="6.82225">
        <time>2023-04-10T10:05:18+00:00</time>
        <ele>2703.0</ele>
      </trkpt>
      <trkpt lat="44.31518" lon="6.82222">
        <time>2023-04-10T10:05:19+00:00</time>
        <ele>2704.0</ele>
      </trkpt>
      <trkpt lat="44.31518" lon="6.82222">
        <time>2023-04-10T10:05:20+00:00</time>
        <ele>2704.0</ele>
      </trkpt>
      <trkpt lat="44.31518" lon="6.82222">
        <time>2023-04-10T10:05:21+00:00</time>
        <ele>2704.0</ele>
      </trkpt>
      <trkpt lat="44.31519" lon="6.8222">
        <time>2023-04-10T10:05:22+00:00</time>
        <ele>2704.0</ele>
      </trkpt>
      <trkpt lat="44.31519" lon="6.8222">
        <time>2023-04-10T10:05:23+00:00</time>
        <ele>2704.0</ele>
      </trkpt>
      <trkpt lat="44.31519" lon="6.8222">
        <time>2023-04-10T10:05:24+00:00</time>
        <ele>2704.0</ele>
      </trkpt>
      <trkpt lat="44.31519" lon="6.8222">
        <time>2023-04-10T10:05:25+00:00</time>
        <ele>2704.0</ele>
      </trkpt>
      <trkpt lat="44.31519" lon="6.8222">
        <time>2023-04-10T10:05:26+00:00</time>
        <ele>2704.0</ele>
      </trkpt>
      <trkpt lat="44.31519" lon="6.8222">
        <time>2023-04-10T10:05:27+00:00</time>
        <ele>2704.0</ele>
      </trkpt>
      <trkpt lat="44.31521" lon="6.82217">
        <time>2023-04-10T10:05:28+00:00</time>
        <ele>2705.0</ele>
      </trkpt>
      <trkpt lat="44.31521" lon="6.82217">
        <time>2023-04-10T10:05:29+00:00</time>
        <ele>2705.0</ele>
      </trkpt>
      <trkpt lat="44.31521" lon="6.82217">
        <time>2023-04-10T10:05:30+00:00</time>
        <ele>2705.0</ele>
      </trkpt>
      <trkpt lat="44.31522" lon="6.82215">
        <time>2023-04-10T10:05:31+00:00</time>
        <ele>2706.0</ele>
      </trkpt>
      <trkpt lat="44.31522" lon="6.82215">
        <time>2023-04-10T10:05:32+00:00</time>
        <ele>2706.0</ele>
      </trkpt>
      <trkpt lat="44.31522" lon="6.82215">
        <time>2023-04-10T10:05:33+00:00</time>
        <ele>2706.0</ele>
      </trkpt>
      <trkpt lat="44.31524" lon="6.82212">
        <time>2023-04-10T10:05:34+00:00</time>
        <ele>2707.0</ele>
      </trkpt>
      <trkpt lat="44.31524" lon="6.82212">
        <time>2023-04-10T10:05:35+00:00</time>
        <ele>2707.0</ele>
      </trkpt>
      <trkpt lat="44.31524" lon="6.82212">
        <time>2023-04-10T10:05:36+00:00</time>
        <ele>2707.0</ele>
      </trkpt>
      <trkpt lat="44.31525" lon="6.8221">
        <time>2023-04-10T10:05:37+00:00</time>
        <ele>2708.0</ele>
      </trkpt>
      <trkpt lat="44.31525" lon="6.8221">
        <time>2023-04-10T10:05:38+00:00</time>
        <ele>2708.0</ele>
      </trkpt>
      <trkpt lat="44.31525" lon="6.8221">
        <time>2023-04-10T10:05:39+00:00</time>
        <ele>2708.0</ele>
      </trkpt>
      <trkpt lat="44.31527" lon="6.82207">
        <time>2023-04-10T10:05:40+00:00</time>
        <ele>2709.0</ele>
      </trkpt>
      <trkpt lat="44.31527" lon="6.82207">
        <time>2023-04-10T10:05:41+00:00</time>
        <ele>2709.0</ele>
      </trkpt>
      <trkpt lat="44.31527" lon="6.82207">
        <time>2023-04-10T10:05:42+00:00</time>
        <ele>2709.0</ele>
      </trkpt>
      <trkpt lat="44.31528" lon="6.82205">
        <time>2023-04-10T10:05:43+00:00</time>
        <ele>2710.0</ele>
      </trkpt>
      <trkpt lat="44.31528" lon="6.82205">
        <time>2023-04-10T10:05:44+00:00</time>
        <ele>2710.0</ele>
      </trkpt>
      <trkpt lat="44.31528" lon="6.82205">
        <time>2023-04-10T10:05:45+00:00</time>
        <ele>2710.0</ele>
      </trkpt>
      <trkpt lat="44.31528" lon="6.82205">
        <time>2023-04-10T10:05:46+00:00</time>
        <ele>2710.0</ele>
      </trkpt>
      <trkpt lat="44.3153" lon="6.82203">
        <time>2023-04-10T10:05:47+00:00</time>
        <ele>2710.0</ele>
      </trkpt>
      <trkpt lat="44.3153" lon="6.82203">
        <time>2023-04-10T10:05:48+00:00</time>
        <ele>2710.0</ele>
      </trkpt>
      <trkpt lat="44.3153" lon="6.82203">
        <time>2023-04-10T10:05:49+00:00</time>
        <ele>2710.0</ele>
      </trkpt>
      <trkpt lat="44.3153" lon="6.82203">
        <time>2023-04-10T10:05:50+00:00</time>
        <ele>2710.0</ele>
      </trkpt>
      <trkpt lat="44.3153" lon="6.82203">
        <time>2023-04-10T10:05:51+00:00</time>
        <ele>2710.0</ele>
      </trkpt>
      <trkpt lat="44.3153" lon="6.82203">
        <time>2023-04-10T10:05:52+00:00</time>
        <ele>2710.0</ele>
      </trkpt>
      <trkpt lat="44.3153" lon="6.82203">
        <time>2023-04-10T10:05:53+00:00</time>
        <ele>2710.0</ele>
      </trkpt>
      <trkpt lat="44.31532" lon="6.82201">
        <time>2023-04-10T10:05:54+00:00</time>
        <ele>2710.0</ele>
      </trkpt>
      <trkpt lat="44.31532" lon="6.82201">
        <time>2023-04-10T10:05:55+00:00</time>
        <ele>2710.0</ele>
      </trkpt>
      <trkpt lat="44.31532" lon="6.82201">
        <time>2023-04-10T10:05:56+00:00</time>
        <ele>2710.0</ele>
      </trkpt>
      <trkpt lat="44.31532" lon="6.82201">
        <time>2023-04-10T10:05:57+00:00</time>
        <ele>2710.0</ele>
      </trkpt>
      <trkpt lat="44.31532" lon="6.82201">
        <time>2023-04-10T10:05:58+00:00</time>
        <ele>2710.0</ele>
      </trkpt>
      <trkpt lat="44.31532" lon="6.82201">
        <time>2023-04-10T10:05:59+00:00</time>
        <ele>2710.0</ele>
      </trkpt>
      <trkpt lat="44.31532" lon="6.82201">
        <time>2023-04-10T10:06:00+00:00</time>
        <ele>2710.0</ele>
      </trkpt>
      <trkpt lat="44.31532" lon="6.82201">
        <time>2023-04-10T10:06:01+00:00</time>
        <ele>2710.0</ele>
      </trkpt>
      <trkpt lat="44.31532" lon="6.82201">
        <time>2023-04-10T10:06:02+00:00</time>
        <ele>2710.0</ele>
      </trkpt>
      <trkpt lat="44.31532" lon="6.82201">
        <time>2023-04-10T10:06:03+00:00</time>
        <ele>2710.0</ele>
      </trkpt>
      <trkpt lat="44.31532" lon="6.82201">
        <time>2023-04-10T10:06:04+00:00</time>
        <ele>2710.0</ele>
      </trkpt>
      <trkpt lat="44.31532" lon="6.82201">
        <time>2023-04-10T10:06:05+00:00</time>
        <ele>2710.0</ele>
      </trkpt>
      <trkpt lat="44.31532" lon="6.82201">
        <time>2023-04-10T10:06:06+00:00</time>
        <ele>2710.0</ele>
      </trkpt>
      <trkpt lat="44.31532" lon="6.82201">
        <time>2023-04-10T10:06:07+00:00</time>
        <ele>2710.0</ele>
      </trkpt>
      <trkpt lat="44.31532" lon="6.82201">
        <time>2023-04-10T10:06:08+00:00</time>
        <ele>2710.0</ele>
      </trkpt>
      <trkpt lat="44.31532" lon="6.82201">
        <time>2023-04-10T10:06:09+00:00</time>
        <ele>2710.0</ele>
      </trkpt>
      <trkpt lat="44.31532" lon="6.82201">
        <time>2023-04-10T10:06:10+00:00</time>
        <ele>2710.0</ele>
      </trkpt>
      <trkpt lat="44.31532" lon="6.82201">
        <time>2023-04-10T10:06:11+00:00</time>
        <ele>2710.0</ele>
      </trkpt>
      <trkpt lat="44.31532" lon="6.82201">
        <time>2023-04-10T10:06:12+00:00</time>
        <ele>2710.0</ele>
      </trkpt>
      <trkpt lat="44.31532" lon="6.82201">
        <time>2023-04-10T10:06:13+00:00</time>
        <ele>2710.0</ele>
      </trkpt>
      <trkpt lat="44.31532" lon="6.82201">
        <time>2023-04-10T10:06:14+00:00</time>
        <ele>2710.0</ele>
      </trkpt>
      <trkpt lat="44.31532" lon="6.82201">
        <time>2023-04-10T10:06:15+00:00</time>
        <ele>2710.0</ele>
      </trkpt>
      <trkpt lat="44.31532" lon="6.82201">
        <time>2023-04-10T10:06:16+00:00</time>
        <ele>2710.0</ele>
      </trkpt>
      <trkpt lat="44.31532" lon="6.82198">
        <time>2023-04-10T10:06:17+00:00</time>
        <ele>2710.0</ele>
      </trkpt>
      <trkpt lat="44.31532" lon="6.82198">
        <time>2023-04-10T10:06:18+00:00</time>
        <ele>2710.0</ele>
      </trkpt>
      <trkpt lat="44.31532" lon="6.82193">
        <time>2023-04-10T10:06:19+00:00</time>
        <ele>2712.0</ele>
      </trkpt>
      <trkpt lat="44.31532" lon="6.82193">
        <time>2023-04-10T10:06:20+00:00</time>
        <ele>2712.0</ele>
      </trkpt>
      <trkpt lat="44.31533" lon="6.82189">
        <time>2023-04-10T10:06:21+00:00</time>
        <ele>2713.0</ele>
      </trkpt>
      <trkpt lat="44.31533" lon="6.82189">
        <time>2023-04-10T10:06:22+00:00</time>
        <ele>2713.0</ele>
      </trkpt>
      <trkpt lat="44.31534" lon="6.82185">
        <time>2023-04-10T10:06:23+00:00</time>
        <ele>2714.0</ele>
      </trkpt>
      <trkpt lat="44.31534" lon="6.82185">
        <time>2023-04-10T10:06:24+00:00</time>
        <ele>2714.0</ele>
      </trkpt>
      <trkpt lat="44.31535" lon="6.82182">
        <time>2023-04-10T10:06:25+00:00</time>
        <ele>2714.0</ele>
      </trkpt>
      <trkpt lat="44.31535" lon="6.82182">
        <time>2023-04-10T10:06:26+00:00</time>
        <ele>2714.0</ele>
      </trkpt>
      <trkpt lat="44.31535" lon="6.82182">
        <time>2023-04-10T10:06:27+00:00</time>
        <ele>2714.0</ele>
      </trkpt>
      <trkpt lat="44.31535" lon="6.82182">
        <time>2023-04-10T10:06:28+00:00</time>
        <ele>2714.0</ele>
      </trkpt>
      <trkpt lat="44.31535" lon="6.82182">
        <time>2023-04-10T10:06:29+00:00</time>
        <ele>2714.0</ele>
      </trkpt>
      <trkpt lat="44.31535" lon="6.82182">
        <time>2023-04-10T10:06:30+00:00</time>
        <ele>2714.0</ele>
      </trkpt>
      <trkpt lat="44.31535" lon="6.82182">
        <time>2023-04-10T10:06:31+00:00</time>
        <ele>2714.0</ele>
      </trkpt>
      <trkpt lat="44.31535" lon="6.82182">
        <time>2023-04-10T10:06:32+00:00</time>
        <ele>2714.0</ele>
      </trkpt>
      <trkpt lat="44.31535" lon="6.82182">
        <time>2023-04-10T10:06:33+00:00</time>
        <ele>2714.0</ele>
      </trkpt>
      <trkpt lat="44.31535" lon="6.82182">
        <time>2023-04-10T10:06:34+00:00</time>
        <ele>2714.0</ele>
      </trkpt>
      <trkpt lat="44.31535" lon="6.82182">
        <time>2023-04-10T10:06:35+00:00</time>
        <ele>2714.0</ele>
      </trkpt>
      <trkpt lat="44.31535" lon="6.82182">
        <time>2023-04-10T10:06:36+00:00</time>
        <ele>2714.0</ele>
      </trkpt>
      <trkpt lat="44.31535" lon="6.82182">
        <time>2023-04-10T10:06:37+00:00</time>
        <ele>2714.0</ele>
      </trkpt>
      <trkpt lat="44.31535" lon="6.82182">
        <time>2023-04-10T10:06:38+00:00</time>
        <ele>2714.0</ele>
      </trkpt>
      <trkpt lat="44.31535" lon="6.82182">
        <time>2023-04-10T10:06:39+00:00</time>
        <ele>2714.0</ele>
      </trkpt>
      <trkpt lat="44.31535" lon="6.82182">
        <time>2023-04-10T10:06:40+00:00</time>
        <ele>2714.0</ele>
      </trkpt>
      <trkpt lat="44.31535" lon="6.82182">
        <time>2023-04-10T10:06:41+00:00</time>
        <ele>2714.0</ele>
      </trkpt>
      <trkpt lat="44.31535" lon="6.82182">
        <time>2023-04-10T10:06:42+00:00</time>
        <ele>2714.0</ele>
      </trkpt>
      <trkpt lat="44.31535" lon="6.82182">
        <time>2023-04-10T10:06:43+00:00</time>
        <ele>2714.0</ele>
      </trkpt>
      <trkpt lat="44.31535" lon="6.82182">
        <time>2023-04-10T10:06:44+00:00</time>
        <ele>2714.0</ele>
      </trkpt>
      <trkpt lat="44.31535" lon="6.82182">
        <time>2023-04-10T10:06:45+00:00</time>
        <ele>2714.0</ele>
      </trkpt>
      <trkpt lat="44.31535" lon="6.82182">
        <time>2023-04-10T10:06:46+00:00</time>
        <ele>2714.0</ele>
      </trkpt>
      <trkpt lat="44.31535" lon="6.82182">
        <time>2023-04-10T10:06:47+00:00</time>
        <ele>2714.0</ele>
      </trkpt>
      <trkpt lat="44.31535" lon="6.82182">
        <time>2023-04-10T10:06:48+00:00</time>
        <ele>2714.0</ele>
      </trkpt>
      <trkpt lat="44.31535" lon="6.82182">
        <time>2023-04-10T10:06:49+00:00</time>
        <ele>2714.0</ele>
      </trkpt>
      <trkpt lat="44.31535" lon="6.82182">
        <time>2023-04-10T10:06:50+00:00</time>
        <ele>2714.0</ele>
      </trkpt>
      <trkpt lat="44.31535" lon="6.82182">
        <time>2023-04-10T10:06:51+00:00</time>
        <ele>2714.0</ele>
      </trkpt>
      <trkpt lat="44.31535" lon="6.82182">
        <time>2023-04-10T10:06:52+00:00</time>
        <ele>2714.0</ele>
      </trkpt>
      <trkpt lat="44.31535" lon="6.82182">
        <time>2023-04-10T10:06:53+00:00</time>
        <ele>2714.0</ele>
      </trkpt>
      <trkpt lat="44.31535" lon="6.82182">
        <time>2023-04-10T10:06:54+00:00</time>
        <ele>2714.0</ele>
      </trkpt>
      <trkpt lat="44.31535" lon="6.82182">
        <time>2023-04-10T10:06:55+00:00</time>
        <ele>2714.0</ele>
      </trkpt>
      <trkpt lat="44.31535" lon="6.82182">
        <time>2023-04-10T10:06:56+00:00</time>
        <ele>2714.0</ele>
      </trkpt>
      <trkpt lat="44.31535" lon="6.82182">
        <time>2023-04-10T10:06:57+00:00</time>
        <ele>2714.0</ele>
      </trkpt>
      <trkpt lat="44.31535" lon="6.82182">
        <time>2023-04-10T10:06:58+00:00</time>
        <ele>2714.0</ele>
      </trkpt>
      <trkpt lat="44.31535" lon="6.82182">
        <time>2023-04-10T10:06:59+00:00</time>
        <ele>2714.0</ele>
      </trkpt>
      <trkpt lat="44.31535" lon="6.82182">
        <time>2023-04-10T10:07:00+00:00</time>
        <ele>2714.0</ele>
      </trkpt>
      <trkpt lat="44.31535" lon="6.82182">
        <time>2023-04-10T10:07:01+00:00</time>
        <ele>2714.0</ele>
      </trkpt>
      <trkpt lat="44.31535" lon="6.82182">
        <time>2023-04-10T10:07:02+00:00</time>
        <ele>2714.0</ele>
      </trkpt>
      <trkpt lat="44.31535" lon="6.82182">
        <time>2023-04-10T10:07:03+00:00</time>
        <ele>2714.0</ele>
      </trkpt>
      <trkpt lat="44.31535" lon="6.82182">
        <time>2023-04-10T10:07:04+00:00</time>
        <ele>2714.0</ele>
      </trkpt>
      <trkpt lat="44.31535" lon="6.82182">
        <time>2023-04-10T10:07:05+00:00</time>
        <ele>2714.0</ele>
      </trkpt>
      <trkpt lat="44.31535" lon="6.82182">
        <time>2023-04-10T10:07:06+00:00</time>
        <ele>2714.0</ele>
      </trkpt>
      <trkpt lat="44.31535" lon="6.82182">
        <time>2023-04-10T10:07:07+00:00</time>
        <ele>2714.0</ele>
      </trkpt>
      <trkpt lat="44.31535" lon="6.82182">
        <time>2023-04-10T10:07:08+00:00</time>
        <ele>2714.0</ele>
      </trkpt>
      <trkpt lat="44.31535" lon="6.82182">
        <time>2023-04-10T10:07:09+00:00</time>
        <ele>2714.0</ele>
      </trkpt>
      <trkpt lat="44.31535" lon="6.82182">
        <time>2023-04-10T10:07:10+00:00</time>
        <ele>2714.0</ele>
      </trkpt>
      <trkpt lat="44.31535" lon="6.82182">
        <time>2023-04-10T10:07:11+00:00</time>
        <ele>2714.0</ele>
      </trkpt>
      <trkpt lat="44.31535" lon="6.82182">
        <time>2023-04-10T10:07:12+00:00</time>
        <ele>2714.0</ele>
      </trkpt>
      <trkpt lat="44.31535" lon="6.82182">
        <time>2023-04-10T10:07:13+00:00</time>
        <ele>2714.0</ele>
      </trkpt>
      <trkpt lat="44.31535" lon="6.82182">
        <time>2023-04-10T10:07:14+00:00</time>
        <ele>2714.0</ele>
      </trkpt>
      <trkpt lat="44.31535" lon="6.82182">
        <time>2023-04-10T10:07:15+00:00</time>
        <ele>2714.0</ele>
      </trkpt>
      <trkpt lat="44.31535" lon="6.82182">
        <time>2023-04-10T10:07:16+00:00</time>
        <ele>2714.0</ele>
      </trkpt>
      <trkpt lat="44.31535" lon="6.82182">
        <time>2023-04-10T10:07:17+00:00</time>
        <ele>2714.0</ele>
      </trkpt>
      <trkpt lat="44.31535" lon="6.82182">
        <time>2023-04-10T10:07:18+00:00</time>
        <ele>2714.0</ele>
      </trkpt>
      <trkpt lat="44.31535" lon="6.82182">
        <time>2023-04-10T10:07:19+00:00</time>
        <ele>2714.0</ele>
      </trkpt>
      <trkpt lat="44.31535" lon="6.82182">
        <time>2023-04-10T10:07:20+00:00</time>
        <ele>2714.0</ele>
      </trkpt>
      <trkpt lat="44.31535" lon="6.82182">
        <time>2023-04-10T10:07:21+00:00</time>
        <ele>2714.0</ele>
      </trkpt>
      <trkpt lat="44.31535" lon="6.82182">
        <time>2023-04-10T10:07:22+00:00</time>
        <ele>2714.0</ele>
      </trkpt>
      <trkpt lat="44.31535" lon="6.82182">
        <time>2023-04-10T10:07:23+00:00</time>
        <ele>2714.0</ele>
      </trkpt>
      <trkpt lat="44.31535" lon="6.82182">
        <time>2023-04-10T10:07:24+00:00</time>
        <ele>2714.0</ele>
      </trkpt>
      <trkpt lat="44.31535" lon="6.82182">
        <time>2023-04-10T10:07:25+00:00</time>
        <ele>2714.0</ele>
      </trkpt>
      <trkpt lat="44.31535" lon="6.82182">
        <time>2023-04-10T10:07:26+00:00</time>
        <ele>2714.0</ele>
      </trkpt>
      <trkpt lat="44.31535" lon="6.82182">
        <time>2023-04-10T10:07:27+00:00</time>
        <ele>2714.0</ele>
      </trkpt>
      <trkpt lat="44.31535" lon="6.82182">
        <time>2023-04-10T10:07:28+00:00</time>
        <ele>2714.0</ele>
      </trkpt>
      <trkpt lat="44.31535" lon="6.82182">
        <time>2023-04-10T10:07:29+00:00</time>
        <ele>2714.0</ele>
      </trkpt>
      <trkpt lat="44.31535" lon="6.82182">
        <time>2023-04-10T10:07:30+00:00</time>
        <ele>2714.0</ele>
      </trkpt>
      <trkpt lat="44.31535" lon="6.82182">
        <time>2023-04-10T10:07:31+00:00</time>
        <ele>2714.0</ele>
      </trkpt>
      <trkpt lat="44.31535" lon="6.82182">
        <time>2023-04-10T10:07:32+00:00</time>
        <ele>2714.0</ele>
      </trkpt>
      <trkpt lat="44.31535" lon="6.82182">
        <time>2023-04-10T10:07:33+00:00</time>
        <ele>2714.0</ele>
      </trkpt>
      <trkpt lat="44.31535" lon="6.82182">
        <time>2023-04-10T10:07:34+00:00</time>
        <ele>2714.0</ele>
      </trkpt>
      <trkpt lat="44.31535" lon="6.82182">
        <time>2023-04-10T10:07:35+00:00</time>
        <ele>2714.0</ele>
      </trkpt>
      <trkpt lat="44.31535" lon="6.82182">
        <time>2023-04-10T10:07:36+00:00</time>
        <ele>2714.0</ele>
      </trkpt>
      <trkpt lat="44.31535" lon="6.82182">
        <time>2023-04-10T10:07:37+00:00</time>
        <ele>2714.0</ele>
      </trkpt>
      <trkpt lat="44.31535" lon="6.82182">
        <time>2023-04-10T10:07:38+00:00</time>
        <ele>2714.0</ele>
      </trkpt>
      <trkpt lat="44.31535" lon="6.82182">
        <time>2023-04-10T10:07:39+00:00</time>
        <ele>2714.0</ele>
      </trkpt>
      <trkpt lat="44.31535" lon="6.82182">
        <time>2023-04-10T10:07:40+00:00</time>
        <ele>2714.0</ele>
      </trkpt>
      <trkpt lat="44.31535" lon="6.82182">
        <time>2023-04-10T10:07:41+00:00</time>
        <ele>2714.0</ele>
      </trkpt>
      <trkpt lat="44.31535" lon="6.82182">
        <time>2023-04-10T10:07:42+00:00</time>
        <ele>2714.0</ele>
      </trkpt>
      <trkpt lat="44.31535" lon="6.82182">
        <time>2023-04-10T10:07:43+00:00</time>
        <ele>2714.0</ele>
      </trkpt>
      <trkpt lat="44.31535" lon="6.82182">
        <time>2023-04-10T10:07:44+00:00</time>
        <ele>2714.0</ele>
      </trkpt>
      <trkpt lat="44.31535" lon="6.82182">
        <time>2023-04-10T10:07:45+00:00</time>
        <ele>2714.0</ele>
      </trkpt>
      <trkpt lat="44.31535" lon="6.82182">
        <time>2023-04-10T10:07:46+00:00</time>
        <ele>2714.0</ele>
      </trkpt>
      <trkpt lat="44.31535" lon="6.82182">
        <time>2023-04-10T10:07:47+00:00</time>
        <ele>2714.0</ele>
      </trkpt>
      <trkpt lat="44.31535" lon="6.82182">
        <time>2023-04-10T10:07:48+00:00</time>
        <ele>2714.0</ele>
      </trkpt>
      <trkpt lat="44.31535" lon="6.82182">
        <time>2023-04-10T10:07:49+00:00</time>
        <ele>2714.0</ele>
      </trkpt>
      <trkpt lat="44.31535" lon="6.82182">
        <time>2023-04-10T10:07:50+00:00</time>
        <ele>2714.0</ele>
      </trkpt>
      <trkpt lat="44.31535" lon="6.82182">
        <time>2023-04-10T10:07:51+00:00</time>
        <ele>2714.0</ele>
      </trkpt>
      <trkpt lat="44.31535" lon="6.82182">
        <time>2023-04-10T10:07:52+00:00</time>
        <ele>2714.0</ele>
      </trkpt>
      <trkpt lat="44.31535" lon="6.82182">
        <time>2023-04-10T10:07:53+00:00</time>
        <ele>2714.0</ele>
      </trkpt>
      <trkpt lat="44.31535" lon="6.82182">
        <time>2023-04-10T10:07:54+00:00</time>
        <ele>2714.0</ele>
      </trkpt>
      <trkpt lat="44.31535" lon="6.82182">
        <time>2023-04-10T10:07:55+00:00</time>
        <ele>2714.0</ele>
      </trkpt>
      <trkpt lat="44.31535" lon="6.82182">
        <time>2023-04-10T10:07:56+00:00</time>
        <ele>2714.0</ele>
      </trkpt>
      <trkpt lat="44.31535" lon="6.82182">
        <time>2023-04-10T10:07:57+00:00</time>
        <ele>2714.0</ele>
      </trkpt>
      <trkpt lat="44.31535" lon="6.82182">
        <time>2023-04-10T10:07:58+00:00</time>
        <ele>2714.0</ele>
      </trkpt>
      <trkpt lat="44.31535" lon="6.82182">
        <time>2023-04-10T10:07:59+00:00</time>
        <ele>2714.0</ele>
      </trkpt>
      <trkpt lat="44.31535" lon="6.82182">
        <time>2023-04-10T10:08:00+00:00</time>
        <ele>2714.0</ele>
      </trkpt>
      <trkpt lat="44.31535" lon="6.82182">
        <time>2023-04-10T10:08:01+00:00</time>
        <ele>2714.0</ele>
      </trkpt>
      <trkpt lat="44.31535" lon="6.82182">
        <time>2023-04-10T10:08:02+00:00</time>
        <ele>2714.0</ele>
      </trkpt>
      <trkpt lat="44.31535" lon="6.82182">
        <time>2023-04-10T10:08:03+00:00</time>
        <ele>2714.0</ele>
      </trkpt>
      <trkpt lat="44.31535" lon="6.82182">
        <time>2023-04-10T10:08:04+00:00</time>
        <ele>2714.0</ele>
      </trkpt>
      <trkpt lat="44.31535" lon="6.82182">
        <time>2023-04-10T10:08:05+00:00</time>
        <ele>2714.0</ele>
      </trkpt>
      <trkpt lat="44.31535" lon="6.82182">
        <time>2023-04-10T10:08:06+00:00</time>
        <ele>2714.0</ele>
      </trkpt>
      <trkpt lat="44.31535" lon="6.82182">
        <time>2023-04-10T10:08:07+00:00</time>
        <ele>2714.0</ele>
      </trkpt>
      <trkpt lat="44.31535" lon="6.82182">
        <time>2023-04-10T10:08:08+00:00</time>
        <ele>2714.0</ele>
      </trkpt>
      <trkpt lat="44.31535" lon="6.82182">
        <time>2023-04-10T10:08:09+00:00</time>
        <ele>2714.0</ele>
      </trkpt>
      <trkpt lat="44.31535" lon="6.82182">
        <time>2023-04-10T10:08:10+00:00</time>
        <ele>2714.0</ele>
      </trkpt>
      <trkpt lat="44.31535" lon="6.82182">
        <time>2023-04-10T10:08:11+00:00</time>
        <ele>2714.0</ele>
      </trkpt>
      <trkpt lat="44.31535" lon="6.82182">
        <time>2023-04-10T10:08:12+00:00</time>
        <ele>2714.0</ele>
      </trkpt>
      <trkpt lat="44.31535" lon="6.82182">
        <time>2023-04-10T10:08:13+00:00</time>
        <ele>2714.0</ele>
      </trkpt>
      <trkpt lat="44.31535" lon="6.82182">
        <time>2023-04-10T10:08:14+00:00</time>
        <ele>2714.0</ele>
      </trkpt>
      <trkpt lat="44.31535" lon="6.82182">
        <time>2023-04-10T10:08:15+00:00</time>
        <ele>2714.0</ele>
      </trkpt>
      <trkpt lat="44.31535" lon="6.82182">
        <time>2023-04-10T10:08:16+00:00</time>
        <ele>2714.0</ele>
      </trkpt>
      <trkpt lat="44.31535" lon="6.82182">
        <time>2023-04-10T10:08:17+00:00</time>
        <ele>2714.0</ele>
      </trkpt>
      <trkpt lat="44.31535" lon="6.82182">
        <time>2023-04-10T10:08:18+00:00</time>
        <ele>2714.0</ele>
      </trkpt>
      <trkpt lat="44.31535" lon="6.82182">
        <time>2023-04-10T10:08:19+00:00</time>
        <ele>2714.0</ele>
      </trkpt>
      <trkpt lat="44.31535" lon="6.82182">
        <time>2023-04-10T10:08:20+00:00</time>
        <ele>2714.0</ele>
      </trkpt>
      <trkpt lat="44.31535" lon="6.82182">
        <time>2023-04-10T10:08:21+00:00</time>
        <ele>2714.0</ele>
      </trkpt>
      <trkpt lat="44.31535" lon="6.82182">
        <time>2023-04-10T10:08:22+00:00</time>
        <ele>2714.0</ele>
      </trkpt>
      <trkpt lat="44.31535" lon="6.82182">
        <time>2023-04-10T10:08:23+00:00</time>
        <ele>2714.0</ele>
      </trkpt>
      <trkpt lat="44.31535" lon="6.82182">
        <time>2023-04-10T10:08:24+00:00</time>
        <ele>2714.0</ele>
      </trkpt>
      <trkpt lat="44.31535" lon="6.82182">
        <time>2023-04-10T10:08:25+00:00</time>
        <ele>2714.0</ele>
      </trkpt>
      <trkpt lat="44.31535" lon="6.82182">
        <time>2023-04-10T10:08:26+00:00</time>
        <ele>2714.0</ele>
      </trkpt>
      <trkpt lat="44.31535" lon="6.82182">
        <time>2023-04-10T10:08:27+00:00</time>
        <ele>2714.0</ele>
      </trkpt>
      <trkpt lat="44.31535" lon="6.82182">
        <time>2023-04-10T10:08:28+00:00</time>
        <ele>2714.0</ele>
      </trkpt>
      <trkpt lat="44.31535" lon="6.82182">
        <time>2023-04-10T10:08:29+00:00</time>
        <ele>2714.0</ele>
      </trkpt>
      <trkpt lat="44.31535" lon="6.82182">
        <time>2023-04-10T10:08:30+00:00</time>
        <ele>2714.0</ele>
      </trkpt>
      <trkpt lat="44.31535" lon="6.82182">
        <time>2023-04-10T10:08:31+00:00</time>
        <ele>2714.0</ele>
      </trkpt>
      <trkpt lat="44.31535" lon="6.82182">
        <time>2023-04-10T10:08:32+00:00</time>
        <ele>2714.0</ele>
      </trkpt>
      <trkpt lat="44.31535" lon="6.82182">
        <time>2023-04-10T10:08:33+00:00</time>
        <ele>2714.0</ele>
      </trkpt>
      <trkpt lat="44.31535" lon="6.82182">
        <time>2023-04-10T10:08:34+00:00</time>
        <ele>2714.0</ele>
      </trkpt>
      <trkpt lat="44.31535" lon="6.82182">
        <time>2023-04-10T10:08:35+00:00</time>
        <ele>2714.0</ele>
      </trkpt>
      <trkpt lat="44.31535" lon="6.82182">
        <time>2023-04-10T10:08:36+00:00</time>
        <ele>2714.0</ele>
      </trkpt>
      <trkpt lat="44.31535" lon="6.82182">
        <time>2023-04-10T10:08:37+00:00</time>
        <ele>2714.0</ele>
      </trkpt>
      <trkpt lat="44.31535" lon="6.82182">
        <time>2023-04-10T10:08:38+00:00</time>
        <ele>2714.0</ele>
      </trkpt>
      <trkpt lat="44.31535" lon="6.82182">
        <time>2023-04-10T10:08:39+00:00</time>
        <ele>2714.0</ele>
      </trkpt>
      <trkpt lat="44.31535" lon="6.82182">
        <time>2023-04-10T10:08:40+00:00</time>
        <ele>2714.0</ele>
      </trkpt>
      <trkpt lat="44.31535" lon="6.82182">
        <time>2023-04-10T10:08:41+00:00</time>
        <ele>2714.0</ele>
      </trkpt>
      <trkpt lat="44.31535" lon="6.82182">
        <time>2023-04-10T10:08:42+00:00</time>
        <ele>2714.0</ele>
      </trkpt>
      <trkpt lat="44.31535" lon="6.82182">
        <time>2023-04-10T10:08:43+00:00</time>
        <ele>2714.0</ele>
      </trkpt>
      <trkpt lat="44.31535" lon="6.82182">
        <time>2023-04-10T10:08:44+00:00</time>
        <ele>2714.0</ele>
      </trkpt>
      <trkpt lat="44.31535" lon="6.82182">
        <time>2023-04-10T10:08:45+00:00</time>
        <ele>2714.0</ele>
      </trkpt>
      <trkpt lat="44.31535" lon="6.82182">
        <time>2023-04-10T10:08:46+00:00</time>
        <ele>2714.0</ele>
      </trkpt>
      <trkpt lat="44.31535" lon="6.82182">
        <time>2023-04-10T10:08:47+00:00</time>
        <ele>2714.0</ele>
      </trkpt>
      <trkpt lat="44.31535" lon="6.82182">
        <time>2023-04-10T10:08:48+00:00</time>
        <ele>2714.0</ele>
      </trkpt>
      <trkpt lat="44.31535" lon="6.82182">
        <time>2023-04-10T10:08:49+00:00</time>
        <ele>2714.0</ele>
      </trkpt>
      <trkpt lat="44.31535" lon="6.82182">
        <time>2023-04-10T10:08:50+00:00</time>
        <ele>2714.0</ele>
      </trkpt>
      <trkpt lat="44.31535" lon="6.82182">
        <time>2023-04-10T10:08:51+00:00</time>
        <ele>2714.0</ele>
      </trkpt>
      <trkpt lat="44.31535" lon="6.82182">
        <time>2023-04-10T10:08:52+00:00</time>
        <ele>2714.0</ele>
      </trkpt>
      <trkpt lat="44.31535" lon="6.82182">
        <time>2023-04-10T10:08:53+00:00</time>
        <ele>2714.0</ele>
      </trkpt>
      <trkpt lat="44.31535" lon="6.82182">
        <time>2023-04-10T10:08:54+00:00</time>
        <ele>2714.0</ele>
      </trkpt>
      <trkpt lat="44.31535" lon="6.82182">
        <time>2023-04-10T10:08:55+00:00</time>
        <ele>2714.0</ele>
      </trkpt>
      <trkpt lat="44.31535" lon="6.82182">
        <time>2023-04-10T10:08:56+00:00</time>
        <ele>2714.0</ele>
      </trkpt>
      <trkpt lat="44.31535" lon="6.82182">
        <time>2023-04-10T10:08:57+00:00</time>
        <ele>2714.0</ele>
      </trkpt>
      <trkpt lat="44.31535" lon="6.82182">
        <time>2023-04-10T10:08:58+00:00</time>
        <ele>2714.0</ele>
      </trkpt>
      <trkpt lat="44.31535" lon="6.82182">
        <time>2023-04-10T10:08:59+00:00</time>
        <ele>2714.0</ele>
      </trkpt>
      <trkpt lat="44.31535" lon="6.82182">
        <time>2023-04-10T10:09:00+00:00</time>
        <ele>2714.0</ele>
      </trkpt>
      <trkpt lat="44.31535" lon="6.82182">
        <time>2023-04-10T10:09:01+00:00</time>
        <ele>2714.0</ele>
      </trkpt>
      <trkpt lat="44.31535" lon="6.82182">
        <time>2023-04-10T10:09:02+00:00</time>
        <ele>2714.0</ele>
      </trkpt>
      <trkpt lat="44.31535" lon="6.82182">
        <time>2023-04-10T10:09:03+00:00</time>
        <ele>2714.0</ele>
      </trkpt>
      <trkpt lat="44.31535" lon="6.82182">
        <time>2023-04-10T10:09:04+00:00</time>
        <ele>2714.0</ele>
      </trkpt>
      <trkpt lat="44.31535" lon="6.82182">
        <time>2023-04-10T10:09:05+00:00</time>
        <ele>2714.0</ele>
      </trkpt>
      <trkpt lat="44.31535" lon="6.82182">
        <time>2023-04-10T10:09:06+00:00</time>
        <ele>2714.0</ele>
      </trkpt>
      <trkpt lat="44.31535" lon="6.82182">
        <time>2023-04-10T10:09:07+00:00</time>
        <ele>2714.0</ele>
      </trkpt>
      <trkpt lat="44.31535" lon="6.82182">
        <time>2023-04-10T10:09:08+00:00</time>
        <ele>2714.0</ele>
      </trkpt>
      <trkpt lat="44.31535" lon="6.82182">
        <time>2023-04-10T10:09:09+00:00</time>
        <ele>2714.0</ele>
      </trkpt>
      <trkpt lat="44.31535" lon="6.82182">
        <time>2023-04-10T10:09:10+00:00</time>
        <ele>2714.0</ele>
      </trkpt>
      <trkpt lat="44.31535" lon="6.82182">
        <time>2023-04-10T10:09:11+00:00</time>
        <ele>2714.0</ele>
      </trkpt>
      <trkpt lat="44.31535" lon="6.82182">
        <time>2023-04-10T10:09:12+00:00</time>
        <ele>2714.0</ele>
      </trkpt>
      <trkpt lat="44.31535" lon="6.82182">
        <time>2023-04-10T10:09:13+00:00</time>
        <ele>2714.0</ele>
      </trkpt>
      <trkpt lat="44.31535" lon="6.82182">
        <time>2023-04-10T10:09:14+00:00</time>
        <ele>2714.0</ele>
      </trkpt>
      <trkpt lat="44.31535" lon="6.82182">
        <time>2023-04-10T10:09:15+00:00</time>
        <ele>2714.0</ele>
      </trkpt>
      <trkpt lat="44.31535" lon="6.82182">
        <time>2023-04-10T10:09:16+00:00</time>
        <ele>2714.0</ele>
      </trkpt>
      <trkpt lat="44.31535" lon="6.82182">
        <time>2023-04-10T10:09:17+00:00</time>
        <ele>2714.0</ele>
      </trkpt>
      <trkpt lat="44.31535" lon="6.82182">
        <time>2023-04-10T10:09:18+00:00</time>
        <ele>2714.0</ele>
      </trkpt>
      <trkpt lat="44.31535" lon="6.82182">
        <time>2023-04-10T10:09:19+00:00</time>
        <ele>2714.0</ele>
      </trkpt>
      <trkpt lat="44.31535" lon="6.82182">
        <time>2023-04-10T10:09:20+00:00</time>
        <ele>2714.0</ele>
      </trkpt>
      <trkpt lat="44.31535" lon="6.82182">
        <time>2023-04-10T10:09:21+00:00</time>
        <ele>2714.0</ele>
      </trkpt>
      <trkpt lat="44.31535" lon="6.82182">
        <time>2023-04-10T10:09:22+00:00</time>
        <ele>2714.0</ele>
      </trkpt>
      <trkpt lat="44.31535" lon="6.82182">
        <time>2023-04-10T10:09:23+00:00</time>
        <ele>2714.0</ele>
      </trkpt>
      <trkpt lat="44.31535" lon="6.82182">
        <time>2023-04-10T10:09:24+00:00</time>
        <ele>2714.0</ele>
      </trkpt>
      <trkpt lat="44.31535" lon="6.82182">
        <time>2023-04-10T10:09:25+00:00</time>
        <ele>2714.0</ele>
      </trkpt>
      <trkpt lat="44.31535" lon="6.82182">
        <time>2023-04-10T10:09:26+00:00</time>
        <ele>2714.0</ele>
      </trkpt>
      <trkpt lat="44.31535" lon="6.82182">
        <time>2023-04-10T10:09:27+00:00</time>
        <ele>2714.0</ele>
      </trkpt>
      <trkpt lat="44.31535" lon="6.82182">
        <time>2023-04-10T10:09:28+00:00</time>
        <ele>2714.0</ele>
      </trkpt>
      <trkpt lat="44.31535" lon="6.82182">
        <time>2023-04-10T10:09:29+00:00</time>
        <ele>2714.0</ele>
      </trkpt>
      <trkpt lat="44.31535" lon="6.82182">
        <time>2023-04-10T10:09:30+00:00</time>
        <ele>2714.0</ele>
      </trkpt>
      <trkpt lat="44.31535" lon="6.82182">
        <time>2023-04-10T10:09:31+00:00</time>
        <ele>2714.0</ele>
      </trkpt>
      <trkpt lat="44.31535" lon="6.82182">
        <time>2023-04-10T10:09:32+00:00</time>
        <ele>2714.0</ele>
      </trkpt>
      <trkpt lat="44.31535" lon="6.82182">
        <time>2023-04-10T10:09:33+00:00</time>
        <ele>2714.0</ele>
      </trkpt>
      <trkpt lat="44.31535" lon="6.82182">
        <time>2023-04-10T10:09:34+00:00</time>
        <ele>2714.0</ele>
      </trkpt>
      <trkpt lat="44.31535" lon="6.82182">
        <time>2023-04-10T10:09:35+00:00</time>
        <ele>2714.0</ele>
      </trkpt>
      <trkpt lat="44.31535" lon="6.82182">
        <time>2023-04-10T10:09:36+00:00</time>
        <ele>2714.0</ele>
      </trkpt>
      <trkpt lat="44.31535" lon="6.82182">
        <time>2023-04-10T10:09:37+00:00</time>
        <ele>2714.0</ele>
      </trkpt>
      <trkpt lat="44.31535" lon="6.82182">
        <time>2023-04-10T10:09:38+00:00</time>
        <ele>2714.0</ele>
      </trkpt>
      <trkpt lat="44.31535" lon="6.82182">
        <time>2023-04-10T10:09:39+00:00</time>
        <ele>2714.0</ele>
      </trkpt>
      <trkpt lat="44.31535" lon="6.82182">
        <time>2023-04-10T10:09:40+00:00</time>
        <ele>2714.0</ele>
      </trkpt>
      <trkpt lat="44.31535" lon="6.82182">
        <time>2023-04-10T10:09:41+00:00</time>
        <ele>2714.0</ele>
      </trkpt>
      <trkpt lat="44.31535" lon="6.82182">
        <time>2023-04-10T10:09:42+00:00</time>
        <ele>2714.0</ele>
      </trkpt>
      <trkpt lat="44.31535" lon="6.82182">
        <time>2023-04-10T10:09:43+00:00</time>
        <ele>2714.0</ele>
      </trkpt>
      <trkpt lat="44.31535" lon="6.82182">
        <time>2023-04-10T10:09:44+00:00</time>
        <ele>2714.0</ele>
      </trkpt>
      <trkpt lat="44.31535" lon="6.82182">
        <time>2023-04-10T10:09:45+00:00</time>
        <ele>2714.0</ele>
      </trkpt>
      <trkpt lat="44.31535" lon="6.82182">
        <time>2023-04-10T10:09:46+00:00</time>
        <ele>2714.0</ele>
      </trkpt>
      <trkpt lat="44.31535" lon="6.82182">
        <time>2023-04-10T10:09:47+00:00</time>
        <ele>2714.0</ele>
      </trkpt>
      <trkpt lat="44.31535" lon="6.82182">
        <time>2023-04-10T10:09:48+00:00</time>
        <ele>2714.0</ele>
      </trkpt>
      <trkpt lat="44.31535" lon="6.82182">
        <time>2023-04-10T10:09:49+00:00</time>
        <ele>2714.0</ele>
      </trkpt>
      <trkpt lat="44.31535" lon="6.82182">
        <time>2023-04-10T10:09:50+00:00</time>
        <ele>2714.0</ele>
      </trkpt>
      <trkpt lat="44.31535" lon="6.82182">
        <time>2023-04-10T10:09:51+00:00</time>
        <ele>2714.0</ele>
      </trkpt>
      <trkpt lat="44.31535" lon="6.82182">
        <time>2023-04-10T10:09:52+00:00</time>
        <ele>2714.0</ele>
      </trkpt>
      <trkpt lat="44.31535" lon="6.82182">
        <time>2023-04-10T10:09:53+00:00</time>
        <ele>2714.0</ele>
      </trkpt>
      <trkpt lat="44.31535" lon="6.82182">
        <time>2023-04-10T10:09:54+00:00</time>
        <ele>2714.0</ele>
      </trkpt>
      <trkpt lat="44.31535" lon="6.82182">
        <time>2023-04-10T10:09:55+00:00</time>
        <ele>2714.0</ele>
      </trkpt>
      <trkpt lat="44.31535" lon="6.82182">
        <time>2023-04-10T10:09:56+00:00</time>
        <ele>2714.0</ele>
      </trkpt>
      <trkpt lat="44.31535" lon="6.82182">
        <time>2023-04-10T10:09:57+00:00</time>
        <ele>2714.0</ele>
      </trkpt>
      <trkpt lat="44.31535" lon="6.82182">
        <time>2023-04-10T10:09:58+00:00</time>
        <ele>2714.0</ele>
      </trkpt>
      <trkpt lat="44.31535" lon="6.82182">
        <time>2023-04-10T10:09:59+00:00</time>
        <ele>2714.0</ele>
      </trkpt>
      <trkpt lat="44.31535" lon="6.82182">
        <time>2023-04-10T10:10:02+00:00</time>
        <ele>2714.0</ele>
      </trkpt>
      <trkpt lat="44.31535" lon="6.82182">
        <time>2023-04-10T10:10:03+00:00</time>
        <ele>2714.0</ele>
      </trkpt>
      <trkpt lat="44.31535" lon="6.82182">
        <time>2023-04-10T10:10:04+00:00</time>
        <ele>2714.0</ele>
      </trkpt>
      <trkpt lat="44.31535" lon="6.82182">
        <time>2023-04-10T10:10:05+00:00</time>
        <ele>2714.0</ele>
      </trkpt>
      <trkpt lat="44.31535" lon="6.82182">
        <time>2023-04-10T10:10:06+00:00</time>
        <ele>2714.0</ele>
      </trkpt>
      <trkpt lat="44.31535" lon="6.82182">
        <time>2023-04-10T10:10:07+00:00</time>
        <ele>2714.0</ele>
      </trkpt>
      <trkpt lat="44.31535" lon="6.82182">
        <time>2023-04-10T10:10:08+00:00</time>
        <ele>2714.0</ele>
      </trkpt>
      <trkpt lat="44.31535" lon="6.82182">
        <time>2023-04-10T10:10:09+00:00</time>
        <ele>2714.0</ele>
      </trkpt>
      <trkpt lat="44.31535" lon="6.82182">
        <time>2023-04-10T10:10:10+00:00</time>
        <ele>2714.0</ele>
      </trkpt>
      <trkpt lat="44.31535" lon="6.82182">
        <time>2023-04-10T10:10:11+00:00</time>
        <ele>2714.0</ele>
      </trkpt>
      <trkpt lat="44.31535" lon="6.82182">
        <time>2023-04-10T10:10:12+00:00</time>
        <ele>2714.0</ele>
      </trkpt>
      <trkpt lat="44.31535" lon="6.82182">
        <time>2023-04-10T10:10:13+00:00</time>
        <ele>2714.0</ele>
      </trkpt>
      <trkpt lat="44.31535" lon="6.82182">
        <time>2023-04-10T10:10:14+00:00</time>
        <ele>2714.0</ele>
      </trkpt>
      <trkpt lat="44.31535" lon="6.82182">
        <time>2023-04-10T10:10:15+00:00</time>
        <ele>2714.0</ele>
      </trkpt>
      <trkpt lat="44.31535" lon="6.82182">
        <time>2023-04-10T10:10:16+00:00</time>
        <ele>2714.0</ele>
      </trkpt>
      <trkpt lat="44.31535" lon="6.82182">
        <time>2023-04-10T10:10:17+00:00</time>
        <ele>2714.0</ele>
      </trkpt>
      <trkpt lat="44.31535" lon="6.82182">
        <time>2023-04-10T10:10:18+00:00</time>
        <ele>2714.0</ele>
      </trkpt>
      <trkpt lat="44.31535" lon="6.82182">
        <time>2023-04-10T10:10:19+00:00</time>
        <ele>2714.0</ele>
      </trkpt>
      <trkpt lat="44.31535" lon="6.82182">
        <time>2023-04-10T10:10:20+00:00</time>
        <ele>2714.0</ele>
      </trkpt>
      <trkpt lat="44.31535" lon="6.82182">
        <time>2023-04-10T10:10:21+00:00</time>
        <ele>2714.0</ele>
      </trkpt>
      <trkpt lat="44.31535" lon="6.82182">
        <time>2023-04-10T10:10:22+00:00</time>
        <ele>2714.0</ele>
      </trkpt>
      <trkpt lat="44.31535" lon="6.82182">
        <time>2023-04-10T10:10:24+00:00</time>
        <ele>2714.0</ele>
      </trkpt>
      <trkpt lat="44.31535" lon="6.82182">
        <time>2023-04-10T10:10:25+00:00</time>
        <ele>2714.0</ele>
      </trkpt>
      <trkpt lat="44.31535" lon="6.82182">
        <time>2023-04-10T10:10:26+00:00</time>
        <ele>2714.0</ele>
      </trkpt>
      <trkpt lat="44.31535" lon="6.82182">
        <time>2023-04-10T10:10:27+00:00</time>
        <ele>2714.0</ele>
      </trkpt>
      <trkpt lat="44.31535" lon="6.82182">
        <time>2023-04-10T10:10:28+00:00</time>
        <ele>2714.0</ele>
      </trkpt>
      <trkpt lat="44.31535" lon="6.82182">
        <time>2023-04-10T10:10:29+00:00</time>
        <ele>2714.0</ele>
      </trkpt>
      <trkpt lat="44.31535" lon="6.82182">
        <time>2023-04-10T10:10:30+00:00</time>
        <ele>2714.0</ele>
      </trkpt>
      <trkpt lat="44.31535" lon="6.82182">
        <time>2023-04-10T10:10:31+00:00</time>
        <ele>2714.0</ele>
      </trkpt>
      <trkpt lat="44.31535" lon="6.82182">
        <time>2023-04-10T10:10:32+00:00</time>
        <ele>2714.0</ele>
      </trkpt>
      <trkpt lat="44.31535" lon="6.82182">
        <time>2023-04-10T10:10:33+00:00</time>
        <ele>2714.0</ele>
      </trkpt>
      <trkpt lat="44.31535" lon="6.82182">
        <time>2023-04-10T10:10:34+00:00</time>
        <ele>2714.0</ele>
      </trkpt>
      <trkpt lat="44.31535" lon="6.82182">
        <time>2023-04-10T10:10:35+00:00</time>
        <ele>2714.0</ele>
      </trkpt>
      <trkpt lat="44.31535" lon="6.82182">
        <time>2023-04-10T10:10:36+00:00</time>
        <ele>2714.0</ele>
      </trkpt>
      <trkpt lat="44.31535" lon="6.82182">
        <time>2023-04-10T10:10:37+00:00</time>
        <ele>2714.0</ele>
      </trkpt>
      <trkpt lat="44.31535" lon="6.82182">
        <time>2023-04-10T10:10:38+00:00</time>
        <ele>2714.0</ele>
      </trkpt>
      <trkpt lat="44.31535" lon="6.82182">
        <time>2023-04-10T10:10:39+00:00</time>
        <ele>2714.0</ele>
      </trkpt>
      <trkpt lat="44.31535" lon="6.82182">
        <time>2023-04-10T10:10:40+00:00</time>
        <ele>2714.0</ele>
      </trkpt>
      <trkpt lat="44.31535" lon="6.82182">
        <time>2023-04-10T10:10:41+00:00</time>
        <ele>2714.0</ele>
      </trkpt>
      <trkpt lat="44.31535" lon="6.82182">
        <time>2023-04-10T10:10:42+00:00</time>
        <ele>2714.0</ele>
      </trkpt>
      <trkpt lat="44.31535" lon="6.82182">
        <time>2023-04-10T10:10:43+00:00</time>
        <ele>2714.0</ele>
      </trkpt>
      <trkpt lat="44.31535" lon="6.82182">
        <time>2023-04-10T10:10:44+00:00</time>
        <ele>2714.0</ele>
      </trkpt>
      <trkpt lat="44.31535" lon="6.82182">
        <time>2023-04-10T10:10:45+00:00</time>
        <ele>2714.0</ele>
      </trkpt>
      <trkpt lat="44.31535" lon="6.82182">
        <time>2023-04-10T10:10:46+00:00</time>
        <ele>2714.0</ele>
      </trkpt>
      <trkpt lat="44.31535" lon="6.82182">
        <time>2023-04-10T10:10:47+00:00</time>
        <ele>2714.0</ele>
      </trkpt>
      <trkpt lat="44.31535" lon="6.82182">
        <time>2023-04-10T10:10:48+00:00</time>
        <ele>2714.0</ele>
      </trkpt>
      <trkpt lat="44.31535" lon="6.82182">
        <time>2023-04-10T10:10:49+00:00</time>
        <ele>2714.0</ele>
      </trkpt>
      <trkpt lat="44.31535" lon="6.82182">
        <time>2023-04-10T10:10:50+00:00</time>
        <ele>2714.0</ele>
      </trkpt>
      <trkpt lat="44.31535" lon="6.82182">
        <time>2023-04-10T10:10:51+00:00</time>
        <ele>2714.0</ele>
      </trkpt>
      <trkpt lat="44.31535" lon="6.82182">
        <time>2023-04-10T10:10:52+00:00</time>
        <ele>2714.0</ele>
      </trkpt>
      <trkpt lat="44.31535" lon="6.82182">
        <time>2023-04-10T10:10:53+00:00</time>
        <ele>2714.0</ele>
      </trkpt>
      <trkpt lat="44.31535" lon="6.82182">
        <time>2023-04-10T10:10:54+00:00</time>
        <ele>2714.0</ele>
      </trkpt>
      <trkpt lat="44.31535" lon="6.82182">
        <time>2023-04-10T10:10:55+00:00</time>
        <ele>2714.0</ele>
      </trkpt>
      <trkpt lat="44.31535" lon="6.82182">
        <time>2023-04-10T10:10:56+00:00</time>
        <ele>2714.0</ele>
      </trkpt>
      <trkpt lat="44.31535" lon="6.82182">
        <time>2023-04-10T10:10:57+00:00</time>
        <ele>2714.0</ele>
      </trkpt>
      <trkpt lat="44.31535" lon="6.82182">
        <time>2023-04-10T10:10:58+00:00</time>
        <ele>2714.0</ele>
      </trkpt>
      <trkpt lat="44.31535" lon="6.82182">
        <time>2023-04-10T10:10:59+00:00</time>
        <ele>2714.0</ele>
      </trkpt>
      <trkpt lat="44.31535" lon="6.82182">
        <time>2023-04-10T10:11:00+00:00</time>
        <ele>2714.0</ele>
      </trkpt>
      <trkpt lat="44.31535" lon="6.82182">
        <time>2023-04-10T10:11:01+00:00</time>
        <ele>2714.0</ele>
      </trkpt>
      <trkpt lat="44.31535" lon="6.82182">
        <time>2023-04-10T10:11:02+00:00</time>
        <ele>2714.0</ele>
      </trkpt>
      <trkpt lat="44.31535" lon="6.82182">
        <time>2023-04-10T10:11:03+00:00</time>
        <ele>2714.0</ele>
      </trkpt>
      <trkpt lat="44.31535" lon="6.82182">
        <time>2023-04-10T10:11:04+00:00</time>
        <ele>2714.0</ele>
      </trkpt>
      <trkpt lat="44.31535" lon="6.82182">
        <time>2023-04-10T10:11:05+00:00</time>
        <ele>2714.0</ele>
      </trkpt>
      <trkpt lat="44.31535" lon="6.82182">
        <time>2023-04-10T10:11:06+00:00</time>
        <ele>2714.0</ele>
      </trkpt>
      <trkpt lat="44.31535" lon="6.82182">
        <time>2023-04-10T10:11:07+00:00</time>
        <ele>2714.0</ele>
      </trkpt>
      <trkpt lat="44.31535" lon="6.82182">
        <time>2023-04-10T10:11:08+00:00</time>
        <ele>2714.0</ele>
      </trkpt>
      <trkpt lat="44.31535" lon="6.82182">
        <time>2023-04-10T10:11:09+00:00</time>
        <ele>2714.0</ele>
      </trkpt>
      <trkpt lat="44.31535" lon="6.82182">
        <time>2023-04-10T10:11:10+00:00</time>
        <ele>2714.0</ele>
      </trkpt>
      <trkpt lat="44.31535" lon="6.82182">
        <time>2023-04-10T10:11:11+00:00</time>
        <ele>2714.0</ele>
      </trkpt>
      <trkpt lat="44.31535" lon="6.82182">
        <time>2023-04-10T10:11:12+00:00</time>
        <ele>2714.0</ele>
      </trkpt>
      <trkpt lat="44.31535" lon="6.82182">
        <time>2023-04-10T10:11:13+00:00</time>
        <ele>2714.0</ele>
      </trkpt>
      <trkpt lat="44.31535" lon="6.82182">
        <time>2023-04-10T10:11:14+00:00</time>
        <ele>2714.0</ele>
      </trkpt>
      <trkpt lat="44.31535" lon="6.82182">
        <time>2023-04-10T10:11:15+00:00</time>
        <ele>2714.0</ele>
      </trkpt>
      <trkpt lat="44.31535" lon="6.82182">
        <time>2023-04-10T10:11:16+00:00</time>
        <ele>2714.0</ele>
      </trkpt>
      <trkpt lat="44.31535" lon="6.82182">
        <time>2023-04-10T10:11:17+00:00</time>
        <ele>2714.0</ele>
      </trkpt>
      <trkpt lat="44.31535" lon="6.82182">
        <time>2023-04-10T10:11:18+00:00</time>
        <ele>2714.0</ele>
      </trkpt>
      <trkpt lat="44.31535" lon="6.82182">
        <time>2023-04-10T10:11:19+00:00</time>
        <ele>2714.0</ele>
      </trkpt>
      <trkpt lat="44.31535" lon="6.82182">
        <time>2023-04-10T10:11:20+00:00</time>
        <ele>2714.0</ele>
      </trkpt>
      <trkpt lat="44.31535" lon="6.82182">
        <time>2023-04-10T10:11:21+00:00</time>
        <ele>2714.0</ele>
      </trkpt>
      <trkpt lat="44.31535" lon="6.82182">
        <time>2023-04-10T10:11:22+00:00</time>
        <ele>2714.0</ele>
      </trkpt>
      <trkpt lat="44.31535" lon="6.82182">
        <time>2023-04-10T10:11:23+00:00</time>
        <ele>2714.0</ele>
      </trkpt>
      <trkpt lat="44.31535" lon="6.82182">
        <time>2023-04-10T10:11:24+00:00</time>
        <ele>2714.0</ele>
      </trkpt>
      <trkpt lat="44.31535" lon="6.82182">
        <time>2023-04-10T10:11:25+00:00</time>
        <ele>2714.0</ele>
      </trkpt>
      <trkpt lat="44.31535" lon="6.82182">
        <time>2023-04-10T10:11:26+00:00</time>
        <ele>2714.0</ele>
      </trkpt>
      <trkpt lat="44.31535" lon="6.82182">
        <time>2023-04-10T10:11:27+00:00</time>
        <ele>2714.0</ele>
      </trkpt>
      <trkpt lat="44.31535" lon="6.82182">
        <time>2023-04-10T10:11:28+00:00</time>
        <ele>2714.0</ele>
      </trkpt>
      <trkpt lat="44.31535" lon="6.82182">
        <time>2023-04-10T10:11:29+00:00</time>
        <ele>2714.0</ele>
      </trkpt>
      <trkpt lat="44.31535" lon="6.82182">
        <time>2023-04-10T10:11:30+00:00</time>
        <ele>2714.0</ele>
      </trkpt>
      <trkpt lat="44.31535" lon="6.82182">
        <time>2023-04-10T10:11:31+00:00</time>
        <ele>2714.0</ele>
      </trkpt>
      <trkpt lat="44.31535" lon="6.82182">
        <time>2023-04-10T10:11:32+00:00</time>
        <ele>2714.0</ele>
      </trkpt>
      <trkpt lat="44.31535" lon="6.82182">
        <time>2023-04-10T10:11:33+00:00</time>
        <ele>2714.0</ele>
      </trkpt>
      <trkpt lat="44.31535" lon="6.82182">
        <time>2023-04-10T10:11:34+00:00</time>
        <ele>2714.0</ele>
      </trkpt>
      <trkpt lat="44.31535" lon="6.82182">
        <time>2023-04-10T10:11:35+00:00</time>
        <ele>2714.0</ele>
      </trkpt>
      <trkpt lat="44.31535" lon="6.82182">
        <time>2023-04-10T10:11:36+00:00</time>
        <ele>2714.0</ele>
      </trkpt>
      <trkpt lat="44.31535" lon="6.82182">
        <time>2023-04-10T10:11:37+00:00</time>
        <ele>2714.0</ele>
      </trkpt>
      <trkpt lat="44.31535" lon="6.82182">
        <time>2023-04-10T10:11:38+00:00</time>
        <ele>2714.0</ele>
      </trkpt>
      <trkpt lat="44.31535" lon="6.82182">
        <time>2023-04-10T10:11:39+00:00</time>
        <ele>2714.0</ele>
      </trkpt>
      <trkpt lat="44.31535" lon="6.82182">
        <time>2023-04-10T10:11:40+00:00</time>
        <ele>2714.0</ele>
      </trkpt>
      <trkpt lat="44.31535" lon="6.82182">
        <time>2023-04-10T10:11:41+00:00</time>
        <ele>2714.0</ele>
      </trkpt>
      <trkpt lat="44.31535" lon="6.82182">
        <time>2023-04-10T10:11:42+00:00</time>
        <ele>2714.0</ele>
      </trkpt>
      <trkpt lat="44.31535" lon="6.82182">
        <time>2023-04-10T10:11:43+00:00</time>
        <ele>2714.0</ele>
      </trkpt>
      <trkpt lat="44.31535" lon="6.82182">
        <time>2023-04-10T10:11:44+00:00</time>
        <ele>2714.0</ele>
      </trkpt>
      <trkpt lat="44.31535" lon="6.82182">
        <time>2023-04-10T10:11:45+00:00</time>
        <ele>2714.0</ele>
      </trkpt>
      <trkpt lat="44.31535" lon="6.82182">
        <time>2023-04-10T10:11:46+00:00</time>
        <ele>2714.0</ele>
      </trkpt>
      <trkpt lat="44.31535" lon="6.82182">
        <time>2023-04-10T10:11:47+00:00</time>
        <ele>2714.0</ele>
      </trkpt>
      <trkpt lat="44.31535" lon="6.82182">
        <time>2023-04-10T10:11:48+00:00</time>
        <ele>2714.0</ele>
      </trkpt>
      <trkpt lat="44.31535" lon="6.82182">
        <time>2023-04-10T10:11:49+00:00</time>
        <ele>2714.0</ele>
      </trkpt>
      <trkpt lat="44.31533" lon="6.82185">
        <time>2023-04-10T10:11:50+00:00</time>
        <ele>2714.0</ele>
      </trkpt>
      <trkpt lat="44.31533" lon="6.82185">
        <time>2023-04-10T10:11:51+00:00</time>
        <ele>2714.0</ele>
      </trkpt>
      <trkpt lat="44.31531" lon="6.82187">
        <time>2023-04-10T10:11:52+00:00</time>
        <ele>2714.0</ele>
      </trkpt>
      <trkpt lat="44.31531" lon="6.82187">
        <time>2023-04-10T10:11:53+00:00</time>
        <ele>2714.0</ele>
      </trkpt>
      <trkpt lat="44.31529" lon="6.8219">
        <time>2023-04-10T10:11:54+00:00</time>
        <ele>2714.0</ele>
      </trkpt>
      <trkpt lat="44.31529" lon="6.8219">
        <time>2023-04-10T10:11:55+00:00</time>
        <ele>2714.0</ele>
      </trkpt>
      <trkpt lat="44.31528" lon="6.82193">
        <time>2023-04-10T10:11:56+00:00</time>
        <ele>2714.0</ele>
      </trkpt>
      <trkpt lat="44.31528" lon="6.82193">
        <time>2023-04-10T10:11:57+00:00</time>
        <ele>2714.0</ele>
      </trkpt>
      <trkpt lat="44.31528" lon="6.82193">
        <time>2023-04-10T10:11:58+00:00</time>
        <ele>2714.0</ele>
      </trkpt>
      <trkpt lat="44.31528" lon="6.82193">
        <time>2023-04-10T10:11:59+00:00</time>
        <ele>2714.0</ele>
      </trkpt>
      <trkpt lat="44.31528" lon="6.82193">
        <time>2023-04-10T10:12:00+00:00</time>
        <ele>2714.0</ele>
      </trkpt>
      <trkpt lat="44.31528" lon="6.82193">
        <time>2023-04-10T10:12:01+00:00</time>
        <ele>2714.0</ele>
      </trkpt>
      <trkpt lat="44.31528" lon="6.82193">
        <time>2023-04-10T10:12:02+00:00</time>
        <ele>2714.0</ele>
      </trkpt>
      <trkpt lat="44.31528" lon="6.82193">
        <time>2023-04-10T10:12:03+00:00</time>
        <ele>2714.0</ele>
      </trkpt>
      <trkpt lat="44.31528" lon="6.82193">
        <time>2023-04-10T10:12:04+00:00</time>
        <ele>2714.0</ele>
      </trkpt>
      <trkpt lat="44.31528" lon="6.82193">
        <time>2023-04-10T10:12:05+00:00</time>
        <ele>2714.0</ele>
      </trkpt>
      <trkpt lat="44.31527" lon="6.82196">
        <time>2023-04-10T10:12:06+00:00</time>
        <ele>2713.0</ele>
      </trkpt>
      <trkpt lat="44.31527" lon="6.82196">
        <time>2023-04-10T10:12:07+00:00</time>
        <ele>2713.0</ele>
      </trkpt>
      <trkpt lat="44.31527" lon="6.82196">
        <time>2023-04-10T10:12:08+00:00</time>
        <ele>2713.0</ele>
      </trkpt>
      <trkpt lat="44.31527" lon="6.82196">
        <time>2023-04-10T10:12:09+00:00</time>
        <ele>2713.0</ele>
      </trkpt>
      <trkpt lat="44.31527" lon="6.82196">
        <time>2023-04-10T10:12:10+00:00</time>
        <ele>2713.0</ele>
      </trkpt>
      <trkpt lat="44.31527" lon="6.82196">
        <time>2023-04-10T10:12:11+00:00</time>
        <ele>2713.0</ele>
      </trkpt>
      <trkpt lat="44.31527" lon="6.82196">
        <time>2023-04-10T10:12:12+00:00</time>
        <ele>2713.0</ele>
      </trkpt>
      <trkpt lat="44.31527" lon="6.82196">
        <time>2023-04-10T10:12:13+00:00</time>
        <ele>2713.0</ele>
      </trkpt>
      <trkpt lat="44.31527" lon="6.82196">
        <time>2023-04-10T10:12:14+00:00</time>
        <ele>2713.0</ele>
      </trkpt>
      <trkpt lat="44.31527" lon="6.82196">
        <time>2023-04-10T10:12:15+00:00</time>
        <ele>2713.0</ele>
      </trkpt>
      <trkpt lat="44.31527" lon="6.82196">
        <time>2023-04-10T10:12:16+00:00</time>
        <ele>2713.0</ele>
      </trkpt>
      <trkpt lat="44.31527" lon="6.82196">
        <time>2023-04-10T10:12:17+00:00</time>
        <ele>2713.0</ele>
      </trkpt>
      <trkpt lat="44.31527" lon="6.82196">
        <time>2023-04-10T10:12:18+00:00</time>
        <ele>2713.0</ele>
      </trkpt>
      <trkpt lat="44.31527" lon="6.82196">
        <time>2023-04-10T10:12:19+00:00</time>
        <ele>2713.0</ele>
      </trkpt>
      <trkpt lat="44.31527" lon="6.82196">
        <time>2023-04-10T10:12:20+00:00</time>
        <ele>2713.0</ele>
      </trkpt>
      <trkpt lat="44.31527" lon="6.82196">
        <time>2023-04-10T10:12:21+00:00</time>
        <ele>2713.0</ele>
      </trkpt>
      <trkpt lat="44.31527" lon="6.82196">
        <time>2023-04-10T10:12:22+00:00</time>
        <ele>2713.0</ele>
      </trkpt>
      <trkpt lat="44.31527" lon="6.82196">
        <time>2023-04-10T10:12:23+00:00</time>
        <ele>2713.0</ele>
      </trkpt>
      <trkpt lat="44.31527" lon="6.82196">
        <time>2023-04-10T10:12:24+00:00</time>
        <ele>2713.0</ele>
      </trkpt>
      <trkpt lat="44.31527" lon="6.82196">
        <time>2023-04-10T10:12:25+00:00</time>
        <ele>2713.0</ele>
      </trkpt>
      <trkpt lat="44.31527" lon="6.82196">
        <time>2023-04-10T10:12:26+00:00</time>
        <ele>2713.0</ele>
      </trkpt>
      <trkpt lat="44.31527" lon="6.82196">
        <time>2023-04-10T10:12:27+00:00</time>
        <ele>2713.0</ele>
      </trkpt>
      <trkpt lat="44.31527" lon="6.82196">
        <time>2023-04-10T10:12:28+00:00</time>
        <ele>2713.0</ele>
      </trkpt>
      <trkpt lat="44.31527" lon="6.82196">
        <time>2023-04-10T10:12:29+00:00</time>
        <ele>2713.0</ele>
      </trkpt>
      <trkpt lat="44.31527" lon="6.82196">
        <time>2023-04-10T10:12:30+00:00</time>
        <ele>2713.0</ele>
      </trkpt>
      <trkpt lat="44.31527" lon="6.82196">
        <time>2023-04-10T10:12:31+00:00</time>
        <ele>2713.0</ele>
      </trkpt>
      <trkpt lat="44.31527" lon="6.82196">
        <time>2023-04-10T10:12:32+00:00</time>
        <ele>2713.0</ele>
      </trkpt>
      <trkpt lat="44.31527" lon="6.82196">
        <time>2023-04-10T10:12:33+00:00</time>
        <ele>2713.0</ele>
      </trkpt>
      <trkpt lat="44.31527" lon="6.82196">
        <time>2023-04-10T10:12:34+00:00</time>
        <ele>2713.0</ele>
      </trkpt>
      <trkpt lat="44.31527" lon="6.82196">
        <time>2023-04-10T10:12:35+00:00</time>
        <ele>2713.0</ele>
      </trkpt>
      <trkpt lat="44.31527" lon="6.82196">
        <time>2023-04-10T10:12:36+00:00</time>
        <ele>2713.0</ele>
      </trkpt>
      <trkpt lat="44.31527" lon="6.82196">
        <time>2023-04-10T10:12:37+00:00</time>
        <ele>2713.0</ele>
      </trkpt>
      <trkpt lat="44.31527" lon="6.82196">
        <time>2023-04-10T10:12:38+00:00</time>
        <ele>2713.0</ele>
      </trkpt>
      <trkpt lat="44.31527" lon="6.82196">
        <time>2023-04-10T10:12:39+00:00</time>
        <ele>2713.0</ele>
      </trkpt>
      <trkpt lat="44.31527" lon="6.82196">
        <time>2023-04-10T10:12:40+00:00</time>
        <ele>2713.0</ele>
      </trkpt>
      <trkpt lat="44.31527" lon="6.82196">
        <time>2023-04-10T10:12:41+00:00</time>
        <ele>2713.0</ele>
      </trkpt>
      <trkpt lat="44.31527" lon="6.82196">
        <time>2023-04-10T10:12:42+00:00</time>
        <ele>2713.0</ele>
      </trkpt>
      <trkpt lat="44.31527" lon="6.82196">
        <time>2023-04-10T10:12:43+00:00</time>
        <ele>2713.0</ele>
      </trkpt>
      <trkpt lat="44.31527" lon="6.82196">
        <time>2023-04-10T10:12:44+00:00</time>
        <ele>2713.0</ele>
      </trkpt>
      <trkpt lat="44.31527" lon="6.82196">
        <time>2023-04-10T10:12:45+00:00</time>
        <ele>2713.0</ele>
      </trkpt>
      <trkpt lat="44.31527" lon="6.82196">
        <time>2023-04-10T10:12:46+00:00</time>
        <ele>2713.0</ele>
      </trkpt>
      <trkpt lat="44.31527" lon="6.82196">
        <time>2023-04-10T10:12:47+00:00</time>
        <ele>2713.0</ele>
      </trkpt>
      <trkpt lat="44.31527" lon="6.82196">
        <time>2023-04-10T10:12:48+00:00</time>
        <ele>2713.0</ele>
      </trkpt>
      <trkpt lat="44.31527" lon="6.82196">
        <time>2023-04-10T10:12:49+00:00</time>
        <ele>2713.0</ele>
      </trkpt>
      <trkpt lat="44.31527" lon="6.82196">
        <time>2023-04-10T10:12:50+00:00</time>
        <ele>2713.0</ele>
      </trkpt>
      <trkpt lat="44.31527" lon="6.82196">
        <time>2023-04-10T10:12:51+00:00</time>
        <ele>2713.0</ele>
      </trkpt>
      <trkpt lat="44.31527" lon="6.82196">
        <time>2023-04-10T10:12:52+00:00</time>
        <ele>2713.0</ele>
      </trkpt>
      <trkpt lat="44.31527" lon="6.82196">
        <time>2023-04-10T10:12:53+00:00</time>
        <ele>2713.0</ele>
      </trkpt>
      <trkpt lat="44.31527" lon="6.82196">
        <time>2023-04-10T10:12:54+00:00</time>
        <ele>2713.0</ele>
      </trkpt>
      <trkpt lat="44.31527" lon="6.82196">
        <time>2023-04-10T10:12:55+00:00</time>
        <ele>2713.0</ele>
      </trkpt>
      <trkpt lat="44.31527" lon="6.82196">
        <time>2023-04-10T10:12:56+00:00</time>
        <ele>2713.0</ele>
      </trkpt>
      <trkpt lat="44.31527" lon="6.82196">
        <time>2023-04-10T10:12:57+00:00</time>
        <ele>2713.0</ele>
      </trkpt>
      <trkpt lat="44.31527" lon="6.82196">
        <time>2023-04-10T10:12:58+00:00</time>
        <ele>2713.0</ele>
      </trkpt>
      <trkpt lat="44.31527" lon="6.82196">
        <time>2023-04-10T10:12:59+00:00</time>
        <ele>2713.0</ele>
      </trkpt>
      <trkpt lat="44.31527" lon="6.82196">
        <time>2023-04-10T10:13:00+00:00</time>
        <ele>2713.0</ele>
      </trkpt>
      <trkpt lat="44.31527" lon="6.82196">
        <time>2023-04-10T10:13:01+00:00</time>
        <ele>2713.0</ele>
      </trkpt>
      <trkpt lat="44.31527" lon="6.82196">
        <time>2023-04-10T10:13:02+00:00</time>
        <ele>2713.0</ele>
      </trkpt>
      <trkpt lat="44.31527" lon="6.82196">
        <time>2023-04-10T10:13:03+00:00</time>
        <ele>2713.0</ele>
      </trkpt>
      <trkpt lat="44.31527" lon="6.82196">
        <time>2023-04-10T10:13:04+00:00</time>
        <ele>2713.0</ele>
      </trkpt>
      <trkpt lat="44.31527" lon="6.82196">
        <time>2023-04-10T10:13:05+00:00</time>
        <ele>2713.0</ele>
      </trkpt>
      <trkpt lat="44.31527" lon="6.82196">
        <time>2023-04-10T10:13:06+00:00</time>
        <ele>2713.0</ele>
      </trkpt>
      <trkpt lat="44.31527" lon="6.82196">
        <time>2023-04-10T10:13:07+00:00</time>
        <ele>2713.0</ele>
      </trkpt>
      <trkpt lat="44.31527" lon="6.82196">
        <time>2023-04-10T10:13:08+00:00</time>
        <ele>2713.0</ele>
      </trkpt>
      <trkpt lat="44.31527" lon="6.82196">
        <time>2023-04-10T10:13:09+00:00</time>
        <ele>2713.0</ele>
      </trkpt>
      <trkpt lat="44.31527" lon="6.82196">
        <time>2023-04-10T10:13:10+00:00</time>
        <ele>2713.0</ele>
      </trkpt>
      <trkpt lat="44.31527" lon="6.82196">
        <time>2023-04-10T10:13:11+00:00</time>
        <ele>2713.0</ele>
      </trkpt>
      <trkpt lat="44.31527" lon="6.82196">
        <time>2023-04-10T10:13:12+00:00</time>
        <ele>2713.0</ele>
      </trkpt>
      <trkpt lat="44.31527" lon="6.82196">
        <time>2023-04-10T10:13:13+00:00</time>
        <ele>2713.0</ele>
      </trkpt>
      <trkpt lat="44.31527" lon="6.82196">
        <time>2023-04-10T10:13:14+00:00</time>
        <ele>2713.0</ele>
      </trkpt>
      <trkpt lat="44.31527" lon="6.82196">
        <time>2023-04-10T10:13:15+00:00</time>
        <ele>2713.0</ele>
      </trkpt>
      <trkpt lat="44.31527" lon="6.82196">
        <time>2023-04-10T10:13:16+00:00</time>
        <ele>2713.0</ele>
      </trkpt>
      <trkpt lat="44.31527" lon="6.82196">
        <time>2023-04-10T10:13:17+00:00</time>
        <ele>2713.0</ele>
      </trkpt>
      <trkpt lat="44.31527" lon="6.82196">
        <time>2023-04-10T10:13:18+00:00</time>
        <ele>2713.0</ele>
      </trkpt>
      <trkpt lat="44.31527" lon="6.82196">
        <time>2023-04-10T10:13:19+00:00</time>
        <ele>2713.0</ele>
      </trkpt>
      <trkpt lat="44.31527" lon="6.82196">
        <time>2023-04-10T10:13:20+00:00</time>
        <ele>2713.0</ele>
      </trkpt>
      <trkpt lat="44.31527" lon="6.82196">
        <time>2023-04-10T10:13:21+00:00</time>
        <ele>2713.0</ele>
      </trkpt>
      <trkpt lat="44.31527" lon="6.82196">
        <time>2023-04-10T10:13:22+00:00</time>
        <ele>2713.0</ele>
      </trkpt>
      <trkpt lat="44.31527" lon="6.82196">
        <time>2023-04-10T10:13:23+00:00</time>
        <ele>2713.0</ele>
      </trkpt>
      <trkpt lat="44.31527" lon="6.82196">
        <time>2023-04-10T10:13:24+00:00</time>
        <ele>2713.0</ele>
      </trkpt>
      <trkpt lat="44.31527" lon="6.82196">
        <time>2023-04-10T10:13:25+00:00</time>
        <ele>2713.0</ele>
      </trkpt>
      <trkpt lat="44.31527" lon="6.82196">
        <time>2023-04-10T10:13:26+00:00</time>
        <ele>2713.0</ele>
      </trkpt>
      <trkpt lat="44.31527" lon="6.82196">
        <time>2023-04-10T10:13:27+00:00</time>
        <ele>2713.0</ele>
      </trkpt>
      <trkpt lat="44.31527" lon="6.82196">
        <time>2023-04-10T10:13:28+00:00</time>
        <ele>2713.0</ele>
      </trkpt>
      <trkpt lat="44.31527" lon="6.82196">
        <time>2023-04-10T10:13:29+00:00</time>
        <ele>2713.0</ele>
      </trkpt>
      <trkpt lat="44.31527" lon="6.82196">
        <time>2023-04-10T10:13:30+00:00</time>
        <ele>2713.0</ele>
      </trkpt>
      <trkpt lat="44.31527" lon="6.82196">
        <time>2023-04-10T10:13:31+00:00</time>
        <ele>2713.0</ele>
      </trkpt>
      <trkpt lat="44.31527" lon="6.82196">
        <time>2023-04-10T10:13:32+00:00</time>
        <ele>2713.0</ele>
      </trkpt>
      <trkpt lat="44.31527" lon="6.82196">
        <time>2023-04-10T10:13:33+00:00</time>
        <ele>2713.0</ele>
      </trkpt>
      <trkpt lat="44.31527" lon="6.82196">
        <time>2023-04-10T10:13:34+00:00</time>
        <ele>2713.0</ele>
      </trkpt>
      <trkpt lat="44.31527" lon="6.82196">
        <time>2023-04-10T10:13:35+00:00</time>
        <ele>2713.0</ele>
      </trkpt>
      <trkpt lat="44.31527" lon="6.82196">
        <time>2023-04-10T10:13:36+00:00</time>
        <ele>2713.0</ele>
      </trkpt>
      <trkpt lat="44.31527" lon="6.82196">
        <time>2023-04-10T10:13:37+00:00</time>
        <ele>2713.0</ele>
      </trkpt>
      <trkpt lat="44.31527" lon="6.82196">
        <time>2023-04-10T10:13:38+00:00</time>
        <ele>2713.0</ele>
      </trkpt>
      <trkpt lat="44.31527" lon="6.82196">
        <time>2023-04-10T10:13:39+00:00</time>
        <ele>2713.0</ele>
      </trkpt>
      <trkpt lat="44.31527" lon="6.82196">
        <time>2023-04-10T10:13:40+00:00</time>
        <ele>2713.0</ele>
      </trkpt>
      <trkpt lat="44.31527" lon="6.82196">
        <time>2023-04-10T10:13:41+00:00</time>
        <ele>2713.0</ele>
      </trkpt>
      <trkpt lat="44.31527" lon="6.82196">
        <time>2023-04-10T10:13:42+00:00</time>
        <ele>2713.0</ele>
      </trkpt>
      <trkpt lat="44.31527" lon="6.82196">
        <time>2023-04-10T10:13:43+00:00</time>
        <ele>2713.0</ele>
      </trkpt>
      <trkpt lat="44.31527" lon="6.82196">
        <time>2023-04-10T10:13:44+00:00</time>
        <ele>2713.0</ele>
      </trkpt>
      <trkpt lat="44.31527" lon="6.82196">
        <time>2023-04-10T10:13:45+00:00</time>
        <ele>2713.0</ele>
      </trkpt>
      <trkpt lat="44.31527" lon="6.82196">
        <time>2023-04-10T10:13:46+00:00</time>
        <ele>2713.0</ele>
      </trkpt>
      <trkpt lat="44.31527" lon="6.82196">
        <time>2023-04-10T10:13:47+00:00</time>
        <ele>2713.0</ele>
      </trkpt>
      <trkpt lat="44.31527" lon="6.82196">
        <time>2023-04-10T10:13:48+00:00</time>
        <ele>2713.0</ele>
      </trkpt>
      <trkpt lat="44.31527" lon="6.82196">
        <time>2023-04-10T10:13:49+00:00</time>
        <ele>2713.0</ele>
      </trkpt>
      <trkpt lat="44.31527" lon="6.82196">
        <time>2023-04-10T10:13:50+00:00</time>
        <ele>2713.0</ele>
      </trkpt>
      <trkpt lat="44.31527" lon="6.82196">
        <time>2023-04-10T10:13:51+00:00</time>
        <ele>2713.0</ele>
      </trkpt>
      <trkpt lat="44.31527" lon="6.82196">
        <time>2023-04-10T10:13:52+00:00</time>
        <ele>2713.0</ele>
      </trkpt>
      <trkpt lat="44.31527" lon="6.82196">
        <time>2023-04-10T10:13:53+00:00</time>
        <ele>2713.0</ele>
      </trkpt>
      <trkpt lat="44.31527" lon="6.82196">
        <time>2023-04-10T10:13:54+00:00</time>
        <ele>2713.0</ele>
      </trkpt>
      <trkpt lat="44.31527" lon="6.82196">
        <time>2023-04-10T10:13:55+00:00</time>
        <ele>2713.0</ele>
      </trkpt>
      <trkpt lat="44.31527" lon="6.82196">
        <time>2023-04-10T10:13:56+00:00</time>
        <ele>2713.0</ele>
      </trkpt>
      <trkpt lat="44.31527" lon="6.82196">
        <time>2023-04-10T10:13:57+00:00</time>
        <ele>2713.0</ele>
      </trkpt>
      <trkpt lat="44.31527" lon="6.82196">
        <time>2023-04-10T10:13:58+00:00</time>
        <ele>2713.0</ele>
      </trkpt>
      <trkpt lat="44.31527" lon="6.82196">
        <time>2023-04-10T10:13:59+00:00</time>
        <ele>2713.0</ele>
      </trkpt>
      <trkpt lat="44.31527" lon="6.82196">
        <time>2023-04-10T10:14:00+00:00</time>
        <ele>2713.0</ele>
      </trkpt>
      <trkpt lat="44.31527" lon="6.82196">
        <time>2023-04-10T10:14:01+00:00</time>
        <ele>2713.0</ele>
      </trkpt>
      <trkpt lat="44.31527" lon="6.82196">
        <time>2023-04-10T10:14:02+00:00</time>
        <ele>2713.0</ele>
      </trkpt>
      <trkpt lat="44.31527" lon="6.82196">
        <time>2023-04-10T10:14:03+00:00</time>
        <ele>2713.0</ele>
      </trkpt>
      <trkpt lat="44.31527" lon="6.82196">
        <time>2023-04-10T10:14:04+00:00</time>
        <ele>2713.0</ele>
      </trkpt>
      <trkpt lat="44.31527" lon="6.82196">
        <time>2023-04-10T10:14:05+00:00</time>
        <ele>2713.0</ele>
      </trkpt>
      <trkpt lat="44.31527" lon="6.82196">
        <time>2023-04-10T10:14:06+00:00</time>
        <ele>2713.0</ele>
      </trkpt>
      <trkpt lat="44.31527" lon="6.82196">
        <time>2023-04-10T10:14:07+00:00</time>
        <ele>2713.0</ele>
      </trkpt>
      <trkpt lat="44.31527" lon="6.82196">
        <time>2023-04-10T10:14:08+00:00</time>
        <ele>2713.0</ele>
      </trkpt>
      <trkpt lat="44.31527" lon="6.82196">
        <time>2023-04-10T10:14:09+00:00</time>
        <ele>2713.0</ele>
      </trkpt>
      <trkpt lat="44.31527" lon="6.82196">
        <time>2023-04-10T10:14:10+00:00</time>
        <ele>2713.0</ele>
      </trkpt>
      <trkpt lat="44.31527" lon="6.82196">
        <time>2023-04-10T10:14:11+00:00</time>
        <ele>2713.0</ele>
      </trkpt>
      <trkpt lat="44.31527" lon="6.82196">
        <time>2023-04-10T10:14:12+00:00</time>
        <ele>2713.0</ele>
      </trkpt>
      <trkpt lat="44.31527" lon="6.82196">
        <time>2023-04-10T10:14:13+00:00</time>
        <ele>2713.0</ele>
      </trkpt>
      <trkpt lat="44.31527" lon="6.82196">
        <time>2023-04-10T10:14:14+00:00</time>
        <ele>2713.0</ele>
      </trkpt>
      <trkpt lat="44.31527" lon="6.82196">
        <time>2023-04-10T10:14:15+00:00</time>
        <ele>2713.0</ele>
      </trkpt>
      <trkpt lat="44.31527" lon="6.82196">
        <time>2023-04-10T10:14:16+00:00</time>
        <ele>2713.0</ele>
      </trkpt>
      <trkpt lat="44.31527" lon="6.82196">
        <time>2023-04-10T10:14:17+00:00</time>
        <ele>2713.0</ele>
      </trkpt>
      <trkpt lat="44.31527" lon="6.82196">
        <time>2023-04-10T10:14:18+00:00</time>
        <ele>2713.0</ele>
      </trkpt>
      <trkpt lat="44.31527" lon="6.82196">
        <time>2023-04-10T10:14:19+00:00</time>
        <ele>2713.0</ele>
      </trkpt>
      <trkpt lat="44.31527" lon="6.82196">
        <time>2023-04-10T10:14:20+00:00</time>
        <ele>2713.0</ele>
      </trkpt>
      <trkpt lat="44.31527" lon="6.82196">
        <time>2023-04-10T10:14:21+00:00</time>
        <ele>2713.0</ele>
      </trkpt>
      <trkpt lat="44.31527" lon="6.82196">
        <time>2023-04-10T10:14:22+00:00</time>
        <ele>2713.0</ele>
      </trkpt>
      <trkpt lat="44.31527" lon="6.82196">
        <time>2023-04-10T10:14:23+00:00</time>
        <ele>2713.0</ele>
      </trkpt>
      <trkpt lat="44.31527" lon="6.82196">
        <time>2023-04-10T10:14:24+00:00</time>
        <ele>2713.0</ele>
      </trkpt>
      <trkpt lat="44.31527" lon="6.82196">
        <time>2023-04-10T10:14:25+00:00</time>
        <ele>2713.0</ele>
      </trkpt>
      <trkpt lat="44.31527" lon="6.82196">
        <time>2023-04-10T10:14:26+00:00</time>
        <ele>2713.0</ele>
      </trkpt>
      <trkpt lat="44.31527" lon="6.82196">
        <time>2023-04-10T10:14:27+00:00</time>
        <ele>2713.0</ele>
      </trkpt>
      <trkpt lat="44.31527" lon="6.82196">
        <time>2023-04-10T10:14:28+00:00</time>
        <ele>2713.0</ele>
      </trkpt>
      <trkpt lat="44.31527" lon="6.82196">
        <time>2023-04-10T10:14:29+00:00</time>
        <ele>2713.0</ele>
      </trkpt>
      <trkpt lat="44.31527" lon="6.82196">
        <time>2023-04-10T10:14:30+00:00</time>
        <ele>2713.0</ele>
      </trkpt>
      <trkpt lat="44.31527" lon="6.82196">
        <time>2023-04-10T10:14:31+00:00</time>
        <ele>2713.0</ele>
      </trkpt>
      <trkpt lat="44.31527" lon="6.82196">
        <time>2023-04-10T10:14:32+00:00</time>
        <ele>2713.0</ele>
      </trkpt>
      <trkpt lat="44.31527" lon="6.82196">
        <time>2023-04-10T10:14:33+00:00</time>
        <ele>2713.0</ele>
      </trkpt>
      <trkpt lat="44.31527" lon="6.82196">
        <time>2023-04-10T10:14:34+00:00</time>
        <ele>2713.0</ele>
      </trkpt>
      <trkpt lat="44.31527" lon="6.82196">
        <time>2023-04-10T10:14:35+00:00</time>
        <ele>2713.0</ele>
      </trkpt>
      <trkpt lat="44.31527" lon="6.82196">
        <time>2023-04-10T10:14:36+00:00</time>
        <ele>2713.0</ele>
      </trkpt>
      <trkpt lat="44.31527" lon="6.82196">
        <time>2023-04-10T10:14:37+00:00</time>
        <ele>2713.0</ele>
      </trkpt>
      <trkpt lat="44.31527" lon="6.82196">
        <time>2023-04-10T10:14:38+00:00</time>
        <ele>2713.0</ele>
      </trkpt>
      <trkpt lat="44.31527" lon="6.82196">
        <time>2023-04-10T10:14:39+00:00</time>
        <ele>2713.0</ele>
      </trkpt>
      <trkpt lat="44.31527" lon="6.82196">
        <time>2023-04-10T10:14:40+00:00</time>
        <ele>2713.0</ele>
      </trkpt>
      <trkpt lat="44.31527" lon="6.82196">
        <time>2023-04-10T10:14:41+00:00</time>
        <ele>2713.0</ele>
      </trkpt>
      <trkpt lat="44.31527" lon="6.82196">
        <time>2023-04-10T10:14:42+00:00</time>
        <ele>2713.0</ele>
      </trkpt>
      <trkpt lat="44.31527" lon="6.82196">
        <time>2023-04-10T10:14:43+00:00</time>
        <ele>2713.0</ele>
      </trkpt>
      <trkpt lat="44.31527" lon="6.82196">
        <time>2023-04-10T10:14:44+00:00</time>
        <ele>2713.0</ele>
      </trkpt>
      <trkpt lat="44.31527" lon="6.82196">
        <time>2023-04-10T10:14:45+00:00</time>
        <ele>2713.0</ele>
      </trkpt>
      <trkpt lat="44.31527" lon="6.82196">
        <time>2023-04-10T10:14:46+00:00</time>
        <ele>2713.0</ele>
      </trkpt>
      <trkpt lat="44.31527" lon="6.82196">
        <time>2023-04-10T10:14:47+00:00</time>
        <ele>2713.0</ele>
      </trkpt>
      <trkpt lat="44.31527" lon="6.82196">
        <time>2023-04-10T10:14:48+00:00</time>
        <ele>2713.0</ele>
      </trkpt>
      <trkpt lat="44.31527" lon="6.82196">
        <time>2023-04-10T10:14:49+00:00</time>
        <ele>2713.0</ele>
      </trkpt>
      <trkpt lat="44.31527" lon="6.82196">
        <time>2023-04-10T10:14:50+00:00</time>
        <ele>2713.0</ele>
      </trkpt>
      <trkpt lat="44.31527" lon="6.82196">
        <time>2023-04-10T10:14:51+00:00</time>
        <ele>2713.0</ele>
      </trkpt>
      <trkpt lat="44.31527" lon="6.82196">
        <time>2023-04-10T10:14:52+00:00</time>
        <ele>2713.0</ele>
      </trkpt>
      <trkpt lat="44.31527" lon="6.82196">
        <time>2023-04-10T10:14:53+00:00</time>
        <ele>2713.0</ele>
      </trkpt>
      <trkpt lat="44.31527" lon="6.82196">
        <time>2023-04-10T10:14:54+00:00</time>
        <ele>2713.0</ele>
      </trkpt>
      <trkpt lat="44.31527" lon="6.82196">
        <time>2023-04-10T10:14:55+00:00</time>
        <ele>2713.0</ele>
      </trkpt>
      <trkpt lat="44.31527" lon="6.82196">
        <time>2023-04-10T10:14:56+00:00</time>
        <ele>2713.0</ele>
      </trkpt>
      <trkpt lat="44.31527" lon="6.82196">
        <time>2023-04-10T10:14:57+00:00</time>
        <ele>2713.0</ele>
      </trkpt>
      <trkpt lat="44.31527" lon="6.82196">
        <time>2023-04-10T10:14:58+00:00</time>
        <ele>2713.0</ele>
      </trkpt>
      <trkpt lat="44.31527" lon="6.82196">
        <time>2023-04-10T10:14:59+00:00</time>
        <ele>2713.0</ele>
      </trkpt>
      <trkpt lat="44.31527" lon="6.82196">
        <time>2023-04-10T10:15:00+00:00</time>
        <ele>2713.0</ele>
      </trkpt>
      <trkpt lat="44.31527" lon="6.82196">
        <time>2023-04-10T10:15:01+00:00</time>
        <ele>2713.0</ele>
      </trkpt>
      <trkpt lat="44.31527" lon="6.82196">
        <time>2023-04-10T10:15:02+00:00</time>
        <ele>2713.0</ele>
      </trkpt>
      <trkpt lat="44.31527" lon="6.82196">
        <time>2023-04-10T10:15:03+00:00</time>
        <ele>2713.0</ele>
      </trkpt>
      <trkpt lat="44.31527" lon="6.82196">
        <time>2023-04-10T10:15:04+00:00</time>
        <ele>2713.0</ele>
      </trkpt>
      <trkpt lat="44.31527" lon="6.82196">
        <time>2023-04-10T10:15:05+00:00</time>
        <ele>2713.0</ele>
      </trkpt>
      <trkpt lat="44.31527" lon="6.82196">
        <time>2023-04-10T10:15:06+00:00</time>
        <ele>2713.0</ele>
      </trkpt>
      <trkpt lat="44.31527" lon="6.82196">
        <time>2023-04-10T10:15:07+00:00</time>
        <ele>2713.0</ele>
      </trkpt>
      <trkpt lat="44.31527" lon="6.82196">
        <time>2023-04-10T10:15:08+00:00</time>
        <ele>2713.0</ele>
      </trkpt>
      <trkpt lat="44.31527" lon="6.82196">
        <time>2023-04-10T10:15:09+00:00</time>
        <ele>2713.0</ele>
      </trkpt>
      <trkpt lat="44.31527" lon="6.82196">
        <time>2023-04-10T10:15:10+00:00</time>
        <ele>2713.0</ele>
      </trkpt>
      <trkpt lat="44.31527" lon="6.82196">
        <time>2023-04-10T10:15:11+00:00</time>
        <ele>2713.0</ele>
      </trkpt>
      <trkpt lat="44.31527" lon="6.82196">
        <time>2023-04-10T10:15:12+00:00</time>
        <ele>2713.0</ele>
      </trkpt>
      <trkpt lat="44.31527" lon="6.82196">
        <time>2023-04-10T10:15:13+00:00</time>
        <ele>2713.0</ele>
      </trkpt>
      <trkpt lat="44.31527" lon="6.82196">
        <time>2023-04-10T10:15:14+00:00</time>
        <ele>2713.0</ele>
      </trkpt>
      <trkpt lat="44.31527" lon="6.82196">
        <time>2023-04-10T10:15:15+00:00</time>
        <ele>2713.0</ele>
      </trkpt>
      <trkpt lat="44.31527" lon="6.82196">
        <time>2023-04-10T10:15:16+00:00</time>
        <ele>2713.0</ele>
      </trkpt>
      <trkpt lat="44.31527" lon="6.82196">
        <time>2023-04-10T10:15:17+00:00</time>
        <ele>2713.0</ele>
      </trkpt>
      <trkpt lat="44.31527" lon="6.82196">
        <time>2023-04-10T10:15:18+00:00</time>
        <ele>2713.0</ele>
      </trkpt>
      <trkpt lat="44.31527" lon="6.82196">
        <time>2023-04-10T10:15:19+00:00</time>
        <ele>2713.0</ele>
      </trkpt>
      <trkpt lat="44.31527" lon="6.82196">
        <time>2023-04-10T10:15:20+00:00</time>
        <ele>2713.0</ele>
      </trkpt>
      <trkpt lat="44.31527" lon="6.82196">
        <time>2023-04-10T10:15:21+00:00</time>
        <ele>2713.0</ele>
      </trkpt>
      <trkpt lat="44.31527" lon="6.82196">
        <time>2023-04-10T10:15:22+00:00</time>
        <ele>2713.0</ele>
      </trkpt>
      <trkpt lat="44.31527" lon="6.82196">
        <time>2023-04-10T10:15:23+00:00</time>
        <ele>2713.0</ele>
      </trkpt>
      <trkpt lat="44.31527" lon="6.82196">
        <time>2023-04-10T10:15:24+00:00</time>
        <ele>2713.0</ele>
      </trkpt>
      <trkpt lat="44.31527" lon="6.82196">
        <time>2023-04-10T10:15:25+00:00</time>
        <ele>2713.0</ele>
      </trkpt>
      <trkpt lat="44.31527" lon="6.82196">
        <time>2023-04-10T10:15:26+00:00</time>
        <ele>2713.0</ele>
      </trkpt>
      <trkpt lat="44.31527" lon="6.82196">
        <time>2023-04-10T10:15:27+00:00</time>
        <ele>2713.0</ele>
      </trkpt>
      <trkpt lat="44.31527" lon="6.82196">
        <time>2023-04-10T10:15:28+00:00</time>
        <ele>2713.0</ele>
      </trkpt>
      <trkpt lat="44.31527" lon="6.82196">
        <time>2023-04-10T10:15:29+00:00</time>
        <ele>2713.0</ele>
      </trkpt>
      <trkpt lat="44.31527" lon="6.82196">
        <time>2023-04-10T10:15:30+00:00</time>
        <ele>2713.0</ele>
      </trkpt>
      <trkpt lat="44.31527" lon="6.82196">
        <time>2023-04-10T10:15:31+00:00</time>
        <ele>2713.0</ele>
      </trkpt>
      <trkpt lat="44.31527" lon="6.82196">
        <time>2023-04-10T10:15:32+00:00</time>
        <ele>2713.0</ele>
      </trkpt>
      <trkpt lat="44.31527" lon="6.82196">
        <time>2023-04-10T10:15:33+00:00</time>
        <ele>2713.0</ele>
      </trkpt>
      <trkpt lat="44.31527" lon="6.82196">
        <time>2023-04-10T10:15:34+00:00</time>
        <ele>2713.0</ele>
      </trkpt>
      <trkpt lat="44.31527" lon="6.82196">
        <time>2023-04-10T10:15:35+00:00</time>
        <ele>2713.0</ele>
      </trkpt>
      <trkpt lat="44.31527" lon="6.82196">
        <time>2023-04-10T10:15:36+00:00</time>
        <ele>2713.0</ele>
      </trkpt>
      <trkpt lat="44.31527" lon="6.82196">
        <time>2023-04-10T10:15:37+00:00</time>
        <ele>2713.0</ele>
      </trkpt>
      <trkpt lat="44.31527" lon="6.82196">
        <time>2023-04-10T10:15:38+00:00</time>
        <ele>2713.0</ele>
      </trkpt>
      <trkpt lat="44.31527" lon="6.82196">
        <time>2023-04-10T10:15:39+00:00</time>
        <ele>2713.0</ele>
      </trkpt>
      <trkpt lat="44.31527" lon="6.82196">
        <time>2023-04-10T10:15:40+00:00</time>
        <ele>2713.0</ele>
      </trkpt>
      <trkpt lat="44.31527" lon="6.82196">
        <time>2023-04-10T10:15:41+00:00</time>
        <ele>2713.0</ele>
      </trkpt>
      <trkpt lat="44.31527" lon="6.82196">
        <time>2023-04-10T10:15:42+00:00</time>
        <ele>2713.0</ele>
      </trkpt>
      <trkpt lat="44.31527" lon="6.82196">
        <time>2023-04-10T10:15:43+00:00</time>
        <ele>2713.0</ele>
      </trkpt>
      <trkpt lat="44.31527" lon="6.82196">
        <time>2023-04-10T10:15:44+00:00</time>
        <ele>2713.0</ele>
      </trkpt>
      <trkpt lat="44.31527" lon="6.82196">
        <time>2023-04-10T10:15:45+00:00</time>
        <ele>2713.0</ele>
      </trkpt>
      <trkpt lat="44.31527" lon="6.82196">
        <time>2023-04-10T10:15:46+00:00</time>
        <ele>2713.0</ele>
      </trkpt>
      <trkpt lat="44.31527" lon="6.82196">
        <time>2023-04-10T10:15:47+00:00</time>
        <ele>2713.0</ele>
      </trkpt>
      <trkpt lat="44.31527" lon="6.82196">
        <time>2023-04-10T10:15:48+00:00</time>
        <ele>2713.0</ele>
      </trkpt>
      <trkpt lat="44.31527" lon="6.82196">
        <time>2023-04-10T10:15:49+00:00</time>
        <ele>2713.0</ele>
      </trkpt>
      <trkpt lat="44.31527" lon="6.82196">
        <time>2023-04-10T10:15:50+00:00</time>
        <ele>2713.0</ele>
      </trkpt>
      <trkpt lat="44.31527" lon="6.82196">
        <time>2023-04-10T10:15:51+00:00</time>
        <ele>2713.0</ele>
      </trkpt>
      <trkpt lat="44.31527" lon="6.82196">
        <time>2023-04-10T10:15:52+00:00</time>
        <ele>2713.0</ele>
      </trkpt>
      <trkpt lat="44.31527" lon="6.82196">
        <time>2023-04-10T10:15:53+00:00</time>
        <ele>2713.0</ele>
      </trkpt>
      <trkpt lat="44.31527" lon="6.82196">
        <time>2023-04-10T10:15:54+00:00</time>
        <ele>2713.0</ele>
      </trkpt>
      <trkpt lat="44.31527" lon="6.82196">
        <time>2023-04-10T10:15:55+00:00</time>
        <ele>2713.0</ele>
      </trkpt>
      <trkpt lat="44.31527" lon="6.82196">
        <time>2023-04-10T10:15:56+00:00</time>
        <ele>2713.0</ele>
      </trkpt>
      <trkpt lat="44.31527" lon="6.82196">
        <time>2023-04-10T10:15:57+00:00</time>
        <ele>2713.0</ele>
      </trkpt>
      <trkpt lat="44.31527" lon="6.82196">
        <time>2023-04-10T10:15:58+00:00</time>
        <ele>2713.0</ele>
      </trkpt>
      <trkpt lat="44.31527" lon="6.82196">
        <time>2023-04-10T10:15:59+00:00</time>
        <ele>2713.0</ele>
      </trkpt>
      <trkpt lat="44.31527" lon="6.82196">
        <time>2023-04-10T10:16:00+00:00</time>
        <ele>2713.0</ele>
      </trkpt>
      <trkpt lat="44.31527" lon="6.82196">
        <time>2023-04-10T10:16:01+00:00</time>
        <ele>2713.0</ele>
      </trkpt>
      <trkpt lat="44.31527" lon="6.82196">
        <time>2023-04-10T10:16:02+00:00</time>
        <ele>2713.0</ele>
      </trkpt>
      <trkpt lat="44.31527" lon="6.82196">
        <time>2023-04-10T10:16:03+00:00</time>
        <ele>2713.0</ele>
      </trkpt>
      <trkpt lat="44.31527" lon="6.82196">
        <time>2023-04-10T10:16:04+00:00</time>
        <ele>2713.0</ele>
      </trkpt>
      <trkpt lat="44.31527" lon="6.82196">
        <time>2023-04-10T10:16:05+00:00</time>
        <ele>2713.0</ele>
      </trkpt>
      <trkpt lat="44.31527" lon="6.82196">
        <time>2023-04-10T10:16:06+00:00</time>
        <ele>2713.0</ele>
      </trkpt>
      <trkpt lat="44.31527" lon="6.82196">
        <time>2023-04-10T10:16:07+00:00</time>
        <ele>2713.0</ele>
      </trkpt>
      <trkpt lat="44.31527" lon="6.82196">
        <time>2023-04-10T10:16:08+00:00</time>
        <ele>2713.0</ele>
      </trkpt>
      <trkpt lat="44.31527" lon="6.82196">
        <time>2023-04-10T10:16:09+00:00</time>
        <ele>2713.0</ele>
      </trkpt>
      <trkpt lat="44.31527" lon="6.82196">
        <time>2023-04-10T10:16:10+00:00</time>
        <ele>2713.0</ele>
      </trkpt>
      <trkpt lat="44.31527" lon="6.82196">
        <time>2023-04-10T10:16:11+00:00</time>
        <ele>2713.0</ele>
      </trkpt>
      <trkpt lat="44.31527" lon="6.82196">
        <time>2023-04-10T10:16:12+00:00</time>
        <ele>2713.0</ele>
      </trkpt>
      <trkpt lat="44.31527" lon="6.82196">
        <time>2023-04-10T10:16:13+00:00</time>
        <ele>2713.0</ele>
      </trkpt>
      <trkpt lat="44.31527" lon="6.82196">
        <time>2023-04-10T10:16:14+00:00</time>
        <ele>2713.0</ele>
      </trkpt>
      <trkpt lat="44.31527" lon="6.82196">
        <time>2023-04-10T10:16:15+00:00</time>
        <ele>2713.0</ele>
      </trkpt>
      <trkpt lat="44.31527" lon="6.82196">
        <time>2023-04-10T10:16:16+00:00</time>
        <ele>2713.0</ele>
      </trkpt>
      <trkpt lat="44.31527" lon="6.82196">
        <time>2023-04-10T10:16:17+00:00</time>
        <ele>2713.0</ele>
      </trkpt>
      <trkpt lat="44.31527" lon="6.82196">
        <time>2023-04-10T10:16:18+00:00</time>
        <ele>2713.0</ele>
      </trkpt>
      <trkpt lat="44.31527" lon="6.82196">
        <time>2023-04-10T10:16:19+00:00</time>
        <ele>2713.0</ele>
      </trkpt>
      <trkpt lat="44.31527" lon="6.82196">
        <time>2023-04-10T10:16:20+00:00</time>
        <ele>2713.0</ele>
      </trkpt>
      <trkpt lat="44.31527" lon="6.82196">
        <time>2023-04-10T10:16:21+00:00</time>
        <ele>2713.0</ele>
      </trkpt>
      <trkpt lat="44.31527" lon="6.82196">
        <time>2023-04-10T10:16:22+00:00</time>
        <ele>2713.0</ele>
      </trkpt>
      <trkpt lat="44.31527" lon="6.82196">
        <time>2023-04-10T10:16:23+00:00</time>
        <ele>2713.0</ele>
      </trkpt>
      <trkpt lat="44.31527" lon="6.82196">
        <time>2023-04-10T10:16:24+00:00</time>
        <ele>2713.0</ele>
      </trkpt>
      <trkpt lat="44.31527" lon="6.82196">
        <time>2023-04-10T10:16:25+00:00</time>
        <ele>2713.0</ele>
      </trkpt>
      <trkpt lat="44.31527" lon="6.82196">
        <time>2023-04-10T10:16:26+00:00</time>
        <ele>2713.0</ele>
      </trkpt>
      <trkpt lat="44.31527" lon="6.82196">
        <time>2023-04-10T10:16:27+00:00</time>
        <ele>2713.0</ele>
      </trkpt>
      <trkpt lat="44.31527" lon="6.82196">
        <time>2023-04-10T10:16:28+00:00</time>
        <ele>2713.0</ele>
      </trkpt>
      <trkpt lat="44.31527" lon="6.82196">
        <time>2023-04-10T10:16:29+00:00</time>
        <ele>2713.0</ele>
      </trkpt>
      <trkpt lat="44.31527" lon="6.82196">
        <time>2023-04-10T10:16:30+00:00</time>
        <ele>2713.0</ele>
      </trkpt>
      <trkpt lat="44.31527" lon="6.82196">
        <time>2023-04-10T10:16:31+00:00</time>
        <ele>2713.0</ele>
      </trkpt>
      <trkpt lat="44.31527" lon="6.82196">
        <time>2023-04-10T10:16:32+00:00</time>
        <ele>2713.0</ele>
      </trkpt>
      <trkpt lat="44.31527" lon="6.82196">
        <time>2023-04-10T10:16:33+00:00</time>
        <ele>2713.0</ele>
      </trkpt>
      <trkpt lat="44.31527" lon="6.82196">
        <time>2023-04-10T10:16:34+00:00</time>
        <ele>2713.0</ele>
      </trkpt>
      <trkpt lat="44.31527" lon="6.82196">
        <time>2023-04-10T10:16:35+00:00</time>
        <ele>2713.0</ele>
      </trkpt>
      <trkpt lat="44.31527" lon="6.82196">
        <time>2023-04-10T10:16:36+00:00</time>
        <ele>2713.0</ele>
      </trkpt>
      <trkpt lat="44.31527" lon="6.82196">
        <time>2023-04-10T10:16:37+00:00</time>
        <ele>2713.0</ele>
      </trkpt>
      <trkpt lat="44.31527" lon="6.82196">
        <time>2023-04-10T10:16:38+00:00</time>
        <ele>2713.0</ele>
      </trkpt>
      <trkpt lat="44.31527" lon="6.82196">
        <time>2023-04-10T10:16:39+00:00</time>
        <ele>2713.0</ele>
      </trkpt>
      <trkpt lat="44.31527" lon="6.82196">
        <time>2023-04-10T10:16:40+00:00</time>
        <ele>2713.0</ele>
      </trkpt>
      <trkpt lat="44.31527" lon="6.82196">
        <time>2023-04-10T10:16:41+00:00</time>
        <ele>2713.0</ele>
      </trkpt>
      <trkpt lat="44.31527" lon="6.82196">
        <time>2023-04-10T10:16:42+00:00</time>
        <ele>2713.0</ele>
      </trkpt>
      <trkpt lat="44.31527" lon="6.82196">
        <time>2023-04-10T10:16:43+00:00</time>
        <ele>2713.0</ele>
      </trkpt>
      <trkpt lat="44.31527" lon="6.82196">
        <time>2023-04-10T10:16:44+00:00</time>
        <ele>2713.0</ele>
      </trkpt>
      <trkpt lat="44.31527" lon="6.82196">
        <time>2023-04-10T10:16:45+00:00</time>
        <ele>2713.0</ele>
      </trkpt>
      <trkpt lat="44.31527" lon="6.82196">
        <time>2023-04-10T10:16:46+00:00</time>
        <ele>2713.0</ele>
      </trkpt>
      <trkpt lat="44.31527" lon="6.82196">
        <time>2023-04-10T10:16:47+00:00</time>
        <ele>2713.0</ele>
      </trkpt>
      <trkpt lat="44.31527" lon="6.82196">
        <time>2023-04-10T10:16:48+00:00</time>
        <ele>2713.0</ele>
      </trkpt>
      <trkpt lat="44.31527" lon="6.82196">
        <time>2023-04-10T10:16:49+00:00</time>
        <ele>2713.0</ele>
      </trkpt>
      <trkpt lat="44.31527" lon="6.82196">
        <time>2023-04-10T10:16:50+00:00</time>
        <ele>2713.0</ele>
      </trkpt>
      <trkpt lat="44.31527" lon="6.82196">
        <time>2023-04-10T10:16:51+00:00</time>
        <ele>2713.0</ele>
      </trkpt>
      <trkpt lat="44.31527" lon="6.82196">
        <time>2023-04-10T10:16:52+00:00</time>
        <ele>2713.0</ele>
      </trkpt>
      <trkpt lat="44.31527" lon="6.82196">
        <time>2023-04-10T10:16:53+00:00</time>
        <ele>2713.0</ele>
      </trkpt>
      <trkpt lat="44.31527" lon="6.82196">
        <time>2023-04-10T10:16:54+00:00</time>
        <ele>2713.0</ele>
      </trkpt>
      <trkpt lat="44.31527" lon="6.82196">
        <time>2023-04-10T10:16:55+00:00</time>
        <ele>2713.0</ele>
      </trkpt>
      <trkpt lat="44.31527" lon="6.82196">
        <time>2023-04-10T10:16:56+00:00</time>
        <ele>2713.0</ele>
      </trkpt>
      <trkpt lat="44.31527" lon="6.82196">
        <time>2023-04-10T10:16:57+00:00</time>
        <ele>2713.0</ele>
      </trkpt>
      <trkpt lat="44.31527" lon="6.82196">
        <time>2023-04-10T10:16:58+00:00</time>
        <ele>2713.0</ele>
      </trkpt>
      <trkpt lat="44.31527" lon="6.82196">
        <time>2023-04-10T10:16:59+00:00</time>
        <ele>2713.0</ele>
      </trkpt>
      <trkpt lat="44.31527" lon="6.82196">
        <time>2023-04-10T10:17:00+00:00</time>
        <ele>2713.0</ele>
      </trkpt>
      <trkpt lat="44.31527" lon="6.82196">
        <time>2023-04-10T10:17:01+00:00</time>
        <ele>2713.0</ele>
      </trkpt>
      <trkpt lat="44.31527" lon="6.82196">
        <time>2023-04-10T10:17:02+00:00</time>
        <ele>2713.0</ele>
      </trkpt>
      <trkpt lat="44.31527" lon="6.82196">
        <time>2023-04-10T10:17:03+00:00</time>
        <ele>2713.0</ele>
      </trkpt>
      <trkpt lat="44.31527" lon="6.82196">
        <time>2023-04-10T10:17:04+00:00</time>
        <ele>2713.0</ele>
      </trkpt>
      <trkpt lat="44.31527" lon="6.82196">
        <time>2023-04-10T10:17:05+00:00</time>
        <ele>2713.0</ele>
      </trkpt>
      <trkpt lat="44.31527" lon="6.82196">
        <time>2023-04-10T10:17:06+00:00</time>
        <ele>2713.0</ele>
      </trkpt>
      <trkpt lat="44.31527" lon="6.82196">
        <time>2023-04-10T10:17:07+00:00</time>
        <ele>2713.0</ele>
      </trkpt>
      <trkpt lat="44.31527" lon="6.82196">
        <time>2023-04-10T10:17:08+00:00</time>
        <ele>2713.0</ele>
      </trkpt>
      <trkpt lat="44.31527" lon="6.82196">
        <time>2023-04-10T10:17:09+00:00</time>
        <ele>2713.0</ele>
      </trkpt>
      <trkpt lat="44.31527" lon="6.82196">
        <time>2023-04-10T10:17:10+00:00</time>
        <ele>2713.0</ele>
      </trkpt>
      <trkpt lat="44.31527" lon="6.82196">
        <time>2023-04-10T10:17:11+00:00</time>
        <ele>2713.0</ele>
      </trkpt>
      <trkpt lat="44.31527" lon="6.82196">
        <time>2023-04-10T10:17:12+00:00</time>
        <ele>2713.0</ele>
      </trkpt>
      <trkpt lat="44.31527" lon="6.82196">
        <time>2023-04-10T10:17:13+00:00</time>
        <ele>2713.0</ele>
      </trkpt>
      <trkpt lat="44.31527" lon="6.82196">
        <time>2023-04-10T10:17:14+00:00</time>
        <ele>2713.0</ele>
      </trkpt>
      <trkpt lat="44.31527" lon="6.82196">
        <time>2023-04-10T10:17:15+00:00</time>
        <ele>2713.0</ele>
      </trkpt>
      <trkpt lat="44.31527" lon="6.82196">
        <time>2023-04-10T10:17:16+00:00</time>
        <ele>2713.0</ele>
      </trkpt>
      <trkpt lat="44.31527" lon="6.82196">
        <time>2023-04-10T10:17:17+00:00</time>
        <ele>2713.0</ele>
      </trkpt>
      <trkpt lat="44.31527" lon="6.82196">
        <time>2023-04-10T10:17:18+00:00</time>
        <ele>2713.0</ele>
      </trkpt>
      <trkpt lat="44.31527" lon="6.82196">
        <time>2023-04-10T10:17:19+00:00</time>
        <ele>2713.0</ele>
      </trkpt>
      <trkpt lat="44.31527" lon="6.82196">
        <time>2023-04-10T10:17:20+00:00</time>
        <ele>2713.0</ele>
      </trkpt>
      <trkpt lat="44.31527" lon="6.82196">
        <time>2023-04-10T10:17:21+00:00</time>
        <ele>2713.0</ele>
      </trkpt>
      <trkpt lat="44.31527" lon="6.82196">
        <time>2023-04-10T10:17:22+00:00</time>
        <ele>2713.0</ele>
      </trkpt>
      <trkpt lat="44.31527" lon="6.82196">
        <time>2023-04-10T10:17:23+00:00</time>
        <ele>2713.0</ele>
      </trkpt>
      <trkpt lat="44.31527" lon="6.82196">
        <time>2023-04-10T10:17:24+00:00</time>
        <ele>2713.0</ele>
      </trkpt>
      <trkpt lat="44.31527" lon="6.82196">
        <time>2023-04-10T10:17:25+00:00</time>
        <ele>2713.0</ele>
      </trkpt>
      <trkpt lat="44.31527" lon="6.82196">
        <time>2023-04-10T10:17:26+00:00</time>
        <ele>2713.0</ele>
      </trkpt>
      <trkpt lat="44.31527" lon="6.82196">
        <time>2023-04-10T10:17:27+00:00</time>
        <ele>2713.0</ele>
      </trkpt>
      <trkpt lat="44.31527" lon="6.82196">
        <time>2023-04-10T10:17:28+00:00</time>
        <ele>2713.0</ele>
      </trkpt>
      <trkpt lat="44.31527" lon="6.82196">
        <time>2023-04-10T10:17:29+00:00</time>
        <ele>2713.0</ele>
      </trkpt>
      <trkpt lat="44.31527" lon="6.82196">
        <time>2023-04-10T10:17:30+00:00</time>
        <ele>2713.0</ele>
      </trkpt>
      <trkpt lat="44.31527" lon="6.82196">
        <time>2023-04-10T10:17:31+00:00</time>
        <ele>2713.0</ele>
      </trkpt>
      <trkpt lat="44.31527" lon="6.82196">
        <time>2023-04-10T10:17:32+00:00</time>
        <ele>2713.0</ele>
      </trkpt>
      <trkpt lat="44.31527" lon="6.82196">
        <time>2023-04-10T10:17:33+00:00</time>
        <ele>2713.0</ele>
      </trkpt>
      <trkpt lat="44.31527" lon="6.82196">
        <time>2023-04-10T10:17:34+00:00</time>
        <ele>2713.0</ele>
      </trkpt>
      <trkpt lat="44.31527" lon="6.82196">
        <time>2023-04-10T10:17:35+00:00</time>
        <ele>2713.0</ele>
      </trkpt>
      <trkpt lat="44.31527" lon="6.82196">
        <time>2023-04-10T10:17:36+00:00</time>
        <ele>2713.0</ele>
      </trkpt>
      <trkpt lat="44.31527" lon="6.82196">
        <time>2023-04-10T10:17:37+00:00</time>
        <ele>2713.0</ele>
      </trkpt>
      <trkpt lat="44.31527" lon="6.82196">
        <time>2023-04-10T10:17:38+00:00</time>
        <ele>2713.0</ele>
      </trkpt>
      <trkpt lat="44.31527" lon="6.82196">
        <time>2023-04-10T10:17:39+00:00</time>
        <ele>2713.0</ele>
      </trkpt>
      <trkpt lat="44.31527" lon="6.82196">
        <time>2023-04-10T10:17:40+00:00</time>
        <ele>2713.0</ele>
      </trkpt>
      <trkpt lat="44.31527" lon="6.82196">
        <time>2023-04-10T10:17:41+00:00</time>
        <ele>2713.0</ele>
      </trkpt>
      <trkpt lat="44.31527" lon="6.82196">
        <time>2023-04-10T10:17:42+00:00</time>
        <ele>2713.0</ele>
      </trkpt>
      <trkpt lat="44.31527" lon="6.82196">
        <time>2023-04-10T10:17:43+00:00</time>
        <ele>2713.0</ele>
      </trkpt>
      <trkpt lat="44.31527" lon="6.82196">
        <time>2023-04-10T10:17:44+00:00</time>
        <ele>2713.0</ele>
      </trkpt>
      <trkpt lat="44.31527" lon="6.82196">
        <time>2023-04-10T10:17:45+00:00</time>
        <ele>2713.0</ele>
      </trkpt>
      <trkpt lat="44.31527" lon="6.82196">
        <time>2023-04-10T10:17:46+00:00</time>
        <ele>2713.0</ele>
      </trkpt>
      <trkpt lat="44.31527" lon="6.82196">
        <time>2023-04-10T10:17:47+00:00</time>
        <ele>2713.0</ele>
      </trkpt>
      <trkpt lat="44.31527" lon="6.82196">
        <time>2023-04-10T10:17:48+00:00</time>
        <ele>2713.0</ele>
      </trkpt>
      <trkpt lat="44.31527" lon="6.82196">
        <time>2023-04-10T10:17:49+00:00</time>
        <ele>2713.0</ele>
      </trkpt>
      <trkpt lat="44.31527" lon="6.82196">
        <time>2023-04-10T10:17:50+00:00</time>
        <ele>2713.0</ele>
      </trkpt>
      <trkpt lat="44.31527" lon="6.82196">
        <time>2023-04-10T10:17:51+00:00</time>
        <ele>2713.0</ele>
      </trkpt>
      <trkpt lat="44.31527" lon="6.82196">
        <time>2023-04-10T10:17:52+00:00</time>
        <ele>2713.0</ele>
      </trkpt>
      <trkpt lat="44.31527" lon="6.82196">
        <time>2023-04-10T10:17:53+00:00</time>
        <ele>2713.0</ele>
      </trkpt>
      <trkpt lat="44.31527" lon="6.82196">
        <time>2023-04-10T10:17:54+00:00</time>
        <ele>2713.0</ele>
      </trkpt>
      <trkpt lat="44.31527" lon="6.82196">
        <time>2023-04-10T10:17:55+00:00</time>
        <ele>2713.0</ele>
      </trkpt>
      <trkpt lat="44.31527" lon="6.82196">
        <time>2023-04-10T10:17:56+00:00</time>
        <ele>2713.0</ele>
      </trkpt>
      <trkpt lat="44.31527" lon="6.82196">
        <time>2023-04-10T10:17:57+00:00</time>
        <ele>2713.0</ele>
      </trkpt>
      <trkpt lat="44.31527" lon="6.82196">
        <time>2023-04-10T10:17:58+00:00</time>
        <ele>2713.0</ele>
      </trkpt>
      <trkpt lat="44.31527" lon="6.82196">
        <time>2023-04-10T10:17:59+00:00</time>
        <ele>2713.0</ele>
      </trkpt>
      <trkpt lat="44.31527" lon="6.82196">
        <time>2023-04-10T10:18:00+00:00</time>
        <ele>2713.0</ele>
      </trkpt>
      <trkpt lat="44.31527" lon="6.82196">
        <time>2023-04-10T10:18:01+00:00</time>
        <ele>2713.0</ele>
      </trkpt>
      <trkpt lat="44.31527" lon="6.82196">
        <time>2023-04-10T10:18:02+00:00</time>
        <ele>2713.0</ele>
      </trkpt>
      <trkpt lat="44.31527" lon="6.82196">
        <time>2023-04-10T10:18:03+00:00</time>
        <ele>2713.0</ele>
      </trkpt>
      <trkpt lat="44.31527" lon="6.82196">
        <time>2023-04-10T10:18:04+00:00</time>
        <ele>2713.0</ele>
      </trkpt>
      <trkpt lat="44.31527" lon="6.82196">
        <time>2023-04-10T10:18:05+00:00</time>
        <ele>2713.0</ele>
      </trkpt>
      <trkpt lat="44.31527" lon="6.82196">
        <time>2023-04-10T10:18:06+00:00</time>
        <ele>2713.0</ele>
      </trkpt>
      <trkpt lat="44.31527" lon="6.82196">
        <time>2023-04-10T10:18:07+00:00</time>
        <ele>2713.0</ele>
      </trkpt>
      <trkpt lat="44.31527" lon="6.82196">
        <time>2023-04-10T10:18:08+00:00</time>
        <ele>2713.0</ele>
      </trkpt>
      <trkpt lat="44.31527" lon="6.82196">
        <time>2023-04-10T10:18:09+00:00</time>
        <ele>2713.0</ele>
      </trkpt>
      <trkpt lat="44.31527" lon="6.82196">
        <time>2023-04-10T10:18:10+00:00</time>
        <ele>2713.0</ele>
      </trkpt>
      <trkpt lat="44.31527" lon="6.82196">
        <time>2023-04-10T10:18:11+00:00</time>
        <ele>2713.0</ele>
      </trkpt>
      <trkpt lat="44.31527" lon="6.82196">
        <time>2023-04-10T10:18:12+00:00</time>
        <ele>2713.0</ele>
      </trkpt>
      <trkpt lat="44.31527" lon="6.82196">
        <time>2023-04-10T10:18:13+00:00</time>
        <ele>2713.0</ele>
      </trkpt>
      <trkpt lat="44.31527" lon="6.82196">
        <time>2023-04-10T10:18:14+00:00</time>
        <ele>2713.0</ele>
      </trkpt>
      <trkpt lat="44.31527" lon="6.82196">
        <time>2023-04-10T10:18:15+00:00</time>
        <ele>2713.0</ele>
      </trkpt>
      <trkpt lat="44.31527" lon="6.82196">
        <time>2023-04-10T10:18:16+00:00</time>
        <ele>2713.0</ele>
      </trkpt>
      <trkpt lat="44.31527" lon="6.82196">
        <time>2023-04-10T10:18:17+00:00</time>
        <ele>2713.0</ele>
      </trkpt>
      <trkpt lat="44.31527" lon="6.82196">
        <time>2023-04-10T10:18:18+00:00</time>
        <ele>2713.0</ele>
      </trkpt>
      <trkpt lat="44.31527" lon="6.82196">
        <time>2023-04-10T10:18:19+00:00</time>
        <ele>2713.0</ele>
      </trkpt>
      <trkpt lat="44.31527" lon="6.82196">
        <time>2023-04-10T10:18:20+00:00</time>
        <ele>2713.0</ele>
      </trkpt>
      <trkpt lat="44.31527" lon="6.82196">
        <time>2023-04-10T10:18:21+00:00</time>
        <ele>2713.0</ele>
      </trkpt>
      <trkpt lat="44.31527" lon="6.82196">
        <time>2023-04-10T10:18:22+00:00</time>
        <ele>2713.0</ele>
      </trkpt>
      <trkpt lat="44.31527" lon="6.82196">
        <time>2023-04-10T10:18:23+00:00</time>
        <ele>2713.0</ele>
      </trkpt>
      <trkpt lat="44.31527" lon="6.82196">
        <time>2023-04-10T10:18:24+00:00</time>
        <ele>2713.0</ele>
      </trkpt>
      <trkpt lat="44.31527" lon="6.82196">
        <time>2023-04-10T10:18:25+00:00</time>
        <ele>2713.0</ele>
      </trkpt>
      <trkpt lat="44.31527" lon="6.82196">
        <time>2023-04-10T10:18:26+00:00</time>
        <ele>2713.0</ele>
      </trkpt>
      <trkpt lat="44.31527" lon="6.82196">
        <time>2023-04-10T10:18:27+00:00</time>
        <ele>2713.0</ele>
      </trkpt>
      <trkpt lat="44.31527" lon="6.82196">
        <time>2023-04-10T10:18:28+00:00</time>
        <ele>2713.0</ele>
      </trkpt>
      <trkpt lat="44.31527" lon="6.82196">
        <time>2023-04-10T10:18:29+00:00</time>
        <ele>2713.0</ele>
      </trkpt>
      <trkpt lat="44.31527" lon="6.82196">
        <time>2023-04-10T10:18:30+00:00</time>
        <ele>2713.0</ele>
      </trkpt>
      <trkpt lat="44.31527" lon="6.82196">
        <time>2023-04-10T10:18:31+00:00</time>
        <ele>2713.0</ele>
      </trkpt>
      <trkpt lat="44.31527" lon="6.82196">
        <time>2023-04-10T10:18:32+00:00</time>
        <ele>2713.0</ele>
      </trkpt>
      <trkpt lat="44.31527" lon="6.82196">
        <time>2023-04-10T10:18:33+00:00</time>
        <ele>2713.0</ele>
      </trkpt>
      <trkpt lat="44.31527" lon="6.82196">
        <time>2023-04-10T10:18:34+00:00</time>
        <ele>2713.0</ele>
      </trkpt>
      <trkpt lat="44.31527" lon="6.82196">
        <time>2023-04-10T10:18:35+00:00</time>
        <ele>2713.0</ele>
      </trkpt>
      <trkpt lat="44.31527" lon="6.82196">
        <time>2023-04-10T10:18:36+00:00</time>
        <ele>2713.0</ele>
      </trkpt>
      <trkpt lat="44.31527" lon="6.82196">
        <time>2023-04-10T10:18:37+00:00</time>
        <ele>2713.0</ele>
      </trkpt>
      <trkpt lat="44.31527" lon="6.82196">
        <time>2023-04-10T10:18:38+00:00</time>
        <ele>2713.0</ele>
      </trkpt>
      <trkpt lat="44.31527" lon="6.82196">
        <time>2023-04-10T10:18:39+00:00</time>
        <ele>2713.0</ele>
      </trkpt>
      <trkpt lat="44.31527" lon="6.82196">
        <time>2023-04-10T10:18:40+00:00</time>
        <ele>2713.0</ele>
      </trkpt>
      <trkpt lat="44.31527" lon="6.82196">
        <time>2023-04-10T10:18:41+00:00</time>
        <ele>2713.0</ele>
      </trkpt>
      <trkpt lat="44.31527" lon="6.82196">
        <time>2023-04-10T10:18:42+00:00</time>
        <ele>2713.0</ele>
      </trkpt>
      <trkpt lat="44.31527" lon="6.82196">
        <time>2023-04-10T10:18:43+00:00</time>
        <ele>2713.0</ele>
      </trkpt>
      <trkpt lat="44.31527" lon="6.82196">
        <time>2023-04-10T10:18:44+00:00</time>
        <ele>2713.0</ele>
      </trkpt>
      <trkpt lat="44.31527" lon="6.82196">
        <time>2023-04-10T10:18:45+00:00</time>
        <ele>2713.0</ele>
      </trkpt>
      <trkpt lat="44.31527" lon="6.82196">
        <time>2023-04-10T10:18:46+00:00</time>
        <ele>2713.0</ele>
      </trkpt>
      <trkpt lat="44.31527" lon="6.82196">
        <time>2023-04-10T10:18:47+00:00</time>
        <ele>2713.0</ele>
      </trkpt>
      <trkpt lat="44.31527" lon="6.82196">
        <time>2023-04-10T10:18:48+00:00</time>
        <ele>2713.0</ele>
      </trkpt>
      <trkpt lat="44.31527" lon="6.82196">
        <time>2023-04-10T10:18:49+00:00</time>
        <ele>2713.0</ele>
      </trkpt>
      <trkpt lat="44.31527" lon="6.82196">
        <time>2023-04-10T10:18:50+00:00</time>
        <ele>2713.0</ele>
      </trkpt>
      <trkpt lat="44.31527" lon="6.82199">
        <time>2023-04-10T10:18:51+00:00</time>
        <ele>2712.0</ele>
      </trkpt>
      <trkpt lat="44.31527" lon="6.82199">
        <time>2023-04-10T10:18:52+00:00</time>
        <ele>2712.0</ele>
      </trkpt>
      <trkpt lat="44.31527" lon="6.82199">
        <time>2023-04-10T10:18:53+00:00</time>
        <ele>2712.0</ele>
      </trkpt>
      <trkpt lat="44.31527" lon="6.82199">
        <time>2023-04-10T10:18:54+00:00</time>
        <ele>2712.0</ele>
      </trkpt>
      <trkpt lat="44.31527" lon="6.82199">
        <time>2023-04-10T10:18:55+00:00</time>
        <ele>2712.0</ele>
      </trkpt>
      <trkpt lat="44.31525" lon="6.82201">
        <time>2023-04-10T10:18:56+00:00</time>
        <ele>2711.0</ele>
      </trkpt>
      <trkpt lat="44.31525" lon="6.82201">
        <time>2023-04-10T10:18:57+00:00</time>
        <ele>2711.0</ele>
      </trkpt>
      <trkpt lat="44.31525" lon="6.82201">
        <time>2023-04-10T10:18:58+00:00</time>
        <ele>2711.0</ele>
      </trkpt>
      <trkpt lat="44.31525" lon="6.82201">
        <time>2023-04-10T10:18:59+00:00</time>
        <ele>2711.0</ele>
      </trkpt>
      <trkpt lat="44.31525" lon="6.82201">
        <time>2023-04-10T10:19:00+00:00</time>
        <ele>2711.0</ele>
      </trkpt>
      <trkpt lat="44.31525" lon="6.82201">
        <time>2023-04-10T10:19:01+00:00</time>
        <ele>2711.0</ele>
      </trkpt>
      <trkpt lat="44.31525" lon="6.82201">
        <time>2023-04-10T10:19:02+00:00</time>
        <ele>2711.0</ele>
      </trkpt>
      <trkpt lat="44.31525" lon="6.82201">
        <time>2023-04-10T10:19:03+00:00</time>
        <ele>2711.0</ele>
      </trkpt>
      <trkpt lat="44.31525" lon="6.82201">
        <time>2023-04-10T10:19:04+00:00</time>
        <ele>2711.0</ele>
      </trkpt>
      <trkpt lat="44.31525" lon="6.82201">
        <time>2023-04-10T10:19:05+00:00</time>
        <ele>2711.0</ele>
      </trkpt>
      <trkpt lat="44.31525" lon="6.82201">
        <time>2023-04-10T10:19:06+00:00</time>
        <ele>2711.0</ele>
      </trkpt>
      <trkpt lat="44.31525" lon="6.82201">
        <time>2023-04-10T10:19:07+00:00</time>
        <ele>2711.0</ele>
      </trkpt>
      <trkpt lat="44.31525" lon="6.82201">
        <time>2023-04-10T10:19:08+00:00</time>
        <ele>2711.0</ele>
      </trkpt>
      <trkpt lat="44.31525" lon="6.82201">
        <time>2023-04-10T10:19:09+00:00</time>
        <ele>2711.0</ele>
      </trkpt>
      <trkpt lat="44.31525" lon="6.82201">
        <time>2023-04-10T10:19:10+00:00</time>
        <ele>2711.0</ele>
      </trkpt>
      <trkpt lat="44.31525" lon="6.82201">
        <time>2023-04-10T10:19:11+00:00</time>
        <ele>2711.0</ele>
      </trkpt>
      <trkpt lat="44.31525" lon="6.82201">
        <time>2023-04-10T10:19:12+00:00</time>
        <ele>2711.0</ele>
      </trkpt>
      <trkpt lat="44.31525" lon="6.82201">
        <time>2023-04-10T10:19:13+00:00</time>
        <ele>2711.0</ele>
      </trkpt>
      <trkpt lat="44.31525" lon="6.82201">
        <time>2023-04-10T10:19:14+00:00</time>
        <ele>2711.0</ele>
      </trkpt>
      <trkpt lat="44.31525" lon="6.82201">
        <time>2023-04-10T10:19:15+00:00</time>
        <ele>2711.0</ele>
      </trkpt>
      <trkpt lat="44.31525" lon="6.82201">
        <time>2023-04-10T10:19:16+00:00</time>
        <ele>2711.0</ele>
      </trkpt>
      <trkpt lat="44.31525" lon="6.82201">
        <time>2023-04-10T10:19:17+00:00</time>
        <ele>2711.0</ele>
      </trkpt>
      <trkpt lat="44.31525" lon="6.82201">
        <time>2023-04-10T10:19:18+00:00</time>
        <ele>2711.0</ele>
      </trkpt>
      <trkpt lat="44.31525" lon="6.82201">
        <time>2023-04-10T10:19:19+00:00</time>
        <ele>2711.0</ele>
      </trkpt>
      <trkpt lat="44.31525" lon="6.82201">
        <time>2023-04-10T10:19:20+00:00</time>
        <ele>2711.0</ele>
      </trkpt>
      <trkpt lat="44.31525" lon="6.82201">
        <time>2023-04-10T10:19:21+00:00</time>
        <ele>2711.0</ele>
      </trkpt>
      <trkpt lat="44.31525" lon="6.82201">
        <time>2023-04-10T10:19:22+00:00</time>
        <ele>2711.0</ele>
      </trkpt>
      <trkpt lat="44.31525" lon="6.82201">
        <time>2023-04-10T10:19:23+00:00</time>
        <ele>2711.0</ele>
      </trkpt>
      <trkpt lat="44.31525" lon="6.82201">
        <time>2023-04-10T10:19:24+00:00</time>
        <ele>2711.0</ele>
      </trkpt>
      <trkpt lat="44.31525" lon="6.82201">
        <time>2023-04-10T10:19:25+00:00</time>
        <ele>2711.0</ele>
      </trkpt>
      <trkpt lat="44.31525" lon="6.82201">
        <time>2023-04-10T10:19:26+00:00</time>
        <ele>2711.0</ele>
      </trkpt>
      <trkpt lat="44.31525" lon="6.82201">
        <time>2023-04-10T10:19:27+00:00</time>
        <ele>2711.0</ele>
      </trkpt>
      <trkpt lat="44.31525" lon="6.82201">
        <time>2023-04-10T10:19:28+00:00</time>
        <ele>2711.0</ele>
      </trkpt>
      <trkpt lat="44.31525" lon="6.82201">
        <time>2023-04-10T10:19:29+00:00</time>
        <ele>2711.0</ele>
      </trkpt>
      <trkpt lat="44.31525" lon="6.82201">
        <time>2023-04-10T10:19:30+00:00</time>
        <ele>2711.0</ele>
      </trkpt>
      <trkpt lat="44.31525" lon="6.82201">
        <time>2023-04-10T10:19:31+00:00</time>
        <ele>2711.0</ele>
      </trkpt>
      <trkpt lat="44.31525" lon="6.82201">
        <time>2023-04-10T10:19:32+00:00</time>
        <ele>2711.0</ele>
      </trkpt>
      <trkpt lat="44.31525" lon="6.82201">
        <time>2023-04-10T10:19:33+00:00</time>
        <ele>2711.0</ele>
      </trkpt>
      <trkpt lat="44.31525" lon="6.82201">
        <time>2023-04-10T10:19:34+00:00</time>
        <ele>2711.0</ele>
      </trkpt>
      <trkpt lat="44.31525" lon="6.82201">
        <time>2023-04-10T10:19:35+00:00</time>
        <ele>2711.0</ele>
      </trkpt>
      <trkpt lat="44.31525" lon="6.82201">
        <time>2023-04-10T10:19:36+00:00</time>
        <ele>2711.0</ele>
      </trkpt>
      <trkpt lat="44.31525" lon="6.82201">
        <time>2023-04-10T10:19:37+00:00</time>
        <ele>2711.0</ele>
      </trkpt>
      <trkpt lat="44.31525" lon="6.82201">
        <time>2023-04-10T10:19:38+00:00</time>
        <ele>2711.0</ele>
      </trkpt>
      <trkpt lat="44.31525" lon="6.82201">
        <time>2023-04-10T10:19:39+00:00</time>
        <ele>2711.0</ele>
      </trkpt>
      <trkpt lat="44.31525" lon="6.82201">
        <time>2023-04-10T10:19:40+00:00</time>
        <ele>2711.0</ele>
      </trkpt>
      <trkpt lat="44.31525" lon="6.82201">
        <time>2023-04-10T10:19:41+00:00</time>
        <ele>2711.0</ele>
      </trkpt>
      <trkpt lat="44.31525" lon="6.82201">
        <time>2023-04-10T10:19:42+00:00</time>
        <ele>2711.0</ele>
      </trkpt>
      <trkpt lat="44.31525" lon="6.82201">
        <time>2023-04-10T10:19:43+00:00</time>
        <ele>2711.0</ele>
      </trkpt>
      <trkpt lat="44.31525" lon="6.82201">
        <time>2023-04-10T10:19:44+00:00</time>
        <ele>2711.0</ele>
      </trkpt>
      <trkpt lat="44.31525" lon="6.82201">
        <time>2023-04-10T10:19:45+00:00</time>
        <ele>2711.0</ele>
      </trkpt>
      <trkpt lat="44.31525" lon="6.82201">
        <time>2023-04-10T10:19:46+00:00</time>
        <ele>2711.0</ele>
      </trkpt>
      <trkpt lat="44.31525" lon="6.82201">
        <time>2023-04-10T10:19:47+00:00</time>
        <ele>2711.0</ele>
      </trkpt>
      <trkpt lat="44.31525" lon="6.82201">
        <time>2023-04-10T10:19:48+00:00</time>
        <ele>2711.0</ele>
      </trkpt>
      <trkpt lat="44.31525" lon="6.82201">
        <time>2023-04-10T10:19:49+00:00</time>
        <ele>2711.0</ele>
      </trkpt>
      <trkpt lat="44.31525" lon="6.82201">
        <time>2023-04-10T10:19:50+00:00</time>
        <ele>2711.0</ele>
      </trkpt>
      <trkpt lat="44.31525" lon="6.82201">
        <time>2023-04-10T10:19:51+00:00</time>
        <ele>2711.0</ele>
      </trkpt>
      <trkpt lat="44.31525" lon="6.82201">
        <time>2023-04-10T10:19:52+00:00</time>
        <ele>2711.0</ele>
      </trkpt>
      <trkpt lat="44.31525" lon="6.82201">
        <time>2023-04-10T10:19:53+00:00</time>
        <ele>2711.0</ele>
      </trkpt>
      <trkpt lat="44.31525" lon="6.82201">
        <time>2023-04-10T10:19:54+00:00</time>
        <ele>2711.0</ele>
      </trkpt>
      <trkpt lat="44.31525" lon="6.82201">
        <time>2023-04-10T10:19:55+00:00</time>
        <ele>2711.0</ele>
      </trkpt>
      <trkpt lat="44.31525" lon="6.82201">
        <time>2023-04-10T10:19:56+00:00</time>
        <ele>2711.0</ele>
      </trkpt>
      <trkpt lat="44.31525" lon="6.82201">
        <time>2023-04-10T10:19:57+00:00</time>
        <ele>2711.0</ele>
      </trkpt>
      <trkpt lat="44.31525" lon="6.82201">
        <time>2023-04-10T10:19:58+00:00</time>
        <ele>2711.0</ele>
      </trkpt>
      <trkpt lat="44.31525" lon="6.82201">
        <time>2023-04-10T10:19:59+00:00</time>
        <ele>2711.0</ele>
      </trkpt>
      <trkpt lat="44.31525" lon="6.82201">
        <time>2023-04-10T10:20:02+00:00</time>
        <ele>2711.0</ele>
      </trkpt>
      <trkpt lat="44.31525" lon="6.82201">
        <time>2023-04-10T10:20:03+00:00</time>
        <ele>2711.0</ele>
      </trkpt>
      <trkpt lat="44.31525" lon="6.82201">
        <time>2023-04-10T10:20:04+00:00</time>
        <ele>2711.0</ele>
      </trkpt>
      <trkpt lat="44.31525" lon="6.82201">
        <time>2023-04-10T10:20:05+00:00</time>
        <ele>2711.0</ele>
      </trkpt>
      <trkpt lat="44.31525" lon="6.82201">
        <time>2023-04-10T10:20:06+00:00</time>
        <ele>2711.0</ele>
      </trkpt>
      <trkpt lat="44.31525" lon="6.82201">
        <time>2023-04-10T10:20:07+00:00</time>
        <ele>2711.0</ele>
      </trkpt>
      <trkpt lat="44.31525" lon="6.82201">
        <time>2023-04-10T10:20:08+00:00</time>
        <ele>2711.0</ele>
      </trkpt>
      <trkpt lat="44.31525" lon="6.82201">
        <time>2023-04-10T10:20:09+00:00</time>
        <ele>2711.0</ele>
      </trkpt>
      <trkpt lat="44.31525" lon="6.82201">
        <time>2023-04-10T10:20:10+00:00</time>
        <ele>2711.0</ele>
      </trkpt>
      <trkpt lat="44.31525" lon="6.82201">
        <time>2023-04-10T10:20:11+00:00</time>
        <ele>2711.0</ele>
      </trkpt>
      <trkpt lat="44.31525" lon="6.82201">
        <time>2023-04-10T10:20:12+00:00</time>
        <ele>2711.0</ele>
      </trkpt>
      <trkpt lat="44.31525" lon="6.82201">
        <time>2023-04-10T10:20:13+00:00</time>
        <ele>2711.0</ele>
      </trkpt>
      <trkpt lat="44.31525" lon="6.82201">
        <time>2023-04-10T10:20:14+00:00</time>
        <ele>2711.0</ele>
      </trkpt>
      <trkpt lat="44.31525" lon="6.82201">
        <time>2023-04-10T10:20:15+00:00</time>
        <ele>2711.0</ele>
      </trkpt>
      <trkpt lat="44.31525" lon="6.82201">
        <time>2023-04-10T10:20:16+00:00</time>
        <ele>2711.0</ele>
      </trkpt>
      <trkpt lat="44.31525" lon="6.82201">
        <time>2023-04-10T10:20:17+00:00</time>
        <ele>2711.0</ele>
      </trkpt>
      <trkpt lat="44.31525" lon="6.82201">
        <time>2023-04-10T10:20:18+00:00</time>
        <ele>2711.0</ele>
      </trkpt>
      <trkpt lat="44.31525" lon="6.82201">
        <time>2023-04-10T10:20:19+00:00</time>
        <ele>2711.0</ele>
      </trkpt>
      <trkpt lat="44.31525" lon="6.82201">
        <time>2023-04-10T10:20:20+00:00</time>
        <ele>2711.0</ele>
      </trkpt>
      <trkpt lat="44.31525" lon="6.82201">
        <time>2023-04-10T10:20:21+00:00</time>
        <ele>2711.0</ele>
      </trkpt>
      <trkpt lat="44.31525" lon="6.82201">
        <time>2023-04-10T10:20:22+00:00</time>
        <ele>2711.0</ele>
      </trkpt>
      <trkpt lat="44.31525" lon="6.82201">
        <time>2023-04-10T10:20:23+00:00</time>
        <ele>2711.0</ele>
      </trkpt>
      <trkpt lat="44.31525" lon="6.82201">
        <time>2023-04-10T10:20:24+00:00</time>
        <ele>2711.0</ele>
      </trkpt>
      <trkpt lat="44.31525" lon="6.82201">
        <time>2023-04-10T10:20:25+00:00</time>
        <ele>2711.0</ele>
      </trkpt>
      <trkpt lat="44.31525" lon="6.82201">
        <time>2023-04-10T10:20:26+00:00</time>
        <ele>2711.0</ele>
      </trkpt>
      <trkpt lat="44.31525" lon="6.82201">
        <time>2023-04-10T10:20:27+00:00</time>
        <ele>2711.0</ele>
      </trkpt>
      <trkpt lat="44.31525" lon="6.82201">
        <time>2023-04-10T10:20:28+00:00</time>
        <ele>2711.0</ele>
      </trkpt>
      <trkpt lat="44.31525" lon="6.82201">
        <time>2023-04-10T10:20:29+00:00</time>
        <ele>2711.0</ele>
      </trkpt>
      <trkpt lat="44.31525" lon="6.82201">
        <time>2023-04-10T10:20:30+00:00</time>
        <ele>2711.0</ele>
      </trkpt>
      <trkpt lat="44.31525" lon="6.82201">
        <time>2023-04-10T10:20:31+00:00</time>
        <ele>2711.0</ele>
      </trkpt>
      <trkpt lat="44.31525" lon="6.82201">
        <time>2023-04-10T10:20:32+00:00</time>
        <ele>2711.0</ele>
      </trkpt>
      <trkpt lat="44.31525" lon="6.82201">
        <time>2023-04-10T10:20:33+00:00</time>
        <ele>2711.0</ele>
      </trkpt>
      <trkpt lat="44.31525" lon="6.82201">
        <time>2023-04-10T10:20:34+00:00</time>
        <ele>2711.0</ele>
      </trkpt>
      <trkpt lat="44.31525" lon="6.82201">
        <time>2023-04-10T10:20:35+00:00</time>
        <ele>2711.0</ele>
      </trkpt>
      <trkpt lat="44.31525" lon="6.82201">
        <time>2023-04-10T10:20:36+00:00</time>
        <ele>2711.0</ele>
      </trkpt>
      <trkpt lat="44.31525" lon="6.82201">
        <time>2023-04-10T10:20:37+00:00</time>
        <ele>2711.0</ele>
      </trkpt>
      <trkpt lat="44.31525" lon="6.82201">
        <time>2023-04-10T10:20:38+00:00</time>
        <ele>2711.0</ele>
      </trkpt>
      <trkpt lat="44.31525" lon="6.82201">
        <time>2023-04-10T10:20:39+00:00</time>
        <ele>2711.0</ele>
      </trkpt>
      <trkpt lat="44.31525" lon="6.82201">
        <time>2023-04-10T10:20:40+00:00</time>
        <ele>2711.0</ele>
      </trkpt>
      <trkpt lat="44.31525" lon="6.82201">
        <time>2023-04-10T10:20:41+00:00</time>
        <ele>2711.0</ele>
      </trkpt>
      <trkpt lat="44.31525" lon="6.82201">
        <time>2023-04-10T10:20:42+00:00</time>
        <ele>2711.0</ele>
      </trkpt>
      <trkpt lat="44.31525" lon="6.82201">
        <time>2023-04-10T10:20:43+00:00</time>
        <ele>2711.0</ele>
      </trkpt>
      <trkpt lat="44.31525" lon="6.82201">
        <time>2023-04-10T10:20:44+00:00</time>
        <ele>2711.0</ele>
      </trkpt>
      <trkpt lat="44.31525" lon="6.82201">
        <time>2023-04-10T10:20:45+00:00</time>
        <ele>2711.0</ele>
      </trkpt>
      <trkpt lat="44.31525" lon="6.82201">
        <time>2023-04-10T10:20:46+00:00</time>
        <ele>2711.0</ele>
      </trkpt>
      <trkpt lat="44.31525" lon="6.82201">
        <time>2023-04-10T10:20:47+00:00</time>
        <ele>2711.0</ele>
      </trkpt>
      <trkpt lat="44.31525" lon="6.82201">
        <time>2023-04-10T10:20:48+00:00</time>
        <ele>2711.0</ele>
      </trkpt>
      <trkpt lat="44.31525" lon="6.82201">
        <time>2023-04-10T10:20:49+00:00</time>
        <ele>2711.0</ele>
      </trkpt>
      <trkpt lat="44.31525" lon="6.82201">
        <time>2023-04-10T10:20:50+00:00</time>
        <ele>2711.0</ele>
      </trkpt>
      <trkpt lat="44.31525" lon="6.82201">
        <time>2023-04-10T10:20:51+00:00</time>
        <ele>2711.0</ele>
      </trkpt>
      <trkpt lat="44.31525" lon="6.82201">
        <time>2023-04-10T10:20:52+00:00</time>
        <ele>2711.0</ele>
      </trkpt>
      <trkpt lat="44.31525" lon="6.82201">
        <time>2023-04-10T10:20:53+00:00</time>
        <ele>2711.0</ele>
      </trkpt>
      <trkpt lat="44.31525" lon="6.82201">
        <time>2023-04-10T10:20:54+00:00</time>
        <ele>2711.0</ele>
      </trkpt>
      <trkpt lat="44.31525" lon="6.82201">
        <time>2023-04-10T10:20:55+00:00</time>
        <ele>2711.0</ele>
      </trkpt>
      <trkpt lat="44.31525" lon="6.82201">
        <time>2023-04-10T10:20:56+00:00</time>
        <ele>2711.0</ele>
      </trkpt>
      <trkpt lat="44.31525" lon="6.82201">
        <time>2023-04-10T10:20:57+00:00</time>
        <ele>2711.0</ele>
      </trkpt>
      <trkpt lat="44.31525" lon="6.82201">
        <time>2023-04-10T10:20:58+00:00</time>
        <ele>2711.0</ele>
      </trkpt>
      <trkpt lat="44.31525" lon="6.82201">
        <time>2023-04-10T10:20:59+00:00</time>
        <ele>2711.0</ele>
      </trkpt>
      <trkpt lat="44.31525" lon="6.82201">
        <time>2023-04-10T10:21:00+00:00</time>
        <ele>2711.0</ele>
      </trkpt>
      <trkpt lat="44.31525" lon="6.82201">
        <time>2023-04-10T10:21:01+00:00</time>
        <ele>2711.0</ele>
      </trkpt>
      <trkpt lat="44.31525" lon="6.82201">
        <time>2023-04-10T10:21:02+00:00</time>
        <ele>2711.0</ele>
      </trkpt>
      <trkpt lat="44.31525" lon="6.82201">
        <time>2023-04-10T10:21:03+00:00</time>
        <ele>2711.0</ele>
      </trkpt>
      <trkpt lat="44.31525" lon="6.82201">
        <time>2023-04-10T10:21:04+00:00</time>
        <ele>2711.0</ele>
      </trkpt>
      <trkpt lat="44.31525" lon="6.82201">
        <time>2023-04-10T10:21:05+00:00</time>
        <ele>2711.0</ele>
      </trkpt>
      <trkpt lat="44.31525" lon="6.82201">
        <time>2023-04-10T10:21:08+00:00</time>
        <ele>2711.0</ele>
      </trkpt>
      <trkpt lat="44.31525" lon="6.82201">
        <time>2023-04-10T10:21:09+00:00</time>
        <ele>2711.0</ele>
      </trkpt>
      <trkpt lat="44.31525" lon="6.82201">
        <time>2023-04-10T10:21:10+00:00</time>
        <ele>2711.0</ele>
      </trkpt>
      <trkpt lat="44.31525" lon="6.82201">
        <time>2023-04-10T10:21:11+00:00</time>
        <ele>2711.0</ele>
      </trkpt>
      <trkpt lat="44.31525" lon="6.82201">
        <time>2023-04-10T10:21:12+00:00</time>
        <ele>2711.0</ele>
      </trkpt>
      <trkpt lat="44.31525" lon="6.82201">
        <time>2023-04-10T10:21:13+00:00</time>
        <ele>2711.0</ele>
      </trkpt>
      <trkpt lat="44.31525" lon="6.82201">
        <time>2023-04-10T10:21:14+00:00</time>
        <ele>2711.0</ele>
      </trkpt>
      <trkpt lat="44.31525" lon="6.82201">
        <time>2023-04-10T10:21:15+00:00</time>
        <ele>2711.0</ele>
      </trkpt>
      <trkpt lat="44.31525" lon="6.82201">
        <time>2023-04-10T10:21:16+00:00</time>
        <ele>2711.0</ele>
      </trkpt>
      <trkpt lat="44.31525" lon="6.82201">
        <time>2023-04-10T10:21:17+00:00</time>
        <ele>2711.0</ele>
      </trkpt>
      <trkpt lat="44.31525" lon="6.82201">
        <time>2023-04-10T10:21:18+00:00</time>
        <ele>2711.0</ele>
      </trkpt>
      <trkpt lat="44.31525" lon="6.82201">
        <time>2023-04-10T10:21:19+00:00</time>
        <ele>2711.0</ele>
      </trkpt>
      <trkpt lat="44.31525" lon="6.82201">
        <time>2023-04-10T10:21:20+00:00</time>
        <ele>2711.0</ele>
      </trkpt>
      <trkpt lat="44.31525" lon="6.82201">
        <time>2023-04-10T10:21:21+00:00</time>
        <ele>2711.0</ele>
      </trkpt>
      <trkpt lat="44.31525" lon="6.82201">
        <time>2023-04-10T10:21:22+00:00</time>
        <ele>2711.0</ele>
      </trkpt>
      <trkpt lat="44.31525" lon="6.82201">
        <time>2023-04-10T10:21:23+00:00</time>
        <ele>2711.0</ele>
      </trkpt>
      <trkpt lat="44.31525" lon="6.82201">
        <time>2023-04-10T10:21:24+00:00</time>
        <ele>2711.0</ele>
      </trkpt>
      <trkpt lat="44.31525" lon="6.82201">
        <time>2023-04-10T10:21:25+00:00</time>
        <ele>2711.0</ele>
      </trkpt>
      <trkpt lat="44.31525" lon="6.82201">
        <time>2023-04-10T10:21:26+00:00</time>
        <ele>2711.0</ele>
      </trkpt>
      <trkpt lat="44.31525" lon="6.82201">
        <time>2023-04-10T10:21:27+00:00</time>
        <ele>2711.0</ele>
      </trkpt>
      <trkpt lat="44.31525" lon="6.82201">
        <time>2023-04-10T10:21:28+00:00</time>
        <ele>2711.0</ele>
      </trkpt>
      <trkpt lat="44.31525" lon="6.82201">
        <time>2023-04-10T10:21:29+00:00</time>
        <ele>2711.0</ele>
      </trkpt>
      <trkpt lat="44.31525" lon="6.82201">
        <time>2023-04-10T10:21:30+00:00</time>
        <ele>2711.0</ele>
      </trkpt>
      <trkpt lat="44.31525" lon="6.82201">
        <time>2023-04-10T10:21:31+00:00</time>
        <ele>2711.0</ele>
      </trkpt>
      <trkpt lat="44.31525" lon="6.82201">
        <time>2023-04-10T10:21:32+00:00</time>
        <ele>2711.0</ele>
      </trkpt>
      <trkpt lat="44.31525" lon="6.82201">
        <time>2023-04-10T10:21:33+00:00</time>
        <ele>2711.0</ele>
      </trkpt>
      <trkpt lat="44.31525" lon="6.82201">
        <time>2023-04-10T10:21:34+00:00</time>
        <ele>2711.0</ele>
      </trkpt>
      <trkpt lat="44.31525" lon="6.82201">
        <time>2023-04-10T10:21:35+00:00</time>
        <ele>2711.0</ele>
      </trkpt>
      <trkpt lat="44.31525" lon="6.82201">
        <time>2023-04-10T10:21:36+00:00</time>
        <ele>2711.0</ele>
      </trkpt>
      <trkpt lat="44.31525" lon="6.82201">
        <time>2023-04-10T10:21:37+00:00</time>
        <ele>2711.0</ele>
      </trkpt>
      <trkpt lat="44.31525" lon="6.82201">
        <time>2023-04-10T10:21:38+00:00</time>
        <ele>2711.0</ele>
      </trkpt>
      <trkpt lat="44.31525" lon="6.82201">
        <time>2023-04-10T10:21:39+00:00</time>
        <ele>2711.0</ele>
      </trkpt>
      <trkpt lat="44.31525" lon="6.82201">
        <time>2023-04-10T10:21:40+00:00</time>
        <ele>2711.0</ele>
      </trkpt>
      <trkpt lat="44.31525" lon="6.82201">
        <time>2023-04-10T10:21:41+00:00</time>
        <ele>2711.0</ele>
      </trkpt>
      <trkpt lat="44.31525" lon="6.82201">
        <time>2023-04-10T10:21:42+00:00</time>
        <ele>2711.0</ele>
      </trkpt>
      <trkpt lat="44.31525" lon="6.82201">
        <time>2023-04-10T10:21:43+00:00</time>
        <ele>2711.0</ele>
      </trkpt>
      <trkpt lat="44.31525" lon="6.82201">
        <time>2023-04-10T10:21:44+00:00</time>
        <ele>2711.0</ele>
      </trkpt>
      <trkpt lat="44.31525" lon="6.82201">
        <time>2023-04-10T10:21:45+00:00</time>
        <ele>2711.0</ele>
      </trkpt>
      <trkpt lat="44.31525" lon="6.82201">
        <time>2023-04-10T10:21:46+00:00</time>
        <ele>2711.0</ele>
      </trkpt>
      <trkpt lat="44.31525" lon="6.82201">
        <time>2023-04-10T10:21:47+00:00</time>
        <ele>2711.0</ele>
      </trkpt>
      <trkpt lat="44.31525" lon="6.82201">
        <time>2023-04-10T10:21:48+00:00</time>
        <ele>2711.0</ele>
      </trkpt>
      <trkpt lat="44.31525" lon="6.82201">
        <time>2023-04-10T10:21:49+00:00</time>
        <ele>2711.0</ele>
      </trkpt>
      <trkpt lat="44.31525" lon="6.82201">
        <time>2023-04-10T10:21:50+00:00</time>
        <ele>2711.0</ele>
      </trkpt>
      <trkpt lat="44.31525" lon="6.82201">
        <time>2023-04-10T10:21:51+00:00</time>
        <ele>2711.0</ele>
      </trkpt>
      <trkpt lat="44.31525" lon="6.82201">
        <time>2023-04-10T10:21:52+00:00</time>
        <ele>2711.0</ele>
      </trkpt>
      <trkpt lat="44.31525" lon="6.82201">
        <time>2023-04-10T10:21:53+00:00</time>
        <ele>2711.0</ele>
      </trkpt>
      <trkpt lat="44.31525" lon="6.82201">
        <time>2023-04-10T10:21:54+00:00</time>
        <ele>2711.0</ele>
      </trkpt>
      <trkpt lat="44.31525" lon="6.82201">
        <time>2023-04-10T10:21:55+00:00</time>
        <ele>2711.0</ele>
      </trkpt>
      <trkpt lat="44.31525" lon="6.82201">
        <time>2023-04-10T10:21:56+00:00</time>
        <ele>2711.0</ele>
      </trkpt>
      <trkpt lat="44.31525" lon="6.82201">
        <time>2023-04-10T10:21:57+00:00</time>
        <ele>2711.0</ele>
      </trkpt>
      <trkpt lat="44.31525" lon="6.82201">
        <time>2023-04-10T10:21:58+00:00</time>
        <ele>2711.0</ele>
      </trkpt>
      <trkpt lat="44.31525" lon="6.82201">
        <time>2023-04-10T10:21:59+00:00</time>
        <ele>2711.0</ele>
      </trkpt>
      <trkpt lat="44.31525" lon="6.82201">
        <time>2023-04-10T10:22:00+00:00</time>
        <ele>2711.0</ele>
      </trkpt>
      <trkpt lat="44.31525" lon="6.82201">
        <time>2023-04-10T10:22:01+00:00</time>
        <ele>2711.0</ele>
      </trkpt>
      <trkpt lat="44.31525" lon="6.82201">
        <time>2023-04-10T10:22:02+00:00</time>
        <ele>2711.0</ele>
      </trkpt>
      <trkpt lat="44.31525" lon="6.82201">
        <time>2023-04-10T10:22:03+00:00</time>
        <ele>2711.0</ele>
      </trkpt>
      <trkpt lat="44.31525" lon="6.82201">
        <time>2023-04-10T10:22:04+00:00</time>
        <ele>2711.0</ele>
      </trkpt>
      <trkpt lat="44.31525" lon="6.82201">
        <time>2023-04-10T10:22:05+00:00</time>
        <ele>2711.0</ele>
      </trkpt>
      <trkpt lat="44.31525" lon="6.82201">
        <time>2023-04-10T10:22:06+00:00</time>
        <ele>2711.0</ele>
      </trkpt>
      <trkpt lat="44.31525" lon="6.82201">
        <time>2023-04-10T10:22:07+00:00</time>
        <ele>2711.0</ele>
      </trkpt>
      <trkpt lat="44.31525" lon="6.82201">
        <time>2023-04-10T10:22:08+00:00</time>
        <ele>2711.0</ele>
      </trkpt>
      <trkpt lat="44.31525" lon="6.82201">
        <time>2023-04-10T10:22:09+00:00</time>
        <ele>2711.0</ele>
      </trkpt>
      <trkpt lat="44.31525" lon="6.82201">
        <time>2023-04-10T10:22:10+00:00</time>
        <ele>2711.0</ele>
      </trkpt>
      <trkpt lat="44.31525" lon="6.82201">
        <time>2023-04-10T10:22:11+00:00</time>
        <ele>2711.0</ele>
      </trkpt>
      <trkpt lat="44.31525" lon="6.82201">
        <time>2023-04-10T10:22:12+00:00</time>
        <ele>2711.0</ele>
      </trkpt>
      <trkpt lat="44.31525" lon="6.82201">
        <time>2023-04-10T10:22:13+00:00</time>
        <ele>2711.0</ele>
      </trkpt>
      <trkpt lat="44.31525" lon="6.82201">
        <time>2023-04-10T10:22:14+00:00</time>
        <ele>2711.0</ele>
      </trkpt>
      <trkpt lat="44.31525" lon="6.82201">
        <time>2023-04-10T10:22:15+00:00</time>
        <ele>2711.0</ele>
      </trkpt>
      <trkpt lat="44.31525" lon="6.82201">
        <time>2023-04-10T10:22:16+00:00</time>
        <ele>2711.0</ele>
      </trkpt>
      <trkpt lat="44.31525" lon="6.82201">
        <time>2023-04-10T10:22:17+00:00</time>
        <ele>2711.0</ele>
      </trkpt>
      <trkpt lat="44.31525" lon="6.82201">
        <time>2023-04-10T10:22:18+00:00</time>
        <ele>2711.0</ele>
      </trkpt>
      <trkpt lat="44.31525" lon="6.82201">
        <time>2023-04-10T10:22:19+00:00</time>
        <ele>2711.0</ele>
      </trkpt>
      <trkpt lat="44.31525" lon="6.82201">
        <time>2023-04-10T10:22:20+00:00</time>
        <ele>2711.0</ele>
      </trkpt>
      <trkpt lat="44.31525" lon="6.82201">
        <time>2023-04-10T10:22:21+00:00</time>
        <ele>2711.0</ele>
      </trkpt>
      <trkpt lat="44.31525" lon="6.82201">
        <time>2023-04-10T10:22:22+00:00</time>
        <ele>2711.0</ele>
      </trkpt>
      <trkpt lat="44.31525" lon="6.82201">
        <time>2023-04-10T10:22:23+00:00</time>
        <ele>2711.0</ele>
      </trkpt>
      <trkpt lat="44.31525" lon="6.82201">
        <time>2023-04-10T10:22:24+00:00</time>
        <ele>2711.0</ele>
      </trkpt>
      <trkpt lat="44.31525" lon="6.82201">
        <time>2023-04-10T10:22:25+00:00</time>
        <ele>2711.0</ele>
      </trkpt>
      <trkpt lat="44.31525" lon="6.82201">
        <time>2023-04-10T10:22:26+00:00</time>
        <ele>2711.0</ele>
      </trkpt>
      <trkpt lat="44.31525" lon="6.82201">
        <time>2023-04-10T10:22:27+00:00</time>
        <ele>2711.0</ele>
      </trkpt>
      <trkpt lat="44.31525" lon="6.82201">
        <time>2023-04-10T10:22:28+00:00</time>
        <ele>2711.0</ele>
      </trkpt>
      <trkpt lat="44.31525" lon="6.82201">
        <time>2023-04-10T10:22:29+00:00</time>
        <ele>2711.0</ele>
      </trkpt>
      <trkpt lat="44.31525" lon="6.82201">
        <time>2023-04-10T10:22:30+00:00</time>
        <ele>2711.0</ele>
      </trkpt>
      <trkpt lat="44.31525" lon="6.82201">
        <time>2023-04-10T10:22:31+00:00</time>
        <ele>2711.0</ele>
      </trkpt>
      <trkpt lat="44.31525" lon="6.82201">
        <time>2023-04-10T10:22:32+00:00</time>
        <ele>2711.0</ele>
      </trkpt>
      <trkpt lat="44.31525" lon="6.82201">
        <time>2023-04-10T10:22:33+00:00</time>
        <ele>2711.0</ele>
      </trkpt>
      <trkpt lat="44.31525" lon="6.82201">
        <time>2023-04-10T10:22:34+00:00</time>
        <ele>2711.0</ele>
      </trkpt>
      <trkpt lat="44.31525" lon="6.82201">
        <time>2023-04-10T10:22:35+00:00</time>
        <ele>2711.0</ele>
      </trkpt>
      <trkpt lat="44.31525" lon="6.82201">
        <time>2023-04-10T10:22:36+00:00</time>
        <ele>2711.0</ele>
      </trkpt>
      <trkpt lat="44.31525" lon="6.82201">
        <time>2023-04-10T10:22:37+00:00</time>
        <ele>2711.0</ele>
      </trkpt>
      <trkpt lat="44.31525" lon="6.82201">
        <time>2023-04-10T10:22:38+00:00</time>
        <ele>2711.0</ele>
      </trkpt>
      <trkpt lat="44.31525" lon="6.82201">
        <time>2023-04-10T10:22:39+00:00</time>
        <ele>2711.0</ele>
      </trkpt>
      <trkpt lat="44.31525" lon="6.82201">
        <time>2023-04-10T10:22:40+00:00</time>
        <ele>2711.0</ele>
      </trkpt>
      <trkpt lat="44.31525" lon="6.82201">
        <time>2023-04-10T10:22:41+00:00</time>
        <ele>2711.0</ele>
      </trkpt>
      <trkpt lat="44.31525" lon="6.82201">
        <time>2023-04-10T10:22:42+00:00</time>
        <ele>2711.0</ele>
      </trkpt>
      <trkpt lat="44.31525" lon="6.82201">
        <time>2023-04-10T10:22:43+00:00</time>
        <ele>2711.0</ele>
      </trkpt>
      <trkpt lat="44.31525" lon="6.82201">
        <time>2023-04-10T10:22:44+00:00</time>
        <ele>2711.0</ele>
      </trkpt>
      <trkpt lat="44.31525" lon="6.82201">
        <time>2023-04-10T10:22:45+00:00</time>
        <ele>2711.0</ele>
      </trkpt>
      <trkpt lat="44.31525" lon="6.82201">
        <time>2023-04-10T10:22:46+00:00</time>
        <ele>2711.0</ele>
      </trkpt>
      <trkpt lat="44.31525" lon="6.82201">
        <time>2023-04-10T10:22:47+00:00</time>
        <ele>2711.0</ele>
      </trkpt>
      <trkpt lat="44.31525" lon="6.82201">
        <time>2023-04-10T10:22:48+00:00</time>
        <ele>2711.0</ele>
      </trkpt>
      <trkpt lat="44.31525" lon="6.82201">
        <time>2023-04-10T10:22:49+00:00</time>
        <ele>2711.0</ele>
      </trkpt>
      <trkpt lat="44.31525" lon="6.82201">
        <time>2023-04-10T10:22:50+00:00</time>
        <ele>2711.0</ele>
      </trkpt>
      <trkpt lat="44.31525" lon="6.82201">
        <time>2023-04-10T10:22:51+00:00</time>
        <ele>2711.0</ele>
      </trkpt>
      <trkpt lat="44.31525" lon="6.82201">
        <time>2023-04-10T10:22:52+00:00</time>
        <ele>2711.0</ele>
      </trkpt>
      <trkpt lat="44.31525" lon="6.82201">
        <time>2023-04-10T10:22:53+00:00</time>
        <ele>2711.0</ele>
      </trkpt>
      <trkpt lat="44.31525" lon="6.82201">
        <time>2023-04-10T10:22:54+00:00</time>
        <ele>2711.0</ele>
      </trkpt>
      <trkpt lat="44.31525" lon="6.82201">
        <time>2023-04-10T10:22:55+00:00</time>
        <ele>2711.0</ele>
      </trkpt>
      <trkpt lat="44.31525" lon="6.82201">
        <time>2023-04-10T10:22:56+00:00</time>
        <ele>2711.0</ele>
      </trkpt>
      <trkpt lat="44.31525" lon="6.82201">
        <time>2023-04-10T10:22:57+00:00</time>
        <ele>2711.0</ele>
      </trkpt>
      <trkpt lat="44.31525" lon="6.82201">
        <time>2023-04-10T10:22:58+00:00</time>
        <ele>2711.0</ele>
      </trkpt>
      <trkpt lat="44.31525" lon="6.82201">
        <time>2023-04-10T10:22:59+00:00</time>
        <ele>2711.0</ele>
      </trkpt>
      <trkpt lat="44.31525" lon="6.82201">
        <time>2023-04-10T10:23:00+00:00</time>
        <ele>2711.0</ele>
      </trkpt>
      <trkpt lat="44.31525" lon="6.82201">
        <time>2023-04-10T10:23:01+00:00</time>
        <ele>2711.0</ele>
      </trkpt>
      <trkpt lat="44.31525" lon="6.82201">
        <time>2023-04-10T10:23:02+00:00</time>
        <ele>2711.0</ele>
      </trkpt>
      <trkpt lat="44.31525" lon="6.82201">
        <time>2023-04-10T10:23:03+00:00</time>
        <ele>2711.0</ele>
      </trkpt>
      <trkpt lat="44.31525" lon="6.82201">
        <time>2023-04-10T10:23:04+00:00</time>
        <ele>2711.0</ele>
      </trkpt>
      <trkpt lat="44.31525" lon="6.82201">
        <time>2023-04-10T10:23:05+00:00</time>
        <ele>2711.0</ele>
      </trkpt>
      <trkpt lat="44.31525" lon="6.82201">
        <time>2023-04-10T10:23:06+00:00</time>
        <ele>2711.0</ele>
      </trkpt>
      <trkpt lat="44.31525" lon="6.82201">
        <time>2023-04-10T10:23:07+00:00</time>
        <ele>2711.0</ele>
      </trkpt>
      <trkpt lat="44.31525" lon="6.82201">
        <time>2023-04-10T10:23:08+00:00</time>
        <ele>2711.0</ele>
      </trkpt>
      <trkpt lat="44.31525" lon="6.82201">
        <time>2023-04-10T10:23:09+00:00</time>
        <ele>2711.0</ele>
      </trkpt>
      <trkpt lat="44.31525" lon="6.82201">
        <time>2023-04-10T10:23:10+00:00</time>
        <ele>2711.0</ele>
      </trkpt>
      <trkpt lat="44.31525" lon="6.82201">
        <time>2023-04-10T10:23:11+00:00</time>
        <ele>2711.0</ele>
      </trkpt>
      <trkpt lat="44.31525" lon="6.82201">
        <time>2023-04-10T10:23:12+00:00</time>
        <ele>2711.0</ele>
      </trkpt>
      <trkpt lat="44.31525" lon="6.82201">
        <time>2023-04-10T10:23:13+00:00</time>
        <ele>2711.0</ele>
      </trkpt>
      <trkpt lat="44.31525" lon="6.82201">
        <time>2023-04-10T10:23:14+00:00</time>
        <ele>2711.0</ele>
      </trkpt>
      <trkpt lat="44.31525" lon="6.82201">
        <time>2023-04-10T10:23:15+00:00</time>
        <ele>2711.0</ele>
      </trkpt>
      <trkpt lat="44.31525" lon="6.82201">
        <time>2023-04-10T10:23:16+00:00</time>
        <ele>2711.0</ele>
      </trkpt>
      <trkpt lat="44.31525" lon="6.82201">
        <time>2023-04-10T10:23:17+00:00</time>
        <ele>2711.0</ele>
      </trkpt>
      <trkpt lat="44.31525" lon="6.82201">
        <time>2023-04-10T10:23:18+00:00</time>
        <ele>2711.0</ele>
      </trkpt>
      <trkpt lat="44.31525" lon="6.82201">
        <time>2023-04-10T10:23:19+00:00</time>
        <ele>2711.0</ele>
      </trkpt>
      <trkpt lat="44.31525" lon="6.82201">
        <time>2023-04-10T10:23:20+00:00</time>
        <ele>2711.0</ele>
      </trkpt>
      <trkpt lat="44.31525" lon="6.82201">
        <time>2023-04-10T10:23:21+00:00</time>
        <ele>2711.0</ele>
      </trkpt>
      <trkpt lat="44.31525" lon="6.82201">
        <time>2023-04-10T10:23:22+00:00</time>
        <ele>2711.0</ele>
      </trkpt>
      <trkpt lat="44.31525" lon="6.82201">
        <time>2023-04-10T10:23:23+00:00</time>
        <ele>2711.0</ele>
      </trkpt>
      <trkpt lat="44.31525" lon="6.82201">
        <time>2023-04-10T10:23:24+00:00</time>
        <ele>2711.0</ele>
      </trkpt>
      <trkpt lat="44.31525" lon="6.82201">
        <time>2023-04-10T10:23:25+00:00</time>
        <ele>2711.0</ele>
      </trkpt>
      <trkpt lat="44.31525" lon="6.82201">
        <time>2023-04-10T10:23:26+00:00</time>
        <ele>2711.0</ele>
      </trkpt>
      <trkpt lat="44.31525" lon="6.82201">
        <time>2023-04-10T10:23:27+00:00</time>
        <ele>2711.0</ele>
      </trkpt>
      <trkpt lat="44.31525" lon="6.82201">
        <time>2023-04-10T10:23:28+00:00</time>
        <ele>2711.0</ele>
      </trkpt>
      <trkpt lat="44.31525" lon="6.82201">
        <time>2023-04-10T10:23:29+00:00</time>
        <ele>2711.0</ele>
      </trkpt>
      <trkpt lat="44.31525" lon="6.82201">
        <time>2023-04-10T10:23:30+00:00</time>
        <ele>2711.0</ele>
      </trkpt>
      <trkpt lat="44.31525" lon="6.82201">
        <time>2023-04-10T10:23:31+00:00</time>
        <ele>2711.0</ele>
      </trkpt>
      <trkpt lat="44.31525" lon="6.82201">
        <time>2023-04-10T10:23:32+00:00</time>
        <ele>2711.0</ele>
      </trkpt>
      <trkpt lat="44.31525" lon="6.82201">
        <time>2023-04-10T10:23:33+00:00</time>
        <ele>2711.0</ele>
      </trkpt>
      <trkpt lat="44.31525" lon="6.82201">
        <time>2023-04-10T10:23:34+00:00</time>
        <ele>2711.0</ele>
      </trkpt>
      <trkpt lat="44.31525" lon="6.82201">
        <time>2023-04-10T10:23:35+00:00</time>
        <ele>2711.0</ele>
      </trkpt>
      <trkpt lat="44.31525" lon="6.82201">
        <time>2023-04-10T10:23:36+00:00</time>
        <ele>2711.0</ele>
      </trkpt>
      <trkpt lat="44.31525" lon="6.82201">
        <time>2023-04-10T10:23:37+00:00</time>
        <ele>2711.0</ele>
      </trkpt>
      <trkpt lat="44.31525" lon="6.82201">
        <time>2023-04-10T10:23:38+00:00</time>
        <ele>2711.0</ele>
      </trkpt>
      <trkpt lat="44.31525" lon="6.82201">
        <time>2023-04-10T10:23:39+00:00</time>
        <ele>2711.0</ele>
      </trkpt>
      <trkpt lat="44.31525" lon="6.82201">
        <time>2023-04-10T10:23:40+00:00</time>
        <ele>2711.0</ele>
      </trkpt>
      <trkpt lat="44.31525" lon="6.82201">
        <time>2023-04-10T10:23:41+00:00</time>
        <ele>2711.0</ele>
      </trkpt>
      <trkpt lat="44.31525" lon="6.82201">
        <time>2023-04-10T10:23:42+00:00</time>
        <ele>2711.0</ele>
      </trkpt>
      <trkpt lat="44.31525" lon="6.82201">
        <time>2023-04-10T10:23:43+00:00</time>
        <ele>2711.0</ele>
      </trkpt>
      <trkpt lat="44.31525" lon="6.82201">
        <time>2023-04-10T10:23:44+00:00</time>
        <ele>2711.0</ele>
      </trkpt>
      <trkpt lat="44.31525" lon="6.82201">
        <time>2023-04-10T10:23:45+00:00</time>
        <ele>2711.0</ele>
      </trkpt>
      <trkpt lat="44.31525" lon="6.82201">
        <time>2023-04-10T10:23:46+00:00</time>
        <ele>2711.0</ele>
      </trkpt>
      <trkpt lat="44.31525" lon="6.82201">
        <time>2023-04-10T10:23:47+00:00</time>
        <ele>2711.0</ele>
      </trkpt>
      <trkpt lat="44.31525" lon="6.82201">
        <time>2023-04-10T10:23:48+00:00</time>
        <ele>2711.0</ele>
      </trkpt>
      <trkpt lat="44.31525" lon="6.82201">
        <time>2023-04-10T10:23:49+00:00</time>
        <ele>2711.0</ele>
      </trkpt>
      <trkpt lat="44.31525" lon="6.82201">
        <time>2023-04-10T10:23:50+00:00</time>
        <ele>2711.0</ele>
      </trkpt>
      <trkpt lat="44.31525" lon="6.82201">
        <time>2023-04-10T10:23:51+00:00</time>
        <ele>2711.0</ele>
      </trkpt>
      <trkpt lat="44.31525" lon="6.82201">
        <time>2023-04-10T10:23:52+00:00</time>
        <ele>2711.0</ele>
      </trkpt>
      <trkpt lat="44.31525" lon="6.82201">
        <time>2023-04-10T10:23:53+00:00</time>
        <ele>2711.0</ele>
      </trkpt>
      <trkpt lat="44.31525" lon="6.82201">
        <time>2023-04-10T10:23:54+00:00</time>
        <ele>2711.0</ele>
      </trkpt>
      <trkpt lat="44.31525" lon="6.82201">
        <time>2023-04-10T10:23:55+00:00</time>
        <ele>2711.0</ele>
      </trkpt>
      <trkpt lat="44.31525" lon="6.82201">
        <time>2023-04-10T10:23:56+00:00</time>
        <ele>2711.0</ele>
      </trkpt>
      <trkpt lat="44.31525" lon="6.82201">
        <time>2023-04-10T10:23:57+00:00</time>
        <ele>2711.0</ele>
      </trkpt>
      <trkpt lat="44.31525" lon="6.82201">
        <time>2023-04-10T10:23:58+00:00</time>
        <ele>2711.0</ele>
      </trkpt>
      <trkpt lat="44.31525" lon="6.82201">
        <time>2023-04-10T10:23:59+00:00</time>
        <ele>2711.0</ele>
      </trkpt>
      <trkpt lat="44.31525" lon="6.82201">
        <time>2023-04-10T10:24:00+00:00</time>
        <ele>2711.0</ele>
      </trkpt>
      <trkpt lat="44.31525" lon="6.82201">
        <time>2023-04-10T10:24:01+00:00</time>
        <ele>2711.0</ele>
      </trkpt>
      <trkpt lat="44.31525" lon="6.82201">
        <time>2023-04-10T10:24:02+00:00</time>
        <ele>2711.0</ele>
      </trkpt>
      <trkpt lat="44.31525" lon="6.82201">
        <time>2023-04-10T10:24:03+00:00</time>
        <ele>2711.0</ele>
      </trkpt>
      <trkpt lat="44.31525" lon="6.82201">
        <time>2023-04-10T10:24:04+00:00</time>
        <ele>2711.0</ele>
      </trkpt>
      <trkpt lat="44.31525" lon="6.82201">
        <time>2023-04-10T10:24:05+00:00</time>
        <ele>2711.0</ele>
      </trkpt>
      <trkpt lat="44.31525" lon="6.82201">
        <time>2023-04-10T10:24:06+00:00</time>
        <ele>2711.0</ele>
      </trkpt>
      <trkpt lat="44.31525" lon="6.82201">
        <time>2023-04-10T10:24:07+00:00</time>
        <ele>2711.0</ele>
      </trkpt>
      <trkpt lat="44.31525" lon="6.82201">
        <time>2023-04-10T10:24:08+00:00</time>
        <ele>2711.0</ele>
      </trkpt>
      <trkpt lat="44.31525" lon="6.82201">
        <time>2023-04-10T10:24:09+00:00</time>
        <ele>2711.0</ele>
      </trkpt>
      <trkpt lat="44.31525" lon="6.82201">
        <time>2023-04-10T10:24:10+00:00</time>
        <ele>2711.0</ele>
      </trkpt>
      <trkpt lat="44.31525" lon="6.82201">
        <time>2023-04-10T10:24:11+00:00</time>
        <ele>2711.0</ele>
      </trkpt>
      <trkpt lat="44.31525" lon="6.82201">
        <time>2023-04-10T10:24:12+00:00</time>
        <ele>2711.0</ele>
      </trkpt>
      <trkpt lat="44.31525" lon="6.82201">
        <time>2023-04-10T10:24:13+00:00</time>
        <ele>2711.0</ele>
      </trkpt>
      <trkpt lat="44.31525" lon="6.82201">
        <time>2023-04-10T10:24:14+00:00</time>
        <ele>2711.0</ele>
      </trkpt>
      <trkpt lat="44.31525" lon="6.82201">
        <time>2023-04-10T10:24:15+00:00</time>
        <ele>2711.0</ele>
      </trkpt>
      <trkpt lat="44.31525" lon="6.82201">
        <time>2023-04-10T10:24:16+00:00</time>
        <ele>2711.0</ele>
      </trkpt>
      <trkpt lat="44.31525" lon="6.82201">
        <time>2023-04-10T10:24:17+00:00</time>
        <ele>2711.0</ele>
      </trkpt>
      <trkpt lat="44.31525" lon="6.82201">
        <time>2023-04-10T10:24:18+00:00</time>
        <ele>2711.0</ele>
      </trkpt>
      <trkpt lat="44.31525" lon="6.82201">
        <time>2023-04-10T10:24:19+00:00</time>
        <ele>2711.0</ele>
      </trkpt>
      <trkpt lat="44.31525" lon="6.82201">
        <time>2023-04-10T10:24:20+00:00</time>
        <ele>2711.0</ele>
      </trkpt>
      <trkpt lat="44.31525" lon="6.82201">
        <time>2023-04-10T10:24:21+00:00</time>
        <ele>2711.0</ele>
      </trkpt>
      <trkpt lat="44.31525" lon="6.82201">
        <time>2023-04-10T10:24:22+00:00</time>
        <ele>2711.0</ele>
      </trkpt>
      <trkpt lat="44.31525" lon="6.82201">
        <time>2023-04-10T10:24:23+00:00</time>
        <ele>2711.0</ele>
      </trkpt>
      <trkpt lat="44.31525" lon="6.82201">
        <time>2023-04-10T10:24:24+00:00</time>
        <ele>2711.0</ele>
      </trkpt>
      <trkpt lat="44.31525" lon="6.82201">
        <time>2023-04-10T10:24:25+00:00</time>
        <ele>2711.0</ele>
      </trkpt>
      <trkpt lat="44.31525" lon="6.82201">
        <time>2023-04-10T10:24:26+00:00</time>
        <ele>2711.0</ele>
      </trkpt>
      <trkpt lat="44.31525" lon="6.82201">
        <time>2023-04-10T10:24:27+00:00</time>
        <ele>2711.0</ele>
      </trkpt>
      <trkpt lat="44.31525" lon="6.82201">
        <time>2023-04-10T10:24:28+00:00</time>
        <ele>2711.0</ele>
      </trkpt>
      <trkpt lat="44.31525" lon="6.82201">
        <time>2023-04-10T10:24:29+00:00</time>
        <ele>2711.0</ele>
      </trkpt>
      <trkpt lat="44.31525" lon="6.82201">
        <time>2023-04-10T10:24:30+00:00</time>
        <ele>2711.0</ele>
      </trkpt>
      <trkpt lat="44.31525" lon="6.82201">
        <time>2023-04-10T10:24:31+00:00</time>
        <ele>2711.0</ele>
      </trkpt>
      <trkpt lat="44.31525" lon="6.82201">
        <time>2023-04-10T10:24:32+00:00</time>
        <ele>2711.0</ele>
      </trkpt>
      <trkpt lat="44.31525" lon="6.82201">
        <time>2023-04-10T10:24:33+00:00</time>
        <ele>2711.0</ele>
      </trkpt>
      <trkpt lat="44.31525" lon="6.82201">
        <time>2023-04-10T10:24:34+00:00</time>
        <ele>2711.0</ele>
      </trkpt>
      <trkpt lat="44.31525" lon="6.82201">
        <time>2023-04-10T10:24:35+00:00</time>
        <ele>2711.0</ele>
      </trkpt>
      <trkpt lat="44.31525" lon="6.82201">
        <time>2023-04-10T10:24:36+00:00</time>
        <ele>2711.0</ele>
      </trkpt>
      <trkpt lat="44.31525" lon="6.82201">
        <time>2023-04-10T10:24:37+00:00</time>
        <ele>2711.0</ele>
      </trkpt>
      <trkpt lat="44.31525" lon="6.82201">
        <time>2023-04-10T10:24:38+00:00</time>
        <ele>2711.0</ele>
      </trkpt>
      <trkpt lat="44.31525" lon="6.82201">
        <time>2023-04-10T10:24:39+00:00</time>
        <ele>2711.0</ele>
      </trkpt>
      <trkpt lat="44.31525" lon="6.82201">
        <time>2023-04-10T10:24:40+00:00</time>
        <ele>2711.0</ele>
      </trkpt>
      <trkpt lat="44.31525" lon="6.82201">
        <time>2023-04-10T10:24:41+00:00</time>
        <ele>2711.0</ele>
      </trkpt>
      <trkpt lat="44.31525" lon="6.82201">
        <time>2023-04-10T10:24:42+00:00</time>
        <ele>2711.0</ele>
      </trkpt>
      <trkpt lat="44.31525" lon="6.82201">
        <time>2023-04-10T10:24:43+00:00</time>
        <ele>2711.0</ele>
      </trkpt>
      <trkpt lat="44.31525" lon="6.82201">
        <time>2023-04-10T10:24:44+00:00</time>
        <ele>2711.0</ele>
      </trkpt>
      <trkpt lat="44.31525" lon="6.82201">
        <time>2023-04-10T10:24:45+00:00</time>
        <ele>2711.0</ele>
      </trkpt>
      <trkpt lat="44.31525" lon="6.82201">
        <time>2023-04-10T10:24:46+00:00</time>
        <ele>2711.0</ele>
      </trkpt>
      <trkpt lat="44.31525" lon="6.82201">
        <time>2023-04-10T10:24:47+00:00</time>
        <ele>2711.0</ele>
      </trkpt>
      <trkpt lat="44.31525" lon="6.82201">
        <time>2023-04-10T10:24:48+00:00</time>
        <ele>2711.0</ele>
      </trkpt>
      <trkpt lat="44.31525" lon="6.82201">
        <time>2023-04-10T10:24:49+00:00</time>
        <ele>2711.0</ele>
      </trkpt>
      <trkpt lat="44.31525" lon="6.82201">
        <time>2023-04-10T10:24:50+00:00</time>
        <ele>2711.0</ele>
      </trkpt>
      <trkpt lat="44.31525" lon="6.82201">
        <time>2023-04-10T10:24:51+00:00</time>
        <ele>2711.0</ele>
      </trkpt>
      <trkpt lat="44.31525" lon="6.82201">
        <time>2023-04-10T10:24:52+00:00</time>
        <ele>2711.0</ele>
      </trkpt>
      <trkpt lat="44.31525" lon="6.82201">
        <time>2023-04-10T10:24:53+00:00</time>
        <ele>2711.0</ele>
      </trkpt>
      <trkpt lat="44.31525" lon="6.82201">
        <time>2023-04-10T10:24:54+00:00</time>
        <ele>2711.0</ele>
      </trkpt>
      <trkpt lat="44.31525" lon="6.82201">
        <time>2023-04-10T10:24:55+00:00</time>
        <ele>2711.0</ele>
      </trkpt>
      <trkpt lat="44.31525" lon="6.82201">
        <time>2023-04-10T10:24:56+00:00</time>
        <ele>2711.0</ele>
      </trkpt>
      <trkpt lat="44.31525" lon="6.82201">
        <time>2023-04-10T10:24:57+00:00</time>
        <ele>2711.0</ele>
      </trkpt>
      <trkpt lat="44.31525" lon="6.82201">
        <time>2023-04-10T10:24:58+00:00</time>
        <ele>2711.0</ele>
      </trkpt>
      <trkpt lat="44.31525" lon="6.82201">
        <time>2023-04-10T10:24:59+00:00</time>
        <ele>2711.0</ele>
      </trkpt>
      <trkpt lat="44.31525" lon="6.82201">
        <time>2023-04-10T10:25:00+00:00</time>
        <ele>2711.0</ele>
      </trkpt>
      <trkpt lat="44.31525" lon="6.82201">
        <time>2023-04-10T10:25:01+00:00</time>
        <ele>2711.0</ele>
      </trkpt>
      <trkpt lat="44.31525" lon="6.82201">
        <time>2023-04-10T10:25:02+00:00</time>
        <ele>2711.0</ele>
      </trkpt>
      <trkpt lat="44.31525" lon="6.82201">
        <time>2023-04-10T10:25:03+00:00</time>
        <ele>2711.0</ele>
      </trkpt>
      <trkpt lat="44.31525" lon="6.82201">
        <time>2023-04-10T10:25:04+00:00</time>
        <ele>2711.0</ele>
      </trkpt>
      <trkpt lat="44.31525" lon="6.82201">
        <time>2023-04-10T10:25:05+00:00</time>
        <ele>2711.0</ele>
      </trkpt>
      <trkpt lat="44.31525" lon="6.82201">
        <time>2023-04-10T10:25:06+00:00</time>
        <ele>2711.0</ele>
      </trkpt>
      <trkpt lat="44.31525" lon="6.82201">
        <time>2023-04-10T10:25:07+00:00</time>
        <ele>2711.0</ele>
      </trkpt>
      <trkpt lat="44.31525" lon="6.82201">
        <time>2023-04-10T10:25:08+00:00</time>
        <ele>2711.0</ele>
      </trkpt>
      <trkpt lat="44.31525" lon="6.82201">
        <time>2023-04-10T10:25:09+00:00</time>
        <ele>2711.0</ele>
      </trkpt>
      <trkpt lat="44.31525" lon="6.82201">
        <time>2023-04-10T10:25:10+00:00</time>
        <ele>2711.0</ele>
      </trkpt>
      <trkpt lat="44.31525" lon="6.82201">
        <time>2023-04-10T10:25:11+00:00</time>
        <ele>2711.0</ele>
      </trkpt>
      <trkpt lat="44.31525" lon="6.82201">
        <time>2023-04-10T10:25:12+00:00</time>
        <ele>2711.0</ele>
      </trkpt>
      <trkpt lat="44.31525" lon="6.82201">
        <time>2023-04-10T10:25:13+00:00</time>
        <ele>2711.0</ele>
      </trkpt>
      <trkpt lat="44.31525" lon="6.82201">
        <time>2023-04-10T10:25:14+00:00</time>
        <ele>2711.0</ele>
      </trkpt>
      <trkpt lat="44.31525" lon="6.82201">
        <time>2023-04-10T10:25:15+00:00</time>
        <ele>2711.0</ele>
      </trkpt>
      <trkpt lat="44.31525" lon="6.82201">
        <time>2023-04-10T10:25:16+00:00</time>
        <ele>2711.0</ele>
      </trkpt>
      <trkpt lat="44.31525" lon="6.82201">
        <time>2023-04-10T10:25:17+00:00</time>
        <ele>2711.0</ele>
      </trkpt>
      <trkpt lat="44.31525" lon="6.82201">
        <time>2023-04-10T10:25:18+00:00</time>
        <ele>2711.0</ele>
      </trkpt>
      <trkpt lat="44.31525" lon="6.82201">
        <time>2023-04-10T10:25:19+00:00</time>
        <ele>2711.0</ele>
      </trkpt>
      <trkpt lat="44.31525" lon="6.82201">
        <time>2023-04-10T10:25:20+00:00</time>
        <ele>2711.0</ele>
      </trkpt>
      <trkpt lat="44.31525" lon="6.82201">
        <time>2023-04-10T10:25:21+00:00</time>
        <ele>2711.0</ele>
      </trkpt>
      <trkpt lat="44.31525" lon="6.82201">
        <time>2023-04-10T10:25:22+00:00</time>
        <ele>2711.0</ele>
      </trkpt>
      <trkpt lat="44.31525" lon="6.82201">
        <time>2023-04-10T10:25:23+00:00</time>
        <ele>2711.0</ele>
      </trkpt>
      <trkpt lat="44.31525" lon="6.82201">
        <time>2023-04-10T10:25:24+00:00</time>
        <ele>2711.0</ele>
      </trkpt>
      <trkpt lat="44.31525" lon="6.82201">
        <time>2023-04-10T10:25:25+00:00</time>
        <ele>2711.0</ele>
      </trkpt>
      <trkpt lat="44.31525" lon="6.82201">
        <time>2023-04-10T10:25:26+00:00</time>
        <ele>2711.0</ele>
      </trkpt>
      <trkpt lat="44.31525" lon="6.82201">
        <time>2023-04-10T10:25:27+00:00</time>
        <ele>2711.0</ele>
      </trkpt>
      <trkpt lat="44.31525" lon="6.82201">
        <time>2023-04-10T10:25:28+00:00</time>
        <ele>2711.0</ele>
      </trkpt>
      <trkpt lat="44.31525" lon="6.82201">
        <time>2023-04-10T10:25:29+00:00</time>
        <ele>2711.0</ele>
      </trkpt>
      <trkpt lat="44.31525" lon="6.82201">
        <time>2023-04-10T10:25:30+00:00</time>
        <ele>2711.0</ele>
      </trkpt>
      <trkpt lat="44.31525" lon="6.82201">
        <time>2023-04-10T10:25:31+00:00</time>
        <ele>2711.0</ele>
      </trkpt>
      <trkpt lat="44.31525" lon="6.82201">
        <time>2023-04-10T10:25:32+00:00</time>
        <ele>2711.0</ele>
      </trkpt>
      <trkpt lat="44.31525" lon="6.82201">
        <time>2023-04-10T10:25:33+00:00</time>
        <ele>2711.0</ele>
      </trkpt>
      <trkpt lat="44.31525" lon="6.82201">
        <time>2023-04-10T10:25:34+00:00</time>
        <ele>2711.0</ele>
      </trkpt>
      <trkpt lat="44.31525" lon="6.82201">
        <time>2023-04-10T10:25:35+00:00</time>
        <ele>2711.0</ele>
      </trkpt>
      <trkpt lat="44.31525" lon="6.82201">
        <time>2023-04-10T10:25:36+00:00</time>
        <ele>2711.0</ele>
      </trkpt>
      <trkpt lat="44.31525" lon="6.82201">
        <time>2023-04-10T10:25:37+00:00</time>
        <ele>2711.0</ele>
      </trkpt>
      <trkpt lat="44.31525" lon="6.82201">
        <time>2023-04-10T10:25:38+00:00</time>
        <ele>2711.0</ele>
      </trkpt>
      <trkpt lat="44.31525" lon="6.82201">
        <time>2023-04-10T10:25:39+00:00</time>
        <ele>2711.0</ele>
      </trkpt>
      <trkpt lat="44.31525" lon="6.82201">
        <time>2023-04-10T10:25:40+00:00</time>
        <ele>2711.0</ele>
      </trkpt>
      <trkpt lat="44.31525" lon="6.82201">
        <time>2023-04-10T10:25:41+00:00</time>
        <ele>2711.0</ele>
      </trkpt>
      <trkpt lat="44.31525" lon="6.82201">
        <time>2023-04-10T10:25:42+00:00</time>
        <ele>2711.0</ele>
      </trkpt>
      <trkpt lat="44.31525" lon="6.82201">
        <time>2023-04-10T10:25:43+00:00</time>
        <ele>2711.0</ele>
      </trkpt>
      <trkpt lat="44.31525" lon="6.82201">
        <time>2023-04-10T10:25:44+00:00</time>
        <ele>2711.0</ele>
      </trkpt>
      <trkpt lat="44.31525" lon="6.82201">
        <time>2023-04-10T10:25:45+00:00</time>
        <ele>2711.0</ele>
      </trkpt>
      <trkpt lat="44.31525" lon="6.82201">
        <time>2023-04-10T10:25:46+00:00</time>
        <ele>2711.0</ele>
      </trkpt>
      <trkpt lat="44.31525" lon="6.82201">
        <time>2023-04-10T10:25:47+00:00</time>
        <ele>2711.0</ele>
      </trkpt>
      <trkpt lat="44.31525" lon="6.82201">
        <time>2023-04-10T10:25:48+00:00</time>
        <ele>2711.0</ele>
      </trkpt>
      <trkpt lat="44.31525" lon="6.82201">
        <time>2023-04-10T10:25:49+00:00</time>
        <ele>2711.0</ele>
      </trkpt>
      <trkpt lat="44.31525" lon="6.82201">
        <time>2023-04-10T10:25:50+00:00</time>
        <ele>2711.0</ele>
      </trkpt>
      <trkpt lat="44.31525" lon="6.82201">
        <time>2023-04-10T10:25:51+00:00</time>
        <ele>2711.0</ele>
      </trkpt>
      <trkpt lat="44.31525" lon="6.82201">
        <time>2023-04-10T10:25:52+00:00</time>
        <ele>2711.0</ele>
      </trkpt>
      <trkpt lat="44.31525" lon="6.82201">
        <time>2023-04-10T10:25:53+00:00</time>
        <ele>2711.0</ele>
      </trkpt>
      <trkpt lat="44.31525" lon="6.82201">
        <time>2023-04-10T10:25:54+00:00</time>
        <ele>2711.0</ele>
      </trkpt>
      <trkpt lat="44.31525" lon="6.82201">
        <time>2023-04-10T10:25:55+00:00</time>
        <ele>2711.0</ele>
      </trkpt>
      <trkpt lat="44.31525" lon="6.82201">
        <time>2023-04-10T10:25:56+00:00</time>
        <ele>2711.0</ele>
      </trkpt>
      <trkpt lat="44.31525" lon="6.82201">
        <time>2023-04-10T10:25:57+00:00</time>
        <ele>2711.0</ele>
      </trkpt>
      <trkpt lat="44.31525" lon="6.82201">
        <time>2023-04-10T10:25:58+00:00</time>
        <ele>2711.0</ele>
      </trkpt>
      <trkpt lat="44.31525" lon="6.82201">
        <time>2023-04-10T10:25:59+00:00</time>
        <ele>2711.0</ele>
      </trkpt>
      <trkpt lat="44.31525" lon="6.82201">
        <time>2023-04-10T10:26:00+00:00</time>
        <ele>2711.0</ele>
      </trkpt>
      <trkpt lat="44.31525" lon="6.82201">
        <time>2023-04-10T10:26:01+00:00</time>
        <ele>2711.0</ele>
      </trkpt>
      <trkpt lat="44.31525" lon="6.82201">
        <time>2023-04-10T10:26:02+00:00</time>
        <ele>2711.0</ele>
      </trkpt>
      <trkpt lat="44.31525" lon="6.82201">
        <time>2023-04-10T10:26:03+00:00</time>
        <ele>2711.0</ele>
      </trkpt>
      <trkpt lat="44.31525" lon="6.82201">
        <time>2023-04-10T10:26:04+00:00</time>
        <ele>2711.0</ele>
      </trkpt>
      <trkpt lat="44.31525" lon="6.82201">
        <time>2023-04-10T10:26:05+00:00</time>
        <ele>2711.0</ele>
      </trkpt>
      <trkpt lat="44.31525" lon="6.82201">
        <time>2023-04-10T10:26:06+00:00</time>
        <ele>2711.0</ele>
      </trkpt>
      <trkpt lat="44.31525" lon="6.82201">
        <time>2023-04-10T10:26:07+00:00</time>
        <ele>2711.0</ele>
      </trkpt>
      <trkpt lat="44.31525" lon="6.82201">
        <time>2023-04-10T10:26:08+00:00</time>
        <ele>2711.0</ele>
      </trkpt>
      <trkpt lat="44.31525" lon="6.82201">
        <time>2023-04-10T10:26:09+00:00</time>
        <ele>2711.0</ele>
      </trkpt>
      <trkpt lat="44.31525" lon="6.82201">
        <time>2023-04-10T10:26:10+00:00</time>
        <ele>2711.0</ele>
      </trkpt>
      <trkpt lat="44.31525" lon="6.82201">
        <time>2023-04-10T10:26:11+00:00</time>
        <ele>2711.0</ele>
      </trkpt>
      <trkpt lat="44.31525" lon="6.82201">
        <time>2023-04-10T10:26:12+00:00</time>
        <ele>2711.0</ele>
      </trkpt>
      <trkpt lat="44.31525" lon="6.82201">
        <time>2023-04-10T10:26:13+00:00</time>
        <ele>2711.0</ele>
      </trkpt>
      <trkpt lat="44.31525" lon="6.82201">
        <time>2023-04-10T10:26:14+00:00</time>
        <ele>2711.0</ele>
      </trkpt>
      <trkpt lat="44.31525" lon="6.82201">
        <time>2023-04-10T10:26:15+00:00</time>
        <ele>2711.0</ele>
      </trkpt>
      <trkpt lat="44.31525" lon="6.82201">
        <time>2023-04-10T10:26:16+00:00</time>
        <ele>2711.0</ele>
      </trkpt>
      <trkpt lat="44.31525" lon="6.82201">
        <time>2023-04-10T10:26:17+00:00</time>
        <ele>2711.0</ele>
      </trkpt>
      <trkpt lat="44.31525" lon="6.82201">
        <time>2023-04-10T10:26:18+00:00</time>
        <ele>2711.0</ele>
      </trkpt>
      <trkpt lat="44.31525" lon="6.82201">
        <time>2023-04-10T10:26:19+00:00</time>
        <ele>2711.0</ele>
      </trkpt>
      <trkpt lat="44.31525" lon="6.82201">
        <time>2023-04-10T10:26:20+00:00</time>
        <ele>2711.0</ele>
      </trkpt>
      <trkpt lat="44.31525" lon="6.82201">
        <time>2023-04-10T10:26:21+00:00</time>
        <ele>2711.0</ele>
      </trkpt>
      <trkpt lat="44.31525" lon="6.82201">
        <time>2023-04-10T10:26:22+00:00</time>
        <ele>2711.0</ele>
      </trkpt>
      <trkpt lat="44.31525" lon="6.82201">
        <time>2023-04-10T10:26:23+00:00</time>
        <ele>2711.0</ele>
      </trkpt>
      <trkpt lat="44.31525" lon="6.82201">
        <time>2023-04-10T10:26:24+00:00</time>
        <ele>2711.0</ele>
      </trkpt>
      <trkpt lat="44.31525" lon="6.82201">
        <time>2023-04-10T10:26:25+00:00</time>
        <ele>2711.0</ele>
      </trkpt>
      <trkpt lat="44.31525" lon="6.82201">
        <time>2023-04-10T10:26:26+00:00</time>
        <ele>2711.0</ele>
      </trkpt>
      <trkpt lat="44.31525" lon="6.82201">
        <time>2023-04-10T10:26:27+00:00</time>
        <ele>2711.0</ele>
      </trkpt>
      <trkpt lat="44.31525" lon="6.82201">
        <time>2023-04-10T10:26:28+00:00</time>
        <ele>2711.0</ele>
      </trkpt>
      <trkpt lat="44.31525" lon="6.82201">
        <time>2023-04-10T10:26:29+00:00</time>
        <ele>2711.0</ele>
      </trkpt>
      <trkpt lat="44.31525" lon="6.82201">
        <time>2023-04-10T10:26:30+00:00</time>
        <ele>2711.0</ele>
      </trkpt>
      <trkpt lat="44.31525" lon="6.82201">
        <time>2023-04-10T10:26:31+00:00</time>
        <ele>2711.0</ele>
      </trkpt>
      <trkpt lat="44.31525" lon="6.82201">
        <time>2023-04-10T10:26:32+00:00</time>
        <ele>2711.0</ele>
      </trkpt>
      <trkpt lat="44.31525" lon="6.82201">
        <time>2023-04-10T10:26:33+00:00</time>
        <ele>2711.0</ele>
      </trkpt>
      <trkpt lat="44.31525" lon="6.82201">
        <time>2023-04-10T10:26:34+00:00</time>
        <ele>2711.0</ele>
      </trkpt>
      <trkpt lat="44.31525" lon="6.82201">
        <time>2023-04-10T10:26:35+00:00</time>
        <ele>2711.0</ele>
      </trkpt>
      <trkpt lat="44.31525" lon="6.82201">
        <time>2023-04-10T10:26:36+00:00</time>
        <ele>2711.0</ele>
      </trkpt>
      <trkpt lat="44.31525" lon="6.82201">
        <time>2023-04-10T10:26:37+00:00</time>
        <ele>2711.0</ele>
      </trkpt>
      <trkpt lat="44.31525" lon="6.82201">
        <time>2023-04-10T10:26:38+00:00</time>
        <ele>2711.0</ele>
      </trkpt>
      <trkpt lat="44.31525" lon="6.82201">
        <time>2023-04-10T10:26:39+00:00</time>
        <ele>2711.0</ele>
      </trkpt>
      <trkpt lat="44.31525" lon="6.82201">
        <time>2023-04-10T10:26:40+00:00</time>
        <ele>2711.0</ele>
      </trkpt>
      <trkpt lat="44.31525" lon="6.82201">
        <time>2023-04-10T10:26:41+00:00</time>
        <ele>2711.0</ele>
      </trkpt>
      <trkpt lat="44.31525" lon="6.82201">
        <time>2023-04-10T10:26:42+00:00</time>
        <ele>2711.0</ele>
      </trkpt>
      <trkpt lat="44.31525" lon="6.82201">
        <time>2023-04-10T10:26:43+00:00</time>
        <ele>2711.0</ele>
      </trkpt>
      <trkpt lat="44.31525" lon="6.82201">
        <time>2023-04-10T10:26:44+00:00</time>
        <ele>2711.0</ele>
      </trkpt>
      <trkpt lat="44.31525" lon="6.82201">
        <time>2023-04-10T10:26:45+00:00</time>
        <ele>2711.0</ele>
      </trkpt>
      <trkpt lat="44.31525" lon="6.82201">
        <time>2023-04-10T10:26:46+00:00</time>
        <ele>2711.0</ele>
      </trkpt>
      <trkpt lat="44.31525" lon="6.82201">
        <time>2023-04-10T10:26:47+00:00</time>
        <ele>2711.0</ele>
      </trkpt>
      <trkpt lat="44.31525" lon="6.82201">
        <time>2023-04-10T10:26:48+00:00</time>
        <ele>2711.0</ele>
      </trkpt>
      <trkpt lat="44.31525" lon="6.82201">
        <time>2023-04-10T10:26:49+00:00</time>
        <ele>2711.0</ele>
      </trkpt>
      <trkpt lat="44.31525" lon="6.82201">
        <time>2023-04-10T10:26:50+00:00</time>
        <ele>2711.0</ele>
      </trkpt>
      <trkpt lat="44.31525" lon="6.82201">
        <time>2023-04-10T10:26:51+00:00</time>
        <ele>2711.0</ele>
      </trkpt>
      <trkpt lat="44.31525" lon="6.82201">
        <time>2023-04-10T10:26:52+00:00</time>
        <ele>2711.0</ele>
      </trkpt>
      <trkpt lat="44.31525" lon="6.82201">
        <time>2023-04-10T10:26:53+00:00</time>
        <ele>2711.0</ele>
      </trkpt>
      <trkpt lat="44.31525" lon="6.82201">
        <time>2023-04-10T10:26:54+00:00</time>
        <ele>2711.0</ele>
      </trkpt>
      <trkpt lat="44.31525" lon="6.82201">
        <time>2023-04-10T10:26:55+00:00</time>
        <ele>2711.0</ele>
      </trkpt>
      <trkpt lat="44.31525" lon="6.82201">
        <time>2023-04-10T10:26:56+00:00</time>
        <ele>2711.0</ele>
      </trkpt>
      <trkpt lat="44.31525" lon="6.82201">
        <time>2023-04-10T10:26:57+00:00</time>
        <ele>2711.0</ele>
      </trkpt>
      <trkpt lat="44.31525" lon="6.82201">
        <time>2023-04-10T10:26:58+00:00</time>
        <ele>2711.0</ele>
      </trkpt>
      <trkpt lat="44.31525" lon="6.82201">
        <time>2023-04-10T10:26:59+00:00</time>
        <ele>2711.0</ele>
      </trkpt>
      <trkpt lat="44.31525" lon="6.82201">
        <time>2023-04-10T10:27:00+00:00</time>
        <ele>2711.0</ele>
      </trkpt>
      <trkpt lat="44.31525" lon="6.82201">
        <time>2023-04-10T10:27:01+00:00</time>
        <ele>2711.0</ele>
      </trkpt>
      <trkpt lat="44.31525" lon="6.82201">
        <time>2023-04-10T10:27:02+00:00</time>
        <ele>2711.0</ele>
      </trkpt>
      <trkpt lat="44.31525" lon="6.82201">
        <time>2023-04-10T10:27:03+00:00</time>
        <ele>2711.0</ele>
      </trkpt>
      <trkpt lat="44.31525" lon="6.82201">
        <time>2023-04-10T10:27:04+00:00</time>
        <ele>2711.0</ele>
      </trkpt>
      <trkpt lat="44.31525" lon="6.82201">
        <time>2023-04-10T10:27:05+00:00</time>
        <ele>2711.0</ele>
      </trkpt>
      <trkpt lat="44.31525" lon="6.82201">
        <time>2023-04-10T10:27:06+00:00</time>
        <ele>2711.0</ele>
      </trkpt>
      <trkpt lat="44.31525" lon="6.82201">
        <time>2023-04-10T10:27:07+00:00</time>
        <ele>2711.0</ele>
      </trkpt>
      <trkpt lat="44.31525" lon="6.82201">
        <time>2023-04-10T10:27:08+00:00</time>
        <ele>2711.0</ele>
      </trkpt>
      <trkpt lat="44.31525" lon="6.82201">
        <time>2023-04-10T10:27:09+00:00</time>
        <ele>2711.0</ele>
      </trkpt>
      <trkpt lat="44.31525" lon="6.82201">
        <time>2023-04-10T10:27:10+00:00</time>
        <ele>2711.0</ele>
      </trkpt>
      <trkpt lat="44.31525" lon="6.82201">
        <time>2023-04-10T10:27:11+00:00</time>
        <ele>2711.0</ele>
      </trkpt>
      <trkpt lat="44.31525" lon="6.82201">
        <time>2023-04-10T10:27:12+00:00</time>
        <ele>2711.0</ele>
      </trkpt>
      <trkpt lat="44.31525" lon="6.82201">
        <time>2023-04-10T10:27:13+00:00</time>
        <ele>2711.0</ele>
      </trkpt>
      <trkpt lat="44.31525" lon="6.82201">
        <time>2023-04-10T10:27:14+00:00</time>
        <ele>2711.0</ele>
      </trkpt>
      <trkpt lat="44.31525" lon="6.82201">
        <time>2023-04-10T10:27:15+00:00</time>
        <ele>2711.0</ele>
      </trkpt>
      <trkpt lat="44.31525" lon="6.82201">
        <time>2023-04-10T10:27:16+00:00</time>
        <ele>2711.0</ele>
      </trkpt>
      <trkpt lat="44.31525" lon="6.82201">
        <time>2023-04-10T10:27:17+00:00</time>
        <ele>2711.0</ele>
      </trkpt>
      <trkpt lat="44.31525" lon="6.82201">
        <time>2023-04-10T10:27:18+00:00</time>
        <ele>2711.0</ele>
      </trkpt>
      <trkpt lat="44.31525" lon="6.82201">
        <time>2023-04-10T10:27:19+00:00</time>
        <ele>2711.0</ele>
      </trkpt>
      <trkpt lat="44.31525" lon="6.82201">
        <time>2023-04-10T10:27:20+00:00</time>
        <ele>2711.0</ele>
      </trkpt>
      <trkpt lat="44.31525" lon="6.82201">
        <time>2023-04-10T10:27:21+00:00</time>
        <ele>2711.0</ele>
      </trkpt>
      <trkpt lat="44.31525" lon="6.82201">
        <time>2023-04-10T10:27:22+00:00</time>
        <ele>2711.0</ele>
      </trkpt>
      <trkpt lat="44.31525" lon="6.82201">
        <time>2023-04-10T10:27:23+00:00</time>
        <ele>2711.0</ele>
      </trkpt>
      <trkpt lat="44.31525" lon="6.82201">
        <time>2023-04-10T10:27:24+00:00</time>
        <ele>2711.0</ele>
      </trkpt>
      <trkpt lat="44.31525" lon="6.82201">
        <time>2023-04-10T10:27:25+00:00</time>
        <ele>2711.0</ele>
      </trkpt>
      <trkpt lat="44.31525" lon="6.82201">
        <time>2023-04-10T10:27:26+00:00</time>
        <ele>2711.0</ele>
      </trkpt>
      <trkpt lat="44.31525" lon="6.82201">
        <time>2023-04-10T10:27:27+00:00</time>
        <ele>2711.0</ele>
      </trkpt>
      <trkpt lat="44.31525" lon="6.82201">
        <time>2023-04-10T10:27:28+00:00</time>
        <ele>2711.0</ele>
      </trkpt>
      <trkpt lat="44.31525" lon="6.82201">
        <time>2023-04-10T10:27:29+00:00</time>
        <ele>2711.0</ele>
      </trkpt>
      <trkpt lat="44.31525" lon="6.82201">
        <time>2023-04-10T10:27:30+00:00</time>
        <ele>2711.0</ele>
      </trkpt>
      <trkpt lat="44.31525" lon="6.82201">
        <time>2023-04-10T10:27:31+00:00</time>
        <ele>2711.0</ele>
      </trkpt>
      <trkpt lat="44.31525" lon="6.82201">
        <time>2023-04-10T10:27:32+00:00</time>
        <ele>2711.0</ele>
      </trkpt>
      <trkpt lat="44.31525" lon="6.82201">
        <time>2023-04-10T10:27:33+00:00</time>
        <ele>2711.0</ele>
      </trkpt>
      <trkpt lat="44.31525" lon="6.82201">
        <time>2023-04-10T10:27:34+00:00</time>
        <ele>2711.0</ele>
      </trkpt>
      <trkpt lat="44.31525" lon="6.82201">
        <time>2023-04-10T10:27:35+00:00</time>
        <ele>2711.0</ele>
      </trkpt>
      <trkpt lat="44.31525" lon="6.82201">
        <time>2023-04-10T10:27:36+00:00</time>
        <ele>2711.0</ele>
      </trkpt>
      <trkpt lat="44.31525" lon="6.82201">
        <time>2023-04-10T10:27:37+00:00</time>
        <ele>2711.0</ele>
      </trkpt>
      <trkpt lat="44.31525" lon="6.82201">
        <time>2023-04-10T10:27:38+00:00</time>
        <ele>2711.0</ele>
      </trkpt>
      <trkpt lat="44.31525" lon="6.82201">
        <time>2023-04-10T10:27:39+00:00</time>
        <ele>2711.0</ele>
      </trkpt>
      <trkpt lat="44.31525" lon="6.82201">
        <time>2023-04-10T10:27:40+00:00</time>
        <ele>2711.0</ele>
      </trkpt>
      <trkpt lat="44.31525" lon="6.82201">
        <time>2023-04-10T10:27:41+00:00</time>
        <ele>2711.0</ele>
      </trkpt>
      <trkpt lat="44.31525" lon="6.82201">
        <time>2023-04-10T10:27:42+00:00</time>
        <ele>2711.0</ele>
      </trkpt>
      <trkpt lat="44.31525" lon="6.82201">
        <time>2023-04-10T10:27:43+00:00</time>
        <ele>2711.0</ele>
      </trkpt>
      <trkpt lat="44.31525" lon="6.82201">
        <time>2023-04-10T10:27:44+00:00</time>
        <ele>2711.0</ele>
      </trkpt>
      <trkpt lat="44.31525" lon="6.82201">
        <time>2023-04-10T10:27:45+00:00</time>
        <ele>2711.0</ele>
      </trkpt>
      <trkpt lat="44.31525" lon="6.82201">
        <time>2023-04-10T10:27:46+00:00</time>
        <ele>2711.0</ele>
      </trkpt>
      <trkpt lat="44.31525" lon="6.82201">
        <time>2023-04-10T10:27:47+00:00</time>
        <ele>2711.0</ele>
      </trkpt>
      <trkpt lat="44.31525" lon="6.82201">
        <time>2023-04-10T10:27:48+00:00</time>
        <ele>2711.0</ele>
      </trkpt>
      <trkpt lat="44.31525" lon="6.82201">
        <time>2023-04-10T10:27:49+00:00</time>
        <ele>2711.0</ele>
      </trkpt>
      <trkpt lat="44.31525" lon="6.82201">
        <time>2023-04-10T10:27:50+00:00</time>
        <ele>2711.0</ele>
      </trkpt>
      <trkpt lat="44.31525" lon="6.82201">
        <time>2023-04-10T10:27:51+00:00</time>
        <ele>2711.0</ele>
      </trkpt>
      <trkpt lat="44.31525" lon="6.82201">
        <time>2023-04-10T10:27:52+00:00</time>
        <ele>2711.0</ele>
      </trkpt>
      <trkpt lat="44.31525" lon="6.82201">
        <time>2023-04-10T10:27:53+00:00</time>
        <ele>2711.0</ele>
      </trkpt>
      <trkpt lat="44.31525" lon="6.82201">
        <time>2023-04-10T10:27:54+00:00</time>
        <ele>2711.0</ele>
      </trkpt>
      <trkpt lat="44.31525" lon="6.82201">
        <time>2023-04-10T10:27:55+00:00</time>
        <ele>2711.0</ele>
      </trkpt>
      <trkpt lat="44.31525" lon="6.82201">
        <time>2023-04-10T10:27:56+00:00</time>
        <ele>2711.0</ele>
      </trkpt>
      <trkpt lat="44.31525" lon="6.82201">
        <time>2023-04-10T10:27:57+00:00</time>
        <ele>2711.0</ele>
      </trkpt>
      <trkpt lat="44.31525" lon="6.82201">
        <time>2023-04-10T10:27:58+00:00</time>
        <ele>2711.0</ele>
      </trkpt>
      <trkpt lat="44.31525" lon="6.82201">
        <time>2023-04-10T10:27:59+00:00</time>
        <ele>2711.0</ele>
      </trkpt>
      <trkpt lat="44.31525" lon="6.82201">
        <time>2023-04-10T10:28:00+00:00</time>
        <ele>2711.0</ele>
      </trkpt>
      <trkpt lat="44.31525" lon="6.82201">
        <time>2023-04-10T10:28:01+00:00</time>
        <ele>2711.0</ele>
      </trkpt>
      <trkpt lat="44.31525" lon="6.82201">
        <time>2023-04-10T10:28:02+00:00</time>
        <ele>2711.0</ele>
      </trkpt>
      <trkpt lat="44.31525" lon="6.82201">
        <time>2023-04-10T10:28:03+00:00</time>
        <ele>2711.0</ele>
      </trkpt>
      <trkpt lat="44.31525" lon="6.82201">
        <time>2023-04-10T10:28:04+00:00</time>
        <ele>2711.0</ele>
      </trkpt>
      <trkpt lat="44.31525" lon="6.82201">
        <time>2023-04-10T10:28:05+00:00</time>
        <ele>2711.0</ele>
      </trkpt>
      <trkpt lat="44.31525" lon="6.82201">
        <time>2023-04-10T10:28:06+00:00</time>
        <ele>2711.0</ele>
      </trkpt>
      <trkpt lat="44.31525" lon="6.82201">
        <time>2023-04-10T10:28:07+00:00</time>
        <ele>2711.0</ele>
      </trkpt>
      <trkpt lat="44.31525" lon="6.82201">
        <time>2023-04-10T10:28:08+00:00</time>
        <ele>2711.0</ele>
      </trkpt>
      <trkpt lat="44.31525" lon="6.82201">
        <time>2023-04-10T10:28:09+00:00</time>
        <ele>2711.0</ele>
      </trkpt>
      <trkpt lat="44.31525" lon="6.82201">
        <time>2023-04-10T10:28:10+00:00</time>
        <ele>2711.0</ele>
      </trkpt>
      <trkpt lat="44.31525" lon="6.82201">
        <time>2023-04-10T10:28:11+00:00</time>
        <ele>2711.0</ele>
      </trkpt>
      <trkpt lat="44.31525" lon="6.82201">
        <time>2023-04-10T10:28:12+00:00</time>
        <ele>2711.0</ele>
      </trkpt>
      <trkpt lat="44.31525" lon="6.82201">
        <time>2023-04-10T10:28:13+00:00</time>
        <ele>2711.0</ele>
      </trkpt>
      <trkpt lat="44.31525" lon="6.82201">
        <time>2023-04-10T10:28:14+00:00</time>
        <ele>2711.0</ele>
      </trkpt>
      <trkpt lat="44.31525" lon="6.82201">
        <time>2023-04-10T10:28:15+00:00</time>
        <ele>2711.0</ele>
      </trkpt>
      <trkpt lat="44.31525" lon="6.82201">
        <time>2023-04-10T10:28:16+00:00</time>
        <ele>2711.0</ele>
      </trkpt>
      <trkpt lat="44.31525" lon="6.82201">
        <time>2023-04-10T10:28:17+00:00</time>
        <ele>2711.0</ele>
      </trkpt>
      <trkpt lat="44.31525" lon="6.82201">
        <time>2023-04-10T10:28:18+00:00</time>
        <ele>2711.0</ele>
      </trkpt>
      <trkpt lat="44.31525" lon="6.82201">
        <time>2023-04-10T10:28:19+00:00</time>
        <ele>2711.0</ele>
      </trkpt>
      <trkpt lat="44.31525" lon="6.82201">
        <time>2023-04-10T10:28:20+00:00</time>
        <ele>2711.0</ele>
      </trkpt>
      <trkpt lat="44.31525" lon="6.82201">
        <time>2023-04-10T10:28:21+00:00</time>
        <ele>2711.0</ele>
      </trkpt>
      <trkpt lat="44.31525" lon="6.82201">
        <time>2023-04-10T10:28:22+00:00</time>
        <ele>2711.0</ele>
      </trkpt>
      <trkpt lat="44.31525" lon="6.82201">
        <time>2023-04-10T10:28:23+00:00</time>
        <ele>2711.0</ele>
      </trkpt>
      <trkpt lat="44.31525" lon="6.82201">
        <time>2023-04-10T10:28:24+00:00</time>
        <ele>2711.0</ele>
      </trkpt>
      <trkpt lat="44.31525" lon="6.82201">
        <time>2023-04-10T10:28:25+00:00</time>
        <ele>2711.0</ele>
      </trkpt>
      <trkpt lat="44.31525" lon="6.82201">
        <time>2023-04-10T10:28:26+00:00</time>
        <ele>2711.0</ele>
      </trkpt>
      <trkpt lat="44.31525" lon="6.82201">
        <time>2023-04-10T10:28:27+00:00</time>
        <ele>2711.0</ele>
      </trkpt>
      <trkpt lat="44.31525" lon="6.82201">
        <time>2023-04-10T10:28:28+00:00</time>
        <ele>2711.0</ele>
      </trkpt>
      <trkpt lat="44.31525" lon="6.82201">
        <time>2023-04-10T10:28:29+00:00</time>
        <ele>2711.0</ele>
      </trkpt>
      <trkpt lat="44.31525" lon="6.82201">
        <time>2023-04-10T10:28:30+00:00</time>
        <ele>2711.0</ele>
      </trkpt>
      <trkpt lat="44.31525" lon="6.82201">
        <time>2023-04-10T10:28:31+00:00</time>
        <ele>2711.0</ele>
      </trkpt>
      <trkpt lat="44.31525" lon="6.82201">
        <time>2023-04-10T10:28:32+00:00</time>
        <ele>2711.0</ele>
      </trkpt>
      <trkpt lat="44.31525" lon="6.82201">
        <time>2023-04-10T10:28:33+00:00</time>
        <ele>2711.0</ele>
      </trkpt>
      <trkpt lat="44.31525" lon="6.82201">
        <time>2023-04-10T10:28:34+00:00</time>
        <ele>2711.0</ele>
      </trkpt>
      <trkpt lat="44.31525" lon="6.82201">
        <time>2023-04-10T10:28:35+00:00</time>
        <ele>2711.0</ele>
      </trkpt>
      <trkpt lat="44.31525" lon="6.82201">
        <time>2023-04-10T10:28:36+00:00</time>
        <ele>2711.0</ele>
      </trkpt>
      <trkpt lat="44.31525" lon="6.82201">
        <time>2023-04-10T10:28:37+00:00</time>
        <ele>2711.0</ele>
      </trkpt>
      <trkpt lat="44.31525" lon="6.82201">
        <time>2023-04-10T10:28:38+00:00</time>
        <ele>2711.0</ele>
      </trkpt>
      <trkpt lat="44.31525" lon="6.82201">
        <time>2023-04-10T10:28:39+00:00</time>
        <ele>2711.0</ele>
      </trkpt>
      <trkpt lat="44.31525" lon="6.82201">
        <time>2023-04-10T10:28:40+00:00</time>
        <ele>2711.0</ele>
      </trkpt>
      <trkpt lat="44.31525" lon="6.82201">
        <time>2023-04-10T10:28:41+00:00</time>
        <ele>2711.0</ele>
      </trkpt>
      <trkpt lat="44.31525" lon="6.82201">
        <time>2023-04-10T10:28:42+00:00</time>
        <ele>2711.0</ele>
      </trkpt>
      <trkpt lat="44.31525" lon="6.82201">
        <time>2023-04-10T10:28:43+00:00</time>
        <ele>2711.0</ele>
      </trkpt>
      <trkpt lat="44.31525" lon="6.82201">
        <time>2023-04-10T10:28:44+00:00</time>
        <ele>2711.0</ele>
      </trkpt>
      <trkpt lat="44.31525" lon="6.82201">
        <time>2023-04-10T10:28:45+00:00</time>
        <ele>2711.0</ele>
      </trkpt>
      <trkpt lat="44.31525" lon="6.82201">
        <time>2023-04-10T10:28:46+00:00</time>
        <ele>2711.0</ele>
      </trkpt>
      <trkpt lat="44.31525" lon="6.82201">
        <time>2023-04-10T10:28:47+00:00</time>
        <ele>2711.0</ele>
      </trkpt>
      <trkpt lat="44.31525" lon="6.82201">
        <time>2023-04-10T10:28:48+00:00</time>
        <ele>2711.0</ele>
      </trkpt>
      <trkpt lat="44.31525" lon="6.82201">
        <time>2023-04-10T10:28:49+00:00</time>
        <ele>2711.0</ele>
      </trkpt>
      <trkpt lat="44.31525" lon="6.82201">
        <time>2023-04-10T10:28:50+00:00</time>
        <ele>2711.0</ele>
      </trkpt>
      <trkpt lat="44.31525" lon="6.82201">
        <time>2023-04-10T10:28:51+00:00</time>
        <ele>2711.0</ele>
      </trkpt>
      <trkpt lat="44.31525" lon="6.82201">
        <time>2023-04-10T10:28:52+00:00</time>
        <ele>2711.0</ele>
      </trkpt>
      <trkpt lat="44.31525" lon="6.82201">
        <time>2023-04-10T10:28:53+00:00</time>
        <ele>2711.0</ele>
      </trkpt>
      <trkpt lat="44.31525" lon="6.82201">
        <time>2023-04-10T10:28:54+00:00</time>
        <ele>2711.0</ele>
      </trkpt>
      <trkpt lat="44.31525" lon="6.82201">
        <time>2023-04-10T10:28:55+00:00</time>
        <ele>2711.0</ele>
      </trkpt>
      <trkpt lat="44.31525" lon="6.82201">
        <time>2023-04-10T10:28:56+00:00</time>
        <ele>2711.0</ele>
      </trkpt>
      <trkpt lat="44.31525" lon="6.82201">
        <time>2023-04-10T10:28:57+00:00</time>
        <ele>2711.0</ele>
      </trkpt>
      <trkpt lat="44.31525" lon="6.82201">
        <time>2023-04-10T10:28:58+00:00</time>
        <ele>2711.0</ele>
      </trkpt>
      <trkpt lat="44.31525" lon="6.82201">
        <time>2023-04-10T10:28:59+00:00</time>
        <ele>2711.0</ele>
      </trkpt>
      <trkpt lat="44.31525" lon="6.82201">
        <time>2023-04-10T10:29:00+00:00</time>
        <ele>2711.0</ele>
      </trkpt>
      <trkpt lat="44.31525" lon="6.82201">
        <time>2023-04-10T10:29:01+00:00</time>
        <ele>2711.0</ele>
      </trkpt>
      <trkpt lat="44.31525" lon="6.82201">
        <time>2023-04-10T10:29:02+00:00</time>
        <ele>2711.0</ele>
      </trkpt>
      <trkpt lat="44.31525" lon="6.82201">
        <time>2023-04-10T10:29:03+00:00</time>
        <ele>2711.0</ele>
      </trkpt>
      <trkpt lat="44.31525" lon="6.82201">
        <time>2023-04-10T10:29:04+00:00</time>
        <ele>2711.0</ele>
      </trkpt>
      <trkpt lat="44.31525" lon="6.82201">
        <time>2023-04-10T10:29:05+00:00</time>
        <ele>2711.0</ele>
      </trkpt>
      <trkpt lat="44.31525" lon="6.82201">
        <time>2023-04-10T10:29:06+00:00</time>
        <ele>2711.0</ele>
      </trkpt>
      <trkpt lat="44.31525" lon="6.82201">
        <time>2023-04-10T10:29:07+00:00</time>
        <ele>2711.0</ele>
      </trkpt>
      <trkpt lat="44.31525" lon="6.82201">
        <time>2023-04-10T10:29:08+00:00</time>
        <ele>2711.0</ele>
      </trkpt>
      <trkpt lat="44.31525" lon="6.82201">
        <time>2023-04-10T10:29:09+00:00</time>
        <ele>2711.0</ele>
      </trkpt>
      <trkpt lat="44.31525" lon="6.82201">
        <time>2023-04-10T10:29:10+00:00</time>
        <ele>2711.0</ele>
      </trkpt>
      <trkpt lat="44.31525" lon="6.82201">
        <time>2023-04-10T10:29:11+00:00</time>
        <ele>2711.0</ele>
      </trkpt>
      <trkpt lat="44.31525" lon="6.82201">
        <time>2023-04-10T10:29:12+00:00</time>
        <ele>2711.0</ele>
      </trkpt>
      <trkpt lat="44.31525" lon="6.82201">
        <time>2023-04-10T10:29:13+00:00</time>
        <ele>2711.0</ele>
      </trkpt>
      <trkpt lat="44.31525" lon="6.82201">
        <time>2023-04-10T10:29:14+00:00</time>
        <ele>2711.0</ele>
      </trkpt>
      <trkpt lat="44.31525" lon="6.82201">
        <time>2023-04-10T10:29:15+00:00</time>
        <ele>2711.0</ele>
      </trkpt>
      <trkpt lat="44.31525" lon="6.82201">
        <time>2023-04-10T10:29:16+00:00</time>
        <ele>2711.0</ele>
      </trkpt>
      <trkpt lat="44.31525" lon="6.82201">
        <time>2023-04-10T10:29:17+00:00</time>
        <ele>2711.0</ele>
      </trkpt>
      <trkpt lat="44.31525" lon="6.82201">
        <time>2023-04-10T10:29:18+00:00</time>
        <ele>2711.0</ele>
      </trkpt>
      <trkpt lat="44.31525" lon="6.82201">
        <time>2023-04-10T10:29:19+00:00</time>
        <ele>2711.0</ele>
      </trkpt>
      <trkpt lat="44.31525" lon="6.82201">
        <time>2023-04-10T10:29:20+00:00</time>
        <ele>2711.0</ele>
      </trkpt>
      <trkpt lat="44.31525" lon="6.82201">
        <time>2023-04-10T10:29:21+00:00</time>
        <ele>2711.0</ele>
      </trkpt>
      <trkpt lat="44.31525" lon="6.82201">
        <time>2023-04-10T10:29:22+00:00</time>
        <ele>2711.0</ele>
      </trkpt>
      <trkpt lat="44.31525" lon="6.82201">
        <time>2023-04-10T10:29:23+00:00</time>
        <ele>2711.0</ele>
      </trkpt>
      <trkpt lat="44.31525" lon="6.82201">
        <time>2023-04-10T10:29:24+00:00</time>
        <ele>2711.0</ele>
      </trkpt>
      <trkpt lat="44.31525" lon="6.82201">
        <time>2023-04-10T10:29:25+00:00</time>
        <ele>2711.0</ele>
      </trkpt>
      <trkpt lat="44.31525" lon="6.82201">
        <time>2023-04-10T10:29:26+00:00</time>
        <ele>2711.0</ele>
      </trkpt>
      <trkpt lat="44.31525" lon="6.82201">
        <time>2023-04-10T10:29:27+00:00</time>
        <ele>2711.0</ele>
      </trkpt>
      <trkpt lat="44.31525" lon="6.82201">
        <time>2023-04-10T10:29:28+00:00</time>
        <ele>2711.0</ele>
      </trkpt>
      <trkpt lat="44.31525" lon="6.82201">
        <time>2023-04-10T10:29:29+00:00</time>
        <ele>2711.0</ele>
      </trkpt>
      <trkpt lat="44.31525" lon="6.82201">
        <time>2023-04-10T10:29:30+00:00</time>
        <ele>2711.0</ele>
      </trkpt>
      <trkpt lat="44.31525" lon="6.82201">
        <time>2023-04-10T10:29:31+00:00</time>
        <ele>2711.0</ele>
      </trkpt>
      <trkpt lat="44.31525" lon="6.82201">
        <time>2023-04-10T10:29:32+00:00</time>
        <ele>2711.0</ele>
      </trkpt>
      <trkpt lat="44.31525" lon="6.82201">
        <time>2023-04-10T10:29:33+00:00</time>
        <ele>2711.0</ele>
      </trkpt>
      <trkpt lat="44.31525" lon="6.82201">
        <time>2023-04-10T10:29:34+00:00</time>
        <ele>2711.0</ele>
      </trkpt>
      <trkpt lat="44.31525" lon="6.82201">
        <time>2023-04-10T10:29:35+00:00</time>
        <ele>2711.0</ele>
      </trkpt>
      <trkpt lat="44.31525" lon="6.82201">
        <time>2023-04-10T10:29:36+00:00</time>
        <ele>2711.0</ele>
      </trkpt>
      <trkpt lat="44.31525" lon="6.82201">
        <time>2023-04-10T10:29:37+00:00</time>
        <ele>2711.0</ele>
      </trkpt>
      <trkpt lat="44.31525" lon="6.82201">
        <time>2023-04-10T10:29:38+00:00</time>
        <ele>2711.0</ele>
      </trkpt>
      <trkpt lat="44.31525" lon="6.82201">
        <time>2023-04-10T10:29:39+00:00</time>
        <ele>2711.0</ele>
      </trkpt>
      <trkpt lat="44.31525" lon="6.82201">
        <time>2023-04-10T10:29:40+00:00</time>
        <ele>2711.0</ele>
      </trkpt>
      <trkpt lat="44.31525" lon="6.82201">
        <time>2023-04-10T10:29:41+00:00</time>
        <ele>2711.0</ele>
      </trkpt>
      <trkpt lat="44.31525" lon="6.82201">
        <time>2023-04-10T10:29:42+00:00</time>
        <ele>2711.0</ele>
      </trkpt>
      <trkpt lat="44.31525" lon="6.82201">
        <time>2023-04-10T10:29:43+00:00</time>
        <ele>2711.0</ele>
      </trkpt>
      <trkpt lat="44.31525" lon="6.82201">
        <time>2023-04-10T10:29:44+00:00</time>
        <ele>2711.0</ele>
      </trkpt>
      <trkpt lat="44.31525" lon="6.82201">
        <time>2023-04-10T10:29:45+00:00</time>
        <ele>2711.0</ele>
      </trkpt>
      <trkpt lat="44.31525" lon="6.82201">
        <time>2023-04-10T10:29:46+00:00</time>
        <ele>2711.0</ele>
      </trkpt>
      <trkpt lat="44.31525" lon="6.82201">
        <time>2023-04-10T10:29:47+00:00</time>
        <ele>2711.0</ele>
      </trkpt>
      <trkpt lat="44.31525" lon="6.82201">
        <time>2023-04-10T10:29:48+00:00</time>
        <ele>2711.0</ele>
      </trkpt>
      <trkpt lat="44.31525" lon="6.82201">
        <time>2023-04-10T10:29:49+00:00</time>
        <ele>2711.0</ele>
      </trkpt>
      <trkpt lat="44.31525" lon="6.82201">
        <time>2023-04-10T10:29:50+00:00</time>
        <ele>2711.0</ele>
      </trkpt>
      <trkpt lat="44.31525" lon="6.82201">
        <time>2023-04-10T10:29:51+00:00</time>
        <ele>2711.0</ele>
      </trkpt>
      <trkpt lat="44.31525" lon="6.82201">
        <time>2023-04-10T10:29:52+00:00</time>
        <ele>2711.0</ele>
      </trkpt>
      <trkpt lat="44.31525" lon="6.82201">
        <time>2023-04-10T10:29:53+00:00</time>
        <ele>2711.0</ele>
      </trkpt>
      <trkpt lat="44.31525" lon="6.82201">
        <time>2023-04-10T10:29:54+00:00</time>
        <ele>2711.0</ele>
      </trkpt>
      <trkpt lat="44.31525" lon="6.82201">
        <time>2023-04-10T10:29:55+00:00</time>
        <ele>2711.0</ele>
      </trkpt>
      <trkpt lat="44.31525" lon="6.82201">
        <time>2023-04-10T10:29:56+00:00</time>
        <ele>2711.0</ele>
      </trkpt>
      <trkpt lat="44.31525" lon="6.82201">
        <time>2023-04-10T10:29:57+00:00</time>
        <ele>2711.0</ele>
      </trkpt>
      <trkpt lat="44.31525" lon="6.82201">
        <time>2023-04-10T10:29:58+00:00</time>
        <ele>2711.0</ele>
      </trkpt>
      <trkpt lat="44.31525" lon="6.82201">
        <time>2023-04-10T10:29:59+00:00</time>
        <ele>2711.0</ele>
      </trkpt>
      <trkpt lat="44.31525" lon="6.82201">
        <time>2023-04-10T10:30:01+00:00</time>
        <ele>2711.0</ele>
      </trkpt>
      <trkpt lat="44.31525" lon="6.82201">
        <time>2023-04-10T10:30:03+00:00</time>
        <ele>2711.0</ele>
      </trkpt>
      <trkpt lat="44.31525" lon="6.82201">
        <time>2023-04-10T10:30:04+00:00</time>
        <ele>2711.0</ele>
      </trkpt>
      <trkpt lat="44.31525" lon="6.82201">
        <time>2023-04-10T10:30:05+00:00</time>
        <ele>2711.0</ele>
      </trkpt>
      <trkpt lat="44.31525" lon="6.82201">
        <time>2023-04-10T10:30:06+00:00</time>
        <ele>2711.0</ele>
      </trkpt>
      <trkpt lat="44.31525" lon="6.82201">
        <time>2023-04-10T10:30:07+00:00</time>
        <ele>2711.0</ele>
      </trkpt>
      <trkpt lat="44.31525" lon="6.82201">
        <time>2023-04-10T10:30:08+00:00</time>
        <ele>2711.0</ele>
      </trkpt>
      <trkpt lat="44.31525" lon="6.82201">
        <time>2023-04-10T10:30:09+00:00</time>
        <ele>2711.0</ele>
      </trkpt>
      <trkpt lat="44.31525" lon="6.82201">
        <time>2023-04-10T10:30:10+00:00</time>
        <ele>2711.0</ele>
      </trkpt>
      <trkpt lat="44.31525" lon="6.82201">
        <time>2023-04-10T10:30:11+00:00</time>
        <ele>2711.0</ele>
      </trkpt>
      <trkpt lat="44.31525" lon="6.82201">
        <time>2023-04-10T10:30:12+00:00</time>
        <ele>2711.0</ele>
      </trkpt>
      <trkpt lat="44.31525" lon="6.82201">
        <time>2023-04-10T10:30:13+00:00</time>
        <ele>2711.0</ele>
      </trkpt>
      <trkpt lat="44.31525" lon="6.82201">
        <time>2023-04-10T10:30:14+00:00</time>
        <ele>2711.0</ele>
      </trkpt>
      <trkpt lat="44.31525" lon="6.82201">
        <time>2023-04-10T10:30:15+00:00</time>
        <ele>2711.0</ele>
      </trkpt>
      <trkpt lat="44.31525" lon="6.82201">
        <time>2023-04-10T10:30:16+00:00</time>
        <ele>2711.0</ele>
      </trkpt>
      <trkpt lat="44.31525" lon="6.82201">
        <time>2023-04-10T10:30:17+00:00</time>
        <ele>2711.0</ele>
      </trkpt>
      <trkpt lat="44.31525" lon="6.82201">
        <time>2023-04-10T10:30:18+00:00</time>
        <ele>2711.0</ele>
      </trkpt>
      <trkpt lat="44.31525" lon="6.82201">
        <time>2023-04-10T10:30:19+00:00</time>
        <ele>2711.0</ele>
      </trkpt>
      <trkpt lat="44.31525" lon="6.82201">
        <time>2023-04-10T10:30:20+00:00</time>
        <ele>2711.0</ele>
      </trkpt>
      <trkpt lat="44.31525" lon="6.82201">
        <time>2023-04-10T10:30:21+00:00</time>
        <ele>2711.0</ele>
      </trkpt>
      <trkpt lat="44.31525" lon="6.82201">
        <time>2023-04-10T10:30:22+00:00</time>
        <ele>2711.0</ele>
      </trkpt>
      <trkpt lat="44.31525" lon="6.82201">
        <time>2023-04-10T10:30:23+00:00</time>
        <ele>2711.0</ele>
      </trkpt>
      <trkpt lat="44.31525" lon="6.82201">
        <time>2023-04-10T10:30:24+00:00</time>
        <ele>2711.0</ele>
      </trkpt>
      <trkpt lat="44.31525" lon="6.82201">
        <time>2023-04-10T10:30:25+00:00</time>
        <ele>2711.0</ele>
      </trkpt>
      <trkpt lat="44.31525" lon="6.82201">
        <time>2023-04-10T10:30:26+00:00</time>
        <ele>2711.0</ele>
      </trkpt>
      <trkpt lat="44.31525" lon="6.82201">
        <time>2023-04-10T10:30:27+00:00</time>
        <ele>2711.0</ele>
      </trkpt>
      <trkpt lat="44.31525" lon="6.82201">
        <time>2023-04-10T10:30:28+00:00</time>
        <ele>2711.0</ele>
      </trkpt>
      <trkpt lat="44.31525" lon="6.82201">
        <time>2023-04-10T10:30:29+00:00</time>
        <ele>2711.0</ele>
      </trkpt>
      <trkpt lat="44.31525" lon="6.82201">
        <time>2023-04-10T10:30:30+00:00</time>
        <ele>2711.0</ele>
      </trkpt>
      <trkpt lat="44.31525" lon="6.82201">
        <time>2023-04-10T10:30:31+00:00</time>
        <ele>2711.0</ele>
      </trkpt>
      <trkpt lat="44.31525" lon="6.82201">
        <time>2023-04-10T10:30:32+00:00</time>
        <ele>2711.0</ele>
      </trkpt>
      <trkpt lat="44.31525" lon="6.82201">
        <time>2023-04-10T10:30:33+00:00</time>
        <ele>2711.0</ele>
      </trkpt>
      <trkpt lat="44.31525" lon="6.82201">
        <time>2023-04-10T10:30:34+00:00</time>
        <ele>2711.0</ele>
      </trkpt>
      <trkpt lat="44.31525" lon="6.82201">
        <time>2023-04-10T10:30:35+00:00</time>
        <ele>2711.0</ele>
      </trkpt>
      <trkpt lat="44.31525" lon="6.82201">
        <time>2023-04-10T10:30:36+00:00</time>
        <ele>2711.0</ele>
      </trkpt>
      <trkpt lat="44.31525" lon="6.82201">
        <time>2023-04-10T10:30:37+00:00</time>
        <ele>2711.0</ele>
      </trkpt>
      <trkpt lat="44.31525" lon="6.82201">
        <time>2023-04-10T10:30:40+00:00</time>
        <ele>2711.0</ele>
      </trkpt>
      <trkpt lat="44.31525" lon="6.82201">
        <time>2023-04-10T10:30:41+00:00</time>
        <ele>2711.0</ele>
      </trkpt>
      <trkpt lat="44.31525" lon="6.82201">
        <time>2023-04-10T10:30:42+00:00</time>
        <ele>2711.0</ele>
      </trkpt>
      <trkpt lat="44.31525" lon="6.82201">
        <time>2023-04-10T10:30:43+00:00</time>
        <ele>2711.0</ele>
      </trkpt>
      <trkpt lat="44.31525" lon="6.82201">
        <time>2023-04-10T10:30:44+00:00</time>
        <ele>2711.0</ele>
      </trkpt>
      <trkpt lat="44.31525" lon="6.82201">
        <time>2023-04-10T10:30:45+00:00</time>
        <ele>2711.0</ele>
      </trkpt>
      <trkpt lat="44.31525" lon="6.82201">
        <time>2023-04-10T10:30:46+00:00</time>
        <ele>2711.0</ele>
      </trkpt>
      <trkpt lat="44.31525" lon="6.82201">
        <time>2023-04-10T10:30:47+00:00</time>
        <ele>2711.0</ele>
      </trkpt>
      <trkpt lat="44.31525" lon="6.82201">
        <time>2023-04-10T10:30:48+00:00</time>
        <ele>2711.0</ele>
      </trkpt>
      <trkpt lat="44.31525" lon="6.82201">
        <time>2023-04-10T10:30:49+00:00</time>
        <ele>2711.0</ele>
      </trkpt>
      <trkpt lat="44.31525" lon="6.82201">
        <time>2023-04-10T10:30:50+00:00</time>
        <ele>2711.0</ele>
      </trkpt>
      <trkpt lat="44.31525" lon="6.82201">
        <time>2023-04-10T10:30:51+00:00</time>
        <ele>2711.0</ele>
      </trkpt>
      <trkpt lat="44.31525" lon="6.82201">
        <time>2023-04-10T10:30:52+00:00</time>
        <ele>2711.0</ele>
      </trkpt>
      <trkpt lat="44.31525" lon="6.82201">
        <time>2023-04-10T10:30:53+00:00</time>
        <ele>2711.0</ele>
      </trkpt>
      <trkpt lat="44.31525" lon="6.82201">
        <time>2023-04-10T10:30:54+00:00</time>
        <ele>2711.0</ele>
      </trkpt>
      <trkpt lat="44.31525" lon="6.82201">
        <time>2023-04-10T10:30:55+00:00</time>
        <ele>2711.0</ele>
      </trkpt>
      <trkpt lat="44.31525" lon="6.82201">
        <time>2023-04-10T10:30:56+00:00</time>
        <ele>2711.0</ele>
      </trkpt>
      <trkpt lat="44.31525" lon="6.82201">
        <time>2023-04-10T10:30:57+00:00</time>
        <ele>2711.0</ele>
      </trkpt>
      <trkpt lat="44.31525" lon="6.82201">
        <time>2023-04-10T10:30:58+00:00</time>
        <ele>2711.0</ele>
      </trkpt>
      <trkpt lat="44.31525" lon="6.82201">
        <time>2023-04-10T10:30:59+00:00</time>
        <ele>2711.0</ele>
      </trkpt>
      <trkpt lat="44.31525" lon="6.82201">
        <time>2023-04-10T10:31:00+00:00</time>
        <ele>2711.0</ele>
      </trkpt>
      <trkpt lat="44.31525" lon="6.82201">
        <time>2023-04-10T10:31:01+00:00</time>
        <ele>2711.0</ele>
      </trkpt>
      <trkpt lat="44.31525" lon="6.82201">
        <time>2023-04-10T10:31:02+00:00</time>
        <ele>2711.0</ele>
      </trkpt>
      <trkpt lat="44.31525" lon="6.82201">
        <time>2023-04-10T10:31:03+00:00</time>
        <ele>2711.0</ele>
      </trkpt>
      <trkpt lat="44.31525" lon="6.82201">
        <time>2023-04-10T10:31:04+00:00</time>
        <ele>2711.0</ele>
      </trkpt>
      <trkpt lat="44.31525" lon="6.82201">
        <time>2023-04-10T10:31:05+00:00</time>
        <ele>2711.0</ele>
      </trkpt>
      <trkpt lat="44.31525" lon="6.82201">
        <time>2023-04-10T10:31:06+00:00</time>
        <ele>2711.0</ele>
      </trkpt>
      <trkpt lat="44.31525" lon="6.82201">
        <time>2023-04-10T10:31:07+00:00</time>
        <ele>2711.0</ele>
      </trkpt>
      <trkpt lat="44.31525" lon="6.82201">
        <time>2023-04-10T10:31:08+00:00</time>
        <ele>2711.0</ele>
      </trkpt>
      <trkpt lat="44.31525" lon="6.82201">
        <time>2023-04-10T10:31:09+00:00</time>
        <ele>2711.0</ele>
      </trkpt>
      <trkpt lat="44.31525" lon="6.82201">
        <time>2023-04-10T10:31:10+00:00</time>
        <ele>2711.0</ele>
      </trkpt>
      <trkpt lat="44.31525" lon="6.82201">
        <time>2023-04-10T10:31:11+00:00</time>
        <ele>2711.0</ele>
      </trkpt>
      <trkpt lat="44.31525" lon="6.82201">
        <time>2023-04-10T10:31:12+00:00</time>
        <ele>2711.0</ele>
      </trkpt>
      <trkpt lat="44.31525" lon="6.82201">
        <time>2023-04-10T10:31:13+00:00</time>
        <ele>2711.0</ele>
      </trkpt>
      <trkpt lat="44.31525" lon="6.82201">
        <time>2023-04-10T10:31:14+00:00</time>
        <ele>2711.0</ele>
      </trkpt>
      <trkpt lat="44.31525" lon="6.82201">
        <time>2023-04-10T10:31:15+00:00</time>
        <ele>2711.0</ele>
      </trkpt>
      <trkpt lat="44.31525" lon="6.82201">
        <time>2023-04-10T10:31:16+00:00</time>
        <ele>2711.0</ele>
      </trkpt>
      <trkpt lat="44.31525" lon="6.82201">
        <time>2023-04-10T10:31:17+00:00</time>
        <ele>2711.0</ele>
      </trkpt>
      <trkpt lat="44.31525" lon="6.82201">
        <time>2023-04-10T10:31:18+00:00</time>
        <ele>2711.0</ele>
      </trkpt>
      <trkpt lat="44.31525" lon="6.82201">
        <time>2023-04-10T10:31:19+00:00</time>
        <ele>2711.0</ele>
      </trkpt>
      <trkpt lat="44.31525" lon="6.82201">
        <time>2023-04-10T10:31:20+00:00</time>
        <ele>2711.0</ele>
      </trkpt>
      <trkpt lat="44.31525" lon="6.82201">
        <time>2023-04-10T10:31:21+00:00</time>
        <ele>2711.0</ele>
      </trkpt>
      <trkpt lat="44.31525" lon="6.82201">
        <time>2023-04-10T10:31:22+00:00</time>
        <ele>2711.0</ele>
      </trkpt>
      <trkpt lat="44.31525" lon="6.82201">
        <time>2023-04-10T10:31:23+00:00</time>
        <ele>2711.0</ele>
      </trkpt>
      <trkpt lat="44.31525" lon="6.82201">
        <time>2023-04-10T10:31:24+00:00</time>
        <ele>2711.0</ele>
      </trkpt>
      <trkpt lat="44.31525" lon="6.82201">
        <time>2023-04-10T10:31:25+00:00</time>
        <ele>2711.0</ele>
      </trkpt>
      <trkpt lat="44.31525" lon="6.82201">
        <time>2023-04-10T10:31:26+00:00</time>
        <ele>2711.0</ele>
      </trkpt>
      <trkpt lat="44.31525" lon="6.82201">
        <time>2023-04-10T10:31:27+00:00</time>
        <ele>2711.0</ele>
      </trkpt>
      <trkpt lat="44.31525" lon="6.82201">
        <time>2023-04-10T10:31:28+00:00</time>
        <ele>2711.0</ele>
      </trkpt>
      <trkpt lat="44.31525" lon="6.82201">
        <time>2023-04-10T10:31:29+00:00</time>
        <ele>2711.0</ele>
      </trkpt>
      <trkpt lat="44.31525" lon="6.82201">
        <time>2023-04-10T10:31:30+00:00</time>
        <ele>2711.0</ele>
      </trkpt>
      <trkpt lat="44.31525" lon="6.82201">
        <time>2023-04-10T10:31:31+00:00</time>
        <ele>2711.0</ele>
      </trkpt>
      <trkpt lat="44.31525" lon="6.82201">
        <time>2023-04-10T10:31:32+00:00</time>
        <ele>2711.0</ele>
      </trkpt>
      <trkpt lat="44.31525" lon="6.82201">
        <time>2023-04-10T10:31:33+00:00</time>
        <ele>2711.0</ele>
      </trkpt>
      <trkpt lat="44.31525" lon="6.82201">
        <time>2023-04-10T10:31:34+00:00</time>
        <ele>2711.0</ele>
      </trkpt>
      <trkpt lat="44.31525" lon="6.82201">
        <time>2023-04-10T10:31:35+00:00</time>
        <ele>2711.0</ele>
      </trkpt>
      <trkpt lat="44.31525" lon="6.82201">
        <time>2023-04-10T10:31:36+00:00</time>
        <ele>2711.0</ele>
      </trkpt>
      <trkpt lat="44.31525" lon="6.82201">
        <time>2023-04-10T10:31:37+00:00</time>
        <ele>2711.0</ele>
      </trkpt>
      <trkpt lat="44.31525" lon="6.82201">
        <time>2023-04-10T10:31:38+00:00</time>
        <ele>2711.0</ele>
      </trkpt>
      <trkpt lat="44.31525" lon="6.82201">
        <time>2023-04-10T10:31:39+00:00</time>
        <ele>2711.0</ele>
      </trkpt>
      <trkpt lat="44.31525" lon="6.82201">
        <time>2023-04-10T10:31:40+00:00</time>
        <ele>2711.0</ele>
      </trkpt>
      <trkpt lat="44.31525" lon="6.82201">
        <time>2023-04-10T10:31:41+00:00</time>
        <ele>2711.0</ele>
      </trkpt>
      <trkpt lat="44.31525" lon="6.82201">
        <time>2023-04-10T10:31:42+00:00</time>
        <ele>2711.0</ele>
      </trkpt>
      <trkpt lat="44.31525" lon="6.82201">
        <time>2023-04-10T10:31:43+00:00</time>
        <ele>2711.0</ele>
      </trkpt>
      <trkpt lat="44.31525" lon="6.82201">
        <time>2023-04-10T10:31:44+00:00</time>
        <ele>2711.0</ele>
      </trkpt>
      <trkpt lat="44.31525" lon="6.82201">
        <time>2023-04-10T10:31:45+00:00</time>
        <ele>2711.0</ele>
      </trkpt>
      <trkpt lat="44.31525" lon="6.82201">
        <time>2023-04-10T10:31:46+00:00</time>
        <ele>2711.0</ele>
      </trkpt>
      <trkpt lat="44.31525" lon="6.82201">
        <time>2023-04-10T10:31:47+00:00</time>
        <ele>2711.0</ele>
      </trkpt>
      <trkpt lat="44.31525" lon="6.82201">
        <time>2023-04-10T10:31:48+00:00</time>
        <ele>2711.0</ele>
      </trkpt>
      <trkpt lat="44.31525" lon="6.82201">
        <time>2023-04-10T10:31:49+00:00</time>
        <ele>2711.0</ele>
      </trkpt>
      <trkpt lat="44.31525" lon="6.82201">
        <time>2023-04-10T10:31:50+00:00</time>
        <ele>2711.0</ele>
      </trkpt>
      <trkpt lat="44.31525" lon="6.82201">
        <time>2023-04-10T10:31:51+00:00</time>
        <ele>2711.0</ele>
      </trkpt>
      <trkpt lat="44.31525" lon="6.82201">
        <time>2023-04-10T10:31:52+00:00</time>
        <ele>2711.0</ele>
      </trkpt>
      <trkpt lat="44.31525" lon="6.82201">
        <time>2023-04-10T10:31:53+00:00</time>
        <ele>2711.0</ele>
      </trkpt>
      <trkpt lat="44.31525" lon="6.82201">
        <time>2023-04-10T10:31:54+00:00</time>
        <ele>2711.0</ele>
      </trkpt>
      <trkpt lat="44.31525" lon="6.82201">
        <time>2023-04-10T10:31:55+00:00</time>
        <ele>2711.0</ele>
      </trkpt>
      <trkpt lat="44.31525" lon="6.82201">
        <time>2023-04-10T10:31:56+00:00</time>
        <ele>2711.0</ele>
      </trkpt>
      <trkpt lat="44.31525" lon="6.82201">
        <time>2023-04-10T10:31:57+00:00</time>
        <ele>2711.0</ele>
      </trkpt>
      <trkpt lat="44.31525" lon="6.82201">
        <time>2023-04-10T10:31:58+00:00</time>
        <ele>2711.0</ele>
      </trkpt>
      <trkpt lat="44.31525" lon="6.82201">
        <time>2023-04-10T10:31:59+00:00</time>
        <ele>2711.0</ele>
      </trkpt>
      <trkpt lat="44.31525" lon="6.82201">
        <time>2023-04-10T10:32:00+00:00</time>
        <ele>2711.0</ele>
      </trkpt>
      <trkpt lat="44.31525" lon="6.82201">
        <time>2023-04-10T10:32:01+00:00</time>
        <ele>2711.0</ele>
      </trkpt>
      <trkpt lat="44.31525" lon="6.82201">
        <time>2023-04-10T10:32:02+00:00</time>
        <ele>2711.0</ele>
      </trkpt>
      <trkpt lat="44.31525" lon="6.82201">
        <time>2023-04-10T10:32:03+00:00</time>
        <ele>2711.0</ele>
      </trkpt>
      <trkpt lat="44.31525" lon="6.82201">
        <time>2023-04-10T10:32:04+00:00</time>
        <ele>2711.0</ele>
      </trkpt>
      <trkpt lat="44.31525" lon="6.82201">
        <time>2023-04-10T10:32:05+00:00</time>
        <ele>2711.0</ele>
      </trkpt>
      <trkpt lat="44.31525" lon="6.82201">
        <time>2023-04-10T10:32:06+00:00</time>
        <ele>2711.0</ele>
      </trkpt>
      <trkpt lat="44.31525" lon="6.82201">
        <time>2023-04-10T10:32:07+00:00</time>
        <ele>2711.0</ele>
      </trkpt>
      <trkpt lat="44.31525" lon="6.82201">
        <time>2023-04-10T10:32:08+00:00</time>
        <ele>2711.0</ele>
      </trkpt>
      <trkpt lat="44.31525" lon="6.82201">
        <time>2023-04-10T10:32:09+00:00</time>
        <ele>2711.0</ele>
      </trkpt>
      <trkpt lat="44.31525" lon="6.82201">
        <time>2023-04-10T10:32:10+00:00</time>
        <ele>2711.0</ele>
      </trkpt>
      <trkpt lat="44.31525" lon="6.82201">
        <time>2023-04-10T10:32:11+00:00</time>
        <ele>2711.0</ele>
      </trkpt>
      <trkpt lat="44.31525" lon="6.82201">
        <time>2023-04-10T10:32:12+00:00</time>
        <ele>2711.0</ele>
      </trkpt>
      <trkpt lat="44.31525" lon="6.82201">
        <time>2023-04-10T10:32:13+00:00</time>
        <ele>2711.0</ele>
      </trkpt>
      <trkpt lat="44.31525" lon="6.82201">
        <time>2023-04-10T10:32:14+00:00</time>
        <ele>2711.0</ele>
      </trkpt>
      <trkpt lat="44.31525" lon="6.82201">
        <time>2023-04-10T10:32:15+00:00</time>
        <ele>2711.0</ele>
      </trkpt>
      <trkpt lat="44.31525" lon="6.82201">
        <time>2023-04-10T10:32:16+00:00</time>
        <ele>2711.0</ele>
      </trkpt>
      <trkpt lat="44.31525" lon="6.82201">
        <time>2023-04-10T10:32:17+00:00</time>
        <ele>2711.0</ele>
      </trkpt>
      <trkpt lat="44.31525" lon="6.82201">
        <time>2023-04-10T10:32:18+00:00</time>
        <ele>2711.0</ele>
      </trkpt>
      <trkpt lat="44.31525" lon="6.82201">
        <time>2023-04-10T10:32:19+00:00</time>
        <ele>2711.0</ele>
      </trkpt>
      <trkpt lat="44.31525" lon="6.82201">
        <time>2023-04-10T10:32:20+00:00</time>
        <ele>2711.0</ele>
      </trkpt>
      <trkpt lat="44.31525" lon="6.82201">
        <time>2023-04-10T10:32:21+00:00</time>
        <ele>2711.0</ele>
      </trkpt>
      <trkpt lat="44.31525" lon="6.82201">
        <time>2023-04-10T10:32:22+00:00</time>
        <ele>2711.0</ele>
      </trkpt>
      <trkpt lat="44.31525" lon="6.82201">
        <time>2023-04-10T10:32:23+00:00</time>
        <ele>2711.0</ele>
      </trkpt>
      <trkpt lat="44.31525" lon="6.82201">
        <time>2023-04-10T10:32:24+00:00</time>
        <ele>2711.0</ele>
      </trkpt>
      <trkpt lat="44.31525" lon="6.82201">
        <time>2023-04-10T10:32:25+00:00</time>
        <ele>2711.0</ele>
      </trkpt>
      <trkpt lat="44.31525" lon="6.82201">
        <time>2023-04-10T10:32:26+00:00</time>
        <ele>2711.0</ele>
      </trkpt>
      <trkpt lat="44.31525" lon="6.82201">
        <time>2023-04-10T10:32:27+00:00</time>
        <ele>2711.0</ele>
      </trkpt>
      <trkpt lat="44.31525" lon="6.82201">
        <time>2023-04-10T10:32:28+00:00</time>
        <ele>2711.0</ele>
      </trkpt>
      <trkpt lat="44.31525" lon="6.82201">
        <time>2023-04-10T10:32:29+00:00</time>
        <ele>2711.0</ele>
      </trkpt>
      <trkpt lat="44.31525" lon="6.82201">
        <time>2023-04-10T10:32:30+00:00</time>
        <ele>2711.0</ele>
      </trkpt>
      <trkpt lat="44.31525" lon="6.82201">
        <time>2023-04-10T10:32:31+00:00</time>
        <ele>2711.0</ele>
      </trkpt>
      <trkpt lat="44.31525" lon="6.82201">
        <time>2023-04-10T10:32:32+00:00</time>
        <ele>2711.0</ele>
      </trkpt>
      <trkpt lat="44.31525" lon="6.82201">
        <time>2023-04-10T10:32:33+00:00</time>
        <ele>2711.0</ele>
      </trkpt>
      <trkpt lat="44.31525" lon="6.82201">
        <time>2023-04-10T10:32:34+00:00</time>
        <ele>2711.0</ele>
      </trkpt>
      <trkpt lat="44.31525" lon="6.82201">
        <time>2023-04-10T10:32:35+00:00</time>
        <ele>2711.0</ele>
      </trkpt>
      <trkpt lat="44.31525" lon="6.82201">
        <time>2023-04-10T10:32:36+00:00</time>
        <ele>2711.0</ele>
      </trkpt>
      <trkpt lat="44.31525" lon="6.82201">
        <time>2023-04-10T10:32:37+00:00</time>
        <ele>2711.0</ele>
      </trkpt>
      <trkpt lat="44.31525" lon="6.82201">
        <time>2023-04-10T10:32:38+00:00</time>
        <ele>2711.0</ele>
      </trkpt>
      <trkpt lat="44.31525" lon="6.82201">
        <time>2023-04-10T10:32:39+00:00</time>
        <ele>2711.0</ele>
      </trkpt>
      <trkpt lat="44.31525" lon="6.82201">
        <time>2023-04-10T10:32:40+00:00</time>
        <ele>2711.0</ele>
      </trkpt>
      <trkpt lat="44.31525" lon="6.82201">
        <time>2023-04-10T10:32:41+00:00</time>
        <ele>2711.0</ele>
      </trkpt>
      <trkpt lat="44.31525" lon="6.82201">
        <time>2023-04-10T10:32:42+00:00</time>
        <ele>2711.0</ele>
      </trkpt>
      <trkpt lat="44.31525" lon="6.82201">
        <time>2023-04-10T10:32:43+00:00</time>
        <ele>2711.0</ele>
      </trkpt>
      <trkpt lat="44.31525" lon="6.82201">
        <time>2023-04-10T10:32:44+00:00</time>
        <ele>2711.0</ele>
      </trkpt>
      <trkpt lat="44.31525" lon="6.82201">
        <time>2023-04-10T10:32:45+00:00</time>
        <ele>2711.0</ele>
      </trkpt>
      <trkpt lat="44.31525" lon="6.82201">
        <time>2023-04-10T10:32:46+00:00</time>
        <ele>2711.0</ele>
      </trkpt>
      <trkpt lat="44.31525" lon="6.82201">
        <time>2023-04-10T10:32:47+00:00</time>
        <ele>2711.0</ele>
      </trkpt>
      <trkpt lat="44.31525" lon="6.82201">
        <time>2023-04-10T10:32:48+00:00</time>
        <ele>2711.0</ele>
      </trkpt>
      <trkpt lat="44.31525" lon="6.82201">
        <time>2023-04-10T10:32:49+00:00</time>
        <ele>2711.0</ele>
      </trkpt>
      <trkpt lat="44.31525" lon="6.82201">
        <time>2023-04-10T10:32:50+00:00</time>
        <ele>2711.0</ele>
      </trkpt>
      <trkpt lat="44.31525" lon="6.82201">
        <time>2023-04-10T10:32:51+00:00</time>
        <ele>2711.0</ele>
      </trkpt>
      <trkpt lat="44.31525" lon="6.82201">
        <time>2023-04-10T10:32:52+00:00</time>
        <ele>2711.0</ele>
      </trkpt>
      <trkpt lat="44.31525" lon="6.82201">
        <time>2023-04-10T10:32:53+00:00</time>
        <ele>2711.0</ele>
      </trkpt>
      <trkpt lat="44.31525" lon="6.82201">
        <time>2023-04-10T10:32:54+00:00</time>
        <ele>2711.0</ele>
      </trkpt>
      <trkpt lat="44.31525" lon="6.82201">
        <time>2023-04-10T10:32:55+00:00</time>
        <ele>2711.0</ele>
      </trkpt>
      <trkpt lat="44.31525" lon="6.82201">
        <time>2023-04-10T10:32:56+00:00</time>
        <ele>2711.0</ele>
      </trkpt>
      <trkpt lat="44.31525" lon="6.82201">
        <time>2023-04-10T10:32:57+00:00</time>
        <ele>2711.0</ele>
      </trkpt>
      <trkpt lat="44.31525" lon="6.82201">
        <time>2023-04-10T10:32:58+00:00</time>
        <ele>2711.0</ele>
      </trkpt>
      <trkpt lat="44.31525" lon="6.82201">
        <time>2023-04-10T10:32:59+00:00</time>
        <ele>2711.0</ele>
      </trkpt>
      <trkpt lat="44.31525" lon="6.82201">
        <time>2023-04-10T10:33:00+00:00</time>
        <ele>2711.0</ele>
      </trkpt>
      <trkpt lat="44.31525" lon="6.82201">
        <time>2023-04-10T10:33:01+00:00</time>
        <ele>2711.0</ele>
      </trkpt>
      <trkpt lat="44.31525" lon="6.82201">
        <time>2023-04-10T10:33:02+00:00</time>
        <ele>2711.0</ele>
      </trkpt>
      <trkpt lat="44.31525" lon="6.82201">
        <time>2023-04-10T10:33:03+00:00</time>
        <ele>2711.0</ele>
      </trkpt>
      <trkpt lat="44.31525" lon="6.82201">
        <time>2023-04-10T10:33:04+00:00</time>
        <ele>2711.0</ele>
      </trkpt>
      <trkpt lat="44.31525" lon="6.82201">
        <time>2023-04-10T10:33:05+00:00</time>
        <ele>2711.0</ele>
      </trkpt>
      <trkpt lat="44.31525" lon="6.82201">
        <time>2023-04-10T10:33:06+00:00</time>
        <ele>2711.0</ele>
      </trkpt>
      <trkpt lat="44.31525" lon="6.82201">
        <time>2023-04-10T10:33:07+00:00</time>
        <ele>2711.0</ele>
      </trkpt>
      <trkpt lat="44.31525" lon="6.82201">
        <time>2023-04-10T10:33:08+00:00</time>
        <ele>2711.0</ele>
      </trkpt>
      <trkpt lat="44.31525" lon="6.82201">
        <time>2023-04-10T10:33:09+00:00</time>
        <ele>2711.0</ele>
      </trkpt>
      <trkpt lat="44.31525" lon="6.82201">
        <time>2023-04-10T10:33:10+00:00</time>
        <ele>2711.0</ele>
      </trkpt>
      <trkpt lat="44.31525" lon="6.82201">
        <time>2023-04-10T10:33:11+00:00</time>
        <ele>2711.0</ele>
      </trkpt>
      <trkpt lat="44.31525" lon="6.82201">
        <time>2023-04-10T10:33:12+00:00</time>
        <ele>2711.0</ele>
      </trkpt>
      <trkpt lat="44.31525" lon="6.82201">
        <time>2023-04-10T10:33:13+00:00</time>
        <ele>2711.0</ele>
      </trkpt>
      <trkpt lat="44.31525" lon="6.82201">
        <time>2023-04-10T10:33:14+00:00</time>
        <ele>2711.0</ele>
      </trkpt>
      <trkpt lat="44.31525" lon="6.82201">
        <time>2023-04-10T10:33:15+00:00</time>
        <ele>2711.0</ele>
      </trkpt>
      <trkpt lat="44.31525" lon="6.82201">
        <time>2023-04-10T10:33:16+00:00</time>
        <ele>2711.0</ele>
      </trkpt>
      <trkpt lat="44.31525" lon="6.82201">
        <time>2023-04-10T10:33:17+00:00</time>
        <ele>2711.0</ele>
      </trkpt>
      <trkpt lat="44.31525" lon="6.82201">
        <time>2023-04-10T10:33:18+00:00</time>
        <ele>2711.0</ele>
      </trkpt>
      <trkpt lat="44.31525" lon="6.82201">
        <time>2023-04-10T10:33:19+00:00</time>
        <ele>2711.0</ele>
      </trkpt>
      <trkpt lat="44.31525" lon="6.82201">
        <time>2023-04-10T10:33:20+00:00</time>
        <ele>2711.0</ele>
      </trkpt>
      <trkpt lat="44.31525" lon="6.82201">
        <time>2023-04-10T10:33:21+00:00</time>
        <ele>2711.0</ele>
      </trkpt>
      <trkpt lat="44.31525" lon="6.82201">
        <time>2023-04-10T10:33:22+00:00</time>
        <ele>2711.0</ele>
      </trkpt>
      <trkpt lat="44.31525" lon="6.82201">
        <time>2023-04-10T10:33:23+00:00</time>
        <ele>2711.0</ele>
      </trkpt>
      <trkpt lat="44.31525" lon="6.82201">
        <time>2023-04-10T10:33:24+00:00</time>
        <ele>2711.0</ele>
      </trkpt>
      <trkpt lat="44.31525" lon="6.82201">
        <time>2023-04-10T10:33:25+00:00</time>
        <ele>2711.0</ele>
      </trkpt>
      <trkpt lat="44.31525" lon="6.82201">
        <time>2023-04-10T10:33:26+00:00</time>
        <ele>2711.0</ele>
      </trkpt>
      <trkpt lat="44.31525" lon="6.82201">
        <time>2023-04-10T10:33:27+00:00</time>
        <ele>2711.0</ele>
      </trkpt>
      <trkpt lat="44.31525" lon="6.82201">
        <time>2023-04-10T10:33:28+00:00</time>
        <ele>2711.0</ele>
      </trkpt>
      <trkpt lat="44.31525" lon="6.82201">
        <time>2023-04-10T10:33:29+00:00</time>
        <ele>2711.0</ele>
      </trkpt>
      <trkpt lat="44.31525" lon="6.82201">
        <time>2023-04-10T10:33:30+00:00</time>
        <ele>2711.0</ele>
      </trkpt>
      <trkpt lat="44.31525" lon="6.82201">
        <time>2023-04-10T10:33:31+00:00</time>
        <ele>2711.0</ele>
      </trkpt>
      <trkpt lat="44.31525" lon="6.82201">
        <time>2023-04-10T10:33:32+00:00</time>
        <ele>2711.0</ele>
      </trkpt>
      <trkpt lat="44.31525" lon="6.82201">
        <time>2023-04-10T10:33:33+00:00</time>
        <ele>2711.0</ele>
      </trkpt>
      <trkpt lat="44.31525" lon="6.82201">
        <time>2023-04-10T10:33:34+00:00</time>
        <ele>2711.0</ele>
      </trkpt>
      <trkpt lat="44.31525" lon="6.82201">
        <time>2023-04-10T10:33:35+00:00</time>
        <ele>2711.0</ele>
      </trkpt>
      <trkpt lat="44.31525" lon="6.82201">
        <time>2023-04-10T10:33:36+00:00</time>
        <ele>2711.0</ele>
      </trkpt>
      <trkpt lat="44.31525" lon="6.82201">
        <time>2023-04-10T10:33:37+00:00</time>
        <ele>2711.0</ele>
      </trkpt>
      <trkpt lat="44.31525" lon="6.82201">
        <time>2023-04-10T10:33:38+00:00</time>
        <ele>2711.0</ele>
      </trkpt>
      <trkpt lat="44.31525" lon="6.82201">
        <time>2023-04-10T10:33:39+00:00</time>
        <ele>2711.0</ele>
      </trkpt>
      <trkpt lat="44.31525" lon="6.82201">
        <time>2023-04-10T10:33:40+00:00</time>
        <ele>2711.0</ele>
      </trkpt>
      <trkpt lat="44.31525" lon="6.82201">
        <time>2023-04-10T10:33:41+00:00</time>
        <ele>2711.0</ele>
      </trkpt>
      <trkpt lat="44.31525" lon="6.82201">
        <time>2023-04-10T10:33:42+00:00</time>
        <ele>2711.0</ele>
      </trkpt>
      <trkpt lat="44.31525" lon="6.82201">
        <time>2023-04-10T10:33:43+00:00</time>
        <ele>2711.0</ele>
      </trkpt>
      <trkpt lat="44.31525" lon="6.82201">
        <time>2023-04-10T10:33:44+00:00</time>
        <ele>2711.0</ele>
      </trkpt>
      <trkpt lat="44.31525" lon="6.82201">
        <time>2023-04-10T10:33:45+00:00</time>
        <ele>2711.0</ele>
      </trkpt>
      <trkpt lat="44.31525" lon="6.82201">
        <time>2023-04-10T10:33:46+00:00</time>
        <ele>2711.0</ele>
      </trkpt>
      <trkpt lat="44.31525" lon="6.82201">
        <time>2023-04-10T10:33:47+00:00</time>
        <ele>2711.0</ele>
      </trkpt>
      <trkpt lat="44.31525" lon="6.82201">
        <time>2023-04-10T10:33:48+00:00</time>
        <ele>2711.0</ele>
      </trkpt>
      <trkpt lat="44.31525" lon="6.82201">
        <time>2023-04-10T10:33:49+00:00</time>
        <ele>2711.0</ele>
      </trkpt>
      <trkpt lat="44.31525" lon="6.82201">
        <time>2023-04-10T10:33:50+00:00</time>
        <ele>2711.0</ele>
      </trkpt>
      <trkpt lat="44.31525" lon="6.82201">
        <time>2023-04-10T10:33:51+00:00</time>
        <ele>2711.0</ele>
      </trkpt>
      <trkpt lat="44.31525" lon="6.82201">
        <time>2023-04-10T10:33:52+00:00</time>
        <ele>2711.0</ele>
      </trkpt>
      <trkpt lat="44.31525" lon="6.82201">
        <time>2023-04-10T10:33:53+00:00</time>
        <ele>2711.0</ele>
      </trkpt>
      <trkpt lat="44.31525" lon="6.82201">
        <time>2023-04-10T10:33:54+00:00</time>
        <ele>2711.0</ele>
      </trkpt>
      <trkpt lat="44.31525" lon="6.82201">
        <time>2023-04-10T10:33:55+00:00</time>
        <ele>2711.0</ele>
      </trkpt>
      <trkpt lat="44.31525" lon="6.82201">
        <time>2023-04-10T10:33:56+00:00</time>
        <ele>2711.0</ele>
      </trkpt>
      <trkpt lat="44.31525" lon="6.82201">
        <time>2023-04-10T10:33:57+00:00</time>
        <ele>2711.0</ele>
      </trkpt>
      <trkpt lat="44.31525" lon="6.82201">
        <time>2023-04-10T10:33:58+00:00</time>
        <ele>2711.0</ele>
      </trkpt>
      <trkpt lat="44.31525" lon="6.82201">
        <time>2023-04-10T10:33:59+00:00</time>
        <ele>2711.0</ele>
      </trkpt>
      <trkpt lat="44.31525" lon="6.82201">
        <time>2023-04-10T10:34:00+00:00</time>
        <ele>2711.0</ele>
      </trkpt>
      <trkpt lat="44.31525" lon="6.82201">
        <time>2023-04-10T10:34:01+00:00</time>
        <ele>2711.0</ele>
      </trkpt>
      <trkpt lat="44.31525" lon="6.82201">
        <time>2023-04-10T10:34:02+00:00</time>
        <ele>2711.0</ele>
      </trkpt>
      <trkpt lat="44.31525" lon="6.82201">
        <time>2023-04-10T10:34:03+00:00</time>
        <ele>2711.0</ele>
      </trkpt>
      <trkpt lat="44.31525" lon="6.82201">
        <time>2023-04-10T10:34:04+00:00</time>
        <ele>2711.0</ele>
      </trkpt>
      <trkpt lat="44.31525" lon="6.82201">
        <time>2023-04-10T10:34:05+00:00</time>
        <ele>2711.0</ele>
      </trkpt>
      <trkpt lat="44.31525" lon="6.82201">
        <time>2023-04-10T10:34:06+00:00</time>
        <ele>2711.0</ele>
      </trkpt>
      <trkpt lat="44.31525" lon="6.82201">
        <time>2023-04-10T10:34:07+00:00</time>
        <ele>2711.0</ele>
      </trkpt>
      <trkpt lat="44.31525" lon="6.82201">
        <time>2023-04-10T10:34:08+00:00</time>
        <ele>2711.0</ele>
      </trkpt>
      <trkpt lat="44.31525" lon="6.82201">
        <time>2023-04-10T10:34:09+00:00</time>
        <ele>2711.0</ele>
      </trkpt>
      <trkpt lat="44.31525" lon="6.82201">
        <time>2023-04-10T10:34:10+00:00</time>
        <ele>2711.0</ele>
      </trkpt>
      <trkpt lat="44.31525" lon="6.82201">
        <time>2023-04-10T10:34:11+00:00</time>
        <ele>2711.0</ele>
      </trkpt>
      <trkpt lat="44.31525" lon="6.82201">
        <time>2023-04-10T10:34:12+00:00</time>
        <ele>2711.0</ele>
      </trkpt>
      <trkpt lat="44.31525" lon="6.82201">
        <time>2023-04-10T10:34:13+00:00</time>
        <ele>2711.0</ele>
      </trkpt>
      <trkpt lat="44.31525" lon="6.82201">
        <time>2023-04-10T10:34:14+00:00</time>
        <ele>2711.0</ele>
      </trkpt>
      <trkpt lat="44.31525" lon="6.82201">
        <time>2023-04-10T10:34:15+00:00</time>
        <ele>2711.0</ele>
      </trkpt>
      <trkpt lat="44.31525" lon="6.82201">
        <time>2023-04-10T10:34:16+00:00</time>
        <ele>2711.0</ele>
      </trkpt>
      <trkpt lat="44.31525" lon="6.82201">
        <time>2023-04-10T10:34:17+00:00</time>
        <ele>2711.0</ele>
      </trkpt>
      <trkpt lat="44.31525" lon="6.82201">
        <time>2023-04-10T10:34:18+00:00</time>
        <ele>2711.0</ele>
      </trkpt>
      <trkpt lat="44.31525" lon="6.82201">
        <time>2023-04-10T10:34:19+00:00</time>
        <ele>2711.0</ele>
      </trkpt>
      <trkpt lat="44.31525" lon="6.82201">
        <time>2023-04-10T10:34:20+00:00</time>
        <ele>2711.0</ele>
      </trkpt>
      <trkpt lat="44.31525" lon="6.82201">
        <time>2023-04-10T10:34:21+00:00</time>
        <ele>2711.0</ele>
      </trkpt>
      <trkpt lat="44.31525" lon="6.82201">
        <time>2023-04-10T10:34:22+00:00</time>
        <ele>2711.0</ele>
      </trkpt>
      <trkpt lat="44.31525" lon="6.82201">
        <time>2023-04-10T10:34:23+00:00</time>
        <ele>2711.0</ele>
      </trkpt>
      <trkpt lat="44.31525" lon="6.82201">
        <time>2023-04-10T10:34:24+00:00</time>
        <ele>2711.0</ele>
      </trkpt>
      <trkpt lat="44.31525" lon="6.82201">
        <time>2023-04-10T10:34:25+00:00</time>
        <ele>2711.0</ele>
      </trkpt>
      <trkpt lat="44.31525" lon="6.82201">
        <time>2023-04-10T10:34:26+00:00</time>
        <ele>2711.0</ele>
      </trkpt>
      <trkpt lat="44.31525" lon="6.82201">
        <time>2023-04-10T10:34:27+00:00</time>
        <ele>2711.0</ele>
      </trkpt>
      <trkpt lat="44.31525" lon="6.82201">
        <time>2023-04-10T10:34:28+00:00</time>
        <ele>2711.0</ele>
      </trkpt>
      <trkpt lat="44.31525" lon="6.82201">
        <time>2023-04-10T10:34:29+00:00</time>
        <ele>2711.0</ele>
      </trkpt>
      <trkpt lat="44.31525" lon="6.82201">
        <time>2023-04-10T10:34:30+00:00</time>
        <ele>2711.0</ele>
      </trkpt>
      <trkpt lat="44.31525" lon="6.82201">
        <time>2023-04-10T10:34:31+00:00</time>
        <ele>2711.0</ele>
      </trkpt>
      <trkpt lat="44.31525" lon="6.82201">
        <time>2023-04-10T10:34:32+00:00</time>
        <ele>2711.0</ele>
      </trkpt>
      <trkpt lat="44.31525" lon="6.82201">
        <time>2023-04-10T10:34:33+00:00</time>
        <ele>2711.0</ele>
      </trkpt>
      <trkpt lat="44.31525" lon="6.82201">
        <time>2023-04-10T10:34:34+00:00</time>
        <ele>2711.0</ele>
      </trkpt>
      <trkpt lat="44.31525" lon="6.82201">
        <time>2023-04-10T10:34:35+00:00</time>
        <ele>2711.0</ele>
      </trkpt>
      <trkpt lat="44.31525" lon="6.82201">
        <time>2023-04-10T10:34:36+00:00</time>
        <ele>2711.0</ele>
      </trkpt>
      <trkpt lat="44.31525" lon="6.82201">
        <time>2023-04-10T10:34:37+00:00</time>
        <ele>2711.0</ele>
      </trkpt>
      <trkpt lat="44.31525" lon="6.82201">
        <time>2023-04-10T10:34:38+00:00</time>
        <ele>2711.0</ele>
      </trkpt>
      <trkpt lat="44.31525" lon="6.82201">
        <time>2023-04-10T10:34:39+00:00</time>
        <ele>2711.0</ele>
      </trkpt>
      <trkpt lat="44.31525" lon="6.82201">
        <time>2023-04-10T10:34:40+00:00</time>
        <ele>2711.0</ele>
      </trkpt>
      <trkpt lat="44.31525" lon="6.82201">
        <time>2023-04-10T10:34:41+00:00</time>
        <ele>2711.0</ele>
      </trkpt>
      <trkpt lat="44.31525" lon="6.82201">
        <time>2023-04-10T10:34:42+00:00</time>
        <ele>2711.0</ele>
      </trkpt>
      <trkpt lat="44.31525" lon="6.82201">
        <time>2023-04-10T10:34:43+00:00</time>
        <ele>2711.0</ele>
      </trkpt>
      <trkpt lat="44.31525" lon="6.82201">
        <time>2023-04-10T10:34:44+00:00</time>
        <ele>2711.0</ele>
      </trkpt>
      <trkpt lat="44.31525" lon="6.82201">
        <time>2023-04-10T10:34:45+00:00</time>
        <ele>2711.0</ele>
      </trkpt>
      <trkpt lat="44.31525" lon="6.82201">
        <time>2023-04-10T10:34:46+00:00</time>
        <ele>2711.0</ele>
      </trkpt>
      <trkpt lat="44.31525" lon="6.82201">
        <time>2023-04-10T10:34:47+00:00</time>
        <ele>2711.0</ele>
      </trkpt>
      <trkpt lat="44.31525" lon="6.82201">
        <time>2023-04-10T10:34:48+00:00</time>
        <ele>2711.0</ele>
      </trkpt>
      <trkpt lat="44.31525" lon="6.82201">
        <time>2023-04-10T10:34:49+00:00</time>
        <ele>2711.0</ele>
      </trkpt>
      <trkpt lat="44.31525" lon="6.82201">
        <time>2023-04-10T10:34:50+00:00</time>
        <ele>2711.0</ele>
      </trkpt>
      <trkpt lat="44.31525" lon="6.82201">
        <time>2023-04-10T10:34:51+00:00</time>
        <ele>2711.0</ele>
      </trkpt>
      <trkpt lat="44.31525" lon="6.82201">
        <time>2023-04-10T10:34:52+00:00</time>
        <ele>2711.0</ele>
      </trkpt>
      <trkpt lat="44.31525" lon="6.82201">
        <time>2023-04-10T10:34:53+00:00</time>
        <ele>2711.0</ele>
      </trkpt>
      <trkpt lat="44.31525" lon="6.82201">
        <time>2023-04-10T10:34:54+00:00</time>
        <ele>2711.0</ele>
      </trkpt>
      <trkpt lat="44.31525" lon="6.82201">
        <time>2023-04-10T10:34:55+00:00</time>
        <ele>2711.0</ele>
      </trkpt>
      <trkpt lat="44.31525" lon="6.82201">
        <time>2023-04-10T10:34:56+00:00</time>
        <ele>2711.0</ele>
      </trkpt>
      <trkpt lat="44.31525" lon="6.82201">
        <time>2023-04-10T10:34:57+00:00</time>
        <ele>2711.0</ele>
      </trkpt>
      <trkpt lat="44.31525" lon="6.82201">
        <time>2023-04-10T10:34:58+00:00</time>
        <ele>2711.0</ele>
      </trkpt>
      <trkpt lat="44.31525" lon="6.82201">
        <time>2023-04-10T10:34:59+00:00</time>
        <ele>2711.0</ele>
      </trkpt>
      <trkpt lat="44.31525" lon="6.82201">
        <time>2023-04-10T10:35:00+00:00</time>
        <ele>2711.0</ele>
      </trkpt>
      <trkpt lat="44.31525" lon="6.82201">
        <time>2023-04-10T10:35:01+00:00</time>
        <ele>2711.0</ele>
      </trkpt>
      <trkpt lat="44.31525" lon="6.82201">
        <time>2023-04-10T10:35:02+00:00</time>
        <ele>2711.0</ele>
      </trkpt>
      <trkpt lat="44.31525" lon="6.82201">
        <time>2023-04-10T10:35:03+00:00</time>
        <ele>2711.0</ele>
      </trkpt>
      <trkpt lat="44.31525" lon="6.82201">
        <time>2023-04-10T10:35:04+00:00</time>
        <ele>2711.0</ele>
      </trkpt>
      <trkpt lat="44.31525" lon="6.82201">
        <time>2023-04-10T10:35:05+00:00</time>
        <ele>2711.0</ele>
      </trkpt>
      <trkpt lat="44.31525" lon="6.82201">
        <time>2023-04-10T10:35:06+00:00</time>
        <ele>2711.0</ele>
      </trkpt>
      <trkpt lat="44.31525" lon="6.82201">
        <time>2023-04-10T10:35:07+00:00</time>
        <ele>2711.0</ele>
      </trkpt>
      <trkpt lat="44.31525" lon="6.82201">
        <time>2023-04-10T10:35:08+00:00</time>
        <ele>2711.0</ele>
      </trkpt>
      <trkpt lat="44.31525" lon="6.82201">
        <time>2023-04-10T10:35:09+00:00</time>
        <ele>2711.0</ele>
      </trkpt>
      <trkpt lat="44.31525" lon="6.82201">
        <time>2023-04-10T10:35:10+00:00</time>
        <ele>2711.0</ele>
      </trkpt>
      <trkpt lat="44.31525" lon="6.82201">
        <time>2023-04-10T10:35:11+00:00</time>
        <ele>2711.0</ele>
      </trkpt>
      <trkpt lat="44.31525" lon="6.82201">
        <time>2023-04-10T10:35:12+00:00</time>
        <ele>2711.0</ele>
      </trkpt>
      <trkpt lat="44.31525" lon="6.82201">
        <time>2023-04-10T10:35:13+00:00</time>
        <ele>2711.0</ele>
      </trkpt>
      <trkpt lat="44.31525" lon="6.82201">
        <time>2023-04-10T10:35:14+00:00</time>
        <ele>2711.0</ele>
      </trkpt>
      <trkpt lat="44.31525" lon="6.82201">
        <time>2023-04-10T10:35:15+00:00</time>
        <ele>2711.0</ele>
      </trkpt>
      <trkpt lat="44.31525" lon="6.82201">
        <time>2023-04-10T10:35:16+00:00</time>
        <ele>2711.0</ele>
      </trkpt>
      <trkpt lat="44.31525" lon="6.82201">
        <time>2023-04-10T10:35:17+00:00</time>
        <ele>2711.0</ele>
      </trkpt>
      <trkpt lat="44.31525" lon="6.82201">
        <time>2023-04-10T10:35:18+00:00</time>
        <ele>2711.0</ele>
      </trkpt>
      <trkpt lat="44.31525" lon="6.82201">
        <time>2023-04-10T10:35:19+00:00</time>
        <ele>2711.0</ele>
      </trkpt>
      <trkpt lat="44.31525" lon="6.82201">
        <time>2023-04-10T10:35:20+00:00</time>
        <ele>2711.0</ele>
      </trkpt>
      <trkpt lat="44.31525" lon="6.82201">
        <time>2023-04-10T10:35:21+00:00</time>
        <ele>2711.0</ele>
      </trkpt>
      <trkpt lat="44.31525" lon="6.82201">
        <time>2023-04-10T10:35:22+00:00</time>
        <ele>2711.0</ele>
      </trkpt>
      <trkpt lat="44.31525" lon="6.82201">
        <time>2023-04-10T10:35:23+00:00</time>
        <ele>2711.0</ele>
      </trkpt>
      <trkpt lat="44.31525" lon="6.82201">
        <time>2023-04-10T10:35:24+00:00</time>
        <ele>2711.0</ele>
      </trkpt>
      <trkpt lat="44.31525" lon="6.82201">
        <time>2023-04-10T10:35:25+00:00</time>
        <ele>2711.0</ele>
      </trkpt>
      <trkpt lat="44.31525" lon="6.82201">
        <time>2023-04-10T10:35:26+00:00</time>
        <ele>2711.0</ele>
      </trkpt>
      <trkpt lat="44.31525" lon="6.82201">
        <time>2023-04-10T10:35:27+00:00</time>
        <ele>2711.0</ele>
      </trkpt>
      <trkpt lat="44.31525" lon="6.82201">
        <time>2023-04-10T10:35:28+00:00</time>
        <ele>2711.0</ele>
      </trkpt>
      <trkpt lat="44.31525" lon="6.82201">
        <time>2023-04-10T10:35:29+00:00</time>
        <ele>2711.0</ele>
      </trkpt>
      <trkpt lat="44.31525" lon="6.82201">
        <time>2023-04-10T10:35:30+00:00</time>
        <ele>2711.0</ele>
      </trkpt>
      <trkpt lat="44.31525" lon="6.82201">
        <time>2023-04-10T10:35:31+00:00</time>
        <ele>2711.0</ele>
      </trkpt>
      <trkpt lat="44.31525" lon="6.82201">
        <time>2023-04-10T10:35:32+00:00</time>
        <ele>2711.0</ele>
      </trkpt>
      <trkpt lat="44.31525" lon="6.82201">
        <time>2023-04-10T10:35:33+00:00</time>
        <ele>2711.0</ele>
      </trkpt>
      <trkpt lat="44.31525" lon="6.82201">
        <time>2023-04-10T10:35:34+00:00</time>
        <ele>2711.0</ele>
      </trkpt>
      <trkpt lat="44.31525" lon="6.82201">
        <time>2023-04-10T10:35:35+00:00</time>
        <ele>2711.0</ele>
      </trkpt>
      <trkpt lat="44.31525" lon="6.82201">
        <time>2023-04-10T10:35:36+00:00</time>
        <ele>2711.0</ele>
      </trkpt>
      <trkpt lat="44.31525" lon="6.82201">
        <time>2023-04-10T10:35:37+00:00</time>
        <ele>2711.0</ele>
      </trkpt>
      <trkpt lat="44.31525" lon="6.82201">
        <time>2023-04-10T10:35:38+00:00</time>
        <ele>2711.0</ele>
      </trkpt>
      <trkpt lat="44.31525" lon="6.82201">
        <time>2023-04-10T10:35:39+00:00</time>
        <ele>2711.0</ele>
      </trkpt>
      <trkpt lat="44.31525" lon="6.82201">
        <time>2023-04-10T10:35:40+00:00</time>
        <ele>2711.0</ele>
      </trkpt>
      <trkpt lat="44.31525" lon="6.82201">
        <time>2023-04-10T10:35:41+00:00</time>
        <ele>2711.0</ele>
      </trkpt>
      <trkpt lat="44.31525" lon="6.82201">
        <time>2023-04-10T10:35:42+00:00</time>
        <ele>2711.0</ele>
      </trkpt>
      <trkpt lat="44.31525" lon="6.82201">
        <time>2023-04-10T10:35:43+00:00</time>
        <ele>2711.0</ele>
      </trkpt>
      <trkpt lat="44.31525" lon="6.82201">
        <time>2023-04-10T10:35:44+00:00</time>
        <ele>2711.0</ele>
      </trkpt>
      <trkpt lat="44.31525" lon="6.82201">
        <time>2023-04-10T10:35:45+00:00</time>
        <ele>2711.0</ele>
      </trkpt>
      <trkpt lat="44.31525" lon="6.82201">
        <time>2023-04-10T10:35:46+00:00</time>
        <ele>2711.0</ele>
      </trkpt>
      <trkpt lat="44.31525" lon="6.82201">
        <time>2023-04-10T10:35:47+00:00</time>
        <ele>2711.0</ele>
      </trkpt>
      <trkpt lat="44.31525" lon="6.82201">
        <time>2023-04-10T10:35:48+00:00</time>
        <ele>2711.0</ele>
      </trkpt>
      <trkpt lat="44.31525" lon="6.82201">
        <time>2023-04-10T10:35:49+00:00</time>
        <ele>2711.0</ele>
      </trkpt>
      <trkpt lat="44.31525" lon="6.82201">
        <time>2023-04-10T10:35:50+00:00</time>
        <ele>2711.0</ele>
      </trkpt>
      <trkpt lat="44.31525" lon="6.82201">
        <time>2023-04-10T10:35:51+00:00</time>
        <ele>2711.0</ele>
      </trkpt>
      <trkpt lat="44.31525" lon="6.82201">
        <time>2023-04-10T10:35:52+00:00</time>
        <ele>2711.0</ele>
      </trkpt>
      <trkpt lat="44.31525" lon="6.82201">
        <time>2023-04-10T10:35:53+00:00</time>
        <ele>2711.0</ele>
      </trkpt>
      <trkpt lat="44.31525" lon="6.82201">
        <time>2023-04-10T10:35:54+00:00</time>
        <ele>2711.0</ele>
      </trkpt>
      <trkpt lat="44.31525" lon="6.82201">
        <time>2023-04-10T10:35:55+00:00</time>
        <ele>2711.0</ele>
      </trkpt>
      <trkpt lat="44.31525" lon="6.82201">
        <time>2023-04-10T10:35:56+00:00</time>
        <ele>2711.0</ele>
      </trkpt>
      <trkpt lat="44.31525" lon="6.82201">
        <time>2023-04-10T10:35:57+00:00</time>
        <ele>2711.0</ele>
      </trkpt>
      <trkpt lat="44.31525" lon="6.82201">
        <time>2023-04-10T10:35:58+00:00</time>
        <ele>2711.0</ele>
      </trkpt>
      <trkpt lat="44.31525" lon="6.82201">
        <time>2023-04-10T10:35:59+00:00</time>
        <ele>2711.0</ele>
      </trkpt>
      <trkpt lat="44.31525" lon="6.82201">
        <time>2023-04-10T10:36:00+00:00</time>
        <ele>2711.0</ele>
      </trkpt>
      <trkpt lat="44.31525" lon="6.82201">
        <time>2023-04-10T10:36:01+00:00</time>
        <ele>2711.0</ele>
      </trkpt>
      <trkpt lat="44.31525" lon="6.82201">
        <time>2023-04-10T10:36:02+00:00</time>
        <ele>2711.0</ele>
      </trkpt>
      <trkpt lat="44.31525" lon="6.82201">
        <time>2023-04-10T10:36:03+00:00</time>
        <ele>2711.0</ele>
      </trkpt>
      <trkpt lat="44.31525" lon="6.82201">
        <time>2023-04-10T10:36:04+00:00</time>
        <ele>2711.0</ele>
      </trkpt>
      <trkpt lat="44.31525" lon="6.82201">
        <time>2023-04-10T10:36:05+00:00</time>
        <ele>2711.0</ele>
      </trkpt>
      <trkpt lat="44.31525" lon="6.82201">
        <time>2023-04-10T10:36:06+00:00</time>
        <ele>2711.0</ele>
      </trkpt>
      <trkpt lat="44.31525" lon="6.82201">
        <time>2023-04-10T10:36:07+00:00</time>
        <ele>2711.0</ele>
      </trkpt>
      <trkpt lat="44.31525" lon="6.82201">
        <time>2023-04-10T10:36:08+00:00</time>
        <ele>2711.0</ele>
      </trkpt>
      <trkpt lat="44.31525" lon="6.82201">
        <time>2023-04-10T10:36:09+00:00</time>
        <ele>2711.0</ele>
      </trkpt>
      <trkpt lat="44.31525" lon="6.82201">
        <time>2023-04-10T10:36:10+00:00</time>
        <ele>2711.0</ele>
      </trkpt>
      <trkpt lat="44.31525" lon="6.82201">
        <time>2023-04-10T10:36:11+00:00</time>
        <ele>2711.0</ele>
      </trkpt>
      <trkpt lat="44.31525" lon="6.82201">
        <time>2023-04-10T10:36:12+00:00</time>
        <ele>2711.0</ele>
      </trkpt>
      <trkpt lat="44.31525" lon="6.82201">
        <time>2023-04-10T10:36:13+00:00</time>
        <ele>2711.0</ele>
      </trkpt>
      <trkpt lat="44.31525" lon="6.82201">
        <time>2023-04-10T10:36:14+00:00</time>
        <ele>2711.0</ele>
      </trkpt>
      <trkpt lat="44.31525" lon="6.82201">
        <time>2023-04-10T10:36:15+00:00</time>
        <ele>2711.0</ele>
      </trkpt>
      <trkpt lat="44.31525" lon="6.82201">
        <time>2023-04-10T10:36:16+00:00</time>
        <ele>2711.0</ele>
      </trkpt>
      <trkpt lat="44.31525" lon="6.82201">
        <time>2023-04-10T10:36:17+00:00</time>
        <ele>2711.0</ele>
      </trkpt>
      <trkpt lat="44.31525" lon="6.82201">
        <time>2023-04-10T10:36:18+00:00</time>
        <ele>2711.0</ele>
      </trkpt>
      <trkpt lat="44.31525" lon="6.82201">
        <time>2023-04-10T10:36:19+00:00</time>
        <ele>2711.0</ele>
      </trkpt>
      <trkpt lat="44.31525" lon="6.82201">
        <time>2023-04-10T10:36:20+00:00</time>
        <ele>2711.0</ele>
      </trkpt>
      <trkpt lat="44.31525" lon="6.82201">
        <time>2023-04-10T10:36:21+00:00</time>
        <ele>2711.0</ele>
      </trkpt>
      <trkpt lat="44.31525" lon="6.82201">
        <time>2023-04-10T10:36:22+00:00</time>
        <ele>2711.0</ele>
      </trkpt>
      <trkpt lat="44.31525" lon="6.82201">
        <time>2023-04-10T10:36:23+00:00</time>
        <ele>2711.0</ele>
      </trkpt>
      <trkpt lat="44.31525" lon="6.82201">
        <time>2023-04-10T10:36:24+00:00</time>
        <ele>2711.0</ele>
      </trkpt>
      <trkpt lat="44.31525" lon="6.82201">
        <time>2023-04-10T10:36:25+00:00</time>
        <ele>2711.0</ele>
      </trkpt>
      <trkpt lat="44.31525" lon="6.82201">
        <time>2023-04-10T10:36:26+00:00</time>
        <ele>2711.0</ele>
      </trkpt>
      <trkpt lat="44.31525" lon="6.82201">
        <time>2023-04-10T10:36:27+00:00</time>
        <ele>2711.0</ele>
      </trkpt>
      <trkpt lat="44.31525" lon="6.82201">
        <time>2023-04-10T10:36:28+00:00</time>
        <ele>2711.0</ele>
      </trkpt>
      <trkpt lat="44.31525" lon="6.82201">
        <time>2023-04-10T10:36:29+00:00</time>
        <ele>2711.0</ele>
      </trkpt>
      <trkpt lat="44.31525" lon="6.82201">
        <time>2023-04-10T10:36:30+00:00</time>
        <ele>2711.0</ele>
      </trkpt>
      <trkpt lat="44.31525" lon="6.82201">
        <time>2023-04-10T10:36:31+00:00</time>
        <ele>2711.0</ele>
      </trkpt>
      <trkpt lat="44.31525" lon="6.82201">
        <time>2023-04-10T10:36:32+00:00</time>
        <ele>2711.0</ele>
      </trkpt>
      <trkpt lat="44.31525" lon="6.82201">
        <time>2023-04-10T10:36:33+00:00</time>
        <ele>2711.0</ele>
      </trkpt>
      <trkpt lat="44.31525" lon="6.82201">
        <time>2023-04-10T10:36:34+00:00</time>
        <ele>2711.0</ele>
      </trkpt>
      <trkpt lat="44.31525" lon="6.82201">
        <time>2023-04-10T10:36:35+00:00</time>
        <ele>2711.0</ele>
      </trkpt>
      <trkpt lat="44.31525" lon="6.82201">
        <time>2023-04-10T10:36:36+00:00</time>
        <ele>2711.0</ele>
      </trkpt>
      <trkpt lat="44.31525" lon="6.82201">
        <time>2023-04-10T10:36:37+00:00</time>
        <ele>2711.0</ele>
      </trkpt>
      <trkpt lat="44.31525" lon="6.82201">
        <time>2023-04-10T10:36:38+00:00</time>
        <ele>2711.0</ele>
      </trkpt>
      <trkpt lat="44.31525" lon="6.82201">
        <time>2023-04-10T10:36:39+00:00</time>
        <ele>2711.0</ele>
      </trkpt>
      <trkpt lat="44.31525" lon="6.82201">
        <time>2023-04-10T10:36:40+00:00</time>
        <ele>2711.0</ele>
      </trkpt>
      <trkpt lat="44.31525" lon="6.82201">
        <time>2023-04-10T10:36:41+00:00</time>
        <ele>2711.0</ele>
      </trkpt>
      <trkpt lat="44.31525" lon="6.82201">
        <time>2023-04-10T10:36:42+00:00</time>
        <ele>2711.0</ele>
      </trkpt>
      <trkpt lat="44.31525" lon="6.82201">
        <time>2023-04-10T10:36:43+00:00</time>
        <ele>2711.0</ele>
      </trkpt>
      <trkpt lat="44.31525" lon="6.82201">
        <time>2023-04-10T10:36:44+00:00</time>
        <ele>2711.0</ele>
      </trkpt>
      <trkpt lat="44.31525" lon="6.82201">
        <time>2023-04-10T10:36:45+00:00</time>
        <ele>2711.0</ele>
      </trkpt>
      <trkpt lat="44.31525" lon="6.82201">
        <time>2023-04-10T10:36:46+00:00</time>
        <ele>2711.0</ele>
      </trkpt>
      <trkpt lat="44.31525" lon="6.82201">
        <time>2023-04-10T10:36:47+00:00</time>
        <ele>2711.0</ele>
      </trkpt>
      <trkpt lat="44.31525" lon="6.82201">
        <time>2023-04-10T10:36:48+00:00</time>
        <ele>2711.0</ele>
      </trkpt>
      <trkpt lat="44.31525" lon="6.82201">
        <time>2023-04-10T10:36:49+00:00</time>
        <ele>2711.0</ele>
      </trkpt>
      <trkpt lat="44.31525" lon="6.82201">
        <time>2023-04-10T10:36:50+00:00</time>
        <ele>2711.0</ele>
      </trkpt>
      <trkpt lat="44.31525" lon="6.82201">
        <time>2023-04-10T10:36:51+00:00</time>
        <ele>2711.0</ele>
      </trkpt>
      <trkpt lat="44.31525" lon="6.82201">
        <time>2023-04-10T10:36:52+00:00</time>
        <ele>2711.0</ele>
      </trkpt>
      <trkpt lat="44.31525" lon="6.82201">
        <time>2023-04-10T10:36:53+00:00</time>
        <ele>2711.0</ele>
      </trkpt>
      <trkpt lat="44.31525" lon="6.82201">
        <time>2023-04-10T10:36:54+00:00</time>
        <ele>2711.0</ele>
      </trkpt>
      <trkpt lat="44.31525" lon="6.82201">
        <time>2023-04-10T10:36:55+00:00</time>
        <ele>2711.0</ele>
      </trkpt>
      <trkpt lat="44.31525" lon="6.82201">
        <time>2023-04-10T10:36:56+00:00</time>
        <ele>2711.0</ele>
      </trkpt>
      <trkpt lat="44.31525" lon="6.82201">
        <time>2023-04-10T10:36:57+00:00</time>
        <ele>2711.0</ele>
      </trkpt>
      <trkpt lat="44.31525" lon="6.82201">
        <time>2023-04-10T10:36:58+00:00</time>
        <ele>2711.0</ele>
      </trkpt>
      <trkpt lat="44.31525" lon="6.82201">
        <time>2023-04-10T10:36:59+00:00</time>
        <ele>2711.0</ele>
      </trkpt>
      <trkpt lat="44.31525" lon="6.82201">
        <time>2023-04-10T10:37:00+00:00</time>
        <ele>2711.0</ele>
      </trkpt>
      <trkpt lat="44.31525" lon="6.82201">
        <time>2023-04-10T10:37:01+00:00</time>
        <ele>2711.0</ele>
      </trkpt>
      <trkpt lat="44.31525" lon="6.82201">
        <time>2023-04-10T10:37:02+00:00</time>
        <ele>2711.0</ele>
      </trkpt>
      <trkpt lat="44.31525" lon="6.82201">
        <time>2023-04-10T10:37:03+00:00</time>
        <ele>2711.0</ele>
      </trkpt>
      <trkpt lat="44.31525" lon="6.82201">
        <time>2023-04-10T10:37:04+00:00</time>
        <ele>2711.0</ele>
      </trkpt>
      <trkpt lat="44.31525" lon="6.82201">
        <time>2023-04-10T10:37:05+00:00</time>
        <ele>2711.0</ele>
      </trkpt>
      <trkpt lat="44.31525" lon="6.82201">
        <time>2023-04-10T10:37:06+00:00</time>
        <ele>2711.0</ele>
      </trkpt>
      <trkpt lat="44.31525" lon="6.82201">
        <time>2023-04-10T10:37:07+00:00</time>
        <ele>2711.0</ele>
      </trkpt>
      <trkpt lat="44.31525" lon="6.82201">
        <time>2023-04-10T10:37:08+00:00</time>
        <ele>2711.0</ele>
      </trkpt>
      <trkpt lat="44.31525" lon="6.82201">
        <time>2023-04-10T10:37:09+00:00</time>
        <ele>2711.0</ele>
      </trkpt>
      <trkpt lat="44.31525" lon="6.82201">
        <time>2023-04-10T10:37:10+00:00</time>
        <ele>2711.0</ele>
      </trkpt>
      <trkpt lat="44.31525" lon="6.82201">
        <time>2023-04-10T10:37:11+00:00</time>
        <ele>2711.0</ele>
      </trkpt>
      <trkpt lat="44.31525" lon="6.82201">
        <time>2023-04-10T10:37:12+00:00</time>
        <ele>2711.0</ele>
      </trkpt>
      <trkpt lat="44.31525" lon="6.82201">
        <time>2023-04-10T10:37:13+00:00</time>
        <ele>2711.0</ele>
      </trkpt>
      <trkpt lat="44.31525" lon="6.82201">
        <time>2023-04-10T10:37:14+00:00</time>
        <ele>2711.0</ele>
      </trkpt>
      <trkpt lat="44.31525" lon="6.82201">
        <time>2023-04-10T10:37:15+00:00</time>
        <ele>2711.0</ele>
      </trkpt>
      <trkpt lat="44.31525" lon="6.82201">
        <time>2023-04-10T10:37:16+00:00</time>
        <ele>2711.0</ele>
      </trkpt>
      <trkpt lat="44.31525" lon="6.82201">
        <time>2023-04-10T10:37:17+00:00</time>
        <ele>2711.0</ele>
      </trkpt>
      <trkpt lat="44.31525" lon="6.82201">
        <time>2023-04-10T10:37:18+00:00</time>
        <ele>2711.0</ele>
      </trkpt>
      <trkpt lat="44.31525" lon="6.82201">
        <time>2023-04-10T10:37:19+00:00</time>
        <ele>2711.0</ele>
      </trkpt>
      <trkpt lat="44.31525" lon="6.82201">
        <time>2023-04-10T10:37:20+00:00</time>
        <ele>2711.0</ele>
      </trkpt>
      <trkpt lat="44.31525" lon="6.82201">
        <time>2023-04-10T10:37:21+00:00</time>
        <ele>2711.0</ele>
      </trkpt>
      <trkpt lat="44.31525" lon="6.82201">
        <time>2023-04-10T10:37:22+00:00</time>
        <ele>2711.0</ele>
      </trkpt>
      <trkpt lat="44.31525" lon="6.82201">
        <time>2023-04-10T10:37:23+00:00</time>
        <ele>2711.0</ele>
      </trkpt>
      <trkpt lat="44.31525" lon="6.82201">
        <time>2023-04-10T10:37:24+00:00</time>
        <ele>2711.0</ele>
      </trkpt>
      <trkpt lat="44.31525" lon="6.82201">
        <time>2023-04-10T10:37:25+00:00</time>
        <ele>2711.0</ele>
      </trkpt>
      <trkpt lat="44.31525" lon="6.82201">
        <time>2023-04-10T10:37:26+00:00</time>
        <ele>2711.0</ele>
      </trkpt>
      <trkpt lat="44.31525" lon="6.82201">
        <time>2023-04-10T10:37:27+00:00</time>
        <ele>2711.0</ele>
      </trkpt>
      <trkpt lat="44.31525" lon="6.82201">
        <time>2023-04-10T10:37:28+00:00</time>
        <ele>2711.0</ele>
      </trkpt>
      <trkpt lat="44.31525" lon="6.82201">
        <time>2023-04-10T10:37:29+00:00</time>
        <ele>2711.0</ele>
      </trkpt>
      <trkpt lat="44.31525" lon="6.82201">
        <time>2023-04-10T10:37:30+00:00</time>
        <ele>2711.0</ele>
      </trkpt>
      <trkpt lat="44.31525" lon="6.82201">
        <time>2023-04-10T10:37:31+00:00</time>
        <ele>2711.0</ele>
      </trkpt>
      <trkpt lat="44.31525" lon="6.82201">
        <time>2023-04-10T10:37:32+00:00</time>
        <ele>2711.0</ele>
      </trkpt>
      <trkpt lat="44.31525" lon="6.82201">
        <time>2023-04-10T10:37:33+00:00</time>
        <ele>2711.0</ele>
      </trkpt>
      <trkpt lat="44.31525" lon="6.82201">
        <time>2023-04-10T10:37:34+00:00</time>
        <ele>2711.0</ele>
      </trkpt>
      <trkpt lat="44.31525" lon="6.82201">
        <time>2023-04-10T10:37:35+00:00</time>
        <ele>2711.0</ele>
      </trkpt>
      <trkpt lat="44.31525" lon="6.82201">
        <time>2023-04-10T10:37:36+00:00</time>
        <ele>2711.0</ele>
      </trkpt>
      <trkpt lat="44.31525" lon="6.82201">
        <time>2023-04-10T10:37:37+00:00</time>
        <ele>2711.0</ele>
      </trkpt>
      <trkpt lat="44.31525" lon="6.82201">
        <time>2023-04-10T10:37:38+00:00</time>
        <ele>2711.0</ele>
      </trkpt>
      <trkpt lat="44.31525" lon="6.82201">
        <time>2023-04-10T10:37:39+00:00</time>
        <ele>2711.0</ele>
      </trkpt>
      <trkpt lat="44.31525" lon="6.82201">
        <time>2023-04-10T10:37:40+00:00</time>
        <ele>2711.0</ele>
      </trkpt>
      <trkpt lat="44.31525" lon="6.82201">
        <time>2023-04-10T10:37:41+00:00</time>
        <ele>2711.0</ele>
      </trkpt>
      <trkpt lat="44.31525" lon="6.82201">
        <time>2023-04-10T10:37:42+00:00</time>
        <ele>2711.0</ele>
      </trkpt>
      <trkpt lat="44.31525" lon="6.82201">
        <time>2023-04-10T10:37:43+00:00</time>
        <ele>2711.0</ele>
      </trkpt>
      <trkpt lat="44.31525" lon="6.82201">
        <time>2023-04-10T10:37:44+00:00</time>
        <ele>2711.0</ele>
      </trkpt>
      <trkpt lat="44.31525" lon="6.82201">
        <time>2023-04-10T10:37:45+00:00</time>
        <ele>2711.0</ele>
      </trkpt>
      <trkpt lat="44.31525" lon="6.82201">
        <time>2023-04-10T10:37:46+00:00</time>
        <ele>2711.0</ele>
      </trkpt>
      <trkpt lat="44.31525" lon="6.82201">
        <time>2023-04-10T10:37:47+00:00</time>
        <ele>2711.0</ele>
      </trkpt>
      <trkpt lat="44.31525" lon="6.82201">
        <time>2023-04-10T10:37:48+00:00</time>
        <ele>2711.0</ele>
      </trkpt>
      <trkpt lat="44.31525" lon="6.82201">
        <time>2023-04-10T10:37:49+00:00</time>
        <ele>2711.0</ele>
      </trkpt>
      <trkpt lat="44.31525" lon="6.82201">
        <time>2023-04-10T10:37:50+00:00</time>
        <ele>2711.0</ele>
      </trkpt>
      <trkpt lat="44.31525" lon="6.82201">
        <time>2023-04-10T10:37:51+00:00</time>
        <ele>2711.0</ele>
      </trkpt>
      <trkpt lat="44.31525" lon="6.82201">
        <time>2023-04-10T10:37:52+00:00</time>
        <ele>2711.0</ele>
      </trkpt>
      <trkpt lat="44.31525" lon="6.82201">
        <time>2023-04-10T10:37:53+00:00</time>
        <ele>2711.0</ele>
      </trkpt>
      <trkpt lat="44.31525" lon="6.82201">
        <time>2023-04-10T10:37:54+00:00</time>
        <ele>2711.0</ele>
      </trkpt>
      <trkpt lat="44.31525" lon="6.82201">
        <time>2023-04-10T10:37:55+00:00</time>
        <ele>2711.0</ele>
      </trkpt>
      <trkpt lat="44.31525" lon="6.82201">
        <time>2023-04-10T10:37:56+00:00</time>
        <ele>2711.0</ele>
      </trkpt>
      <trkpt lat="44.31525" lon="6.82201">
        <time>2023-04-10T10:37:57+00:00</time>
        <ele>2711.0</ele>
      </trkpt>
      <trkpt lat="44.31525" lon="6.82201">
        <time>2023-04-10T10:37:58+00:00</time>
        <ele>2711.0</ele>
      </trkpt>
      <trkpt lat="44.31525" lon="6.82201">
        <time>2023-04-10T10:37:59+00:00</time>
        <ele>2711.0</ele>
      </trkpt>
      <trkpt lat="44.31525" lon="6.82201">
        <time>2023-04-10T10:38:00+00:00</time>
        <ele>2711.0</ele>
      </trkpt>
      <trkpt lat="44.31525" lon="6.82201">
        <time>2023-04-10T10:38:01+00:00</time>
        <ele>2711.0</ele>
      </trkpt>
      <trkpt lat="44.31525" lon="6.82201">
        <time>2023-04-10T10:38:02+00:00</time>
        <ele>2711.0</ele>
      </trkpt>
      <trkpt lat="44.31525" lon="6.82201">
        <time>2023-04-10T10:38:03+00:00</time>
        <ele>2711.0</ele>
      </trkpt>
      <trkpt lat="44.31525" lon="6.82201">
        <time>2023-04-10T10:38:04+00:00</time>
        <ele>2711.0</ele>
      </trkpt>
      <trkpt lat="44.31525" lon="6.82201">
        <time>2023-04-10T10:38:05+00:00</time>
        <ele>2711.0</ele>
      </trkpt>
      <trkpt lat="44.31525" lon="6.82201">
        <time>2023-04-10T10:38:06+00:00</time>
        <ele>2711.0</ele>
      </trkpt>
      <trkpt lat="44.31525" lon="6.82201">
        <time>2023-04-10T10:38:07+00:00</time>
        <ele>2711.0</ele>
      </trkpt>
      <trkpt lat="44.31525" lon="6.82201">
        <time>2023-04-10T10:38:08+00:00</time>
        <ele>2711.0</ele>
      </trkpt>
      <trkpt lat="44.31525" lon="6.82201">
        <time>2023-04-10T10:38:09+00:00</time>
        <ele>2711.0</ele>
      </trkpt>
      <trkpt lat="44.31525" lon="6.82201">
        <time>2023-04-10T10:38:10+00:00</time>
        <ele>2711.0</ele>
      </trkpt>
      <trkpt lat="44.31525" lon="6.82201">
        <time>2023-04-10T10:38:11+00:00</time>
        <ele>2711.0</ele>
      </trkpt>
      <trkpt lat="44.31525" lon="6.82201">
        <time>2023-04-10T10:38:12+00:00</time>
        <ele>2711.0</ele>
      </trkpt>
      <trkpt lat="44.31525" lon="6.82201">
        <time>2023-04-10T10:38:13+00:00</time>
        <ele>2711.0</ele>
      </trkpt>
      <trkpt lat="44.31525" lon="6.82201">
        <time>2023-04-10T10:38:14+00:00</time>
        <ele>2711.0</ele>
      </trkpt>
      <trkpt lat="44.31525" lon="6.82201">
        <time>2023-04-10T10:38:15+00:00</time>
        <ele>2711.0</ele>
      </trkpt>
      <trkpt lat="44.31525" lon="6.82201">
        <time>2023-04-10T10:38:16+00:00</time>
        <ele>2711.0</ele>
      </trkpt>
      <trkpt lat="44.31525" lon="6.82201">
        <time>2023-04-10T10:38:17+00:00</time>
        <ele>2711.0</ele>
      </trkpt>
      <trkpt lat="44.31525" lon="6.82201">
        <time>2023-04-10T10:38:18+00:00</time>
        <ele>2711.0</ele>
      </trkpt>
      <trkpt lat="44.31525" lon="6.82201">
        <time>2023-04-10T10:38:19+00:00</time>
        <ele>2711.0</ele>
      </trkpt>
      <trkpt lat="44.31525" lon="6.82201">
        <time>2023-04-10T10:38:20+00:00</time>
        <ele>2711.0</ele>
      </trkpt>
      <trkpt lat="44.31525" lon="6.82201">
        <time>2023-04-10T10:38:21+00:00</time>
        <ele>2711.0</ele>
      </trkpt>
      <trkpt lat="44.31525" lon="6.82201">
        <time>2023-04-10T10:38:22+00:00</time>
        <ele>2711.0</ele>
      </trkpt>
      <trkpt lat="44.31525" lon="6.82201">
        <time>2023-04-10T10:38:23+00:00</time>
        <ele>2711.0</ele>
      </trkpt>
      <trkpt lat="44.31525" lon="6.82201">
        <time>2023-04-10T10:38:24+00:00</time>
        <ele>2711.0</ele>
      </trkpt>
      <trkpt lat="44.31525" lon="6.82201">
        <time>2023-04-10T10:38:25+00:00</time>
        <ele>2711.0</ele>
      </trkpt>
      <trkpt lat="44.31525" lon="6.82201">
        <time>2023-04-10T10:38:26+00:00</time>
        <ele>2711.0</ele>
      </trkpt>
      <trkpt lat="44.31525" lon="6.82201">
        <time>2023-04-10T10:38:27+00:00</time>
        <ele>2711.0</ele>
      </trkpt>
      <trkpt lat="44.31525" lon="6.82201">
        <time>2023-04-10T10:38:28+00:00</time>
        <ele>2711.0</ele>
      </trkpt>
      <trkpt lat="44.31525" lon="6.82201">
        <time>2023-04-10T10:38:29+00:00</time>
        <ele>2711.0</ele>
      </trkpt>
      <trkpt lat="44.31525" lon="6.82201">
        <time>2023-04-10T10:38:30+00:00</time>
        <ele>2711.0</ele>
      </trkpt>
      <trkpt lat="44.31525" lon="6.82201">
        <time>2023-04-10T10:38:31+00:00</time>
        <ele>2711.0</ele>
      </trkpt>
      <trkpt lat="44.31525" lon="6.82201">
        <time>2023-04-10T10:38:32+00:00</time>
        <ele>2711.0</ele>
      </trkpt>
      <trkpt lat="44.31525" lon="6.82201">
        <time>2023-04-10T10:38:33+00:00</time>
        <ele>2711.0</ele>
      </trkpt>
      <trkpt lat="44.31525" lon="6.82201">
        <time>2023-04-10T10:38:34+00:00</time>
        <ele>2711.0</ele>
      </trkpt>
      <trkpt lat="44.31525" lon="6.82201">
        <time>2023-04-10T10:38:35+00:00</time>
        <ele>2711.0</ele>
      </trkpt>
      <trkpt lat="44.31525" lon="6.82201">
        <time>2023-04-10T10:38:36+00:00</time>
        <ele>2711.0</ele>
      </trkpt>
      <trkpt lat="44.31525" lon="6.82201">
        <time>2023-04-10T10:38:37+00:00</time>
        <ele>2711.0</ele>
      </trkpt>
      <trkpt lat="44.31525" lon="6.82201">
        <time>2023-04-10T10:38:38+00:00</time>
        <ele>2711.0</ele>
      </trkpt>
      <trkpt lat="44.31525" lon="6.82201">
        <time>2023-04-10T10:38:39+00:00</time>
        <ele>2711.0</ele>
      </trkpt>
      <trkpt lat="44.31525" lon="6.82201">
        <time>2023-04-10T10:38:40+00:00</time>
        <ele>2711.0</ele>
      </trkpt>
      <trkpt lat="44.31525" lon="6.82201">
        <time>2023-04-10T10:38:41+00:00</time>
        <ele>2711.0</ele>
      </trkpt>
      <trkpt lat="44.31525" lon="6.82201">
        <time>2023-04-10T10:38:42+00:00</time>
        <ele>2711.0</ele>
      </trkpt>
      <trkpt lat="44.31525" lon="6.82201">
        <time>2023-04-10T10:38:43+00:00</time>
        <ele>2711.0</ele>
      </trkpt>
      <trkpt lat="44.31525" lon="6.82201">
        <time>2023-04-10T10:38:44+00:00</time>
        <ele>2711.0</ele>
      </trkpt>
      <trkpt lat="44.31525" lon="6.82201">
        <time>2023-04-10T10:38:45+00:00</time>
        <ele>2711.0</ele>
      </trkpt>
      <trkpt lat="44.31525" lon="6.82201">
        <time>2023-04-10T10:38:46+00:00</time>
        <ele>2711.0</ele>
      </trkpt>
      <trkpt lat="44.31525" lon="6.82201">
        <time>2023-04-10T10:38:47+00:00</time>
        <ele>2711.0</ele>
      </trkpt>
      <trkpt lat="44.31525" lon="6.82201">
        <time>2023-04-10T10:38:48+00:00</time>
        <ele>2711.0</ele>
      </trkpt>
      <trkpt lat="44.31525" lon="6.82201">
        <time>2023-04-10T10:38:49+00:00</time>
        <ele>2711.0</ele>
      </trkpt>
      <trkpt lat="44.31525" lon="6.82201">
        <time>2023-04-10T10:38:50+00:00</time>
        <ele>2711.0</ele>
      </trkpt>
      <trkpt lat="44.31525" lon="6.82201">
        <time>2023-04-10T10:38:51+00:00</time>
        <ele>2711.0</ele>
      </trkpt>
      <trkpt lat="44.31525" lon="6.82201">
        <time>2023-04-10T10:38:52+00:00</time>
        <ele>2711.0</ele>
      </trkpt>
      <trkpt lat="44.31525" lon="6.82201">
        <time>2023-04-10T10:38:53+00:00</time>
        <ele>2711.0</ele>
      </trkpt>
      <trkpt lat="44.31525" lon="6.82201">
        <time>2023-04-10T10:38:54+00:00</time>
        <ele>2711.0</ele>
      </trkpt>
      <trkpt lat="44.31525" lon="6.82201">
        <time>2023-04-10T10:38:55+00:00</time>
        <ele>2711.0</ele>
      </trkpt>
      <trkpt lat="44.31525" lon="6.82201">
        <time>2023-04-10T10:38:56+00:00</time>
        <ele>2711.0</ele>
      </trkpt>
      <trkpt lat="44.31525" lon="6.82201">
        <time>2023-04-10T10:38:57+00:00</time>
        <ele>2711.0</ele>
      </trkpt>
      <trkpt lat="44.31525" lon="6.82201">
        <time>2023-04-10T10:38:58+00:00</time>
        <ele>2711.0</ele>
      </trkpt>
      <trkpt lat="44.31525" lon="6.82201">
        <time>2023-04-10T10:38:59+00:00</time>
        <ele>2711.0</ele>
      </trkpt>
      <trkpt lat="44.31525" lon="6.82201">
        <time>2023-04-10T10:39:00+00:00</time>
        <ele>2711.0</ele>
      </trkpt>
      <trkpt lat="44.31525" lon="6.82201">
        <time>2023-04-10T10:39:01+00:00</time>
        <ele>2711.0</ele>
      </trkpt>
      <trkpt lat="44.31525" lon="6.82201">
        <time>2023-04-10T10:39:02+00:00</time>
        <ele>2711.0</ele>
      </trkpt>
      <trkpt lat="44.31525" lon="6.82201">
        <time>2023-04-10T10:39:03+00:00</time>
        <ele>2711.0</ele>
      </trkpt>
      <trkpt lat="44.31525" lon="6.82201">
        <time>2023-04-10T10:39:04+00:00</time>
        <ele>2711.0</ele>
      </trkpt>
      <trkpt lat="44.31525" lon="6.82201">
        <time>2023-04-10T10:39:05+00:00</time>
        <ele>2711.0</ele>
      </trkpt>
      <trkpt lat="44.31525" lon="6.82201">
        <time>2023-04-10T10:39:06+00:00</time>
        <ele>2711.0</ele>
      </trkpt>
      <trkpt lat="44.31525" lon="6.82201">
        <time>2023-04-10T10:39:07+00:00</time>
        <ele>2711.0</ele>
      </trkpt>
      <trkpt lat="44.31525" lon="6.82201">
        <time>2023-04-10T10:39:08+00:00</time>
        <ele>2711.0</ele>
      </trkpt>
      <trkpt lat="44.31525" lon="6.82201">
        <time>2023-04-10T10:39:09+00:00</time>
        <ele>2711.0</ele>
      </trkpt>
      <trkpt lat="44.31525" lon="6.82201">
        <time>2023-04-10T10:39:10+00:00</time>
        <ele>2711.0</ele>
      </trkpt>
      <trkpt lat="44.31525" lon="6.82201">
        <time>2023-04-10T10:39:11+00:00</time>
        <ele>2711.0</ele>
      </trkpt>
      <trkpt lat="44.31525" lon="6.82201">
        <time>2023-04-10T10:39:12+00:00</time>
        <ele>2711.0</ele>
      </trkpt>
      <trkpt lat="44.31525" lon="6.82201">
        <time>2023-04-10T10:39:13+00:00</time>
        <ele>2711.0</ele>
      </trkpt>
      <trkpt lat="44.31525" lon="6.82201">
        <time>2023-04-10T10:39:14+00:00</time>
        <ele>2711.0</ele>
      </trkpt>
      <trkpt lat="44.31525" lon="6.82201">
        <time>2023-04-10T10:39:15+00:00</time>
        <ele>2711.0</ele>
      </trkpt>
      <trkpt lat="44.31525" lon="6.82201">
        <time>2023-04-10T10:39:16+00:00</time>
        <ele>2711.0</ele>
      </trkpt>
      <trkpt lat="44.31525" lon="6.82201">
        <time>2023-04-10T10:39:17+00:00</time>
        <ele>2711.0</ele>
      </trkpt>
      <trkpt lat="44.31525" lon="6.82201">
        <time>2023-04-10T10:39:18+00:00</time>
        <ele>2711.0</ele>
      </trkpt>
      <trkpt lat="44.31525" lon="6.82201">
        <time>2023-04-10T10:39:19+00:00</time>
        <ele>2711.0</ele>
      </trkpt>
      <trkpt lat="44.31525" lon="6.82201">
        <time>2023-04-10T10:39:20+00:00</time>
        <ele>2711.0</ele>
      </trkpt>
      <trkpt lat="44.31525" lon="6.82201">
        <time>2023-04-10T10:39:21+00:00</time>
        <ele>2711.0</ele>
      </trkpt>
      <trkpt lat="44.31525" lon="6.82201">
        <time>2023-04-10T10:39:22+00:00</time>
        <ele>2711.0</ele>
      </trkpt>
      <trkpt lat="44.31525" lon="6.82201">
        <time>2023-04-10T10:39:23+00:00</time>
        <ele>2711.0</ele>
      </trkpt>
      <trkpt lat="44.31525" lon="6.82201">
        <time>2023-04-10T10:39:24+00:00</time>
        <ele>2711.0</ele>
      </trkpt>
      <trkpt lat="44.31525" lon="6.82201">
        <time>2023-04-10T10:39:25+00:00</time>
        <ele>2711.0</ele>
      </trkpt>
      <trkpt lat="44.31525" lon="6.82201">
        <time>2023-04-10T10:39:26+00:00</time>
        <ele>2711.0</ele>
      </trkpt>
      <trkpt lat="44.31525" lon="6.82201">
        <time>2023-04-10T10:39:27+00:00</time>
        <ele>2711.0</ele>
      </trkpt>
      <trkpt lat="44.31525" lon="6.82201">
        <time>2023-04-10T10:39:28+00:00</time>
        <ele>2711.0</ele>
      </trkpt>
      <trkpt lat="44.31525" lon="6.82201">
        <time>2023-04-10T10:39:29+00:00</time>
        <ele>2711.0</ele>
      </trkpt>
      <trkpt lat="44.31525" lon="6.82201">
        <time>2023-04-10T10:39:30+00:00</time>
        <ele>2711.0</ele>
      </trkpt>
      <trkpt lat="44.31525" lon="6.82201">
        <time>2023-04-10T10:39:31+00:00</time>
        <ele>2711.0</ele>
      </trkpt>
      <trkpt lat="44.31525" lon="6.82201">
        <time>2023-04-10T10:39:32+00:00</time>
        <ele>2711.0</ele>
      </trkpt>
      <trkpt lat="44.31525" lon="6.82201">
        <time>2023-04-10T10:39:33+00:00</time>
        <ele>2711.0</ele>
      </trkpt>
      <trkpt lat="44.31525" lon="6.82201">
        <time>2023-04-10T10:39:34+00:00</time>
        <ele>2711.0</ele>
      </trkpt>
      <trkpt lat="44.31525" lon="6.82201">
        <time>2023-04-10T10:39:35+00:00</time>
        <ele>2711.0</ele>
      </trkpt>
      <trkpt lat="44.31525" lon="6.82201">
        <time>2023-04-10T10:39:36+00:00</time>
        <ele>2711.0</ele>
      </trkpt>
      <trkpt lat="44.31525" lon="6.82201">
        <time>2023-04-10T10:39:37+00:00</time>
        <ele>2711.0</ele>
      </trkpt>
      <trkpt lat="44.31525" lon="6.82201">
        <time>2023-04-10T10:39:38+00:00</time>
        <ele>2711.0</ele>
      </trkpt>
      <trkpt lat="44.31525" lon="6.82201">
        <time>2023-04-10T10:39:39+00:00</time>
        <ele>2711.0</ele>
      </trkpt>
      <trkpt lat="44.31525" lon="6.82201">
        <time>2023-04-10T10:39:40+00:00</time>
        <ele>2711.0</ele>
      </trkpt>
      <trkpt lat="44.31525" lon="6.82201">
        <time>2023-04-10T10:39:41+00:00</time>
        <ele>2711.0</ele>
      </trkpt>
      <trkpt lat="44.31525" lon="6.82201">
        <time>2023-04-10T10:39:42+00:00</time>
        <ele>2711.0</ele>
      </trkpt>
      <trkpt lat="44.31525" lon="6.82201">
        <time>2023-04-10T10:39:43+00:00</time>
        <ele>2711.0</ele>
      </trkpt>
      <trkpt lat="44.31525" lon="6.82201">
        <time>2023-04-10T10:39:44+00:00</time>
        <ele>2711.0</ele>
      </trkpt>
      <trkpt lat="44.31525" lon="6.82201">
        <time>2023-04-10T10:39:45+00:00</time>
        <ele>2711.0</ele>
      </trkpt>
      <trkpt lat="44.31525" lon="6.82201">
        <time>2023-04-10T10:39:46+00:00</time>
        <ele>2711.0</ele>
      </trkpt>
      <trkpt lat="44.31525" lon="6.82201">
        <time>2023-04-10T10:39:47+00:00</time>
        <ele>2711.0</ele>
      </trkpt>
      <trkpt lat="44.31525" lon="6.82201">
        <time>2023-04-10T10:39:48+00:00</time>
        <ele>2711.0</ele>
      </trkpt>
      <trkpt lat="44.31525" lon="6.82201">
        <time>2023-04-10T10:39:49+00:00</time>
        <ele>2711.0</ele>
      </trkpt>
      <trkpt lat="44.31525" lon="6.82201">
        <time>2023-04-10T10:39:50+00:00</time>
        <ele>2711.0</ele>
      </trkpt>
      <trkpt lat="44.31525" lon="6.82201">
        <time>2023-04-10T10:39:51+00:00</time>
        <ele>2711.0</ele>
      </trkpt>
      <trkpt lat="44.31525" lon="6.82201">
        <time>2023-04-10T10:39:52+00:00</time>
        <ele>2711.0</ele>
      </trkpt>
      <trkpt lat="44.31525" lon="6.82201">
        <time>2023-04-10T10:39:53+00:00</time>
        <ele>2711.0</ele>
      </trkpt>
      <trkpt lat="44.31525" lon="6.82201">
        <time>2023-04-10T10:39:54+00:00</time>
        <ele>2711.0</ele>
      </trkpt>
      <trkpt lat="44.31525" lon="6.82201">
        <time>2023-04-10T10:39:55+00:00</time>
        <ele>2711.0</ele>
      </trkpt>
      <trkpt lat="44.31525" lon="6.82201">
        <time>2023-04-10T10:39:56+00:00</time>
        <ele>2711.0</ele>
      </trkpt>
      <trkpt lat="44.31525" lon="6.82201">
        <time>2023-04-10T10:39:57+00:00</time>
        <ele>2711.0</ele>
      </trkpt>
      <trkpt lat="44.31525" lon="6.82201">
        <time>2023-04-10T10:39:58+00:00</time>
        <ele>2711.0</ele>
      </trkpt>
      <trkpt lat="44.31525" lon="6.82201">
        <time>2023-04-10T10:39:59+00:00</time>
        <ele>2711.0</ele>
      </trkpt>
      <trkpt lat="44.31525" lon="6.82201">
        <time>2023-04-10T10:40:02+00:00</time>
        <ele>2711.0</ele>
      </trkpt>
      <trkpt lat="44.31525" lon="6.82201">
        <time>2023-04-10T10:40:03+00:00</time>
        <ele>2711.0</ele>
      </trkpt>
      <trkpt lat="44.31525" lon="6.82201">
        <time>2023-04-10T10:40:04+00:00</time>
        <ele>2711.0</ele>
      </trkpt>
      <trkpt lat="44.31525" lon="6.82201">
        <time>2023-04-10T10:40:05+00:00</time>
        <ele>2711.0</ele>
      </trkpt>
      <trkpt lat="44.31525" lon="6.82201">
        <time>2023-04-10T10:40:06+00:00</time>
        <ele>2711.0</ele>
      </trkpt>
      <trkpt lat="44.31525" lon="6.82201">
        <time>2023-04-10T10:40:07+00:00</time>
        <ele>2711.0</ele>
      </trkpt>
      <trkpt lat="44.31525" lon="6.82201">
        <time>2023-04-10T10:40:08+00:00</time>
        <ele>2711.0</ele>
      </trkpt>
      <trkpt lat="44.31525" lon="6.82201">
        <time>2023-04-10T10:40:09+00:00</time>
        <ele>2711.0</ele>
      </trkpt>
      <trkpt lat="44.31525" lon="6.82201">
        <time>2023-04-10T10:40:10+00:00</time>
        <ele>2711.0</ele>
      </trkpt>
      <trkpt lat="44.31525" lon="6.82201">
        <time>2023-04-10T10:40:11+00:00</time>
        <ele>2711.0</ele>
      </trkpt>
      <trkpt lat="44.31525" lon="6.82201">
        <time>2023-04-10T10:40:12+00:00</time>
        <ele>2711.0</ele>
      </trkpt>
      <trkpt lat="44.31525" lon="6.82201">
        <time>2023-04-10T10:40:13+00:00</time>
        <ele>2711.0</ele>
      </trkpt>
      <trkpt lat="44.31525" lon="6.82201">
        <time>2023-04-10T10:40:14+00:00</time>
        <ele>2711.0</ele>
      </trkpt>
      <trkpt lat="44.31525" lon="6.82201">
        <time>2023-04-10T10:40:15+00:00</time>
        <ele>2711.0</ele>
      </trkpt>
      <trkpt lat="44.31525" lon="6.82201">
        <time>2023-04-10T10:40:16+00:00</time>
        <ele>2711.0</ele>
      </trkpt>
      <trkpt lat="44.31525" lon="6.82201">
        <time>2023-04-10T10:40:17+00:00</time>
        <ele>2711.0</ele>
      </trkpt>
      <trkpt lat="44.31525" lon="6.82201">
        <time>2023-04-10T10:40:18+00:00</time>
        <ele>2711.0</ele>
      </trkpt>
      <trkpt lat="44.31525" lon="6.82201">
        <time>2023-04-10T10:40:19+00:00</time>
        <ele>2711.0</ele>
      </trkpt>
      <trkpt lat="44.31525" lon="6.82201">
        <time>2023-04-10T10:40:20+00:00</time>
        <ele>2711.0</ele>
      </trkpt>
      <trkpt lat="44.31525" lon="6.82201">
        <time>2023-04-10T10:40:21+00:00</time>
        <ele>2711.0</ele>
      </trkpt>
      <trkpt lat="44.31525" lon="6.82201">
        <time>2023-04-10T10:40:22+00:00</time>
        <ele>2711.0</ele>
      </trkpt>
      <trkpt lat="44.31525" lon="6.82201">
        <time>2023-04-10T10:40:23+00:00</time>
        <ele>2711.0</ele>
      </trkpt>
      <trkpt lat="44.31525" lon="6.82201">
        <time>2023-04-10T10:40:24+00:00</time>
        <ele>2711.0</ele>
      </trkpt>
      <trkpt lat="44.31525" lon="6.82201">
        <time>2023-04-10T10:40:25+00:00</time>
        <ele>2711.0</ele>
      </trkpt>
      <trkpt lat="44.31525" lon="6.82201">
        <time>2023-04-10T10:40:26+00:00</time>
        <ele>2711.0</ele>
      </trkpt>
      <trkpt lat="44.31525" lon="6.82201">
        <time>2023-04-10T10:40:27+00:00</time>
        <ele>2711.0</ele>
      </trkpt>
      <trkpt lat="44.31525" lon="6.82201">
        <time>2023-04-10T10:40:28+00:00</time>
        <ele>2711.0</ele>
      </trkpt>
      <trkpt lat="44.31525" lon="6.82201">
        <time>2023-04-10T10:40:29+00:00</time>
        <ele>2711.0</ele>
      </trkpt>
      <trkpt lat="44.31525" lon="6.82201">
        <time>2023-04-10T10:40:30+00:00</time>
        <ele>2711.0</ele>
      </trkpt>
      <trkpt lat="44.31525" lon="6.82201">
        <time>2023-04-10T10:40:31+00:00</time>
        <ele>2711.0</ele>
      </trkpt>
      <trkpt lat="44.31525" lon="6.82201">
        <time>2023-04-10T10:40:32+00:00</time>
        <ele>2711.0</ele>
      </trkpt>
      <trkpt lat="44.31525" lon="6.82201">
        <time>2023-04-10T10:40:33+00:00</time>
        <ele>2711.0</ele>
      </trkpt>
      <trkpt lat="44.31525" lon="6.82201">
        <time>2023-04-10T10:40:34+00:00</time>
        <ele>2711.0</ele>
      </trkpt>
      <trkpt lat="44.31525" lon="6.82201">
        <time>2023-04-10T10:40:35+00:00</time>
        <ele>2711.0</ele>
      </trkpt>
      <trkpt lat="44.31525" lon="6.82201">
        <time>2023-04-10T10:40:36+00:00</time>
        <ele>2711.0</ele>
      </trkpt>
      <trkpt lat="44.31525" lon="6.82201">
        <time>2023-04-10T10:40:37+00:00</time>
        <ele>2711.0</ele>
      </trkpt>
      <trkpt lat="44.31525" lon="6.82201">
        <time>2023-04-10T10:40:38+00:00</time>
        <ele>2711.0</ele>
      </trkpt>
      <trkpt lat="44.31525" lon="6.82201">
        <time>2023-04-10T10:40:39+00:00</time>
        <ele>2711.0</ele>
      </trkpt>
      <trkpt lat="44.31525" lon="6.82201">
        <time>2023-04-10T10:40:40+00:00</time>
        <ele>2711.0</ele>
      </trkpt>
      <trkpt lat="44.31525" lon="6.82201">
        <time>2023-04-10T10:40:41+00:00</time>
        <ele>2711.0</ele>
      </trkpt>
      <trkpt lat="44.31525" lon="6.82201">
        <time>2023-04-10T10:40:42+00:00</time>
        <ele>2711.0</ele>
      </trkpt>
      <trkpt lat="44.31525" lon="6.82201">
        <time>2023-04-10T10:40:43+00:00</time>
        <ele>2711.0</ele>
      </trkpt>
      <trkpt lat="44.31525" lon="6.82201">
        <time>2023-04-10T10:40:44+00:00</time>
        <ele>2711.0</ele>
      </trkpt>
      <trkpt lat="44.31525" lon="6.82201">
        <time>2023-04-10T10:40:45+00:00</time>
        <ele>2711.0</ele>
      </trkpt>
      <trkpt lat="44.31525" lon="6.82201">
        <time>2023-04-10T10:40:47+00:00</time>
        <ele>2711.0</ele>
      </trkpt>
      <trkpt lat="44.31525" lon="6.82201">
        <time>2023-04-10T10:40:48+00:00</time>
        <ele>2711.0</ele>
      </trkpt>
      <trkpt lat="44.31525" lon="6.82201">
        <time>2023-04-10T10:40:49+00:00</time>
        <ele>2711.0</ele>
      </trkpt>
      <trkpt lat="44.31525" lon="6.82201">
        <time>2023-04-10T10:40:50+00:00</time>
        <ele>2711.0</ele>
      </trkpt>
      <trkpt lat="44.31525" lon="6.82201">
        <time>2023-04-10T10:40:51+00:00</time>
        <ele>2711.0</ele>
      </trkpt>
      <trkpt lat="44.31525" lon="6.82201">
        <time>2023-04-10T10:40:52+00:00</time>
        <ele>2711.0</ele>
      </trkpt>
      <trkpt lat="44.31525" lon="6.82201">
        <time>2023-04-10T10:40:53+00:00</time>
        <ele>2711.0</ele>
      </trkpt>
      <trkpt lat="44.31525" lon="6.82201">
        <time>2023-04-10T10:40:54+00:00</time>
        <ele>2711.0</ele>
      </trkpt>
      <trkpt lat="44.31525" lon="6.82201">
        <time>2023-04-10T10:40:55+00:00</time>
        <ele>2711.0</ele>
      </trkpt>
      <trkpt lat="44.31525" lon="6.82201">
        <time>2023-04-10T10:40:56+00:00</time>
        <ele>2711.0</ele>
      </trkpt>
      <trkpt lat="44.31525" lon="6.82201">
        <time>2023-04-10T10:40:57+00:00</time>
        <ele>2711.0</ele>
      </trkpt>
      <trkpt lat="44.31525" lon="6.82201">
        <time>2023-04-10T10:40:58+00:00</time>
        <ele>2711.0</ele>
      </trkpt>
      <trkpt lat="44.31525" lon="6.82201">
        <time>2023-04-10T10:40:59+00:00</time>
        <ele>2711.0</ele>
      </trkpt>
      <trkpt lat="44.31525" lon="6.82201">
        <time>2023-04-10T10:41:00+00:00</time>
        <ele>2711.0</ele>
      </trkpt>
      <trkpt lat="44.31525" lon="6.82201">
        <time>2023-04-10T10:41:01+00:00</time>
        <ele>2711.0</ele>
      </trkpt>
      <trkpt lat="44.31525" lon="6.82201">
        <time>2023-04-10T10:41:02+00:00</time>
        <ele>2711.0</ele>
      </trkpt>
      <trkpt lat="44.31525" lon="6.82201">
        <time>2023-04-10T10:41:03+00:00</time>
        <ele>2711.0</ele>
      </trkpt>
      <trkpt lat="44.31525" lon="6.82201">
        <time>2023-04-10T10:41:04+00:00</time>
        <ele>2711.0</ele>
      </trkpt>
      <trkpt lat="44.31525" lon="6.82201">
        <time>2023-04-10T10:41:05+00:00</time>
        <ele>2711.0</ele>
      </trkpt>
      <trkpt lat="44.31525" lon="6.82201">
        <time>2023-04-10T10:41:06+00:00</time>
        <ele>2711.0</ele>
      </trkpt>
      <trkpt lat="44.31525" lon="6.82201">
        <time>2023-04-10T10:41:07+00:00</time>
        <ele>2711.0</ele>
      </trkpt>
      <trkpt lat="44.31525" lon="6.82201">
        <time>2023-04-10T10:41:08+00:00</time>
        <ele>2711.0</ele>
      </trkpt>
      <trkpt lat="44.31525" lon="6.82201">
        <time>2023-04-10T10:41:09+00:00</time>
        <ele>2711.0</ele>
      </trkpt>
      <trkpt lat="44.31525" lon="6.82201">
        <time>2023-04-10T10:41:10+00:00</time>
        <ele>2711.0</ele>
      </trkpt>
      <trkpt lat="44.31525" lon="6.82201">
        <time>2023-04-10T10:41:11+00:00</time>
        <ele>2711.0</ele>
      </trkpt>
      <trkpt lat="44.31525" lon="6.82201">
        <time>2023-04-10T10:41:12+00:00</time>
        <ele>2711.0</ele>
      </trkpt>
      <trkpt lat="44.31525" lon="6.82201">
        <time>2023-04-10T10:41:13+00:00</time>
        <ele>2711.0</ele>
      </trkpt>
      <trkpt lat="44.31525" lon="6.82201">
        <time>2023-04-10T10:41:14+00:00</time>
        <ele>2711.0</ele>
      </trkpt>
      <trkpt lat="44.31525" lon="6.82201">
        <time>2023-04-10T10:41:15+00:00</time>
        <ele>2711.0</ele>
      </trkpt>
      <trkpt lat="44.31525" lon="6.82201">
        <time>2023-04-10T10:41:16+00:00</time>
        <ele>2711.0</ele>
      </trkpt>
      <trkpt lat="44.31525" lon="6.82201">
        <time>2023-04-10T10:41:17+00:00</time>
        <ele>2711.0</ele>
      </trkpt>
      <trkpt lat="44.31525" lon="6.82201">
        <time>2023-04-10T10:41:18+00:00</time>
        <ele>2711.0</ele>
      </trkpt>
      <trkpt lat="44.31525" lon="6.82201">
        <time>2023-04-10T10:41:19+00:00</time>
        <ele>2711.0</ele>
      </trkpt>
      <trkpt lat="44.31525" lon="6.82201">
        <time>2023-04-10T10:41:20+00:00</time>
        <ele>2711.0</ele>
      </trkpt>
      <trkpt lat="44.31525" lon="6.82201">
        <time>2023-04-10T10:41:21+00:00</time>
        <ele>2711.0</ele>
      </trkpt>
      <trkpt lat="44.31525" lon="6.82201">
        <time>2023-04-10T10:41:22+00:00</time>
        <ele>2711.0</ele>
      </trkpt>
      <trkpt lat="44.31525" lon="6.82201">
        <time>2023-04-10T10:41:23+00:00</time>
        <ele>2711.0</ele>
      </trkpt>
      <trkpt lat="44.31525" lon="6.82201">
        <time>2023-04-10T10:41:24+00:00</time>
        <ele>2711.0</ele>
      </trkpt>
      <trkpt lat="44.31525" lon="6.82201">
        <time>2023-04-10T10:41:25+00:00</time>
        <ele>2711.0</ele>
      </trkpt>
      <trkpt lat="44.31525" lon="6.82201">
        <time>2023-04-10T10:41:26+00:00</time>
        <ele>2711.0</ele>
      </trkpt>
      <trkpt lat="44.31525" lon="6.82201">
        <time>2023-04-10T10:41:27+00:00</time>
        <ele>2711.0</ele>
      </trkpt>
      <trkpt lat="44.31525" lon="6.82201">
        <time>2023-04-10T10:41:28+00:00</time>
        <ele>2711.0</ele>
      </trkpt>
      <trkpt lat="44.31525" lon="6.82201">
        <time>2023-04-10T10:41:29+00:00</time>
        <ele>2711.0</ele>
      </trkpt>
      <trkpt lat="44.31525" lon="6.82201">
        <time>2023-04-10T10:41:30+00:00</time>
        <ele>2711.0</ele>
      </trkpt>
      <trkpt lat="44.31525" lon="6.82201">
        <time>2023-04-10T10:41:31+00:00</time>
        <ele>2711.0</ele>
      </trkpt>
      <trkpt lat="44.31525" lon="6.82201">
        <time>2023-04-10T10:41:32+00:00</time>
        <ele>2711.0</ele>
      </trkpt>
      <trkpt lat="44.31525" lon="6.82201">
        <time>2023-04-10T10:41:33+00:00</time>
        <ele>2711.0</ele>
      </trkpt>
      <trkpt lat="44.31525" lon="6.82201">
        <time>2023-04-10T10:41:34+00:00</time>
        <ele>2711.0</ele>
      </trkpt>
      <trkpt lat="44.31525" lon="6.82201">
        <time>2023-04-10T10:41:35+00:00</time>
        <ele>2711.0</ele>
      </trkpt>
      <trkpt lat="44.31525" lon="6.82201">
        <time>2023-04-10T10:41:36+00:00</time>
        <ele>2711.0</ele>
      </trkpt>
      <trkpt lat="44.31525" lon="6.82201">
        <time>2023-04-10T10:41:37+00:00</time>
        <ele>2711.0</ele>
      </trkpt>
      <trkpt lat="44.31525" lon="6.82201">
        <time>2023-04-10T10:41:38+00:00</time>
        <ele>2711.0</ele>
      </trkpt>
      <trkpt lat="44.31525" lon="6.82201">
        <time>2023-04-10T10:41:39+00:00</time>
        <ele>2711.0</ele>
      </trkpt>
      <trkpt lat="44.31525" lon="6.82201">
        <time>2023-04-10T10:41:40+00:00</time>
        <ele>2711.0</ele>
      </trkpt>
      <trkpt lat="44.31525" lon="6.82201">
        <time>2023-04-10T10:41:41+00:00</time>
        <ele>2711.0</ele>
      </trkpt>
      <trkpt lat="44.31525" lon="6.82201">
        <time>2023-04-10T10:41:42+00:00</time>
        <ele>2711.0</ele>
      </trkpt>
      <trkpt lat="44.31525" lon="6.82201">
        <time>2023-04-10T10:41:43+00:00</time>
        <ele>2711.0</ele>
      </trkpt>
      <trkpt lat="44.31525" lon="6.82201">
        <time>2023-04-10T10:41:44+00:00</time>
        <ele>2711.0</ele>
      </trkpt>
      <trkpt lat="44.31525" lon="6.82201">
        <time>2023-04-10T10:41:45+00:00</time>
        <ele>2711.0</ele>
      </trkpt>
      <trkpt lat="44.31525" lon="6.82201">
        <time>2023-04-10T10:41:46+00:00</time>
        <ele>2711.0</ele>
      </trkpt>
      <trkpt lat="44.31525" lon="6.82201">
        <time>2023-04-10T10:41:47+00:00</time>
        <ele>2711.0</ele>
      </trkpt>
      <trkpt lat="44.31525" lon="6.82201">
        <time>2023-04-10T10:41:48+00:00</time>
        <ele>2711.0</ele>
      </trkpt>
      <trkpt lat="44.31525" lon="6.822">
        <time>2023-04-10T10:41:49+00:00</time>
        <ele>2712.0</ele>
      </trkpt>
      <trkpt lat="44.31525" lon="6.822">
        <time>2023-04-10T10:41:50+00:00</time>
        <ele>2712.0</ele>
      </trkpt>
      <trkpt lat="44.31525" lon="6.822">
        <time>2023-04-10T10:41:51+00:00</time>
        <ele>2712.0</ele>
      </trkpt>
      <trkpt lat="44.31525" lon="6.822">
        <time>2023-04-10T10:41:52+00:00</time>
        <ele>2712.0</ele>
      </trkpt>
      <trkpt lat="44.31525" lon="6.822">
        <time>2023-04-10T10:41:53+00:00</time>
        <ele>2712.0</ele>
      </trkpt>
      <trkpt lat="44.31526" lon="6.822">
        <time>2023-04-10T10:41:54+00:00</time>
        <ele>2712.0</ele>
      </trkpt>
      <trkpt lat="44.31526" lon="6.822">
        <time>2023-04-10T10:41:55+00:00</time>
        <ele>2712.0</ele>
      </trkpt>
      <trkpt lat="44.31526" lon="6.822">
        <time>2023-04-10T10:41:56+00:00</time>
        <ele>2712.0</ele>
      </trkpt>
      <trkpt lat="44.31526" lon="6.822">
        <time>2023-04-10T10:41:57+00:00</time>
        <ele>2712.0</ele>
      </trkpt>
      <trkpt lat="44.31526" lon="6.822">
        <time>2023-04-10T10:41:58+00:00</time>
        <ele>2712.0</ele>
      </trkpt>
      <trkpt lat="44.31526" lon="6.822">
        <time>2023-04-10T10:41:59+00:00</time>
        <ele>2712.0</ele>
      </trkpt>
      <trkpt lat="44.31526" lon="6.82199">
        <time>2023-04-10T10:42:00+00:00</time>
        <ele>2712.0</ele>
      </trkpt>
      <trkpt lat="44.31526" lon="6.82199">
        <time>2023-04-10T10:42:01+00:00</time>
        <ele>2712.0</ele>
      </trkpt>
      <trkpt lat="44.31526" lon="6.82199">
        <time>2023-04-10T10:42:02+00:00</time>
        <ele>2712.0</ele>
      </trkpt>
      <trkpt lat="44.31526" lon="6.82199">
        <time>2023-04-10T10:42:03+00:00</time>
        <ele>2712.0</ele>
      </trkpt>
      <trkpt lat="44.31526" lon="6.82199">
        <time>2023-04-10T10:42:04+00:00</time>
        <ele>2712.0</ele>
      </trkpt>
      <trkpt lat="44.31526" lon="6.82199">
        <time>2023-04-10T10:42:05+00:00</time>
        <ele>2712.0</ele>
      </trkpt>
      <trkpt lat="44.31526" lon="6.82199">
        <time>2023-04-10T10:42:06+00:00</time>
        <ele>2712.0</ele>
      </trkpt>
      <trkpt lat="44.31526" lon="6.82199">
        <time>2023-04-10T10:42:07+00:00</time>
        <ele>2712.0</ele>
      </trkpt>
      <trkpt lat="44.31527" lon="6.82199">
        <time>2023-04-10T10:42:08+00:00</time>
        <ele>2712.0</ele>
      </trkpt>
      <trkpt lat="44.31527" lon="6.82199">
        <time>2023-04-10T10:42:09+00:00</time>
        <ele>2712.0</ele>
      </trkpt>
      <trkpt lat="44.31527" lon="6.82199">
        <time>2023-04-10T10:42:10+00:00</time>
        <ele>2712.0</ele>
      </trkpt>
      <trkpt lat="44.31527" lon="6.82198">
        <time>2023-04-10T10:42:11+00:00</time>
        <ele>2712.0</ele>
      </trkpt>
      <trkpt lat="44.31527" lon="6.82198">
        <time>2023-04-10T10:42:12+00:00</time>
        <ele>2712.0</ele>
      </trkpt>
      <trkpt lat="44.31527" lon="6.82198">
        <time>2023-04-10T10:42:13+00:00</time>
        <ele>2712.0</ele>
      </trkpt>
      <trkpt lat="44.31527" lon="6.82198">
        <time>2023-04-10T10:42:14+00:00</time>
        <ele>2712.0</ele>
      </trkpt>
      <trkpt lat="44.31527" lon="6.82198">
        <time>2023-04-10T10:42:15+00:00</time>
        <ele>2712.0</ele>
      </trkpt>
      <trkpt lat="44.31527" lon="6.82198">
        <time>2023-04-10T10:42:16+00:00</time>
        <ele>2712.0</ele>
      </trkpt>
      <trkpt lat="44.31527" lon="6.82198">
        <time>2023-04-10T10:42:17+00:00</time>
        <ele>2712.0</ele>
      </trkpt>
      <trkpt lat="44.31527" lon="6.82198">
        <time>2023-04-10T10:42:18+00:00</time>
        <ele>2712.0</ele>
      </trkpt>
      <trkpt lat="44.31527" lon="6.82198">
        <time>2023-04-10T10:42:19+00:00</time>
        <ele>2712.0</ele>
      </trkpt>
      <trkpt lat="44.31527" lon="6.82198">
        <time>2023-04-10T10:42:20+00:00</time>
        <ele>2712.0</ele>
      </trkpt>
      <trkpt lat="44.31527" lon="6.82198">
        <time>2023-04-10T10:42:21+00:00</time>
        <ele>2712.0</ele>
      </trkpt>
      <trkpt lat="44.31527" lon="6.82198">
        <time>2023-04-10T10:42:22+00:00</time>
        <ele>2712.0</ele>
      </trkpt>
      <trkpt lat="44.3153" lon="6.82187">
        <time>2023-04-10T10:42:23+00:00</time>
        <ele>2714.0</ele>
      </trkpt>
      <trkpt lat="44.3153" lon="6.82187">
        <time>2023-04-10T10:42:24+00:00</time>
        <ele>2714.0</ele>
      </trkpt>
      <trkpt lat="44.3153" lon="6.82187">
        <time>2023-04-10T10:42:25+00:00</time>
        <ele>2714.0</ele>
      </trkpt>
      <trkpt lat="44.3153" lon="6.82187">
        <time>2023-04-10T10:42:26+00:00</time>
        <ele>2714.0</ele>
      </trkpt>
      <trkpt lat="44.3153" lon="6.82187">
        <time>2023-04-10T10:42:27+00:00</time>
        <ele>2714.0</ele>
      </trkpt>
      <trkpt lat="44.3153" lon="6.82187">
        <time>2023-04-10T10:42:28+00:00</time>
        <ele>2714.0</ele>
      </trkpt>
      <trkpt lat="44.31533" lon="6.82183">
        <time>2023-04-10T10:42:29+00:00</time>
        <ele>2715.0</ele>
      </trkpt>
      <trkpt lat="44.31533" lon="6.82183">
        <time>2023-04-10T10:42:30+00:00</time>
        <ele>2715.0</ele>
      </trkpt>
      <trkpt lat="44.31533" lon="6.82183">
        <time>2023-04-10T10:42:31+00:00</time>
        <ele>2715.0</ele>
      </trkpt>
      <trkpt lat="44.31533" lon="6.82183">
        <time>2023-04-10T10:42:32+00:00</time>
        <ele>2715.0</ele>
      </trkpt>
      <trkpt lat="44.31533" lon="6.82183">
        <time>2023-04-10T10:42:33+00:00</time>
        <ele>2715.0</ele>
      </trkpt>
      <trkpt lat="44.31533" lon="6.82183">
        <time>2023-04-10T10:42:34+00:00</time>
        <ele>2715.0</ele>
      </trkpt>
      <trkpt lat="44.31533" lon="6.82183">
        <time>2023-04-10T10:42:35+00:00</time>
        <ele>2715.0</ele>
      </trkpt>
      <trkpt lat="44.31533" lon="6.82183">
        <time>2023-04-10T10:42:36+00:00</time>
        <ele>2715.0</ele>
      </trkpt>
      <trkpt lat="44.31533" lon="6.82183">
        <time>2023-04-10T10:42:37+00:00</time>
        <ele>2715.0</ele>
      </trkpt>
      <trkpt lat="44.31533" lon="6.82183">
        <time>2023-04-10T10:42:38+00:00</time>
        <ele>2715.0</ele>
      </trkpt>
      <trkpt lat="44.31533" lon="6.82183">
        <time>2023-04-10T10:42:39+00:00</time>
        <ele>2715.0</ele>
      </trkpt>
      <trkpt lat="44.31533" lon="6.82183">
        <time>2023-04-10T10:42:40+00:00</time>
        <ele>2715.0</ele>
      </trkpt>
      <trkpt lat="44.31533" lon="6.82183">
        <time>2023-04-10T10:42:41+00:00</time>
        <ele>2715.0</ele>
      </trkpt>
      <trkpt lat="44.31533" lon="6.82183">
        <time>2023-04-10T10:42:42+00:00</time>
        <ele>2715.0</ele>
      </trkpt>
      <trkpt lat="44.31533" lon="6.82183">
        <time>2023-04-10T10:42:43+00:00</time>
        <ele>2715.0</ele>
      </trkpt>
      <trkpt lat="44.31533" lon="6.82183">
        <time>2023-04-10T10:42:44+00:00</time>
        <ele>2715.0</ele>
      </trkpt>
      <trkpt lat="44.31533" lon="6.82183">
        <time>2023-04-10T10:42:45+00:00</time>
        <ele>2715.0</ele>
      </trkpt>
      <trkpt lat="44.31533" lon="6.82183">
        <time>2023-04-10T10:42:46+00:00</time>
        <ele>2715.0</ele>
      </trkpt>
      <trkpt lat="44.31533" lon="6.82183">
        <time>2023-04-10T10:42:47+00:00</time>
        <ele>2715.0</ele>
      </trkpt>
      <trkpt lat="44.31533" lon="6.82183">
        <time>2023-04-10T10:42:48+00:00</time>
        <ele>2715.0</ele>
      </trkpt>
      <trkpt lat="44.31533" lon="6.82183">
        <time>2023-04-10T10:42:49+00:00</time>
        <ele>2715.0</ele>
      </trkpt>
      <trkpt lat="44.31533" lon="6.82183">
        <time>2023-04-10T10:42:50+00:00</time>
        <ele>2715.0</ele>
      </trkpt>
      <trkpt lat="44.31533" lon="6.82183">
        <time>2023-04-10T10:42:51+00:00</time>
        <ele>2715.0</ele>
      </trkpt>
      <trkpt lat="44.31533" lon="6.82183">
        <time>2023-04-10T10:42:52+00:00</time>
        <ele>2715.0</ele>
      </trkpt>
      <trkpt lat="44.31533" lon="6.82183">
        <time>2023-04-10T10:42:53+00:00</time>
        <ele>2715.0</ele>
      </trkpt>
      <trkpt lat="44.31533" lon="6.82183">
        <time>2023-04-10T10:42:54+00:00</time>
        <ele>2715.0</ele>
      </trkpt>
      <trkpt lat="44.31533" lon="6.82183">
        <time>2023-04-10T10:42:55+00:00</time>
        <ele>2715.0</ele>
      </trkpt>
      <trkpt lat="44.31533" lon="6.82183">
        <time>2023-04-10T10:42:56+00:00</time>
        <ele>2715.0</ele>
      </trkpt>
      <trkpt lat="44.31533" lon="6.82183">
        <time>2023-04-10T10:42:57+00:00</time>
        <ele>2715.0</ele>
      </trkpt>
      <trkpt lat="44.31533" lon="6.82183">
        <time>2023-04-10T10:42:58+00:00</time>
        <ele>2715.0</ele>
      </trkpt>
      <trkpt lat="44.31533" lon="6.82183">
        <time>2023-04-10T10:42:59+00:00</time>
        <ele>2715.0</ele>
      </trkpt>
      <trkpt lat="44.31533" lon="6.82183">
        <time>2023-04-10T10:43:00+00:00</time>
        <ele>2715.0</ele>
      </trkpt>
      <trkpt lat="44.31533" lon="6.82183">
        <time>2023-04-10T10:43:01+00:00</time>
        <ele>2715.0</ele>
      </trkpt>
      <trkpt lat="44.31533" lon="6.82183">
        <time>2023-04-10T10:43:02+00:00</time>
        <ele>2715.0</ele>
      </trkpt>
      <trkpt lat="44.31533" lon="6.82183">
        <time>2023-04-10T10:43:03+00:00</time>
        <ele>2715.0</ele>
      </trkpt>
      <trkpt lat="44.31533" lon="6.82183">
        <time>2023-04-10T10:43:04+00:00</time>
        <ele>2715.0</ele>
      </trkpt>
      <trkpt lat="44.31533" lon="6.82183">
        <time>2023-04-10T10:43:05+00:00</time>
        <ele>2715.0</ele>
      </trkpt>
      <trkpt lat="44.31533" lon="6.82183">
        <time>2023-04-10T10:43:06+00:00</time>
        <ele>2715.0</ele>
      </trkpt>
      <trkpt lat="44.31533" lon="6.82183">
        <time>2023-04-10T10:43:07+00:00</time>
        <ele>2715.0</ele>
      </trkpt>
      <trkpt lat="44.31533" lon="6.82183">
        <time>2023-04-10T10:43:08+00:00</time>
        <ele>2715.0</ele>
      </trkpt>
      <trkpt lat="44.31533" lon="6.82183">
        <time>2023-04-10T10:43:09+00:00</time>
        <ele>2715.0</ele>
      </trkpt>
      <trkpt lat="44.31533" lon="6.82183">
        <time>2023-04-10T10:43:10+00:00</time>
        <ele>2715.0</ele>
      </trkpt>
      <trkpt lat="44.31533" lon="6.82183">
        <time>2023-04-10T10:43:11+00:00</time>
        <ele>2715.0</ele>
      </trkpt>
      <trkpt lat="44.31533" lon="6.82183">
        <time>2023-04-10T10:43:12+00:00</time>
        <ele>2715.0</ele>
      </trkpt>
      <trkpt lat="44.31533" lon="6.82183">
        <time>2023-04-10T10:43:13+00:00</time>
        <ele>2715.0</ele>
      </trkpt>
      <trkpt lat="44.31533" lon="6.82183">
        <time>2023-04-10T10:43:14+00:00</time>
        <ele>2715.0</ele>
      </trkpt>
      <trkpt lat="44.31533" lon="6.82183">
        <time>2023-04-10T10:43:15+00:00</time>
        <ele>2715.0</ele>
      </trkpt>
      <trkpt lat="44.31533" lon="6.82183">
        <time>2023-04-10T10:43:16+00:00</time>
        <ele>2715.0</ele>
      </trkpt>
      <trkpt lat="44.31533" lon="6.82183">
        <time>2023-04-10T10:43:17+00:00</time>
        <ele>2715.0</ele>
      </trkpt>
      <trkpt lat="44.31533" lon="6.82183">
        <time>2023-04-10T10:43:18+00:00</time>
        <ele>2715.0</ele>
      </trkpt>
      <trkpt lat="44.31533" lon="6.82183">
        <time>2023-04-10T10:43:19+00:00</time>
        <ele>2715.0</ele>
      </trkpt>
      <trkpt lat="44.31533" lon="6.82183">
        <time>2023-04-10T10:43:20+00:00</time>
        <ele>2715.0</ele>
      </trkpt>
      <trkpt lat="44.31533" lon="6.82183">
        <time>2023-04-10T10:43:21+00:00</time>
        <ele>2715.0</ele>
      </trkpt>
      <trkpt lat="44.31533" lon="6.82183">
        <time>2023-04-10T10:43:22+00:00</time>
        <ele>2715.0</ele>
      </trkpt>
      <trkpt lat="44.31533" lon="6.82183">
        <time>2023-04-10T10:43:23+00:00</time>
        <ele>2715.0</ele>
      </trkpt>
      <trkpt lat="44.31533" lon="6.82183">
        <time>2023-04-10T10:43:24+00:00</time>
        <ele>2715.0</ele>
      </trkpt>
      <trkpt lat="44.31533" lon="6.82183">
        <time>2023-04-10T10:43:25+00:00</time>
        <ele>2715.0</ele>
      </trkpt>
      <trkpt lat="44.31533" lon="6.82183">
        <time>2023-04-10T10:43:26+00:00</time>
        <ele>2715.0</ele>
      </trkpt>
      <trkpt lat="44.31533" lon="6.82183">
        <time>2023-04-10T10:43:27+00:00</time>
        <ele>2715.0</ele>
      </trkpt>
      <trkpt lat="44.31533" lon="6.82183">
        <time>2023-04-10T10:43:28+00:00</time>
        <ele>2715.0</ele>
      </trkpt>
      <trkpt lat="44.31533" lon="6.82183">
        <time>2023-04-10T10:43:29+00:00</time>
        <ele>2715.0</ele>
      </trkpt>
      <trkpt lat="44.31533" lon="6.82183">
        <time>2023-04-10T10:43:30+00:00</time>
        <ele>2715.0</ele>
      </trkpt>
      <trkpt lat="44.31533" lon="6.82183">
        <time>2023-04-10T10:43:31+00:00</time>
        <ele>2715.0</ele>
      </trkpt>
      <trkpt lat="44.31533" lon="6.82183">
        <time>2023-04-10T10:43:32+00:00</time>
        <ele>2715.0</ele>
      </trkpt>
      <trkpt lat="44.31533" lon="6.82183">
        <time>2023-04-10T10:43:33+00:00</time>
        <ele>2715.0</ele>
      </trkpt>
      <trkpt lat="44.31533" lon="6.82183">
        <time>2023-04-10T10:43:34+00:00</time>
        <ele>2715.0</ele>
      </trkpt>
      <trkpt lat="44.31533" lon="6.82183">
        <time>2023-04-10T10:43:35+00:00</time>
        <ele>2715.0</ele>
      </trkpt>
      <trkpt lat="44.31533" lon="6.82183">
        <time>2023-04-10T10:43:36+00:00</time>
        <ele>2715.0</ele>
      </trkpt>
      <trkpt lat="44.31533" lon="6.82183">
        <time>2023-04-10T10:43:37+00:00</time>
        <ele>2715.0</ele>
      </trkpt>
      <trkpt lat="44.31533" lon="6.82183">
        <time>2023-04-10T10:43:38+00:00</time>
        <ele>2715.0</ele>
      </trkpt>
      <trkpt lat="44.31533" lon="6.82183">
        <time>2023-04-10T10:43:39+00:00</time>
        <ele>2715.0</ele>
      </trkpt>
      <trkpt lat="44.31533" lon="6.82183">
        <time>2023-04-10T10:43:40+00:00</time>
        <ele>2715.0</ele>
      </trkpt>
      <trkpt lat="44.31533" lon="6.82183">
        <time>2023-04-10T10:43:41+00:00</time>
        <ele>2715.0</ele>
      </trkpt>
      <trkpt lat="44.31533" lon="6.82183">
        <time>2023-04-10T10:43:42+00:00</time>
        <ele>2715.0</ele>
      </trkpt>
      <trkpt lat="44.31533" lon="6.82183">
        <time>2023-04-10T10:43:43+00:00</time>
        <ele>2715.0</ele>
      </trkpt>
      <trkpt lat="44.31533" lon="6.82183">
        <time>2023-04-10T10:43:44+00:00</time>
        <ele>2715.0</ele>
      </trkpt>
      <trkpt lat="44.31533" lon="6.82183">
        <time>2023-04-10T10:43:45+00:00</time>
        <ele>2715.0</ele>
      </trkpt>
      <trkpt lat="44.31533" lon="6.82183">
        <time>2023-04-10T10:43:46+00:00</time>
        <ele>2715.0</ele>
      </trkpt>
      <trkpt lat="44.31533" lon="6.82183">
        <time>2023-04-10T10:43:47+00:00</time>
        <ele>2715.0</ele>
      </trkpt>
      <trkpt lat="44.31533" lon="6.82183">
        <time>2023-04-10T10:43:48+00:00</time>
        <ele>2715.0</ele>
      </trkpt>
      <trkpt lat="44.31533" lon="6.82183">
        <time>2023-04-10T10:43:49+00:00</time>
        <ele>2715.0</ele>
      </trkpt>
      <trkpt lat="44.31533" lon="6.82183">
        <time>2023-04-10T10:43:50+00:00</time>
        <ele>2715.0</ele>
      </trkpt>
      <trkpt lat="44.31533" lon="6.82183">
        <time>2023-04-10T10:43:51+00:00</time>
        <ele>2715.0</ele>
      </trkpt>
      <trkpt lat="44.31533" lon="6.82183">
        <time>2023-04-10T10:43:52+00:00</time>
        <ele>2715.0</ele>
      </trkpt>
      <trkpt lat="44.31533" lon="6.82183">
        <time>2023-04-10T10:43:53+00:00</time>
        <ele>2715.0</ele>
      </trkpt>
      <trkpt lat="44.31533" lon="6.82183">
        <time>2023-04-10T10:43:54+00:00</time>
        <ele>2715.0</ele>
      </trkpt>
      <trkpt lat="44.31533" lon="6.82183">
        <time>2023-04-10T10:43:55+00:00</time>
        <ele>2715.0</ele>
      </trkpt>
      <trkpt lat="44.31533" lon="6.82183">
        <time>2023-04-10T10:43:56+00:00</time>
        <ele>2715.0</ele>
      </trkpt>
      <trkpt lat="44.31533" lon="6.82183">
        <time>2023-04-10T10:43:57+00:00</time>
        <ele>2715.0</ele>
      </trkpt>
      <trkpt lat="44.31533" lon="6.82183">
        <time>2023-04-10T10:43:58+00:00</time>
        <ele>2715.0</ele>
      </trkpt>
      <trkpt lat="44.31533" lon="6.82183">
        <time>2023-04-10T10:43:59+00:00</time>
        <ele>2715.0</ele>
      </trkpt>
      <trkpt lat="44.31533" lon="6.82183">
        <time>2023-04-10T10:44:00+00:00</time>
        <ele>2715.0</ele>
      </trkpt>
      <trkpt lat="44.31533" lon="6.82183">
        <time>2023-04-10T10:44:01+00:00</time>
        <ele>2715.0</ele>
      </trkpt>
      <trkpt lat="44.31533" lon="6.82183">
        <time>2023-04-10T10:44:02+00:00</time>
        <ele>2715.0</ele>
      </trkpt>
      <trkpt lat="44.31533" lon="6.82183">
        <time>2023-04-10T10:44:03+00:00</time>
        <ele>2715.0</ele>
      </trkpt>
      <trkpt lat="44.31533" lon="6.82183">
        <time>2023-04-10T10:44:04+00:00</time>
        <ele>2715.0</ele>
      </trkpt>
      <trkpt lat="44.31533" lon="6.82183">
        <time>2023-04-10T10:44:05+00:00</time>
        <ele>2715.0</ele>
      </trkpt>
      <trkpt lat="44.31533" lon="6.82183">
        <time>2023-04-10T10:44:06+00:00</time>
        <ele>2715.0</ele>
      </trkpt>
      <trkpt lat="44.31533" lon="6.82183">
        <time>2023-04-10T10:44:07+00:00</time>
        <ele>2715.0</ele>
      </trkpt>
      <trkpt lat="44.31533" lon="6.82183">
        <time>2023-04-10T10:44:08+00:00</time>
        <ele>2715.0</ele>
      </trkpt>
      <trkpt lat="44.31533" lon="6.82183">
        <time>2023-04-10T10:44:09+00:00</time>
        <ele>2715.0</ele>
      </trkpt>
      <trkpt lat="44.31533" lon="6.82183">
        <time>2023-04-10T10:44:10+00:00</time>
        <ele>2715.0</ele>
      </trkpt>
      <trkpt lat="44.31533" lon="6.82183">
        <time>2023-04-10T10:44:11+00:00</time>
        <ele>2715.0</ele>
      </trkpt>
      <trkpt lat="44.31533" lon="6.82183">
        <time>2023-04-10T10:44:12+00:00</time>
        <ele>2715.0</ele>
      </trkpt>
      <trkpt lat="44.31533" lon="6.82183">
        <time>2023-04-10T10:44:13+00:00</time>
        <ele>2715.0</ele>
      </trkpt>
      <trkpt lat="44.31533" lon="6.82183">
        <time>2023-04-10T10:44:14+00:00</time>
        <ele>2715.0</ele>
      </trkpt>
      <trkpt lat="44.31533" lon="6.82183">
        <time>2023-04-10T10:44:15+00:00</time>
        <ele>2715.0</ele>
      </trkpt>
      <trkpt lat="44.31533" lon="6.82183">
        <time>2023-04-10T10:44:16+00:00</time>
        <ele>2715.0</ele>
      </trkpt>
      <trkpt lat="44.31533" lon="6.82183">
        <time>2023-04-10T10:44:17+00:00</time>
        <ele>2715.0</ele>
      </trkpt>
      <trkpt lat="44.31533" lon="6.82183">
        <time>2023-04-10T10:44:18+00:00</time>
        <ele>2715.0</ele>
      </trkpt>
      <trkpt lat="44.31533" lon="6.82183">
        <time>2023-04-10T10:44:19+00:00</time>
        <ele>2715.0</ele>
      </trkpt>
      <trkpt lat="44.31533" lon="6.82183">
        <time>2023-04-10T10:44:20+00:00</time>
        <ele>2715.0</ele>
      </trkpt>
      <trkpt lat="44.31533" lon="6.82183">
        <time>2023-04-10T10:44:21+00:00</time>
        <ele>2715.0</ele>
      </trkpt>
      <trkpt lat="44.31533" lon="6.82183">
        <time>2023-04-10T10:44:22+00:00</time>
        <ele>2715.0</ele>
      </trkpt>
      <trkpt lat="44.31533" lon="6.82183">
        <time>2023-04-10T10:44:23+00:00</time>
        <ele>2715.0</ele>
      </trkpt>
      <trkpt lat="44.31533" lon="6.82183">
        <time>2023-04-10T10:44:24+00:00</time>
        <ele>2715.0</ele>
      </trkpt>
      <trkpt lat="44.31533" lon="6.82183">
        <time>2023-04-10T10:44:25+00:00</time>
        <ele>2715.0</ele>
      </trkpt>
      <trkpt lat="44.31533" lon="6.82183">
        <time>2023-04-10T10:44:26+00:00</time>
        <ele>2715.0</ele>
      </trkpt>
      <trkpt lat="44.31533" lon="6.82183">
        <time>2023-04-10T10:44:27+00:00</time>
        <ele>2715.0</ele>
      </trkpt>
      <trkpt lat="44.31533" lon="6.82183">
        <time>2023-04-10T10:44:28+00:00</time>
        <ele>2715.0</ele>
      </trkpt>
      <trkpt lat="44.31533" lon="6.82183">
        <time>2023-04-10T10:44:29+00:00</time>
        <ele>2715.0</ele>
      </trkpt>
      <trkpt lat="44.31533" lon="6.82183">
        <time>2023-04-10T10:44:30+00:00</time>
        <ele>2715.0</ele>
      </trkpt>
      <trkpt lat="44.31533" lon="6.82183">
        <time>2023-04-10T10:44:31+00:00</time>
        <ele>2715.0</ele>
      </trkpt>
      <trkpt lat="44.31533" lon="6.82183">
        <time>2023-04-10T10:44:32+00:00</time>
        <ele>2715.0</ele>
      </trkpt>
      <trkpt lat="44.31533" lon="6.82183">
        <time>2023-04-10T10:44:33+00:00</time>
        <ele>2715.0</ele>
      </trkpt>
      <trkpt lat="44.31533" lon="6.82183">
        <time>2023-04-10T10:44:34+00:00</time>
        <ele>2715.0</ele>
      </trkpt>
      <trkpt lat="44.31533" lon="6.82183">
        <time>2023-04-10T10:44:35+00:00</time>
        <ele>2715.0</ele>
      </trkpt>
      <trkpt lat="44.31533" lon="6.82183">
        <time>2023-04-10T10:44:36+00:00</time>
        <ele>2715.0</ele>
      </trkpt>
      <trkpt lat="44.31533" lon="6.82183">
        <time>2023-04-10T10:44:37+00:00</time>
        <ele>2715.0</ele>
      </trkpt>
      <trkpt lat="44.31533" lon="6.82183">
        <time>2023-04-10T10:44:38+00:00</time>
        <ele>2715.0</ele>
      </trkpt>
      <trkpt lat="44.31533" lon="6.82183">
        <time>2023-04-10T10:44:39+00:00</time>
        <ele>2715.0</ele>
      </trkpt>
      <trkpt lat="44.31533" lon="6.82183">
        <time>2023-04-10T10:44:40+00:00</time>
        <ele>2715.0</ele>
      </trkpt>
      <trkpt lat="44.31533" lon="6.82183">
        <time>2023-04-10T10:44:41+00:00</time>
        <ele>2715.0</ele>
      </trkpt>
      <trkpt lat="44.31533" lon="6.82183">
        <time>2023-04-10T10:44:42+00:00</time>
        <ele>2715.0</ele>
      </trkpt>
      <trkpt lat="44.31533" lon="6.82183">
        <time>2023-04-10T10:44:43+00:00</time>
        <ele>2715.0</ele>
      </trkpt>
      <trkpt lat="44.31533" lon="6.82183">
        <time>2023-04-10T10:44:44+00:00</time>
        <ele>2715.0</ele>
      </trkpt>
      <trkpt lat="44.31533" lon="6.82183">
        <time>2023-04-10T10:44:45+00:00</time>
        <ele>2715.0</ele>
      </trkpt>
      <trkpt lat="44.31533" lon="6.82183">
        <time>2023-04-10T10:44:46+00:00</time>
        <ele>2715.0</ele>
      </trkpt>
      <trkpt lat="44.31533" lon="6.82183">
        <time>2023-04-10T10:44:47+00:00</time>
        <ele>2715.0</ele>
      </trkpt>
      <trkpt lat="44.31533" lon="6.82183">
        <time>2023-04-10T10:44:48+00:00</time>
        <ele>2715.0</ele>
      </trkpt>
      <trkpt lat="44.31533" lon="6.82183">
        <time>2023-04-10T10:44:49+00:00</time>
        <ele>2715.0</ele>
      </trkpt>
      <trkpt lat="44.31533" lon="6.82183">
        <time>2023-04-10T10:44:50+00:00</time>
        <ele>2715.0</ele>
      </trkpt>
      <trkpt lat="44.31533" lon="6.82183">
        <time>2023-04-10T10:44:51+00:00</time>
        <ele>2715.0</ele>
      </trkpt>
      <trkpt lat="44.31533" lon="6.82183">
        <time>2023-04-10T10:44:52+00:00</time>
        <ele>2715.0</ele>
      </trkpt>
      <trkpt lat="44.31533" lon="6.82183">
        <time>2023-04-10T10:44:53+00:00</time>
        <ele>2715.0</ele>
      </trkpt>
      <trkpt lat="44.31533" lon="6.82183">
        <time>2023-04-10T10:44:54+00:00</time>
        <ele>2715.0</ele>
      </trkpt>
      <trkpt lat="44.31533" lon="6.82183">
        <time>2023-04-10T10:44:55+00:00</time>
        <ele>2715.0</ele>
      </trkpt>
      <trkpt lat="44.31533" lon="6.82183">
        <time>2023-04-10T10:44:56+00:00</time>
        <ele>2715.0</ele>
      </trkpt>
      <trkpt lat="44.31533" lon="6.82183">
        <time>2023-04-10T10:44:57+00:00</time>
        <ele>2715.0</ele>
      </trkpt>
      <trkpt lat="44.31533" lon="6.82183">
        <time>2023-04-10T10:44:58+00:00</time>
        <ele>2715.0</ele>
      </trkpt>
      <trkpt lat="44.31533" lon="6.82183">
        <time>2023-04-10T10:44:59+00:00</time>
        <ele>2715.0</ele>
      </trkpt>
      <trkpt lat="44.31533" lon="6.82183">
        <time>2023-04-10T10:45:00+00:00</time>
        <ele>2715.0</ele>
      </trkpt>
      <trkpt lat="44.31533" lon="6.82183">
        <time>2023-04-10T10:45:01+00:00</time>
        <ele>2715.0</ele>
      </trkpt>
      <trkpt lat="44.31533" lon="6.82183">
        <time>2023-04-10T10:45:02+00:00</time>
        <ele>2715.0</ele>
      </trkpt>
      <trkpt lat="44.31533" lon="6.82183">
        <time>2023-04-10T10:45:03+00:00</time>
        <ele>2715.0</ele>
      </trkpt>
      <trkpt lat="44.31533" lon="6.82183">
        <time>2023-04-10T10:45:04+00:00</time>
        <ele>2715.0</ele>
      </trkpt>
      <trkpt lat="44.31533" lon="6.82183">
        <time>2023-04-10T10:45:05+00:00</time>
        <ele>2715.0</ele>
      </trkpt>
      <trkpt lat="44.31533" lon="6.82183">
        <time>2023-04-10T10:45:06+00:00</time>
        <ele>2715.0</ele>
      </trkpt>
      <trkpt lat="44.31533" lon="6.82183">
        <time>2023-04-10T10:45:07+00:00</time>
        <ele>2715.0</ele>
      </trkpt>
      <trkpt lat="44.31533" lon="6.82183">
        <time>2023-04-10T10:45:08+00:00</time>
        <ele>2715.0</ele>
      </trkpt>
      <trkpt lat="44.31533" lon="6.82183">
        <time>2023-04-10T10:45:09+00:00</time>
        <ele>2715.0</ele>
      </trkpt>
      <trkpt lat="44.31533" lon="6.82183">
        <time>2023-04-10T10:45:10+00:00</time>
        <ele>2715.0</ele>
      </trkpt>
      <trkpt lat="44.31533" lon="6.82183">
        <time>2023-04-10T10:45:11+00:00</time>
        <ele>2715.0</ele>
      </trkpt>
      <trkpt lat="44.31533" lon="6.82183">
        <time>2023-04-10T10:45:12+00:00</time>
        <ele>2715.0</ele>
      </trkpt>
      <trkpt lat="44.31533" lon="6.82183">
        <time>2023-04-10T10:45:13+00:00</time>
        <ele>2715.0</ele>
      </trkpt>
      <trkpt lat="44.31533" lon="6.82183">
        <time>2023-04-10T10:45:14+00:00</time>
        <ele>2715.0</ele>
      </trkpt>
      <trkpt lat="44.31533" lon="6.82183">
        <time>2023-04-10T10:45:15+00:00</time>
        <ele>2715.0</ele>
      </trkpt>
      <trkpt lat="44.31533" lon="6.82183">
        <time>2023-04-10T10:45:16+00:00</time>
        <ele>2715.0</ele>
      </trkpt>
      <trkpt lat="44.31533" lon="6.82183">
        <time>2023-04-10T10:45:17+00:00</time>
        <ele>2715.0</ele>
      </trkpt>
      <trkpt lat="44.31533" lon="6.82183">
        <time>2023-04-10T10:45:18+00:00</time>
        <ele>2715.0</ele>
      </trkpt>
      <trkpt lat="44.31533" lon="6.82183">
        <time>2023-04-10T10:45:19+00:00</time>
        <ele>2715.0</ele>
      </trkpt>
      <trkpt lat="44.31533" lon="6.82183">
        <time>2023-04-10T10:45:20+00:00</time>
        <ele>2715.0</ele>
      </trkpt>
      <trkpt lat="44.31533" lon="6.82183">
        <time>2023-04-10T10:45:21+00:00</time>
        <ele>2715.0</ele>
      </trkpt>
      <trkpt lat="44.31533" lon="6.82183">
        <time>2023-04-10T10:45:22+00:00</time>
        <ele>2715.0</ele>
      </trkpt>
      <trkpt lat="44.31533" lon="6.82183">
        <time>2023-04-10T10:45:23+00:00</time>
        <ele>2715.0</ele>
      </trkpt>
      <trkpt lat="44.31533" lon="6.82183">
        <time>2023-04-10T10:45:24+00:00</time>
        <ele>2715.0</ele>
      </trkpt>
      <trkpt lat="44.31533" lon="6.82183">
        <time>2023-04-10T10:45:25+00:00</time>
        <ele>2715.0</ele>
      </trkpt>
      <trkpt lat="44.31533" lon="6.82183">
        <time>2023-04-10T10:45:26+00:00</time>
        <ele>2715.0</ele>
      </trkpt>
      <trkpt lat="44.31533" lon="6.82183">
        <time>2023-04-10T10:45:27+00:00</time>
        <ele>2715.0</ele>
      </trkpt>
      <trkpt lat="44.31533" lon="6.82183">
        <time>2023-04-10T10:45:28+00:00</time>
        <ele>2715.0</ele>
      </trkpt>
      <trkpt lat="44.31533" lon="6.82183">
        <time>2023-04-10T10:45:29+00:00</time>
        <ele>2715.0</ele>
      </trkpt>
      <trkpt lat="44.31533" lon="6.82183">
        <time>2023-04-10T10:45:30+00:00</time>
        <ele>2715.0</ele>
      </trkpt>
      <trkpt lat="44.31533" lon="6.82183">
        <time>2023-04-10T10:45:31+00:00</time>
        <ele>2715.0</ele>
      </trkpt>
      <trkpt lat="44.31533" lon="6.82183">
        <time>2023-04-10T10:45:32+00:00</time>
        <ele>2715.0</ele>
      </trkpt>
      <trkpt lat="44.31533" lon="6.82183">
        <time>2023-04-10T10:45:33+00:00</time>
        <ele>2715.0</ele>
      </trkpt>
      <trkpt lat="44.31533" lon="6.82183">
        <time>2023-04-10T10:45:34+00:00</time>
        <ele>2715.0</ele>
      </trkpt>
      <trkpt lat="44.31533" lon="6.82183">
        <time>2023-04-10T10:45:35+00:00</time>
        <ele>2715.0</ele>
      </trkpt>
      <trkpt lat="44.31533" lon="6.82183">
        <time>2023-04-10T10:45:36+00:00</time>
        <ele>2715.0</ele>
      </trkpt>
      <trkpt lat="44.31533" lon="6.82183">
        <time>2023-04-10T10:45:37+00:00</time>
        <ele>2715.0</ele>
      </trkpt>
      <trkpt lat="44.31533" lon="6.82183">
        <time>2023-04-10T10:45:38+00:00</time>
        <ele>2715.0</ele>
      </trkpt>
      <trkpt lat="44.31533" lon="6.82183">
        <time>2023-04-10T10:45:39+00:00</time>
        <ele>2715.0</ele>
      </trkpt>
      <trkpt lat="44.31533" lon="6.82183">
        <time>2023-04-10T10:45:40+00:00</time>
        <ele>2715.0</ele>
      </trkpt>
      <trkpt lat="44.31533" lon="6.82183">
        <time>2023-04-10T10:45:41+00:00</time>
        <ele>2715.0</ele>
      </trkpt>
      <trkpt lat="44.31533" lon="6.82183">
        <time>2023-04-10T10:45:42+00:00</time>
        <ele>2715.0</ele>
      </trkpt>
      <trkpt lat="44.31533" lon="6.82183">
        <time>2023-04-10T10:45:43+00:00</time>
        <ele>2715.0</ele>
      </trkpt>
      <trkpt lat="44.31533" lon="6.82183">
        <time>2023-04-10T10:45:44+00:00</time>
        <ele>2715.0</ele>
      </trkpt>
      <trkpt lat="44.31533" lon="6.82183">
        <time>2023-04-10T10:45:45+00:00</time>
        <ele>2715.0</ele>
      </trkpt>
      <trkpt lat="44.31533" lon="6.82183">
        <time>2023-04-10T10:45:46+00:00</time>
        <ele>2715.0</ele>
      </trkpt>
      <trkpt lat="44.31533" lon="6.82183">
        <time>2023-04-10T10:45:47+00:00</time>
        <ele>2715.0</ele>
      </trkpt>
      <trkpt lat="44.31533" lon="6.82183">
        <time>2023-04-10T10:45:48+00:00</time>
        <ele>2715.0</ele>
      </trkpt>
      <trkpt lat="44.31533" lon="6.82183">
        <time>2023-04-10T10:45:49+00:00</time>
        <ele>2715.0</ele>
      </trkpt>
      <trkpt lat="44.31533" lon="6.82183">
        <time>2023-04-10T10:45:50+00:00</time>
        <ele>2715.0</ele>
      </trkpt>
      <trkpt lat="44.31533" lon="6.82183">
        <time>2023-04-10T10:45:51+00:00</time>
        <ele>2715.0</ele>
      </trkpt>
      <trkpt lat="44.31533" lon="6.82183">
        <time>2023-04-10T10:45:52+00:00</time>
        <ele>2715.0</ele>
      </trkpt>
      <trkpt lat="44.31533" lon="6.82183">
        <time>2023-04-10T10:45:53+00:00</time>
        <ele>2715.0</ele>
      </trkpt>
      <trkpt lat="44.31533" lon="6.82183">
        <time>2023-04-10T10:45:54+00:00</time>
        <ele>2715.0</ele>
      </trkpt>
      <trkpt lat="44.31533" lon="6.82183">
        <time>2023-04-10T10:45:55+00:00</time>
        <ele>2715.0</ele>
      </trkpt>
      <trkpt lat="44.31533" lon="6.82183">
        <time>2023-04-10T10:45:56+00:00</time>
        <ele>2715.0</ele>
      </trkpt>
      <trkpt lat="44.31533" lon="6.82183">
        <time>2023-04-10T10:45:57+00:00</time>
        <ele>2715.0</ele>
      </trkpt>
      <trkpt lat="44.31533" lon="6.82183">
        <time>2023-04-10T10:45:58+00:00</time>
        <ele>2715.0</ele>
      </trkpt>
      <trkpt lat="44.31533" lon="6.82183">
        <time>2023-04-10T10:45:59+00:00</time>
        <ele>2715.0</ele>
      </trkpt>
      <trkpt lat="44.31533" lon="6.82183">
        <time>2023-04-10T10:46:00+00:00</time>
        <ele>2715.0</ele>
      </trkpt>
      <trkpt lat="44.31533" lon="6.82183">
        <time>2023-04-10T10:46:01+00:00</time>
        <ele>2715.0</ele>
      </trkpt>
      <trkpt lat="44.31533" lon="6.82183">
        <time>2023-04-10T10:46:02+00:00</time>
        <ele>2715.0</ele>
      </trkpt>
      <trkpt lat="44.31533" lon="6.82183">
        <time>2023-04-10T10:46:03+00:00</time>
        <ele>2715.0</ele>
      </trkpt>
      <trkpt lat="44.31533" lon="6.82183">
        <time>2023-04-10T10:46:04+00:00</time>
        <ele>2715.0</ele>
      </trkpt>
      <trkpt lat="44.31533" lon="6.82183">
        <time>2023-04-10T10:46:05+00:00</time>
        <ele>2715.0</ele>
      </trkpt>
      <trkpt lat="44.31533" lon="6.82183">
        <time>2023-04-10T10:46:06+00:00</time>
        <ele>2715.0</ele>
      </trkpt>
      <trkpt lat="44.31533" lon="6.82183">
        <time>2023-04-10T10:46:07+00:00</time>
        <ele>2715.0</ele>
      </trkpt>
      <trkpt lat="44.31533" lon="6.82183">
        <time>2023-04-10T10:46:08+00:00</time>
        <ele>2715.0</ele>
      </trkpt>
      <trkpt lat="44.31533" lon="6.82183">
        <time>2023-04-10T10:46:09+00:00</time>
        <ele>2715.0</ele>
      </trkpt>
      <trkpt lat="44.31533" lon="6.82183">
        <time>2023-04-10T10:46:10+00:00</time>
        <ele>2715.0</ele>
      </trkpt>
      <trkpt lat="44.31533" lon="6.82183">
        <time>2023-04-10T10:46:11+00:00</time>
        <ele>2715.0</ele>
      </trkpt>
      <trkpt lat="44.31533" lon="6.82183">
        <time>2023-04-10T10:46:12+00:00</time>
        <ele>2715.0</ele>
      </trkpt>
      <trkpt lat="44.31533" lon="6.82183">
        <time>2023-04-10T10:46:13+00:00</time>
        <ele>2715.0</ele>
      </trkpt>
      <trkpt lat="44.31533" lon="6.82183">
        <time>2023-04-10T10:46:14+00:00</time>
        <ele>2715.0</ele>
      </trkpt>
      <trkpt lat="44.31533" lon="6.82183">
        <time>2023-04-10T10:46:15+00:00</time>
        <ele>2715.0</ele>
      </trkpt>
      <trkpt lat="44.31533" lon="6.82183">
        <time>2023-04-10T10:46:16+00:00</time>
        <ele>2715.0</ele>
      </trkpt>
      <trkpt lat="44.31533" lon="6.82183">
        <time>2023-04-10T10:46:17+00:00</time>
        <ele>2715.0</ele>
      </trkpt>
      <trkpt lat="44.31533" lon="6.82183">
        <time>2023-04-10T10:46:18+00:00</time>
        <ele>2715.0</ele>
      </trkpt>
      <trkpt lat="44.31533" lon="6.82183">
        <time>2023-04-10T10:46:19+00:00</time>
        <ele>2715.0</ele>
      </trkpt>
      <trkpt lat="44.31533" lon="6.82183">
        <time>2023-04-10T10:46:20+00:00</time>
        <ele>2715.0</ele>
      </trkpt>
      <trkpt lat="44.31533" lon="6.82183">
        <time>2023-04-10T10:46:21+00:00</time>
        <ele>2715.0</ele>
      </trkpt>
      <trkpt lat="44.31533" lon="6.82183">
        <time>2023-04-10T10:46:22+00:00</time>
        <ele>2715.0</ele>
      </trkpt>
      <trkpt lat="44.31533" lon="6.82183">
        <time>2023-04-10T10:46:23+00:00</time>
        <ele>2715.0</ele>
      </trkpt>
      <trkpt lat="44.31533" lon="6.82183">
        <time>2023-04-10T10:46:24+00:00</time>
        <ele>2715.0</ele>
      </trkpt>
      <trkpt lat="44.31533" lon="6.82183">
        <time>2023-04-10T10:46:25+00:00</time>
        <ele>2715.0</ele>
      </trkpt>
      <trkpt lat="44.31533" lon="6.82183">
        <time>2023-04-10T10:46:26+00:00</time>
        <ele>2715.0</ele>
      </trkpt>
      <trkpt lat="44.31533" lon="6.82183">
        <time>2023-04-10T10:46:27+00:00</time>
        <ele>2715.0</ele>
      </trkpt>
      <trkpt lat="44.31533" lon="6.82183">
        <time>2023-04-10T10:46:28+00:00</time>
        <ele>2715.0</ele>
      </trkpt>
      <trkpt lat="44.31533" lon="6.82183">
        <time>2023-04-10T10:46:29+00:00</time>
        <ele>2715.0</ele>
      </trkpt>
      <trkpt lat="44.31533" lon="6.82183">
        <time>2023-04-10T10:46:30+00:00</time>
        <ele>2715.0</ele>
      </trkpt>
      <trkpt lat="44.31533" lon="6.82183">
        <time>2023-04-10T10:46:31+00:00</time>
        <ele>2715.0</ele>
      </trkpt>
      <trkpt lat="44.31533" lon="6.82183">
        <time>2023-04-10T10:46:32+00:00</time>
        <ele>2715.0</ele>
      </trkpt>
      <trkpt lat="44.31533" lon="6.82183">
        <time>2023-04-10T10:46:33+00:00</time>
        <ele>2715.0</ele>
      </trkpt>
      <trkpt lat="44.31533" lon="6.82183">
        <time>2023-04-10T10:46:34+00:00</time>
        <ele>2715.0</ele>
      </trkpt>
      <trkpt lat="44.31533" lon="6.82183">
        <time>2023-04-10T10:46:35+00:00</time>
        <ele>2715.0</ele>
      </trkpt>
      <trkpt lat="44.31533" lon="6.82183">
        <time>2023-04-10T10:46:36+00:00</time>
        <ele>2715.0</ele>
      </trkpt>
      <trkpt lat="44.31533" lon="6.82183">
        <time>2023-04-10T10:46:37+00:00</time>
        <ele>2715.0</ele>
      </trkpt>
      <trkpt lat="44.31533" lon="6.82183">
        <time>2023-04-10T10:46:38+00:00</time>
        <ele>2715.0</ele>
      </trkpt>
      <trkpt lat="44.31535" lon="6.8218">
        <time>2023-04-10T10:46:39+00:00</time>
        <ele>2715.0</ele>
      </trkpt>
      <trkpt lat="44.31535" lon="6.8218">
        <time>2023-04-10T10:46:40+00:00</time>
        <ele>2715.0</ele>
      </trkpt>
      <trkpt lat="44.31535" lon="6.8218">
        <time>2023-04-10T10:46:41+00:00</time>
        <ele>2715.0</ele>
      </trkpt>
      <trkpt lat="44.31535" lon="6.8218">
        <time>2023-04-10T10:46:42+00:00</time>
        <ele>2715.0</ele>
      </trkpt>
      <trkpt lat="44.31535" lon="6.8218">
        <time>2023-04-10T10:46:43+00:00</time>
        <ele>2715.0</ele>
      </trkpt>
      <trkpt lat="44.31535" lon="6.8218">
        <time>2023-04-10T10:46:44+00:00</time>
        <ele>2715.0</ele>
      </trkpt>
      <trkpt lat="44.31535" lon="6.8218">
        <time>2023-04-10T10:46:45+00:00</time>
        <ele>2715.0</ele>
      </trkpt>
      <trkpt lat="44.31535" lon="6.8218">
        <time>2023-04-10T10:46:46+00:00</time>
        <ele>2715.0</ele>
      </trkpt>
      <trkpt lat="44.31535" lon="6.8218">
        <time>2023-04-10T10:46:47+00:00</time>
        <ele>2715.0</ele>
      </trkpt>
      <trkpt lat="44.31535" lon="6.8218">
        <time>2023-04-10T10:46:48+00:00</time>
        <ele>2715.0</ele>
      </trkpt>
      <trkpt lat="44.31535" lon="6.8218">
        <time>2023-04-10T10:46:49+00:00</time>
        <ele>2715.0</ele>
      </trkpt>
      <trkpt lat="44.31535" lon="6.8218">
        <time>2023-04-10T10:46:50+00:00</time>
        <ele>2715.0</ele>
      </trkpt>
      <trkpt lat="44.31535" lon="6.8218">
        <time>2023-04-10T10:46:51+00:00</time>
        <ele>2715.0</ele>
      </trkpt>
      <trkpt lat="44.31535" lon="6.8218">
        <time>2023-04-10T10:46:52+00:00</time>
        <ele>2715.0</ele>
      </trkpt>
      <trkpt lat="44.31535" lon="6.8218">
        <time>2023-04-10T10:46:53+00:00</time>
        <ele>2715.0</ele>
      </trkpt>
      <trkpt lat="44.31535" lon="6.8218">
        <time>2023-04-10T10:46:54+00:00</time>
        <ele>2715.0</ele>
      </trkpt>
      <trkpt lat="44.31535" lon="6.8218">
        <time>2023-04-10T10:46:55+00:00</time>
        <ele>2715.0</ele>
      </trkpt>
      <trkpt lat="44.31535" lon="6.8218">
        <time>2023-04-10T10:46:56+00:00</time>
        <ele>2715.0</ele>
      </trkpt>
      <trkpt lat="44.31535" lon="6.8218">
        <time>2023-04-10T10:46:57+00:00</time>
        <ele>2715.0</ele>
      </trkpt>
      <trkpt lat="44.31535" lon="6.8218">
        <time>2023-04-10T10:46:58+00:00</time>
        <ele>2715.0</ele>
      </trkpt>
      <trkpt lat="44.31535" lon="6.8218">
        <time>2023-04-10T10:46:59+00:00</time>
        <ele>2715.0</ele>
      </trkpt>
      <trkpt lat="44.31535" lon="6.8218">
        <time>2023-04-10T10:47:00+00:00</time>
        <ele>2715.0</ele>
      </trkpt>
      <trkpt lat="44.31535" lon="6.8218">
        <time>2023-04-10T10:47:01+00:00</time>
        <ele>2715.0</ele>
      </trkpt>
      <trkpt lat="44.31535" lon="6.8218">
        <time>2023-04-10T10:47:02+00:00</time>
        <ele>2715.0</ele>
      </trkpt>
      <trkpt lat="44.31535" lon="6.8218">
        <time>2023-04-10T10:47:03+00:00</time>
        <ele>2715.0</ele>
      </trkpt>
      <trkpt lat="44.31535" lon="6.8218">
        <time>2023-04-10T10:47:04+00:00</time>
        <ele>2715.0</ele>
      </trkpt>
      <trkpt lat="44.31535" lon="6.8218">
        <time>2023-04-10T10:47:05+00:00</time>
        <ele>2715.0</ele>
      </trkpt>
      <trkpt lat="44.31535" lon="6.8218">
        <time>2023-04-10T10:47:06+00:00</time>
        <ele>2715.0</ele>
      </trkpt>
      <trkpt lat="44.31535" lon="6.8218">
        <time>2023-04-10T10:47:07+00:00</time>
        <ele>2715.0</ele>
      </trkpt>
      <trkpt lat="44.31535" lon="6.8218">
        <time>2023-04-10T10:47:08+00:00</time>
        <ele>2715.0</ele>
      </trkpt>
      <trkpt lat="44.31535" lon="6.8218">
        <time>2023-04-10T10:47:09+00:00</time>
        <ele>2715.0</ele>
      </trkpt>
      <trkpt lat="44.31535" lon="6.8218">
        <time>2023-04-10T10:47:10+00:00</time>
        <ele>2715.0</ele>
      </trkpt>
      <trkpt lat="44.31535" lon="6.8218">
        <time>2023-04-10T10:47:11+00:00</time>
        <ele>2715.0</ele>
      </trkpt>
      <trkpt lat="44.31535" lon="6.8218">
        <time>2023-04-10T10:47:12+00:00</time>
        <ele>2715.0</ele>
      </trkpt>
      <trkpt lat="44.31535" lon="6.8218">
        <time>2023-04-10T10:47:13+00:00</time>
        <ele>2715.0</ele>
      </trkpt>
      <trkpt lat="44.31535" lon="6.8218">
        <time>2023-04-10T10:47:14+00:00</time>
        <ele>2715.0</ele>
      </trkpt>
      <trkpt lat="44.31535" lon="6.8218">
        <time>2023-04-10T10:47:15+00:00</time>
        <ele>2715.0</ele>
      </trkpt>
      <trkpt lat="44.31535" lon="6.8218">
        <time>2023-04-10T10:47:16+00:00</time>
        <ele>2715.0</ele>
      </trkpt>
      <trkpt lat="44.31535" lon="6.8218">
        <time>2023-04-10T10:47:17+00:00</time>
        <ele>2715.0</ele>
      </trkpt>
      <trkpt lat="44.31535" lon="6.8218">
        <time>2023-04-10T10:47:18+00:00</time>
        <ele>2715.0</ele>
      </trkpt>
      <trkpt lat="44.31535" lon="6.8218">
        <time>2023-04-10T10:47:19+00:00</time>
        <ele>2715.0</ele>
      </trkpt>
      <trkpt lat="44.31535" lon="6.8218">
        <time>2023-04-10T10:47:20+00:00</time>
        <ele>2715.0</ele>
      </trkpt>
      <trkpt lat="44.31535" lon="6.8218">
        <time>2023-04-10T10:47:21+00:00</time>
        <ele>2715.0</ele>
      </trkpt>
      <trkpt lat="44.31535" lon="6.8218">
        <time>2023-04-10T10:47:22+00:00</time>
        <ele>2715.0</ele>
      </trkpt>
      <trkpt lat="44.31535" lon="6.8218">
        <time>2023-04-10T10:47:23+00:00</time>
        <ele>2715.0</ele>
      </trkpt>
      <trkpt lat="44.31535" lon="6.8218">
        <time>2023-04-10T10:47:24+00:00</time>
        <ele>2715.0</ele>
      </trkpt>
      <trkpt lat="44.31535" lon="6.8218">
        <time>2023-04-10T10:47:25+00:00</time>
        <ele>2715.0</ele>
      </trkpt>
      <trkpt lat="44.31535" lon="6.8218">
        <time>2023-04-10T10:47:26+00:00</time>
        <ele>2715.0</ele>
      </trkpt>
      <trkpt lat="44.31535" lon="6.8218">
        <time>2023-04-10T10:47:27+00:00</time>
        <ele>2715.0</ele>
      </trkpt>
      <trkpt lat="44.31535" lon="6.8218">
        <time>2023-04-10T10:47:28+00:00</time>
        <ele>2715.0</ele>
      </trkpt>
      <trkpt lat="44.31535" lon="6.8218">
        <time>2023-04-10T10:47:29+00:00</time>
        <ele>2715.0</ele>
      </trkpt>
      <trkpt lat="44.31535" lon="6.8218">
        <time>2023-04-10T10:47:30+00:00</time>
        <ele>2715.0</ele>
      </trkpt>
      <trkpt lat="44.31535" lon="6.8218">
        <time>2023-04-10T10:47:31+00:00</time>
        <ele>2715.0</ele>
      </trkpt>
      <trkpt lat="44.31535" lon="6.8218">
        <time>2023-04-10T10:47:32+00:00</time>
        <ele>2715.0</ele>
      </trkpt>
      <trkpt lat="44.31535" lon="6.8218">
        <time>2023-04-10T10:47:33+00:00</time>
        <ele>2715.0</ele>
      </trkpt>
      <trkpt lat="44.31535" lon="6.8218">
        <time>2023-04-10T10:47:34+00:00</time>
        <ele>2715.0</ele>
      </trkpt>
      <trkpt lat="44.31535" lon="6.8218">
        <time>2023-04-10T10:47:35+00:00</time>
        <ele>2715.0</ele>
      </trkpt>
      <trkpt lat="44.31535" lon="6.8218">
        <time>2023-04-10T10:47:36+00:00</time>
        <ele>2715.0</ele>
      </trkpt>
      <trkpt lat="44.31535" lon="6.8218">
        <time>2023-04-10T10:47:37+00:00</time>
        <ele>2715.0</ele>
      </trkpt>
      <trkpt lat="44.31535" lon="6.8218">
        <time>2023-04-10T10:47:38+00:00</time>
        <ele>2715.0</ele>
      </trkpt>
      <trkpt lat="44.31535" lon="6.8218">
        <time>2023-04-10T10:47:39+00:00</time>
        <ele>2715.0</ele>
      </trkpt>
      <trkpt lat="44.31535" lon="6.8218">
        <time>2023-04-10T10:47:40+00:00</time>
        <ele>2715.0</ele>
      </trkpt>
      <trkpt lat="44.31535" lon="6.8218">
        <time>2023-04-10T10:47:41+00:00</time>
        <ele>2715.0</ele>
      </trkpt>
      <trkpt lat="44.31535" lon="6.8218">
        <time>2023-04-10T10:47:42+00:00</time>
        <ele>2715.0</ele>
      </trkpt>
      <trkpt lat="44.31535" lon="6.8218">
        <time>2023-04-10T10:47:43+00:00</time>
        <ele>2715.0</ele>
      </trkpt>
      <trkpt lat="44.31535" lon="6.8218">
        <time>2023-04-10T10:47:44+00:00</time>
        <ele>2715.0</ele>
      </trkpt>
      <trkpt lat="44.31535" lon="6.8218">
        <time>2023-04-10T10:47:45+00:00</time>
        <ele>2715.0</ele>
      </trkpt>
      <trkpt lat="44.31535" lon="6.8218">
        <time>2023-04-10T10:47:46+00:00</time>
        <ele>2715.0</ele>
      </trkpt>
      <trkpt lat="44.31535" lon="6.8218">
        <time>2023-04-10T10:47:47+00:00</time>
        <ele>2715.0</ele>
      </trkpt>
      <trkpt lat="44.31535" lon="6.8218">
        <time>2023-04-10T10:47:48+00:00</time>
        <ele>2715.0</ele>
      </trkpt>
      <trkpt lat="44.31535" lon="6.8218">
        <time>2023-04-10T10:47:49+00:00</time>
        <ele>2715.0</ele>
      </trkpt>
      <trkpt lat="44.31535" lon="6.8218">
        <time>2023-04-10T10:47:50+00:00</time>
        <ele>2715.0</ele>
      </trkpt>
      <trkpt lat="44.31535" lon="6.8218">
        <time>2023-04-10T10:47:51+00:00</time>
        <ele>2715.0</ele>
      </trkpt>
      <trkpt lat="44.31535" lon="6.8218">
        <time>2023-04-10T10:47:52+00:00</time>
        <ele>2715.0</ele>
      </trkpt>
      <trkpt lat="44.31535" lon="6.8218">
        <time>2023-04-10T10:47:53+00:00</time>
        <ele>2715.0</ele>
      </trkpt>
      <trkpt lat="44.31535" lon="6.8218">
        <time>2023-04-10T10:47:54+00:00</time>
        <ele>2715.0</ele>
      </trkpt>
      <trkpt lat="44.31535" lon="6.8218">
        <time>2023-04-10T10:47:55+00:00</time>
        <ele>2715.0</ele>
      </trkpt>
      <trkpt lat="44.31535" lon="6.8218">
        <time>2023-04-10T10:47:56+00:00</time>
        <ele>2715.0</ele>
      </trkpt>
      <trkpt lat="44.31535" lon="6.8218">
        <time>2023-04-10T10:47:57+00:00</time>
        <ele>2715.0</ele>
      </trkpt>
      <trkpt lat="44.31535" lon="6.8218">
        <time>2023-04-10T10:47:58+00:00</time>
        <ele>2715.0</ele>
      </trkpt>
      <trkpt lat="44.31535" lon="6.8218">
        <time>2023-04-10T10:47:59+00:00</time>
        <ele>2715.0</ele>
      </trkpt>
      <trkpt lat="44.31535" lon="6.8218">
        <time>2023-04-10T10:48:00+00:00</time>
        <ele>2715.0</ele>
      </trkpt>
      <trkpt lat="44.31535" lon="6.8218">
        <time>2023-04-10T10:48:01+00:00</time>
        <ele>2715.0</ele>
      </trkpt>
      <trkpt lat="44.31535" lon="6.8218">
        <time>2023-04-10T10:48:02+00:00</time>
        <ele>2715.0</ele>
      </trkpt>
      <trkpt lat="44.31535" lon="6.8218">
        <time>2023-04-10T10:48:03+00:00</time>
        <ele>2715.0</ele>
      </trkpt>
      <trkpt lat="44.31535" lon="6.8218">
        <time>2023-04-10T10:48:04+00:00</time>
        <ele>2715.0</ele>
      </trkpt>
      <trkpt lat="44.31535" lon="6.8218">
        <time>2023-04-10T10:48:05+00:00</time>
        <ele>2715.0</ele>
      </trkpt>
      <trkpt lat="44.31535" lon="6.8218">
        <time>2023-04-10T10:48:06+00:00</time>
        <ele>2715.0</ele>
      </trkpt>
      <trkpt lat="44.31535" lon="6.8218">
        <time>2023-04-10T10:48:07+00:00</time>
        <ele>2715.0</ele>
      </trkpt>
      <trkpt lat="44.31535" lon="6.8218">
        <time>2023-04-10T10:48:08+00:00</time>
        <ele>2715.0</ele>
      </trkpt>
      <trkpt lat="44.31535" lon="6.8218">
        <time>2023-04-10T10:48:09+00:00</time>
        <ele>2715.0</ele>
      </trkpt>
      <trkpt lat="44.31535" lon="6.8218">
        <time>2023-04-10T10:48:10+00:00</time>
        <ele>2715.0</ele>
      </trkpt>
      <trkpt lat="44.31535" lon="6.8218">
        <time>2023-04-10T10:48:11+00:00</time>
        <ele>2715.0</ele>
      </trkpt>
      <trkpt lat="44.31535" lon="6.8218">
        <time>2023-04-10T10:48:12+00:00</time>
        <ele>2715.0</ele>
      </trkpt>
      <trkpt lat="44.31535" lon="6.8218">
        <time>2023-04-10T10:48:13+00:00</time>
        <ele>2715.0</ele>
      </trkpt>
      <trkpt lat="44.31535" lon="6.8218">
        <time>2023-04-10T10:48:14+00:00</time>
        <ele>2715.0</ele>
      </trkpt>
      <trkpt lat="44.31535" lon="6.8218">
        <time>2023-04-10T10:48:15+00:00</time>
        <ele>2715.0</ele>
      </trkpt>
      <trkpt lat="44.31535" lon="6.8218">
        <time>2023-04-10T10:48:16+00:00</time>
        <ele>2715.0</ele>
      </trkpt>
      <trkpt lat="44.31535" lon="6.8218">
        <time>2023-04-10T10:48:17+00:00</time>
        <ele>2715.0</ele>
      </trkpt>
      <trkpt lat="44.31535" lon="6.8218">
        <time>2023-04-10T10:48:18+00:00</time>
        <ele>2715.0</ele>
      </trkpt>
      <trkpt lat="44.31535" lon="6.8218">
        <time>2023-04-10T10:48:19+00:00</time>
        <ele>2715.0</ele>
      </trkpt>
      <trkpt lat="44.31535" lon="6.8218">
        <time>2023-04-10T10:48:20+00:00</time>
        <ele>2715.0</ele>
      </trkpt>
      <trkpt lat="44.31535" lon="6.8218">
        <time>2023-04-10T10:48:21+00:00</time>
        <ele>2715.0</ele>
      </trkpt>
      <trkpt lat="44.31535" lon="6.8218">
        <time>2023-04-10T10:48:22+00:00</time>
        <ele>2715.0</ele>
      </trkpt>
      <trkpt lat="44.31535" lon="6.8218">
        <time>2023-04-10T10:48:23+00:00</time>
        <ele>2715.0</ele>
      </trkpt>
      <trkpt lat="44.31535" lon="6.8218">
        <time>2023-04-10T10:48:24+00:00</time>
        <ele>2715.0</ele>
      </trkpt>
      <trkpt lat="44.31535" lon="6.8218">
        <time>2023-04-10T10:48:25+00:00</time>
        <ele>2715.0</ele>
      </trkpt>
      <trkpt lat="44.31535" lon="6.8218">
        <time>2023-04-10T10:48:26+00:00</time>
        <ele>2715.0</ele>
      </trkpt>
      <trkpt lat="44.31535" lon="6.8218">
        <time>2023-04-10T10:48:27+00:00</time>
        <ele>2715.0</ele>
      </trkpt>
      <trkpt lat="44.31535" lon="6.8218">
        <time>2023-04-10T10:48:28+00:00</time>
        <ele>2715.0</ele>
      </trkpt>
      <trkpt lat="44.31535" lon="6.8218">
        <time>2023-04-10T10:48:29+00:00</time>
        <ele>2715.0</ele>
      </trkpt>
      <trkpt lat="44.31535" lon="6.8218">
        <time>2023-04-10T10:48:30+00:00</time>
        <ele>2715.0</ele>
      </trkpt>
      <trkpt lat="44.31535" lon="6.8218">
        <time>2023-04-10T10:48:31+00:00</time>
        <ele>2715.0</ele>
      </trkpt>
      <trkpt lat="44.31535" lon="6.8218">
        <time>2023-04-10T10:48:32+00:00</time>
        <ele>2715.0</ele>
      </trkpt>
      <trkpt lat="44.31535" lon="6.8218">
        <time>2023-04-10T10:48:33+00:00</time>
        <ele>2715.0</ele>
      </trkpt>
      <trkpt lat="44.31535" lon="6.8218">
        <time>2023-04-10T10:48:34+00:00</time>
        <ele>2715.0</ele>
      </trkpt>
      <trkpt lat="44.31535" lon="6.8218">
        <time>2023-04-10T10:48:35+00:00</time>
        <ele>2715.0</ele>
      </trkpt>
      <trkpt lat="44.31535" lon="6.8218">
        <time>2023-04-10T10:48:36+00:00</time>
        <ele>2715.0</ele>
      </trkpt>
      <trkpt lat="44.31535" lon="6.8218">
        <time>2023-04-10T10:48:37+00:00</time>
        <ele>2715.0</ele>
      </trkpt>
      <trkpt lat="44.31535" lon="6.8218">
        <time>2023-04-10T10:48:38+00:00</time>
        <ele>2715.0</ele>
      </trkpt>
      <trkpt lat="44.31535" lon="6.8218">
        <time>2023-04-10T10:48:39+00:00</time>
        <ele>2715.0</ele>
      </trkpt>
      <trkpt lat="44.31535" lon="6.8218">
        <time>2023-04-10T10:48:40+00:00</time>
        <ele>2715.0</ele>
      </trkpt>
      <trkpt lat="44.31535" lon="6.8218">
        <time>2023-04-10T10:48:41+00:00</time>
        <ele>2715.0</ele>
      </trkpt>
      <trkpt lat="44.31535" lon="6.8218">
        <time>2023-04-10T10:48:42+00:00</time>
        <ele>2715.0</ele>
      </trkpt>
      <trkpt lat="44.31535" lon="6.8218">
        <time>2023-04-10T10:48:43+00:00</time>
        <ele>2715.0</ele>
      </trkpt>
      <trkpt lat="44.31535" lon="6.8218">
        <time>2023-04-10T10:48:44+00:00</time>
        <ele>2715.0</ele>
      </trkpt>
      <trkpt lat="44.31535" lon="6.8218">
        <time>2023-04-10T10:48:45+00:00</time>
        <ele>2715.0</ele>
      </trkpt>
      <trkpt lat="44.31535" lon="6.8218">
        <time>2023-04-10T10:48:46+00:00</time>
        <ele>2715.0</ele>
      </trkpt>
      <trkpt lat="44.31535" lon="6.8218">
        <time>2023-04-10T10:48:47+00:00</time>
        <ele>2715.0</ele>
      </trkpt>
      <trkpt lat="44.31535" lon="6.8218">
        <time>2023-04-10T10:48:48+00:00</time>
        <ele>2715.0</ele>
      </trkpt>
      <trkpt lat="44.31535" lon="6.8218">
        <time>2023-04-10T10:48:49+00:00</time>
        <ele>2715.0</ele>
      </trkpt>
      <trkpt lat="44.31535" lon="6.8218">
        <time>2023-04-10T10:48:50+00:00</time>
        <ele>2715.0</ele>
      </trkpt>
      <trkpt lat="44.31535" lon="6.8218">
        <time>2023-04-10T10:48:51+00:00</time>
        <ele>2715.0</ele>
      </trkpt>
      <trkpt lat="44.31535" lon="6.8218">
        <time>2023-04-10T10:48:52+00:00</time>
        <ele>2715.0</ele>
      </trkpt>
      <trkpt lat="44.31535" lon="6.8218">
        <time>2023-04-10T10:48:53+00:00</time>
        <ele>2715.0</ele>
      </trkpt>
      <trkpt lat="44.31535" lon="6.8218">
        <time>2023-04-10T10:48:54+00:00</time>
        <ele>2715.0</ele>
      </trkpt>
      <trkpt lat="44.31535" lon="6.8218">
        <time>2023-04-10T10:48:55+00:00</time>
        <ele>2715.0</ele>
      </trkpt>
      <trkpt lat="44.31535" lon="6.8218">
        <time>2023-04-10T10:48:56+00:00</time>
        <ele>2715.0</ele>
      </trkpt>
      <trkpt lat="44.31535" lon="6.8218">
        <time>2023-04-10T10:48:57+00:00</time>
        <ele>2715.0</ele>
      </trkpt>
      <trkpt lat="44.31535" lon="6.8218">
        <time>2023-04-10T10:48:58+00:00</time>
        <ele>2715.0</ele>
      </trkpt>
      <trkpt lat="44.31535" lon="6.8218">
        <time>2023-04-10T10:48:59+00:00</time>
        <ele>2715.0</ele>
      </trkpt>
      <trkpt lat="44.31535" lon="6.8218">
        <time>2023-04-10T10:49:00+00:00</time>
        <ele>2715.0</ele>
      </trkpt>
      <trkpt lat="44.31535" lon="6.8218">
        <time>2023-04-10T10:49:01+00:00</time>
        <ele>2715.0</ele>
      </trkpt>
      <trkpt lat="44.31535" lon="6.8218">
        <time>2023-04-10T10:49:02+00:00</time>
        <ele>2715.0</ele>
      </trkpt>
      <trkpt lat="44.31535" lon="6.8218">
        <time>2023-04-10T10:49:03+00:00</time>
        <ele>2715.0</ele>
      </trkpt>
      <trkpt lat="44.31535" lon="6.8218">
        <time>2023-04-10T10:49:04+00:00</time>
        <ele>2715.0</ele>
      </trkpt>
      <trkpt lat="44.31535" lon="6.8218">
        <time>2023-04-10T10:49:05+00:00</time>
        <ele>2715.0</ele>
      </trkpt>
      <trkpt lat="44.31535" lon="6.8218">
        <time>2023-04-10T10:49:06+00:00</time>
        <ele>2715.0</ele>
      </trkpt>
      <trkpt lat="44.31535" lon="6.8218">
        <time>2023-04-10T10:49:07+00:00</time>
        <ele>2715.0</ele>
      </trkpt>
      <trkpt lat="44.31535" lon="6.8218">
        <time>2023-04-10T10:49:08+00:00</time>
        <ele>2715.0</ele>
      </trkpt>
      <trkpt lat="44.31535" lon="6.8218">
        <time>2023-04-10T10:49:09+00:00</time>
        <ele>2715.0</ele>
      </trkpt>
      <trkpt lat="44.31535" lon="6.8218">
        <time>2023-04-10T10:49:10+00:00</time>
        <ele>2715.0</ele>
      </trkpt>
      <trkpt lat="44.31535" lon="6.8218">
        <time>2023-04-10T10:49:11+00:00</time>
        <ele>2715.0</ele>
      </trkpt>
      <trkpt lat="44.31535" lon="6.8218">
        <time>2023-04-10T10:49:12+00:00</time>
        <ele>2715.0</ele>
      </trkpt>
      <trkpt lat="44.31535" lon="6.8218">
        <time>2023-04-10T10:49:13+00:00</time>
        <ele>2715.0</ele>
      </trkpt>
      <trkpt lat="44.31535" lon="6.8218">
        <time>2023-04-10T10:49:14+00:00</time>
        <ele>2715.0</ele>
      </trkpt>
      <trkpt lat="44.31535" lon="6.8218">
        <time>2023-04-10T10:49:15+00:00</time>
        <ele>2715.0</ele>
      </trkpt>
      <trkpt lat="44.31535" lon="6.8218">
        <time>2023-04-10T10:49:16+00:00</time>
        <ele>2715.0</ele>
      </trkpt>
      <trkpt lat="44.31535" lon="6.8218">
        <time>2023-04-10T10:49:17+00:00</time>
        <ele>2715.0</ele>
      </trkpt>
      <trkpt lat="44.31535" lon="6.8218">
        <time>2023-04-10T10:49:18+00:00</time>
        <ele>2715.0</ele>
      </trkpt>
      <trkpt lat="44.31535" lon="6.8218">
        <time>2023-04-10T10:49:19+00:00</time>
        <ele>2715.0</ele>
      </trkpt>
      <trkpt lat="44.31535" lon="6.8218">
        <time>2023-04-10T10:49:20+00:00</time>
        <ele>2715.0</ele>
      </trkpt>
      <trkpt lat="44.31535" lon="6.8218">
        <time>2023-04-10T10:49:21+00:00</time>
        <ele>2715.0</ele>
      </trkpt>
      <trkpt lat="44.31535" lon="6.8218">
        <time>2023-04-10T10:49:22+00:00</time>
        <ele>2715.0</ele>
      </trkpt>
      <trkpt lat="44.31535" lon="6.8218">
        <time>2023-04-10T10:49:23+00:00</time>
        <ele>2715.0</ele>
      </trkpt>
      <trkpt lat="44.31535" lon="6.8218">
        <time>2023-04-10T10:49:24+00:00</time>
        <ele>2715.0</ele>
      </trkpt>
      <trkpt lat="44.31535" lon="6.8218">
        <time>2023-04-10T10:49:25+00:00</time>
        <ele>2715.0</ele>
      </trkpt>
      <trkpt lat="44.31535" lon="6.8218">
        <time>2023-04-10T10:49:26+00:00</time>
        <ele>2715.0</ele>
      </trkpt>
      <trkpt lat="44.31535" lon="6.8218">
        <time>2023-04-10T10:49:27+00:00</time>
        <ele>2715.0</ele>
      </trkpt>
      <trkpt lat="44.31535" lon="6.8218">
        <time>2023-04-10T10:49:28+00:00</time>
        <ele>2715.0</ele>
      </trkpt>
      <trkpt lat="44.31535" lon="6.8218">
        <time>2023-04-10T10:49:29+00:00</time>
        <ele>2715.0</ele>
      </trkpt>
      <trkpt lat="44.31535" lon="6.8218">
        <time>2023-04-10T10:49:30+00:00</time>
        <ele>2715.0</ele>
      </trkpt>
      <trkpt lat="44.31535" lon="6.8218">
        <time>2023-04-10T10:49:31+00:00</time>
        <ele>2715.0</ele>
      </trkpt>
      <trkpt lat="44.31535" lon="6.8218">
        <time>2023-04-10T10:49:32+00:00</time>
        <ele>2715.0</ele>
      </trkpt>
      <trkpt lat="44.31535" lon="6.8218">
        <time>2023-04-10T10:49:33+00:00</time>
        <ele>2715.0</ele>
      </trkpt>
      <trkpt lat="44.31535" lon="6.8218">
        <time>2023-04-10T10:49:34+00:00</time>
        <ele>2715.0</ele>
      </trkpt>
      <trkpt lat="44.31535" lon="6.8218">
        <time>2023-04-10T10:49:35+00:00</time>
        <ele>2715.0</ele>
      </trkpt>
      <trkpt lat="44.31535" lon="6.8218">
        <time>2023-04-10T10:49:36+00:00</time>
        <ele>2715.0</ele>
      </trkpt>
      <trkpt lat="44.31535" lon="6.8218">
        <time>2023-04-10T10:49:37+00:00</time>
        <ele>2715.0</ele>
      </trkpt>
      <trkpt lat="44.31535" lon="6.8218">
        <time>2023-04-10T10:49:38+00:00</time>
        <ele>2715.0</ele>
      </trkpt>
      <trkpt lat="44.31535" lon="6.8218">
        <time>2023-04-10T10:49:39+00:00</time>
        <ele>2715.0</ele>
      </trkpt>
      <trkpt lat="44.31535" lon="6.8218">
        <time>2023-04-10T10:49:40+00:00</time>
        <ele>2715.0</ele>
      </trkpt>
      <trkpt lat="44.31535" lon="6.8218">
        <time>2023-04-10T10:49:41+00:00</time>
        <ele>2715.0</ele>
      </trkpt>
      <trkpt lat="44.31535" lon="6.8218">
        <time>2023-04-10T10:49:42+00:00</time>
        <ele>2715.0</ele>
      </trkpt>
      <trkpt lat="44.31535" lon="6.8218">
        <time>2023-04-10T10:49:43+00:00</time>
        <ele>2715.0</ele>
      </trkpt>
      <trkpt lat="44.31535" lon="6.8218">
        <time>2023-04-10T10:49:44+00:00</time>
        <ele>2715.0</ele>
      </trkpt>
      <trkpt lat="44.31535" lon="6.8218">
        <time>2023-04-10T10:49:45+00:00</time>
        <ele>2715.0</ele>
      </trkpt>
      <trkpt lat="44.31535" lon="6.8218">
        <time>2023-04-10T10:49:46+00:00</time>
        <ele>2715.0</ele>
      </trkpt>
      <trkpt lat="44.31535" lon="6.8218">
        <time>2023-04-10T10:49:47+00:00</time>
        <ele>2715.0</ele>
      </trkpt>
      <trkpt lat="44.31535" lon="6.8218">
        <time>2023-04-10T10:49:48+00:00</time>
        <ele>2715.0</ele>
      </trkpt>
      <trkpt lat="44.31535" lon="6.8218">
        <time>2023-04-10T10:49:49+00:00</time>
        <ele>2715.0</ele>
      </trkpt>
      <trkpt lat="44.31535" lon="6.8218">
        <time>2023-04-10T10:49:50+00:00</time>
        <ele>2715.0</ele>
      </trkpt>
      <trkpt lat="44.31535" lon="6.8218">
        <time>2023-04-10T10:49:51+00:00</time>
        <ele>2715.0</ele>
      </trkpt>
      <trkpt lat="44.31535" lon="6.8218">
        <time>2023-04-10T10:49:52+00:00</time>
        <ele>2715.0</ele>
      </trkpt>
      <trkpt lat="44.31535" lon="6.8218">
        <time>2023-04-10T10:49:53+00:00</time>
        <ele>2715.0</ele>
      </trkpt>
      <trkpt lat="44.31535" lon="6.8218">
        <time>2023-04-10T10:49:54+00:00</time>
        <ele>2715.0</ele>
      </trkpt>
      <trkpt lat="44.31535" lon="6.8218">
        <time>2023-04-10T10:49:55+00:00</time>
        <ele>2715.0</ele>
      </trkpt>
      <trkpt lat="44.31535" lon="6.8218">
        <time>2023-04-10T10:49:56+00:00</time>
        <ele>2715.0</ele>
      </trkpt>
      <trkpt lat="44.31535" lon="6.8218">
        <time>2023-04-10T10:49:57+00:00</time>
        <ele>2715.0</ele>
      </trkpt>
      <trkpt lat="44.31535" lon="6.8218">
        <time>2023-04-10T10:49:58+00:00</time>
        <ele>2715.0</ele>
      </trkpt>
      <trkpt lat="44.31535" lon="6.8218">
        <time>2023-04-10T10:49:59+00:00</time>
        <ele>2715.0</ele>
      </trkpt>
      <trkpt lat="44.31535" lon="6.8218">
        <time>2023-04-10T10:50:02+00:00</time>
        <ele>2715.0</ele>
      </trkpt>
      <trkpt lat="44.31535" lon="6.8218">
        <time>2023-04-10T10:50:03+00:00</time>
        <ele>2715.0</ele>
      </trkpt>
      <trkpt lat="44.31535" lon="6.8218">
        <time>2023-04-10T10:50:04+00:00</time>
        <ele>2715.0</ele>
      </trkpt>
      <trkpt lat="44.31535" lon="6.8218">
        <time>2023-04-10T10:50:05+00:00</time>
        <ele>2715.0</ele>
      </trkpt>
      <trkpt lat="44.31535" lon="6.8218">
        <time>2023-04-10T10:50:06+00:00</time>
        <ele>2715.0</ele>
      </trkpt>
      <trkpt lat="44.31535" lon="6.8218">
        <time>2023-04-10T10:50:07+00:00</time>
        <ele>2715.0</ele>
      </trkpt>
      <trkpt lat="44.31535" lon="6.8218">
        <time>2023-04-10T10:50:08+00:00</time>
        <ele>2715.0</ele>
      </trkpt>
      <trkpt lat="44.31535" lon="6.8218">
        <time>2023-04-10T10:50:09+00:00</time>
        <ele>2715.0</ele>
      </trkpt>
      <trkpt lat="44.31535" lon="6.8218">
        <time>2023-04-10T10:50:10+00:00</time>
        <ele>2715.0</ele>
      </trkpt>
      <trkpt lat="44.31535" lon="6.8218">
        <time>2023-04-10T10:50:11+00:00</time>
        <ele>2715.0</ele>
      </trkpt>
      <trkpt lat="44.31535" lon="6.8218">
        <time>2023-04-10T10:50:12+00:00</time>
        <ele>2715.0</ele>
      </trkpt>
      <trkpt lat="44.31535" lon="6.8218">
        <time>2023-04-10T10:50:13+00:00</time>
        <ele>2715.0</ele>
      </trkpt>
      <trkpt lat="44.31535" lon="6.8218">
        <time>2023-04-10T10:50:14+00:00</time>
        <ele>2715.0</ele>
      </trkpt>
      <trkpt lat="44.31535" lon="6.8218">
        <time>2023-04-10T10:50:15+00:00</time>
        <ele>2715.0</ele>
      </trkpt>
      <trkpt lat="44.31535" lon="6.8218">
        <time>2023-04-10T10:50:16+00:00</time>
        <ele>2715.0</ele>
      </trkpt>
      <trkpt lat="44.31535" lon="6.8218">
        <time>2023-04-10T10:50:17+00:00</time>
        <ele>2715.0</ele>
      </trkpt>
      <trkpt lat="44.31535" lon="6.8218">
        <time>2023-04-10T10:50:18+00:00</time>
        <ele>2715.0</ele>
      </trkpt>
      <trkpt lat="44.31535" lon="6.8218">
        <time>2023-04-10T10:50:19+00:00</time>
        <ele>2715.0</ele>
      </trkpt>
      <trkpt lat="44.31535" lon="6.8218">
        <time>2023-04-10T10:50:20+00:00</time>
        <ele>2715.0</ele>
      </trkpt>
      <trkpt lat="44.31535" lon="6.8218">
        <time>2023-04-10T10:50:21+00:00</time>
        <ele>2715.0</ele>
      </trkpt>
      <trkpt lat="44.31535" lon="6.8218">
        <time>2023-04-10T10:50:22+00:00</time>
        <ele>2715.0</ele>
      </trkpt>
      <trkpt lat="44.31535" lon="6.8218">
        <time>2023-04-10T10:50:23+00:00</time>
        <ele>2715.0</ele>
      </trkpt>
      <trkpt lat="44.31535" lon="6.8218">
        <time>2023-04-10T10:50:24+00:00</time>
        <ele>2715.0</ele>
      </trkpt>
      <trkpt lat="44.31535" lon="6.8218">
        <time>2023-04-10T10:50:25+00:00</time>
        <ele>2715.0</ele>
      </trkpt>
      <trkpt lat="44.31535" lon="6.8218">
        <time>2023-04-10T10:50:26+00:00</time>
        <ele>2715.0</ele>
      </trkpt>
      <trkpt lat="44.31535" lon="6.8218">
        <time>2023-04-10T10:50:27+00:00</time>
        <ele>2715.0</ele>
      </trkpt>
      <trkpt lat="44.31535" lon="6.8218">
        <time>2023-04-10T10:50:28+00:00</time>
        <ele>2715.0</ele>
      </trkpt>
      <trkpt lat="44.31535" lon="6.8218">
        <time>2023-04-10T10:50:29+00:00</time>
        <ele>2715.0</ele>
      </trkpt>
      <trkpt lat="44.31535" lon="6.8218">
        <time>2023-04-10T10:50:30+00:00</time>
        <ele>2715.0</ele>
      </trkpt>
      <trkpt lat="44.31535" lon="6.8218">
        <time>2023-04-10T10:50:31+00:00</time>
        <ele>2715.0</ele>
      </trkpt>
      <trkpt lat="44.31535" lon="6.8218">
        <time>2023-04-10T10:50:32+00:00</time>
        <ele>2715.0</ele>
      </trkpt>
      <trkpt lat="44.31535" lon="6.8218">
        <time>2023-04-10T10:50:33+00:00</time>
        <ele>2715.0</ele>
      </trkpt>
      <trkpt lat="44.31535" lon="6.8218">
        <time>2023-04-10T10:50:34+00:00</time>
        <ele>2715.0</ele>
      </trkpt>
      <trkpt lat="44.31535" lon="6.8218">
        <time>2023-04-10T10:50:35+00:00</time>
        <ele>2715.0</ele>
      </trkpt>
      <trkpt lat="44.31535" lon="6.8218">
        <time>2023-04-10T10:50:36+00:00</time>
        <ele>2715.0</ele>
      </trkpt>
      <trkpt lat="44.31535" lon="6.8218">
        <time>2023-04-10T10:50:37+00:00</time>
        <ele>2715.0</ele>
      </trkpt>
      <trkpt lat="44.31535" lon="6.8218">
        <time>2023-04-10T10:50:38+00:00</time>
        <ele>2715.0</ele>
      </trkpt>
      <trkpt lat="44.31535" lon="6.8218">
        <time>2023-04-10T10:50:39+00:00</time>
        <ele>2715.0</ele>
      </trkpt>
      <trkpt lat="44.31535" lon="6.8218">
        <time>2023-04-10T10:50:40+00:00</time>
        <ele>2715.0</ele>
      </trkpt>
      <trkpt lat="44.31535" lon="6.8218">
        <time>2023-04-10T10:50:41+00:00</time>
        <ele>2715.0</ele>
      </trkpt>
      <trkpt lat="44.31535" lon="6.8218">
        <time>2023-04-10T10:50:42+00:00</time>
        <ele>2715.0</ele>
      </trkpt>
      <trkpt lat="44.31535" lon="6.8218">
        <time>2023-04-10T10:50:43+00:00</time>
        <ele>2715.0</ele>
      </trkpt>
      <trkpt lat="44.31535" lon="6.8218">
        <time>2023-04-10T10:50:44+00:00</time>
        <ele>2715.0</ele>
      </trkpt>
      <trkpt lat="44.31535" lon="6.8218">
        <time>2023-04-10T10:50:45+00:00</time>
        <ele>2715.0</ele>
      </trkpt>
      <trkpt lat="44.31535" lon="6.8218">
        <time>2023-04-10T10:50:46+00:00</time>
        <ele>2715.0</ele>
      </trkpt>
      <trkpt lat="44.31535" lon="6.8218">
        <time>2023-04-10T10:50:47+00:00</time>
        <ele>2715.0</ele>
      </trkpt>
      <trkpt lat="44.31535" lon="6.8218">
        <time>2023-04-10T10:50:48+00:00</time>
        <ele>2715.0</ele>
      </trkpt>
      <trkpt lat="44.31535" lon="6.8218">
        <time>2023-04-10T10:50:49+00:00</time>
        <ele>2715.0</ele>
      </trkpt>
      <trkpt lat="44.31535" lon="6.8218">
        <time>2023-04-10T10:50:50+00:00</time>
        <ele>2715.0</ele>
      </trkpt>
      <trkpt lat="44.31535" lon="6.8218">
        <time>2023-04-10T10:50:51+00:00</time>
        <ele>2715.0</ele>
      </trkpt>
      <trkpt lat="44.31535" lon="6.8218">
        <time>2023-04-10T10:50:52+00:00</time>
        <ele>2715.0</ele>
      </trkpt>
      <trkpt lat="44.31535" lon="6.8218">
        <time>2023-04-10T10:50:53+00:00</time>
        <ele>2715.0</ele>
      </trkpt>
      <trkpt lat="44.31535" lon="6.8218">
        <time>2023-04-10T10:50:55+00:00</time>
        <ele>2715.0</ele>
      </trkpt>
      <trkpt lat="44.31535" lon="6.8218">
        <time>2023-04-10T10:50:56+00:00</time>
        <ele>2715.0</ele>
      </trkpt>
      <trkpt lat="44.31535" lon="6.8218">
        <time>2023-04-10T10:50:57+00:00</time>
        <ele>2715.0</ele>
      </trkpt>
      <trkpt lat="44.31535" lon="6.8218">
        <time>2023-04-10T10:50:58+00:00</time>
        <ele>2715.0</ele>
      </trkpt>
      <trkpt lat="44.31535" lon="6.8218">
        <time>2023-04-10T10:50:59+00:00</time>
        <ele>2715.0</ele>
      </trkpt>
      <trkpt lat="44.31535" lon="6.8218">
        <time>2023-04-10T10:51:00+00:00</time>
        <ele>2715.0</ele>
      </trkpt>
      <trkpt lat="44.31535" lon="6.8218">
        <time>2023-04-10T10:51:01+00:00</time>
        <ele>2715.0</ele>
      </trkpt>
      <trkpt lat="44.31535" lon="6.8218">
        <time>2023-04-10T10:51:02+00:00</time>
        <ele>2715.0</ele>
      </trkpt>
      <trkpt lat="44.31535" lon="6.8218">
        <time>2023-04-10T10:51:03+00:00</time>
        <ele>2715.0</ele>
      </trkpt>
      <trkpt lat="44.31535" lon="6.8218">
        <time>2023-04-10T10:51:04+00:00</time>
        <ele>2715.0</ele>
      </trkpt>
      <trkpt lat="44.31535" lon="6.8218">
        <time>2023-04-10T10:51:05+00:00</time>
        <ele>2715.0</ele>
      </trkpt>
      <trkpt lat="44.31535" lon="6.8218">
        <time>2023-04-10T10:51:06+00:00</time>
        <ele>2715.0</ele>
      </trkpt>
      <trkpt lat="44.31535" lon="6.8218">
        <time>2023-04-10T10:51:07+00:00</time>
        <ele>2715.0</ele>
      </trkpt>
      <trkpt lat="44.31535" lon="6.8218">
        <time>2023-04-10T10:51:08+00:00</time>
        <ele>2715.0</ele>
      </trkpt>
      <trkpt lat="44.31535" lon="6.8218">
        <time>2023-04-10T10:51:09+00:00</time>
        <ele>2715.0</ele>
      </trkpt>
      <trkpt lat="44.31535" lon="6.8218">
        <time>2023-04-10T10:51:10+00:00</time>
        <ele>2715.0</ele>
      </trkpt>
      <trkpt lat="44.31535" lon="6.8218">
        <time>2023-04-10T10:51:11+00:00</time>
        <ele>2715.0</ele>
      </trkpt>
      <trkpt lat="44.31535" lon="6.8218">
        <time>2023-04-10T10:51:12+00:00</time>
        <ele>2715.0</ele>
      </trkpt>
      <trkpt lat="44.31535" lon="6.8218">
        <time>2023-04-10T10:51:13+00:00</time>
        <ele>2715.0</ele>
      </trkpt>
      <trkpt lat="44.31535" lon="6.8218">
        <time>2023-04-10T10:51:14+00:00</time>
        <ele>2715.0</ele>
      </trkpt>
      <trkpt lat="44.31535" lon="6.8218">
        <time>2023-04-10T10:51:15+00:00</time>
        <ele>2715.0</ele>
      </trkpt>
      <trkpt lat="44.31535" lon="6.8218">
        <time>2023-04-10T10:51:16+00:00</time>
        <ele>2715.0</ele>
      </trkpt>
      <trkpt lat="44.31535" lon="6.8218">
        <time>2023-04-10T10:51:17+00:00</time>
        <ele>2715.0</ele>
      </trkpt>
      <trkpt lat="44.31535" lon="6.8218">
        <time>2023-04-10T10:51:18+00:00</time>
        <ele>2715.0</ele>
      </trkpt>
      <trkpt lat="44.31535" lon="6.8218">
        <time>2023-04-10T10:51:19+00:00</time>
        <ele>2715.0</ele>
      </trkpt>
      <trkpt lat="44.31535" lon="6.8218">
        <time>2023-04-10T10:51:20+00:00</time>
        <ele>2715.0</ele>
      </trkpt>
      <trkpt lat="44.31535" lon="6.8218">
        <time>2023-04-10T10:51:21+00:00</time>
        <ele>2715.0</ele>
      </trkpt>
      <trkpt lat="44.31535" lon="6.8218">
        <time>2023-04-10T10:51:22+00:00</time>
        <ele>2715.0</ele>
      </trkpt>
      <trkpt lat="44.31535" lon="6.8218">
        <time>2023-04-10T10:51:23+00:00</time>
        <ele>2715.0</ele>
      </trkpt>
      <trkpt lat="44.31535" lon="6.8218">
        <time>2023-04-10T10:51:24+00:00</time>
        <ele>2715.0</ele>
      </trkpt>
      <trkpt lat="44.31535" lon="6.8218">
        <time>2023-04-10T10:51:25+00:00</time>
        <ele>2715.0</ele>
      </trkpt>
      <trkpt lat="44.31535" lon="6.8218">
        <time>2023-04-10T10:51:26+00:00</time>
        <ele>2715.0</ele>
      </trkpt>
      <trkpt lat="44.31535" lon="6.8218">
        <time>2023-04-10T10:51:27+00:00</time>
        <ele>2715.0</ele>
      </trkpt>
      <trkpt lat="44.31535" lon="6.8218">
        <time>2023-04-10T10:51:28+00:00</time>
        <ele>2715.0</ele>
      </trkpt>
      <trkpt lat="44.31535" lon="6.8218">
        <time>2023-04-10T10:51:29+00:00</time>
        <ele>2715.0</ele>
      </trkpt>
      <trkpt lat="44.31535" lon="6.8218">
        <time>2023-04-10T10:51:30+00:00</time>
        <ele>2715.0</ele>
      </trkpt>
      <trkpt lat="44.31535" lon="6.8218">
        <time>2023-04-10T10:51:31+00:00</time>
        <ele>2715.0</ele>
      </trkpt>
      <trkpt lat="44.31535" lon="6.8218">
        <time>2023-04-10T10:51:32+00:00</time>
        <ele>2715.0</ele>
      </trkpt>
      <trkpt lat="44.31535" lon="6.8218">
        <time>2023-04-10T10:51:33+00:00</time>
        <ele>2715.0</ele>
      </trkpt>
      <trkpt lat="44.31535" lon="6.8218">
        <time>2023-04-10T10:51:34+00:00</time>
        <ele>2715.0</ele>
      </trkpt>
      <trkpt lat="44.31535" lon="6.8218">
        <time>2023-04-10T10:51:35+00:00</time>
        <ele>2715.0</ele>
      </trkpt>
      <trkpt lat="44.31535" lon="6.8218">
        <time>2023-04-10T10:51:36+00:00</time>
        <ele>2715.0</ele>
      </trkpt>
      <trkpt lat="44.31535" lon="6.8218">
        <time>2023-04-10T10:51:37+00:00</time>
        <ele>2715.0</ele>
      </trkpt>
      <trkpt lat="44.31535" lon="6.8218">
        <time>2023-04-10T10:51:38+00:00</time>
        <ele>2715.0</ele>
      </trkpt>
      <trkpt lat="44.31535" lon="6.8218">
        <time>2023-04-10T10:51:39+00:00</time>
        <ele>2715.0</ele>
      </trkpt>
      <trkpt lat="44.31535" lon="6.8218">
        <time>2023-04-10T10:51:40+00:00</time>
        <ele>2715.0</ele>
      </trkpt>
      <trkpt lat="44.31535" lon="6.8218">
        <time>2023-04-10T10:51:41+00:00</time>
        <ele>2715.0</ele>
      </trkpt>
      <trkpt lat="44.31535" lon="6.8218">
        <time>2023-04-10T10:51:42+00:00</time>
        <ele>2715.0</ele>
      </trkpt>
      <trkpt lat="44.31535" lon="6.8218">
        <time>2023-04-10T10:51:43+00:00</time>
        <ele>2715.0</ele>
      </trkpt>
      <trkpt lat="44.31535" lon="6.8218">
        <time>2023-04-10T10:51:44+00:00</time>
        <ele>2715.0</ele>
      </trkpt>
      <trkpt lat="44.31535" lon="6.8218">
        <time>2023-04-10T10:51:45+00:00</time>
        <ele>2715.0</ele>
      </trkpt>
      <trkpt lat="44.31535" lon="6.8218">
        <time>2023-04-10T10:51:46+00:00</time>
        <ele>2715.0</ele>
      </trkpt>
      <trkpt lat="44.31535" lon="6.8218">
        <time>2023-04-10T10:51:47+00:00</time>
        <ele>2715.0</ele>
      </trkpt>
      <trkpt lat="44.31535" lon="6.8218">
        <time>2023-04-10T10:51:48+00:00</time>
        <ele>2715.0</ele>
      </trkpt>
      <trkpt lat="44.31535" lon="6.8218">
        <time>2023-04-10T10:51:49+00:00</time>
        <ele>2715.0</ele>
      </trkpt>
      <trkpt lat="44.31535" lon="6.8218">
        <time>2023-04-10T10:51:50+00:00</time>
        <ele>2715.0</ele>
      </trkpt>
      <trkpt lat="44.31535" lon="6.8218">
        <time>2023-04-10T10:51:51+00:00</time>
        <ele>2715.0</ele>
      </trkpt>
      <trkpt lat="44.31535" lon="6.8218">
        <time>2023-04-10T10:51:52+00:00</time>
        <ele>2715.0</ele>
      </trkpt>
      <trkpt lat="44.31535" lon="6.8218">
        <time>2023-04-10T10:51:53+00:00</time>
        <ele>2715.0</ele>
      </trkpt>
      <trkpt lat="44.31535" lon="6.8218">
        <time>2023-04-10T10:51:54+00:00</time>
        <ele>2715.0</ele>
      </trkpt>
      <trkpt lat="44.31535" lon="6.8218">
        <time>2023-04-10T10:51:55+00:00</time>
        <ele>2715.0</ele>
      </trkpt>
      <trkpt lat="44.31535" lon="6.8218">
        <time>2023-04-10T10:51:56+00:00</time>
        <ele>2715.0</ele>
      </trkpt>
      <trkpt lat="44.31535" lon="6.8218">
        <time>2023-04-10T10:51:57+00:00</time>
        <ele>2715.0</ele>
      </trkpt>
      <trkpt lat="44.31535" lon="6.8218">
        <time>2023-04-10T10:51:58+00:00</time>
        <ele>2715.0</ele>
      </trkpt>
      <trkpt lat="44.31535" lon="6.8218">
        <time>2023-04-10T10:51:59+00:00</time>
        <ele>2715.0</ele>
      </trkpt>
      <trkpt lat="44.31535" lon="6.8218">
        <time>2023-04-10T10:52:00+00:00</time>
        <ele>2715.0</ele>
      </trkpt>
      <trkpt lat="44.31535" lon="6.8218">
        <time>2023-04-10T10:52:01+00:00</time>
        <ele>2715.0</ele>
      </trkpt>
      <trkpt lat="44.31535" lon="6.8218">
        <time>2023-04-10T10:52:02+00:00</time>
        <ele>2715.0</ele>
      </trkpt>
      <trkpt lat="44.31535" lon="6.8218">
        <time>2023-04-10T10:52:03+00:00</time>
        <ele>2715.0</ele>
      </trkpt>
      <trkpt lat="44.31535" lon="6.8218">
        <time>2023-04-10T10:52:04+00:00</time>
        <ele>2715.0</ele>
      </trkpt>
      <trkpt lat="44.31535" lon="6.8218">
        <time>2023-04-10T10:52:05+00:00</time>
        <ele>2715.0</ele>
      </trkpt>
      <trkpt lat="44.31535" lon="6.8218">
        <time>2023-04-10T10:52:06+00:00</time>
        <ele>2715.0</ele>
      </trkpt>
      <trkpt lat="44.31535" lon="6.8218">
        <time>2023-04-10T10:52:07+00:00</time>
        <ele>2715.0</ele>
      </trkpt>
      <trkpt lat="44.31535" lon="6.8218">
        <time>2023-04-10T10:52:08+00:00</time>
        <ele>2715.0</ele>
      </trkpt>
      <trkpt lat="44.31535" lon="6.8218">
        <time>2023-04-10T10:52:09+00:00</time>
        <ele>2715.0</ele>
      </trkpt>
      <trkpt lat="44.31535" lon="6.8218">
        <time>2023-04-10T10:52:10+00:00</time>
        <ele>2715.0</ele>
      </trkpt>
      <trkpt lat="44.31535" lon="6.8218">
        <time>2023-04-10T10:52:11+00:00</time>
        <ele>2715.0</ele>
      </trkpt>
      <trkpt lat="44.31535" lon="6.8218">
        <time>2023-04-10T10:52:12+00:00</time>
        <ele>2715.0</ele>
      </trkpt>
      <trkpt lat="44.31535" lon="6.8218">
        <time>2023-04-10T10:52:13+00:00</time>
        <ele>2715.0</ele>
      </trkpt>
      <trkpt lat="44.31535" lon="6.8218">
        <time>2023-04-10T10:52:14+00:00</time>
        <ele>2715.0</ele>
      </trkpt>
      <trkpt lat="44.31535" lon="6.8218">
        <time>2023-04-10T10:52:15+00:00</time>
        <ele>2715.0</ele>
      </trkpt>
      <trkpt lat="44.31535" lon="6.8218">
        <time>2023-04-10T10:52:16+00:00</time>
        <ele>2715.0</ele>
      </trkpt>
      <trkpt lat="44.31535" lon="6.8218">
        <time>2023-04-10T10:52:17+00:00</time>
        <ele>2715.0</ele>
      </trkpt>
      <trkpt lat="44.31535" lon="6.8218">
        <time>2023-04-10T10:52:18+00:00</time>
        <ele>2715.0</ele>
      </trkpt>
      <trkpt lat="44.31535" lon="6.8218">
        <time>2023-04-10T10:52:19+00:00</time>
        <ele>2715.0</ele>
      </trkpt>
      <trkpt lat="44.31535" lon="6.8218">
        <time>2023-04-10T10:52:20+00:00</time>
        <ele>2715.0</ele>
      </trkpt>
      <trkpt lat="44.31535" lon="6.8218">
        <time>2023-04-10T10:52:21+00:00</time>
        <ele>2715.0</ele>
      </trkpt>
      <trkpt lat="44.31535" lon="6.8218">
        <time>2023-04-10T10:52:22+00:00</time>
        <ele>2715.0</ele>
      </trkpt>
      <trkpt lat="44.31535" lon="6.8218">
        <time>2023-04-10T10:52:23+00:00</time>
        <ele>2715.0</ele>
      </trkpt>
      <trkpt lat="44.31535" lon="6.8218">
        <time>2023-04-10T10:52:24+00:00</time>
        <ele>2715.0</ele>
      </trkpt>
      <trkpt lat="44.31535" lon="6.8218">
        <time>2023-04-10T10:52:25+00:00</time>
        <ele>2715.0</ele>
      </trkpt>
      <trkpt lat="44.31535" lon="6.8218">
        <time>2023-04-10T10:52:26+00:00</time>
        <ele>2715.0</ele>
      </trkpt>
      <trkpt lat="44.31535" lon="6.8218">
        <time>2023-04-10T10:52:27+00:00</time>
        <ele>2715.0</ele>
      </trkpt>
      <trkpt lat="44.31535" lon="6.8218">
        <time>2023-04-10T10:52:28+00:00</time>
        <ele>2715.0</ele>
      </trkpt>
      <trkpt lat="44.31535" lon="6.8218">
        <time>2023-04-10T10:52:29+00:00</time>
        <ele>2715.0</ele>
      </trkpt>
      <trkpt lat="44.31535" lon="6.8218">
        <time>2023-04-10T10:52:30+00:00</time>
        <ele>2715.0</ele>
      </trkpt>
      <trkpt lat="44.31535" lon="6.8218">
        <time>2023-04-10T10:52:31+00:00</time>
        <ele>2715.0</ele>
      </trkpt>
      <trkpt lat="44.31535" lon="6.8218">
        <time>2023-04-10T10:52:32+00:00</time>
        <ele>2715.0</ele>
      </trkpt>
      <trkpt lat="44.31535" lon="6.8218">
        <time>2023-04-10T10:52:33+00:00</time>
        <ele>2715.0</ele>
      </trkpt>
      <trkpt lat="44.31535" lon="6.8218">
        <time>2023-04-10T10:52:34+00:00</time>
        <ele>2715.0</ele>
      </trkpt>
      <trkpt lat="44.31535" lon="6.8218">
        <time>2023-04-10T10:52:35+00:00</time>
        <ele>2715.0</ele>
      </trkpt>
      <trkpt lat="44.31535" lon="6.8218">
        <time>2023-04-10T10:52:36+00:00</time>
        <ele>2715.0</ele>
      </trkpt>
      <trkpt lat="44.31535" lon="6.8218">
        <time>2023-04-10T10:52:37+00:00</time>
        <ele>2715.0</ele>
      </trkpt>
      <trkpt lat="44.31535" lon="6.8218">
        <time>2023-04-10T10:52:38+00:00</time>
        <ele>2715.0</ele>
      </trkpt>
      <trkpt lat="44.31535" lon="6.8218">
        <time>2023-04-10T10:52:39+00:00</time>
        <ele>2715.0</ele>
      </trkpt>
      <trkpt lat="44.31535" lon="6.8218">
        <time>2023-04-10T10:52:40+00:00</time>
        <ele>2715.0</ele>
      </trkpt>
      <trkpt lat="44.31535" lon="6.8218">
        <time>2023-04-10T10:52:41+00:00</time>
        <ele>2715.0</ele>
      </trkpt>
      <trkpt lat="44.31535" lon="6.8218">
        <time>2023-04-10T10:52:42+00:00</time>
        <ele>2715.0</ele>
      </trkpt>
      <trkpt lat="44.31535" lon="6.8218">
        <time>2023-04-10T10:52:43+00:00</time>
        <ele>2715.0</ele>
      </trkpt>
      <trkpt lat="44.31535" lon="6.8218">
        <time>2023-04-10T10:52:44+00:00</time>
        <ele>2715.0</ele>
      </trkpt>
      <trkpt lat="44.31535" lon="6.8218">
        <time>2023-04-10T10:52:45+00:00</time>
        <ele>2715.0</ele>
      </trkpt>
      <trkpt lat="44.31535" lon="6.8218">
        <time>2023-04-10T10:52:46+00:00</time>
        <ele>2715.0</ele>
      </trkpt>
      <trkpt lat="44.31535" lon="6.8218">
        <time>2023-04-10T10:52:47+00:00</time>
        <ele>2715.0</ele>
      </trkpt>
      <trkpt lat="44.31535" lon="6.8218">
        <time>2023-04-10T10:52:48+00:00</time>
        <ele>2715.0</ele>
      </trkpt>
      <trkpt lat="44.31535" lon="6.8218">
        <time>2023-04-10T10:52:49+00:00</time>
        <ele>2715.0</ele>
      </trkpt>
      <trkpt lat="44.31535" lon="6.8218">
        <time>2023-04-10T10:52:50+00:00</time>
        <ele>2715.0</ele>
      </trkpt>
      <trkpt lat="44.31535" lon="6.8218">
        <time>2023-04-10T10:52:51+00:00</time>
        <ele>2715.0</ele>
      </trkpt>
      <trkpt lat="44.31535" lon="6.8218">
        <time>2023-04-10T10:52:52+00:00</time>
        <ele>2715.0</ele>
      </trkpt>
      <trkpt lat="44.31535" lon="6.8218">
        <time>2023-04-10T10:52:53+00:00</time>
        <ele>2715.0</ele>
      </trkpt>
      <trkpt lat="44.31535" lon="6.8218">
        <time>2023-04-10T10:52:54+00:00</time>
        <ele>2715.0</ele>
      </trkpt>
      <trkpt lat="44.31535" lon="6.8218">
        <time>2023-04-10T10:52:55+00:00</time>
        <ele>2715.0</ele>
      </trkpt>
      <trkpt lat="44.31535" lon="6.8218">
        <time>2023-04-10T10:52:56+00:00</time>
        <ele>2715.0</ele>
      </trkpt>
      <trkpt lat="44.31535" lon="6.8218">
        <time>2023-04-10T10:52:57+00:00</time>
        <ele>2715.0</ele>
      </trkpt>
      <trkpt lat="44.31535" lon="6.8218">
        <time>2023-04-10T10:52:58+00:00</time>
        <ele>2715.0</ele>
      </trkpt>
      <trkpt lat="44.31535" lon="6.8218">
        <time>2023-04-10T10:52:59+00:00</time>
        <ele>2715.0</ele>
      </trkpt>
      <trkpt lat="44.31535" lon="6.8218">
        <time>2023-04-10T10:53:00+00:00</time>
        <ele>2715.0</ele>
      </trkpt>
      <trkpt lat="44.31535" lon="6.8218">
        <time>2023-04-10T10:53:01+00:00</time>
        <ele>2715.0</ele>
      </trkpt>
      <trkpt lat="44.31535" lon="6.8218">
        <time>2023-04-10T10:53:02+00:00</time>
        <ele>2715.0</ele>
      </trkpt>
      <trkpt lat="44.31535" lon="6.8218">
        <time>2023-04-10T10:53:03+00:00</time>
        <ele>2715.0</ele>
      </trkpt>
      <trkpt lat="44.31535" lon="6.8218">
        <time>2023-04-10T10:53:04+00:00</time>
        <ele>2715.0</ele>
      </trkpt>
      <trkpt lat="44.31535" lon="6.8218">
        <time>2023-04-10T10:53:05+00:00</time>
        <ele>2715.0</ele>
      </trkpt>
      <trkpt lat="44.31535" lon="6.8218">
        <time>2023-04-10T10:53:06+00:00</time>
        <ele>2715.0</ele>
      </trkpt>
      <trkpt lat="44.31535" lon="6.8218">
        <time>2023-04-10T10:53:07+00:00</time>
        <ele>2715.0</ele>
      </trkpt>
      <trkpt lat="44.31535" lon="6.8218">
        <time>2023-04-10T10:53:08+00:00</time>
        <ele>2715.0</ele>
      </trkpt>
      <trkpt lat="44.31535" lon="6.8218">
        <time>2023-04-10T10:53:09+00:00</time>
        <ele>2715.0</ele>
      </trkpt>
      <trkpt lat="44.31535" lon="6.8218">
        <time>2023-04-10T10:53:10+00:00</time>
        <ele>2715.0</ele>
      </trkpt>
      <trkpt lat="44.31535" lon="6.8218">
        <time>2023-04-10T10:53:11+00:00</time>
        <ele>2715.0</ele>
      </trkpt>
      <trkpt lat="44.31535" lon="6.8218">
        <time>2023-04-10T10:53:12+00:00</time>
        <ele>2715.0</ele>
      </trkpt>
      <trkpt lat="44.31535" lon="6.8218">
        <time>2023-04-10T10:53:13+00:00</time>
        <ele>2715.0</ele>
      </trkpt>
      <trkpt lat="44.31535" lon="6.8218">
        <time>2023-04-10T10:53:14+00:00</time>
        <ele>2715.0</ele>
      </trkpt>
      <trkpt lat="44.31535" lon="6.8218">
        <time>2023-04-10T10:53:15+00:00</time>
        <ele>2715.0</ele>
      </trkpt>
      <trkpt lat="44.31535" lon="6.8218">
        <time>2023-04-10T10:53:16+00:00</time>
        <ele>2715.0</ele>
      </trkpt>
      <trkpt lat="44.31535" lon="6.8218">
        <time>2023-04-10T10:53:17+00:00</time>
        <ele>2715.0</ele>
      </trkpt>
      <trkpt lat="44.31535" lon="6.8218">
        <time>2023-04-10T10:53:18+00:00</time>
        <ele>2715.0</ele>
      </trkpt>
      <trkpt lat="44.31535" lon="6.8218">
        <time>2023-04-10T10:53:19+00:00</time>
        <ele>2715.0</ele>
      </trkpt>
      <trkpt lat="44.31535" lon="6.8218">
        <time>2023-04-10T10:53:20+00:00</time>
        <ele>2715.0</ele>
      </trkpt>
      <trkpt lat="44.31535" lon="6.8218">
        <time>2023-04-10T10:53:21+00:00</time>
        <ele>2715.0</ele>
      </trkpt>
      <trkpt lat="44.31535" lon="6.8218">
        <time>2023-04-10T10:53:22+00:00</time>
        <ele>2715.0</ele>
      </trkpt>
      <trkpt lat="44.31535" lon="6.8218">
        <time>2023-04-10T10:53:23+00:00</time>
        <ele>2715.0</ele>
      </trkpt>
      <trkpt lat="44.31535" lon="6.8218">
        <time>2023-04-10T10:53:24+00:00</time>
        <ele>2715.0</ele>
      </trkpt>
      <trkpt lat="44.31535" lon="6.8218">
        <time>2023-04-10T10:53:25+00:00</time>
        <ele>2715.0</ele>
      </trkpt>
      <trkpt lat="44.31535" lon="6.8218">
        <time>2023-04-10T10:53:26+00:00</time>
        <ele>2715.0</ele>
      </trkpt>
      <trkpt lat="44.31535" lon="6.8218">
        <time>2023-04-10T10:53:27+00:00</time>
        <ele>2715.0</ele>
      </trkpt>
      <trkpt lat="44.31535" lon="6.8218">
        <time>2023-04-10T10:53:28+00:00</time>
        <ele>2715.0</ele>
      </trkpt>
      <trkpt lat="44.31535" lon="6.8218">
        <time>2023-04-10T10:53:29+00:00</time>
        <ele>2715.0</ele>
      </trkpt>
      <trkpt lat="44.31535" lon="6.8218">
        <time>2023-04-10T10:53:30+00:00</time>
        <ele>2715.0</ele>
      </trkpt>
      <trkpt lat="44.31535" lon="6.8218">
        <time>2023-04-10T10:53:31+00:00</time>
        <ele>2715.0</ele>
      </trkpt>
      <trkpt lat="44.31535" lon="6.8218">
        <time>2023-04-10T10:53:32+00:00</time>
        <ele>2715.0</ele>
      </trkpt>
      <trkpt lat="44.31535" lon="6.8218">
        <time>2023-04-10T10:53:33+00:00</time>
        <ele>2715.0</ele>
      </trkpt>
      <trkpt lat="44.31535" lon="6.8218">
        <time>2023-04-10T10:53:34+00:00</time>
        <ele>2715.0</ele>
      </trkpt>
      <trkpt lat="44.31535" lon="6.8218">
        <time>2023-04-10T10:53:35+00:00</time>
        <ele>2715.0</ele>
      </trkpt>
      <trkpt lat="44.31535" lon="6.8218">
        <time>2023-04-10T10:53:36+00:00</time>
        <ele>2715.0</ele>
      </trkpt>
      <trkpt lat="44.31535" lon="6.8218">
        <time>2023-04-10T10:53:37+00:00</time>
        <ele>2715.0</ele>
      </trkpt>
      <trkpt lat="44.31535" lon="6.8218">
        <time>2023-04-10T10:53:38+00:00</time>
        <ele>2715.0</ele>
      </trkpt>
      <trkpt lat="44.31535" lon="6.8218">
        <time>2023-04-10T10:53:39+00:00</time>
        <ele>2715.0</ele>
      </trkpt>
      <trkpt lat="44.31535" lon="6.8218">
        <time>2023-04-10T10:53:40+00:00</time>
        <ele>2715.0</ele>
      </trkpt>
      <trkpt lat="44.31535" lon="6.8218">
        <time>2023-04-10T10:53:41+00:00</time>
        <ele>2715.0</ele>
      </trkpt>
      <trkpt lat="44.31535" lon="6.8218">
        <time>2023-04-10T10:53:42+00:00</time>
        <ele>2715.0</ele>
      </trkpt>
      <trkpt lat="44.31535" lon="6.8218">
        <time>2023-04-10T10:53:43+00:00</time>
        <ele>2715.0</ele>
      </trkpt>
      <trkpt lat="44.31535" lon="6.8218">
        <time>2023-04-10T10:53:44+00:00</time>
        <ele>2715.0</ele>
      </trkpt>
      <trkpt lat="44.31535" lon="6.8218">
        <time>2023-04-10T10:53:45+00:00</time>
        <ele>2715.0</ele>
      </trkpt>
      <trkpt lat="44.31535" lon="6.8218">
        <time>2023-04-10T10:53:46+00:00</time>
        <ele>2715.0</ele>
      </trkpt>
      <trkpt lat="44.31535" lon="6.8218">
        <time>2023-04-10T10:53:47+00:00</time>
        <ele>2715.0</ele>
      </trkpt>
      <trkpt lat="44.31535" lon="6.8218">
        <time>2023-04-10T10:53:48+00:00</time>
        <ele>2715.0</ele>
      </trkpt>
      <trkpt lat="44.31535" lon="6.8218">
        <time>2023-04-10T10:53:49+00:00</time>
        <ele>2715.0</ele>
      </trkpt>
      <trkpt lat="44.31535" lon="6.8218">
        <time>2023-04-10T10:53:50+00:00</time>
        <ele>2715.0</ele>
      </trkpt>
      <trkpt lat="44.31535" lon="6.8218">
        <time>2023-04-10T10:53:51+00:00</time>
        <ele>2715.0</ele>
      </trkpt>
      <trkpt lat="44.31535" lon="6.8218">
        <time>2023-04-10T10:53:52+00:00</time>
        <ele>2715.0</ele>
      </trkpt>
      <trkpt lat="44.31535" lon="6.8218">
        <time>2023-04-10T10:53:53+00:00</time>
        <ele>2715.0</ele>
      </trkpt>
      <trkpt lat="44.31535" lon="6.8218">
        <time>2023-04-10T10:53:54+00:00</time>
        <ele>2715.0</ele>
      </trkpt>
      <trkpt lat="44.31535" lon="6.8218">
        <time>2023-04-10T10:53:55+00:00</time>
        <ele>2715.0</ele>
      </trkpt>
      <trkpt lat="44.31535" lon="6.8218">
        <time>2023-04-10T10:53:56+00:00</time>
        <ele>2715.0</ele>
      </trkpt>
      <trkpt lat="44.31535" lon="6.8218">
        <time>2023-04-10T10:53:57+00:00</time>
        <ele>2715.0</ele>
      </trkpt>
      <trkpt lat="44.31535" lon="6.8218">
        <time>2023-04-10T10:53:58+00:00</time>
        <ele>2715.0</ele>
      </trkpt>
      <trkpt lat="44.31535" lon="6.8218">
        <time>2023-04-10T10:53:59+00:00</time>
        <ele>2715.0</ele>
      </trkpt>
      <trkpt lat="44.31535" lon="6.8218">
        <time>2023-04-10T10:54:00+00:00</time>
        <ele>2715.0</ele>
      </trkpt>
      <trkpt lat="44.31535" lon="6.8218">
        <time>2023-04-10T10:54:01+00:00</time>
        <ele>2715.0</ele>
      </trkpt>
      <trkpt lat="44.31535" lon="6.8218">
        <time>2023-04-10T10:54:02+00:00</time>
        <ele>2715.0</ele>
      </trkpt>
      <trkpt lat="44.31535" lon="6.8218">
        <time>2023-04-10T10:54:03+00:00</time>
        <ele>2715.0</ele>
      </trkpt>
      <trkpt lat="44.31535" lon="6.8218">
        <time>2023-04-10T10:54:04+00:00</time>
        <ele>2715.0</ele>
      </trkpt>
      <trkpt lat="44.31535" lon="6.8218">
        <time>2023-04-10T10:54:05+00:00</time>
        <ele>2715.0</ele>
      </trkpt>
      <trkpt lat="44.31535" lon="6.8218">
        <time>2023-04-10T10:54:06+00:00</time>
        <ele>2715.0</ele>
      </trkpt>
      <trkpt lat="44.31535" lon="6.8218">
        <time>2023-04-10T10:54:07+00:00</time>
        <ele>2715.0</ele>
      </trkpt>
      <trkpt lat="44.31535" lon="6.8218">
        <time>2023-04-10T10:54:08+00:00</time>
        <ele>2715.0</ele>
      </trkpt>
      <trkpt lat="44.31535" lon="6.8218">
        <time>2023-04-10T10:54:09+00:00</time>
        <ele>2715.0</ele>
      </trkpt>
      <trkpt lat="44.31535" lon="6.8218">
        <time>2023-04-10T10:54:10+00:00</time>
        <ele>2715.0</ele>
      </trkpt>
      <trkpt lat="44.31535" lon="6.8218">
        <time>2023-04-10T10:54:11+00:00</time>
        <ele>2715.0</ele>
      </trkpt>
      <trkpt lat="44.31535" lon="6.8218">
        <time>2023-04-10T10:54:12+00:00</time>
        <ele>2715.0</ele>
      </trkpt>
      <trkpt lat="44.31535" lon="6.8218">
        <time>2023-04-10T10:54:13+00:00</time>
        <ele>2715.0</ele>
      </trkpt>
      <trkpt lat="44.31535" lon="6.8218">
        <time>2023-04-10T10:54:14+00:00</time>
        <ele>2715.0</ele>
      </trkpt>
      <trkpt lat="44.31535" lon="6.8218">
        <time>2023-04-10T10:54:15+00:00</time>
        <ele>2715.0</ele>
      </trkpt>
      <trkpt lat="44.31535" lon="6.8218">
        <time>2023-04-10T10:54:16+00:00</time>
        <ele>2715.0</ele>
      </trkpt>
      <trkpt lat="44.31535" lon="6.8218">
        <time>2023-04-10T10:54:17+00:00</time>
        <ele>2715.0</ele>
      </trkpt>
      <trkpt lat="44.31535" lon="6.8218">
        <time>2023-04-10T10:54:18+00:00</time>
        <ele>2715.0</ele>
      </trkpt>
      <trkpt lat="44.31535" lon="6.8218">
        <time>2023-04-10T10:54:19+00:00</time>
        <ele>2715.0</ele>
      </trkpt>
      <trkpt lat="44.31535" lon="6.8218">
        <time>2023-04-10T10:54:20+00:00</time>
        <ele>2715.0</ele>
      </trkpt>
      <trkpt lat="44.31535" lon="6.8218">
        <time>2023-04-10T10:54:21+00:00</time>
        <ele>2715.0</ele>
      </trkpt>
      <trkpt lat="44.31535" lon="6.8218">
        <time>2023-04-10T10:54:22+00:00</time>
        <ele>2715.0</ele>
      </trkpt>
      <trkpt lat="44.31535" lon="6.8218">
        <time>2023-04-10T10:54:23+00:00</time>
        <ele>2715.0</ele>
      </trkpt>
      <trkpt lat="44.31535" lon="6.8218">
        <time>2023-04-10T10:54:24+00:00</time>
        <ele>2715.0</ele>
      </trkpt>
      <trkpt lat="44.31535" lon="6.8218">
        <time>2023-04-10T10:54:25+00:00</time>
        <ele>2715.0</ele>
      </trkpt>
      <trkpt lat="44.31535" lon="6.8218">
        <time>2023-04-10T10:54:26+00:00</time>
        <ele>2715.0</ele>
      </trkpt>
      <trkpt lat="44.31535" lon="6.8218">
        <time>2023-04-10T10:54:27+00:00</time>
        <ele>2715.0</ele>
      </trkpt>
      <trkpt lat="44.31535" lon="6.8218">
        <time>2023-04-10T10:54:28+00:00</time>
        <ele>2715.0</ele>
      </trkpt>
      <trkpt lat="44.31535" lon="6.8218">
        <time>2023-04-10T10:54:29+00:00</time>
        <ele>2715.0</ele>
      </trkpt>
      <trkpt lat="44.31535" lon="6.8218">
        <time>2023-04-10T10:54:30+00:00</time>
        <ele>2715.0</ele>
      </trkpt>
      <trkpt lat="44.31535" lon="6.8218">
        <time>2023-04-10T10:54:31+00:00</time>
        <ele>2715.0</ele>
      </trkpt>
      <trkpt lat="44.31535" lon="6.8218">
        <time>2023-04-10T10:54:32+00:00</time>
        <ele>2715.0</ele>
      </trkpt>
      <trkpt lat="44.31535" lon="6.8218">
        <time>2023-04-10T10:54:33+00:00</time>
        <ele>2715.0</ele>
      </trkpt>
      <trkpt lat="44.31535" lon="6.8218">
        <time>2023-04-10T10:54:34+00:00</time>
        <ele>2715.0</ele>
      </trkpt>
      <trkpt lat="44.31535" lon="6.8218">
        <time>2023-04-10T10:54:35+00:00</time>
        <ele>2715.0</ele>
      </trkpt>
      <trkpt lat="44.31535" lon="6.8218">
        <time>2023-04-10T10:54:36+00:00</time>
        <ele>2715.0</ele>
      </trkpt>
      <trkpt lat="44.31535" lon="6.8218">
        <time>2023-04-10T10:54:37+00:00</time>
        <ele>2715.0</ele>
      </trkpt>
      <trkpt lat="44.31535" lon="6.8218">
        <time>2023-04-10T10:54:38+00:00</time>
        <ele>2715.0</ele>
      </trkpt>
      <trkpt lat="44.31535" lon="6.8218">
        <time>2023-04-10T10:54:39+00:00</time>
        <ele>2715.0</ele>
      </trkpt>
      <trkpt lat="44.31535" lon="6.8218">
        <time>2023-04-10T10:54:40+00:00</time>
        <ele>2715.0</ele>
      </trkpt>
      <trkpt lat="44.31535" lon="6.8218">
        <time>2023-04-10T10:54:41+00:00</time>
        <ele>2715.0</ele>
      </trkpt>
      <trkpt lat="44.31535" lon="6.8218">
        <time>2023-04-10T10:54:42+00:00</time>
        <ele>2715.0</ele>
      </trkpt>
      <trkpt lat="44.31535" lon="6.8218">
        <time>2023-04-10T10:54:43+00:00</time>
        <ele>2715.0</ele>
      </trkpt>
      <trkpt lat="44.31535" lon="6.8218">
        <time>2023-04-10T10:54:44+00:00</time>
        <ele>2715.0</ele>
      </trkpt>
      <trkpt lat="44.31535" lon="6.8218">
        <time>2023-04-10T10:54:45+00:00</time>
        <ele>2715.0</ele>
      </trkpt>
      <trkpt lat="44.31535" lon="6.8218">
        <time>2023-04-10T10:54:46+00:00</time>
        <ele>2715.0</ele>
      </trkpt>
      <trkpt lat="44.31535" lon="6.8218">
        <time>2023-04-10T10:54:47+00:00</time>
        <ele>2715.0</ele>
      </trkpt>
      <trkpt lat="44.31535" lon="6.8218">
        <time>2023-04-10T10:54:48+00:00</time>
        <ele>2715.0</ele>
      </trkpt>
      <trkpt lat="44.31535" lon="6.8218">
        <time>2023-04-10T10:54:49+00:00</time>
        <ele>2715.0</ele>
      </trkpt>
      <trkpt lat="44.31535" lon="6.8218">
        <time>2023-04-10T10:54:50+00:00</time>
        <ele>2715.0</ele>
      </trkpt>
      <trkpt lat="44.31535" lon="6.8218">
        <time>2023-04-10T10:54:51+00:00</time>
        <ele>2715.0</ele>
      </trkpt>
      <trkpt lat="44.31535" lon="6.8218">
        <time>2023-04-10T10:54:52+00:00</time>
        <ele>2715.0</ele>
      </trkpt>
      <trkpt lat="44.31535" lon="6.8218">
        <time>2023-04-10T10:54:53+00:00</time>
        <ele>2715.0</ele>
      </trkpt>
      <trkpt lat="44.31535" lon="6.8218">
        <time>2023-04-10T10:54:54+00:00</time>
        <ele>2715.0</ele>
      </trkpt>
      <trkpt lat="44.31535" lon="6.8218">
        <time>2023-04-10T10:54:55+00:00</time>
        <ele>2715.0</ele>
      </trkpt>
      <trkpt lat="44.31535" lon="6.8218">
        <time>2023-04-10T10:54:56+00:00</time>
        <ele>2715.0</ele>
      </trkpt>
      <trkpt lat="44.31535" lon="6.8218">
        <time>2023-04-10T10:54:57+00:00</time>
        <ele>2715.0</ele>
      </trkpt>
      <trkpt lat="44.31535" lon="6.8218">
        <time>2023-04-10T10:54:58+00:00</time>
        <ele>2715.0</ele>
      </trkpt>
      <trkpt lat="44.31535" lon="6.8218">
        <time>2023-04-10T10:54:59+00:00</time>
        <ele>2715.0</ele>
      </trkpt>
      <trkpt lat="44.31535" lon="6.8218">
        <time>2023-04-10T10:55:00+00:00</time>
        <ele>2715.0</ele>
      </trkpt>
      <trkpt lat="44.31535" lon="6.8218">
        <time>2023-04-10T10:55:01+00:00</time>
        <ele>2715.0</ele>
      </trkpt>
      <trkpt lat="44.31535" lon="6.8218">
        <time>2023-04-10T10:55:02+00:00</time>
        <ele>2715.0</ele>
      </trkpt>
      <trkpt lat="44.31535" lon="6.8218">
        <time>2023-04-10T10:55:03+00:00</time>
        <ele>2715.0</ele>
      </trkpt>
      <trkpt lat="44.31535" lon="6.8218">
        <time>2023-04-10T10:55:04+00:00</time>
        <ele>2715.0</ele>
      </trkpt>
      <trkpt lat="44.31535" lon="6.8218">
        <time>2023-04-10T10:55:05+00:00</time>
        <ele>2715.0</ele>
      </trkpt>
      <trkpt lat="44.31535" lon="6.8218">
        <time>2023-04-10T10:55:06+00:00</time>
        <ele>2715.0</ele>
      </trkpt>
      <trkpt lat="44.31535" lon="6.8218">
        <time>2023-04-10T10:55:07+00:00</time>
        <ele>2715.0</ele>
      </trkpt>
      <trkpt lat="44.31535" lon="6.8218">
        <time>2023-04-10T10:55:08+00:00</time>
        <ele>2715.0</ele>
      </trkpt>
      <trkpt lat="44.31535" lon="6.8218">
        <time>2023-04-10T10:55:09+00:00</time>
        <ele>2715.0</ele>
      </trkpt>
      <trkpt lat="44.31535" lon="6.8218">
        <time>2023-04-10T10:55:10+00:00</time>
        <ele>2715.0</ele>
      </trkpt>
      <trkpt lat="44.31535" lon="6.8218">
        <time>2023-04-10T10:55:11+00:00</time>
        <ele>2715.0</ele>
      </trkpt>
      <trkpt lat="44.31535" lon="6.8218">
        <time>2023-04-10T10:55:12+00:00</time>
        <ele>2715.0</ele>
      </trkpt>
      <trkpt lat="44.31535" lon="6.8218">
        <time>2023-04-10T10:55:13+00:00</time>
        <ele>2715.0</ele>
      </trkpt>
      <trkpt lat="44.31535" lon="6.8218">
        <time>2023-04-10T10:55:14+00:00</time>
        <ele>2715.0</ele>
      </trkpt>
      <trkpt lat="44.31535" lon="6.8218">
        <time>2023-04-10T10:55:15+00:00</time>
        <ele>2715.0</ele>
      </trkpt>
      <trkpt lat="44.31535" lon="6.8218">
        <time>2023-04-10T10:55:16+00:00</time>
        <ele>2715.0</ele>
      </trkpt>
      <trkpt lat="44.31535" lon="6.8218">
        <time>2023-04-10T10:55:17+00:00</time>
        <ele>2715.0</ele>
      </trkpt>
      <trkpt lat="44.31535" lon="6.8218">
        <time>2023-04-10T10:55:18+00:00</time>
        <ele>2715.0</ele>
      </trkpt>
      <trkpt lat="44.31535" lon="6.8218">
        <time>2023-04-10T10:55:19+00:00</time>
        <ele>2715.0</ele>
      </trkpt>
      <trkpt lat="44.31535" lon="6.8218">
        <time>2023-04-10T10:55:20+00:00</time>
        <ele>2715.0</ele>
      </trkpt>
      <trkpt lat="44.31535" lon="6.8218">
        <time>2023-04-10T10:55:21+00:00</time>
        <ele>2715.0</ele>
      </trkpt>
      <trkpt lat="44.31535" lon="6.8218">
        <time>2023-04-10T10:55:22+00:00</time>
        <ele>2715.0</ele>
      </trkpt>
      <trkpt lat="44.31535" lon="6.8218">
        <time>2023-04-10T10:55:23+00:00</time>
        <ele>2715.0</ele>
      </trkpt>
      <trkpt lat="44.31535" lon="6.8218">
        <time>2023-04-10T10:55:24+00:00</time>
        <ele>2715.0</ele>
      </trkpt>
      <trkpt lat="44.31535" lon="6.8218">
        <time>2023-04-10T10:55:25+00:00</time>
        <ele>2715.0</ele>
      </trkpt>
      <trkpt lat="44.31535" lon="6.8218">
        <time>2023-04-10T10:55:26+00:00</time>
        <ele>2715.0</ele>
      </trkpt>
      <trkpt lat="44.31535" lon="6.8218">
        <time>2023-04-10T10:55:27+00:00</time>
        <ele>2715.0</ele>
      </trkpt>
      <trkpt lat="44.31535" lon="6.8218">
        <time>2023-04-10T10:55:28+00:00</time>
        <ele>2715.0</ele>
      </trkpt>
      <trkpt lat="44.31535" lon="6.8218">
        <time>2023-04-10T10:55:29+00:00</time>
        <ele>2715.0</ele>
      </trkpt>
      <trkpt lat="44.31535" lon="6.8218">
        <time>2023-04-10T10:55:30+00:00</time>
        <ele>2715.0</ele>
      </trkpt>
      <trkpt lat="44.31535" lon="6.8218">
        <time>2023-04-10T10:55:31+00:00</time>
        <ele>2715.0</ele>
      </trkpt>
      <trkpt lat="44.31535" lon="6.8218">
        <time>2023-04-10T10:55:32+00:00</time>
        <ele>2715.0</ele>
      </trkpt>
      <trkpt lat="44.31535" lon="6.8218">
        <time>2023-04-10T10:55:33+00:00</time>
        <ele>2715.0</ele>
      </trkpt>
      <trkpt lat="44.31535" lon="6.8218">
        <time>2023-04-10T10:55:34+00:00</time>
        <ele>2715.0</ele>
      </trkpt>
      <trkpt lat="44.31535" lon="6.8218">
        <time>2023-04-10T10:55:35+00:00</time>
        <ele>2715.0</ele>
      </trkpt>
      <trkpt lat="44.31535" lon="6.8218">
        <time>2023-04-10T10:55:36+00:00</time>
        <ele>2715.0</ele>
      </trkpt>
      <trkpt lat="44.31535" lon="6.8218">
        <time>2023-04-10T10:55:37+00:00</time>
        <ele>2715.0</ele>
      </trkpt>
      <trkpt lat="44.31535" lon="6.8218">
        <time>2023-04-10T10:55:38+00:00</time>
        <ele>2715.0</ele>
      </trkpt>
      <trkpt lat="44.31535" lon="6.8218">
        <time>2023-04-10T10:55:39+00:00</time>
        <ele>2715.0</ele>
      </trkpt>
      <trkpt lat="44.31535" lon="6.8218">
        <time>2023-04-10T10:55:40+00:00</time>
        <ele>2715.0</ele>
      </trkpt>
      <trkpt lat="44.31535" lon="6.8218">
        <time>2023-04-10T10:55:41+00:00</time>
        <ele>2715.0</ele>
      </trkpt>
      <trkpt lat="44.31535" lon="6.8218">
        <time>2023-04-10T10:55:42+00:00</time>
        <ele>2715.0</ele>
      </trkpt>
      <trkpt lat="44.31535" lon="6.8218">
        <time>2023-04-10T10:55:43+00:00</time>
        <ele>2715.0</ele>
      </trkpt>
      <trkpt lat="44.31535" lon="6.8218">
        <time>2023-04-10T10:55:44+00:00</time>
        <ele>2715.0</ele>
      </trkpt>
      <trkpt lat="44.31535" lon="6.8218">
        <time>2023-04-10T10:55:45+00:00</time>
        <ele>2715.0</ele>
      </trkpt>
      <trkpt lat="44.31535" lon="6.8218">
        <time>2023-04-10T10:55:46+00:00</time>
        <ele>2715.0</ele>
      </trkpt>
      <trkpt lat="44.31535" lon="6.8218">
        <time>2023-04-10T10:55:47+00:00</time>
        <ele>2715.0</ele>
      </trkpt>
      <trkpt lat="44.31535" lon="6.8218">
        <time>2023-04-10T10:55:48+00:00</time>
        <ele>2715.0</ele>
      </trkpt>
      <trkpt lat="44.31535" lon="6.8218">
        <time>2023-04-10T10:55:49+00:00</time>
        <ele>2715.0</ele>
      </trkpt>
      <trkpt lat="44.31535" lon="6.8218">
        <time>2023-04-10T10:55:50+00:00</time>
        <ele>2715.0</ele>
      </trkpt>
      <trkpt lat="44.31535" lon="6.8218">
        <time>2023-04-10T10:55:51+00:00</time>
        <ele>2715.0</ele>
      </trkpt>
      <trkpt lat="44.31535" lon="6.8218">
        <time>2023-04-10T10:55:52+00:00</time>
        <ele>2715.0</ele>
      </trkpt>
      <trkpt lat="44.31535" lon="6.8218">
        <time>2023-04-10T10:55:53+00:00</time>
        <ele>2715.0</ele>
      </trkpt>
      <trkpt lat="44.31535" lon="6.8218">
        <time>2023-04-10T10:55:54+00:00</time>
        <ele>2715.0</ele>
      </trkpt>
      <trkpt lat="44.31535" lon="6.8218">
        <time>2023-04-10T10:55:55+00:00</time>
        <ele>2715.0</ele>
      </trkpt>
      <trkpt lat="44.31535" lon="6.8218">
        <time>2023-04-10T10:55:56+00:00</time>
        <ele>2715.0</ele>
      </trkpt>
      <trkpt lat="44.31535" lon="6.8218">
        <time>2023-04-10T10:55:57+00:00</time>
        <ele>2715.0</ele>
      </trkpt>
      <trkpt lat="44.31535" lon="6.8218">
        <time>2023-04-10T10:55:58+00:00</time>
        <ele>2715.0</ele>
      </trkpt>
      <trkpt lat="44.31535" lon="6.8218">
        <time>2023-04-10T10:55:59+00:00</time>
        <ele>2715.0</ele>
      </trkpt>
      <trkpt lat="44.31535" lon="6.8218">
        <time>2023-04-10T10:56:00+00:00</time>
        <ele>2715.0</ele>
      </trkpt>
      <trkpt lat="44.31535" lon="6.8218">
        <time>2023-04-10T10:56:01+00:00</time>
        <ele>2715.0</ele>
      </trkpt>
      <trkpt lat="44.31535" lon="6.8218">
        <time>2023-04-10T10:56:02+00:00</time>
        <ele>2715.0</ele>
      </trkpt>
      <trkpt lat="44.31535" lon="6.8218">
        <time>2023-04-10T10:56:03+00:00</time>
        <ele>2715.0</ele>
      </trkpt>
      <trkpt lat="44.31535" lon="6.8218">
        <time>2023-04-10T10:56:04+00:00</time>
        <ele>2715.0</ele>
      </trkpt>
      <trkpt lat="44.31535" lon="6.8218">
        <time>2023-04-10T10:56:05+00:00</time>
        <ele>2715.0</ele>
      </trkpt>
      <trkpt lat="44.31535" lon="6.8218">
        <time>2023-04-10T10:56:06+00:00</time>
        <ele>2715.0</ele>
      </trkpt>
      <trkpt lat="44.31535" lon="6.8218">
        <time>2023-04-10T10:56:07+00:00</time>
        <ele>2715.0</ele>
      </trkpt>
      <trkpt lat="44.31535" lon="6.8218">
        <time>2023-04-10T10:56:08+00:00</time>
        <ele>2715.0</ele>
      </trkpt>
      <trkpt lat="44.31535" lon="6.8218">
        <time>2023-04-10T10:56:09+00:00</time>
        <ele>2715.0</ele>
      </trkpt>
      <trkpt lat="44.31535" lon="6.8218">
        <time>2023-04-10T10:56:10+00:00</time>
        <ele>2715.0</ele>
      </trkpt>
      <trkpt lat="44.31535" lon="6.8218">
        <time>2023-04-10T10:56:11+00:00</time>
        <ele>2715.0</ele>
      </trkpt>
      <trkpt lat="44.31535" lon="6.8218">
        <time>2023-04-10T10:56:12+00:00</time>
        <ele>2715.0</ele>
      </trkpt>
      <trkpt lat="44.31535" lon="6.8218">
        <time>2023-04-10T10:56:13+00:00</time>
        <ele>2715.0</ele>
      </trkpt>
      <trkpt lat="44.31535" lon="6.8218">
        <time>2023-04-10T10:56:14+00:00</time>
        <ele>2715.0</ele>
      </trkpt>
      <trkpt lat="44.31535" lon="6.8218">
        <time>2023-04-10T10:56:15+00:00</time>
        <ele>2715.0</ele>
      </trkpt>
      <trkpt lat="44.31535" lon="6.8218">
        <time>2023-04-10T10:56:16+00:00</time>
        <ele>2715.0</ele>
      </trkpt>
      <trkpt lat="44.31535" lon="6.8218">
        <time>2023-04-10T10:56:17+00:00</time>
        <ele>2715.0</ele>
      </trkpt>
      <trkpt lat="44.31535" lon="6.8218">
        <time>2023-04-10T10:56:18+00:00</time>
        <ele>2715.0</ele>
      </trkpt>
      <trkpt lat="44.31535" lon="6.8218">
        <time>2023-04-10T10:56:19+00:00</time>
        <ele>2715.0</ele>
      </trkpt>
      <trkpt lat="44.31535" lon="6.8218">
        <time>2023-04-10T10:56:20+00:00</time>
        <ele>2715.0</ele>
      </trkpt>
      <trkpt lat="44.31535" lon="6.8218">
        <time>2023-04-10T10:56:21+00:00</time>
        <ele>2715.0</ele>
      </trkpt>
      <trkpt lat="44.31535" lon="6.8218">
        <time>2023-04-10T10:56:22+00:00</time>
        <ele>2715.0</ele>
      </trkpt>
      <trkpt lat="44.31535" lon="6.8218">
        <time>2023-04-10T10:56:23+00:00</time>
        <ele>2715.0</ele>
      </trkpt>
      <trkpt lat="44.31535" lon="6.8218">
        <time>2023-04-10T10:56:24+00:00</time>
        <ele>2715.0</ele>
      </trkpt>
      <trkpt lat="44.31535" lon="6.8218">
        <time>2023-04-10T10:56:25+00:00</time>
        <ele>2715.0</ele>
      </trkpt>
      <trkpt lat="44.31535" lon="6.8218">
        <time>2023-04-10T10:56:26+00:00</time>
        <ele>2715.0</ele>
      </trkpt>
      <trkpt lat="44.31535" lon="6.8218">
        <time>2023-04-10T10:56:27+00:00</time>
        <ele>2715.0</ele>
      </trkpt>
      <trkpt lat="44.31535" lon="6.8218">
        <time>2023-04-10T10:56:28+00:00</time>
        <ele>2715.0</ele>
      </trkpt>
      <trkpt lat="44.31535" lon="6.8218">
        <time>2023-04-10T10:56:29+00:00</time>
        <ele>2715.0</ele>
      </trkpt>
      <trkpt lat="44.31535" lon="6.8218">
        <time>2023-04-10T10:56:30+00:00</time>
        <ele>2715.0</ele>
      </trkpt>
      <trkpt lat="44.31535" lon="6.8218">
        <time>2023-04-10T10:56:31+00:00</time>
        <ele>2715.0</ele>
      </trkpt>
      <trkpt lat="44.31535" lon="6.8218">
        <time>2023-04-10T10:56:32+00:00</time>
        <ele>2715.0</ele>
      </trkpt>
      <trkpt lat="44.31535" lon="6.8218">
        <time>2023-04-10T10:56:33+00:00</time>
        <ele>2715.0</ele>
      </trkpt>
      <trkpt lat="44.31535" lon="6.8218">
        <time>2023-04-10T10:56:34+00:00</time>
        <ele>2715.0</ele>
      </trkpt>
      <trkpt lat="44.31535" lon="6.8218">
        <time>2023-04-10T10:56:35+00:00</time>
        <ele>2715.0</ele>
      </trkpt>
      <trkpt lat="44.31535" lon="6.8218">
        <time>2023-04-10T10:56:36+00:00</time>
        <ele>2715.0</ele>
      </trkpt>
      <trkpt lat="44.31535" lon="6.8218">
        <time>2023-04-10T10:56:37+00:00</time>
        <ele>2715.0</ele>
      </trkpt>
      <trkpt lat="44.31535" lon="6.8218">
        <time>2023-04-10T10:56:38+00:00</time>
        <ele>2715.0</ele>
      </trkpt>
      <trkpt lat="44.31535" lon="6.8218">
        <time>2023-04-10T10:56:39+00:00</time>
        <ele>2715.0</ele>
      </trkpt>
      <trkpt lat="44.31535" lon="6.8218">
        <time>2023-04-10T10:56:40+00:00</time>
        <ele>2715.0</ele>
      </trkpt>
      <trkpt lat="44.31535" lon="6.8218">
        <time>2023-04-10T10:56:41+00:00</time>
        <ele>2715.0</ele>
      </trkpt>
      <trkpt lat="44.31535" lon="6.8218">
        <time>2023-04-10T10:56:42+00:00</time>
        <ele>2715.0</ele>
      </trkpt>
      <trkpt lat="44.31535" lon="6.8218">
        <time>2023-04-10T10:56:43+00:00</time>
        <ele>2715.0</ele>
      </trkpt>
      <trkpt lat="44.31535" lon="6.8218">
        <time>2023-04-10T10:56:44+00:00</time>
        <ele>2715.0</ele>
      </trkpt>
      <trkpt lat="44.31535" lon="6.8218">
        <time>2023-04-10T10:56:45+00:00</time>
        <ele>2715.0</ele>
      </trkpt>
      <trkpt lat="44.31535" lon="6.8218">
        <time>2023-04-10T10:56:46+00:00</time>
        <ele>2715.0</ele>
      </trkpt>
      <trkpt lat="44.31535" lon="6.8218">
        <time>2023-04-10T10:56:47+00:00</time>
        <ele>2715.0</ele>
      </trkpt>
      <trkpt lat="44.31535" lon="6.8218">
        <time>2023-04-10T10:56:48+00:00</time>
        <ele>2715.0</ele>
      </trkpt>
      <trkpt lat="44.31535" lon="6.8218">
        <time>2023-04-10T10:56:49+00:00</time>
        <ele>2715.0</ele>
      </trkpt>
      <trkpt lat="44.31535" lon="6.8218">
        <time>2023-04-10T10:56:50+00:00</time>
        <ele>2715.0</ele>
      </trkpt>
      <trkpt lat="44.31535" lon="6.8218">
        <time>2023-04-10T10:56:51+00:00</time>
        <ele>2715.0</ele>
      </trkpt>
      <trkpt lat="44.31535" lon="6.8218">
        <time>2023-04-10T10:56:52+00:00</time>
        <ele>2715.0</ele>
      </trkpt>
      <trkpt lat="44.31535" lon="6.8218">
        <time>2023-04-10T10:56:53+00:00</time>
        <ele>2715.0</ele>
      </trkpt>
      <trkpt lat="44.31535" lon="6.8218">
        <time>2023-04-10T10:56:54+00:00</time>
        <ele>2715.0</ele>
      </trkpt>
      <trkpt lat="44.31535" lon="6.8218">
        <time>2023-04-10T10:56:55+00:00</time>
        <ele>2715.0</ele>
      </trkpt>
      <trkpt lat="44.31535" lon="6.8218">
        <time>2023-04-10T10:56:56+00:00</time>
        <ele>2715.0</ele>
      </trkpt>
      <trkpt lat="44.31535" lon="6.8218">
        <time>2023-04-10T10:56:57+00:00</time>
        <ele>2715.0</ele>
      </trkpt>
      <trkpt lat="44.31535" lon="6.8218">
        <time>2023-04-10T10:56:58+00:00</time>
        <ele>2715.0</ele>
      </trkpt>
      <trkpt lat="44.31535" lon="6.8218">
        <time>2023-04-10T10:56:59+00:00</time>
        <ele>2715.0</ele>
      </trkpt>
      <trkpt lat="44.31535" lon="6.8218">
        <time>2023-04-10T10:57:00+00:00</time>
        <ele>2715.0</ele>
      </trkpt>
      <trkpt lat="44.31535" lon="6.8218">
        <time>2023-04-10T10:57:01+00:00</time>
        <ele>2715.0</ele>
      </trkpt>
      <trkpt lat="44.31535" lon="6.8218">
        <time>2023-04-10T10:57:02+00:00</time>
        <ele>2715.0</ele>
      </trkpt>
      <trkpt lat="44.31535" lon="6.8218">
        <time>2023-04-10T10:57:03+00:00</time>
        <ele>2715.0</ele>
      </trkpt>
      <trkpt lat="44.31535" lon="6.8218">
        <time>2023-04-10T10:57:04+00:00</time>
        <ele>2715.0</ele>
      </trkpt>
      <trkpt lat="44.31535" lon="6.8218">
        <time>2023-04-10T10:57:05+00:00</time>
        <ele>2715.0</ele>
      </trkpt>
      <trkpt lat="44.31535" lon="6.8218">
        <time>2023-04-10T10:57:06+00:00</time>
        <ele>2715.0</ele>
      </trkpt>
      <trkpt lat="44.31535" lon="6.8218">
        <time>2023-04-10T10:57:07+00:00</time>
        <ele>2715.0</ele>
      </trkpt>
      <trkpt lat="44.31535" lon="6.8218">
        <time>2023-04-10T10:57:08+00:00</time>
        <ele>2715.0</ele>
      </trkpt>
      <trkpt lat="44.31535" lon="6.8218">
        <time>2023-04-10T10:57:09+00:00</time>
        <ele>2715.0</ele>
      </trkpt>
      <trkpt lat="44.31535" lon="6.8218">
        <time>2023-04-10T10:57:10+00:00</time>
        <ele>2715.0</ele>
      </trkpt>
      <trkpt lat="44.31535" lon="6.8218">
        <time>2023-04-10T10:57:11+00:00</time>
        <ele>2715.0</ele>
      </trkpt>
      <trkpt lat="44.31535" lon="6.8218">
        <time>2023-04-10T10:57:12+00:00</time>
        <ele>2715.0</ele>
      </trkpt>
      <trkpt lat="44.31535" lon="6.8218">
        <time>2023-04-10T10:57:13+00:00</time>
        <ele>2715.0</ele>
      </trkpt>
      <trkpt lat="44.31535" lon="6.8218">
        <time>2023-04-10T10:57:14+00:00</time>
        <ele>2715.0</ele>
      </trkpt>
      <trkpt lat="44.31535" lon="6.8218">
        <time>2023-04-10T10:57:15+00:00</time>
        <ele>2715.0</ele>
      </trkpt>
      <trkpt lat="44.31535" lon="6.8218">
        <time>2023-04-10T10:57:16+00:00</time>
        <ele>2715.0</ele>
      </trkpt>
      <trkpt lat="44.31535" lon="6.8218">
        <time>2023-04-10T10:57:17+00:00</time>
        <ele>2715.0</ele>
      </trkpt>
      <trkpt lat="44.31535" lon="6.8218">
        <time>2023-04-10T10:57:18+00:00</time>
        <ele>2715.0</ele>
      </trkpt>
      <trkpt lat="44.31535" lon="6.8218">
        <time>2023-04-10T10:57:19+00:00</time>
        <ele>2715.0</ele>
      </trkpt>
      <trkpt lat="44.31535" lon="6.8218">
        <time>2023-04-10T10:57:20+00:00</time>
        <ele>2715.0</ele>
      </trkpt>
      <trkpt lat="44.31535" lon="6.8218">
        <time>2023-04-10T10:57:21+00:00</time>
        <ele>2715.0</ele>
      </trkpt>
      <trkpt lat="44.31535" lon="6.8218">
        <time>2023-04-10T10:57:22+00:00</time>
        <ele>2715.0</ele>
      </trkpt>
      <trkpt lat="44.31535" lon="6.8218">
        <time>2023-04-10T10:57:23+00:00</time>
        <ele>2715.0</ele>
      </trkpt>
      <trkpt lat="44.31535" lon="6.8218">
        <time>2023-04-10T10:57:24+00:00</time>
        <ele>2715.0</ele>
      </trkpt>
      <trkpt lat="44.31535" lon="6.8218">
        <time>2023-04-10T10:57:25+00:00</time>
        <ele>2715.0</ele>
      </trkpt>
      <trkpt lat="44.31535" lon="6.8218">
        <time>2023-04-10T10:57:26+00:00</time>
        <ele>2715.0</ele>
      </trkpt>
      <trkpt lat="44.31535" lon="6.8218">
        <time>2023-04-10T10:57:27+00:00</time>
        <ele>2715.0</ele>
      </trkpt>
      <trkpt lat="44.31535" lon="6.8218">
        <time>2023-04-10T10:57:28+00:00</time>
        <ele>2715.0</ele>
      </trkpt>
      <trkpt lat="44.31535" lon="6.8218">
        <time>2023-04-10T10:57:29+00:00</time>
        <ele>2715.0</ele>
      </trkpt>
      <trkpt lat="44.31535" lon="6.8218">
        <time>2023-04-10T10:57:30+00:00</time>
        <ele>2715.0</ele>
      </trkpt>
      <trkpt lat="44.31535" lon="6.8218">
        <time>2023-04-10T10:57:31+00:00</time>
        <ele>2715.0</ele>
      </trkpt>
      <trkpt lat="44.31535" lon="6.8218">
        <time>2023-04-10T10:57:32+00:00</time>
        <ele>2715.0</ele>
      </trkpt>
      <trkpt lat="44.31535" lon="6.8218">
        <time>2023-04-10T10:57:33+00:00</time>
        <ele>2715.0</ele>
      </trkpt>
      <trkpt lat="44.31535" lon="6.8218">
        <time>2023-04-10T10:57:34+00:00</time>
        <ele>2715.0</ele>
      </trkpt>
      <trkpt lat="44.31535" lon="6.8218">
        <time>2023-04-10T10:57:35+00:00</time>
        <ele>2715.0</ele>
      </trkpt>
      <trkpt lat="44.31535" lon="6.8218">
        <time>2023-04-10T10:57:36+00:00</time>
        <ele>2715.0</ele>
      </trkpt>
      <trkpt lat="44.31535" lon="6.8218">
        <time>2023-04-10T10:57:37+00:00</time>
        <ele>2715.0</ele>
      </trkpt>
      <trkpt lat="44.31535" lon="6.8218">
        <time>2023-04-10T10:57:38+00:00</time>
        <ele>2715.0</ele>
      </trkpt>
      <trkpt lat="44.31535" lon="6.8218">
        <time>2023-04-10T10:57:39+00:00</time>
        <ele>2715.0</ele>
      </trkpt>
      <trkpt lat="44.31535" lon="6.8218">
        <time>2023-04-10T10:57:40+00:00</time>
        <ele>2715.0</ele>
      </trkpt>
      <trkpt lat="44.31535" lon="6.8218">
        <time>2023-04-10T10:57:41+00:00</time>
        <ele>2715.0</ele>
      </trkpt>
      <trkpt lat="44.31535" lon="6.8218">
        <time>2023-04-10T10:57:42+00:00</time>
        <ele>2715.0</ele>
      </trkpt>
      <trkpt lat="44.31535" lon="6.8218">
        <time>2023-04-10T10:57:43+00:00</time>
        <ele>2715.0</ele>
      </trkpt>
      <trkpt lat="44.31535" lon="6.8218">
        <time>2023-04-10T10:57:44+00:00</time>
        <ele>2715.0</ele>
      </trkpt>
      <trkpt lat="44.31535" lon="6.8218">
        <time>2023-04-10T10:57:45+00:00</time>
        <ele>2715.0</ele>
      </trkpt>
      <trkpt lat="44.31535" lon="6.8218">
        <time>2023-04-10T10:57:46+00:00</time>
        <ele>2715.0</ele>
      </trkpt>
      <trkpt lat="44.31535" lon="6.8218">
        <time>2023-04-10T10:57:47+00:00</time>
        <ele>2715.0</ele>
      </trkpt>
      <trkpt lat="44.31535" lon="6.8218">
        <time>2023-04-10T10:57:48+00:00</time>
        <ele>2715.0</ele>
      </trkpt>
      <trkpt lat="44.31535" lon="6.8218">
        <time>2023-04-10T10:57:49+00:00</time>
        <ele>2715.0</ele>
      </trkpt>
      <trkpt lat="44.31535" lon="6.8218">
        <time>2023-04-10T10:57:50+00:00</time>
        <ele>2715.0</ele>
      </trkpt>
      <trkpt lat="44.31535" lon="6.8218">
        <time>2023-04-10T10:57:51+00:00</time>
        <ele>2715.0</ele>
      </trkpt>
      <trkpt lat="44.31535" lon="6.8218">
        <time>2023-04-10T10:57:52+00:00</time>
        <ele>2715.0</ele>
      </trkpt>
      <trkpt lat="44.31535" lon="6.8218">
        <time>2023-04-10T10:57:53+00:00</time>
        <ele>2715.0</ele>
      </trkpt>
      <trkpt lat="44.31535" lon="6.8218">
        <time>2023-04-10T10:57:54+00:00</time>
        <ele>2715.0</ele>
      </trkpt>
      <trkpt lat="44.31535" lon="6.8218">
        <time>2023-04-10T10:57:55+00:00</time>
        <ele>2715.0</ele>
      </trkpt>
      <trkpt lat="44.31535" lon="6.8218">
        <time>2023-04-10T10:57:56+00:00</time>
        <ele>2715.0</ele>
      </trkpt>
      <trkpt lat="44.31535" lon="6.8218">
        <time>2023-04-10T10:57:57+00:00</time>
        <ele>2715.0</ele>
      </trkpt>
      <trkpt lat="44.31535" lon="6.8218">
        <time>2023-04-10T10:57:58+00:00</time>
        <ele>2715.0</ele>
      </trkpt>
      <trkpt lat="44.31535" lon="6.8218">
        <time>2023-04-10T10:57:59+00:00</time>
        <ele>2715.0</ele>
      </trkpt>
      <trkpt lat="44.31535" lon="6.8218">
        <time>2023-04-10T10:58:00+00:00</time>
        <ele>2715.0</ele>
      </trkpt>
      <trkpt lat="44.31535" lon="6.8218">
        <time>2023-04-10T10:58:01+00:00</time>
        <ele>2715.0</ele>
      </trkpt>
      <trkpt lat="44.31535" lon="6.8218">
        <time>2023-04-10T10:58:02+00:00</time>
        <ele>2715.0</ele>
      </trkpt>
      <trkpt lat="44.31535" lon="6.8218">
        <time>2023-04-10T10:58:03+00:00</time>
        <ele>2715.0</ele>
      </trkpt>
      <trkpt lat="44.31535" lon="6.8218">
        <time>2023-04-10T10:58:04+00:00</time>
        <ele>2715.0</ele>
      </trkpt>
      <trkpt lat="44.31535" lon="6.8218">
        <time>2023-04-10T10:58:05+00:00</time>
        <ele>2715.0</ele>
      </trkpt>
      <trkpt lat="44.31535" lon="6.8218">
        <time>2023-04-10T10:58:06+00:00</time>
        <ele>2715.0</ele>
      </trkpt>
      <trkpt lat="44.31535" lon="6.8218">
        <time>2023-04-10T10:58:07+00:00</time>
        <ele>2715.0</ele>
      </trkpt>
      <trkpt lat="44.31535" lon="6.8218">
        <time>2023-04-10T10:58:08+00:00</time>
        <ele>2715.0</ele>
      </trkpt>
      <trkpt lat="44.31535" lon="6.8218">
        <time>2023-04-10T10:58:09+00:00</time>
        <ele>2715.0</ele>
      </trkpt>
      <trkpt lat="44.31535" lon="6.8218">
        <time>2023-04-10T10:58:10+00:00</time>
        <ele>2715.0</ele>
      </trkpt>
      <trkpt lat="44.31535" lon="6.8218">
        <time>2023-04-10T10:58:11+00:00</time>
        <ele>2715.0</ele>
      </trkpt>
      <trkpt lat="44.31535" lon="6.8218">
        <time>2023-04-10T10:58:12+00:00</time>
        <ele>2715.0</ele>
      </trkpt>
      <trkpt lat="44.31535" lon="6.8218">
        <time>2023-04-10T10:58:13+00:00</time>
        <ele>2715.0</ele>
      </trkpt>
      <trkpt lat="44.31535" lon="6.8218">
        <time>2023-04-10T10:58:14+00:00</time>
        <ele>2715.0</ele>
      </trkpt>
      <trkpt lat="44.31535" lon="6.8218">
        <time>2023-04-10T10:58:15+00:00</time>
        <ele>2715.0</ele>
      </trkpt>
      <trkpt lat="44.31535" lon="6.8218">
        <time>2023-04-10T10:58:16+00:00</time>
        <ele>2715.0</ele>
      </trkpt>
      <trkpt lat="44.31535" lon="6.8218">
        <time>2023-04-10T10:58:17+00:00</time>
        <ele>2715.0</ele>
      </trkpt>
      <trkpt lat="44.31535" lon="6.8218">
        <time>2023-04-10T10:58:18+00:00</time>
        <ele>2715.0</ele>
      </trkpt>
      <trkpt lat="44.31535" lon="6.8218">
        <time>2023-04-10T10:58:19+00:00</time>
        <ele>2715.0</ele>
      </trkpt>
      <trkpt lat="44.31535" lon="6.8218">
        <time>2023-04-10T10:58:20+00:00</time>
        <ele>2715.0</ele>
      </trkpt>
      <trkpt lat="44.31535" lon="6.8218">
        <time>2023-04-10T10:58:21+00:00</time>
        <ele>2715.0</ele>
      </trkpt>
      <trkpt lat="44.31535" lon="6.8218">
        <time>2023-04-10T10:58:22+00:00</time>
        <ele>2715.0</ele>
      </trkpt>
      <trkpt lat="44.31535" lon="6.8218">
        <time>2023-04-10T10:58:23+00:00</time>
        <ele>2715.0</ele>
      </trkpt>
      <trkpt lat="44.31535" lon="6.8218">
        <time>2023-04-10T10:58:24+00:00</time>
        <ele>2715.0</ele>
      </trkpt>
      <trkpt lat="44.31535" lon="6.8218">
        <time>2023-04-10T10:58:25+00:00</time>
        <ele>2715.0</ele>
      </trkpt>
      <trkpt lat="44.31535" lon="6.8218">
        <time>2023-04-10T10:58:26+00:00</time>
        <ele>2715.0</ele>
      </trkpt>
      <trkpt lat="44.31535" lon="6.8218">
        <time>2023-04-10T10:58:27+00:00</time>
        <ele>2715.0</ele>
      </trkpt>
      <trkpt lat="44.31535" lon="6.8218">
        <time>2023-04-10T10:58:28+00:00</time>
        <ele>2715.0</ele>
      </trkpt>
      <trkpt lat="44.31535" lon="6.8218">
        <time>2023-04-10T10:58:29+00:00</time>
        <ele>2715.0</ele>
      </trkpt>
      <trkpt lat="44.31535" lon="6.8218">
        <time>2023-04-10T10:58:30+00:00</time>
        <ele>2715.0</ele>
      </trkpt>
      <trkpt lat="44.31535" lon="6.8218">
        <time>2023-04-10T10:58:31+00:00</time>
        <ele>2715.0</ele>
      </trkpt>
      <trkpt lat="44.31535" lon="6.8218">
        <time>2023-04-10T10:58:32+00:00</time>
        <ele>2715.0</ele>
      </trkpt>
      <trkpt lat="44.31535" lon="6.8218">
        <time>2023-04-10T10:58:33+00:00</time>
        <ele>2715.0</ele>
      </trkpt>
      <trkpt lat="44.31535" lon="6.8218">
        <time>2023-04-10T10:58:34+00:00</time>
        <ele>2715.0</ele>
      </trkpt>
      <trkpt lat="44.31535" lon="6.8218">
        <time>2023-04-10T10:58:35+00:00</time>
        <ele>2715.0</ele>
      </trkpt>
      <trkpt lat="44.31535" lon="6.8218">
        <time>2023-04-10T10:58:36+00:00</time>
        <ele>2715.0</ele>
      </trkpt>
      <trkpt lat="44.31535" lon="6.8218">
        <time>2023-04-10T10:58:37+00:00</time>
        <ele>2715.0</ele>
      </trkpt>
      <trkpt lat="44.31535" lon="6.8218">
        <time>2023-04-10T10:58:38+00:00</time>
        <ele>2715.0</ele>
      </trkpt>
      <trkpt lat="44.31535" lon="6.82176">
        <time>2023-04-10T10:58:39+00:00</time>
        <ele>2716.0</ele>
      </trkpt>
      <trkpt lat="44.31535" lon="6.82173">
        <time>2023-04-10T10:58:40+00:00</time>
        <ele>2717.0</ele>
      </trkpt>
      <trkpt lat="44.31535" lon="6.82173">
        <time>2023-04-10T10:58:41+00:00</time>
        <ele>2717.0</ele>
      </trkpt>
      <trkpt lat="44.31537" lon="6.82169">
        <time>2023-04-10T10:58:42+00:00</time>
        <ele>2717.0</ele>
      </trkpt>
      <trkpt lat="44.31537" lon="6.82169">
        <time>2023-04-10T10:58:43+00:00</time>
        <ele>2717.0</ele>
      </trkpt>
      <trkpt lat="44.31538" lon="6.82165">
        <time>2023-04-10T10:58:44+00:00</time>
        <ele>2717.0</ele>
      </trkpt>
      <trkpt lat="44.31538" lon="6.82165">
        <time>2023-04-10T10:58:45+00:00</time>
        <ele>2717.0</ele>
      </trkpt>
      <trkpt lat="44.31539" lon="6.82162">
        <time>2023-04-10T10:58:46+00:00</time>
        <ele>2718.0</ele>
      </trkpt>
      <trkpt lat="44.31539" lon="6.82162">
        <time>2023-04-10T10:58:47+00:00</time>
        <ele>2718.0</ele>
      </trkpt>
      <trkpt lat="44.31539" lon="6.82162">
        <time>2023-04-10T10:58:48+00:00</time>
        <ele>2718.0</ele>
      </trkpt>
      <trkpt lat="44.31539" lon="6.82162">
        <time>2023-04-10T10:58:49+00:00</time>
        <ele>2718.0</ele>
      </trkpt>
      <trkpt lat="44.31541" lon="6.82159">
        <time>2023-04-10T10:58:50+00:00</time>
        <ele>2718.0</ele>
      </trkpt>
      <trkpt lat="44.31541" lon="6.82159">
        <time>2023-04-10T10:58:51+00:00</time>
        <ele>2718.0</ele>
      </trkpt>
      <trkpt lat="44.31541" lon="6.82159">
        <time>2023-04-10T10:58:52+00:00</time>
        <ele>2718.0</ele>
      </trkpt>
      <trkpt lat="44.31541" lon="6.82157">
        <time>2023-04-10T10:58:53+00:00</time>
        <ele>2719.0</ele>
      </trkpt>
      <trkpt lat="44.31541" lon="6.82157">
        <time>2023-04-10T10:58:54+00:00</time>
        <ele>2719.0</ele>
      </trkpt>
      <trkpt lat="44.31543" lon="6.82154">
        <time>2023-04-10T10:58:55+00:00</time>
        <ele>2719.0</ele>
      </trkpt>
      <trkpt lat="44.31543" lon="6.82154">
        <time>2023-04-10T10:58:56+00:00</time>
        <ele>2719.0</ele>
      </trkpt>
      <trkpt lat="44.31543" lon="6.82154">
        <time>2023-04-10T10:58:57+00:00</time>
        <ele>2719.0</ele>
      </trkpt>
      <trkpt lat="44.31543" lon="6.82154">
        <time>2023-04-10T10:58:58+00:00</time>
        <ele>2719.0</ele>
      </trkpt>
      <trkpt lat="44.31543" lon="6.82154">
        <time>2023-04-10T10:58:59+00:00</time>
        <ele>2719.0</ele>
      </trkpt>
      <trkpt lat="44.31543" lon="6.82154">
        <time>2023-04-10T10:59:00+00:00</time>
        <ele>2719.0</ele>
      </trkpt>
      <trkpt lat="44.31543" lon="6.82154">
        <time>2023-04-10T10:59:01+00:00</time>
        <ele>2719.0</ele>
      </trkpt>
      <trkpt lat="44.31543" lon="6.82154">
        <time>2023-04-10T10:59:02+00:00</time>
        <ele>2719.0</ele>
      </trkpt>
      <trkpt lat="44.31543" lon="6.82154">
        <time>2023-04-10T10:59:03+00:00</time>
        <ele>2719.0</ele>
      </trkpt>
      <trkpt lat="44.31543" lon="6.82154">
        <time>2023-04-10T10:59:04+00:00</time>
        <ele>2719.0</ele>
      </trkpt>
      <trkpt lat="44.31543" lon="6.82154">
        <time>2023-04-10T10:59:05+00:00</time>
        <ele>2719.0</ele>
      </trkpt>
      <trkpt lat="44.31543" lon="6.82154">
        <time>2023-04-10T10:59:06+00:00</time>
        <ele>2719.0</ele>
      </trkpt>
      <trkpt lat="44.31543" lon="6.82154">
        <time>2023-04-10T10:59:07+00:00</time>
        <ele>2719.0</ele>
      </trkpt>
      <trkpt lat="44.31543" lon="6.82154">
        <time>2023-04-10T10:59:08+00:00</time>
        <ele>2719.0</ele>
      </trkpt>
      <trkpt lat="44.31543" lon="6.82151">
        <time>2023-04-10T10:59:09+00:00</time>
        <ele>2720.0</ele>
      </trkpt>
      <trkpt lat="44.31543" lon="6.82151">
        <time>2023-04-10T10:59:10+00:00</time>
        <ele>2720.0</ele>
      </trkpt>
      <trkpt lat="44.31545" lon="6.82148">
        <time>2023-04-10T10:59:11+00:00</time>
        <ele>2720.0</ele>
      </trkpt>
      <trkpt lat="44.31545" lon="6.82148">
        <time>2023-04-10T10:59:12+00:00</time>
        <ele>2720.0</ele>
      </trkpt>
      <trkpt lat="44.31546" lon="6.82145">
        <time>2023-04-10T10:59:13+00:00</time>
        <ele>2721.0</ele>
      </trkpt>
      <trkpt lat="44.31546" lon="6.82145">
        <time>2023-04-10T10:59:14+00:00</time>
        <ele>2721.0</ele>
      </trkpt>
      <trkpt lat="44.31546" lon="6.82145">
        <time>2023-04-10T10:59:15+00:00</time>
        <ele>2721.0</ele>
      </trkpt>
      <trkpt lat="44.31546" lon="6.82145">
        <time>2023-04-10T10:59:16+00:00</time>
        <ele>2721.0</ele>
      </trkpt>
      <trkpt lat="44.31546" lon="6.82145">
        <time>2023-04-10T10:59:17+00:00</time>
        <ele>2721.0</ele>
      </trkpt>
      <trkpt lat="44.31546" lon="6.82145">
        <time>2023-04-10T10:59:18+00:00</time>
        <ele>2721.0</ele>
      </trkpt>
      <trkpt lat="44.31546" lon="6.82145">
        <time>2023-04-10T10:59:19+00:00</time>
        <ele>2721.0</ele>
      </trkpt>
      <trkpt lat="44.31546" lon="6.82145">
        <time>2023-04-10T10:59:20+00:00</time>
        <ele>2721.0</ele>
      </trkpt>
      <trkpt lat="44.31546" lon="6.82145">
        <time>2023-04-10T10:59:21+00:00</time>
        <ele>2721.0</ele>
      </trkpt>
      <trkpt lat="44.31546" lon="6.82145">
        <time>2023-04-10T10:59:22+00:00</time>
        <ele>2721.0</ele>
      </trkpt>
      <trkpt lat="44.31546" lon="6.82145">
        <time>2023-04-10T10:59:23+00:00</time>
        <ele>2721.0</ele>
      </trkpt>
      <trkpt lat="44.31546" lon="6.82145">
        <time>2023-04-10T10:59:24+00:00</time>
        <ele>2721.0</ele>
      </trkpt>
      <trkpt lat="44.31546" lon="6.82145">
        <time>2023-04-10T10:59:25+00:00</time>
        <ele>2721.0</ele>
      </trkpt>
      <trkpt lat="44.31546" lon="6.82145">
        <time>2023-04-10T10:59:26+00:00</time>
        <ele>2721.0</ele>
      </trkpt>
      <trkpt lat="44.31546" lon="6.82145">
        <time>2023-04-10T10:59:27+00:00</time>
        <ele>2721.0</ele>
      </trkpt>
      <trkpt lat="44.31546" lon="6.82145">
        <time>2023-04-10T10:59:28+00:00</time>
        <ele>2721.0</ele>
      </trkpt>
      <trkpt lat="44.31546" lon="6.82145">
        <time>2023-04-10T10:59:29+00:00</time>
        <ele>2721.0</ele>
      </trkpt>
      <trkpt lat="44.31547" lon="6.82145">
        <time>2023-04-10T10:59:30+00:00</time>
        <ele>2721.0</ele>
      </trkpt>
      <trkpt lat="44.31547" lon="6.82145">
        <time>2023-04-10T10:59:31+00:00</time>
        <ele>2721.0</ele>
      </trkpt>
      <trkpt lat="44.31547" lon="6.82144">
        <time>2023-04-10T10:59:32+00:00</time>
        <ele>2721.0</ele>
      </trkpt>
      <trkpt lat="44.31547" lon="6.82144">
        <time>2023-04-10T10:59:33+00:00</time>
        <ele>2721.0</ele>
      </trkpt>
      <trkpt lat="44.31547" lon="6.82144">
        <time>2023-04-10T10:59:34+00:00</time>
        <ele>2721.0</ele>
      </trkpt>
      <trkpt lat="44.31547" lon="6.82144">
        <time>2023-04-10T10:59:35+00:00</time>
        <ele>2721.0</ele>
      </trkpt>
      <trkpt lat="44.31547" lon="6.82144">
        <time>2023-04-10T10:59:36+00:00</time>
        <ele>2721.0</ele>
      </trkpt>
      <trkpt lat="44.31547" lon="6.82144">
        <time>2023-04-10T10:59:37+00:00</time>
        <ele>2721.0</ele>
      </trkpt>
      <trkpt lat="44.31547" lon="6.82144">
        <time>2023-04-10T10:59:38+00:00</time>
        <ele>2721.0</ele>
      </trkpt>
      <trkpt lat="44.31547" lon="6.82144">
        <time>2023-04-10T10:59:39+00:00</time>
        <ele>2721.0</ele>
      </trkpt>
      <trkpt lat="44.31547" lon="6.82144">
        <time>2023-04-10T10:59:40+00:00</time>
        <ele>2721.0</ele>
      </trkpt>
      <trkpt lat="44.31547" lon="6.82144">
        <time>2023-04-10T10:59:41+00:00</time>
        <ele>2721.0</ele>
      </trkpt>
      <trkpt lat="44.31547" lon="6.82144">
        <time>2023-04-10T10:59:42+00:00</time>
        <ele>2721.0</ele>
      </trkpt>
      <trkpt lat="44.31547" lon="6.82144">
        <time>2023-04-10T10:59:43+00:00</time>
        <ele>2721.0</ele>
      </trkpt>
      <trkpt lat="44.31547" lon="6.82144">
        <time>2023-04-10T10:59:44+00:00</time>
        <ele>2721.0</ele>
      </trkpt>
      <trkpt lat="44.31548" lon="6.82144">
        <time>2023-04-10T10:59:45+00:00</time>
        <ele>2720.0</ele>
      </trkpt>
      <trkpt lat="44.31548" lon="6.82144">
        <time>2023-04-10T10:59:46+00:00</time>
        <ele>2720.0</ele>
      </trkpt>
      <trkpt lat="44.31548" lon="6.82144">
        <time>2023-04-10T10:59:47+00:00</time>
        <ele>2720.0</ele>
      </trkpt>
      <trkpt lat="44.31548" lon="6.82144">
        <time>2023-04-10T10:59:48+00:00</time>
        <ele>2720.0</ele>
      </trkpt>
      <trkpt lat="44.31548" lon="6.82144">
        <time>2023-04-10T10:59:49+00:00</time>
        <ele>2720.0</ele>
      </trkpt>
      <trkpt lat="44.31548" lon="6.82144">
        <time>2023-04-10T10:59:50+00:00</time>
        <ele>2720.0</ele>
      </trkpt>
      <trkpt lat="44.31548" lon="6.82144">
        <time>2023-04-10T10:59:51+00:00</time>
        <ele>2720.0</ele>
      </trkpt>
      <trkpt lat="44.31548" lon="6.82144">
        <time>2023-04-10T10:59:52+00:00</time>
        <ele>2720.0</ele>
      </trkpt>
      <trkpt lat="44.31551" lon="6.82146">
        <time>2023-04-10T10:59:53+00:00</time>
        <ele>2719.0</ele>
      </trkpt>
      <trkpt lat="44.31553" lon="6.82148">
        <time>2023-04-10T10:59:54+00:00</time>
        <ele>2718.0</ele>
      </trkpt>
      <trkpt lat="44.31554" lon="6.82151">
        <time>2023-04-10T10:59:55+00:00</time>
        <ele>2716.0</ele>
      </trkpt>
      <trkpt lat="44.31557" lon="6.82153">
        <time>2023-04-10T10:59:56+00:00</time>
        <ele>2714.0</ele>
      </trkpt>
      <trkpt lat="44.31559" lon="6.82155">
        <time>2023-04-10T10:59:57+00:00</time>
        <ele>2713.0</ele>
      </trkpt>
      <trkpt lat="44.31564" lon="6.8216">
        <time>2023-04-10T10:59:58+00:00</time>
        <ele>2709.0</ele>
      </trkpt>
      <trkpt lat="44.31569" lon="6.82162">
        <time>2023-04-10T10:59:59+00:00</time>
        <ele>2707.0</ele>
      </trkpt>
      <trkpt lat="44.31575" lon="6.82165">
        <time>2023-04-10T11:00:00+00:00</time>
        <ele>2705.0</ele>
      </trkpt>
      <trkpt lat="44.31575" lon="6.82165">
        <time>2023-04-10T11:00:01+00:00</time>
        <ele>2705.0</ele>
      </trkpt>
      <trkpt lat="44.31577" lon="6.82165">
        <time>2023-04-10T11:00:02+00:00</time>
        <ele>2704.0</ele>
      </trkpt>
      <trkpt lat="44.31577" lon="6.82165">
        <time>2023-04-10T11:00:03+00:00</time>
        <ele>2704.0</ele>
      </trkpt>
      <trkpt lat="44.31577" lon="6.82165">
        <time>2023-04-10T11:00:04+00:00</time>
        <ele>2704.0</ele>
      </trkpt>
      <trkpt lat="44.31577" lon="6.82165">
        <time>2023-04-10T11:00:05+00:00</time>
        <ele>2704.0</ele>
      </trkpt>
      <trkpt lat="44.31577" lon="6.82165">
        <time>2023-04-10T11:00:06+00:00</time>
        <ele>2704.0</ele>
      </trkpt>
      <trkpt lat="44.31577" lon="6.82165">
        <time>2023-04-10T11:00:07+00:00</time>
        <ele>2704.0</ele>
      </trkpt>
      <trkpt lat="44.31577" lon="6.82165">
        <time>2023-04-10T11:00:08+00:00</time>
        <ele>2704.0</ele>
      </trkpt>
      <trkpt lat="44.31577" lon="6.82165">
        <time>2023-04-10T11:00:09+00:00</time>
        <ele>2704.0</ele>
      </trkpt>
      <trkpt lat="44.31577" lon="6.82165">
        <time>2023-04-10T11:00:10+00:00</time>
        <ele>2704.0</ele>
      </trkpt>
      <trkpt lat="44.31577" lon="6.82165">
        <time>2023-04-10T11:00:11+00:00</time>
        <ele>2704.0</ele>
      </trkpt>
      <trkpt lat="44.31577" lon="6.82165">
        <time>2023-04-10T11:00:12+00:00</time>
        <ele>2704.0</ele>
      </trkpt>
      <trkpt lat="44.31575" lon="6.82164">
        <time>2023-04-10T11:00:13+00:00</time>
        <ele>2705.0</ele>
      </trkpt>
      <trkpt lat="44.31575" lon="6.82164">
        <time>2023-04-10T11:00:14+00:00</time>
        <ele>2705.0</ele>
      </trkpt>
      <trkpt lat="44.31575" lon="6.82164">
        <time>2023-04-10T11:00:15+00:00</time>
        <ele>2705.0</ele>
      </trkpt>
      <trkpt lat="44.31575" lon="6.82164">
        <time>2023-04-10T11:00:16+00:00</time>
        <ele>2705.0</ele>
      </trkpt>
      <trkpt lat="44.31575" lon="6.82164">
        <time>2023-04-10T11:00:17+00:00</time>
        <ele>2705.0</ele>
      </trkpt>
      <trkpt lat="44.31575" lon="6.82164">
        <time>2023-04-10T11:00:19+00:00</time>
        <ele>2705.0</ele>
      </trkpt>
      <trkpt lat="44.31575" lon="6.82164">
        <time>2023-04-10T11:00:20+00:00</time>
        <ele>2705.0</ele>
      </trkpt>
      <trkpt lat="44.31575" lon="6.82164">
        <time>2023-04-10T11:00:21+00:00</time>
        <ele>2705.0</ele>
      </trkpt>
      <trkpt lat="44.31575" lon="6.82164">
        <time>2023-04-10T11:00:22+00:00</time>
        <ele>2705.0</ele>
      </trkpt>
      <trkpt lat="44.31575" lon="6.82164">
        <time>2023-04-10T11:00:23+00:00</time>
        <ele>2705.0</ele>
      </trkpt>
      <trkpt lat="44.31575" lon="6.82164">
        <time>2023-04-10T11:00:24+00:00</time>
        <ele>2705.0</ele>
      </trkpt>
      <trkpt lat="44.31575" lon="6.82164">
        <time>2023-04-10T11:00:25+00:00</time>
        <ele>2705.0</ele>
      </trkpt>
      <trkpt lat="44.31573" lon="6.82169">
        <time>2023-04-10T11:00:26+00:00</time>
        <ele>2704.0</ele>
      </trkpt>
      <trkpt lat="44.31571" lon="6.82174">
        <time>2023-04-10T11:00:27+00:00</time>
        <ele>2703.0</ele>
      </trkpt>
      <trkpt lat="44.31569" lon="6.82181">
        <time>2023-04-10T11:00:28+00:00</time>
        <ele>2701.0</ele>
      </trkpt>
      <trkpt lat="44.31567" lon="6.82188">
        <time>2023-04-10T11:00:29+00:00</time>
        <ele>2699.0</ele>
      </trkpt>
      <trkpt lat="44.31565" lon="6.82195">
        <time>2023-04-10T11:00:30+00:00</time>
        <ele>2697.0</ele>
      </trkpt>
      <trkpt lat="44.31563" lon="6.82202">
        <time>2023-04-10T11:00:31+00:00</time>
        <ele>2696.0</ele>
      </trkpt>
      <trkpt lat="44.31559" lon="6.82207">
        <time>2023-04-10T11:00:32+00:00</time>
        <ele>2695.0</ele>
      </trkpt>
      <trkpt lat="44.31555" lon="6.82213">
        <time>2023-04-10T11:00:33+00:00</time>
        <ele>2694.0</ele>
      </trkpt>
      <trkpt lat="44.31552" lon="6.82218">
        <time>2023-04-10T11:00:34+00:00</time>
        <ele>2693.0</ele>
      </trkpt>
      <trkpt lat="44.31549" lon="6.82223">
        <time>2023-04-10T11:00:35+00:00</time>
        <ele>2691.0</ele>
      </trkpt>
      <trkpt lat="44.31547" lon="6.82225">
        <time>2023-04-10T11:00:36+00:00</time>
        <ele>2691.0</ele>
      </trkpt>
      <trkpt lat="44.31547" lon="6.82225">
        <time>2023-04-10T11:00:37+00:00</time>
        <ele>2691.0</ele>
      </trkpt>
      <trkpt lat="44.31547" lon="6.82225">
        <time>2023-04-10T11:00:38+00:00</time>
        <ele>2691.0</ele>
      </trkpt>
      <trkpt lat="44.31547" lon="6.82225">
        <time>2023-04-10T11:00:39+00:00</time>
        <ele>2691.0</ele>
      </trkpt>
      <trkpt lat="44.31547" lon="6.82225">
        <time>2023-04-10T11:00:40+00:00</time>
        <ele>2691.0</ele>
      </trkpt>
      <trkpt lat="44.31546" lon="6.82227">
        <time>2023-04-10T11:00:41+00:00</time>
        <ele>2691.0</ele>
      </trkpt>
      <trkpt lat="44.31546" lon="6.82227">
        <time>2023-04-10T11:00:42+00:00</time>
        <ele>2691.0</ele>
      </trkpt>
      <trkpt lat="44.31544" lon="6.8223">
        <time>2023-04-10T11:00:43+00:00</time>
        <ele>2690.0</ele>
      </trkpt>
      <trkpt lat="44.31542" lon="6.82233">
        <time>2023-04-10T11:00:44+00:00</time>
        <ele>2690.0</ele>
      </trkpt>
      <trkpt lat="44.31538" lon="6.82238">
        <time>2023-04-10T11:00:45+00:00</time>
        <ele>2690.0</ele>
      </trkpt>
      <trkpt lat="44.31534" lon="6.82243">
        <time>2023-04-10T11:00:46+00:00</time>
        <ele>2689.0</ele>
      </trkpt>
      <trkpt lat="44.3153" lon="6.82249">
        <time>2023-04-10T11:00:47+00:00</time>
        <ele>2688.0</ele>
      </trkpt>
      <trkpt lat="44.31525" lon="6.82257">
        <time>2023-04-10T11:00:48+00:00</time>
        <ele>2686.0</ele>
      </trkpt>
      <trkpt lat="44.31522" lon="6.82261">
        <time>2023-04-10T11:00:49+00:00</time>
        <ele>2686.0</ele>
      </trkpt>
      <trkpt lat="44.31519" lon="6.82266">
        <time>2023-04-10T11:00:50+00:00</time>
        <ele>2685.0</ele>
      </trkpt>
      <trkpt lat="44.31517" lon="6.8227">
        <time>2023-04-10T11:00:51+00:00</time>
        <ele>2684.0</ele>
      </trkpt>
      <trkpt lat="44.31515" lon="6.82274">
        <time>2023-04-10T11:00:52+00:00</time>
        <ele>2683.0</ele>
      </trkpt>
      <trkpt lat="44.31513" lon="6.82277">
        <time>2023-04-10T11:00:53+00:00</time>
        <ele>2683.0</ele>
      </trkpt>
      <trkpt lat="44.31512" lon="6.82282">
        <time>2023-04-10T11:00:54+00:00</time>
        <ele>2681.0</ele>
      </trkpt>
      <trkpt lat="44.31509" lon="6.82288">
        <time>2023-04-10T11:00:55+00:00</time>
        <ele>2680.0</ele>
      </trkpt>
      <trkpt lat="44.31507" lon="6.82297">
        <time>2023-04-10T11:00:56+00:00</time>
        <ele>2678.0</ele>
      </trkpt>
      <trkpt lat="44.31503" lon="6.82306">
        <time>2023-04-10T11:00:57+00:00</time>
        <ele>2677.0</ele>
      </trkpt>
      <trkpt lat="44.31499" lon="6.82314">
        <time>2023-04-10T11:00:58+00:00</time>
        <ele>2676.0</ele>
      </trkpt>
      <trkpt lat="44.31494" lon="6.82321">
        <time>2023-04-10T11:00:59+00:00</time>
        <ele>2676.0</ele>
      </trkpt>
      <trkpt lat="44.3149" lon="6.82325">
        <time>2023-04-10T11:01:00+00:00</time>
        <ele>2676.0</ele>
      </trkpt>
      <trkpt lat="44.31486" lon="6.82328">
        <time>2023-04-10T11:01:01+00:00</time>
        <ele>2677.0</ele>
      </trkpt>
      <trkpt lat="44.31486" lon="6.82328">
        <time>2023-04-10T11:01:02+00:00</time>
        <ele>2677.0</ele>
      </trkpt>
      <trkpt lat="44.31484" lon="6.82329">
        <time>2023-04-10T11:01:03+00:00</time>
        <ele>2677.0</ele>
      </trkpt>
      <trkpt lat="44.31484" lon="6.82329">
        <time>2023-04-10T11:01:04+00:00</time>
        <ele>2677.0</ele>
      </trkpt>
      <trkpt lat="44.31484" lon="6.82332">
        <time>2023-04-10T11:01:05+00:00</time>
        <ele>2676.0</ele>
      </trkpt>
      <trkpt lat="44.31483" lon="6.82338">
        <time>2023-04-10T11:01:06+00:00</time>
        <ele>2674.0</ele>
      </trkpt>
      <trkpt lat="44.31481" lon="6.82345">
        <time>2023-04-10T11:01:07+00:00</time>
        <ele>2671.0</ele>
      </trkpt>
      <trkpt lat="44.31478" lon="6.82353">
        <time>2023-04-10T11:01:08+00:00</time>
        <ele>2669.0</ele>
      </trkpt>
      <trkpt lat="44.31474" lon="6.8236">
        <time>2023-04-10T11:01:09+00:00</time>
        <ele>2668.0</ele>
      </trkpt>
      <trkpt lat="44.31472" lon="6.82361">
        <time>2023-04-10T11:01:10+00:00</time>
        <ele>2668.0</ele>
      </trkpt>
      <trkpt lat="44.31472" lon="6.82361">
        <time>2023-04-10T11:01:11+00:00</time>
        <ele>2668.0</ele>
      </trkpt>
      <trkpt lat="44.31471" lon="6.82363">
        <time>2023-04-10T11:01:12+00:00</time>
        <ele>2668.0</ele>
      </trkpt>
      <trkpt lat="44.31471" lon="6.82363">
        <time>2023-04-10T11:01:13+00:00</time>
        <ele>2668.0</ele>
      </trkpt>
      <trkpt lat="44.31471" lon="6.82363">
        <time>2023-04-10T11:01:14+00:00</time>
        <ele>2668.0</ele>
      </trkpt>
      <trkpt lat="44.31471" lon="6.82363">
        <time>2023-04-10T11:01:15+00:00</time>
        <ele>2668.0</ele>
      </trkpt>
      <trkpt lat="44.31471" lon="6.82363">
        <time>2023-04-10T11:01:16+00:00</time>
        <ele>2668.0</ele>
      </trkpt>
      <trkpt lat="44.31471" lon="6.82363">
        <time>2023-04-10T11:01:17+00:00</time>
        <ele>2668.0</ele>
      </trkpt>
      <trkpt lat="44.31471" lon="6.82363">
        <time>2023-04-10T11:01:18+00:00</time>
        <ele>2668.0</ele>
      </trkpt>
      <trkpt lat="44.31471" lon="6.82363">
        <time>2023-04-10T11:01:19+00:00</time>
        <ele>2668.0</ele>
      </trkpt>
      <trkpt lat="44.31471" lon="6.82363">
        <time>2023-04-10T11:01:20+00:00</time>
        <ele>2668.0</ele>
      </trkpt>
      <trkpt lat="44.31471" lon="6.82363">
        <time>2023-04-10T11:01:21+00:00</time>
        <ele>2668.0</ele>
      </trkpt>
      <trkpt lat="44.31471" lon="6.82363">
        <time>2023-04-10T11:01:22+00:00</time>
        <ele>2668.0</ele>
      </trkpt>
      <trkpt lat="44.31471" lon="6.82363">
        <time>2023-04-10T11:01:23+00:00</time>
        <ele>2668.0</ele>
      </trkpt>
      <trkpt lat="44.31471" lon="6.82363">
        <time>2023-04-10T11:01:24+00:00</time>
        <ele>2668.0</ele>
      </trkpt>
      <trkpt lat="44.31471" lon="6.82363">
        <time>2023-04-10T11:01:25+00:00</time>
        <ele>2668.0</ele>
      </trkpt>
      <trkpt lat="44.31471" lon="6.82363">
        <time>2023-04-10T11:01:26+00:00</time>
        <ele>2668.0</ele>
      </trkpt>
      <trkpt lat="44.31471" lon="6.82363">
        <time>2023-04-10T11:01:27+00:00</time>
        <ele>2668.0</ele>
      </trkpt>
      <trkpt lat="44.31471" lon="6.82363">
        <time>2023-04-10T11:01:28+00:00</time>
        <ele>2668.0</ele>
      </trkpt>
      <trkpt lat="44.31471" lon="6.82363">
        <time>2023-04-10T11:01:29+00:00</time>
        <ele>2668.0</ele>
      </trkpt>
      <trkpt lat="44.31471" lon="6.82363">
        <time>2023-04-10T11:01:30+00:00</time>
        <ele>2668.0</ele>
      </trkpt>
      <trkpt lat="44.31471" lon="6.82363">
        <time>2023-04-10T11:01:31+00:00</time>
        <ele>2668.0</ele>
      </trkpt>
      <trkpt lat="44.31471" lon="6.82363">
        <time>2023-04-10T11:01:32+00:00</time>
        <ele>2668.0</ele>
      </trkpt>
      <trkpt lat="44.31471" lon="6.82363">
        <time>2023-04-10T11:01:33+00:00</time>
        <ele>2668.0</ele>
      </trkpt>
      <trkpt lat="44.31471" lon="6.82363">
        <time>2023-04-10T11:01:34+00:00</time>
        <ele>2668.0</ele>
      </trkpt>
      <trkpt lat="44.31471" lon="6.82363">
        <time>2023-04-10T11:01:35+00:00</time>
        <ele>2668.0</ele>
      </trkpt>
      <trkpt lat="44.31471" lon="6.82363">
        <time>2023-04-10T11:01:36+00:00</time>
        <ele>2668.0</ele>
      </trkpt>
      <trkpt lat="44.31471" lon="6.82363">
        <time>2023-04-10T11:01:37+00:00</time>
        <ele>2668.0</ele>
      </trkpt>
      <trkpt lat="44.31471" lon="6.82363">
        <time>2023-04-10T11:01:38+00:00</time>
        <ele>2668.0</ele>
      </trkpt>
      <trkpt lat="44.31471" lon="6.82363">
        <time>2023-04-10T11:01:39+00:00</time>
        <ele>2668.0</ele>
      </trkpt>
      <trkpt lat="44.31473" lon="6.82364">
        <time>2023-04-10T11:01:40+00:00</time>
        <ele>2666.0</ele>
      </trkpt>
      <trkpt lat="44.31476" lon="6.82367">
        <time>2023-04-10T11:01:41+00:00</time>
        <ele>2664.0</ele>
      </trkpt>
      <trkpt lat="44.31476" lon="6.82372">
        <time>2023-04-10T11:01:42+00:00</time>
        <ele>2661.0</ele>
      </trkpt>
      <trkpt lat="44.31477" lon="6.82372">
        <time>2023-04-10T11:01:43+00:00</time>
        <ele>2661.0</ele>
      </trkpt>
      <trkpt lat="44.31477" lon="6.82373">
        <time>2023-04-10T11:01:44+00:00</time>
        <ele>2660.0</ele>
      </trkpt>
      <trkpt lat="44.31477" lon="6.82373">
        <time>2023-04-10T11:01:45+00:00</time>
        <ele>2660.0</ele>
      </trkpt>
      <trkpt lat="44.31477" lon="6.82373">
        <time>2023-04-10T11:01:46+00:00</time>
        <ele>2660.0</ele>
      </trkpt>
      <trkpt lat="44.31477" lon="6.82374">
        <time>2023-04-10T11:01:47+00:00</time>
        <ele>2660.0</ele>
      </trkpt>
      <trkpt lat="44.31478" lon="6.82374">
        <time>2023-04-10T11:01:48+00:00</time>
        <ele>2659.0</ele>
      </trkpt>
      <trkpt lat="44.31478" lon="6.82375">
        <time>2023-04-10T11:01:49+00:00</time>
        <ele>2659.0</ele>
      </trkpt>
      <trkpt lat="44.31478" lon="6.82375">
        <time>2023-04-10T11:01:50+00:00</time>
        <ele>2659.0</ele>
      </trkpt>
      <trkpt lat="44.31478" lon="6.82376">
        <time>2023-04-10T11:01:51+00:00</time>
        <ele>2658.0</ele>
      </trkpt>
      <trkpt lat="44.31478" lon="6.82376">
        <time>2023-04-10T11:01:52+00:00</time>
        <ele>2658.0</ele>
      </trkpt>
      <trkpt lat="44.31478" lon="6.82377">
        <time>2023-04-10T11:01:53+00:00</time>
        <ele>2658.0</ele>
      </trkpt>
      <trkpt lat="44.31479" lon="6.82377">
        <time>2023-04-10T11:01:54+00:00</time>
        <ele>2657.0</ele>
      </trkpt>
      <trkpt lat="44.31479" lon="6.82377">
        <time>2023-04-10T11:01:55+00:00</time>
        <ele>2657.0</ele>
      </trkpt>
      <trkpt lat="44.31479" lon="6.82378">
        <time>2023-04-10T11:01:56+00:00</time>
        <ele>2657.0</ele>
      </trkpt>
      <trkpt lat="44.31479" lon="6.82378">
        <time>2023-04-10T11:01:57+00:00</time>
        <ele>2657.0</ele>
      </trkpt>
      <trkpt lat="44.31479" lon="6.82379">
        <time>2023-04-10T11:01:58+00:00</time>
        <ele>2656.0</ele>
      </trkpt>
      <trkpt lat="44.3148" lon="6.82379">
        <time>2023-04-10T11:01:59+00:00</time>
        <ele>2656.0</ele>
      </trkpt>
      <trkpt lat="44.3148" lon="6.8238">
        <time>2023-04-10T11:02:00+00:00</time>
        <ele>2655.0</ele>
      </trkpt>
      <trkpt lat="44.3148" lon="6.8238">
        <time>2023-04-10T11:02:01+00:00</time>
        <ele>2655.0</ele>
      </trkpt>
      <trkpt lat="44.3148" lon="6.8238">
        <time>2023-04-10T11:02:02+00:00</time>
        <ele>2655.0</ele>
      </trkpt>
      <trkpt lat="44.3148" lon="6.82381">
        <time>2023-04-10T11:02:03+00:00</time>
        <ele>2655.0</ele>
      </trkpt>
      <trkpt lat="44.3148" lon="6.82381">
        <time>2023-04-10T11:02:04+00:00</time>
        <ele>2655.0</ele>
      </trkpt>
      <trkpt lat="44.31481" lon="6.82382">
        <time>2023-04-10T11:02:05+00:00</time>
        <ele>2654.0</ele>
      </trkpt>
      <trkpt lat="44.31481" lon="6.82382">
        <time>2023-04-10T11:02:06+00:00</time>
        <ele>2654.0</ele>
      </trkpt>
      <trkpt lat="44.31481" lon="6.82383">
        <time>2023-04-10T11:02:07+00:00</time>
        <ele>2653.0</ele>
      </trkpt>
      <trkpt lat="44.31481" lon="6.82383">
        <time>2023-04-10T11:02:08+00:00</time>
        <ele>2653.0</ele>
      </trkpt>
      <trkpt lat="44.31481" lon="6.82384">
        <time>2023-04-10T11:02:09+00:00</time>
        <ele>2653.0</ele>
      </trkpt>
      <trkpt lat="44.31482" lon="6.82384">
        <time>2023-04-10T11:02:10+00:00</time>
        <ele>2652.0</ele>
      </trkpt>
      <trkpt lat="44.31482" lon="6.82384">
        <time>2023-04-10T11:02:11+00:00</time>
        <ele>2652.0</ele>
      </trkpt>
      <trkpt lat="44.31482" lon="6.82385">
        <time>2023-04-10T11:02:12+00:00</time>
        <ele>2652.0</ele>
      </trkpt>
      <trkpt lat="44.31482" lon="6.82385">
        <time>2023-04-10T11:02:13+00:00</time>
        <ele>2652.0</ele>
      </trkpt>
      <trkpt lat="44.31482" lon="6.82385">
        <time>2023-04-10T11:02:14+00:00</time>
        <ele>2652.0</ele>
      </trkpt>
      <trkpt lat="44.31482" lon="6.82385">
        <time>2023-04-10T11:02:15+00:00</time>
        <ele>2652.0</ele>
      </trkpt>
      <trkpt lat="44.31482" lon="6.82385">
        <time>2023-04-10T11:02:16+00:00</time>
        <ele>2652.0</ele>
      </trkpt>
      <trkpt lat="44.31482" lon="6.82385">
        <time>2023-04-10T11:02:17+00:00</time>
        <ele>2652.0</ele>
      </trkpt>
      <trkpt lat="44.31484" lon="6.82383">
        <time>2023-04-10T11:02:18+00:00</time>
        <ele>2652.0</ele>
      </trkpt>
      <trkpt lat="44.31486" lon="6.82382">
        <time>2023-04-10T11:02:19+00:00</time>
        <ele>2651.0</ele>
      </trkpt>
      <trkpt lat="44.3149" lon="6.82379">
        <time>2023-04-10T11:02:20+00:00</time>
        <ele>2650.0</ele>
      </trkpt>
      <trkpt lat="44.31493" lon="6.82376">
        <time>2023-04-10T11:02:21+00:00</time>
        <ele>2650.0</ele>
      </trkpt>
      <trkpt lat="44.31496" lon="6.82373">
        <time>2023-04-10T11:02:22+00:00</time>
        <ele>2650.0</ele>
      </trkpt>
      <trkpt lat="44.315" lon="6.8237">
        <time>2023-04-10T11:02:23+00:00</time>
        <ele>2650.0</ele>
      </trkpt>
      <trkpt lat="44.31504" lon="6.82367">
        <time>2023-04-10T11:02:24+00:00</time>
        <ele>2649.0</ele>
      </trkpt>
      <trkpt lat="44.31508" lon="6.82364">
        <time>2023-04-10T11:02:25+00:00</time>
        <ele>2648.0</ele>
      </trkpt>
      <trkpt lat="44.31511" lon="6.8236">
        <time>2023-04-10T11:02:26+00:00</time>
        <ele>2648.0</ele>
      </trkpt>
      <trkpt lat="44.31515" lon="6.82357">
        <time>2023-04-10T11:02:27+00:00</time>
        <ele>2647.0</ele>
      </trkpt>
      <trkpt lat="44.31517" lon="6.82354">
        <time>2023-04-10T11:02:28+00:00</time>
        <ele>2648.0</ele>
      </trkpt>
      <trkpt lat="44.31519" lon="6.82351">
        <time>2023-04-10T11:02:29+00:00</time>
        <ele>2648.0</ele>
      </trkpt>
      <trkpt lat="44.31521" lon="6.82348">
        <time>2023-04-10T11:02:30+00:00</time>
        <ele>2648.0</ele>
      </trkpt>
      <trkpt lat="44.31522" lon="6.82346">
        <time>2023-04-10T11:02:31+00:00</time>
        <ele>2649.0</ele>
      </trkpt>
      <trkpt lat="44.31522" lon="6.82346">
        <time>2023-04-10T11:02:32+00:00</time>
        <ele>2649.0</ele>
      </trkpt>
      <trkpt lat="44.31522" lon="6.82346">
        <time>2023-04-10T11:02:33+00:00</time>
        <ele>2649.0</ele>
      </trkpt>
      <trkpt lat="44.31522" lon="6.82346">
        <time>2023-04-10T11:02:34+00:00</time>
        <ele>2649.0</ele>
      </trkpt>
      <trkpt lat="44.31524" lon="6.82344">
        <time>2023-04-10T11:02:35+00:00</time>
        <ele>2649.0</ele>
      </trkpt>
      <trkpt lat="44.31524" lon="6.82344">
        <time>2023-04-10T11:02:36+00:00</time>
        <ele>2649.0</ele>
      </trkpt>
      <trkpt lat="44.31524" lon="6.82344">
        <time>2023-04-10T11:02:37+00:00</time>
        <ele>2649.0</ele>
      </trkpt>
      <trkpt lat="44.31524" lon="6.82344">
        <time>2023-04-10T11:02:38+00:00</time>
        <ele>2649.0</ele>
      </trkpt>
      <trkpt lat="44.31524" lon="6.82344">
        <time>2023-04-10T11:02:39+00:00</time>
        <ele>2649.0</ele>
      </trkpt>
      <trkpt lat="44.31524" lon="6.82344">
        <time>2023-04-10T11:02:40+00:00</time>
        <ele>2649.0</ele>
      </trkpt>
      <trkpt lat="44.31524" lon="6.82344">
        <time>2023-04-10T11:02:41+00:00</time>
        <ele>2649.0</ele>
      </trkpt>
      <trkpt lat="44.31524" lon="6.82344">
        <time>2023-04-10T11:02:42+00:00</time>
        <ele>2649.0</ele>
      </trkpt>
      <trkpt lat="44.31525" lon="6.82343">
        <time>2023-04-10T11:02:43+00:00</time>
        <ele>2649.0</ele>
      </trkpt>
      <trkpt lat="44.31527" lon="6.82341">
        <time>2023-04-10T11:02:44+00:00</time>
        <ele>2648.0</ele>
      </trkpt>
      <trkpt lat="44.31531" lon="6.82338">
        <time>2023-04-10T11:02:45+00:00</time>
        <ele>2647.0</ele>
      </trkpt>
      <trkpt lat="44.31531" lon="6.82338">
        <time>2023-04-10T11:02:46+00:00</time>
        <ele>2647.0</ele>
      </trkpt>
      <trkpt lat="44.31532" lon="6.82337">
        <time>2023-04-10T11:02:47+00:00</time>
        <ele>2647.0</ele>
      </trkpt>
      <trkpt lat="44.31533" lon="6.82337">
        <time>2023-04-10T11:02:48+00:00</time>
        <ele>2646.0</ele>
      </trkpt>
      <trkpt lat="44.31533" lon="6.82336">
        <time>2023-04-10T11:02:49+00:00</time>
        <ele>2647.0</ele>
      </trkpt>
      <trkpt lat="44.31534" lon="6.82336">
        <time>2023-04-10T11:02:50+00:00</time>
        <ele>2646.0</ele>
      </trkpt>
      <trkpt lat="44.31535" lon="6.82335">
        <time>2023-04-10T11:02:51+00:00</time>
        <ele>2646.0</ele>
      </trkpt>
      <trkpt lat="44.31535" lon="6.82335">
        <time>2023-04-10T11:02:52+00:00</time>
        <ele>2646.0</ele>
      </trkpt>
      <trkpt lat="44.31536" lon="6.82334">
        <time>2023-04-10T11:02:53+00:00</time>
        <ele>2646.0</ele>
      </trkpt>
      <trkpt lat="44.31537" lon="6.82334">
        <time>2023-04-10T11:02:54+00:00</time>
        <ele>2645.0</ele>
      </trkpt>
      <trkpt lat="44.31538" lon="6.82333">
        <time>2023-04-10T11:02:55+00:00</time>
        <ele>2645.0</ele>
      </trkpt>
      <trkpt lat="44.31538" lon="6.82333">
        <time>2023-04-10T11:02:56+00:00</time>
        <ele>2645.0</ele>
      </trkpt>
      <trkpt lat="44.31539" lon="6.82332">
        <time>2023-04-10T11:02:57+00:00</time>
        <ele>2645.0</ele>
      </trkpt>
      <trkpt lat="44.3154" lon="6.82332">
        <time>2023-04-10T11:02:58+00:00</time>
        <ele>2645.0</ele>
      </trkpt>
      <trkpt lat="44.3154" lon="6.82331">
        <time>2023-04-10T11:02:59+00:00</time>
        <ele>2645.0</ele>
      </trkpt>
      <trkpt lat="44.31541" lon="6.82331">
        <time>2023-04-10T11:03:00+00:00</time>
        <ele>2645.0</ele>
      </trkpt>
      <trkpt lat="44.31542" lon="6.82331">
        <time>2023-04-10T11:03:01+00:00</time>
        <ele>2644.0</ele>
      </trkpt>
      <trkpt lat="44.31542" lon="6.8233">
        <time>2023-04-10T11:03:02+00:00</time>
        <ele>2645.0</ele>
      </trkpt>
      <trkpt lat="44.31543" lon="6.8233">
        <time>2023-04-10T11:03:03+00:00</time>
        <ele>2644.0</ele>
      </trkpt>
      <trkpt lat="44.31544" lon="6.82329">
        <time>2023-04-10T11:03:04+00:00</time>
        <ele>2644.0</ele>
      </trkpt>
      <trkpt lat="44.31544" lon="6.82329">
        <time>2023-04-10T11:03:05+00:00</time>
        <ele>2644.0</ele>
      </trkpt>
      <trkpt lat="44.31545" lon="6.82328">
        <time>2023-04-10T11:03:06+00:00</time>
        <ele>2644.0</ele>
      </trkpt>
      <trkpt lat="44.31546" lon="6.82328">
        <time>2023-04-10T11:03:07+00:00</time>
        <ele>2643.0</ele>
      </trkpt>
      <trkpt lat="44.31547" lon="6.82327">
        <time>2023-04-10T11:03:08+00:00</time>
        <ele>2643.0</ele>
      </trkpt>
      <trkpt lat="44.31547" lon="6.82327">
        <time>2023-04-10T11:03:09+00:00</time>
        <ele>2643.0</ele>
      </trkpt>
      <trkpt lat="44.31547" lon="6.82327">
        <time>2023-04-10T11:03:10+00:00</time>
        <ele>2643.0</ele>
      </trkpt>
      <trkpt lat="44.31547" lon="6.82327">
        <time>2023-04-10T11:03:11+00:00</time>
        <ele>2643.0</ele>
      </trkpt>
      <trkpt lat="44.31547" lon="6.82327">
        <time>2023-04-10T11:03:12+00:00</time>
        <ele>2643.0</ele>
      </trkpt>
      <trkpt lat="44.31547" lon="6.82327">
        <time>2023-04-10T11:03:13+00:00</time>
        <ele>2643.0</ele>
      </trkpt>
      <trkpt lat="44.31547" lon="6.82327">
        <time>2023-04-10T11:03:14+00:00</time>
        <ele>2643.0</ele>
      </trkpt>
      <trkpt lat="44.31547" lon="6.82327">
        <time>2023-04-10T11:03:15+00:00</time>
        <ele>2643.0</ele>
      </trkpt>
      <trkpt lat="44.31552" lon="6.82322">
        <time>2023-04-10T11:03:16+00:00</time>
        <ele>2644.0</ele>
      </trkpt>
      <trkpt lat="44.31555" lon="6.82319">
        <time>2023-04-10T11:03:17+00:00</time>
        <ele>2644.0</ele>
      </trkpt>
      <trkpt lat="44.31559" lon="6.82316">
        <time>2023-04-10T11:03:18+00:00</time>
        <ele>2644.0</ele>
      </trkpt>
      <trkpt lat="44.31564" lon="6.82313">
        <time>2023-04-10T11:03:19+00:00</time>
        <ele>2643.0</ele>
      </trkpt>
      <trkpt lat="44.31568" lon="6.8231">
        <time>2023-04-10T11:03:20+00:00</time>
        <ele>2643.0</ele>
      </trkpt>
      <trkpt lat="44.31573" lon="6.82307">
        <time>2023-04-10T11:03:21+00:00</time>
        <ele>2643.0</ele>
      </trkpt>
      <trkpt lat="44.31577" lon="6.82304">
        <time>2023-04-10T11:03:22+00:00</time>
        <ele>2642.0</ele>
      </trkpt>
      <trkpt lat="44.31582" lon="6.82301">
        <time>2023-04-10T11:03:23+00:00</time>
        <ele>2642.0</ele>
      </trkpt>
      <trkpt lat="44.31587" lon="6.82298">
        <time>2023-04-10T11:03:24+00:00</time>
        <ele>2641.0</ele>
      </trkpt>
      <trkpt lat="44.31591" lon="6.82296">
        <time>2023-04-10T11:03:25+00:00</time>
        <ele>2640.0</ele>
      </trkpt>
      <trkpt lat="44.31597" lon="6.82293">
        <time>2023-04-10T11:03:26+00:00</time>
        <ele>2639.0</ele>
      </trkpt>
      <trkpt lat="44.31602" lon="6.82291">
        <time>2023-04-10T11:03:27+00:00</time>
        <ele>2637.0</ele>
      </trkpt>
      <trkpt lat="44.31607" lon="6.82289">
        <time>2023-04-10T11:03:28+00:00</time>
        <ele>2636.0</ele>
      </trkpt>
      <trkpt lat="44.31611" lon="6.82286">
        <time>2023-04-10T11:03:29+00:00</time>
        <ele>2636.0</ele>
      </trkpt>
      <trkpt lat="44.31615" lon="6.82285">
        <time>2023-04-10T11:03:30+00:00</time>
        <ele>2634.0</ele>
      </trkpt>
      <trkpt lat="44.31619" lon="6.82287">
        <time>2023-04-10T11:03:31+00:00</time>
        <ele>2631.0</ele>
      </trkpt>
      <trkpt lat="44.31621" lon="6.8229">
        <time>2023-04-10T11:03:32+00:00</time>
        <ele>2628.0</ele>
      </trkpt>
      <trkpt lat="44.31624" lon="6.82293">
        <time>2023-04-10T11:03:33+00:00</time>
        <ele>2625.0</ele>
      </trkpt>
      <trkpt lat="44.31628" lon="6.82295">
        <time>2023-04-10T11:03:34+00:00</time>
        <ele>2623.0</ele>
      </trkpt>
      <trkpt lat="44.31631" lon="6.82296">
        <time>2023-04-10T11:03:35+00:00</time>
        <ele>2621.0</ele>
      </trkpt>
      <trkpt lat="44.31633" lon="6.82297">
        <time>2023-04-10T11:03:36+00:00</time>
        <ele>2620.0</ele>
      </trkpt>
      <trkpt lat="44.31635" lon="6.82298">
        <time>2023-04-10T11:03:37+00:00</time>
        <ele>2619.0</ele>
      </trkpt>
      <trkpt lat="44.31635" lon="6.82298">
        <time>2023-04-10T11:03:38+00:00</time>
        <ele>2619.0</ele>
      </trkpt>
      <trkpt lat="44.31635" lon="6.82298">
        <time>2023-04-10T11:03:39+00:00</time>
        <ele>2619.0</ele>
      </trkpt>
      <trkpt lat="44.31635" lon="6.82298">
        <time>2023-04-10T11:03:40+00:00</time>
        <ele>2619.0</ele>
      </trkpt>
      <trkpt lat="44.31635" lon="6.82298">
        <time>2023-04-10T11:03:41+00:00</time>
        <ele>2619.0</ele>
      </trkpt>
      <trkpt lat="44.31635" lon="6.82298">
        <time>2023-04-10T11:03:42+00:00</time>
        <ele>2619.0</ele>
      </trkpt>
      <trkpt lat="44.31635" lon="6.82298">
        <time>2023-04-10T11:03:43+00:00</time>
        <ele>2619.0</ele>
      </trkpt>
      <trkpt lat="44.31635" lon="6.82298">
        <time>2023-04-10T11:03:44+00:00</time>
        <ele>2619.0</ele>
      </trkpt>
      <trkpt lat="44.31635" lon="6.82298">
        <time>2023-04-10T11:03:45+00:00</time>
        <ele>2619.0</ele>
      </trkpt>
      <trkpt lat="44.31635" lon="6.82298">
        <time>2023-04-10T11:03:46+00:00</time>
        <ele>2619.0</ele>
      </trkpt>
      <trkpt lat="44.31635" lon="6.82298">
        <time>2023-04-10T11:03:47+00:00</time>
        <ele>2619.0</ele>
      </trkpt>
      <trkpt lat="44.31635" lon="6.82298">
        <time>2023-04-10T11:03:48+00:00</time>
        <ele>2619.0</ele>
      </trkpt>
      <trkpt lat="44.31635" lon="6.82298">
        <time>2023-04-10T11:03:49+00:00</time>
        <ele>2619.0</ele>
      </trkpt>
      <trkpt lat="44.31635" lon="6.82298">
        <time>2023-04-10T11:03:50+00:00</time>
        <ele>2619.0</ele>
      </trkpt>
      <trkpt lat="44.31635" lon="6.82298">
        <time>2023-04-10T11:03:51+00:00</time>
        <ele>2619.0</ele>
      </trkpt>
      <trkpt lat="44.31635" lon="6.82298">
        <time>2023-04-10T11:03:52+00:00</time>
        <ele>2619.0</ele>
      </trkpt>
      <trkpt lat="44.31635" lon="6.82298">
        <time>2023-04-10T11:03:53+00:00</time>
        <ele>2619.0</ele>
      </trkpt>
      <trkpt lat="44.31635" lon="6.82298">
        <time>2023-04-10T11:03:54+00:00</time>
        <ele>2619.0</ele>
      </trkpt>
      <trkpt lat="44.31635" lon="6.82298">
        <time>2023-04-10T11:03:55+00:00</time>
        <ele>2619.0</ele>
      </trkpt>
      <trkpt lat="44.31635" lon="6.82298">
        <time>2023-04-10T11:03:56+00:00</time>
        <ele>2619.0</ele>
      </trkpt>
      <trkpt lat="44.31635" lon="6.82298">
        <time>2023-04-10T11:03:57+00:00</time>
        <ele>2619.0</ele>
      </trkpt>
      <trkpt lat="44.31635" lon="6.82298">
        <time>2023-04-10T11:03:58+00:00</time>
        <ele>2619.0</ele>
      </trkpt>
      <trkpt lat="44.31635" lon="6.82298">
        <time>2023-04-10T11:03:59+00:00</time>
        <ele>2619.0</ele>
      </trkpt>
      <trkpt lat="44.31635" lon="6.82298">
        <time>2023-04-10T11:04:00+00:00</time>
        <ele>2619.0</ele>
      </trkpt>
      <trkpt lat="44.31635" lon="6.82298">
        <time>2023-04-10T11:04:01+00:00</time>
        <ele>2619.0</ele>
      </trkpt>
      <trkpt lat="44.31635" lon="6.82298">
        <time>2023-04-10T11:04:02+00:00</time>
        <ele>2619.0</ele>
      </trkpt>
      <trkpt lat="44.31635" lon="6.82298">
        <time>2023-04-10T11:04:03+00:00</time>
        <ele>2619.0</ele>
      </trkpt>
      <trkpt lat="44.31635" lon="6.82298">
        <time>2023-04-10T11:04:04+00:00</time>
        <ele>2619.0</ele>
      </trkpt>
      <trkpt lat="44.31635" lon="6.82298">
        <time>2023-04-10T11:04:05+00:00</time>
        <ele>2619.0</ele>
      </trkpt>
      <trkpt lat="44.31635" lon="6.82298">
        <time>2023-04-10T11:04:06+00:00</time>
        <ele>2619.0</ele>
      </trkpt>
      <trkpt lat="44.31635" lon="6.82298">
        <time>2023-04-10T11:04:07+00:00</time>
        <ele>2619.0</ele>
      </trkpt>
      <trkpt lat="44.31635" lon="6.82298">
        <time>2023-04-10T11:04:08+00:00</time>
        <ele>2619.0</ele>
      </trkpt>
      <trkpt lat="44.31635" lon="6.82298">
        <time>2023-04-10T11:04:09+00:00</time>
        <ele>2619.0</ele>
      </trkpt>
      <trkpt lat="44.31635" lon="6.82298">
        <time>2023-04-10T11:04:10+00:00</time>
        <ele>2619.0</ele>
      </trkpt>
      <trkpt lat="44.31635" lon="6.82298">
        <time>2023-04-10T11:04:11+00:00</time>
        <ele>2619.0</ele>
      </trkpt>
      <trkpt lat="44.31635" lon="6.82298">
        <time>2023-04-10T11:04:12+00:00</time>
        <ele>2619.0</ele>
      </trkpt>
      <trkpt lat="44.31635" lon="6.82298">
        <time>2023-04-10T11:04:13+00:00</time>
        <ele>2619.0</ele>
      </trkpt>
      <trkpt lat="44.31635" lon="6.82298">
        <time>2023-04-10T11:04:14+00:00</time>
        <ele>2619.0</ele>
      </trkpt>
      <trkpt lat="44.31637" lon="6.82299">
        <time>2023-04-10T11:04:15+00:00</time>
        <ele>2618.0</ele>
      </trkpt>
      <trkpt lat="44.31641" lon="6.82299">
        <time>2023-04-10T11:04:16+00:00</time>
        <ele>2616.0</ele>
      </trkpt>
      <trkpt lat="44.31643" lon="6.82299">
        <time>2023-04-10T11:04:17+00:00</time>
        <ele>2616.0</ele>
      </trkpt>
      <trkpt lat="44.31644" lon="6.82299">
        <time>2023-04-10T11:04:18+00:00</time>
        <ele>2615.0</ele>
      </trkpt>
      <trkpt lat="44.31644" lon="6.82299">
        <time>2023-04-10T11:04:19+00:00</time>
        <ele>2615.0</ele>
      </trkpt>
      <trkpt lat="44.31644" lon="6.82299">
        <time>2023-04-10T11:04:20+00:00</time>
        <ele>2615.0</ele>
      </trkpt>
      <trkpt lat="44.31644" lon="6.82299">
        <time>2023-04-10T11:04:21+00:00</time>
        <ele>2615.0</ele>
      </trkpt>
      <trkpt lat="44.31644" lon="6.82299">
        <time>2023-04-10T11:04:22+00:00</time>
        <ele>2615.0</ele>
      </trkpt>
      <trkpt lat="44.31644" lon="6.82299">
        <time>2023-04-10T11:04:23+00:00</time>
        <ele>2615.0</ele>
      </trkpt>
      <trkpt lat="44.31644" lon="6.82299">
        <time>2023-04-10T11:04:24+00:00</time>
        <ele>2615.0</ele>
      </trkpt>
      <trkpt lat="44.31644" lon="6.82299">
        <time>2023-04-10T11:04:25+00:00</time>
        <ele>2615.0</ele>
      </trkpt>
      <trkpt lat="44.31645" lon="6.82299">
        <time>2023-04-10T11:04:26+00:00</time>
        <ele>2615.0</ele>
      </trkpt>
      <trkpt lat="44.31645" lon="6.82299">
        <time>2023-04-10T11:04:27+00:00</time>
        <ele>2615.0</ele>
      </trkpt>
      <trkpt lat="44.31645" lon="6.82299">
        <time>2023-04-10T11:04:28+00:00</time>
        <ele>2615.0</ele>
      </trkpt>
      <trkpt lat="44.31645" lon="6.82299">
        <time>2023-04-10T11:04:29+00:00</time>
        <ele>2615.0</ele>
      </trkpt>
      <trkpt lat="44.31645" lon="6.82299">
        <time>2023-04-10T11:04:30+00:00</time>
        <ele>2615.0</ele>
      </trkpt>
      <trkpt lat="44.31645" lon="6.82299">
        <time>2023-04-10T11:04:31+00:00</time>
        <ele>2615.0</ele>
      </trkpt>
      <trkpt lat="44.31645" lon="6.82299">
        <time>2023-04-10T11:04:32+00:00</time>
        <ele>2615.0</ele>
      </trkpt>
      <trkpt lat="44.31645" lon="6.82299">
        <time>2023-04-10T11:04:33+00:00</time>
        <ele>2615.0</ele>
      </trkpt>
      <trkpt lat="44.31646" lon="6.82299">
        <time>2023-04-10T11:04:34+00:00</time>
        <ele>2615.0</ele>
      </trkpt>
      <trkpt lat="44.31646" lon="6.82299">
        <time>2023-04-10T11:04:35+00:00</time>
        <ele>2615.0</ele>
      </trkpt>
      <trkpt lat="44.31646" lon="6.82299">
        <time>2023-04-10T11:04:36+00:00</time>
        <ele>2615.0</ele>
      </trkpt>
      <trkpt lat="44.31646" lon="6.82299">
        <time>2023-04-10T11:04:37+00:00</time>
        <ele>2615.0</ele>
      </trkpt>
      <trkpt lat="44.31646" lon="6.82299">
        <time>2023-04-10T11:04:38+00:00</time>
        <ele>2615.0</ele>
      </trkpt>
      <trkpt lat="44.31646" lon="6.82299">
        <time>2023-04-10T11:04:39+00:00</time>
        <ele>2615.0</ele>
      </trkpt>
      <trkpt lat="44.31646" lon="6.82299">
        <time>2023-04-10T11:04:40+00:00</time>
        <ele>2615.0</ele>
      </trkpt>
      <trkpt lat="44.31647" lon="6.82299">
        <time>2023-04-10T11:04:41+00:00</time>
        <ele>2615.0</ele>
      </trkpt>
      <trkpt lat="44.31647" lon="6.82299">
        <time>2023-04-10T11:04:42+00:00</time>
        <ele>2615.0</ele>
      </trkpt>
      <trkpt lat="44.31647" lon="6.82299">
        <time>2023-04-10T11:04:43+00:00</time>
        <ele>2615.0</ele>
      </trkpt>
      <trkpt lat="44.31647" lon="6.82299">
        <time>2023-04-10T11:04:44+00:00</time>
        <ele>2615.0</ele>
      </trkpt>
      <trkpt lat="44.31647" lon="6.82299">
        <time>2023-04-10T11:04:45+00:00</time>
        <ele>2615.0</ele>
      </trkpt>
      <trkpt lat="44.31647" lon="6.82299">
        <time>2023-04-10T11:04:46+00:00</time>
        <ele>2615.0</ele>
      </trkpt>
      <trkpt lat="44.31647" lon="6.82299">
        <time>2023-04-10T11:04:47+00:00</time>
        <ele>2615.0</ele>
      </trkpt>
      <trkpt lat="44.31647" lon="6.82299">
        <time>2023-04-10T11:04:48+00:00</time>
        <ele>2615.0</ele>
      </trkpt>
      <trkpt lat="44.31648" lon="6.82299">
        <time>2023-04-10T11:04:49+00:00</time>
        <ele>2614.0</ele>
      </trkpt>
      <trkpt lat="44.31648" lon="6.82299">
        <time>2023-04-10T11:04:50+00:00</time>
        <ele>2614.0</ele>
      </trkpt>
      <trkpt lat="44.31648" lon="6.82299">
        <time>2023-04-10T11:04:51+00:00</time>
        <ele>2614.0</ele>
      </trkpt>
      <trkpt lat="44.31648" lon="6.82299">
        <time>2023-04-10T11:04:52+00:00</time>
        <ele>2614.0</ele>
      </trkpt>
      <trkpt lat="44.31648" lon="6.82299">
        <time>2023-04-10T11:04:53+00:00</time>
        <ele>2614.0</ele>
      </trkpt>
      <trkpt lat="44.31648" lon="6.82299">
        <time>2023-04-10T11:04:54+00:00</time>
        <ele>2614.0</ele>
      </trkpt>
      <trkpt lat="44.31648" lon="6.823">
        <time>2023-04-10T11:04:55+00:00</time>
        <ele>2614.0</ele>
      </trkpt>
      <trkpt lat="44.31648" lon="6.823">
        <time>2023-04-10T11:04:56+00:00</time>
        <ele>2614.0</ele>
      </trkpt>
      <trkpt lat="44.31649" lon="6.823">
        <time>2023-04-10T11:04:57+00:00</time>
        <ele>2613.0</ele>
      </trkpt>
      <trkpt lat="44.31649" lon="6.823">
        <time>2023-04-10T11:04:58+00:00</time>
        <ele>2613.0</ele>
      </trkpt>
      <trkpt lat="44.31649" lon="6.823">
        <time>2023-04-10T11:04:59+00:00</time>
        <ele>2613.0</ele>
      </trkpt>
      <trkpt lat="44.31649" lon="6.823">
        <time>2023-04-10T11:05:00+00:00</time>
        <ele>2613.0</ele>
      </trkpt>
      <trkpt lat="44.31649" lon="6.823">
        <time>2023-04-10T11:05:01+00:00</time>
        <ele>2613.0</ele>
      </trkpt>
      <trkpt lat="44.31649" lon="6.823">
        <time>2023-04-10T11:05:02+00:00</time>
        <ele>2613.0</ele>
      </trkpt>
      <trkpt lat="44.31649" lon="6.823">
        <time>2023-04-10T11:05:03+00:00</time>
        <ele>2613.0</ele>
      </trkpt>
      <trkpt lat="44.31649" lon="6.823">
        <time>2023-04-10T11:05:04+00:00</time>
        <ele>2613.0</ele>
      </trkpt>
      <trkpt lat="44.31649" lon="6.823">
        <time>2023-04-10T11:05:05+00:00</time>
        <ele>2613.0</ele>
      </trkpt>
      <trkpt lat="44.31652" lon="6.82299">
        <time>2023-04-10T11:05:06+00:00</time>
        <ele>2613.0</ele>
      </trkpt>
      <trkpt lat="44.31654" lon="6.82299">
        <time>2023-04-10T11:05:07+00:00</time>
        <ele>2613.0</ele>
      </trkpt>
      <trkpt lat="44.31659" lon="6.82299">
        <time>2023-04-10T11:05:08+00:00</time>
        <ele>2612.0</ele>
      </trkpt>
      <trkpt lat="44.31665" lon="6.82299">
        <time>2023-04-10T11:05:09+00:00</time>
        <ele>2610.0</ele>
      </trkpt>
      <trkpt lat="44.31671" lon="6.82298">
        <time>2023-04-10T11:05:10+00:00</time>
        <ele>2609.0</ele>
      </trkpt>
      <trkpt lat="44.31677" lon="6.823">
        <time>2023-04-10T11:05:11+00:00</time>
        <ele>2606.0</ele>
      </trkpt>
      <trkpt lat="44.31681" lon="6.82305">
        <time>2023-04-10T11:05:12+00:00</time>
        <ele>2601.0</ele>
      </trkpt>
      <trkpt lat="44.31682" lon="6.82312">
        <time>2023-04-10T11:05:13+00:00</time>
        <ele>2596.0</ele>
      </trkpt>
      <trkpt lat="44.31686" lon="6.8232">
        <time>2023-04-10T11:05:14+00:00</time>
        <ele>2590.0</ele>
      </trkpt>
      <trkpt lat="44.31691" lon="6.82328">
        <time>2023-04-10T11:05:15+00:00</time>
        <ele>2584.0</ele>
      </trkpt>
      <trkpt lat="44.31694" lon="6.82336">
        <time>2023-04-10T11:05:16+00:00</time>
        <ele>2578.0</ele>
      </trkpt>
      <trkpt lat="44.31695" lon="6.82345">
        <time>2023-04-10T11:05:17+00:00</time>
        <ele>2573.0</ele>
      </trkpt>
      <trkpt lat="44.31696" lon="6.82354">
        <time>2023-04-10T11:05:18+00:00</time>
        <ele>2568.0</ele>
      </trkpt>
      <trkpt lat="44.31697" lon="6.82363">
        <time>2023-04-10T11:05:19+00:00</time>
        <ele>2564.0</ele>
      </trkpt>
      <trkpt lat="44.31698" lon="6.82375">
        <time>2023-04-10T11:05:20+00:00</time>
        <ele>2557.0</ele>
      </trkpt>
      <trkpt lat="44.31696" lon="6.82387">
        <time>2023-04-10T11:05:21+00:00</time>
        <ele>2552.0</ele>
      </trkpt>
      <trkpt lat="44.31694" lon="6.82399">
        <time>2023-04-10T11:05:22+00:00</time>
        <ele>2546.0</ele>
      </trkpt>
      <trkpt lat="44.31695" lon="6.82414">
        <time>2023-04-10T11:05:23+00:00</time>
        <ele>2539.0</ele>
      </trkpt>
      <trkpt lat="44.31694" lon="6.82424">
        <time>2023-04-10T11:05:24+00:00</time>
        <ele>2534.0</ele>
      </trkpt>
      <trkpt lat="44.31692" lon="6.82436">
        <time>2023-04-10T11:05:25+00:00</time>
        <ele>2529.0</ele>
      </trkpt>
      <trkpt lat="44.31693" lon="6.82445">
        <time>2023-04-10T11:05:26+00:00</time>
        <ele>2524.0</ele>
      </trkpt>
      <trkpt lat="44.31696" lon="6.82456">
        <time>2023-04-10T11:05:27+00:00</time>
        <ele>2518.0</ele>
      </trkpt>
      <trkpt lat="44.31698" lon="6.82465">
        <time>2023-04-10T11:05:28+00:00</time>
        <ele>2513.0</ele>
      </trkpt>
      <trkpt lat="44.317" lon="6.82475">
        <time>2023-04-10T11:05:29+00:00</time>
        <ele>2507.0</ele>
      </trkpt>
      <trkpt lat="44.31701" lon="6.82491">
        <time>2023-04-10T11:05:30+00:00</time>
        <ele>2498.0</ele>
      </trkpt>
      <trkpt lat="44.31698" lon="6.825">
        <time>2023-04-10T11:05:31+00:00</time>
        <ele>2494.0</ele>
      </trkpt>
      <trkpt lat="44.31695" lon="6.82515">
        <time>2023-04-10T11:05:32+00:00</time>
        <ele>2488.0</ele>
      </trkpt>
      <trkpt lat="44.31696" lon="6.82523">
        <time>2023-04-10T11:05:33+00:00</time>
        <ele>2484.0</ele>
      </trkpt>
      <trkpt lat="44.31698" lon="6.82533">
        <time>2023-04-10T11:05:34+00:00</time>
        <ele>2479.0</ele>
      </trkpt>
      <trkpt lat="44.317" lon="6.82546">
        <time>2023-04-10T11:05:35+00:00</time>
        <ele>2473.0</ele>
      </trkpt>
      <trkpt lat="44.31703" lon="6.82558">
        <time>2023-04-10T11:05:36+00:00</time>
        <ele>2467.0</ele>
      </trkpt>
      <trkpt lat="44.31708" lon="6.82572">
        <time>2023-04-10T11:05:37+00:00</time>
        <ele>2460.0</ele>
      </trkpt>
      <trkpt lat="44.3171" lon="6.82588">
        <time>2023-04-10T11:05:38+00:00</time>
        <ele>2453.0</ele>
      </trkpt>
      <trkpt lat="44.31715" lon="6.82609">
        <time>2023-04-10T11:05:39+00:00</time>
        <ele>2444.0</ele>
      </trkpt>
      <trkpt lat="44.31718" lon="6.82625">
        <time>2023-04-10T11:05:40+00:00</time>
        <ele>2439.0</ele>
      </trkpt>
      <trkpt lat="44.31722" lon="6.82647">
        <time>2023-04-10T11:05:41+00:00</time>
        <ele>2432.0</ele>
      </trkpt>
      <trkpt lat="44.31727" lon="6.82676">
        <time>2023-04-10T11:05:42+00:00</time>
        <ele>2425.0</ele>
      </trkpt>
      <trkpt lat="44.31731" lon="6.82694">
        <time>2023-04-10T11:05:43+00:00</time>
        <ele>2420.0</ele>
      </trkpt>
      <trkpt lat="44.31736" lon="6.8272">
        <time>2023-04-10T11:05:44+00:00</time>
        <ele>2414.0</ele>
      </trkpt>
      <trkpt lat="44.3174" lon="6.82741">
        <time>2023-04-10T11:05:45+00:00</time>
        <ele>2410.0</ele>
      </trkpt>
      <trkpt lat="44.31743" lon="6.82761">
        <time>2023-04-10T11:05:46+00:00</time>
        <ele>2408.0</ele>
      </trkpt>
      <trkpt lat="44.31743" lon="6.82777">
        <time>2023-04-10T11:05:47+00:00</time>
        <ele>2407.0</ele>
      </trkpt>
      <trkpt lat="44.31742" lon="6.82794">
        <time>2023-04-10T11:05:48+00:00</time>
        <ele>2406.0</ele>
      </trkpt>
      <trkpt lat="44.31739" lon="6.82809">
        <time>2023-04-10T11:05:49+00:00</time>
        <ele>2406.0</ele>
      </trkpt>
      <trkpt lat="44.31735" lon="6.82821">
        <time>2023-04-10T11:05:50+00:00</time>
        <ele>2407.0</ele>
      </trkpt>
      <trkpt lat="44.31732" lon="6.82831">
        <time>2023-04-10T11:05:51+00:00</time>
        <ele>2406.0</ele>
      </trkpt>
      <trkpt lat="44.31731" lon="6.82838">
        <time>2023-04-10T11:05:52+00:00</time>
        <ele>2405.0</ele>
      </trkpt>
      <trkpt lat="44.31729" lon="6.82842">
        <time>2023-04-10T11:05:53+00:00</time>
        <ele>2405.0</ele>
      </trkpt>
      <trkpt lat="44.31729" lon="6.82842">
        <time>2023-04-10T11:05:54+00:00</time>
        <ele>2405.0</ele>
      </trkpt>
      <trkpt lat="44.31727" lon="6.82841">
        <time>2023-04-10T11:05:55+00:00</time>
        <ele>2405.0</ele>
      </trkpt>
      <trkpt lat="44.31727" lon="6.82841">
        <time>2023-04-10T11:05:56+00:00</time>
        <ele>2405.0</ele>
      </trkpt>
      <trkpt lat="44.31727" lon="6.82841">
        <time>2023-04-10T11:05:57+00:00</time>
        <ele>2405.0</ele>
      </trkpt>
      <trkpt lat="44.31729" lon="6.82838">
        <time>2023-04-10T11:05:58+00:00</time>
        <ele>2405.0</ele>
      </trkpt>
      <trkpt lat="44.31729" lon="6.82838">
        <time>2023-04-10T11:05:59+00:00</time>
        <ele>2405.0</ele>
      </trkpt>
      <trkpt lat="44.31729" lon="6.82838">
        <time>2023-04-10T11:06:00+00:00</time>
        <ele>2405.0</ele>
      </trkpt>
      <trkpt lat="44.31729" lon="6.82838">
        <time>2023-04-10T11:06:01+00:00</time>
        <ele>2405.0</ele>
      </trkpt>
      <trkpt lat="44.31729" lon="6.82838">
        <time>2023-04-10T11:06:02+00:00</time>
        <ele>2405.0</ele>
      </trkpt>
      <trkpt lat="44.31729" lon="6.82838">
        <time>2023-04-10T11:06:03+00:00</time>
        <ele>2405.0</ele>
      </trkpt>
      <trkpt lat="44.31729" lon="6.82838">
        <time>2023-04-10T11:06:04+00:00</time>
        <ele>2405.0</ele>
      </trkpt>
      <trkpt lat="44.31729" lon="6.82838">
        <time>2023-04-10T11:06:05+00:00</time>
        <ele>2405.0</ele>
      </trkpt>
      <trkpt lat="44.31729" lon="6.82838">
        <time>2023-04-10T11:06:06+00:00</time>
        <ele>2405.0</ele>
      </trkpt>
      <trkpt lat="44.31729" lon="6.82838">
        <time>2023-04-10T11:06:07+00:00</time>
        <ele>2405.0</ele>
      </trkpt>
      <trkpt lat="44.31729" lon="6.82838">
        <time>2023-04-10T11:06:08+00:00</time>
        <ele>2405.0</ele>
      </trkpt>
      <trkpt lat="44.31729" lon="6.82838">
        <time>2023-04-10T11:06:09+00:00</time>
        <ele>2405.0</ele>
      </trkpt>
      <trkpt lat="44.31729" lon="6.82838">
        <time>2023-04-10T11:06:10+00:00</time>
        <ele>2405.0</ele>
      </trkpt>
      <trkpt lat="44.31729" lon="6.82838">
        <time>2023-04-10T11:06:11+00:00</time>
        <ele>2405.0</ele>
      </trkpt>
      <trkpt lat="44.31729" lon="6.82838">
        <time>2023-04-10T11:06:12+00:00</time>
        <ele>2405.0</ele>
      </trkpt>
      <trkpt lat="44.31729" lon="6.82838">
        <time>2023-04-10T11:06:13+00:00</time>
        <ele>2405.0</ele>
      </trkpt>
      <trkpt lat="44.31729" lon="6.82838">
        <time>2023-04-10T11:06:14+00:00</time>
        <ele>2405.0</ele>
      </trkpt>
      <trkpt lat="44.31729" lon="6.82838">
        <time>2023-04-10T11:06:15+00:00</time>
        <ele>2405.0</ele>
      </trkpt>
      <trkpt lat="44.31729" lon="6.82838">
        <time>2023-04-10T11:06:16+00:00</time>
        <ele>2405.0</ele>
      </trkpt>
      <trkpt lat="44.31729" lon="6.82838">
        <time>2023-04-10T11:06:17+00:00</time>
        <ele>2405.0</ele>
      </trkpt>
      <trkpt lat="44.31729" lon="6.82838">
        <time>2023-04-10T11:06:18+00:00</time>
        <ele>2405.0</ele>
      </trkpt>
      <trkpt lat="44.31729" lon="6.82838">
        <time>2023-04-10T11:06:19+00:00</time>
        <ele>2405.0</ele>
      </trkpt>
      <trkpt lat="44.31729" lon="6.82838">
        <time>2023-04-10T11:06:20+00:00</time>
        <ele>2405.0</ele>
      </trkpt>
      <trkpt lat="44.31729" lon="6.82838">
        <time>2023-04-10T11:06:21+00:00</time>
        <ele>2405.0</ele>
      </trkpt>
      <trkpt lat="44.31729" lon="6.82838">
        <time>2023-04-10T11:06:22+00:00</time>
        <ele>2405.0</ele>
      </trkpt>
      <trkpt lat="44.31729" lon="6.82838">
        <time>2023-04-10T11:06:23+00:00</time>
        <ele>2405.0</ele>
      </trkpt>
      <trkpt lat="44.31729" lon="6.82838">
        <time>2023-04-10T11:06:24+00:00</time>
        <ele>2405.0</ele>
      </trkpt>
      <trkpt lat="44.31729" lon="6.82838">
        <time>2023-04-10T11:06:25+00:00</time>
        <ele>2405.0</ele>
      </trkpt>
      <trkpt lat="44.31729" lon="6.82838">
        <time>2023-04-10T11:06:26+00:00</time>
        <ele>2405.0</ele>
      </trkpt>
      <trkpt lat="44.31729" lon="6.82838">
        <time>2023-04-10T11:06:27+00:00</time>
        <ele>2405.0</ele>
      </trkpt>
      <trkpt lat="44.31729" lon="6.82838">
        <time>2023-04-10T11:06:28+00:00</time>
        <ele>2405.0</ele>
      </trkpt>
      <trkpt lat="44.31729" lon="6.82838">
        <time>2023-04-10T11:06:29+00:00</time>
        <ele>2405.0</ele>
      </trkpt>
      <trkpt lat="44.31729" lon="6.82838">
        <time>2023-04-10T11:06:30+00:00</time>
        <ele>2405.0</ele>
      </trkpt>
      <trkpt lat="44.31729" lon="6.82838">
        <time>2023-04-10T11:06:31+00:00</time>
        <ele>2405.0</ele>
      </trkpt>
      <trkpt lat="44.31729" lon="6.82838">
        <time>2023-04-10T11:06:32+00:00</time>
        <ele>2405.0</ele>
      </trkpt>
      <trkpt lat="44.31729" lon="6.82838">
        <time>2023-04-10T11:06:33+00:00</time>
        <ele>2405.0</ele>
      </trkpt>
      <trkpt lat="44.31729" lon="6.82838">
        <time>2023-04-10T11:06:34+00:00</time>
        <ele>2405.0</ele>
      </trkpt>
      <trkpt lat="44.31729" lon="6.82838">
        <time>2023-04-10T11:06:35+00:00</time>
        <ele>2405.0</ele>
      </trkpt>
      <trkpt lat="44.31729" lon="6.82838">
        <time>2023-04-10T11:06:36+00:00</time>
        <ele>2405.0</ele>
      </trkpt>
      <trkpt lat="44.31729" lon="6.82838">
        <time>2023-04-10T11:06:37+00:00</time>
        <ele>2405.0</ele>
      </trkpt>
      <trkpt lat="44.31729" lon="6.82838">
        <time>2023-04-10T11:06:38+00:00</time>
        <ele>2405.0</ele>
      </trkpt>
      <trkpt lat="44.31729" lon="6.82838">
        <time>2023-04-10T11:06:39+00:00</time>
        <ele>2405.0</ele>
      </trkpt>
      <trkpt lat="44.31729" lon="6.82838">
        <time>2023-04-10T11:06:40+00:00</time>
        <ele>2405.0</ele>
      </trkpt>
      <trkpt lat="44.31729" lon="6.82838">
        <time>2023-04-10T11:06:41+00:00</time>
        <ele>2405.0</ele>
      </trkpt>
      <trkpt lat="44.31729" lon="6.82838">
        <time>2023-04-10T11:06:42+00:00</time>
        <ele>2405.0</ele>
      </trkpt>
      <trkpt lat="44.31729" lon="6.82838">
        <time>2023-04-10T11:06:43+00:00</time>
        <ele>2405.0</ele>
      </trkpt>
      <trkpt lat="44.31729" lon="6.82838">
        <time>2023-04-10T11:06:44+00:00</time>
        <ele>2405.0</ele>
      </trkpt>
      <trkpt lat="44.31729" lon="6.82838">
        <time>2023-04-10T11:06:45+00:00</time>
        <ele>2405.0</ele>
      </trkpt>
      <trkpt lat="44.31729" lon="6.82838">
        <time>2023-04-10T11:06:46+00:00</time>
        <ele>2405.0</ele>
      </trkpt>
      <trkpt lat="44.31729" lon="6.82838">
        <time>2023-04-10T11:06:47+00:00</time>
        <ele>2405.0</ele>
      </trkpt>
      <trkpt lat="44.31729" lon="6.82838">
        <time>2023-04-10T11:06:48+00:00</time>
        <ele>2405.0</ele>
      </trkpt>
      <trkpt lat="44.31729" lon="6.82838">
        <time>2023-04-10T11:06:49+00:00</time>
        <ele>2405.0</ele>
      </trkpt>
      <trkpt lat="44.31729" lon="6.82838">
        <time>2023-04-10T11:06:50+00:00</time>
        <ele>2405.0</ele>
      </trkpt>
      <trkpt lat="44.31729" lon="6.82838">
        <time>2023-04-10T11:06:51+00:00</time>
        <ele>2405.0</ele>
      </trkpt>
      <trkpt lat="44.31729" lon="6.82838">
        <time>2023-04-10T11:06:52+00:00</time>
        <ele>2405.0</ele>
      </trkpt>
      <trkpt lat="44.31729" lon="6.82838">
        <time>2023-04-10T11:06:53+00:00</time>
        <ele>2405.0</ele>
      </trkpt>
      <trkpt lat="44.31729" lon="6.82838">
        <time>2023-04-10T11:06:54+00:00</time>
        <ele>2405.0</ele>
      </trkpt>
      <trkpt lat="44.31729" lon="6.82838">
        <time>2023-04-10T11:06:55+00:00</time>
        <ele>2405.0</ele>
      </trkpt>
      <trkpt lat="44.31729" lon="6.82838">
        <time>2023-04-10T11:06:56+00:00</time>
        <ele>2405.0</ele>
      </trkpt>
      <trkpt lat="44.31729" lon="6.82838">
        <time>2023-04-10T11:06:57+00:00</time>
        <ele>2405.0</ele>
      </trkpt>
      <trkpt lat="44.31729" lon="6.82838">
        <time>2023-04-10T11:06:58+00:00</time>
        <ele>2405.0</ele>
      </trkpt>
      <trkpt lat="44.31729" lon="6.82838">
        <time>2023-04-10T11:06:59+00:00</time>
        <ele>2405.0</ele>
      </trkpt>
      <trkpt lat="44.31729" lon="6.82838">
        <time>2023-04-10T11:07:00+00:00</time>
        <ele>2405.0</ele>
      </trkpt>
      <trkpt lat="44.31729" lon="6.82838">
        <time>2023-04-10T11:07:01+00:00</time>
        <ele>2405.0</ele>
      </trkpt>
      <trkpt lat="44.31729" lon="6.82838">
        <time>2023-04-10T11:07:02+00:00</time>
        <ele>2405.0</ele>
      </trkpt>
      <trkpt lat="44.31729" lon="6.82838">
        <time>2023-04-10T11:07:03+00:00</time>
        <ele>2405.0</ele>
      </trkpt>
      <trkpt lat="44.31729" lon="6.82838">
        <time>2023-04-10T11:07:04+00:00</time>
        <ele>2405.0</ele>
      </trkpt>
      <trkpt lat="44.31729" lon="6.82838">
        <time>2023-04-10T11:07:05+00:00</time>
        <ele>2405.0</ele>
      </trkpt>
      <trkpt lat="44.31729" lon="6.82838">
        <time>2023-04-10T11:07:06+00:00</time>
        <ele>2405.0</ele>
      </trkpt>
      <trkpt lat="44.31729" lon="6.82838">
        <time>2023-04-10T11:07:07+00:00</time>
        <ele>2405.0</ele>
      </trkpt>
      <trkpt lat="44.31729" lon="6.82838">
        <time>2023-04-10T11:07:08+00:00</time>
        <ele>2405.0</ele>
      </trkpt>
      <trkpt lat="44.31729" lon="6.82838">
        <time>2023-04-10T11:07:09+00:00</time>
        <ele>2405.0</ele>
      </trkpt>
      <trkpt lat="44.31729" lon="6.82838">
        <time>2023-04-10T11:07:10+00:00</time>
        <ele>2405.0</ele>
      </trkpt>
      <trkpt lat="44.31729" lon="6.82838">
        <time>2023-04-10T11:07:11+00:00</time>
        <ele>2405.0</ele>
      </trkpt>
      <trkpt lat="44.31729" lon="6.82838">
        <time>2023-04-10T11:07:12+00:00</time>
        <ele>2405.0</ele>
      </trkpt>
      <trkpt lat="44.31729" lon="6.82838">
        <time>2023-04-10T11:07:13+00:00</time>
        <ele>2405.0</ele>
      </trkpt>
      <trkpt lat="44.31729" lon="6.82838">
        <time>2023-04-10T11:07:14+00:00</time>
        <ele>2405.0</ele>
      </trkpt>
      <trkpt lat="44.31729" lon="6.82838">
        <time>2023-04-10T11:07:15+00:00</time>
        <ele>2405.0</ele>
      </trkpt>
      <trkpt lat="44.31729" lon="6.82838">
        <time>2023-04-10T11:07:16+00:00</time>
        <ele>2405.0</ele>
      </trkpt>
      <trkpt lat="44.31729" lon="6.82838">
        <time>2023-04-10T11:07:17+00:00</time>
        <ele>2405.0</ele>
      </trkpt>
      <trkpt lat="44.31729" lon="6.82838">
        <time>2023-04-10T11:07:18+00:00</time>
        <ele>2405.0</ele>
      </trkpt>
      <trkpt lat="44.31729" lon="6.82838">
        <time>2023-04-10T11:07:19+00:00</time>
        <ele>2405.0</ele>
      </trkpt>
      <trkpt lat="44.31729" lon="6.82838">
        <time>2023-04-10T11:07:20+00:00</time>
        <ele>2405.0</ele>
      </trkpt>
      <trkpt lat="44.31729" lon="6.82838">
        <time>2023-04-10T11:07:21+00:00</time>
        <ele>2405.0</ele>
      </trkpt>
      <trkpt lat="44.31729" lon="6.82838">
        <time>2023-04-10T11:07:22+00:00</time>
        <ele>2405.0</ele>
      </trkpt>
      <trkpt lat="44.31729" lon="6.82838">
        <time>2023-04-10T11:07:23+00:00</time>
        <ele>2405.0</ele>
      </trkpt>
      <trkpt lat="44.31729" lon="6.82838">
        <time>2023-04-10T11:07:24+00:00</time>
        <ele>2405.0</ele>
      </trkpt>
      <trkpt lat="44.31729" lon="6.82838">
        <time>2023-04-10T11:07:25+00:00</time>
        <ele>2405.0</ele>
      </trkpt>
      <trkpt lat="44.31729" lon="6.82838">
        <time>2023-04-10T11:07:26+00:00</time>
        <ele>2405.0</ele>
      </trkpt>
      <trkpt lat="44.31729" lon="6.82838">
        <time>2023-04-10T11:07:27+00:00</time>
        <ele>2405.0</ele>
      </trkpt>
      <trkpt lat="44.31729" lon="6.82838">
        <time>2023-04-10T11:07:28+00:00</time>
        <ele>2405.0</ele>
      </trkpt>
      <trkpt lat="44.31729" lon="6.82838">
        <time>2023-04-10T11:07:29+00:00</time>
        <ele>2405.0</ele>
      </trkpt>
      <trkpt lat="44.31729" lon="6.82838">
        <time>2023-04-10T11:07:30+00:00</time>
        <ele>2405.0</ele>
      </trkpt>
      <trkpt lat="44.31729" lon="6.82838">
        <time>2023-04-10T11:07:31+00:00</time>
        <ele>2405.0</ele>
      </trkpt>
      <trkpt lat="44.31729" lon="6.82838">
        <time>2023-04-10T11:07:32+00:00</time>
        <ele>2405.0</ele>
      </trkpt>
      <trkpt lat="44.31729" lon="6.82838">
        <time>2023-04-10T11:07:33+00:00</time>
        <ele>2405.0</ele>
      </trkpt>
      <trkpt lat="44.31729" lon="6.82838">
        <time>2023-04-10T11:07:34+00:00</time>
        <ele>2405.0</ele>
      </trkpt>
      <trkpt lat="44.31729" lon="6.82838">
        <time>2023-04-10T11:07:35+00:00</time>
        <ele>2405.0</ele>
      </trkpt>
      <trkpt lat="44.31729" lon="6.82838">
        <time>2023-04-10T11:07:36+00:00</time>
        <ele>2405.0</ele>
      </trkpt>
      <trkpt lat="44.31729" lon="6.82838">
        <time>2023-04-10T11:07:37+00:00</time>
        <ele>2405.0</ele>
      </trkpt>
      <trkpt lat="44.31729" lon="6.82838">
        <time>2023-04-10T11:07:38+00:00</time>
        <ele>2405.0</ele>
      </trkpt>
      <trkpt lat="44.31729" lon="6.82838">
        <time>2023-04-10T11:07:39+00:00</time>
        <ele>2405.0</ele>
      </trkpt>
      <trkpt lat="44.31729" lon="6.82838">
        <time>2023-04-10T11:07:40+00:00</time>
        <ele>2405.0</ele>
      </trkpt>
      <trkpt lat="44.31729" lon="6.82838">
        <time>2023-04-10T11:07:41+00:00</time>
        <ele>2405.0</ele>
      </trkpt>
      <trkpt lat="44.31729" lon="6.82838">
        <time>2023-04-10T11:07:42+00:00</time>
        <ele>2405.0</ele>
      </trkpt>
      <trkpt lat="44.31729" lon="6.82838">
        <time>2023-04-10T11:07:43+00:00</time>
        <ele>2405.0</ele>
      </trkpt>
      <trkpt lat="44.31729" lon="6.82838">
        <time>2023-04-10T11:07:44+00:00</time>
        <ele>2405.0</ele>
      </trkpt>
      <trkpt lat="44.31729" lon="6.82838">
        <time>2023-04-10T11:07:45+00:00</time>
        <ele>2405.0</ele>
      </trkpt>
      <trkpt lat="44.31729" lon="6.82838">
        <time>2023-04-10T11:07:46+00:00</time>
        <ele>2405.0</ele>
      </trkpt>
      <trkpt lat="44.31729" lon="6.82838">
        <time>2023-04-10T11:07:47+00:00</time>
        <ele>2405.0</ele>
      </trkpt>
      <trkpt lat="44.31729" lon="6.82838">
        <time>2023-04-10T11:07:48+00:00</time>
        <ele>2405.0</ele>
      </trkpt>
      <trkpt lat="44.31729" lon="6.82838">
        <time>2023-04-10T11:07:49+00:00</time>
        <ele>2405.0</ele>
      </trkpt>
      <trkpt lat="44.31729" lon="6.82838">
        <time>2023-04-10T11:07:50+00:00</time>
        <ele>2405.0</ele>
      </trkpt>
      <trkpt lat="44.31729" lon="6.82838">
        <time>2023-04-10T11:07:51+00:00</time>
        <ele>2405.0</ele>
      </trkpt>
      <trkpt lat="44.31729" lon="6.82838">
        <time>2023-04-10T11:07:52+00:00</time>
        <ele>2405.0</ele>
      </trkpt>
      <trkpt lat="44.31729" lon="6.82838">
        <time>2023-04-10T11:07:53+00:00</time>
        <ele>2405.0</ele>
      </trkpt>
      <trkpt lat="44.31729" lon="6.82838">
        <time>2023-04-10T11:07:54+00:00</time>
        <ele>2405.0</ele>
      </trkpt>
      <trkpt lat="44.31729" lon="6.82838">
        <time>2023-04-10T11:07:55+00:00</time>
        <ele>2405.0</ele>
      </trkpt>
      <trkpt lat="44.31729" lon="6.82838">
        <time>2023-04-10T11:07:56+00:00</time>
        <ele>2405.0</ele>
      </trkpt>
      <trkpt lat="44.31729" lon="6.82838">
        <time>2023-04-10T11:07:57+00:00</time>
        <ele>2405.0</ele>
      </trkpt>
      <trkpt lat="44.31729" lon="6.82838">
        <time>2023-04-10T11:07:58+00:00</time>
        <ele>2405.0</ele>
      </trkpt>
      <trkpt lat="44.31729" lon="6.82838">
        <time>2023-04-10T11:07:59+00:00</time>
        <ele>2405.0</ele>
      </trkpt>
      <trkpt lat="44.31729" lon="6.82838">
        <time>2023-04-10T11:08:00+00:00</time>
        <ele>2405.0</ele>
      </trkpt>
      <trkpt lat="44.31729" lon="6.82838">
        <time>2023-04-10T11:08:01+00:00</time>
        <ele>2405.0</ele>
      </trkpt>
      <trkpt lat="44.31729" lon="6.82838">
        <time>2023-04-10T11:08:02+00:00</time>
        <ele>2405.0</ele>
      </trkpt>
      <trkpt lat="44.31729" lon="6.82838">
        <time>2023-04-10T11:08:03+00:00</time>
        <ele>2405.0</ele>
      </trkpt>
      <trkpt lat="44.31729" lon="6.82838">
        <time>2023-04-10T11:08:04+00:00</time>
        <ele>2405.0</ele>
      </trkpt>
      <trkpt lat="44.31729" lon="6.82838">
        <time>2023-04-10T11:08:05+00:00</time>
        <ele>2405.0</ele>
      </trkpt>
      <trkpt lat="44.31729" lon="6.82838">
        <time>2023-04-10T11:08:06+00:00</time>
        <ele>2405.0</ele>
      </trkpt>
      <trkpt lat="44.31729" lon="6.82838">
        <time>2023-04-10T11:08:07+00:00</time>
        <ele>2405.0</ele>
      </trkpt>
      <trkpt lat="44.31729" lon="6.82838">
        <time>2023-04-10T11:08:08+00:00</time>
        <ele>2405.0</ele>
      </trkpt>
      <trkpt lat="44.31729" lon="6.82838">
        <time>2023-04-10T11:08:09+00:00</time>
        <ele>2405.0</ele>
      </trkpt>
      <trkpt lat="44.31729" lon="6.82838">
        <time>2023-04-10T11:08:10+00:00</time>
        <ele>2405.0</ele>
      </trkpt>
      <trkpt lat="44.31729" lon="6.82838">
        <time>2023-04-10T11:08:11+00:00</time>
        <ele>2405.0</ele>
      </trkpt>
      <trkpt lat="44.31729" lon="6.82838">
        <time>2023-04-10T11:08:12+00:00</time>
        <ele>2405.0</ele>
      </trkpt>
      <trkpt lat="44.31729" lon="6.82838">
        <time>2023-04-10T11:08:13+00:00</time>
        <ele>2405.0</ele>
      </trkpt>
      <trkpt lat="44.31729" lon="6.82838">
        <time>2023-04-10T11:08:14+00:00</time>
        <ele>2405.0</ele>
      </trkpt>
      <trkpt lat="44.31729" lon="6.82838">
        <time>2023-04-10T11:08:15+00:00</time>
        <ele>2405.0</ele>
      </trkpt>
      <trkpt lat="44.31729" lon="6.82838">
        <time>2023-04-10T11:08:16+00:00</time>
        <ele>2405.0</ele>
      </trkpt>
      <trkpt lat="44.31729" lon="6.82838">
        <time>2023-04-10T11:08:17+00:00</time>
        <ele>2405.0</ele>
      </trkpt>
      <trkpt lat="44.31729" lon="6.82838">
        <time>2023-04-10T11:08:18+00:00</time>
        <ele>2405.0</ele>
      </trkpt>
      <trkpt lat="44.31729" lon="6.82838">
        <time>2023-04-10T11:08:19+00:00</time>
        <ele>2405.0</ele>
      </trkpt>
      <trkpt lat="44.31729" lon="6.82838">
        <time>2023-04-10T11:08:20+00:00</time>
        <ele>2405.0</ele>
      </trkpt>
      <trkpt lat="44.31729" lon="6.82838">
        <time>2023-04-10T11:08:21+00:00</time>
        <ele>2405.0</ele>
      </trkpt>
      <trkpt lat="44.31729" lon="6.82838">
        <time>2023-04-10T11:08:22+00:00</time>
        <ele>2405.0</ele>
      </trkpt>
      <trkpt lat="44.31729" lon="6.82838">
        <time>2023-04-10T11:08:23+00:00</time>
        <ele>2405.0</ele>
      </trkpt>
      <trkpt lat="44.31729" lon="6.82838">
        <time>2023-04-10T11:08:24+00:00</time>
        <ele>2405.0</ele>
      </trkpt>
      <trkpt lat="44.31729" lon="6.82838">
        <time>2023-04-10T11:08:25+00:00</time>
        <ele>2405.0</ele>
      </trkpt>
      <trkpt lat="44.31729" lon="6.82838">
        <time>2023-04-10T11:08:26+00:00</time>
        <ele>2405.0</ele>
      </trkpt>
      <trkpt lat="44.31729" lon="6.82838">
        <time>2023-04-10T11:08:27+00:00</time>
        <ele>2405.0</ele>
      </trkpt>
      <trkpt lat="44.31729" lon="6.82838">
        <time>2023-04-10T11:08:28+00:00</time>
        <ele>2405.0</ele>
      </trkpt>
      <trkpt lat="44.31729" lon="6.82838">
        <time>2023-04-10T11:08:29+00:00</time>
        <ele>2405.0</ele>
      </trkpt>
      <trkpt lat="44.31729" lon="6.82838">
        <time>2023-04-10T11:08:30+00:00</time>
        <ele>2405.0</ele>
      </trkpt>
      <trkpt lat="44.31729" lon="6.82838">
        <time>2023-04-10T11:08:31+00:00</time>
        <ele>2405.0</ele>
      </trkpt>
      <trkpt lat="44.31729" lon="6.82838">
        <time>2023-04-10T11:08:32+00:00</time>
        <ele>2405.0</ele>
      </trkpt>
      <trkpt lat="44.31729" lon="6.82838">
        <time>2023-04-10T11:08:33+00:00</time>
        <ele>2405.0</ele>
      </trkpt>
      <trkpt lat="44.31729" lon="6.82838">
        <time>2023-04-10T11:08:34+00:00</time>
        <ele>2405.0</ele>
      </trkpt>
      <trkpt lat="44.31729" lon="6.82838">
        <time>2023-04-10T11:08:35+00:00</time>
        <ele>2405.0</ele>
      </trkpt>
      <trkpt lat="44.31729" lon="6.82838">
        <time>2023-04-10T11:08:36+00:00</time>
        <ele>2405.0</ele>
      </trkpt>
      <trkpt lat="44.31729" lon="6.82838">
        <time>2023-04-10T11:08:37+00:00</time>
        <ele>2405.0</ele>
      </trkpt>
      <trkpt lat="44.31729" lon="6.82838">
        <time>2023-04-10T11:08:38+00:00</time>
        <ele>2405.0</ele>
      </trkpt>
      <trkpt lat="44.31729" lon="6.82838">
        <time>2023-04-10T11:08:39+00:00</time>
        <ele>2405.0</ele>
      </trkpt>
      <trkpt lat="44.31729" lon="6.82838">
        <time>2023-04-10T11:08:40+00:00</time>
        <ele>2405.0</ele>
      </trkpt>
      <trkpt lat="44.31729" lon="6.82838">
        <time>2023-04-10T11:08:41+00:00</time>
        <ele>2405.0</ele>
      </trkpt>
      <trkpt lat="44.31729" lon="6.82838">
        <time>2023-04-10T11:08:42+00:00</time>
        <ele>2405.0</ele>
      </trkpt>
      <trkpt lat="44.31729" lon="6.82838">
        <time>2023-04-10T11:08:43+00:00</time>
        <ele>2405.0</ele>
      </trkpt>
      <trkpt lat="44.31729" lon="6.82838">
        <time>2023-04-10T11:08:44+00:00</time>
        <ele>2405.0</ele>
      </trkpt>
      <trkpt lat="44.31729" lon="6.82838">
        <time>2023-04-10T11:08:45+00:00</time>
        <ele>2405.0</ele>
      </trkpt>
      <trkpt lat="44.31729" lon="6.82838">
        <time>2023-04-10T11:08:46+00:00</time>
        <ele>2405.0</ele>
      </trkpt>
      <trkpt lat="44.31729" lon="6.82838">
        <time>2023-04-10T11:08:47+00:00</time>
        <ele>2405.0</ele>
      </trkpt>
      <trkpt lat="44.31729" lon="6.82838">
        <time>2023-04-10T11:08:48+00:00</time>
        <ele>2405.0</ele>
      </trkpt>
      <trkpt lat="44.31729" lon="6.82838">
        <time>2023-04-10T11:08:49+00:00</time>
        <ele>2405.0</ele>
      </trkpt>
      <trkpt lat="44.31729" lon="6.82838">
        <time>2023-04-10T11:08:50+00:00</time>
        <ele>2405.0</ele>
      </trkpt>
      <trkpt lat="44.31729" lon="6.82838">
        <time>2023-04-10T11:08:51+00:00</time>
        <ele>2405.0</ele>
      </trkpt>
      <trkpt lat="44.31729" lon="6.82838">
        <time>2023-04-10T11:08:52+00:00</time>
        <ele>2405.0</ele>
      </trkpt>
      <trkpt lat="44.31729" lon="6.82838">
        <time>2023-04-10T11:08:53+00:00</time>
        <ele>2405.0</ele>
      </trkpt>
      <trkpt lat="44.31729" lon="6.82838">
        <time>2023-04-10T11:08:54+00:00</time>
        <ele>2405.0</ele>
      </trkpt>
      <trkpt lat="44.31729" lon="6.82838">
        <time>2023-04-10T11:08:55+00:00</time>
        <ele>2405.0</ele>
      </trkpt>
      <trkpt lat="44.31728" lon="6.82839">
        <time>2023-04-10T11:08:56+00:00</time>
        <ele>2405.0</ele>
      </trkpt>
      <trkpt lat="44.31728" lon="6.8284">
        <time>2023-04-10T11:08:57+00:00</time>
        <ele>2405.0</ele>
      </trkpt>
      <trkpt lat="44.31727" lon="6.82842">
        <time>2023-04-10T11:08:58+00:00</time>
        <ele>2405.0</ele>
      </trkpt>
      <trkpt lat="44.31727" lon="6.82845">
        <time>2023-04-10T11:08:59+00:00</time>
        <ele>2404.0</ele>
      </trkpt>
      <trkpt lat="44.31726" lon="6.82849">
        <time>2023-04-10T11:09:00+00:00</time>
        <ele>2404.0</ele>
      </trkpt>
      <trkpt lat="44.31726" lon="6.82854">
        <time>2023-04-10T11:09:01+00:00</time>
        <ele>2402.0</ele>
      </trkpt>
      <trkpt lat="44.31725" lon="6.82859">
        <time>2023-04-10T11:09:02+00:00</time>
        <ele>2400.0</ele>
      </trkpt>
      <trkpt lat="44.31724" lon="6.82865">
        <time>2023-04-10T11:09:03+00:00</time>
        <ele>2398.0</ele>
      </trkpt>
      <trkpt lat="44.31722" lon="6.82873">
        <time>2023-04-10T11:09:04+00:00</time>
        <ele>2395.0</ele>
      </trkpt>
      <trkpt lat="44.31719" lon="6.82878">
        <time>2023-04-10T11:09:05+00:00</time>
        <ele>2392.0</ele>
      </trkpt>
      <trkpt lat="44.31715" lon="6.82883">
        <time>2023-04-10T11:09:06+00:00</time>
        <ele>2390.0</ele>
      </trkpt>
      <trkpt lat="44.31713" lon="6.82885">
        <time>2023-04-10T11:09:07+00:00</time>
        <ele>2389.0</ele>
      </trkpt>
      <trkpt lat="44.31713" lon="6.82885">
        <time>2023-04-10T11:09:08+00:00</time>
        <ele>2389.0</ele>
      </trkpt>
      <trkpt lat="44.31713" lon="6.82885">
        <time>2023-04-10T11:09:09+00:00</time>
        <ele>2389.0</ele>
      </trkpt>
      <trkpt lat="44.31711" lon="6.82884">
        <time>2023-04-10T11:09:10+00:00</time>
        <ele>2390.0</ele>
      </trkpt>
      <trkpt lat="44.31711" lon="6.82884">
        <time>2023-04-10T11:09:11+00:00</time>
        <ele>2390.0</ele>
      </trkpt>
      <trkpt lat="44.31711" lon="6.82884">
        <time>2023-04-10T11:09:12+00:00</time>
        <ele>2390.0</ele>
      </trkpt>
      <trkpt lat="44.31709" lon="6.82884">
        <time>2023-04-10T11:09:13+00:00</time>
        <ele>2390.0</ele>
      </trkpt>
      <trkpt lat="44.31709" lon="6.82884">
        <time>2023-04-10T11:09:14+00:00</time>
        <ele>2390.0</ele>
      </trkpt>
      <trkpt lat="44.31709" lon="6.82884">
        <time>2023-04-10T11:09:15+00:00</time>
        <ele>2390.0</ele>
      </trkpt>
      <trkpt lat="44.31709" lon="6.82884">
        <time>2023-04-10T11:09:16+00:00</time>
        <ele>2390.0</ele>
      </trkpt>
      <trkpt lat="44.31709" lon="6.82884">
        <time>2023-04-10T11:09:17+00:00</time>
        <ele>2390.0</ele>
      </trkpt>
      <trkpt lat="44.31707" lon="6.82882">
        <time>2023-04-10T11:09:18+00:00</time>
        <ele>2390.0</ele>
      </trkpt>
      <trkpt lat="44.31707" lon="6.82882">
        <time>2023-04-10T11:09:19+00:00</time>
        <ele>2390.0</ele>
      </trkpt>
      <trkpt lat="44.31707" lon="6.82882">
        <time>2023-04-10T11:09:20+00:00</time>
        <ele>2390.0</ele>
      </trkpt>
      <trkpt lat="44.31704" lon="6.82879">
        <time>2023-04-10T11:09:21+00:00</time>
        <ele>2391.0</ele>
      </trkpt>
      <trkpt lat="44.31702" lon="6.82878">
        <time>2023-04-10T11:09:22+00:00</time>
        <ele>2391.0</ele>
      </trkpt>
      <trkpt lat="44.31699" lon="6.82878">
        <time>2023-04-10T11:09:23+00:00</time>
        <ele>2391.0</ele>
      </trkpt>
      <trkpt lat="44.31695" lon="6.82879">
        <time>2023-04-10T11:09:24+00:00</time>
        <ele>2391.0</ele>
      </trkpt>
      <trkpt lat="44.31694" lon="6.82883">
        <time>2023-04-10T11:09:25+00:00</time>
        <ele>2390.0</ele>
      </trkpt>
      <trkpt lat="44.31696" lon="6.82892">
        <time>2023-04-10T11:09:26+00:00</time>
        <ele>2387.0</ele>
      </trkpt>
      <trkpt lat="44.31698" lon="6.82903">
        <time>2023-04-10T11:09:27+00:00</time>
        <ele>2384.0</ele>
      </trkpt>
      <trkpt lat="44.31702" lon="6.82915">
        <time>2023-04-10T11:09:28+00:00</time>
        <ele>2380.0</ele>
      </trkpt>
      <trkpt lat="44.31704" lon="6.82927">
        <time>2023-04-10T11:09:29+00:00</time>
        <ele>2377.0</ele>
      </trkpt>
      <trkpt lat="44.31706" lon="6.82942">
        <time>2023-04-10T11:09:30+00:00</time>
        <ele>2374.0</ele>
      </trkpt>
      <trkpt lat="44.31706" lon="6.82953">
        <time>2023-04-10T11:09:31+00:00</time>
        <ele>2371.0</ele>
      </trkpt>
      <trkpt lat="44.31707" lon="6.82967">
        <time>2023-04-10T11:09:32+00:00</time>
        <ele>2370.0</ele>
      </trkpt>
      <trkpt lat="44.31707" lon="6.82981">
        <time>2023-04-10T11:09:33+00:00</time>
        <ele>2368.0</ele>
      </trkpt>
      <trkpt lat="44.31707" lon="6.82996">
        <time>2023-04-10T11:09:34+00:00</time>
        <ele>2367.0</ele>
      </trkpt>
      <trkpt lat="44.31706" lon="6.83009">
        <time>2023-04-10T11:09:35+00:00</time>
        <ele>2366.0</ele>
      </trkpt>
      <trkpt lat="44.31704" lon="6.83019">
        <time>2023-04-10T11:09:36+00:00</time>
        <ele>2365.0</ele>
      </trkpt>
      <trkpt lat="44.31701" lon="6.83027">
        <time>2023-04-10T11:09:37+00:00</time>
        <ele>2365.0</ele>
      </trkpt>
      <trkpt lat="44.31699" lon="6.83034">
        <time>2023-04-10T11:09:38+00:00</time>
        <ele>2364.0</ele>
      </trkpt>
      <trkpt lat="44.31697" lon="6.83044">
        <time>2023-04-10T11:09:39+00:00</time>
        <ele>2365.0</ele>
      </trkpt>
      <trkpt lat="44.31697" lon="6.83051">
        <time>2023-04-10T11:09:40+00:00</time>
        <ele>2365.0</ele>
      </trkpt>
      <trkpt lat="44.31698" lon="6.8306">
        <time>2023-04-10T11:09:41+00:00</time>
        <ele>2364.0</ele>
      </trkpt>
      <trkpt lat="44.31699" lon="6.83071">
        <time>2023-04-10T11:09:42+00:00</time>
        <ele>2364.0</ele>
      </trkpt>
      <trkpt lat="44.317" lon="6.83081">
        <time>2023-04-10T11:09:43+00:00</time>
        <ele>2363.0</ele>
      </trkpt>
      <trkpt lat="44.31701" lon="6.83091">
        <time>2023-04-10T11:09:44+00:00</time>
        <ele>2363.0</ele>
      </trkpt>
      <trkpt lat="44.31702" lon="6.83099">
        <time>2023-04-10T11:09:45+00:00</time>
        <ele>2361.0</ele>
      </trkpt>
      <trkpt lat="44.31702" lon="6.83105">
        <time>2023-04-10T11:09:46+00:00</time>
        <ele>2360.0</ele>
      </trkpt>
      <trkpt lat="44.31701" lon="6.8311">
        <time>2023-04-10T11:09:47+00:00</time>
        <ele>2360.0</ele>
      </trkpt>
      <trkpt lat="44.31701" lon="6.8311">
        <time>2023-04-10T11:09:48+00:00</time>
        <ele>2360.0</ele>
      </trkpt>
      <trkpt lat="44.31701" lon="6.8311">
        <time>2023-04-10T11:09:49+00:00</time>
        <ele>2360.0</ele>
      </trkpt>
      <trkpt lat="44.31701" lon="6.8311">
        <time>2023-04-10T11:09:50+00:00</time>
        <ele>2360.0</ele>
      </trkpt>
      <trkpt lat="44.31701" lon="6.8311">
        <time>2023-04-10T11:09:51+00:00</time>
        <ele>2360.0</ele>
      </trkpt>
      <trkpt lat="44.317" lon="6.83113">
        <time>2023-04-10T11:09:52+00:00</time>
        <ele>2360.0</ele>
      </trkpt>
      <trkpt lat="44.317" lon="6.83113">
        <time>2023-04-10T11:09:53+00:00</time>
        <ele>2360.0</ele>
      </trkpt>
      <trkpt lat="44.317" lon="6.83113">
        <time>2023-04-10T11:09:54+00:00</time>
        <ele>2360.0</ele>
      </trkpt>
      <trkpt lat="44.317" lon="6.83113">
        <time>2023-04-10T11:09:55+00:00</time>
        <ele>2360.0</ele>
      </trkpt>
      <trkpt lat="44.317" lon="6.83113">
        <time>2023-04-10T11:09:56+00:00</time>
        <ele>2360.0</ele>
      </trkpt>
      <trkpt lat="44.317" lon="6.83113">
        <time>2023-04-10T11:09:57+00:00</time>
        <ele>2360.0</ele>
      </trkpt>
      <trkpt lat="44.317" lon="6.83113">
        <time>2023-04-10T11:09:58+00:00</time>
        <ele>2360.0</ele>
      </trkpt>
      <trkpt lat="44.317" lon="6.83113">
        <time>2023-04-10T11:09:59+00:00</time>
        <ele>2360.0</ele>
      </trkpt>
      <trkpt lat="44.31701" lon="6.83119">
        <time>2023-04-10T11:10:00+00:00</time>
        <ele>2358.0</ele>
      </trkpt>
      <trkpt lat="44.31701" lon="6.83122">
        <time>2023-04-10T11:10:01+00:00</time>
        <ele>2358.0</ele>
      </trkpt>
      <trkpt lat="44.31701" lon="6.83124">
        <time>2023-04-10T11:10:02+00:00</time>
        <ele>2358.0</ele>
      </trkpt>
      <trkpt lat="44.31702" lon="6.83129">
        <time>2023-04-10T11:10:03+00:00</time>
        <ele>2357.0</ele>
      </trkpt>
      <trkpt lat="44.31701" lon="6.83134">
        <time>2023-04-10T11:10:04+00:00</time>
        <ele>2357.0</ele>
      </trkpt>
      <trkpt lat="44.31701" lon="6.83141">
        <time>2023-04-10T11:10:05+00:00</time>
        <ele>2356.0</ele>
      </trkpt>
      <trkpt lat="44.317" lon="6.83148">
        <time>2023-04-10T11:10:06+00:00</time>
        <ele>2356.0</ele>
      </trkpt>
      <trkpt lat="44.31699" lon="6.83155">
        <time>2023-04-10T11:10:07+00:00</time>
        <ele>2355.0</ele>
      </trkpt>
      <trkpt lat="44.31699" lon="6.83162">
        <time>2023-04-10T11:10:08+00:00</time>
        <ele>2354.0</ele>
      </trkpt>
      <trkpt lat="44.31698" lon="6.8317">
        <time>2023-04-10T11:10:09+00:00</time>
        <ele>2353.0</ele>
      </trkpt>
      <trkpt lat="44.31699" lon="6.83178">
        <time>2023-04-10T11:10:10+00:00</time>
        <ele>2352.0</ele>
      </trkpt>
      <trkpt lat="44.317" lon="6.83186">
        <time>2023-04-10T11:10:11+00:00</time>
        <ele>2351.0</ele>
      </trkpt>
      <trkpt lat="44.31702" lon="6.83191">
        <time>2023-04-10T11:10:12+00:00</time>
        <ele>2350.0</ele>
      </trkpt>
      <trkpt lat="44.31707" lon="6.83199">
        <time>2023-04-10T11:10:13+00:00</time>
        <ele>2346.0</ele>
      </trkpt>
      <trkpt lat="44.3171" lon="6.83204">
        <time>2023-04-10T11:10:14+00:00</time>
        <ele>2345.0</ele>
      </trkpt>
      <trkpt lat="44.31716" lon="6.8321">
        <time>2023-04-10T11:10:15+00:00</time>
        <ele>2341.0</ele>
      </trkpt>
      <trkpt lat="44.31722" lon="6.83217">
        <time>2023-04-10T11:10:16+00:00</time>
        <ele>2337.0</ele>
      </trkpt>
      <trkpt lat="44.31725" lon="6.83227">
        <time>2023-04-10T11:10:17+00:00</time>
        <ele>2335.0</ele>
      </trkpt>
      <trkpt lat="44.31726" lon="6.83237">
        <time>2023-04-10T11:10:18+00:00</time>
        <ele>2334.0</ele>
      </trkpt>
      <trkpt lat="44.31727" lon="6.8325">
        <time>2023-04-10T11:10:19+00:00</time>
        <ele>2332.0</ele>
      </trkpt>
      <trkpt lat="44.31726" lon="6.83259">
        <time>2023-04-10T11:10:20+00:00</time>
        <ele>2331.0</ele>
      </trkpt>
      <trkpt lat="44.31726" lon="6.8327">
        <time>2023-04-10T11:10:21+00:00</time>
        <ele>2330.0</ele>
      </trkpt>
      <trkpt lat="44.31726" lon="6.83282">
        <time>2023-04-10T11:10:22+00:00</time>
        <ele>2329.0</ele>
      </trkpt>
      <trkpt lat="44.31725" lon="6.83293">
        <time>2023-04-10T11:10:23+00:00</time>
        <ele>2328.0</ele>
      </trkpt>
      <trkpt lat="44.31726" lon="6.83302">
        <time>2023-04-10T11:10:24+00:00</time>
        <ele>2327.0</ele>
      </trkpt>
      <trkpt lat="44.31726" lon="6.83309">
        <time>2023-04-10T11:10:25+00:00</time>
        <ele>2326.0</ele>
      </trkpt>
      <trkpt lat="44.31727" lon="6.8332">
        <time>2023-04-10T11:10:26+00:00</time>
        <ele>2325.0</ele>
      </trkpt>
      <trkpt lat="44.31727" lon="6.83329">
        <time>2023-04-10T11:10:27+00:00</time>
        <ele>2324.0</ele>
      </trkpt>
      <trkpt lat="44.31727" lon="6.83338">
        <time>2023-04-10T11:10:28+00:00</time>
        <ele>2323.0</ele>
      </trkpt>
      <trkpt lat="44.31727" lon="6.83346">
        <time>2023-04-10T11:10:29+00:00</time>
        <ele>2322.0</ele>
      </trkpt>
      <trkpt lat="44.31726" lon="6.83353">
        <time>2023-04-10T11:10:30+00:00</time>
        <ele>2322.0</ele>
      </trkpt>
      <trkpt lat="44.31726" lon="6.83359">
        <time>2023-04-10T11:10:31+00:00</time>
        <ele>2321.0</ele>
      </trkpt>
      <trkpt lat="44.31725" lon="6.83367">
        <time>2023-04-10T11:10:32+00:00</time>
        <ele>2320.0</ele>
      </trkpt>
      <trkpt lat="44.31725" lon="6.83372">
        <time>2023-04-10T11:10:33+00:00</time>
        <ele>2319.0</ele>
      </trkpt>
      <trkpt lat="44.31724" lon="6.83377">
        <time>2023-04-10T11:10:34+00:00</time>
        <ele>2318.0</ele>
      </trkpt>
      <trkpt lat="44.31722" lon="6.83383">
        <time>2023-04-10T11:10:35+00:00</time>
        <ele>2318.0</ele>
      </trkpt>
      <trkpt lat="44.31721" lon="6.83386">
        <time>2023-04-10T11:10:36+00:00</time>
        <ele>2318.0</ele>
      </trkpt>
      <trkpt lat="44.31719" lon="6.83389">
        <time>2023-04-10T11:10:37+00:00</time>
        <ele>2318.0</ele>
      </trkpt>
      <trkpt lat="44.31718" lon="6.83391">
        <time>2023-04-10T11:10:38+00:00</time>
        <ele>2318.0</ele>
      </trkpt>
      <trkpt lat="44.31716" lon="6.83394">
        <time>2023-04-10T11:10:40+00:00</time>
        <ele>2318.0</ele>
      </trkpt>
      <trkpt lat="44.31716" lon="6.83394">
        <time>2023-04-10T11:10:41+00:00</time>
        <ele>2318.0</ele>
      </trkpt>
      <trkpt lat="44.31715" lon="6.83398">
        <time>2023-04-10T11:10:42+00:00</time>
        <ele>2317.0</ele>
      </trkpt>
      <trkpt lat="44.31714" lon="6.834">
        <time>2023-04-10T11:10:43+00:00</time>
        <ele>2317.0</ele>
      </trkpt>
      <trkpt lat="44.31712" lon="6.83402">
        <time>2023-04-10T11:10:44+00:00</time>
        <ele>2317.0</ele>
      </trkpt>
      <trkpt lat="44.3171" lon="6.83404">
        <time>2023-04-10T11:10:45+00:00</time>
        <ele>2317.0</ele>
      </trkpt>
      <trkpt lat="44.31708" lon="6.83407">
        <time>2023-04-10T11:10:46+00:00</time>
        <ele>2317.0</ele>
      </trkpt>
      <trkpt lat="44.31705" lon="6.83411">
        <time>2023-04-10T11:10:47+00:00</time>
        <ele>2317.0</ele>
      </trkpt>
      <trkpt lat="44.31703" lon="6.83414">
        <time>2023-04-10T11:10:48+00:00</time>
        <ele>2317.0</ele>
      </trkpt>
      <trkpt lat="44.31698" lon="6.83421">
        <time>2023-04-10T11:10:49+00:00</time>
        <ele>2317.0</ele>
      </trkpt>
      <trkpt lat="44.31697" lon="6.83422">
        <time>2023-04-10T11:10:50+00:00</time>
        <ele>2317.0</ele>
      </trkpt>
      <trkpt lat="44.31694" lon="6.83427">
        <time>2023-04-10T11:10:51+00:00</time>
        <ele>2316.0</ele>
      </trkpt>
      <trkpt lat="44.31691" lon="6.83433">
        <time>2023-04-10T11:10:52+00:00</time>
        <ele>2316.0</ele>
      </trkpt>
      <trkpt lat="44.3169" lon="6.83435">
        <time>2023-04-10T11:10:53+00:00</time>
        <ele>2316.0</ele>
      </trkpt>
      <trkpt lat="44.31688" lon="6.83438">
        <time>2023-04-10T11:10:54+00:00</time>
        <ele>2315.0</ele>
      </trkpt>
      <trkpt lat="44.31686" lon="6.83441">
        <time>2023-04-10T11:10:55+00:00</time>
        <ele>2315.0</ele>
      </trkpt>
      <trkpt lat="44.31685" lon="6.83444">
        <time>2023-04-10T11:10:56+00:00</time>
        <ele>2315.0</ele>
      </trkpt>
      <trkpt lat="44.31683" lon="6.83446">
        <time>2023-04-10T11:10:57+00:00</time>
        <ele>2315.0</ele>
      </trkpt>
      <trkpt lat="44.31682" lon="6.8345">
        <time>2023-04-10T11:10:58+00:00</time>
        <ele>2314.0</ele>
      </trkpt>
      <trkpt lat="44.31681" lon="6.83452">
        <time>2023-04-10T11:10:59+00:00</time>
        <ele>2314.0</ele>
      </trkpt>
      <trkpt lat="44.31681" lon="6.83452">
        <time>2023-04-10T11:11:00+00:00</time>
        <ele>2314.0</ele>
      </trkpt>
      <trkpt lat="44.31678" lon="6.83456">
        <time>2023-04-10T11:11:01+00:00</time>
        <ele>2314.0</ele>
      </trkpt>
      <trkpt lat="44.31678" lon="6.83456">
        <time>2023-04-10T11:11:02+00:00</time>
        <ele>2314.0</ele>
      </trkpt>
      <trkpt lat="44.31677" lon="6.83458">
        <time>2023-04-10T11:11:03+00:00</time>
        <ele>2314.0</ele>
      </trkpt>
      <trkpt lat="44.31677" lon="6.83458">
        <time>2023-04-10T11:11:04+00:00</time>
        <ele>2314.0</ele>
      </trkpt>
      <trkpt lat="44.31675" lon="6.83462">
        <time>2023-04-10T11:11:05+00:00</time>
        <ele>2313.0</ele>
      </trkpt>
      <trkpt lat="44.31673" lon="6.83465">
        <time>2023-04-10T11:11:06+00:00</time>
        <ele>2313.0</ele>
      </trkpt>
      <trkpt lat="44.31672" lon="6.83467">
        <time>2023-04-10T11:11:07+00:00</time>
        <ele>2312.0</ele>
      </trkpt>
      <trkpt lat="44.31671" lon="6.83469">
        <time>2023-04-10T11:11:08+00:00</time>
        <ele>2312.0</ele>
      </trkpt>
      <trkpt lat="44.3167" lon="6.83471">
        <time>2023-04-10T11:11:09+00:00</time>
        <ele>2312.0</ele>
      </trkpt>
      <trkpt lat="44.31668" lon="6.83475">
        <time>2023-04-10T11:11:10+00:00</time>
        <ele>2312.0</ele>
      </trkpt>
      <trkpt lat="44.31667" lon="6.83478">
        <time>2023-04-10T11:11:11+00:00</time>
        <ele>2312.0</ele>
      </trkpt>
      <trkpt lat="44.31665" lon="6.83482">
        <time>2023-04-10T11:11:12+00:00</time>
        <ele>2311.0</ele>
      </trkpt>
      <trkpt lat="44.31663" lon="6.83485">
        <time>2023-04-10T11:11:13+00:00</time>
        <ele>2311.0</ele>
      </trkpt>
      <trkpt lat="44.31661" lon="6.83488">
        <time>2023-04-10T11:11:14+00:00</time>
        <ele>2311.0</ele>
      </trkpt>
      <trkpt lat="44.31658" lon="6.83491">
        <time>2023-04-10T11:11:15+00:00</time>
        <ele>2311.0</ele>
      </trkpt>
      <trkpt lat="44.31655" lon="6.83497">
        <time>2023-04-10T11:11:16+00:00</time>
        <ele>2311.0</ele>
      </trkpt>
      <trkpt lat="44.31654" lon="6.83504">
        <time>2023-04-10T11:11:17+00:00</time>
        <ele>2312.0</ele>
      </trkpt>
      <trkpt lat="44.31654" lon="6.83513">
        <time>2023-04-10T11:11:18+00:00</time>
        <ele>2313.0</ele>
      </trkpt>
      <trkpt lat="44.31657" lon="6.83522">
        <time>2023-04-10T11:11:19+00:00</time>
        <ele>2312.0</ele>
      </trkpt>
      <trkpt lat="44.3166" lon="6.83527">
        <time>2023-04-10T11:11:20+00:00</time>
        <ele>2313.0</ele>
      </trkpt>
      <trkpt lat="44.31665" lon="6.8353">
        <time>2023-04-10T11:11:21+00:00</time>
        <ele>2313.0</ele>
      </trkpt>
      <trkpt lat="44.3167" lon="6.83532">
        <time>2023-04-10T11:11:22+00:00</time>
        <ele>2313.0</ele>
      </trkpt>
      <trkpt lat="44.31676" lon="6.83534">
        <time>2023-04-10T11:11:23+00:00</time>
        <ele>2313.0</ele>
      </trkpt>
      <trkpt lat="44.31682" lon="6.83536">
        <time>2023-04-10T11:11:24+00:00</time>
        <ele>2313.0</ele>
      </trkpt>
      <trkpt lat="44.31688" lon="6.83537">
        <time>2023-04-10T11:11:25+00:00</time>
        <ele>2313.0</ele>
      </trkpt>
      <trkpt lat="44.31693" lon="6.83537">
        <time>2023-04-10T11:11:26+00:00</time>
        <ele>2312.0</ele>
      </trkpt>
      <trkpt lat="44.31697" lon="6.83538">
        <time>2023-04-10T11:11:27+00:00</time>
        <ele>2312.0</ele>
      </trkpt>
      <trkpt lat="44.31701" lon="6.83539">
        <time>2023-04-10T11:11:28+00:00</time>
        <ele>2312.0</ele>
      </trkpt>
      <trkpt lat="44.31705" lon="6.83539">
        <time>2023-04-10T11:11:29+00:00</time>
        <ele>2312.0</ele>
      </trkpt>
      <trkpt lat="44.31708" lon="6.83539">
        <time>2023-04-10T11:11:30+00:00</time>
        <ele>2311.0</ele>
      </trkpt>
      <trkpt lat="44.3171" lon="6.83539">
        <time>2023-04-10T11:11:31+00:00</time>
        <ele>2311.0</ele>
      </trkpt>
      <trkpt lat="44.31712" lon="6.83539">
        <time>2023-04-10T11:11:32+00:00</time>
        <ele>2311.0</ele>
      </trkpt>
      <trkpt lat="44.31714" lon="6.83538">
        <time>2023-04-10T11:11:33+00:00</time>
        <ele>2310.0</ele>
      </trkpt>
      <trkpt lat="44.31716" lon="6.83539">
        <time>2023-04-10T11:11:34+00:00</time>
        <ele>2310.0</ele>
      </trkpt>
      <trkpt lat="44.31716" lon="6.83539">
        <time>2023-04-10T11:11:35+00:00</time>
        <ele>2310.0</ele>
      </trkpt>
      <trkpt lat="44.31719" lon="6.83539">
        <time>2023-04-10T11:11:36+00:00</time>
        <ele>2310.0</ele>
      </trkpt>
      <trkpt lat="44.31719" lon="6.83539">
        <time>2023-04-10T11:11:37+00:00</time>
        <ele>2310.0</ele>
      </trkpt>
      <trkpt lat="44.31721" lon="6.83539">
        <time>2023-04-10T11:11:38+00:00</time>
        <ele>2310.0</ele>
      </trkpt>
      <trkpt lat="44.31721" lon="6.83539">
        <time>2023-04-10T11:11:39+00:00</time>
        <ele>2310.0</ele>
      </trkpt>
      <trkpt lat="44.31721" lon="6.83539">
        <time>2023-04-10T11:11:40+00:00</time>
        <ele>2310.0</ele>
      </trkpt>
      <trkpt lat="44.31724" lon="6.83539">
        <time>2023-04-10T11:11:41+00:00</time>
        <ele>2309.0</ele>
      </trkpt>
      <trkpt lat="44.31726" lon="6.83539">
        <time>2023-04-10T11:11:42+00:00</time>
        <ele>2309.0</ele>
      </trkpt>
      <trkpt lat="44.31726" lon="6.83539">
        <time>2023-04-10T11:11:43+00:00</time>
        <ele>2309.0</ele>
      </trkpt>
      <trkpt lat="44.3173" lon="6.8354">
        <time>2023-04-10T11:11:44+00:00</time>
        <ele>2309.0</ele>
      </trkpt>
      <trkpt lat="44.31732" lon="6.8354">
        <time>2023-04-10T11:11:45+00:00</time>
        <ele>2308.0</ele>
      </trkpt>
      <trkpt lat="44.31732" lon="6.8354">
        <time>2023-04-10T11:11:46+00:00</time>
        <ele>2308.0</ele>
      </trkpt>
      <trkpt lat="44.31736" lon="6.83541">
        <time>2023-04-10T11:11:47+00:00</time>
        <ele>2308.0</ele>
      </trkpt>
      <trkpt lat="44.31739" lon="6.83541">
        <time>2023-04-10T11:11:48+00:00</time>
        <ele>2308.0</ele>
      </trkpt>
      <trkpt lat="44.31742" lon="6.83542">
        <time>2023-04-10T11:11:49+00:00</time>
        <ele>2308.0</ele>
      </trkpt>
      <trkpt lat="44.31744" lon="6.83542">
        <time>2023-04-10T11:11:50+00:00</time>
        <ele>2307.0</ele>
      </trkpt>
      <trkpt lat="44.31746" lon="6.83543">
        <time>2023-04-10T11:11:51+00:00</time>
        <ele>2308.0</ele>
      </trkpt>
      <trkpt lat="44.31748" lon="6.83543">
        <time>2023-04-10T11:11:52+00:00</time>
        <ele>2307.0</ele>
      </trkpt>
      <trkpt lat="44.3175" lon="6.83544">
        <time>2023-04-10T11:11:53+00:00</time>
        <ele>2307.0</ele>
      </trkpt>
      <trkpt lat="44.31752" lon="6.83545">
        <time>2023-04-10T11:11:54+00:00</time>
        <ele>2308.0</ele>
      </trkpt>
      <trkpt lat="44.31752" lon="6.83545">
        <time>2023-04-10T11:11:55+00:00</time>
        <ele>2308.0</ele>
      </trkpt>
      <trkpt lat="44.31752" lon="6.83545">
        <time>2023-04-10T11:11:56+00:00</time>
        <ele>2308.0</ele>
      </trkpt>
      <trkpt lat="44.31756" lon="6.83545">
        <time>2023-04-10T11:11:57+00:00</time>
        <ele>2307.0</ele>
      </trkpt>
      <trkpt lat="44.31756" lon="6.83545">
        <time>2023-04-10T11:11:58+00:00</time>
        <ele>2307.0</ele>
      </trkpt>
      <trkpt lat="44.31758" lon="6.83545">
        <time>2023-04-10T11:11:59+00:00</time>
        <ele>2307.0</ele>
      </trkpt>
      <trkpt lat="44.31758" lon="6.83545">
        <time>2023-04-10T11:12:00+00:00</time>
        <ele>2307.0</ele>
      </trkpt>
      <trkpt lat="44.31762" lon="6.83545">
        <time>2023-04-10T11:12:01+00:00</time>
        <ele>2307.0</ele>
      </trkpt>
      <trkpt lat="44.31764" lon="6.83544">
        <time>2023-04-10T11:12:02+00:00</time>
        <ele>2306.0</ele>
      </trkpt>
      <trkpt lat="44.31767" lon="6.83544">
        <time>2023-04-10T11:12:03+00:00</time>
        <ele>2305.0</ele>
      </trkpt>
      <trkpt lat="44.3177" lon="6.83542">
        <time>2023-04-10T11:12:04+00:00</time>
        <ele>2304.0</ele>
      </trkpt>
      <trkpt lat="44.31773" lon="6.83542">
        <time>2023-04-10T11:12:05+00:00</time>
        <ele>2304.0</ele>
      </trkpt>
      <trkpt lat="44.31775" lon="6.83541">
        <time>2023-04-10T11:12:06+00:00</time>
        <ele>2303.0</ele>
      </trkpt>
      <trkpt lat="44.31778" lon="6.83541">
        <time>2023-04-10T11:12:07+00:00</time>
        <ele>2303.0</ele>
      </trkpt>
      <trkpt lat="44.31781" lon="6.83541">
        <time>2023-04-10T11:12:08+00:00</time>
        <ele>2303.0</ele>
      </trkpt>
      <trkpt lat="44.31782" lon="6.83541">
        <time>2023-04-10T11:12:09+00:00</time>
        <ele>2303.0</ele>
      </trkpt>
      <trkpt lat="44.31782" lon="6.83541">
        <time>2023-04-10T11:12:10+00:00</time>
        <ele>2303.0</ele>
      </trkpt>
      <trkpt lat="44.31786" lon="6.83542">
        <time>2023-04-10T11:12:11+00:00</time>
        <ele>2303.0</ele>
      </trkpt>
      <trkpt lat="44.31786" lon="6.83542">
        <time>2023-04-10T11:12:12+00:00</time>
        <ele>2303.0</ele>
      </trkpt>
      <trkpt lat="44.31788" lon="6.83542">
        <time>2023-04-10T11:12:13+00:00</time>
        <ele>2303.0</ele>
      </trkpt>
      <trkpt lat="44.31788" lon="6.83542">
        <time>2023-04-10T11:12:14+00:00</time>
        <ele>2303.0</ele>
      </trkpt>
      <trkpt lat="44.31788" lon="6.83542">
        <time>2023-04-10T11:12:15+00:00</time>
        <ele>2303.0</ele>
      </trkpt>
      <trkpt lat="44.31791" lon="6.83542">
        <time>2023-04-10T11:12:16+00:00</time>
        <ele>2302.0</ele>
      </trkpt>
      <trkpt lat="44.31793" lon="6.83543">
        <time>2023-04-10T11:12:17+00:00</time>
        <ele>2302.0</ele>
      </trkpt>
      <trkpt lat="44.31793" lon="6.83543">
        <time>2023-04-10T11:12:18+00:00</time>
        <ele>2302.0</ele>
      </trkpt>
      <trkpt lat="44.31796" lon="6.83543">
        <time>2023-04-10T11:12:19+00:00</time>
        <ele>2302.0</ele>
      </trkpt>
      <trkpt lat="44.31796" lon="6.83543">
        <time>2023-04-10T11:12:20+00:00</time>
        <ele>2302.0</ele>
      </trkpt>
      <trkpt lat="44.31798" lon="6.83544">
        <time>2023-04-10T11:12:21+00:00</time>
        <ele>2302.0</ele>
      </trkpt>
      <trkpt lat="44.31798" lon="6.83544">
        <time>2023-04-10T11:12:22+00:00</time>
        <ele>2302.0</ele>
      </trkpt>
      <trkpt lat="44.318" lon="6.83546">
        <time>2023-04-10T11:12:23+00:00</time>
        <ele>2302.0</ele>
      </trkpt>
      <trkpt lat="44.318" lon="6.83546">
        <time>2023-04-10T11:12:24+00:00</time>
        <ele>2302.0</ele>
      </trkpt>
      <trkpt lat="44.318" lon="6.83546">
        <time>2023-04-10T11:12:25+00:00</time>
        <ele>2302.0</ele>
      </trkpt>
      <trkpt lat="44.318" lon="6.83546">
        <time>2023-04-10T11:12:26+00:00</time>
        <ele>2302.0</ele>
      </trkpt>
      <trkpt lat="44.31802" lon="6.83548">
        <time>2023-04-10T11:12:27+00:00</time>
        <ele>2302.0</ele>
      </trkpt>
      <trkpt lat="44.31802" lon="6.83548">
        <time>2023-04-10T11:12:28+00:00</time>
        <ele>2302.0</ele>
      </trkpt>
      <trkpt lat="44.31802" lon="6.83548">
        <time>2023-04-10T11:12:29+00:00</time>
        <ele>2302.0</ele>
      </trkpt>
      <trkpt lat="44.31802" lon="6.83548">
        <time>2023-04-10T11:12:30+00:00</time>
        <ele>2302.0</ele>
      </trkpt>
      <trkpt lat="44.31802" lon="6.83548">
        <time>2023-04-10T11:12:31+00:00</time>
        <ele>2302.0</ele>
      </trkpt>
      <trkpt lat="44.31802" lon="6.83548">
        <time>2023-04-10T11:12:32+00:00</time>
        <ele>2302.0</ele>
      </trkpt>
      <trkpt lat="44.31802" lon="6.83548">
        <time>2023-04-10T11:12:33+00:00</time>
        <ele>2302.0</ele>
      </trkpt>
      <trkpt lat="44.31802" lon="6.83548">
        <time>2023-04-10T11:12:34+00:00</time>
        <ele>2302.0</ele>
      </trkpt>
      <trkpt lat="44.31802" lon="6.83548">
        <time>2023-04-10T11:12:35+00:00</time>
        <ele>2302.0</ele>
      </trkpt>
      <trkpt lat="44.31802" lon="6.83548">
        <time>2023-04-10T11:12:36+00:00</time>
        <ele>2302.0</ele>
      </trkpt>
      <trkpt lat="44.31802" lon="6.83548">
        <time>2023-04-10T11:12:37+00:00</time>
        <ele>2302.0</ele>
      </trkpt>
      <trkpt lat="44.31802" lon="6.83548">
        <time>2023-04-10T11:12:38+00:00</time>
        <ele>2302.0</ele>
      </trkpt>
      <trkpt lat="44.31802" lon="6.83548">
        <time>2023-04-10T11:12:39+00:00</time>
        <ele>2302.0</ele>
      </trkpt>
      <trkpt lat="44.31802" lon="6.83548">
        <time>2023-04-10T11:12:40+00:00</time>
        <ele>2302.0</ele>
      </trkpt>
      <trkpt lat="44.31802" lon="6.83548">
        <time>2023-04-10T11:12:41+00:00</time>
        <ele>2302.0</ele>
      </trkpt>
      <trkpt lat="44.31802" lon="6.83548">
        <time>2023-04-10T11:12:42+00:00</time>
        <ele>2302.0</ele>
      </trkpt>
      <trkpt lat="44.31802" lon="6.83548">
        <time>2023-04-10T11:12:43+00:00</time>
        <ele>2302.0</ele>
      </trkpt>
      <trkpt lat="44.31802" lon="6.83548">
        <time>2023-04-10T11:12:44+00:00</time>
        <ele>2302.0</ele>
      </trkpt>
      <trkpt lat="44.31802" lon="6.83548">
        <time>2023-04-10T11:12:45+00:00</time>
        <ele>2302.0</ele>
      </trkpt>
      <trkpt lat="44.31802" lon="6.83548">
        <time>2023-04-10T11:12:46+00:00</time>
        <ele>2302.0</ele>
      </trkpt>
      <trkpt lat="44.31802" lon="6.83548">
        <time>2023-04-10T11:12:47+00:00</time>
        <ele>2302.0</ele>
      </trkpt>
      <trkpt lat="44.31802" lon="6.83548">
        <time>2023-04-10T11:12:48+00:00</time>
        <ele>2302.0</ele>
      </trkpt>
      <trkpt lat="44.31802" lon="6.83548">
        <time>2023-04-10T11:12:49+00:00</time>
        <ele>2302.0</ele>
      </trkpt>
      <trkpt lat="44.31802" lon="6.83548">
        <time>2023-04-10T11:12:50+00:00</time>
        <ele>2302.0</ele>
      </trkpt>
      <trkpt lat="44.31802" lon="6.83548">
        <time>2023-04-10T11:12:51+00:00</time>
        <ele>2302.0</ele>
      </trkpt>
      <trkpt lat="44.31802" lon="6.83548">
        <time>2023-04-10T11:12:52+00:00</time>
        <ele>2302.0</ele>
      </trkpt>
      <trkpt lat="44.31802" lon="6.83548">
        <time>2023-04-10T11:12:53+00:00</time>
        <ele>2302.0</ele>
      </trkpt>
      <trkpt lat="44.31802" lon="6.83548">
        <time>2023-04-10T11:12:54+00:00</time>
        <ele>2302.0</ele>
      </trkpt>
      <trkpt lat="44.31802" lon="6.83548">
        <time>2023-04-10T11:12:55+00:00</time>
        <ele>2302.0</ele>
      </trkpt>
      <trkpt lat="44.31802" lon="6.83548">
        <time>2023-04-10T11:12:56+00:00</time>
        <ele>2302.0</ele>
      </trkpt>
      <trkpt lat="44.31802" lon="6.83548">
        <time>2023-04-10T11:12:57+00:00</time>
        <ele>2302.0</ele>
      </trkpt>
      <trkpt lat="44.31802" lon="6.83548">
        <time>2023-04-10T11:12:58+00:00</time>
        <ele>2302.0</ele>
      </trkpt>
      <trkpt lat="44.31802" lon="6.83548">
        <time>2023-04-10T11:12:59+00:00</time>
        <ele>2302.0</ele>
      </trkpt>
      <trkpt lat="44.31802" lon="6.83548">
        <time>2023-04-10T11:13:00+00:00</time>
        <ele>2302.0</ele>
      </trkpt>
      <trkpt lat="44.31802" lon="6.83548">
        <time>2023-04-10T11:13:01+00:00</time>
        <ele>2302.0</ele>
      </trkpt>
      <trkpt lat="44.31802" lon="6.83548">
        <time>2023-04-10T11:13:02+00:00</time>
        <ele>2302.0</ele>
      </trkpt>
      <trkpt lat="44.31802" lon="6.83548">
        <time>2023-04-10T11:13:03+00:00</time>
        <ele>2302.0</ele>
      </trkpt>
      <trkpt lat="44.31802" lon="6.83548">
        <time>2023-04-10T11:13:04+00:00</time>
        <ele>2302.0</ele>
      </trkpt>
      <trkpt lat="44.31802" lon="6.83548">
        <time>2023-04-10T11:13:05+00:00</time>
        <ele>2302.0</ele>
      </trkpt>
      <trkpt lat="44.31802" lon="6.83548">
        <time>2023-04-10T11:13:06+00:00</time>
        <ele>2302.0</ele>
      </trkpt>
      <trkpt lat="44.31802" lon="6.83548">
        <time>2023-04-10T11:13:07+00:00</time>
        <ele>2302.0</ele>
      </trkpt>
      <trkpt lat="44.31805" lon="6.83551">
        <time>2023-04-10T11:13:08+00:00</time>
        <ele>2302.0</ele>
      </trkpt>
      <trkpt lat="44.31806" lon="6.83553">
        <time>2023-04-10T11:13:09+00:00</time>
        <ele>2301.0</ele>
      </trkpt>
      <trkpt lat="44.3181" lon="6.83555">
        <time>2023-04-10T11:13:10+00:00</time>
        <ele>2300.0</ele>
      </trkpt>
      <trkpt lat="44.31813" lon="6.83559">
        <time>2023-04-10T11:13:11+00:00</time>
        <ele>2299.0</ele>
      </trkpt>
      <trkpt lat="44.31818" lon="6.83563">
        <time>2023-04-10T11:13:12+00:00</time>
        <ele>2298.0</ele>
      </trkpt>
      <trkpt lat="44.31823" lon="6.83569">
        <time>2023-04-10T11:13:13+00:00</time>
        <ele>2296.0</ele>
      </trkpt>
      <trkpt lat="44.31828" lon="6.83575">
        <time>2023-04-10T11:13:14+00:00</time>
        <ele>2294.0</ele>
      </trkpt>
      <trkpt lat="44.31834" lon="6.83582">
        <time>2023-04-10T11:13:15+00:00</time>
        <ele>2291.0</ele>
      </trkpt>
      <trkpt lat="44.31839" lon="6.8359">
        <time>2023-04-10T11:13:16+00:00</time>
        <ele>2289.0</ele>
      </trkpt>
      <trkpt lat="44.31844" lon="6.836">
        <time>2023-04-10T11:13:17+00:00</time>
        <ele>2286.0</ele>
      </trkpt>
      <trkpt lat="44.31848" lon="6.83609">
        <time>2023-04-10T11:13:18+00:00</time>
        <ele>2284.0</ele>
      </trkpt>
      <trkpt lat="44.31853" lon="6.83621">
        <time>2023-04-10T11:13:19+00:00</time>
        <ele>2282.0</ele>
      </trkpt>
      <trkpt lat="44.31855" lon="6.83634">
        <time>2023-04-10T11:13:20+00:00</time>
        <ele>2280.0</ele>
      </trkpt>
      <trkpt lat="44.31857" lon="6.83646">
        <time>2023-04-10T11:13:21+00:00</time>
        <ele>2280.0</ele>
      </trkpt>
      <trkpt lat="44.31861" lon="6.83657">
        <time>2023-04-10T11:13:22+00:00</time>
        <ele>2279.0</ele>
      </trkpt>
      <trkpt lat="44.31863" lon="6.83668">
        <time>2023-04-10T11:13:23+00:00</time>
        <ele>2277.0</ele>
      </trkpt>
      <trkpt lat="44.31865" lon="6.83677">
        <time>2023-04-10T11:13:24+00:00</time>
        <ele>2276.0</ele>
      </trkpt>
      <trkpt lat="44.31866" lon="6.83683">
        <time>2023-04-10T11:13:25+00:00</time>
        <ele>2275.0</ele>
      </trkpt>
      <trkpt lat="44.31867" lon="6.83687">
        <time>2023-04-10T11:13:26+00:00</time>
        <ele>2274.0</ele>
      </trkpt>
      <trkpt lat="44.31867" lon="6.83691">
        <time>2023-04-10T11:13:27+00:00</time>
        <ele>2273.0</ele>
      </trkpt>
      <trkpt lat="44.31868" lon="6.83697">
        <time>2023-04-10T11:13:28+00:00</time>
        <ele>2271.0</ele>
      </trkpt>
      <trkpt lat="44.31871" lon="6.83703">
        <time>2023-04-10T11:13:29+00:00</time>
        <ele>2269.0</ele>
      </trkpt>
      <trkpt lat="44.31875" lon="6.8371">
        <time>2023-04-10T11:13:30+00:00</time>
        <ele>2267.0</ele>
      </trkpt>
      <trkpt lat="44.3188" lon="6.83718">
        <time>2023-04-10T11:13:31+00:00</time>
        <ele>2265.0</ele>
      </trkpt>
      <trkpt lat="44.31887" lon="6.83727">
        <time>2023-04-10T11:13:32+00:00</time>
        <ele>2262.0</ele>
      </trkpt>
      <trkpt lat="44.31896" lon="6.83735">
        <time>2023-04-10T11:13:33+00:00</time>
        <ele>2259.0</ele>
      </trkpt>
      <trkpt lat="44.31905" lon="6.83743">
        <time>2023-04-10T11:13:34+00:00</time>
        <ele>2258.0</ele>
      </trkpt>
      <trkpt lat="44.31914" lon="6.8375">
        <time>2023-04-10T11:13:35+00:00</time>
        <ele>2256.0</ele>
      </trkpt>
      <trkpt lat="44.31923" lon="6.83756">
        <time>2023-04-10T11:13:36+00:00</time>
        <ele>2255.0</ele>
      </trkpt>
      <trkpt lat="44.31932" lon="6.83761">
        <time>2023-04-10T11:13:37+00:00</time>
        <ele>2253.0</ele>
      </trkpt>
      <trkpt lat="44.31941" lon="6.83765">
        <time>2023-04-10T11:13:38+00:00</time>
        <ele>2251.0</ele>
      </trkpt>
      <trkpt lat="44.31952" lon="6.83769">
        <time>2023-04-10T11:13:39+00:00</time>
        <ele>2249.0</ele>
      </trkpt>
      <trkpt lat="44.31962" lon="6.83772">
        <time>2023-04-10T11:13:40+00:00</time>
        <ele>2248.0</ele>
      </trkpt>
      <trkpt lat="44.3197" lon="6.83774">
        <time>2023-04-10T11:13:41+00:00</time>
        <ele>2246.0</ele>
      </trkpt>
      <trkpt lat="44.31978" lon="6.83777">
        <time>2023-04-10T11:13:42+00:00</time>
        <ele>2245.0</ele>
      </trkpt>
      <trkpt lat="44.31989" lon="6.8378">
        <time>2023-04-10T11:13:43+00:00</time>
        <ele>2243.0</ele>
      </trkpt>
      <trkpt lat="44.31998" lon="6.83783">
        <time>2023-04-10T11:13:44+00:00</time>
        <ele>2242.0</ele>
      </trkpt>
      <trkpt lat="44.32006" lon="6.83786">
        <time>2023-04-10T11:13:45+00:00</time>
        <ele>2241.0</ele>
      </trkpt>
      <trkpt lat="44.32014" lon="6.83789">
        <time>2023-04-10T11:13:46+00:00</time>
        <ele>2240.0</ele>
      </trkpt>
      <trkpt lat="44.32022" lon="6.83792">
        <time>2023-04-10T11:13:47+00:00</time>
        <ele>2239.0</ele>
      </trkpt>
      <trkpt lat="44.32029" lon="6.83794">
        <time>2023-04-10T11:13:48+00:00</time>
        <ele>2238.0</ele>
      </trkpt>
      <trkpt lat="44.32036" lon="6.83796">
        <time>2023-04-10T11:13:49+00:00</time>
        <ele>2237.0</ele>
      </trkpt>
      <trkpt lat="44.32042" lon="6.83798">
        <time>2023-04-10T11:13:50+00:00</time>
        <ele>2237.0</ele>
      </trkpt>
      <trkpt lat="44.3205" lon="6.838">
        <time>2023-04-10T11:13:51+00:00</time>
        <ele>2236.0</ele>
      </trkpt>
      <trkpt lat="44.32056" lon="6.838">
        <time>2023-04-10T11:13:52+00:00</time>
        <ele>2235.0</ele>
      </trkpt>
      <trkpt lat="44.32059" lon="6.83798">
        <time>2023-04-10T11:13:53+00:00</time>
        <ele>2234.0</ele>
      </trkpt>
      <trkpt lat="44.32061" lon="6.83794">
        <time>2023-04-10T11:13:54+00:00</time>
        <ele>2233.0</ele>
      </trkpt>
      <trkpt lat="44.32063" lon="6.83792">
        <time>2023-04-10T11:13:55+00:00</time>
        <ele>2232.0</ele>
      </trkpt>
      <trkpt lat="44.32063" lon="6.83792">
        <time>2023-04-10T11:13:56+00:00</time>
        <ele>2232.0</ele>
      </trkpt>
      <trkpt lat="44.32063" lon="6.83792">
        <time>2023-04-10T11:13:57+00:00</time>
        <ele>2232.0</ele>
      </trkpt>
      <trkpt lat="44.32063" lon="6.83792">
        <time>2023-04-10T11:13:58+00:00</time>
        <ele>2232.0</ele>
      </trkpt>
      <trkpt lat="44.32063" lon="6.83792">
        <time>2023-04-10T11:13:59+00:00</time>
        <ele>2232.0</ele>
      </trkpt>
      <trkpt lat="44.32063" lon="6.83792">
        <time>2023-04-10T11:14:00+00:00</time>
        <ele>2232.0</ele>
      </trkpt>
      <trkpt lat="44.32063" lon="6.83792">
        <time>2023-04-10T11:14:01+00:00</time>
        <ele>2232.0</ele>
      </trkpt>
      <trkpt lat="44.32063" lon="6.83792">
        <time>2023-04-10T11:14:02+00:00</time>
        <ele>2232.0</ele>
      </trkpt>
      <trkpt lat="44.32063" lon="6.83792">
        <time>2023-04-10T11:14:03+00:00</time>
        <ele>2232.0</ele>
      </trkpt>
      <trkpt lat="44.32063" lon="6.83792">
        <time>2023-04-10T11:14:04+00:00</time>
        <ele>2232.0</ele>
      </trkpt>
      <trkpt lat="44.32063" lon="6.83792">
        <time>2023-04-10T11:14:05+00:00</time>
        <ele>2232.0</ele>
      </trkpt>
      <trkpt lat="44.32063" lon="6.83792">
        <time>2023-04-10T11:14:06+00:00</time>
        <ele>2232.0</ele>
      </trkpt>
      <trkpt lat="44.32063" lon="6.83792">
        <time>2023-04-10T11:14:07+00:00</time>
        <ele>2232.0</ele>
      </trkpt>
      <trkpt lat="44.32063" lon="6.83792">
        <time>2023-04-10T11:14:08+00:00</time>
        <ele>2232.0</ele>
      </trkpt>
      <trkpt lat="44.32063" lon="6.83792">
        <time>2023-04-10T11:14:09+00:00</time>
        <ele>2232.0</ele>
      </trkpt>
      <trkpt lat="44.32063" lon="6.83792">
        <time>2023-04-10T11:14:10+00:00</time>
        <ele>2232.0</ele>
      </trkpt>
      <trkpt lat="44.32066" lon="6.83794">
        <time>2023-04-10T11:14:11+00:00</time>
        <ele>2232.0</ele>
      </trkpt>
      <trkpt lat="44.32069" lon="6.83795">
        <time>2023-04-10T11:14:12+00:00</time>
        <ele>2232.0</ele>
      </trkpt>
      <trkpt lat="44.32073" lon="6.83798">
        <time>2023-04-10T11:14:13+00:00</time>
        <ele>2231.0</ele>
      </trkpt>
      <trkpt lat="44.32078" lon="6.83801">
        <time>2023-04-10T11:14:14+00:00</time>
        <ele>2230.0</ele>
      </trkpt>
      <trkpt lat="44.32084" lon="6.83805">
        <time>2023-04-10T11:14:15+00:00</time>
        <ele>2229.0</ele>
      </trkpt>
      <trkpt lat="44.3209" lon="6.83809">
        <time>2023-04-10T11:14:16+00:00</time>
        <ele>2228.0</ele>
      </trkpt>
      <trkpt lat="44.32097" lon="6.83814">
        <time>2023-04-10T11:14:17+00:00</time>
        <ele>2226.0</ele>
      </trkpt>
      <trkpt lat="44.32101" lon="6.83822">
        <time>2023-04-10T11:14:18+00:00</time>
        <ele>2225.0</ele>
      </trkpt>
      <trkpt lat="44.32104" lon="6.8383">
        <time>2023-04-10T11:14:19+00:00</time>
        <ele>2225.0</ele>
      </trkpt>
      <trkpt lat="44.32105" lon="6.83838">
        <time>2023-04-10T11:14:20+00:00</time>
        <ele>2225.0</ele>
      </trkpt>
      <trkpt lat="44.32107" lon="6.83844">
        <time>2023-04-10T11:14:21+00:00</time>
        <ele>2224.0</ele>
      </trkpt>
      <trkpt lat="44.32109" lon="6.83849">
        <time>2023-04-10T11:14:22+00:00</time>
        <ele>2223.0</ele>
      </trkpt>
      <trkpt lat="44.3211" lon="6.83854">
        <time>2023-04-10T11:14:23+00:00</time>
        <ele>2223.0</ele>
      </trkpt>
      <trkpt lat="44.32112" lon="6.83859">
        <time>2023-04-10T11:14:24+00:00</time>
        <ele>2222.0</ele>
      </trkpt>
      <trkpt lat="44.32112" lon="6.8386">
        <time>2023-04-10T11:14:25+00:00</time>
        <ele>2222.0</ele>
      </trkpt>
      <trkpt lat="44.32112" lon="6.83861">
        <time>2023-04-10T11:14:26+00:00</time>
        <ele>2222.0</ele>
      </trkpt>
      <trkpt lat="44.32112" lon="6.83861">
        <time>2023-04-10T11:14:27+00:00</time>
        <ele>2222.0</ele>
      </trkpt>
      <trkpt lat="44.32112" lon="6.83862">
        <time>2023-04-10T11:14:28+00:00</time>
        <ele>2222.0</ele>
      </trkpt>
      <trkpt lat="44.32113" lon="6.83862">
        <time>2023-04-10T11:14:29+00:00</time>
        <ele>2221.0</ele>
      </trkpt>
      <trkpt lat="44.32113" lon="6.83863">
        <time>2023-04-10T11:14:30+00:00</time>
        <ele>2221.0</ele>
      </trkpt>
      <trkpt lat="44.32113" lon="6.83863">
        <time>2023-04-10T11:14:31+00:00</time>
        <ele>2221.0</ele>
      </trkpt>
      <trkpt lat="44.32113" lon="6.83864">
        <time>2023-04-10T11:14:32+00:00</time>
        <ele>2221.0</ele>
      </trkpt>
      <trkpt lat="44.32113" lon="6.83864">
        <time>2023-04-10T11:14:33+00:00</time>
        <ele>2221.0</ele>
      </trkpt>
      <trkpt lat="44.32113" lon="6.83865">
        <time>2023-04-10T11:14:34+00:00</time>
        <ele>2221.0</ele>
      </trkpt>
      <trkpt lat="44.32113" lon="6.83866">
        <time>2023-04-10T11:14:35+00:00</time>
        <ele>2221.0</ele>
      </trkpt>
      <trkpt lat="44.32114" lon="6.83866">
        <time>2023-04-10T11:14:36+00:00</time>
        <ele>2221.0</ele>
      </trkpt>
      <trkpt lat="44.32114" lon="6.83867">
        <time>2023-04-10T11:14:37+00:00</time>
        <ele>2221.0</ele>
      </trkpt>
      <trkpt lat="44.32114" lon="6.83867">
        <time>2023-04-10T11:14:38+00:00</time>
        <ele>2221.0</ele>
      </trkpt>
      <trkpt lat="44.32114" lon="6.83868">
        <time>2023-04-10T11:14:39+00:00</time>
        <ele>2221.0</ele>
      </trkpt>
      <trkpt lat="44.32114" lon="6.83868">
        <time>2023-04-10T11:14:40+00:00</time>
        <ele>2221.0</ele>
      </trkpt>
      <trkpt lat="44.32114" lon="6.83869">
        <time>2023-04-10T11:14:41+00:00</time>
        <ele>2220.0</ele>
      </trkpt>
      <trkpt lat="44.32114" lon="6.83869">
        <time>2023-04-10T11:14:42+00:00</time>
        <ele>2220.0</ele>
      </trkpt>
      <trkpt lat="44.32115" lon="6.8387">
        <time>2023-04-10T11:14:43+00:00</time>
        <ele>2220.0</ele>
      </trkpt>
      <trkpt lat="44.32115" lon="6.83871">
        <time>2023-04-10T11:14:44+00:00</time>
        <ele>2220.0</ele>
      </trkpt>
      <trkpt lat="44.32115" lon="6.83871">
        <time>2023-04-10T11:14:45+00:00</time>
        <ele>2220.0</ele>
      </trkpt>
      <trkpt lat="44.32115" lon="6.83872">
        <time>2023-04-10T11:14:46+00:00</time>
        <ele>2220.0</ele>
      </trkpt>
      <trkpt lat="44.32115" lon="6.83872">
        <time>2023-04-10T11:14:47+00:00</time>
        <ele>2220.0</ele>
      </trkpt>
      <trkpt lat="44.32115" lon="6.83873">
        <time>2023-04-10T11:14:48+00:00</time>
        <ele>2220.0</ele>
      </trkpt>
      <trkpt lat="44.32115" lon="6.83873">
        <time>2023-04-10T11:14:49+00:00</time>
        <ele>2220.0</ele>
      </trkpt>
      <trkpt lat="44.32116" lon="6.83874">
        <time>2023-04-10T11:14:50+00:00</time>
        <ele>2219.0</ele>
      </trkpt>
      <trkpt lat="44.32116" lon="6.83874">
        <time>2023-04-10T11:14:51+00:00</time>
        <ele>2219.0</ele>
      </trkpt>
      <trkpt lat="44.32116" lon="6.83875">
        <time>2023-04-10T11:14:52+00:00</time>
        <ele>2219.0</ele>
      </trkpt>
      <trkpt lat="44.32116" lon="6.83875">
        <time>2023-04-10T11:14:53+00:00</time>
        <ele>2219.0</ele>
      </trkpt>
      <trkpt lat="44.32116" lon="6.83876">
        <time>2023-04-10T11:14:54+00:00</time>
        <ele>2219.0</ele>
      </trkpt>
      <trkpt lat="44.32116" lon="6.83876">
        <time>2023-04-10T11:14:55+00:00</time>
        <ele>2219.0</ele>
      </trkpt>
      <trkpt lat="44.32116" lon="6.83876">
        <time>2023-04-10T11:14:56+00:00</time>
        <ele>2219.0</ele>
      </trkpt>
      <trkpt lat="44.32116" lon="6.83876">
        <time>2023-04-10T11:14:57+00:00</time>
        <ele>2219.0</ele>
      </trkpt>
      <trkpt lat="44.32116" lon="6.83876">
        <time>2023-04-10T11:14:58+00:00</time>
        <ele>2219.0</ele>
      </trkpt>
      <trkpt lat="44.32116" lon="6.83876">
        <time>2023-04-10T11:14:59+00:00</time>
        <ele>2219.0</ele>
      </trkpt>
      <trkpt lat="44.32116" lon="6.83876">
        <time>2023-04-10T11:15:00+00:00</time>
        <ele>2219.0</ele>
      </trkpt>
      <trkpt lat="44.32118" lon="6.83884">
        <time>2023-04-10T11:15:01+00:00</time>
        <ele>2219.0</ele>
      </trkpt>
      <trkpt lat="44.3212" lon="6.83891">
        <time>2023-04-10T11:15:02+00:00</time>
        <ele>2218.0</ele>
      </trkpt>
      <trkpt lat="44.32122" lon="6.83899">
        <time>2023-04-10T11:15:03+00:00</time>
        <ele>2217.0</ele>
      </trkpt>
      <trkpt lat="44.32125" lon="6.83906">
        <time>2023-04-10T11:15:04+00:00</time>
        <ele>2217.0</ele>
      </trkpt>
      <trkpt lat="44.32127" lon="6.83913">
        <time>2023-04-10T11:15:05+00:00</time>
        <ele>2217.0</ele>
      </trkpt>
      <trkpt lat="44.32129" lon="6.83917">
        <time>2023-04-10T11:15:06+00:00</time>
        <ele>2217.0</ele>
      </trkpt>
      <trkpt lat="44.32131" lon="6.83919">
        <time>2023-04-10T11:15:07+00:00</time>
        <ele>2216.0</ele>
      </trkpt>
      <trkpt lat="44.32134" lon="6.83922">
        <time>2023-04-10T11:15:08+00:00</time>
        <ele>2216.0</ele>
      </trkpt>
      <trkpt lat="44.32139" lon="6.83927">
        <time>2023-04-10T11:15:09+00:00</time>
        <ele>2215.0</ele>
      </trkpt>
      <trkpt lat="44.32144" lon="6.83932">
        <time>2023-04-10T11:15:10+00:00</time>
        <ele>2214.0</ele>
      </trkpt>
      <trkpt lat="44.32149" lon="6.83936">
        <time>2023-04-10T11:15:11+00:00</time>
        <ele>2213.0</ele>
      </trkpt>
      <trkpt lat="44.32155" lon="6.83942">
        <time>2023-04-10T11:15:12+00:00</time>
        <ele>2212.0</ele>
      </trkpt>
      <trkpt lat="44.32161" lon="6.83949">
        <time>2023-04-10T11:15:13+00:00</time>
        <ele>2212.0</ele>
      </trkpt>
      <trkpt lat="44.32167" lon="6.83955">
        <time>2023-04-10T11:15:14+00:00</time>
        <ele>2211.0</ele>
      </trkpt>
      <trkpt lat="44.32171" lon="6.8396">
        <time>2023-04-10T11:15:15+00:00</time>
        <ele>2211.0</ele>
      </trkpt>
      <trkpt lat="44.32175" lon="6.83965">
        <time>2023-04-10T11:15:16+00:00</time>
        <ele>2211.0</ele>
      </trkpt>
      <trkpt lat="44.32178" lon="6.8397">
        <time>2023-04-10T11:15:17+00:00</time>
        <ele>2211.0</ele>
      </trkpt>
      <trkpt lat="44.32181" lon="6.83975">
        <time>2023-04-10T11:15:18+00:00</time>
        <ele>2210.0</ele>
      </trkpt>
      <trkpt lat="44.32183" lon="6.83978">
        <time>2023-04-10T11:15:19+00:00</time>
        <ele>2210.0</ele>
      </trkpt>
      <trkpt lat="44.32186" lon="6.8398">
        <time>2023-04-10T11:15:20+00:00</time>
        <ele>2210.0</ele>
      </trkpt>
      <trkpt lat="44.32189" lon="6.83983">
        <time>2023-04-10T11:15:21+00:00</time>
        <ele>2209.0</ele>
      </trkpt>
      <trkpt lat="44.32191" lon="6.83986">
        <time>2023-04-10T11:15:22+00:00</time>
        <ele>2209.0</ele>
      </trkpt>
      <trkpt lat="44.32195" lon="6.83989">
        <time>2023-04-10T11:15:23+00:00</time>
        <ele>2208.0</ele>
      </trkpt>
      <trkpt lat="44.322" lon="6.83993">
        <time>2023-04-10T11:15:24+00:00</time>
        <ele>2207.0</ele>
      </trkpt>
      <trkpt lat="44.32205" lon="6.83995">
        <time>2023-04-10T11:15:25+00:00</time>
        <ele>2206.0</ele>
      </trkpt>
      <trkpt lat="44.3221" lon="6.83996">
        <time>2023-04-10T11:15:26+00:00</time>
        <ele>2205.0</ele>
      </trkpt>
      <trkpt lat="44.32217" lon="6.83997">
        <time>2023-04-10T11:15:27+00:00</time>
        <ele>2204.0</ele>
      </trkpt>
      <trkpt lat="44.32222" lon="6.83996">
        <time>2023-04-10T11:15:28+00:00</time>
        <ele>2202.0</ele>
      </trkpt>
      <trkpt lat="44.32227" lon="6.83996">
        <time>2023-04-10T11:15:29+00:00</time>
        <ele>2202.0</ele>
      </trkpt>
      <trkpt lat="44.32235" lon="6.83996">
        <time>2023-04-10T11:15:30+00:00</time>
        <ele>2201.0</ele>
      </trkpt>
      <trkpt lat="44.32242" lon="6.83996">
        <time>2023-04-10T11:15:31+00:00</time>
        <ele>2200.0</ele>
      </trkpt>
      <trkpt lat="44.32248" lon="6.83995">
        <time>2023-04-10T11:15:32+00:00</time>
        <ele>2199.0</ele>
      </trkpt>
      <trkpt lat="44.32254" lon="6.83994">
        <time>2023-04-10T11:15:33+00:00</time>
        <ele>2198.0</ele>
      </trkpt>
      <trkpt lat="44.32258" lon="6.83992">
        <time>2023-04-10T11:15:34+00:00</time>
        <ele>2197.0</ele>
      </trkpt>
      <trkpt lat="44.32263" lon="6.83992">
        <time>2023-04-10T11:15:35+00:00</time>
        <ele>2196.0</ele>
      </trkpt>
      <trkpt lat="44.32268" lon="6.8399">
        <time>2023-04-10T11:15:36+00:00</time>
        <ele>2195.0</ele>
      </trkpt>
      <trkpt lat="44.32272" lon="6.83991">
        <time>2023-04-10T11:15:37+00:00</time>
        <ele>2194.0</ele>
      </trkpt>
      <trkpt lat="44.32275" lon="6.83992">
        <time>2023-04-10T11:15:38+00:00</time>
        <ele>2193.0</ele>
      </trkpt>
      <trkpt lat="44.32278" lon="6.83993">
        <time>2023-04-10T11:15:39+00:00</time>
        <ele>2193.0</ele>
      </trkpt>
      <trkpt lat="44.32283" lon="6.83992">
        <time>2023-04-10T11:15:40+00:00</time>
        <ele>2191.0</ele>
      </trkpt>
      <trkpt lat="44.32286" lon="6.8399">
        <time>2023-04-10T11:15:41+00:00</time>
        <ele>2190.0</ele>
      </trkpt>
      <trkpt lat="44.3229" lon="6.83988">
        <time>2023-04-10T11:15:42+00:00</time>
        <ele>2189.0</ele>
      </trkpt>
      <trkpt lat="44.32294" lon="6.83985">
        <time>2023-04-10T11:15:43+00:00</time>
        <ele>2187.0</ele>
      </trkpt>
      <trkpt lat="44.32298" lon="6.83982">
        <time>2023-04-10T11:15:44+00:00</time>
        <ele>2186.0</ele>
      </trkpt>
      <trkpt lat="44.32302" lon="6.83981">
        <time>2023-04-10T11:15:45+00:00</time>
        <ele>2185.0</ele>
      </trkpt>
      <trkpt lat="44.32305" lon="6.83982">
        <time>2023-04-10T11:15:46+00:00</time>
        <ele>2184.0</ele>
      </trkpt>
      <trkpt lat="44.32308" lon="6.83982">
        <time>2023-04-10T11:15:47+00:00</time>
        <ele>2183.0</ele>
      </trkpt>
      <trkpt lat="44.32309" lon="6.83983">
        <time>2023-04-10T11:15:48+00:00</time>
        <ele>2183.0</ele>
      </trkpt>
      <trkpt lat="44.32309" lon="6.83983">
        <time>2023-04-10T11:15:49+00:00</time>
        <ele>2183.0</ele>
      </trkpt>
      <trkpt lat="44.32313" lon="6.83984">
        <time>2023-04-10T11:15:50+00:00</time>
        <ele>2182.0</ele>
      </trkpt>
      <trkpt lat="44.32316" lon="6.83985">
        <time>2023-04-10T11:15:51+00:00</time>
        <ele>2182.0</ele>
      </trkpt>
      <trkpt lat="44.32318" lon="6.83987">
        <time>2023-04-10T11:15:52+00:00</time>
        <ele>2181.0</ele>
      </trkpt>
      <trkpt lat="44.32322" lon="6.83988">
        <time>2023-04-10T11:15:53+00:00</time>
        <ele>2180.0</ele>
      </trkpt>
      <trkpt lat="44.32328" lon="6.8399">
        <time>2023-04-10T11:15:54+00:00</time>
        <ele>2178.0</ele>
      </trkpt>
      <trkpt lat="44.32332" lon="6.83993">
        <time>2023-04-10T11:15:55+00:00</time>
        <ele>2177.0</ele>
      </trkpt>
      <trkpt lat="44.32337" lon="6.83997">
        <time>2023-04-10T11:15:56+00:00</time>
        <ele>2176.0</ele>
      </trkpt>
      <trkpt lat="44.32342" lon="6.84001">
        <time>2023-04-10T11:15:57+00:00</time>
        <ele>2175.0</ele>
      </trkpt>
      <trkpt lat="44.32348" lon="6.84005">
        <time>2023-04-10T11:15:58+00:00</time>
        <ele>2174.0</ele>
      </trkpt>
      <trkpt lat="44.3235" lon="6.84007">
        <time>2023-04-10T11:15:59+00:00</time>
        <ele>2173.0</ele>
      </trkpt>
      <trkpt lat="44.32354" lon="6.84012">
        <time>2023-04-10T11:16:00+00:00</time>
        <ele>2173.0</ele>
      </trkpt>
      <trkpt lat="44.32357" lon="6.84017">
        <time>2023-04-10T11:16:01+00:00</time>
        <ele>2172.0</ele>
      </trkpt>
      <trkpt lat="44.32361" lon="6.84022">
        <time>2023-04-10T11:16:02+00:00</time>
        <ele>2171.0</ele>
      </trkpt>
      <trkpt lat="44.32366" lon="6.8403">
        <time>2023-04-10T11:16:03+00:00</time>
        <ele>2170.0</ele>
      </trkpt>
      <trkpt lat="44.3237" lon="6.84036">
        <time>2023-04-10T11:16:04+00:00</time>
        <ele>2169.0</ele>
      </trkpt>
      <trkpt lat="44.32374" lon="6.84044">
        <time>2023-04-10T11:16:05+00:00</time>
        <ele>2168.0</ele>
      </trkpt>
      <trkpt lat="44.32378" lon="6.8405">
        <time>2023-04-10T11:16:06+00:00</time>
        <ele>2166.0</ele>
      </trkpt>
      <trkpt lat="44.32383" lon="6.84055">
        <time>2023-04-10T11:16:07+00:00</time>
        <ele>2164.0</ele>
      </trkpt>
      <trkpt lat="44.32389" lon="6.84059">
        <time>2023-04-10T11:16:08+00:00</time>
        <ele>2161.0</ele>
      </trkpt>
      <trkpt lat="44.32395" lon="6.84062">
        <time>2023-04-10T11:16:09+00:00</time>
        <ele>2159.0</ele>
      </trkpt>
      <trkpt lat="44.324" lon="6.84064">
        <time>2023-04-10T11:16:10+00:00</time>
        <ele>2157.0</ele>
      </trkpt>
      <trkpt lat="44.32405" lon="6.84068">
        <time>2023-04-10T11:16:11+00:00</time>
        <ele>2155.0</ele>
      </trkpt>
      <trkpt lat="44.32409" lon="6.84075">
        <time>2023-04-10T11:16:12+00:00</time>
        <ele>2153.0</ele>
      </trkpt>
      <trkpt lat="44.3241" lon="6.8408">
        <time>2023-04-10T11:16:13+00:00</time>
        <ele>2153.0</ele>
      </trkpt>
      <trkpt lat="44.32411" lon="6.84086">
        <time>2023-04-10T11:16:14+00:00</time>
        <ele>2153.0</ele>
      </trkpt>
      <trkpt lat="44.32413" lon="6.84092">
        <time>2023-04-10T11:16:15+00:00</time>
        <ele>2152.0</ele>
      </trkpt>
      <trkpt lat="44.32413" lon="6.84098">
        <time>2023-04-10T11:16:16+00:00</time>
        <ele>2153.0</ele>
      </trkpt>
      <trkpt lat="44.32414" lon="6.84103">
        <time>2023-04-10T11:16:17+00:00</time>
        <ele>2153.0</ele>
      </trkpt>
      <trkpt lat="44.32415" lon="6.84109">
        <time>2023-04-10T11:16:18+00:00</time>
        <ele>2153.0</ele>
      </trkpt>
      <trkpt lat="44.32418" lon="6.84115">
        <time>2023-04-10T11:16:19+00:00</time>
        <ele>2152.0</ele>
      </trkpt>
      <trkpt lat="44.3242" lon="6.84122">
        <time>2023-04-10T11:16:20+00:00</time>
        <ele>2152.0</ele>
      </trkpt>
      <trkpt lat="44.32422" lon="6.84129">
        <time>2023-04-10T11:16:21+00:00</time>
        <ele>2151.0</ele>
      </trkpt>
      <trkpt lat="44.32425" lon="6.84136">
        <time>2023-04-10T11:16:22+00:00</time>
        <ele>2151.0</ele>
      </trkpt>
      <trkpt lat="44.32427" lon="6.84145">
        <time>2023-04-10T11:16:23+00:00</time>
        <ele>2150.0</ele>
      </trkpt>
      <trkpt lat="44.3243" lon="6.84153">
        <time>2023-04-10T11:16:24+00:00</time>
        <ele>2150.0</ele>
      </trkpt>
      <trkpt lat="44.32433" lon="6.84162">
        <time>2023-04-10T11:16:25+00:00</time>
        <ele>2149.0</ele>
      </trkpt>
      <trkpt lat="44.32436" lon="6.84171">
        <time>2023-04-10T11:16:26+00:00</time>
        <ele>2148.0</ele>
      </trkpt>
      <trkpt lat="44.32438" lon="6.8418">
        <time>2023-04-10T11:16:27+00:00</time>
        <ele>2147.0</ele>
      </trkpt>
      <trkpt lat="44.32441" lon="6.84188">
        <time>2023-04-10T11:16:28+00:00</time>
        <ele>2147.0</ele>
      </trkpt>
      <trkpt lat="44.32444" lon="6.84195">
        <time>2023-04-10T11:16:29+00:00</time>
        <ele>2146.0</ele>
      </trkpt>
      <trkpt lat="44.32445" lon="6.84199">
        <time>2023-04-10T11:16:30+00:00</time>
        <ele>2145.0</ele>
      </trkpt>
      <trkpt lat="44.32446" lon="6.84203">
        <time>2023-04-10T11:16:31+00:00</time>
        <ele>2145.0</ele>
      </trkpt>
      <trkpt lat="44.32446" lon="6.84203">
        <time>2023-04-10T11:16:32+00:00</time>
        <ele>2145.0</ele>
      </trkpt>
      <trkpt lat="44.32447" lon="6.84205">
        <time>2023-04-10T11:16:33+00:00</time>
        <ele>2145.0</ele>
      </trkpt>
      <trkpt lat="44.32447" lon="6.84205">
        <time>2023-04-10T11:16:34+00:00</time>
        <ele>2145.0</ele>
      </trkpt>
      <trkpt lat="44.32447" lon="6.84205">
        <time>2023-04-10T11:16:35+00:00</time>
        <ele>2145.0</ele>
      </trkpt>
      <trkpt lat="44.32447" lon="6.84205">
        <time>2023-04-10T11:16:36+00:00</time>
        <ele>2145.0</ele>
      </trkpt>
      <trkpt lat="44.32447" lon="6.84205">
        <time>2023-04-10T11:16:37+00:00</time>
        <ele>2145.0</ele>
      </trkpt>
      <trkpt lat="44.32447" lon="6.84205">
        <time>2023-04-10T11:16:38+00:00</time>
        <ele>2145.0</ele>
      </trkpt>
      <trkpt lat="44.32447" lon="6.84205">
        <time>2023-04-10T11:16:39+00:00</time>
        <ele>2145.0</ele>
      </trkpt>
      <trkpt lat="44.32447" lon="6.84205">
        <time>2023-04-10T11:16:40+00:00</time>
        <ele>2145.0</ele>
      </trkpt>
      <trkpt lat="44.32447" lon="6.84205">
        <time>2023-04-10T11:16:41+00:00</time>
        <ele>2145.0</ele>
      </trkpt>
      <trkpt lat="44.32447" lon="6.84205">
        <time>2023-04-10T11:16:42+00:00</time>
        <ele>2145.0</ele>
      </trkpt>
      <trkpt lat="44.32447" lon="6.84205">
        <time>2023-04-10T11:16:43+00:00</time>
        <ele>2145.0</ele>
      </trkpt>
      <trkpt lat="44.32447" lon="6.84205">
        <time>2023-04-10T11:16:44+00:00</time>
        <ele>2145.0</ele>
      </trkpt>
      <trkpt lat="44.32447" lon="6.84205">
        <time>2023-04-10T11:16:45+00:00</time>
        <ele>2145.0</ele>
      </trkpt>
      <trkpt lat="44.32447" lon="6.84205">
        <time>2023-04-10T11:16:46+00:00</time>
        <ele>2145.0</ele>
      </trkpt>
      <trkpt lat="44.32447" lon="6.84205">
        <time>2023-04-10T11:16:47+00:00</time>
        <ele>2145.0</ele>
      </trkpt>
      <trkpt lat="44.32447" lon="6.84205">
        <time>2023-04-10T11:16:48+00:00</time>
        <ele>2145.0</ele>
      </trkpt>
      <trkpt lat="44.32447" lon="6.84205">
        <time>2023-04-10T11:16:49+00:00</time>
        <ele>2145.0</ele>
      </trkpt>
      <trkpt lat="44.32447" lon="6.84205">
        <time>2023-04-10T11:16:50+00:00</time>
        <ele>2145.0</ele>
      </trkpt>
      <trkpt lat="44.32447" lon="6.84205">
        <time>2023-04-10T11:16:51+00:00</time>
        <ele>2145.0</ele>
      </trkpt>
      <trkpt lat="44.32447" lon="6.84205">
        <time>2023-04-10T11:16:52+00:00</time>
        <ele>2145.0</ele>
      </trkpt>
      <trkpt lat="44.3245" lon="6.84207">
        <time>2023-04-10T11:16:53+00:00</time>
        <ele>2143.0</ele>
      </trkpt>
      <trkpt lat="44.32453" lon="6.84208">
        <time>2023-04-10T11:16:54+00:00</time>
        <ele>2142.0</ele>
      </trkpt>
      <trkpt lat="44.32455" lon="6.84207">
        <time>2023-04-10T11:16:55+00:00</time>
        <ele>2141.0</ele>
      </trkpt>
      <trkpt lat="44.32458" lon="6.84207">
        <time>2023-04-10T11:16:56+00:00</time>
        <ele>2140.0</ele>
      </trkpt>
      <trkpt lat="44.32461" lon="6.84207">
        <time>2023-04-10T11:16:57+00:00</time>
        <ele>2138.0</ele>
      </trkpt>
      <trkpt lat="44.32465" lon="6.84208">
        <time>2023-04-10T11:16:58+00:00</time>
        <ele>2137.0</ele>
      </trkpt>
      <trkpt lat="44.32468" lon="6.84208">
        <time>2023-04-10T11:16:59+00:00</time>
        <ele>2135.0</ele>
      </trkpt>
      <trkpt lat="44.32471" lon="6.84208">
        <time>2023-04-10T11:17:00+00:00</time>
        <ele>2134.0</ele>
      </trkpt>
      <trkpt lat="44.32476" lon="6.84206">
        <time>2023-04-10T11:17:01+00:00</time>
        <ele>2132.0</ele>
      </trkpt>
      <trkpt lat="44.32479" lon="6.84204">
        <time>2023-04-10T11:17:02+00:00</time>
        <ele>2130.0</ele>
      </trkpt>
      <trkpt lat="44.32483" lon="6.842">
        <time>2023-04-10T11:17:03+00:00</time>
        <ele>2128.0</ele>
      </trkpt>
      <trkpt lat="44.32487" lon="6.84197">
        <time>2023-04-10T11:17:04+00:00</time>
        <ele>2126.0</ele>
      </trkpt>
      <trkpt lat="44.32493" lon="6.84199">
        <time>2023-04-10T11:17:05+00:00</time>
        <ele>2123.0</ele>
      </trkpt>
      <trkpt lat="44.32497" lon="6.84203">
        <time>2023-04-10T11:17:06+00:00</time>
        <ele>2120.0</ele>
      </trkpt>
      <trkpt lat="44.32501" lon="6.8421">
        <time>2023-04-10T11:17:07+00:00</time>
        <ele>2118.0</ele>
      </trkpt>
      <trkpt lat="44.32505" lon="6.84217">
        <time>2023-04-10T11:17:08+00:00</time>
        <ele>2116.0</ele>
      </trkpt>
      <trkpt lat="44.32509" lon="6.84222">
        <time>2023-04-10T11:17:09+00:00</time>
        <ele>2114.0</ele>
      </trkpt>
      <trkpt lat="44.32512" lon="6.84225">
        <time>2023-04-10T11:17:10+00:00</time>
        <ele>2113.0</ele>
      </trkpt>
      <trkpt lat="44.32512" lon="6.84225">
        <time>2023-04-10T11:17:11+00:00</time>
        <ele>2113.0</ele>
      </trkpt>
      <trkpt lat="44.32512" lon="6.84225">
        <time>2023-04-10T11:17:12+00:00</time>
        <ele>2113.0</ele>
      </trkpt>
      <trkpt lat="44.32512" lon="6.84225">
        <time>2023-04-10T11:17:13+00:00</time>
        <ele>2113.0</ele>
      </trkpt>
      <trkpt lat="44.32512" lon="6.84225">
        <time>2023-04-10T11:17:14+00:00</time>
        <ele>2113.0</ele>
      </trkpt>
      <trkpt lat="44.32512" lon="6.84225">
        <time>2023-04-10T11:17:15+00:00</time>
        <ele>2113.0</ele>
      </trkpt>
      <trkpt lat="44.32512" lon="6.84225">
        <time>2023-04-10T11:17:16+00:00</time>
        <ele>2113.0</ele>
      </trkpt>
      <trkpt lat="44.32512" lon="6.84225">
        <time>2023-04-10T11:17:17+00:00</time>
        <ele>2113.0</ele>
      </trkpt>
      <trkpt lat="44.32512" lon="6.84225">
        <time>2023-04-10T11:17:18+00:00</time>
        <ele>2113.0</ele>
      </trkpt>
      <trkpt lat="44.32514" lon="6.84223">
        <time>2023-04-10T11:17:19+00:00</time>
        <ele>2112.0</ele>
      </trkpt>
      <trkpt lat="44.32514" lon="6.84223">
        <time>2023-04-10T11:17:20+00:00</time>
        <ele>2112.0</ele>
      </trkpt>
      <trkpt lat="44.32515" lon="6.84226">
        <time>2023-04-10T11:17:21+00:00</time>
        <ele>2112.0</ele>
      </trkpt>
      <trkpt lat="44.32515" lon="6.84226">
        <time>2023-04-10T11:17:22+00:00</time>
        <ele>2112.0</ele>
      </trkpt>
      <trkpt lat="44.32517" lon="6.8423">
        <time>2023-04-10T11:17:23+00:00</time>
        <ele>2111.0</ele>
      </trkpt>
      <trkpt lat="44.32517" lon="6.8423">
        <time>2023-04-10T11:17:24+00:00</time>
        <ele>2111.0</ele>
      </trkpt>
      <trkpt lat="44.32519" lon="6.84232">
        <time>2023-04-10T11:17:25+00:00</time>
        <ele>2110.0</ele>
      </trkpt>
      <trkpt lat="44.32519" lon="6.84232">
        <time>2023-04-10T11:17:26+00:00</time>
        <ele>2110.0</ele>
      </trkpt>
      <trkpt lat="44.32519" lon="6.84232">
        <time>2023-04-10T11:17:27+00:00</time>
        <ele>2110.0</ele>
      </trkpt>
      <trkpt lat="44.32519" lon="6.84232">
        <time>2023-04-10T11:17:28+00:00</time>
        <ele>2110.0</ele>
      </trkpt>
      <trkpt lat="44.32519" lon="6.84232">
        <time>2023-04-10T11:17:29+00:00</time>
        <ele>2110.0</ele>
      </trkpt>
      <trkpt lat="44.32519" lon="6.84232">
        <time>2023-04-10T11:17:30+00:00</time>
        <ele>2110.0</ele>
      </trkpt>
      <trkpt lat="44.32519" lon="6.84232">
        <time>2023-04-10T11:17:31+00:00</time>
        <ele>2110.0</ele>
      </trkpt>
      <trkpt lat="44.32519" lon="6.84232">
        <time>2023-04-10T11:17:32+00:00</time>
        <ele>2110.0</ele>
      </trkpt>
      <trkpt lat="44.32519" lon="6.84232">
        <time>2023-04-10T11:17:33+00:00</time>
        <ele>2110.0</ele>
      </trkpt>
      <trkpt lat="44.32519" lon="6.84232">
        <time>2023-04-10T11:17:34+00:00</time>
        <ele>2110.0</ele>
      </trkpt>
      <trkpt lat="44.32519" lon="6.84232">
        <time>2023-04-10T11:17:35+00:00</time>
        <ele>2110.0</ele>
      </trkpt>
      <trkpt lat="44.32519" lon="6.84232">
        <time>2023-04-10T11:17:36+00:00</time>
        <ele>2110.0</ele>
      </trkpt>
      <trkpt lat="44.32519" lon="6.84232">
        <time>2023-04-10T11:17:37+00:00</time>
        <ele>2110.0</ele>
      </trkpt>
      <trkpt lat="44.32519" lon="6.84232">
        <time>2023-04-10T11:17:38+00:00</time>
        <ele>2110.0</ele>
      </trkpt>
      <trkpt lat="44.32519" lon="6.84232">
        <time>2023-04-10T11:17:39+00:00</time>
        <ele>2110.0</ele>
      </trkpt>
      <trkpt lat="44.3252" lon="6.84234">
        <time>2023-04-10T11:17:40+00:00</time>
        <ele>2109.0</ele>
      </trkpt>
      <trkpt lat="44.32522" lon="6.84235">
        <time>2023-04-10T11:17:41+00:00</time>
        <ele>2108.0</ele>
      </trkpt>
      <trkpt lat="44.32522" lon="6.84235">
        <time>2023-04-10T11:17:42+00:00</time>
        <ele>2108.0</ele>
      </trkpt>
      <trkpt lat="44.32525" lon="6.84241">
        <time>2023-04-10T11:17:43+00:00</time>
        <ele>2107.0</ele>
      </trkpt>
      <trkpt lat="44.32526" lon="6.84246">
        <time>2023-04-10T11:17:44+00:00</time>
        <ele>2106.0</ele>
      </trkpt>
      <trkpt lat="44.32527" lon="6.84251">
        <time>2023-04-10T11:17:45+00:00</time>
        <ele>2106.0</ele>
      </trkpt>
      <trkpt lat="44.32529" lon="6.84258">
        <time>2023-04-10T11:17:46+00:00</time>
        <ele>2105.0</ele>
      </trkpt>
      <trkpt lat="44.32529" lon="6.84264">
        <time>2023-04-10T11:17:47+00:00</time>
        <ele>2105.0</ele>
      </trkpt>
      <trkpt lat="44.3253" lon="6.84271">
        <time>2023-04-10T11:17:48+00:00</time>
        <ele>2105.0</ele>
      </trkpt>
      <trkpt lat="44.3253" lon="6.84278">
        <time>2023-04-10T11:17:49+00:00</time>
        <ele>2104.0</ele>
      </trkpt>
      <trkpt lat="44.3253" lon="6.84284">
        <time>2023-04-10T11:17:50+00:00</time>
        <ele>2104.0</ele>
      </trkpt>
      <trkpt lat="44.32531" lon="6.84289">
        <time>2023-04-10T11:17:51+00:00</time>
        <ele>2104.0</ele>
      </trkpt>
      <trkpt lat="44.32532" lon="6.84294">
        <time>2023-04-10T11:17:52+00:00</time>
        <ele>2103.0</ele>
      </trkpt>
      <trkpt lat="44.32533" lon="6.843">
        <time>2023-04-10T11:17:53+00:00</time>
        <ele>2102.0</ele>
      </trkpt>
      <trkpt lat="44.32535" lon="6.84307">
        <time>2023-04-10T11:17:54+00:00</time>
        <ele>2101.0</ele>
      </trkpt>
      <trkpt lat="44.32538" lon="6.84314">
        <time>2023-04-10T11:17:55+00:00</time>
        <ele>2099.0</ele>
      </trkpt>
      <trkpt lat="44.3254" lon="6.84321">
        <time>2023-04-10T11:17:56+00:00</time>
        <ele>2097.0</ele>
      </trkpt>
      <trkpt lat="44.32542" lon="6.84328">
        <time>2023-04-10T11:17:57+00:00</time>
        <ele>2096.0</ele>
      </trkpt>
      <trkpt lat="44.32545" lon="6.84335">
        <time>2023-04-10T11:17:58+00:00</time>
        <ele>2093.0</ele>
      </trkpt>
      <trkpt lat="44.32547" lon="6.84342">
        <time>2023-04-10T11:17:59+00:00</time>
        <ele>2091.0</ele>
      </trkpt>
      <trkpt lat="44.3255" lon="6.84349">
        <time>2023-04-10T11:18:00+00:00</time>
        <ele>2089.0</ele>
      </trkpt>
      <trkpt lat="44.32551" lon="6.84357">
        <time>2023-04-10T11:18:01+00:00</time>
        <ele>2088.0</ele>
      </trkpt>
      <trkpt lat="44.32552" lon="6.84365">
        <time>2023-04-10T11:18:02+00:00</time>
        <ele>2086.0</ele>
      </trkpt>
      <trkpt lat="44.32552" lon="6.84372">
        <time>2023-04-10T11:18:03+00:00</time>
        <ele>2085.0</ele>
      </trkpt>
      <trkpt lat="44.32552" lon="6.84376">
        <time>2023-04-10T11:18:04+00:00</time>
        <ele>2084.0</ele>
      </trkpt>
      <trkpt lat="44.32552" lon="6.84376">
        <time>2023-04-10T11:18:05+00:00</time>
        <ele>2084.0</ele>
      </trkpt>
      <trkpt lat="44.32552" lon="6.84379">
        <time>2023-04-10T11:18:06+00:00</time>
        <ele>2083.0</ele>
      </trkpt>
      <trkpt lat="44.32552" lon="6.84379">
        <time>2023-04-10T11:18:07+00:00</time>
        <ele>2083.0</ele>
      </trkpt>
      <trkpt lat="44.32552" lon="6.84379">
        <time>2023-04-10T11:18:08+00:00</time>
        <ele>2083.0</ele>
      </trkpt>
      <trkpt lat="44.32552" lon="6.84379">
        <time>2023-04-10T11:18:09+00:00</time>
        <ele>2083.0</ele>
      </trkpt>
      <trkpt lat="44.32553" lon="6.84382">
        <time>2023-04-10T11:18:10+00:00</time>
        <ele>2082.0</ele>
      </trkpt>
      <trkpt lat="44.32554" lon="6.84385">
        <time>2023-04-10T11:18:11+00:00</time>
        <ele>2081.0</ele>
      </trkpt>
      <trkpt lat="44.32554" lon="6.8439">
        <time>2023-04-10T11:18:12+00:00</time>
        <ele>2080.0</ele>
      </trkpt>
      <trkpt lat="44.32554" lon="6.84396">
        <time>2023-04-10T11:18:13+00:00</time>
        <ele>2079.0</ele>
      </trkpt>
      <trkpt lat="44.32554" lon="6.84401">
        <time>2023-04-10T11:18:14+00:00</time>
        <ele>2078.0</ele>
      </trkpt>
      <trkpt lat="44.32553" lon="6.84405">
        <time>2023-04-10T11:18:15+00:00</time>
        <ele>2078.0</ele>
      </trkpt>
      <trkpt lat="44.32553" lon="6.8441">
        <time>2023-04-10T11:18:16+00:00</time>
        <ele>2077.0</ele>
      </trkpt>
      <trkpt lat="44.32552" lon="6.84415">
        <time>2023-04-10T11:18:17+00:00</time>
        <ele>2077.0</ele>
      </trkpt>
      <trkpt lat="44.32551" lon="6.84418">
        <time>2023-04-10T11:18:18+00:00</time>
        <ele>2077.0</ele>
      </trkpt>
      <trkpt lat="44.32551" lon="6.84421">
        <time>2023-04-10T11:18:19+00:00</time>
        <ele>2076.0</ele>
      </trkpt>
      <trkpt lat="44.3255" lon="6.84424">
        <time>2023-04-10T11:18:20+00:00</time>
        <ele>2076.0</ele>
      </trkpt>
      <trkpt lat="44.3255" lon="6.84424">
        <time>2023-04-10T11:18:21+00:00</time>
        <ele>2076.0</ele>
      </trkpt>
      <trkpt lat="44.3255" lon="6.84427">
        <time>2023-04-10T11:18:22+00:00</time>
        <ele>2075.0</ele>
      </trkpt>
      <trkpt lat="44.3255" lon="6.84427">
        <time>2023-04-10T11:18:23+00:00</time>
        <ele>2075.0</ele>
      </trkpt>
      <trkpt lat="44.3255" lon="6.84427">
        <time>2023-04-10T11:18:24+00:00</time>
        <ele>2075.0</ele>
      </trkpt>
      <trkpt lat="44.32549" lon="6.84431">
        <time>2023-04-10T11:18:25+00:00</time>
        <ele>2075.0</ele>
      </trkpt>
      <trkpt lat="44.32549" lon="6.84431">
        <time>2023-04-10T11:18:26+00:00</time>
        <ele>2075.0</ele>
      </trkpt>
      <trkpt lat="44.32548" lon="6.84435">
        <time>2023-04-10T11:18:27+00:00</time>
        <ele>2075.0</ele>
      </trkpt>
      <trkpt lat="44.32546" lon="6.84438">
        <time>2023-04-10T11:18:28+00:00</time>
        <ele>2076.0</ele>
      </trkpt>
      <trkpt lat="44.32544" lon="6.8444">
        <time>2023-04-10T11:18:29+00:00</time>
        <ele>2077.0</ele>
      </trkpt>
      <trkpt lat="44.32544" lon="6.84443">
        <time>2023-04-10T11:18:30+00:00</time>
        <ele>2076.0</ele>
      </trkpt>
      <trkpt lat="44.32542" lon="6.84445">
        <time>2023-04-10T11:18:31+00:00</time>
        <ele>2077.0</ele>
      </trkpt>
      <trkpt lat="44.32542" lon="6.84445">
        <time>2023-04-10T11:18:32+00:00</time>
        <ele>2077.0</ele>
      </trkpt>
      <trkpt lat="44.32542" lon="6.84445">
        <time>2023-04-10T11:18:33+00:00</time>
        <ele>2077.0</ele>
      </trkpt>
      <trkpt lat="44.32542" lon="6.84445">
        <time>2023-04-10T11:18:34+00:00</time>
        <ele>2077.0</ele>
      </trkpt>
      <trkpt lat="44.32542" lon="6.84445">
        <time>2023-04-10T11:18:35+00:00</time>
        <ele>2077.0</ele>
      </trkpt>
      <trkpt lat="44.32542" lon="6.84449">
        <time>2023-04-10T11:18:36+00:00</time>
        <ele>2077.0</ele>
      </trkpt>
      <trkpt lat="44.32541" lon="6.84453">
        <time>2023-04-10T11:18:37+00:00</time>
        <ele>2077.0</ele>
      </trkpt>
      <trkpt lat="44.32541" lon="6.84457">
        <time>2023-04-10T11:18:38+00:00</time>
        <ele>2076.0</ele>
      </trkpt>
      <trkpt lat="44.3254" lon="6.84463">
        <time>2023-04-10T11:18:39+00:00</time>
        <ele>2076.0</ele>
      </trkpt>
      <trkpt lat="44.32539" lon="6.84469">
        <time>2023-04-10T11:18:40+00:00</time>
        <ele>2075.0</ele>
      </trkpt>
      <trkpt lat="44.32539" lon="6.84475">
        <time>2023-04-10T11:18:41+00:00</time>
        <ele>2074.0</ele>
      </trkpt>
      <trkpt lat="44.3254" lon="6.84479">
        <time>2023-04-10T11:18:42+00:00</time>
        <ele>2073.0</ele>
      </trkpt>
      <trkpt lat="44.32542" lon="6.84483">
        <time>2023-04-10T11:18:43+00:00</time>
        <ele>2071.0</ele>
      </trkpt>
      <trkpt lat="44.32544" lon="6.84486">
        <time>2023-04-10T11:18:44+00:00</time>
        <ele>2069.0</ele>
      </trkpt>
      <trkpt lat="44.32547" lon="6.84486">
        <time>2023-04-10T11:18:45+00:00</time>
        <ele>2067.0</ele>
      </trkpt>
      <trkpt lat="44.32551" lon="6.84486">
        <time>2023-04-10T11:18:46+00:00</time>
        <ele>2065.0</ele>
      </trkpt>
      <trkpt lat="44.32555" lon="6.84488">
        <time>2023-04-10T11:18:47+00:00</time>
        <ele>2063.0</ele>
      </trkpt>
      <trkpt lat="44.32557" lon="6.84493">
        <time>2023-04-10T11:18:48+00:00</time>
        <ele>2061.0</ele>
      </trkpt>
      <trkpt lat="44.32558" lon="6.84498">
        <time>2023-04-10T11:18:49+00:00</time>
        <ele>2059.0</ele>
      </trkpt>
      <trkpt lat="44.3256" lon="6.84503">
        <time>2023-04-10T11:18:50+00:00</time>
        <ele>2058.0</ele>
      </trkpt>
      <trkpt lat="44.32563" lon="6.84507">
        <time>2023-04-10T11:18:51+00:00</time>
        <ele>2055.0</ele>
      </trkpt>
      <trkpt lat="44.32564" lon="6.8451">
        <time>2023-04-10T11:18:52+00:00</time>
        <ele>2054.0</ele>
      </trkpt>
      <trkpt lat="44.32564" lon="6.84514">
        <time>2023-04-10T11:18:53+00:00</time>
        <ele>2054.0</ele>
      </trkpt>
      <trkpt lat="44.32564" lon="6.84518">
        <time>2023-04-10T11:18:54+00:00</time>
        <ele>2053.0</ele>
      </trkpt>
      <trkpt lat="44.32564" lon="6.84524">
        <time>2023-04-10T11:18:55+00:00</time>
        <ele>2052.0</ele>
      </trkpt>
      <trkpt lat="44.32564" lon="6.84531">
        <time>2023-04-10T11:18:56+00:00</time>
        <ele>2050.0</ele>
      </trkpt>
      <trkpt lat="44.32562" lon="6.8454">
        <time>2023-04-10T11:18:57+00:00</time>
        <ele>2050.0</ele>
      </trkpt>
      <trkpt lat="44.32559" lon="6.84548">
        <time>2023-04-10T11:18:58+00:00</time>
        <ele>2049.0</ele>
      </trkpt>
      <trkpt lat="44.32557" lon="6.84553">
        <time>2023-04-10T11:18:59+00:00</time>
        <ele>2049.0</ele>
      </trkpt>
      <trkpt lat="44.32556" lon="6.84559">
        <time>2023-04-10T11:19:00+00:00</time>
        <ele>2048.0</ele>
      </trkpt>
      <trkpt lat="44.32554" lon="6.84563">
        <time>2023-04-10T11:19:01+00:00</time>
        <ele>2048.0</ele>
      </trkpt>
      <trkpt lat="44.32554" lon="6.84563">
        <time>2023-04-10T11:19:02+00:00</time>
        <ele>2048.0</ele>
      </trkpt>
      <trkpt lat="44.32553" lon="6.84566">
        <time>2023-04-10T11:19:03+00:00</time>
        <ele>2048.0</ele>
      </trkpt>
      <trkpt lat="44.32553" lon="6.84566">
        <time>2023-04-10T11:19:04+00:00</time>
        <ele>2048.0</ele>
      </trkpt>
      <trkpt lat="44.32553" lon="6.84566">
        <time>2023-04-10T11:19:05+00:00</time>
        <ele>2048.0</ele>
      </trkpt>
      <trkpt lat="44.32553" lon="6.84566">
        <time>2023-04-10T11:19:06+00:00</time>
        <ele>2048.0</ele>
      </trkpt>
      <trkpt lat="44.32553" lon="6.84566">
        <time>2023-04-10T11:19:07+00:00</time>
        <ele>2048.0</ele>
      </trkpt>
      <trkpt lat="44.32553" lon="6.84566">
        <time>2023-04-10T11:19:08+00:00</time>
        <ele>2048.0</ele>
      </trkpt>
      <trkpt lat="44.32553" lon="6.84566">
        <time>2023-04-10T11:19:09+00:00</time>
        <ele>2048.0</ele>
      </trkpt>
      <trkpt lat="44.32553" lon="6.84566">
        <time>2023-04-10T11:19:10+00:00</time>
        <ele>2048.0</ele>
      </trkpt>
      <trkpt lat="44.32553" lon="6.84566">
        <time>2023-04-10T11:19:11+00:00</time>
        <ele>2048.0</ele>
      </trkpt>
      <trkpt lat="44.32553" lon="6.84566">
        <time>2023-04-10T11:19:12+00:00</time>
        <ele>2048.0</ele>
      </trkpt>
      <trkpt lat="44.32553" lon="6.84566">
        <time>2023-04-10T11:19:13+00:00</time>
        <ele>2048.0</ele>
      </trkpt>
      <trkpt lat="44.32553" lon="6.84566">
        <time>2023-04-10T11:19:14+00:00</time>
        <ele>2048.0</ele>
      </trkpt>
      <trkpt lat="44.32553" lon="6.84566">
        <time>2023-04-10T11:19:15+00:00</time>
        <ele>2048.0</ele>
      </trkpt>
      <trkpt lat="44.32555" lon="6.8457">
        <time>2023-04-10T11:19:16+00:00</time>
        <ele>2046.0</ele>
      </trkpt>
      <trkpt lat="44.32556" lon="6.84575">
        <time>2023-04-10T11:19:17+00:00</time>
        <ele>2044.0</ele>
      </trkpt>
      <trkpt lat="44.32556" lon="6.84578">
        <time>2023-04-10T11:19:18+00:00</time>
        <ele>2044.0</ele>
      </trkpt>
      <trkpt lat="44.32558" lon="6.84585">
        <time>2023-04-10T11:19:19+00:00</time>
        <ele>2042.0</ele>
      </trkpt>
      <trkpt lat="44.3256" lon="6.84591">
        <time>2023-04-10T11:19:20+00:00</time>
        <ele>2040.0</ele>
      </trkpt>
      <trkpt lat="44.32562" lon="6.84597">
        <time>2023-04-10T11:19:21+00:00</time>
        <ele>2038.0</ele>
      </trkpt>
      <trkpt lat="44.32565" lon="6.84602">
        <time>2023-04-10T11:19:22+00:00</time>
        <ele>2036.0</ele>
      </trkpt>
      <trkpt lat="44.32568" lon="6.84607">
        <time>2023-04-10T11:19:23+00:00</time>
        <ele>2034.0</ele>
      </trkpt>
      <trkpt lat="44.32572" lon="6.84612">
        <time>2023-04-10T11:19:24+00:00</time>
        <ele>2032.0</ele>
      </trkpt>
      <trkpt lat="44.32576" lon="6.84617">
        <time>2023-04-10T11:19:25+00:00</time>
        <ele>2030.0</ele>
      </trkpt>
      <trkpt lat="44.3258" lon="6.84621">
        <time>2023-04-10T11:19:26+00:00</time>
        <ele>2027.0</ele>
      </trkpt>
      <trkpt lat="44.32584" lon="6.84626">
        <time>2023-04-10T11:19:27+00:00</time>
        <ele>2025.0</ele>
      </trkpt>
      <trkpt lat="44.32588" lon="6.84631">
        <time>2023-04-10T11:19:28+00:00</time>
        <ele>2023.0</ele>
      </trkpt>
      <trkpt lat="44.3259" lon="6.84634">
        <time>2023-04-10T11:19:29+00:00</time>
        <ele>2021.0</ele>
      </trkpt>
      <trkpt lat="44.3259" lon="6.84634">
        <time>2023-04-10T11:19:30+00:00</time>
        <ele>2021.0</ele>
      </trkpt>
      <trkpt lat="44.3259" lon="6.84634">
        <time>2023-04-10T11:19:31+00:00</time>
        <ele>2021.0</ele>
      </trkpt>
      <trkpt lat="44.3259" lon="6.84634">
        <time>2023-04-10T11:19:32+00:00</time>
        <ele>2021.0</ele>
      </trkpt>
      <trkpt lat="44.3259" lon="6.84634">
        <time>2023-04-10T11:19:33+00:00</time>
        <ele>2021.0</ele>
      </trkpt>
      <trkpt lat="44.3259" lon="6.84634">
        <time>2023-04-10T11:19:34+00:00</time>
        <ele>2021.0</ele>
      </trkpt>
      <trkpt lat="44.3259" lon="6.84634">
        <time>2023-04-10T11:19:35+00:00</time>
        <ele>2021.0</ele>
      </trkpt>
      <trkpt lat="44.3259" lon="6.84634">
        <time>2023-04-10T11:19:36+00:00</time>
        <ele>2021.0</ele>
      </trkpt>
      <trkpt lat="44.3259" lon="6.84634">
        <time>2023-04-10T11:19:37+00:00</time>
        <ele>2021.0</ele>
      </trkpt>
      <trkpt lat="44.32589" lon="6.84635">
        <time>2023-04-10T11:19:38+00:00</time>
        <ele>2021.0</ele>
      </trkpt>
      <trkpt lat="44.32589" lon="6.84635">
        <time>2023-04-10T11:19:39+00:00</time>
        <ele>2021.0</ele>
      </trkpt>
      <trkpt lat="44.32589" lon="6.84635">
        <time>2023-04-10T11:19:40+00:00</time>
        <ele>2021.0</ele>
      </trkpt>
      <trkpt lat="44.32589" lon="6.84635">
        <time>2023-04-10T11:19:41+00:00</time>
        <ele>2021.0</ele>
      </trkpt>
      <trkpt lat="44.32589" lon="6.84635">
        <time>2023-04-10T11:19:42+00:00</time>
        <ele>2021.0</ele>
      </trkpt>
      <trkpt lat="44.32587" lon="6.84637">
        <time>2023-04-10T11:19:43+00:00</time>
        <ele>2022.0</ele>
      </trkpt>
      <trkpt lat="44.32587" lon="6.84637">
        <time>2023-04-10T11:19:44+00:00</time>
        <ele>2022.0</ele>
      </trkpt>
      <trkpt lat="44.32587" lon="6.84637">
        <time>2023-04-10T11:19:45+00:00</time>
        <ele>2022.0</ele>
      </trkpt>
      <trkpt lat="44.32587" lon="6.84637">
        <time>2023-04-10T11:19:46+00:00</time>
        <ele>2022.0</ele>
      </trkpt>
      <trkpt lat="44.32587" lon="6.84637">
        <time>2023-04-10T11:19:47+00:00</time>
        <ele>2022.0</ele>
      </trkpt>
      <trkpt lat="44.32587" lon="6.84637">
        <time>2023-04-10T11:19:48+00:00</time>
        <ele>2022.0</ele>
      </trkpt>
      <trkpt lat="44.32587" lon="6.84637">
        <time>2023-04-10T11:19:49+00:00</time>
        <ele>2022.0</ele>
      </trkpt>
      <trkpt lat="44.32584" lon="6.84639">
        <time>2023-04-10T11:19:50+00:00</time>
        <ele>2022.0</ele>
      </trkpt>
      <trkpt lat="44.32584" lon="6.84639">
        <time>2023-04-10T11:19:51+00:00</time>
        <ele>2022.0</ele>
      </trkpt>
      <trkpt lat="44.32582" lon="6.84642">
        <time>2023-04-10T11:19:52+00:00</time>
        <ele>2022.0</ele>
      </trkpt>
      <trkpt lat="44.3258" lon="6.84645">
        <time>2023-04-10T11:19:53+00:00</time>
        <ele>2022.0</ele>
      </trkpt>
      <trkpt lat="44.3258" lon="6.84645">
        <time>2023-04-10T11:19:54+00:00</time>
        <ele>2022.0</ele>
      </trkpt>
      <trkpt lat="44.32578" lon="6.84646">
        <time>2023-04-10T11:19:55+00:00</time>
        <ele>2023.0</ele>
      </trkpt>
      <trkpt lat="44.32578" lon="6.84646">
        <time>2023-04-10T11:19:56+00:00</time>
        <ele>2023.0</ele>
      </trkpt>
      <trkpt lat="44.32578" lon="6.84646">
        <time>2023-04-10T11:19:57+00:00</time>
        <ele>2023.0</ele>
      </trkpt>
      <trkpt lat="44.32578" lon="6.84646">
        <time>2023-04-10T11:19:58+00:00</time>
        <ele>2023.0</ele>
      </trkpt>
      <trkpt lat="44.32578" lon="6.84646">
        <time>2023-04-10T11:19:59+00:00</time>
        <ele>2023.0</ele>
      </trkpt>
      <trkpt lat="44.32578" lon="6.84646">
        <time>2023-04-10T11:20:02+00:00</time>
        <ele>2023.0</ele>
      </trkpt>
      <trkpt lat="44.32578" lon="6.84646">
        <time>2023-04-10T11:20:03+00:00</time>
        <ele>2023.0</ele>
      </trkpt>
      <trkpt lat="44.32578" lon="6.84646">
        <time>2023-04-10T11:20:04+00:00</time>
        <ele>2023.0</ele>
      </trkpt>
      <trkpt lat="44.32578" lon="6.84646">
        <time>2023-04-10T11:20:05+00:00</time>
        <ele>2023.0</ele>
      </trkpt>
      <trkpt lat="44.32578" lon="6.84646">
        <time>2023-04-10T11:20:06+00:00</time>
        <ele>2023.0</ele>
      </trkpt>
      <trkpt lat="44.32578" lon="6.84646">
        <time>2023-04-10T11:20:07+00:00</time>
        <ele>2023.0</ele>
      </trkpt>
      <trkpt lat="44.32578" lon="6.84646">
        <time>2023-04-10T11:20:08+00:00</time>
        <ele>2023.0</ele>
      </trkpt>
      <trkpt lat="44.32578" lon="6.84646">
        <time>2023-04-10T11:20:09+00:00</time>
        <ele>2023.0</ele>
      </trkpt>
      <trkpt lat="44.32578" lon="6.84646">
        <time>2023-04-10T11:20:10+00:00</time>
        <ele>2023.0</ele>
      </trkpt>
      <trkpt lat="44.32578" lon="6.84646">
        <time>2023-04-10T11:20:11+00:00</time>
        <ele>2023.0</ele>
      </trkpt>
      <trkpt lat="44.32578" lon="6.84646">
        <time>2023-04-10T11:20:12+00:00</time>
        <ele>2023.0</ele>
      </trkpt>
      <trkpt lat="44.32578" lon="6.84646">
        <time>2023-04-10T11:20:13+00:00</time>
        <ele>2023.0</ele>
      </trkpt>
      <trkpt lat="44.32578" lon="6.84646">
        <time>2023-04-10T11:20:14+00:00</time>
        <ele>2023.0</ele>
      </trkpt>
      <trkpt lat="44.32578" lon="6.84646">
        <time>2023-04-10T11:20:15+00:00</time>
        <ele>2023.0</ele>
      </trkpt>
      <trkpt lat="44.32578" lon="6.84646">
        <time>2023-04-10T11:20:16+00:00</time>
        <ele>2023.0</ele>
      </trkpt>
      <trkpt lat="44.32578" lon="6.84646">
        <time>2023-04-10T11:20:17+00:00</time>
        <ele>2023.0</ele>
      </trkpt>
      <trkpt lat="44.32578" lon="6.84646">
        <time>2023-04-10T11:20:18+00:00</time>
        <ele>2023.0</ele>
      </trkpt>
      <trkpt lat="44.32581" lon="6.8465">
        <time>2023-04-10T11:20:20+00:00</time>
        <ele>2021.0</ele>
      </trkpt>
      <trkpt lat="44.32582" lon="6.84651">
        <time>2023-04-10T11:20:21+00:00</time>
        <ele>2020.0</ele>
      </trkpt>
      <trkpt lat="44.32585" lon="6.84654">
        <time>2023-04-10T11:20:22+00:00</time>
        <ele>2019.0</ele>
      </trkpt>
      <trkpt lat="44.32587" lon="6.84658">
        <time>2023-04-10T11:20:23+00:00</time>
        <ele>2017.0</ele>
      </trkpt>
      <trkpt lat="44.32591" lon="6.84661">
        <time>2023-04-10T11:20:24+00:00</time>
        <ele>2015.0</ele>
      </trkpt>
      <trkpt lat="44.32595" lon="6.84665">
        <time>2023-04-10T11:20:25+00:00</time>
        <ele>2013.0</ele>
      </trkpt>
      <trkpt lat="44.32595" lon="6.84665">
        <time>2023-04-10T11:20:26+00:00</time>
        <ele>2013.0</ele>
      </trkpt>
      <trkpt lat="44.32595" lon="6.84665">
        <time>2023-04-10T11:20:27+00:00</time>
        <ele>2013.0</ele>
      </trkpt>
      <trkpt lat="44.32605" lon="6.84677">
        <time>2023-04-10T11:20:28+00:00</time>
        <ele>2007.0</ele>
      </trkpt>
      <trkpt lat="44.32607" lon="6.84682">
        <time>2023-04-10T11:20:29+00:00</time>
        <ele>2005.0</ele>
      </trkpt>
      <trkpt lat="44.32606" lon="6.84688">
        <time>2023-04-10T11:20:30+00:00</time>
        <ele>2004.0</ele>
      </trkpt>
      <trkpt lat="44.32606" lon="6.84696">
        <time>2023-04-10T11:20:31+00:00</time>
        <ele>2002.0</ele>
      </trkpt>
      <trkpt lat="44.32608" lon="6.84703">
        <time>2023-04-10T11:20:32+00:00</time>
        <ele>2000.0</ele>
      </trkpt>
      <trkpt lat="44.32608" lon="6.8471">
        <time>2023-04-10T11:20:33+00:00</time>
        <ele>1998.0</ele>
      </trkpt>
      <trkpt lat="44.32609" lon="6.84717">
        <time>2023-04-10T11:20:34+00:00</time>
        <ele>1996.0</ele>
      </trkpt>
      <trkpt lat="44.32612" lon="6.84722">
        <time>2023-04-10T11:20:35+00:00</time>
        <ele>1994.0</ele>
      </trkpt>
      <trkpt lat="44.32613" lon="6.84727">
        <time>2023-04-10T11:20:36+00:00</time>
        <ele>1993.0</ele>
      </trkpt>
      <trkpt lat="44.32612" lon="6.84732">
        <time>2023-04-10T11:20:37+00:00</time>
        <ele>1992.0</ele>
      </trkpt>
      <trkpt lat="44.32612" lon="6.84734">
        <time>2023-04-10T11:20:38+00:00</time>
        <ele>1992.0</ele>
      </trkpt>
      <trkpt lat="44.32612" lon="6.84734">
        <time>2023-04-10T11:20:39+00:00</time>
        <ele>1992.0</ele>
      </trkpt>
      <trkpt lat="44.3261" lon="6.84736">
        <time>2023-04-10T11:20:40+00:00</time>
        <ele>1992.0</ele>
      </trkpt>
      <trkpt lat="44.3261" lon="6.84736">
        <time>2023-04-10T11:20:41+00:00</time>
        <ele>1992.0</ele>
      </trkpt>
      <trkpt lat="44.3261" lon="6.84736">
        <time>2023-04-10T11:20:42+00:00</time>
        <ele>1992.0</ele>
      </trkpt>
      <trkpt lat="44.3261" lon="6.84736">
        <time>2023-04-10T11:20:43+00:00</time>
        <ele>1992.0</ele>
      </trkpt>
      <trkpt lat="44.3261" lon="6.84736">
        <time>2023-04-10T11:20:44+00:00</time>
        <ele>1992.0</ele>
      </trkpt>
      <trkpt lat="44.3261" lon="6.84736">
        <time>2023-04-10T11:20:45+00:00</time>
        <ele>1992.0</ele>
      </trkpt>
      <trkpt lat="44.3261" lon="6.84736">
        <time>2023-04-10T11:20:46+00:00</time>
        <ele>1992.0</ele>
      </trkpt>
      <trkpt lat="44.3261" lon="6.84736">
        <time>2023-04-10T11:20:47+00:00</time>
        <ele>1992.0</ele>
      </trkpt>
      <trkpt lat="44.3261" lon="6.84736">
        <time>2023-04-10T11:20:48+00:00</time>
        <ele>1992.0</ele>
      </trkpt>
      <trkpt lat="44.3261" lon="6.84736">
        <time>2023-04-10T11:20:49+00:00</time>
        <ele>1992.0</ele>
      </trkpt>
      <trkpt lat="44.3261" lon="6.84736">
        <time>2023-04-10T11:20:50+00:00</time>
        <ele>1992.0</ele>
      </trkpt>
      <trkpt lat="44.3261" lon="6.84736">
        <time>2023-04-10T11:20:51+00:00</time>
        <ele>1992.0</ele>
      </trkpt>
      <trkpt lat="44.3261" lon="6.84736">
        <time>2023-04-10T11:20:52+00:00</time>
        <ele>1992.0</ele>
      </trkpt>
      <trkpt lat="44.3261" lon="6.84736">
        <time>2023-04-10T11:20:53+00:00</time>
        <ele>1992.0</ele>
      </trkpt>
      <trkpt lat="44.3261" lon="6.84736">
        <time>2023-04-10T11:20:54+00:00</time>
        <ele>1992.0</ele>
      </trkpt>
      <trkpt lat="44.3261" lon="6.84736">
        <time>2023-04-10T11:20:55+00:00</time>
        <ele>1992.0</ele>
      </trkpt>
      <trkpt lat="44.3261" lon="6.84736">
        <time>2023-04-10T11:20:56+00:00</time>
        <ele>1992.0</ele>
      </trkpt>
      <trkpt lat="44.3261" lon="6.84736">
        <time>2023-04-10T11:20:57+00:00</time>
        <ele>1992.0</ele>
      </trkpt>
      <trkpt lat="44.32608" lon="6.84739">
        <time>2023-04-10T11:20:58+00:00</time>
        <ele>1992.0</ele>
      </trkpt>
      <trkpt lat="44.32608" lon="6.84739">
        <time>2023-04-10T11:20:59+00:00</time>
        <ele>1992.0</ele>
      </trkpt>
      <trkpt lat="44.32608" lon="6.84739">
        <time>2023-04-10T11:21:00+00:00</time>
        <ele>1992.0</ele>
      </trkpt>
      <trkpt lat="44.32608" lon="6.84739">
        <time>2023-04-10T11:21:01+00:00</time>
        <ele>1992.0</ele>
      </trkpt>
      <trkpt lat="44.32608" lon="6.84739">
        <time>2023-04-10T11:21:02+00:00</time>
        <ele>1992.0</ele>
      </trkpt>
      <trkpt lat="44.32608" lon="6.8474">
        <time>2023-04-10T11:21:03+00:00</time>
        <ele>1992.0</ele>
      </trkpt>
      <trkpt lat="44.32608" lon="6.8474">
        <time>2023-04-10T11:21:04+00:00</time>
        <ele>1992.0</ele>
      </trkpt>
      <trkpt lat="44.32608" lon="6.8474">
        <time>2023-04-10T11:21:05+00:00</time>
        <ele>1992.0</ele>
      </trkpt>
      <trkpt lat="44.32608" lon="6.8474">
        <time>2023-04-10T11:21:06+00:00</time>
        <ele>1992.0</ele>
      </trkpt>
      <trkpt lat="44.32608" lon="6.8474">
        <time>2023-04-10T11:21:07+00:00</time>
        <ele>1992.0</ele>
      </trkpt>
      <trkpt lat="44.32608" lon="6.84741">
        <time>2023-04-10T11:21:08+00:00</time>
        <ele>1991.0</ele>
      </trkpt>
      <trkpt lat="44.32608" lon="6.84741">
        <time>2023-04-10T11:21:09+00:00</time>
        <ele>1991.0</ele>
      </trkpt>
      <trkpt lat="44.32607" lon="6.84741">
        <time>2023-04-10T11:21:10+00:00</time>
        <ele>1992.0</ele>
      </trkpt>
      <trkpt lat="44.32607" lon="6.84741">
        <time>2023-04-10T11:21:11+00:00</time>
        <ele>1992.0</ele>
      </trkpt>
      <trkpt lat="44.32607" lon="6.84741">
        <time>2023-04-10T11:21:12+00:00</time>
        <ele>1992.0</ele>
      </trkpt>
      <trkpt lat="44.32607" lon="6.84742">
        <time>2023-04-10T11:21:13+00:00</time>
        <ele>1992.0</ele>
      </trkpt>
      <trkpt lat="44.32607" lon="6.84742">
        <time>2023-04-10T11:21:14+00:00</time>
        <ele>1992.0</ele>
      </trkpt>
      <trkpt lat="44.32607" lon="6.84742">
        <time>2023-04-10T11:21:15+00:00</time>
        <ele>1992.0</ele>
      </trkpt>
      <trkpt lat="44.32607" lon="6.84742">
        <time>2023-04-10T11:21:16+00:00</time>
        <ele>1992.0</ele>
      </trkpt>
      <trkpt lat="44.32607" lon="6.84743">
        <time>2023-04-10T11:21:17+00:00</time>
        <ele>1991.0</ele>
      </trkpt>
      <trkpt lat="44.32607" lon="6.84743">
        <time>2023-04-10T11:21:18+00:00</time>
        <ele>1991.0</ele>
      </trkpt>
      <trkpt lat="44.32607" lon="6.84743">
        <time>2023-04-10T11:21:19+00:00</time>
        <ele>1991.0</ele>
      </trkpt>
      <trkpt lat="44.32607" lon="6.84743">
        <time>2023-04-10T11:21:20+00:00</time>
        <ele>1991.0</ele>
      </trkpt>
      <trkpt lat="44.32607" lon="6.84743">
        <time>2023-04-10T11:21:21+00:00</time>
        <ele>1991.0</ele>
      </trkpt>
      <trkpt lat="44.32606" lon="6.84744">
        <time>2023-04-10T11:21:22+00:00</time>
        <ele>1992.0</ele>
      </trkpt>
      <trkpt lat="44.32606" lon="6.84744">
        <time>2023-04-10T11:21:23+00:00</time>
        <ele>1992.0</ele>
      </trkpt>
      <trkpt lat="44.32606" lon="6.84744">
        <time>2023-04-10T11:21:24+00:00</time>
        <ele>1992.0</ele>
      </trkpt>
      <trkpt lat="44.32606" lon="6.84744">
        <time>2023-04-10T11:21:25+00:00</time>
        <ele>1992.0</ele>
      </trkpt>
      <trkpt lat="44.32606" lon="6.84744">
        <time>2023-04-10T11:21:26+00:00</time>
        <ele>1992.0</ele>
      </trkpt>
      <trkpt lat="44.32606" lon="6.84744">
        <time>2023-04-10T11:21:27+00:00</time>
        <ele>1992.0</ele>
      </trkpt>
      <trkpt lat="44.32606" lon="6.84744">
        <time>2023-04-10T11:21:28+00:00</time>
        <ele>1992.0</ele>
      </trkpt>
      <trkpt lat="44.32606" lon="6.84749">
        <time>2023-04-10T11:21:29+00:00</time>
        <ele>1991.0</ele>
      </trkpt>
      <trkpt lat="44.32608" lon="6.84755">
        <time>2023-04-10T11:21:30+00:00</time>
        <ele>1989.0</ele>
      </trkpt>
      <trkpt lat="44.32608" lon="6.84762">
        <time>2023-04-10T11:21:31+00:00</time>
        <ele>1988.0</ele>
      </trkpt>
      <trkpt lat="44.3261" lon="6.84772">
        <time>2023-04-10T11:21:32+00:00</time>
        <ele>1986.0</ele>
      </trkpt>
      <trkpt lat="44.32611" lon="6.84782">
        <time>2023-04-10T11:21:33+00:00</time>
        <ele>1985.0</ele>
      </trkpt>
      <trkpt lat="44.32611" lon="6.84793">
        <time>2023-04-10T11:21:34+00:00</time>
        <ele>1983.0</ele>
      </trkpt>
      <trkpt lat="44.32611" lon="6.84801">
        <time>2023-04-10T11:21:35+00:00</time>
        <ele>1982.0</ele>
      </trkpt>
      <trkpt lat="44.3261" lon="6.84805">
        <time>2023-04-10T11:21:36+00:00</time>
        <ele>1982.0</ele>
      </trkpt>
      <trkpt lat="44.3261" lon="6.84805">
        <time>2023-04-10T11:21:37+00:00</time>
        <ele>1982.0</ele>
      </trkpt>
      <trkpt lat="44.3261" lon="6.84809">
        <time>2023-04-10T11:21:38+00:00</time>
        <ele>1981.0</ele>
      </trkpt>
      <trkpt lat="44.3261" lon="6.84809">
        <time>2023-04-10T11:21:39+00:00</time>
        <ele>1981.0</ele>
      </trkpt>
      <trkpt lat="44.3261" lon="6.84812">
        <time>2023-04-10T11:21:40+00:00</time>
        <ele>1980.0</ele>
      </trkpt>
      <trkpt lat="44.3261" lon="6.84812">
        <time>2023-04-10T11:21:41+00:00</time>
        <ele>1980.0</ele>
      </trkpt>
      <trkpt lat="44.3261" lon="6.84816">
        <time>2023-04-10T11:21:42+00:00</time>
        <ele>1980.0</ele>
      </trkpt>
      <trkpt lat="44.3261" lon="6.84819">
        <time>2023-04-10T11:21:43+00:00</time>
        <ele>1980.0</ele>
      </trkpt>
      <trkpt lat="44.32609" lon="6.84823">
        <time>2023-04-10T11:21:44+00:00</time>
        <ele>1979.0</ele>
      </trkpt>
      <trkpt lat="44.32608" lon="6.84826">
        <time>2023-04-10T11:21:45+00:00</time>
        <ele>1979.0</ele>
      </trkpt>
      <trkpt lat="44.32607" lon="6.84829">
        <time>2023-04-10T11:21:46+00:00</time>
        <ele>1979.0</ele>
      </trkpt>
      <trkpt lat="44.32607" lon="6.84829">
        <time>2023-04-10T11:21:47+00:00</time>
        <ele>1979.0</ele>
      </trkpt>
      <trkpt lat="44.32606" lon="6.84832">
        <time>2023-04-10T11:21:48+00:00</time>
        <ele>1979.0</ele>
      </trkpt>
      <trkpt lat="44.32606" lon="6.84832">
        <time>2023-04-10T11:21:49+00:00</time>
        <ele>1979.0</ele>
      </trkpt>
      <trkpt lat="44.32606" lon="6.84832">
        <time>2023-04-10T11:21:50+00:00</time>
        <ele>1979.0</ele>
      </trkpt>
      <trkpt lat="44.32606" lon="6.84832">
        <time>2023-04-10T11:21:51+00:00</time>
        <ele>1979.0</ele>
      </trkpt>
      <trkpt lat="44.32605" lon="6.84834">
        <time>2023-04-10T11:21:52+00:00</time>
        <ele>1979.0</ele>
      </trkpt>
      <trkpt lat="44.32605" lon="6.84834">
        <time>2023-04-10T11:21:53+00:00</time>
        <ele>1979.0</ele>
      </trkpt>
      <trkpt lat="44.32605" lon="6.84834">
        <time>2023-04-10T11:21:54+00:00</time>
        <ele>1979.0</ele>
      </trkpt>
      <trkpt lat="44.32603" lon="6.84836">
        <time>2023-04-10T11:21:55+00:00</time>
        <ele>1980.0</ele>
      </trkpt>
      <trkpt lat="44.32603" lon="6.84836">
        <time>2023-04-10T11:21:56+00:00</time>
        <ele>1980.0</ele>
      </trkpt>
      <trkpt lat="44.32603" lon="6.84836">
        <time>2023-04-10T11:21:57+00:00</time>
        <ele>1980.0</ele>
      </trkpt>
      <trkpt lat="44.32601" lon="6.84838">
        <time>2023-04-10T11:21:58+00:00</time>
        <ele>1980.0</ele>
      </trkpt>
      <trkpt lat="44.32601" lon="6.84838">
        <time>2023-04-10T11:21:59+00:00</time>
        <ele>1980.0</ele>
      </trkpt>
      <trkpt lat="44.32601" lon="6.84838">
        <time>2023-04-10T11:22:00+00:00</time>
        <ele>1980.0</ele>
      </trkpt>
      <trkpt lat="44.32598" lon="6.84841">
        <time>2023-04-10T11:22:01+00:00</time>
        <ele>1981.0</ele>
      </trkpt>
      <trkpt lat="44.32598" lon="6.84841">
        <time>2023-04-10T11:22:02+00:00</time>
        <ele>1981.0</ele>
      </trkpt>
      <trkpt lat="44.32598" lon="6.84841">
        <time>2023-04-10T11:22:03+00:00</time>
        <ele>1981.0</ele>
      </trkpt>
      <trkpt lat="44.32596" lon="6.84841">
        <time>2023-04-10T11:22:04+00:00</time>
        <ele>1982.0</ele>
      </trkpt>
      <trkpt lat="44.32596" lon="6.84841">
        <time>2023-04-10T11:22:05+00:00</time>
        <ele>1982.0</ele>
      </trkpt>
      <trkpt lat="44.32596" lon="6.84841">
        <time>2023-04-10T11:22:06+00:00</time>
        <ele>1982.0</ele>
      </trkpt>
      <trkpt lat="44.32594" lon="6.8484">
        <time>2023-04-10T11:22:07+00:00</time>
        <ele>1983.0</ele>
      </trkpt>
      <trkpt lat="44.32594" lon="6.8484">
        <time>2023-04-10T11:22:08+00:00</time>
        <ele>1983.0</ele>
      </trkpt>
      <trkpt lat="44.32594" lon="6.8484">
        <time>2023-04-10T11:22:09+00:00</time>
        <ele>1983.0</ele>
      </trkpt>
      <trkpt lat="44.32594" lon="6.8484">
        <time>2023-04-10T11:22:10+00:00</time>
        <ele>1983.0</ele>
      </trkpt>
      <trkpt lat="44.32592" lon="6.84839">
        <time>2023-04-10T11:22:11+00:00</time>
        <ele>1983.0</ele>
      </trkpt>
      <trkpt lat="44.32592" lon="6.84839">
        <time>2023-04-10T11:22:12+00:00</time>
        <ele>1983.0</ele>
      </trkpt>
      <trkpt lat="44.32592" lon="6.84839">
        <time>2023-04-10T11:22:13+00:00</time>
        <ele>1983.0</ele>
      </trkpt>
      <trkpt lat="44.32592" lon="6.84839">
        <time>2023-04-10T11:22:14+00:00</time>
        <ele>1983.0</ele>
      </trkpt>
      <trkpt lat="44.32592" lon="6.84839">
        <time>2023-04-10T11:22:15+00:00</time>
        <ele>1983.0</ele>
      </trkpt>
      <trkpt lat="44.32597" lon="6.84841">
        <time>2023-04-10T11:22:16+00:00</time>
        <ele>1981.0</ele>
      </trkpt>
      <trkpt lat="44.32598" lon="6.84841">
        <time>2023-04-10T11:22:17+00:00</time>
        <ele>1981.0</ele>
      </trkpt>
      <trkpt lat="44.32602" lon="6.84844">
        <time>2023-04-10T11:22:18+00:00</time>
        <ele>1979.0</ele>
      </trkpt>
      <trkpt lat="44.32604" lon="6.84847">
        <time>2023-04-10T11:22:19+00:00</time>
        <ele>1978.0</ele>
      </trkpt>
      <trkpt lat="44.32605" lon="6.8485">
        <time>2023-04-10T11:22:20+00:00</time>
        <ele>1977.0</ele>
      </trkpt>
      <trkpt lat="44.32606" lon="6.84854">
        <time>2023-04-10T11:22:21+00:00</time>
        <ele>1976.0</ele>
      </trkpt>
      <trkpt lat="44.32609" lon="6.84858">
        <time>2023-04-10T11:22:22+00:00</time>
        <ele>1974.0</ele>
      </trkpt>
      <trkpt lat="44.32613" lon="6.84861">
        <time>2023-04-10T11:22:23+00:00</time>
        <ele>1973.0</ele>
      </trkpt>
      <trkpt lat="44.32617" lon="6.84864">
        <time>2023-04-10T11:22:24+00:00</time>
        <ele>1972.0</ele>
      </trkpt>
      <trkpt lat="44.3262" lon="6.84867">
        <time>2023-04-10T11:22:25+00:00</time>
        <ele>1971.0</ele>
      </trkpt>
      <trkpt lat="44.32621" lon="6.8487">
        <time>2023-04-10T11:22:26+00:00</time>
        <ele>1970.0</ele>
      </trkpt>
      <trkpt lat="44.32621" lon="6.84874">
        <time>2023-04-10T11:22:27+00:00</time>
        <ele>1970.0</ele>
      </trkpt>
      <trkpt lat="44.32621" lon="6.84877">
        <time>2023-04-10T11:22:28+00:00</time>
        <ele>1970.0</ele>
      </trkpt>
      <trkpt lat="44.3262" lon="6.8488">
        <time>2023-04-10T11:22:29+00:00</time>
        <ele>1969.0</ele>
      </trkpt>
      <trkpt lat="44.32619" lon="6.84883">
        <time>2023-04-10T11:22:30+00:00</time>
        <ele>1969.0</ele>
      </trkpt>
      <trkpt lat="44.32619" lon="6.84883">
        <time>2023-04-10T11:22:31+00:00</time>
        <ele>1969.0</ele>
      </trkpt>
      <trkpt lat="44.32617" lon="6.84886">
        <time>2023-04-10T11:22:32+00:00</time>
        <ele>1969.0</ele>
      </trkpt>
      <trkpt lat="44.32617" lon="6.84886">
        <time>2023-04-10T11:22:33+00:00</time>
        <ele>1969.0</ele>
      </trkpt>
      <trkpt lat="44.32617" lon="6.84886">
        <time>2023-04-10T11:22:34+00:00</time>
        <ele>1969.0</ele>
      </trkpt>
      <trkpt lat="44.32614" lon="6.84887">
        <time>2023-04-10T11:22:35+00:00</time>
        <ele>1969.0</ele>
      </trkpt>
      <trkpt lat="44.32614" lon="6.84887">
        <time>2023-04-10T11:22:36+00:00</time>
        <ele>1969.0</ele>
      </trkpt>
      <trkpt lat="44.32614" lon="6.84887">
        <time>2023-04-10T11:22:37+00:00</time>
        <ele>1969.0</ele>
      </trkpt>
      <trkpt lat="44.32614" lon="6.84887">
        <time>2023-04-10T11:22:38+00:00</time>
        <ele>1969.0</ele>
      </trkpt>
      <trkpt lat="44.32614" lon="6.84887">
        <time>2023-04-10T11:22:39+00:00</time>
        <ele>1969.0</ele>
      </trkpt>
      <trkpt lat="44.32614" lon="6.84887">
        <time>2023-04-10T11:22:40+00:00</time>
        <ele>1969.0</ele>
      </trkpt>
      <trkpt lat="44.32614" lon="6.84887">
        <time>2023-04-10T11:22:41+00:00</time>
        <ele>1969.0</ele>
      </trkpt>
      <trkpt lat="44.32614" lon="6.84887">
        <time>2023-04-10T11:22:42+00:00</time>
        <ele>1969.0</ele>
      </trkpt>
      <trkpt lat="44.32614" lon="6.84887">
        <time>2023-04-10T11:22:43+00:00</time>
        <ele>1969.0</ele>
      </trkpt>
      <trkpt lat="44.32614" lon="6.84887">
        <time>2023-04-10T11:22:44+00:00</time>
        <ele>1969.0</ele>
      </trkpt>
      <trkpt lat="44.32614" lon="6.84887">
        <time>2023-04-10T11:22:45+00:00</time>
        <ele>1969.0</ele>
      </trkpt>
      <trkpt lat="44.32614" lon="6.84887">
        <time>2023-04-10T11:22:46+00:00</time>
        <ele>1969.0</ele>
      </trkpt>
      <trkpt lat="44.32614" lon="6.84887">
        <time>2023-04-10T11:22:47+00:00</time>
        <ele>1969.0</ele>
      </trkpt>
      <trkpt lat="44.32614" lon="6.84887">
        <time>2023-04-10T11:22:48+00:00</time>
        <ele>1969.0</ele>
      </trkpt>
      <trkpt lat="44.32614" lon="6.84887">
        <time>2023-04-10T11:22:49+00:00</time>
        <ele>1969.0</ele>
      </trkpt>
      <trkpt lat="44.32614" lon="6.84887">
        <time>2023-04-10T11:22:50+00:00</time>
        <ele>1969.0</ele>
      </trkpt>
      <trkpt lat="44.32614" lon="6.84887">
        <time>2023-04-10T11:22:51+00:00</time>
        <ele>1969.0</ele>
      </trkpt>
      <trkpt lat="44.32614" lon="6.84887">
        <time>2023-04-10T11:22:52+00:00</time>
        <ele>1969.0</ele>
      </trkpt>
      <trkpt lat="44.32614" lon="6.84887">
        <time>2023-04-10T11:22:53+00:00</time>
        <ele>1969.0</ele>
      </trkpt>
      <trkpt lat="44.32614" lon="6.84887">
        <time>2023-04-10T11:22:54+00:00</time>
        <ele>1969.0</ele>
      </trkpt>
      <trkpt lat="44.32614" lon="6.84887">
        <time>2023-04-10T11:22:55+00:00</time>
        <ele>1969.0</ele>
      </trkpt>
      <trkpt lat="44.32614" lon="6.84887">
        <time>2023-04-10T11:22:56+00:00</time>
        <ele>1969.0</ele>
      </trkpt>
      <trkpt lat="44.32614" lon="6.84887">
        <time>2023-04-10T11:22:57+00:00</time>
        <ele>1969.0</ele>
      </trkpt>
      <trkpt lat="44.32614" lon="6.84887">
        <time>2023-04-10T11:22:58+00:00</time>
        <ele>1969.0</ele>
      </trkpt>
      <trkpt lat="44.32614" lon="6.84887">
        <time>2023-04-10T11:22:59+00:00</time>
        <ele>1969.0</ele>
      </trkpt>
      <trkpt lat="44.32614" lon="6.84887">
        <time>2023-04-10T11:23:00+00:00</time>
        <ele>1969.0</ele>
      </trkpt>
      <trkpt lat="44.32614" lon="6.84887">
        <time>2023-04-10T11:23:01+00:00</time>
        <ele>1969.0</ele>
      </trkpt>
      <trkpt lat="44.32614" lon="6.84887">
        <time>2023-04-10T11:23:02+00:00</time>
        <ele>1969.0</ele>
      </trkpt>
      <trkpt lat="44.32612" lon="6.84886">
        <time>2023-04-10T11:23:03+00:00</time>
        <ele>1969.0</ele>
      </trkpt>
      <trkpt lat="44.3261" lon="6.84884">
        <time>2023-04-10T11:23:04+00:00</time>
        <ele>1969.0</ele>
      </trkpt>
      <trkpt lat="44.3261" lon="6.84884">
        <time>2023-04-10T11:23:05+00:00</time>
        <ele>1969.0</ele>
      </trkpt>
      <trkpt lat="44.32608" lon="6.84881">
        <time>2023-04-10T11:23:06+00:00</time>
        <ele>1970.0</ele>
      </trkpt>
      <trkpt lat="44.32608" lon="6.84881">
        <time>2023-04-10T11:23:07+00:00</time>
        <ele>1970.0</ele>
      </trkpt>
      <trkpt lat="44.32606" lon="6.84878">
        <time>2023-04-10T11:23:08+00:00</time>
        <ele>1971.0</ele>
      </trkpt>
      <trkpt lat="44.32606" lon="6.84878">
        <time>2023-04-10T11:23:09+00:00</time>
        <ele>1971.0</ele>
      </trkpt>
      <trkpt lat="44.32605" lon="6.84875">
        <time>2023-04-10T11:23:10+00:00</time>
        <ele>1972.0</ele>
      </trkpt>
      <trkpt lat="44.32605" lon="6.84875">
        <time>2023-04-10T11:23:11+00:00</time>
        <ele>1972.0</ele>
      </trkpt>
      <trkpt lat="44.32605" lon="6.84875">
        <time>2023-04-10T11:23:12+00:00</time>
        <ele>1972.0</ele>
      </trkpt>
      <trkpt lat="44.32605" lon="6.84873">
        <time>2023-04-10T11:23:13+00:00</time>
        <ele>1973.0</ele>
      </trkpt>
      <trkpt lat="44.32605" lon="6.84873">
        <time>2023-04-10T11:23:14+00:00</time>
        <ele>1973.0</ele>
      </trkpt>
      <trkpt lat="44.32605" lon="6.84873">
        <time>2023-04-10T11:23:15+00:00</time>
        <ele>1973.0</ele>
      </trkpt>
      <trkpt lat="44.32605" lon="6.84873">
        <time>2023-04-10T11:23:16+00:00</time>
        <ele>1973.0</ele>
      </trkpt>
      <trkpt lat="44.32605" lon="6.84873">
        <time>2023-04-10T11:23:17+00:00</time>
        <ele>1973.0</ele>
      </trkpt>
      <trkpt lat="44.32603" lon="6.8487">
        <time>2023-04-10T11:23:18+00:00</time>
        <ele>1974.0</ele>
      </trkpt>
      <trkpt lat="44.32603" lon="6.8487">
        <time>2023-04-10T11:23:19+00:00</time>
        <ele>1974.0</ele>
      </trkpt>
      <trkpt lat="44.32603" lon="6.8487">
        <time>2023-04-10T11:23:20+00:00</time>
        <ele>1974.0</ele>
      </trkpt>
      <trkpt lat="44.32603" lon="6.8487">
        <time>2023-04-10T11:23:21+00:00</time>
        <ele>1974.0</ele>
      </trkpt>
      <trkpt lat="44.32603" lon="6.8487">
        <time>2023-04-10T11:23:22+00:00</time>
        <ele>1974.0</ele>
      </trkpt>
      <trkpt lat="44.32602" lon="6.84869">
        <time>2023-04-10T11:23:23+00:00</time>
        <ele>1975.0</ele>
      </trkpt>
      <trkpt lat="44.32602" lon="6.84869">
        <time>2023-04-10T11:23:24+00:00</time>
        <ele>1975.0</ele>
      </trkpt>
      <trkpt lat="44.32602" lon="6.84869">
        <time>2023-04-10T11:23:25+00:00</time>
        <ele>1975.0</ele>
      </trkpt>
      <trkpt lat="44.32602" lon="6.84869">
        <time>2023-04-10T11:23:26+00:00</time>
        <ele>1975.0</ele>
      </trkpt>
      <trkpt lat="44.32602" lon="6.84869">
        <time>2023-04-10T11:23:27+00:00</time>
        <ele>1975.0</ele>
      </trkpt>
      <trkpt lat="44.32602" lon="6.84869">
        <time>2023-04-10T11:23:28+00:00</time>
        <ele>1975.0</ele>
      </trkpt>
      <trkpt lat="44.326" lon="6.84868">
        <time>2023-04-10T11:23:29+00:00</time>
        <ele>1975.0</ele>
      </trkpt>
      <trkpt lat="44.326" lon="6.84868">
        <time>2023-04-10T11:23:30+00:00</time>
        <ele>1975.0</ele>
      </trkpt>
      <trkpt lat="44.326" lon="6.84868">
        <time>2023-04-10T11:23:31+00:00</time>
        <ele>1975.0</ele>
      </trkpt>
      <trkpt lat="44.326" lon="6.84868">
        <time>2023-04-10T11:23:32+00:00</time>
        <ele>1975.0</ele>
      </trkpt>
      <trkpt lat="44.32597" lon="6.84868">
        <time>2023-04-10T11:23:33+00:00</time>
        <ele>1977.0</ele>
      </trkpt>
      <trkpt lat="44.32597" lon="6.84868">
        <time>2023-04-10T11:23:34+00:00</time>
        <ele>1977.0</ele>
      </trkpt>
      <trkpt lat="44.32597" lon="6.84868">
        <time>2023-04-10T11:23:35+00:00</time>
        <ele>1977.0</ele>
      </trkpt>
      <trkpt lat="44.32596" lon="6.84868">
        <time>2023-04-10T11:23:36+00:00</time>
        <ele>1977.0</ele>
      </trkpt>
      <trkpt lat="44.32596" lon="6.84868">
        <time>2023-04-10T11:23:37+00:00</time>
        <ele>1977.0</ele>
      </trkpt>
      <trkpt lat="44.32596" lon="6.84868">
        <time>2023-04-10T11:23:38+00:00</time>
        <ele>1977.0</ele>
      </trkpt>
      <trkpt lat="44.32594" lon="6.84869">
        <time>2023-04-10T11:23:39+00:00</time>
        <ele>1977.0</ele>
      </trkpt>
      <trkpt lat="44.32594" lon="6.84869">
        <time>2023-04-10T11:23:40+00:00</time>
        <ele>1977.0</ele>
      </trkpt>
      <trkpt lat="44.32594" lon="6.84869">
        <time>2023-04-10T11:23:41+00:00</time>
        <ele>1977.0</ele>
      </trkpt>
      <trkpt lat="44.32591" lon="6.84871">
        <time>2023-04-10T11:23:42+00:00</time>
        <ele>1978.0</ele>
      </trkpt>
      <trkpt lat="44.32591" lon="6.84871">
        <time>2023-04-10T11:23:43+00:00</time>
        <ele>1978.0</ele>
      </trkpt>
      <trkpt lat="44.32591" lon="6.84871">
        <time>2023-04-10T11:23:44+00:00</time>
        <ele>1978.0</ele>
      </trkpt>
      <trkpt lat="44.32589" lon="6.84873">
        <time>2023-04-10T11:23:45+00:00</time>
        <ele>1978.0</ele>
      </trkpt>
      <trkpt lat="44.32589" lon="6.84873">
        <time>2023-04-10T11:23:46+00:00</time>
        <ele>1978.0</ele>
      </trkpt>
      <trkpt lat="44.32589" lon="6.84873">
        <time>2023-04-10T11:23:47+00:00</time>
        <ele>1978.0</ele>
      </trkpt>
      <trkpt lat="44.32587" lon="6.84875">
        <time>2023-04-10T11:23:48+00:00</time>
        <ele>1979.0</ele>
      </trkpt>
      <trkpt lat="44.32587" lon="6.84875">
        <time>2023-04-10T11:23:49+00:00</time>
        <ele>1979.0</ele>
      </trkpt>
      <trkpt lat="44.32587" lon="6.84875">
        <time>2023-04-10T11:23:50+00:00</time>
        <ele>1979.0</ele>
      </trkpt>
      <trkpt lat="44.32584" lon="6.84876">
        <time>2023-04-10T11:23:51+00:00</time>
        <ele>1979.0</ele>
      </trkpt>
      <trkpt lat="44.32584" lon="6.84876">
        <time>2023-04-10T11:23:52+00:00</time>
        <ele>1979.0</ele>
      </trkpt>
      <trkpt lat="44.32584" lon="6.84876">
        <time>2023-04-10T11:23:53+00:00</time>
        <ele>1979.0</ele>
      </trkpt>
      <trkpt lat="44.32584" lon="6.84876">
        <time>2023-04-10T11:23:54+00:00</time>
        <ele>1979.0</ele>
      </trkpt>
      <trkpt lat="44.32584" lon="6.84876">
        <time>2023-04-10T11:23:55+00:00</time>
        <ele>1979.0</ele>
      </trkpt>
      <trkpt lat="44.32582" lon="6.84877">
        <time>2023-04-10T11:23:56+00:00</time>
        <ele>1980.0</ele>
      </trkpt>
      <trkpt lat="44.32582" lon="6.84877">
        <time>2023-04-10T11:23:57+00:00</time>
        <ele>1980.0</ele>
      </trkpt>
      <trkpt lat="44.32582" lon="6.84877">
        <time>2023-04-10T11:23:58+00:00</time>
        <ele>1980.0</ele>
      </trkpt>
      <trkpt lat="44.32582" lon="6.84877">
        <time>2023-04-10T11:23:59+00:00</time>
        <ele>1980.0</ele>
      </trkpt>
      <trkpt lat="44.3258" lon="6.84879">
        <time>2023-04-10T11:24:00+00:00</time>
        <ele>1980.0</ele>
      </trkpt>
      <trkpt lat="44.3258" lon="6.84879">
        <time>2023-04-10T11:24:01+00:00</time>
        <ele>1980.0</ele>
      </trkpt>
      <trkpt lat="44.3258" lon="6.84879">
        <time>2023-04-10T11:24:02+00:00</time>
        <ele>1980.0</ele>
      </trkpt>
      <trkpt lat="44.3258" lon="6.84879">
        <time>2023-04-10T11:24:03+00:00</time>
        <ele>1980.0</ele>
      </trkpt>
      <trkpt lat="44.32578" lon="6.84881">
        <time>2023-04-10T11:24:04+00:00</time>
        <ele>1980.0</ele>
      </trkpt>
      <trkpt lat="44.32578" lon="6.84881">
        <time>2023-04-10T11:24:05+00:00</time>
        <ele>1980.0</ele>
      </trkpt>
      <trkpt lat="44.32578" lon="6.84881">
        <time>2023-04-10T11:24:06+00:00</time>
        <ele>1980.0</ele>
      </trkpt>
      <trkpt lat="44.32576" lon="6.84882">
        <time>2023-04-10T11:24:07+00:00</time>
        <ele>1981.0</ele>
      </trkpt>
      <trkpt lat="44.32576" lon="6.84882">
        <time>2023-04-10T11:24:08+00:00</time>
        <ele>1981.0</ele>
      </trkpt>
      <trkpt lat="44.32576" lon="6.84882">
        <time>2023-04-10T11:24:09+00:00</time>
        <ele>1981.0</ele>
      </trkpt>
      <trkpt lat="44.32576" lon="6.84882">
        <time>2023-04-10T11:24:10+00:00</time>
        <ele>1981.0</ele>
      </trkpt>
      <trkpt lat="44.32574" lon="6.84883">
        <time>2023-04-10T11:24:11+00:00</time>
        <ele>1981.0</ele>
      </trkpt>
      <trkpt lat="44.32574" lon="6.84883">
        <time>2023-04-10T11:24:12+00:00</time>
        <ele>1981.0</ele>
      </trkpt>
      <trkpt lat="44.32574" lon="6.84883">
        <time>2023-04-10T11:24:13+00:00</time>
        <ele>1981.0</ele>
      </trkpt>
      <trkpt lat="44.32572" lon="6.84882">
        <time>2023-04-10T11:24:14+00:00</time>
        <ele>1982.0</ele>
      </trkpt>
      <trkpt lat="44.32572" lon="6.84882">
        <time>2023-04-10T11:24:15+00:00</time>
        <ele>1982.0</ele>
      </trkpt>
      <trkpt lat="44.32572" lon="6.84882">
        <time>2023-04-10T11:24:16+00:00</time>
        <ele>1982.0</ele>
      </trkpt>
      <trkpt lat="44.3257" lon="6.84881">
        <time>2023-04-10T11:24:17+00:00</time>
        <ele>1983.0</ele>
      </trkpt>
      <trkpt lat="44.3257" lon="6.84881">
        <time>2023-04-10T11:24:18+00:00</time>
        <ele>1983.0</ele>
      </trkpt>
      <trkpt lat="44.3257" lon="6.84881">
        <time>2023-04-10T11:24:19+00:00</time>
        <ele>1983.0</ele>
      </trkpt>
      <trkpt lat="44.32568" lon="6.8488">
        <time>2023-04-10T11:24:20+00:00</time>
        <ele>1984.0</ele>
      </trkpt>
      <trkpt lat="44.32568" lon="6.8488">
        <time>2023-04-10T11:24:21+00:00</time>
        <ele>1984.0</ele>
      </trkpt>
      <trkpt lat="44.32568" lon="6.8488">
        <time>2023-04-10T11:24:22+00:00</time>
        <ele>1984.0</ele>
      </trkpt>
      <trkpt lat="44.32566" lon="6.84879">
        <time>2023-04-10T11:24:23+00:00</time>
        <ele>1985.0</ele>
      </trkpt>
      <trkpt lat="44.32566" lon="6.84879">
        <time>2023-04-10T11:24:24+00:00</time>
        <ele>1985.0</ele>
      </trkpt>
      <trkpt lat="44.32566" lon="6.84879">
        <time>2023-04-10T11:24:25+00:00</time>
        <ele>1985.0</ele>
      </trkpt>
      <trkpt lat="44.32564" lon="6.84878">
        <time>2023-04-10T11:24:26+00:00</time>
        <ele>1986.0</ele>
      </trkpt>
      <trkpt lat="44.32564" lon="6.84878">
        <time>2023-04-10T11:24:27+00:00</time>
        <ele>1986.0</ele>
      </trkpt>
      <trkpt lat="44.32564" lon="6.84878">
        <time>2023-04-10T11:24:28+00:00</time>
        <ele>1986.0</ele>
      </trkpt>
      <trkpt lat="44.32562" lon="6.84877">
        <time>2023-04-10T11:24:29+00:00</time>
        <ele>1987.0</ele>
      </trkpt>
      <trkpt lat="44.32562" lon="6.84877">
        <time>2023-04-10T11:24:30+00:00</time>
        <ele>1987.0</ele>
      </trkpt>
      <trkpt lat="44.32562" lon="6.84877">
        <time>2023-04-10T11:24:31+00:00</time>
        <ele>1987.0</ele>
      </trkpt>
      <trkpt lat="44.3256" lon="6.84876">
        <time>2023-04-10T11:24:32+00:00</time>
        <ele>1987.0</ele>
      </trkpt>
      <trkpt lat="44.3256" lon="6.84876">
        <time>2023-04-10T11:24:33+00:00</time>
        <ele>1987.0</ele>
      </trkpt>
      <trkpt lat="44.3256" lon="6.84876">
        <time>2023-04-10T11:24:34+00:00</time>
        <ele>1987.0</ele>
      </trkpt>
      <trkpt lat="44.32558" lon="6.84875">
        <time>2023-04-10T11:24:35+00:00</time>
        <ele>1988.0</ele>
      </trkpt>
      <trkpt lat="44.32558" lon="6.84875">
        <time>2023-04-10T11:24:36+00:00</time>
        <ele>1988.0</ele>
      </trkpt>
      <trkpt lat="44.32558" lon="6.84875">
        <time>2023-04-10T11:24:37+00:00</time>
        <ele>1988.0</ele>
      </trkpt>
      <trkpt lat="44.32556" lon="6.84875">
        <time>2023-04-10T11:24:38+00:00</time>
        <ele>1989.0</ele>
      </trkpt>
      <trkpt lat="44.32556" lon="6.84875">
        <time>2023-04-10T11:24:39+00:00</time>
        <ele>1989.0</ele>
      </trkpt>
      <trkpt lat="44.32556" lon="6.84875">
        <time>2023-04-10T11:24:40+00:00</time>
        <ele>1989.0</ele>
      </trkpt>
      <trkpt lat="44.32554" lon="6.84874">
        <time>2023-04-10T11:24:41+00:00</time>
        <ele>1990.0</ele>
      </trkpt>
      <trkpt lat="44.32554" lon="6.84874">
        <time>2023-04-10T11:24:42+00:00</time>
        <ele>1990.0</ele>
      </trkpt>
      <trkpt lat="44.32554" lon="6.84874">
        <time>2023-04-10T11:24:43+00:00</time>
        <ele>1990.0</ele>
      </trkpt>
      <trkpt lat="44.32552" lon="6.84873">
        <time>2023-04-10T11:24:44+00:00</time>
        <ele>1991.0</ele>
      </trkpt>
      <trkpt lat="44.32552" lon="6.84873">
        <time>2023-04-10T11:24:45+00:00</time>
        <ele>1991.0</ele>
      </trkpt>
      <trkpt lat="44.32552" lon="6.84873">
        <time>2023-04-10T11:24:46+00:00</time>
        <ele>1991.0</ele>
      </trkpt>
      <trkpt lat="44.3255" lon="6.84873">
        <time>2023-04-10T11:24:47+00:00</time>
        <ele>1992.0</ele>
      </trkpt>
      <trkpt lat="44.3255" lon="6.84873">
        <time>2023-04-10T11:24:48+00:00</time>
        <ele>1992.0</ele>
      </trkpt>
      <trkpt lat="44.3255" lon="6.84873">
        <time>2023-04-10T11:24:49+00:00</time>
        <ele>1992.0</ele>
      </trkpt>
      <trkpt lat="44.32548" lon="6.84872">
        <time>2023-04-10T11:24:50+00:00</time>
        <ele>1993.0</ele>
      </trkpt>
      <trkpt lat="44.32548" lon="6.84872">
        <time>2023-04-10T11:24:51+00:00</time>
        <ele>1993.0</ele>
      </trkpt>
      <trkpt lat="44.32548" lon="6.84872">
        <time>2023-04-10T11:24:52+00:00</time>
        <ele>1993.0</ele>
      </trkpt>
      <trkpt lat="44.32546" lon="6.84871">
        <time>2023-04-10T11:24:53+00:00</time>
        <ele>1993.0</ele>
      </trkpt>
      <trkpt lat="44.32546" lon="6.84871">
        <time>2023-04-10T11:24:54+00:00</time>
        <ele>1993.0</ele>
      </trkpt>
      <trkpt lat="44.32546" lon="6.84871">
        <time>2023-04-10T11:24:55+00:00</time>
        <ele>1993.0</ele>
      </trkpt>
      <trkpt lat="44.32543" lon="6.84871">
        <time>2023-04-10T11:24:56+00:00</time>
        <ele>1994.0</ele>
      </trkpt>
      <trkpt lat="44.32543" lon="6.84871">
        <time>2023-04-10T11:24:57+00:00</time>
        <ele>1994.0</ele>
      </trkpt>
      <trkpt lat="44.32543" lon="6.84871">
        <time>2023-04-10T11:24:58+00:00</time>
        <ele>1994.0</ele>
      </trkpt>
      <trkpt lat="44.32543" lon="6.84871">
        <time>2023-04-10T11:24:59+00:00</time>
        <ele>1994.0</ele>
      </trkpt>
      <trkpt lat="44.32541" lon="6.8487">
        <time>2023-04-10T11:25:00+00:00</time>
        <ele>1995.0</ele>
      </trkpt>
      <trkpt lat="44.32541" lon="6.8487">
        <time>2023-04-10T11:25:01+00:00</time>
        <ele>1995.0</ele>
      </trkpt>
      <trkpt lat="44.32541" lon="6.8487">
        <time>2023-04-10T11:25:02+00:00</time>
        <ele>1995.0</ele>
      </trkpt>
      <trkpt lat="44.32539" lon="6.84869">
        <time>2023-04-10T11:25:03+00:00</time>
        <ele>1996.0</ele>
      </trkpt>
      <trkpt lat="44.32539" lon="6.84869">
        <time>2023-04-10T11:25:04+00:00</time>
        <ele>1996.0</ele>
      </trkpt>
      <trkpt lat="44.32539" lon="6.84869">
        <time>2023-04-10T11:25:05+00:00</time>
        <ele>1996.0</ele>
      </trkpt>
      <trkpt lat="44.32537" lon="6.8487">
        <time>2023-04-10T11:25:06+00:00</time>
        <ele>1996.0</ele>
      </trkpt>
      <trkpt lat="44.32537" lon="6.8487">
        <time>2023-04-10T11:25:07+00:00</time>
        <ele>1996.0</ele>
      </trkpt>
      <trkpt lat="44.32537" lon="6.8487">
        <time>2023-04-10T11:25:08+00:00</time>
        <ele>1996.0</ele>
      </trkpt>
      <trkpt lat="44.32535" lon="6.8487">
        <time>2023-04-10T11:25:09+00:00</time>
        <ele>1997.0</ele>
      </trkpt>
      <trkpt lat="44.32535" lon="6.8487">
        <time>2023-04-10T11:25:10+00:00</time>
        <ele>1997.0</ele>
      </trkpt>
      <trkpt lat="44.32535" lon="6.8487">
        <time>2023-04-10T11:25:11+00:00</time>
        <ele>1997.0</ele>
      </trkpt>
      <trkpt lat="44.32535" lon="6.8487">
        <time>2023-04-10T11:25:12+00:00</time>
        <ele>1997.0</ele>
      </trkpt>
      <trkpt lat="44.32535" lon="6.8487">
        <time>2023-04-10T11:25:13+00:00</time>
        <ele>1997.0</ele>
      </trkpt>
      <trkpt lat="44.32535" lon="6.8487">
        <time>2023-04-10T11:25:14+00:00</time>
        <ele>1997.0</ele>
      </trkpt>
      <trkpt lat="44.32535" lon="6.8487">
        <time>2023-04-10T11:25:15+00:00</time>
        <ele>1997.0</ele>
      </trkpt>
      <trkpt lat="44.32535" lon="6.8487">
        <time>2023-04-10T11:25:16+00:00</time>
        <ele>1997.0</ele>
      </trkpt>
      <trkpt lat="44.32535" lon="6.8487">
        <time>2023-04-10T11:25:17+00:00</time>
        <ele>1997.0</ele>
      </trkpt>
      <trkpt lat="44.32535" lon="6.8487">
        <time>2023-04-10T11:25:18+00:00</time>
        <ele>1997.0</ele>
      </trkpt>
      <trkpt lat="44.32535" lon="6.8487">
        <time>2023-04-10T11:25:19+00:00</time>
        <ele>1997.0</ele>
      </trkpt>
      <trkpt lat="44.32535" lon="6.8487">
        <time>2023-04-10T11:25:20+00:00</time>
        <ele>1997.0</ele>
      </trkpt>
      <trkpt lat="44.32535" lon="6.8487">
        <time>2023-04-10T11:25:21+00:00</time>
        <ele>1997.0</ele>
      </trkpt>
      <trkpt lat="44.32535" lon="6.8487">
        <time>2023-04-10T11:25:22+00:00</time>
        <ele>1997.0</ele>
      </trkpt>
      <trkpt lat="44.32535" lon="6.8487">
        <time>2023-04-10T11:25:23+00:00</time>
        <ele>1997.0</ele>
      </trkpt>
      <trkpt lat="44.32535" lon="6.8487">
        <time>2023-04-10T11:25:24+00:00</time>
        <ele>1997.0</ele>
      </trkpt>
      <trkpt lat="44.32535" lon="6.8487">
        <time>2023-04-10T11:25:25+00:00</time>
        <ele>1997.0</ele>
      </trkpt>
      <trkpt lat="44.32535" lon="6.8487">
        <time>2023-04-10T11:25:26+00:00</time>
        <ele>1997.0</ele>
      </trkpt>
      <trkpt lat="44.32535" lon="6.8487">
        <time>2023-04-10T11:25:27+00:00</time>
        <ele>1997.0</ele>
      </trkpt>
      <trkpt lat="44.32535" lon="6.8487">
        <time>2023-04-10T11:25:28+00:00</time>
        <ele>1997.0</ele>
      </trkpt>
      <trkpt lat="44.32535" lon="6.8487">
        <time>2023-04-10T11:25:29+00:00</time>
        <ele>1997.0</ele>
      </trkpt>
      <trkpt lat="44.32535" lon="6.8487">
        <time>2023-04-10T11:25:30+00:00</time>
        <ele>1997.0</ele>
      </trkpt>
      <trkpt lat="44.32533" lon="6.84872">
        <time>2023-04-10T11:25:31+00:00</time>
        <ele>1997.0</ele>
      </trkpt>
      <trkpt lat="44.32533" lon="6.84872">
        <time>2023-04-10T11:25:32+00:00</time>
        <ele>1997.0</ele>
      </trkpt>
      <trkpt lat="44.32531" lon="6.84877">
        <time>2023-04-10T11:25:33+00:00</time>
        <ele>1997.0</ele>
      </trkpt>
      <trkpt lat="44.32531" lon="6.84877">
        <time>2023-04-10T11:25:34+00:00</time>
        <ele>1997.0</ele>
      </trkpt>
      <trkpt lat="44.3253" lon="6.84881">
        <time>2023-04-10T11:25:35+00:00</time>
        <ele>1996.0</ele>
      </trkpt>
      <trkpt lat="44.3253" lon="6.84881">
        <time>2023-04-10T11:25:36+00:00</time>
        <ele>1996.0</ele>
      </trkpt>
      <trkpt lat="44.32529" lon="6.84885">
        <time>2023-04-10T11:25:37+00:00</time>
        <ele>1996.0</ele>
      </trkpt>
      <trkpt lat="44.32529" lon="6.84885">
        <time>2023-04-10T11:25:38+00:00</time>
        <ele>1996.0</ele>
      </trkpt>
      <trkpt lat="44.32527" lon="6.84889">
        <time>2023-04-10T11:25:39+00:00</time>
        <ele>1996.0</ele>
      </trkpt>
      <trkpt lat="44.32527" lon="6.84889">
        <time>2023-04-10T11:25:40+00:00</time>
        <ele>1996.0</ele>
      </trkpt>
      <trkpt lat="44.32525" lon="6.84892">
        <time>2023-04-10T11:25:41+00:00</time>
        <ele>1995.0</ele>
      </trkpt>
      <trkpt lat="44.32525" lon="6.84892">
        <time>2023-04-10T11:25:42+00:00</time>
        <ele>1995.0</ele>
      </trkpt>
      <trkpt lat="44.32523" lon="6.84897">
        <time>2023-04-10T11:25:43+00:00</time>
        <ele>1995.0</ele>
      </trkpt>
      <trkpt lat="44.32521" lon="6.849">
        <time>2023-04-10T11:25:44+00:00</time>
        <ele>1995.0</ele>
      </trkpt>
      <trkpt lat="44.3252" lon="6.84903">
        <time>2023-04-10T11:25:45+00:00</time>
        <ele>1994.0</ele>
      </trkpt>
      <trkpt lat="44.32518" lon="6.84907">
        <time>2023-04-10T11:25:46+00:00</time>
        <ele>1994.0</ele>
      </trkpt>
      <trkpt lat="44.32517" lon="6.8491">
        <time>2023-04-10T11:25:47+00:00</time>
        <ele>1993.0</ele>
      </trkpt>
      <trkpt lat="44.32515" lon="6.84913">
        <time>2023-04-10T11:25:48+00:00</time>
        <ele>1993.0</ele>
      </trkpt>
      <trkpt lat="44.32514" lon="6.84917">
        <time>2023-04-10T11:25:49+00:00</time>
        <ele>1992.0</ele>
      </trkpt>
      <trkpt lat="44.32513" lon="6.84922">
        <time>2023-04-10T11:25:50+00:00</time>
        <ele>1991.0</ele>
      </trkpt>
      <trkpt lat="44.32512" lon="6.84928">
        <time>2023-04-10T11:25:51+00:00</time>
        <ele>1990.0</ele>
      </trkpt>
      <trkpt lat="44.32509" lon="6.84936">
        <time>2023-04-10T11:25:52+00:00</time>
        <ele>1989.0</ele>
      </trkpt>
      <trkpt lat="44.32506" lon="6.84944">
        <time>2023-04-10T11:25:53+00:00</time>
        <ele>1987.0</ele>
      </trkpt>
      <trkpt lat="44.325" lon="6.84951">
        <time>2023-04-10T11:25:54+00:00</time>
        <ele>1987.0</ele>
      </trkpt>
      <trkpt lat="44.32495" lon="6.84956">
        <time>2023-04-10T11:25:55+00:00</time>
        <ele>1987.0</ele>
      </trkpt>
      <trkpt lat="44.32491" lon="6.84961">
        <time>2023-04-10T11:25:56+00:00</time>
        <ele>1987.0</ele>
      </trkpt>
      <trkpt lat="44.32489" lon="6.84968">
        <time>2023-04-10T11:25:57+00:00</time>
        <ele>1986.0</ele>
      </trkpt>
      <trkpt lat="44.3249" lon="6.84974">
        <time>2023-04-10T11:25:58+00:00</time>
        <ele>1985.0</ele>
      </trkpt>
      <trkpt lat="44.32491" lon="6.8498">
        <time>2023-04-10T11:25:59+00:00</time>
        <ele>1983.0</ele>
      </trkpt>
      <trkpt lat="44.32493" lon="6.84988">
        <time>2023-04-10T11:26:00+00:00</time>
        <ele>1982.0</ele>
      </trkpt>
      <trkpt lat="44.32497" lon="6.84998">
        <time>2023-04-10T11:26:01+00:00</time>
        <ele>1979.0</ele>
      </trkpt>
      <trkpt lat="44.32501" lon="6.85008">
        <time>2023-04-10T11:26:02+00:00</time>
        <ele>1976.0</ele>
      </trkpt>
      <trkpt lat="44.32502" lon="6.85016">
        <time>2023-04-10T11:26:03+00:00</time>
        <ele>1975.0</ele>
      </trkpt>
      <trkpt lat="44.32503" lon="6.85027">
        <time>2023-04-10T11:26:04+00:00</time>
        <ele>1972.0</ele>
      </trkpt>
      <trkpt lat="44.32504" lon="6.85037">
        <time>2023-04-10T11:26:05+00:00</time>
        <ele>1970.0</ele>
      </trkpt>
      <trkpt lat="44.32506" lon="6.85048">
        <time>2023-04-10T11:26:06+00:00</time>
        <ele>1968.0</ele>
      </trkpt>
      <trkpt lat="44.32506" lon="6.85059">
        <time>2023-04-10T11:26:07+00:00</time>
        <ele>1966.0</ele>
      </trkpt>
      <trkpt lat="44.32505" lon="6.85067">
        <time>2023-04-10T11:26:08+00:00</time>
        <ele>1965.0</ele>
      </trkpt>
      <trkpt lat="44.32501" lon="6.85075">
        <time>2023-04-10T11:26:09+00:00</time>
        <ele>1965.0</ele>
      </trkpt>
      <trkpt lat="44.32497" lon="6.85082">
        <time>2023-04-10T11:26:10+00:00</time>
        <ele>1965.0</ele>
      </trkpt>
      <trkpt lat="44.32495" lon="6.85086">
        <time>2023-04-10T11:26:11+00:00</time>
        <ele>1965.0</ele>
      </trkpt>
      <trkpt lat="44.32494" lon="6.85091">
        <time>2023-04-10T11:26:12+00:00</time>
        <ele>1965.0</ele>
      </trkpt>
      <trkpt lat="44.32493" lon="6.85095">
        <time>2023-04-10T11:26:13+00:00</time>
        <ele>1964.0</ele>
      </trkpt>
      <trkpt lat="44.32493" lon="6.85099">
        <time>2023-04-10T11:26:14+00:00</time>
        <ele>1964.0</ele>
      </trkpt>
      <trkpt lat="44.32492" lon="6.85103">
        <time>2023-04-10T11:26:15+00:00</time>
        <ele>1963.0</ele>
      </trkpt>
      <trkpt lat="44.3249" lon="6.85108">
        <time>2023-04-10T11:26:16+00:00</time>
        <ele>1963.0</ele>
      </trkpt>
      <trkpt lat="44.32489" lon="6.85113">
        <time>2023-04-10T11:26:17+00:00</time>
        <ele>1962.0</ele>
      </trkpt>
      <trkpt lat="44.32487" lon="6.85117">
        <time>2023-04-10T11:26:18+00:00</time>
        <ele>1961.0</ele>
      </trkpt>
      <trkpt lat="44.32486" lon="6.85121">
        <time>2023-04-10T11:26:19+00:00</time>
        <ele>1961.0</ele>
      </trkpt>
      <trkpt lat="44.32485" lon="6.85125">
        <time>2023-04-10T11:26:20+00:00</time>
        <ele>1960.0</ele>
      </trkpt>
      <trkpt lat="44.32483" lon="6.85129">
        <time>2023-04-10T11:26:21+00:00</time>
        <ele>1960.0</ele>
      </trkpt>
      <trkpt lat="44.32481" lon="6.85133">
        <time>2023-04-10T11:26:22+00:00</time>
        <ele>1959.0</ele>
      </trkpt>
      <trkpt lat="44.32479" lon="6.85137">
        <time>2023-04-10T11:26:23+00:00</time>
        <ele>1959.0</ele>
      </trkpt>
      <trkpt lat="44.32477" lon="6.85143">
        <time>2023-04-10T11:26:24+00:00</time>
        <ele>1958.0</ele>
      </trkpt>
      <trkpt lat="44.32475" lon="6.85146">
        <time>2023-04-10T11:26:25+00:00</time>
        <ele>1958.0</ele>
      </trkpt>
      <trkpt lat="44.32473" lon="6.8515">
        <time>2023-04-10T11:26:26+00:00</time>
        <ele>1958.0</ele>
      </trkpt>
      <trkpt lat="44.3247" lon="6.85155">
        <time>2023-04-10T11:26:27+00:00</time>
        <ele>1958.0</ele>
      </trkpt>
      <trkpt lat="44.32468" lon="6.8516">
        <time>2023-04-10T11:26:28+00:00</time>
        <ele>1957.0</ele>
      </trkpt>
      <trkpt lat="44.32465" lon="6.85164">
        <time>2023-04-10T11:26:29+00:00</time>
        <ele>1957.0</ele>
      </trkpt>
      <trkpt lat="44.32462" lon="6.85167">
        <time>2023-04-10T11:26:30+00:00</time>
        <ele>1957.0</ele>
      </trkpt>
      <trkpt lat="44.3246" lon="6.8517">
        <time>2023-04-10T11:26:31+00:00</time>
        <ele>1957.0</ele>
      </trkpt>
      <trkpt lat="44.32458" lon="6.85173">
        <time>2023-04-10T11:26:32+00:00</time>
        <ele>1956.0</ele>
      </trkpt>
      <trkpt lat="44.32457" lon="6.85176">
        <time>2023-04-10T11:26:33+00:00</time>
        <ele>1956.0</ele>
      </trkpt>
      <trkpt lat="44.32455" lon="6.8518">
        <time>2023-04-10T11:26:34+00:00</time>
        <ele>1955.0</ele>
      </trkpt>
      <trkpt lat="44.32454" lon="6.85183">
        <time>2023-04-10T11:26:35+00:00</time>
        <ele>1954.0</ele>
      </trkpt>
      <trkpt lat="44.32453" lon="6.85187">
        <time>2023-04-10T11:26:36+00:00</time>
        <ele>1953.0</ele>
      </trkpt>
      <trkpt lat="44.32453" lon="6.8519">
        <time>2023-04-10T11:26:37+00:00</time>
        <ele>1952.0</ele>
      </trkpt>
      <trkpt lat="44.32452" lon="6.85193">
        <time>2023-04-10T11:26:38+00:00</time>
        <ele>1951.0</ele>
      </trkpt>
      <trkpt lat="44.32452" lon="6.85193">
        <time>2023-04-10T11:26:39+00:00</time>
        <ele>1951.0</ele>
      </trkpt>
      <trkpt lat="44.32452" lon="6.85193">
        <time>2023-04-10T11:26:40+00:00</time>
        <ele>1951.0</ele>
      </trkpt>
      <trkpt lat="44.32451" lon="6.85196">
        <time>2023-04-10T11:26:41+00:00</time>
        <ele>1950.0</ele>
      </trkpt>
      <trkpt lat="44.32451" lon="6.85196">
        <time>2023-04-10T11:26:42+00:00</time>
        <ele>1950.0</ele>
      </trkpt>
      <trkpt lat="44.32451" lon="6.85196">
        <time>2023-04-10T11:26:43+00:00</time>
        <ele>1950.0</ele>
      </trkpt>
      <trkpt lat="44.32451" lon="6.85199">
        <time>2023-04-10T11:26:44+00:00</time>
        <ele>1949.0</ele>
      </trkpt>
      <trkpt lat="44.32451" lon="6.85199">
        <time>2023-04-10T11:26:45+00:00</time>
        <ele>1949.0</ele>
      </trkpt>
      <trkpt lat="44.3245" lon="6.85201">
        <time>2023-04-10T11:26:46+00:00</time>
        <ele>1949.0</ele>
      </trkpt>
      <trkpt lat="44.3245" lon="6.85201">
        <time>2023-04-10T11:26:47+00:00</time>
        <ele>1949.0</ele>
      </trkpt>
      <trkpt lat="44.32449" lon="6.85204">
        <time>2023-04-10T11:26:48+00:00</time>
        <ele>1948.0</ele>
      </trkpt>
      <trkpt lat="44.32449" lon="6.85204">
        <time>2023-04-10T11:26:49+00:00</time>
        <ele>1948.0</ele>
      </trkpt>
      <trkpt lat="44.32449" lon="6.85207">
        <time>2023-04-10T11:26:50+00:00</time>
        <ele>1947.0</ele>
      </trkpt>
      <trkpt lat="44.32449" lon="6.85207">
        <time>2023-04-10T11:26:51+00:00</time>
        <ele>1947.0</ele>
      </trkpt>
      <trkpt lat="44.32448" lon="6.85209">
        <time>2023-04-10T11:26:52+00:00</time>
        <ele>1947.0</ele>
      </trkpt>
      <trkpt lat="44.32448" lon="6.85209">
        <time>2023-04-10T11:26:53+00:00</time>
        <ele>1947.0</ele>
      </trkpt>
      <trkpt lat="44.32447" lon="6.85211">
        <time>2023-04-10T11:26:54+00:00</time>
        <ele>1946.0</ele>
      </trkpt>
      <trkpt lat="44.32447" lon="6.85211">
        <time>2023-04-10T11:26:55+00:00</time>
        <ele>1946.0</ele>
      </trkpt>
      <trkpt lat="44.32445" lon="6.85213">
        <time>2023-04-10T11:26:56+00:00</time>
        <ele>1946.0</ele>
      </trkpt>
      <trkpt lat="44.32445" lon="6.85213">
        <time>2023-04-10T11:26:57+00:00</time>
        <ele>1946.0</ele>
      </trkpt>
      <trkpt lat="44.32445" lon="6.85213">
        <time>2023-04-10T11:26:58+00:00</time>
        <ele>1946.0</ele>
      </trkpt>
      <trkpt lat="44.32444" lon="6.85215">
        <time>2023-04-10T11:26:59+00:00</time>
        <ele>1946.0</ele>
      </trkpt>
      <trkpt lat="44.32444" lon="6.85215">
        <time>2023-04-10T11:27:00+00:00</time>
        <ele>1946.0</ele>
      </trkpt>
      <trkpt lat="44.32444" lon="6.85215">
        <time>2023-04-10T11:27:01+00:00</time>
        <ele>1946.0</ele>
      </trkpt>
      <trkpt lat="44.32443" lon="6.85217">
        <time>2023-04-10T11:27:02+00:00</time>
        <ele>1946.0</ele>
      </trkpt>
      <trkpt lat="44.32443" lon="6.85217">
        <time>2023-04-10T11:27:03+00:00</time>
        <ele>1946.0</ele>
      </trkpt>
      <trkpt lat="44.32443" lon="6.85217">
        <time>2023-04-10T11:27:04+00:00</time>
        <ele>1946.0</ele>
      </trkpt>
      <trkpt lat="44.32441" lon="6.85219">
        <time>2023-04-10T11:27:05+00:00</time>
        <ele>1946.0</ele>
      </trkpt>
      <trkpt lat="44.32441" lon="6.85219">
        <time>2023-04-10T11:27:06+00:00</time>
        <ele>1946.0</ele>
      </trkpt>
      <trkpt lat="44.32441" lon="6.85219">
        <time>2023-04-10T11:27:07+00:00</time>
        <ele>1946.0</ele>
      </trkpt>
      <trkpt lat="44.32441" lon="6.85219">
        <time>2023-04-10T11:27:08+00:00</time>
        <ele>1946.0</ele>
      </trkpt>
      <trkpt lat="44.32441" lon="6.85219">
        <time>2023-04-10T11:27:09+00:00</time>
        <ele>1946.0</ele>
      </trkpt>
      <trkpt lat="44.32441" lon="6.85219">
        <time>2023-04-10T11:27:10+00:00</time>
        <ele>1946.0</ele>
      </trkpt>
      <trkpt lat="44.32441" lon="6.85219">
        <time>2023-04-10T11:27:11+00:00</time>
        <ele>1946.0</ele>
      </trkpt>
      <trkpt lat="44.32441" lon="6.85219">
        <time>2023-04-10T11:27:12+00:00</time>
        <ele>1946.0</ele>
      </trkpt>
      <trkpt lat="44.32441" lon="6.85219">
        <time>2023-04-10T11:27:13+00:00</time>
        <ele>1946.0</ele>
      </trkpt>
      <trkpt lat="44.32441" lon="6.85219">
        <time>2023-04-10T11:27:14+00:00</time>
        <ele>1946.0</ele>
      </trkpt>
      <trkpt lat="44.32441" lon="6.85219">
        <time>2023-04-10T11:27:15+00:00</time>
        <ele>1946.0</ele>
      </trkpt>
      <trkpt lat="44.32441" lon="6.85219">
        <time>2023-04-10T11:27:16+00:00</time>
        <ele>1946.0</ele>
      </trkpt>
      <trkpt lat="44.32441" lon="6.85219">
        <time>2023-04-10T11:27:17+00:00</time>
        <ele>1946.0</ele>
      </trkpt>
      <trkpt lat="44.32441" lon="6.85219">
        <time>2023-04-10T11:27:18+00:00</time>
        <ele>1946.0</ele>
      </trkpt>
      <trkpt lat="44.32441" lon="6.85219">
        <time>2023-04-10T11:27:19+00:00</time>
        <ele>1946.0</ele>
      </trkpt>
      <trkpt lat="44.32441" lon="6.85223">
        <time>2023-04-10T11:27:20+00:00</time>
        <ele>1944.0</ele>
      </trkpt>
      <trkpt lat="44.32441" lon="6.85223">
        <time>2023-04-10T11:27:21+00:00</time>
        <ele>1944.0</ele>
      </trkpt>
      <trkpt lat="44.32439" lon="6.85224">
        <time>2023-04-10T11:27:22+00:00</time>
        <ele>1944.0</ele>
      </trkpt>
      <trkpt lat="44.32439" lon="6.85224">
        <time>2023-04-10T11:27:23+00:00</time>
        <ele>1944.0</ele>
      </trkpt>
      <trkpt lat="44.32437" lon="6.85226">
        <time>2023-04-10T11:27:24+00:00</time>
        <ele>1944.0</ele>
      </trkpt>
      <trkpt lat="44.32437" lon="6.85226">
        <time>2023-04-10T11:27:25+00:00</time>
        <ele>1944.0</ele>
      </trkpt>
      <trkpt lat="44.32436" lon="6.85228">
        <time>2023-04-10T11:27:26+00:00</time>
        <ele>1944.0</ele>
      </trkpt>
      <trkpt lat="44.32436" lon="6.85228">
        <time>2023-04-10T11:27:27+00:00</time>
        <ele>1944.0</ele>
      </trkpt>
      <trkpt lat="44.32434" lon="6.8523">
        <time>2023-04-10T11:27:28+00:00</time>
        <ele>1944.0</ele>
      </trkpt>
      <trkpt lat="44.32434" lon="6.8523">
        <time>2023-04-10T11:27:29+00:00</time>
        <ele>1944.0</ele>
      </trkpt>
      <trkpt lat="44.32432" lon="6.85231">
        <time>2023-04-10T11:27:30+00:00</time>
        <ele>1944.0</ele>
      </trkpt>
      <trkpt lat="44.32432" lon="6.85231">
        <time>2023-04-10T11:27:31+00:00</time>
        <ele>1944.0</ele>
      </trkpt>
      <trkpt lat="44.32432" lon="6.85231">
        <time>2023-04-10T11:27:32+00:00</time>
        <ele>1944.0</ele>
      </trkpt>
      <trkpt lat="44.32431" lon="6.85233">
        <time>2023-04-10T11:27:33+00:00</time>
        <ele>1944.0</ele>
      </trkpt>
      <trkpt lat="44.32431" lon="6.85233">
        <time>2023-04-10T11:27:34+00:00</time>
        <ele>1944.0</ele>
      </trkpt>
      <trkpt lat="44.32431" lon="6.85233">
        <time>2023-04-10T11:27:35+00:00</time>
        <ele>1944.0</ele>
      </trkpt>
      <trkpt lat="44.32431" lon="6.85233">
        <time>2023-04-10T11:27:36+00:00</time>
        <ele>1944.0</ele>
      </trkpt>
      <trkpt lat="44.32431" lon="6.85233">
        <time>2023-04-10T11:27:37+00:00</time>
        <ele>1944.0</ele>
      </trkpt>
      <trkpt lat="44.32431" lon="6.85233">
        <time>2023-04-10T11:27:38+00:00</time>
        <ele>1944.0</ele>
      </trkpt>
      <trkpt lat="44.32429" lon="6.85235">
        <time>2023-04-10T11:27:39+00:00</time>
        <ele>1944.0</ele>
      </trkpt>
      <trkpt lat="44.32429" lon="6.85235">
        <time>2023-04-10T11:27:40+00:00</time>
        <ele>1944.0</ele>
      </trkpt>
      <trkpt lat="44.32429" lon="6.85235">
        <time>2023-04-10T11:27:41+00:00</time>
        <ele>1944.0</ele>
      </trkpt>
      <trkpt lat="44.32428" lon="6.85237">
        <time>2023-04-10T11:27:42+00:00</time>
        <ele>1943.0</ele>
      </trkpt>
      <trkpt lat="44.32428" lon="6.85237">
        <time>2023-04-10T11:27:43+00:00</time>
        <ele>1943.0</ele>
      </trkpt>
      <trkpt lat="44.32428" lon="6.85237">
        <time>2023-04-10T11:27:44+00:00</time>
        <ele>1943.0</ele>
      </trkpt>
      <trkpt lat="44.32426" lon="6.85239">
        <time>2023-04-10T11:27:45+00:00</time>
        <ele>1943.0</ele>
      </trkpt>
      <trkpt lat="44.32426" lon="6.85239">
        <time>2023-04-10T11:27:46+00:00</time>
        <ele>1943.0</ele>
      </trkpt>
      <trkpt lat="44.32426" lon="6.85239">
        <time>2023-04-10T11:27:47+00:00</time>
        <ele>1943.0</ele>
      </trkpt>
      <trkpt lat="44.32423" lon="6.85241">
        <time>2023-04-10T11:27:48+00:00</time>
        <ele>1944.0</ele>
      </trkpt>
      <trkpt lat="44.32423" lon="6.85241">
        <time>2023-04-10T11:27:49+00:00</time>
        <ele>1944.0</ele>
      </trkpt>
      <trkpt lat="44.32423" lon="6.85241">
        <time>2023-04-10T11:27:50+00:00</time>
        <ele>1944.0</ele>
      </trkpt>
      <trkpt lat="44.32421" lon="6.85243">
        <time>2023-04-10T11:27:51+00:00</time>
        <ele>1944.0</ele>
      </trkpt>
      <trkpt lat="44.32421" lon="6.85243">
        <time>2023-04-10T11:27:52+00:00</time>
        <ele>1944.0</ele>
      </trkpt>
      <trkpt lat="44.32419" lon="6.85244">
        <time>2023-04-10T11:27:53+00:00</time>
        <ele>1944.0</ele>
      </trkpt>
      <trkpt lat="44.32419" lon="6.85244">
        <time>2023-04-10T11:27:54+00:00</time>
        <ele>1944.0</ele>
      </trkpt>
      <trkpt lat="44.32419" lon="6.85244">
        <time>2023-04-10T11:27:55+00:00</time>
        <ele>1944.0</ele>
      </trkpt>
      <trkpt lat="44.32418" lon="6.85246">
        <time>2023-04-10T11:27:56+00:00</time>
        <ele>1944.0</ele>
      </trkpt>
      <trkpt lat="44.32418" lon="6.85246">
        <time>2023-04-10T11:27:57+00:00</time>
        <ele>1944.0</ele>
      </trkpt>
      <trkpt lat="44.32418" lon="6.85246">
        <time>2023-04-10T11:27:58+00:00</time>
        <ele>1944.0</ele>
      </trkpt>
      <trkpt lat="44.32417" lon="6.85248">
        <time>2023-04-10T11:27:59+00:00</time>
        <ele>1943.0</ele>
      </trkpt>
      <trkpt lat="44.32417" lon="6.85248">
        <time>2023-04-10T11:28:00+00:00</time>
        <ele>1943.0</ele>
      </trkpt>
      <trkpt lat="44.32415" lon="6.8525">
        <time>2023-04-10T11:28:01+00:00</time>
        <ele>1943.0</ele>
      </trkpt>
      <trkpt lat="44.32415" lon="6.8525">
        <time>2023-04-10T11:28:02+00:00</time>
        <ele>1943.0</ele>
      </trkpt>
      <trkpt lat="44.32415" lon="6.8525">
        <time>2023-04-10T11:28:03+00:00</time>
        <ele>1943.0</ele>
      </trkpt>
      <trkpt lat="44.32413" lon="6.85251">
        <time>2023-04-10T11:28:04+00:00</time>
        <ele>1943.0</ele>
      </trkpt>
      <trkpt lat="44.32413" lon="6.85251">
        <time>2023-04-10T11:28:05+00:00</time>
        <ele>1943.0</ele>
      </trkpt>
      <trkpt lat="44.32413" lon="6.85251">
        <time>2023-04-10T11:28:06+00:00</time>
        <ele>1943.0</ele>
      </trkpt>
      <trkpt lat="44.32413" lon="6.85254">
        <time>2023-04-10T11:28:07+00:00</time>
        <ele>1942.0</ele>
      </trkpt>
      <trkpt lat="44.32413" lon="6.85254">
        <time>2023-04-10T11:28:08+00:00</time>
        <ele>1942.0</ele>
      </trkpt>
      <trkpt lat="44.32413" lon="6.85254">
        <time>2023-04-10T11:28:09+00:00</time>
        <ele>1942.0</ele>
      </trkpt>
      <trkpt lat="44.32412" lon="6.85257">
        <time>2023-04-10T11:28:10+00:00</time>
        <ele>1941.0</ele>
      </trkpt>
      <trkpt lat="44.32412" lon="6.85257">
        <time>2023-04-10T11:28:11+00:00</time>
        <ele>1941.0</ele>
      </trkpt>
      <trkpt lat="44.32412" lon="6.8526">
        <time>2023-04-10T11:28:12+00:00</time>
        <ele>1939.0</ele>
      </trkpt>
      <trkpt lat="44.32412" lon="6.8526">
        <time>2023-04-10T11:28:13+00:00</time>
        <ele>1939.0</ele>
      </trkpt>
      <trkpt lat="44.32411" lon="6.85263">
        <time>2023-04-10T11:28:14+00:00</time>
        <ele>1938.0</ele>
      </trkpt>
      <trkpt lat="44.32411" lon="6.85263">
        <time>2023-04-10T11:28:15+00:00</time>
        <ele>1938.0</ele>
      </trkpt>
      <trkpt lat="44.3241" lon="6.85266">
        <time>2023-04-10T11:28:16+00:00</time>
        <ele>1937.0</ele>
      </trkpt>
      <trkpt lat="44.3241" lon="6.85266">
        <time>2023-04-10T11:28:17+00:00</time>
        <ele>1937.0</ele>
      </trkpt>
      <trkpt lat="44.32408" lon="6.85269">
        <time>2023-04-10T11:28:18+00:00</time>
        <ele>1937.0</ele>
      </trkpt>
      <trkpt lat="44.32408" lon="6.85269">
        <time>2023-04-10T11:28:19+00:00</time>
        <ele>1937.0</ele>
      </trkpt>
      <trkpt lat="44.32408" lon="6.85269">
        <time>2023-04-10T11:28:20+00:00</time>
        <ele>1937.0</ele>
      </trkpt>
      <trkpt lat="44.32409" lon="6.85271">
        <time>2023-04-10T11:28:21+00:00</time>
        <ele>1936.0</ele>
      </trkpt>
      <trkpt lat="44.32409" lon="6.85271">
        <time>2023-04-10T11:28:22+00:00</time>
        <ele>1936.0</ele>
      </trkpt>
      <trkpt lat="44.32409" lon="6.85271">
        <time>2023-04-10T11:28:23+00:00</time>
        <ele>1936.0</ele>
      </trkpt>
      <trkpt lat="44.32407" lon="6.85274">
        <time>2023-04-10T11:28:24+00:00</time>
        <ele>1935.0</ele>
      </trkpt>
      <trkpt lat="44.32407" lon="6.85274">
        <time>2023-04-10T11:28:25+00:00</time>
        <ele>1935.0</ele>
      </trkpt>
      <trkpt lat="44.32407" lon="6.85274">
        <time>2023-04-10T11:28:26+00:00</time>
        <ele>1935.0</ele>
      </trkpt>
      <trkpt lat="44.32407" lon="6.85274">
        <time>2023-04-10T11:28:27+00:00</time>
        <ele>1935.0</ele>
      </trkpt>
      <trkpt lat="44.32406" lon="6.85275">
        <time>2023-04-10T11:28:28+00:00</time>
        <ele>1935.0</ele>
      </trkpt>
      <trkpt lat="44.32406" lon="6.85275">
        <time>2023-04-10T11:28:29+00:00</time>
        <ele>1935.0</ele>
      </trkpt>
      <trkpt lat="44.32404" lon="6.85277">
        <time>2023-04-10T11:28:30+00:00</time>
        <ele>1935.0</ele>
      </trkpt>
      <trkpt lat="44.32404" lon="6.85277">
        <time>2023-04-10T11:28:31+00:00</time>
        <ele>1935.0</ele>
      </trkpt>
      <trkpt lat="44.32403" lon="6.8528">
        <time>2023-04-10T11:28:32+00:00</time>
        <ele>1934.0</ele>
      </trkpt>
      <trkpt lat="44.32403" lon="6.8528">
        <time>2023-04-10T11:28:33+00:00</time>
        <ele>1934.0</ele>
      </trkpt>
      <trkpt lat="44.32403" lon="6.8528">
        <time>2023-04-10T11:28:34+00:00</time>
        <ele>1934.0</ele>
      </trkpt>
      <trkpt lat="44.32401" lon="6.85282">
        <time>2023-04-10T11:28:35+00:00</time>
        <ele>1934.0</ele>
      </trkpt>
      <trkpt lat="44.32401" lon="6.85282">
        <time>2023-04-10T11:28:36+00:00</time>
        <ele>1934.0</ele>
      </trkpt>
      <trkpt lat="44.32401" lon="6.85282">
        <time>2023-04-10T11:28:37+00:00</time>
        <ele>1934.0</ele>
      </trkpt>
      <trkpt lat="44.324" lon="6.85284">
        <time>2023-04-10T11:28:38+00:00</time>
        <ele>1934.0</ele>
      </trkpt>
      <trkpt lat="44.324" lon="6.85284">
        <time>2023-04-10T11:28:39+00:00</time>
        <ele>1934.0</ele>
      </trkpt>
      <trkpt lat="44.324" lon="6.85284">
        <time>2023-04-10T11:28:40+00:00</time>
        <ele>1934.0</ele>
      </trkpt>
      <trkpt lat="44.32398" lon="6.85287">
        <time>2023-04-10T11:28:41+00:00</time>
        <ele>1933.0</ele>
      </trkpt>
      <trkpt lat="44.32398" lon="6.85287">
        <time>2023-04-10T11:28:42+00:00</time>
        <ele>1933.0</ele>
      </trkpt>
      <trkpt lat="44.32398" lon="6.85287">
        <time>2023-04-10T11:28:43+00:00</time>
        <ele>1933.0</ele>
      </trkpt>
      <trkpt lat="44.32398" lon="6.85287">
        <time>2023-04-10T11:28:44+00:00</time>
        <ele>1933.0</ele>
      </trkpt>
      <trkpt lat="44.32398" lon="6.85287">
        <time>2023-04-10T11:28:45+00:00</time>
        <ele>1933.0</ele>
      </trkpt>
      <trkpt lat="44.32398" lon="6.85287">
        <time>2023-04-10T11:28:46+00:00</time>
        <ele>1933.0</ele>
      </trkpt>
      <trkpt lat="44.32398" lon="6.85287">
        <time>2023-04-10T11:28:47+00:00</time>
        <ele>1933.0</ele>
      </trkpt>
      <trkpt lat="44.32398" lon="6.85287">
        <time>2023-04-10T11:28:48+00:00</time>
        <ele>1933.0</ele>
      </trkpt>
      <trkpt lat="44.32398" lon="6.85287">
        <time>2023-04-10T11:28:49+00:00</time>
        <ele>1933.0</ele>
      </trkpt>
      <trkpt lat="44.32398" lon="6.85287">
        <time>2023-04-10T11:28:50+00:00</time>
        <ele>1933.0</ele>
      </trkpt>
      <trkpt lat="44.32398" lon="6.85287">
        <time>2023-04-10T11:28:51+00:00</time>
        <ele>1933.0</ele>
      </trkpt>
      <trkpt lat="44.32398" lon="6.85287">
        <time>2023-04-10T11:28:52+00:00</time>
        <ele>1933.0</ele>
      </trkpt>
      <trkpt lat="44.32396" lon="6.85289">
        <time>2023-04-10T11:28:53+00:00</time>
        <ele>1933.0</ele>
      </trkpt>
      <trkpt lat="44.32396" lon="6.85289">
        <time>2023-04-10T11:28:54+00:00</time>
        <ele>1933.0</ele>
      </trkpt>
      <trkpt lat="44.32396" lon="6.85289">
        <time>2023-04-10T11:28:55+00:00</time>
        <ele>1933.0</ele>
      </trkpt>
      <trkpt lat="44.32396" lon="6.85289">
        <time>2023-04-10T11:28:56+00:00</time>
        <ele>1933.0</ele>
      </trkpt>
      <trkpt lat="44.32396" lon="6.85289">
        <time>2023-04-10T11:28:57+00:00</time>
        <ele>1933.0</ele>
      </trkpt>
      <trkpt lat="44.32396" lon="6.85289">
        <time>2023-04-10T11:28:58+00:00</time>
        <ele>1933.0</ele>
      </trkpt>
      <trkpt lat="44.32396" lon="6.85289">
        <time>2023-04-10T11:28:59+00:00</time>
        <ele>1933.0</ele>
      </trkpt>
      <trkpt lat="44.32396" lon="6.85289">
        <time>2023-04-10T11:29:00+00:00</time>
        <ele>1933.0</ele>
      </trkpt>
      <trkpt lat="44.32396" lon="6.85289">
        <time>2023-04-10T11:29:01+00:00</time>
        <ele>1933.0</ele>
      </trkpt>
      <trkpt lat="44.32396" lon="6.85289">
        <time>2023-04-10T11:29:02+00:00</time>
        <ele>1933.0</ele>
      </trkpt>
      <trkpt lat="44.32396" lon="6.85289">
        <time>2023-04-10T11:29:03+00:00</time>
        <ele>1933.0</ele>
      </trkpt>
      <trkpt lat="44.32396" lon="6.85289">
        <time>2023-04-10T11:29:04+00:00</time>
        <ele>1933.0</ele>
      </trkpt>
      <trkpt lat="44.32396" lon="6.85289">
        <time>2023-04-10T11:29:05+00:00</time>
        <ele>1933.0</ele>
      </trkpt>
      <trkpt lat="44.32396" lon="6.85289">
        <time>2023-04-10T11:29:06+00:00</time>
        <ele>1933.0</ele>
      </trkpt>
      <trkpt lat="44.32396" lon="6.85289">
        <time>2023-04-10T11:29:07+00:00</time>
        <ele>1933.0</ele>
      </trkpt>
      <trkpt lat="44.32396" lon="6.85289">
        <time>2023-04-10T11:29:08+00:00</time>
        <ele>1933.0</ele>
      </trkpt>
      <trkpt lat="44.32396" lon="6.85289">
        <time>2023-04-10T11:29:09+00:00</time>
        <ele>1933.0</ele>
      </trkpt>
      <trkpt lat="44.32396" lon="6.85289">
        <time>2023-04-10T11:29:10+00:00</time>
        <ele>1933.0</ele>
      </trkpt>
      <trkpt lat="44.32396" lon="6.85289">
        <time>2023-04-10T11:29:11+00:00</time>
        <ele>1933.0</ele>
      </trkpt>
      <trkpt lat="44.32396" lon="6.85289">
        <time>2023-04-10T11:29:12+00:00</time>
        <ele>1933.0</ele>
      </trkpt>
      <trkpt lat="44.32396" lon="6.85289">
        <time>2023-04-10T11:29:13+00:00</time>
        <ele>1933.0</ele>
      </trkpt>
      <trkpt lat="44.32396" lon="6.85289">
        <time>2023-04-10T11:29:14+00:00</time>
        <ele>1933.0</ele>
      </trkpt>
      <trkpt lat="44.32396" lon="6.85289">
        <time>2023-04-10T11:29:15+00:00</time>
        <ele>1933.0</ele>
      </trkpt>
      <trkpt lat="44.32396" lon="6.85289">
        <time>2023-04-10T11:29:16+00:00</time>
        <ele>1933.0</ele>
      </trkpt>
      <trkpt lat="44.32396" lon="6.85289">
        <time>2023-04-10T11:29:17+00:00</time>
        <ele>1933.0</ele>
      </trkpt>
      <trkpt lat="44.32396" lon="6.85289">
        <time>2023-04-10T11:29:18+00:00</time>
        <ele>1933.0</ele>
      </trkpt>
      <trkpt lat="44.32396" lon="6.85289">
        <time>2023-04-10T11:29:19+00:00</time>
        <ele>1933.0</ele>
      </trkpt>
      <trkpt lat="44.32396" lon="6.85289">
        <time>2023-04-10T11:29:20+00:00</time>
        <ele>1933.0</ele>
      </trkpt>
      <trkpt lat="44.32396" lon="6.85289">
        <time>2023-04-10T11:29:21+00:00</time>
        <ele>1933.0</ele>
      </trkpt>
      <trkpt lat="44.32396" lon="6.85289">
        <time>2023-04-10T11:29:22+00:00</time>
        <ele>1933.0</ele>
      </trkpt>
      <trkpt lat="44.32396" lon="6.85289">
        <time>2023-04-10T11:29:23+00:00</time>
        <ele>1933.0</ele>
      </trkpt>
      <trkpt lat="44.32396" lon="6.85289">
        <time>2023-04-10T11:29:24+00:00</time>
        <ele>1933.0</ele>
      </trkpt>
      <trkpt lat="44.32396" lon="6.85289">
        <time>2023-04-10T11:29:25+00:00</time>
        <ele>1933.0</ele>
      </trkpt>
      <trkpt lat="44.32396" lon="6.85289">
        <time>2023-04-10T11:29:26+00:00</time>
        <ele>1933.0</ele>
      </trkpt>
      <trkpt lat="44.32396" lon="6.85289">
        <time>2023-04-10T11:29:27+00:00</time>
        <ele>1933.0</ele>
      </trkpt>
      <trkpt lat="44.32396" lon="6.85289">
        <time>2023-04-10T11:29:28+00:00</time>
        <ele>1933.0</ele>
      </trkpt>
      <trkpt lat="44.32396" lon="6.85289">
        <time>2023-04-10T11:29:29+00:00</time>
        <ele>1933.0</ele>
      </trkpt>
      <trkpt lat="44.32396" lon="6.85289">
        <time>2023-04-10T11:29:30+00:00</time>
        <ele>1933.0</ele>
      </trkpt>
      <trkpt lat="44.32396" lon="6.85289">
        <time>2023-04-10T11:29:31+00:00</time>
        <ele>1933.0</ele>
      </trkpt>
      <trkpt lat="44.32396" lon="6.85289">
        <time>2023-04-10T11:29:32+00:00</time>
        <ele>1933.0</ele>
      </trkpt>
      <trkpt lat="44.32396" lon="6.85289">
        <time>2023-04-10T11:29:33+00:00</time>
        <ele>1933.0</ele>
      </trkpt>
      <trkpt lat="44.32396" lon="6.85289">
        <time>2023-04-10T11:29:34+00:00</time>
        <ele>1933.0</ele>
      </trkpt>
      <trkpt lat="44.32396" lon="6.85289">
        <time>2023-04-10T11:29:35+00:00</time>
        <ele>1933.0</ele>
      </trkpt>
      <trkpt lat="44.32396" lon="6.85289">
        <time>2023-04-10T11:29:36+00:00</time>
        <ele>1933.0</ele>
      </trkpt>
      <trkpt lat="44.32396" lon="6.85289">
        <time>2023-04-10T11:29:37+00:00</time>
        <ele>1933.0</ele>
      </trkpt>
      <trkpt lat="44.32396" lon="6.85289">
        <time>2023-04-10T11:29:38+00:00</time>
        <ele>1933.0</ele>
      </trkpt>
      <trkpt lat="44.32396" lon="6.85289">
        <time>2023-04-10T11:29:39+00:00</time>
        <ele>1933.0</ele>
      </trkpt>
      <trkpt lat="44.32396" lon="6.85286">
        <time>2023-04-10T11:29:40+00:00</time>
        <ele>1934.0</ele>
      </trkpt>
      <trkpt lat="44.32396" lon="6.85286">
        <time>2023-04-10T11:29:41+00:00</time>
        <ele>1934.0</ele>
      </trkpt>
      <trkpt lat="44.32396" lon="6.85286">
        <time>2023-04-10T11:29:42+00:00</time>
        <ele>1934.0</ele>
      </trkpt>
      <trkpt lat="44.32396" lon="6.85286">
        <time>2023-04-10T11:29:43+00:00</time>
        <ele>1934.0</ele>
      </trkpt>
      <trkpt lat="44.32396" lon="6.85286">
        <time>2023-04-10T11:29:44+00:00</time>
        <ele>1934.0</ele>
      </trkpt>
      <trkpt lat="44.32396" lon="6.85286">
        <time>2023-04-10T11:29:45+00:00</time>
        <ele>1934.0</ele>
      </trkpt>
      <trkpt lat="44.32396" lon="6.85286">
        <time>2023-04-10T11:29:46+00:00</time>
        <ele>1934.0</ele>
      </trkpt>
      <trkpt lat="44.32396" lon="6.85286">
        <time>2023-04-10T11:29:47+00:00</time>
        <ele>1934.0</ele>
      </trkpt>
      <trkpt lat="44.32396" lon="6.85286">
        <time>2023-04-10T11:29:48+00:00</time>
        <ele>1934.0</ele>
      </trkpt>
      <trkpt lat="44.32396" lon="6.85286">
        <time>2023-04-10T11:29:49+00:00</time>
        <ele>1934.0</ele>
      </trkpt>
      <trkpt lat="44.32396" lon="6.85286">
        <time>2023-04-10T11:29:50+00:00</time>
        <ele>1934.0</ele>
      </trkpt>
      <trkpt lat="44.32396" lon="6.85286">
        <time>2023-04-10T11:29:51+00:00</time>
        <ele>1934.0</ele>
      </trkpt>
      <trkpt lat="44.32396" lon="6.85286">
        <time>2023-04-10T11:29:52+00:00</time>
        <ele>1934.0</ele>
      </trkpt>
      <trkpt lat="44.32396" lon="6.85286">
        <time>2023-04-10T11:29:53+00:00</time>
        <ele>1934.0</ele>
      </trkpt>
      <trkpt lat="44.32396" lon="6.85286">
        <time>2023-04-10T11:29:54+00:00</time>
        <ele>1934.0</ele>
      </trkpt>
      <trkpt lat="44.32396" lon="6.85286">
        <time>2023-04-10T11:29:55+00:00</time>
        <ele>1934.0</ele>
      </trkpt>
      <trkpt lat="44.32396" lon="6.85286">
        <time>2023-04-10T11:29:56+00:00</time>
        <ele>1934.0</ele>
      </trkpt>
      <trkpt lat="44.32396" lon="6.85286">
        <time>2023-04-10T11:29:57+00:00</time>
        <ele>1934.0</ele>
      </trkpt>
      <trkpt lat="44.32396" lon="6.85286">
        <time>2023-04-10T11:29:58+00:00</time>
        <ele>1934.0</ele>
      </trkpt>
      <trkpt lat="44.32396" lon="6.85286">
        <time>2023-04-10T11:29:59+00:00</time>
        <ele>1934.0</ele>
      </trkpt>
      <trkpt lat="44.32396" lon="6.85286">
        <time>2023-04-10T11:30:01+00:00</time>
        <ele>1934.0</ele>
      </trkpt>
      <trkpt lat="44.32396" lon="6.85286">
        <time>2023-04-10T11:30:03+00:00</time>
        <ele>1934.0</ele>
      </trkpt>
      <trkpt lat="44.32396" lon="6.85286">
        <time>2023-04-10T11:30:04+00:00</time>
        <ele>1934.0</ele>
      </trkpt>
      <trkpt lat="44.32396" lon="6.85286">
        <time>2023-04-10T11:30:05+00:00</time>
        <ele>1934.0</ele>
      </trkpt>
      <trkpt lat="44.32396" lon="6.85286">
        <time>2023-04-10T11:30:06+00:00</time>
        <ele>1934.0</ele>
      </trkpt>
      <trkpt lat="44.32396" lon="6.85286">
        <time>2023-04-10T11:30:08+00:00</time>
        <ele>1934.0</ele>
      </trkpt>
      <trkpt lat="44.32396" lon="6.85286">
        <time>2023-04-10T11:30:09+00:00</time>
        <ele>1934.0</ele>
      </trkpt>
      <trkpt lat="44.32396" lon="6.85286">
        <time>2023-04-10T11:30:10+00:00</time>
        <ele>1934.0</ele>
      </trkpt>
      <trkpt lat="44.32396" lon="6.85286">
        <time>2023-04-10T11:30:11+00:00</time>
        <ele>1934.0</ele>
      </trkpt>
      <trkpt lat="44.32396" lon="6.85286">
        <time>2023-04-10T11:30:12+00:00</time>
        <ele>1934.0</ele>
      </trkpt>
      <trkpt lat="44.32396" lon="6.85286">
        <time>2023-04-10T11:30:13+00:00</time>
        <ele>1934.0</ele>
      </trkpt>
      <trkpt lat="44.32396" lon="6.85286">
        <time>2023-04-10T11:30:14+00:00</time>
        <ele>1934.0</ele>
      </trkpt>
      <trkpt lat="44.32396" lon="6.85286">
        <time>2023-04-10T11:30:15+00:00</time>
        <ele>1934.0</ele>
      </trkpt>
      <trkpt lat="44.32396" lon="6.85286">
        <time>2023-04-10T11:30:16+00:00</time>
        <ele>1934.0</ele>
      </trkpt>
      <trkpt lat="44.32396" lon="6.85286">
        <time>2023-04-10T11:30:17+00:00</time>
        <ele>1934.0</ele>
      </trkpt>
      <trkpt lat="44.32396" lon="6.85286">
        <time>2023-04-10T11:30:18+00:00</time>
        <ele>1934.0</ele>
      </trkpt>
      <trkpt lat="44.32396" lon="6.85286">
        <time>2023-04-10T11:30:19+00:00</time>
        <ele>1934.0</ele>
      </trkpt>
      <trkpt lat="44.32396" lon="6.85286">
        <time>2023-04-10T11:30:20+00:00</time>
        <ele>1934.0</ele>
      </trkpt>
      <trkpt lat="44.32396" lon="6.85286">
        <time>2023-04-10T11:30:21+00:00</time>
        <ele>1934.0</ele>
      </trkpt>
      <trkpt lat="44.32396" lon="6.85286">
        <time>2023-04-10T11:30:22+00:00</time>
        <ele>1934.0</ele>
      </trkpt>
      <trkpt lat="44.32396" lon="6.85286">
        <time>2023-04-10T11:30:23+00:00</time>
        <ele>1934.0</ele>
      </trkpt>
      <trkpt lat="44.32396" lon="6.85286">
        <time>2023-04-10T11:30:24+00:00</time>
        <ele>1934.0</ele>
      </trkpt>
      <trkpt lat="44.32396" lon="6.85286">
        <time>2023-04-10T11:30:25+00:00</time>
        <ele>1934.0</ele>
      </trkpt>
      <trkpt lat="44.32396" lon="6.85286">
        <time>2023-04-10T11:30:26+00:00</time>
        <ele>1934.0</ele>
      </trkpt>
      <trkpt lat="44.32396" lon="6.85286">
        <time>2023-04-10T11:30:27+00:00</time>
        <ele>1934.0</ele>
      </trkpt>
      <trkpt lat="44.32396" lon="6.85286">
        <time>2023-04-10T11:30:28+00:00</time>
        <ele>1934.0</ele>
      </trkpt>
      <trkpt lat="44.32396" lon="6.85286">
        <time>2023-04-10T11:30:29+00:00</time>
        <ele>1934.0</ele>
      </trkpt>
      <trkpt lat="44.32396" lon="6.85286">
        <time>2023-04-10T11:30:30+00:00</time>
        <ele>1934.0</ele>
      </trkpt>
      <trkpt lat="44.32396" lon="6.85286">
        <time>2023-04-10T11:30:31+00:00</time>
        <ele>1934.0</ele>
      </trkpt>
      <trkpt lat="44.32396" lon="6.85286">
        <time>2023-04-10T11:30:32+00:00</time>
        <ele>1934.0</ele>
      </trkpt>
      <trkpt lat="44.32396" lon="6.85286">
        <time>2023-04-10T11:30:33+00:00</time>
        <ele>1934.0</ele>
      </trkpt>
      <trkpt lat="44.32396" lon="6.85286">
        <time>2023-04-10T11:30:34+00:00</time>
        <ele>1934.0</ele>
      </trkpt>
      <trkpt lat="44.32396" lon="6.85286">
        <time>2023-04-10T11:30:35+00:00</time>
        <ele>1934.0</ele>
      </trkpt>
      <trkpt lat="44.32396" lon="6.85286">
        <time>2023-04-10T11:30:36+00:00</time>
        <ele>1934.0</ele>
      </trkpt>
      <trkpt lat="44.32396" lon="6.85286">
        <time>2023-04-10T11:30:37+00:00</time>
        <ele>1934.0</ele>
      </trkpt>
      <trkpt lat="44.32396" lon="6.85286">
        <time>2023-04-10T11:30:38+00:00</time>
        <ele>1934.0</ele>
      </trkpt>
      <trkpt lat="44.32396" lon="6.85286">
        <time>2023-04-10T11:30:39+00:00</time>
        <ele>1934.0</ele>
      </trkpt>
      <trkpt lat="44.32396" lon="6.85286">
        <time>2023-04-10T11:30:40+00:00</time>
        <ele>1934.0</ele>
      </trkpt>
      <trkpt lat="44.32396" lon="6.85286">
        <time>2023-04-10T11:30:41+00:00</time>
        <ele>1934.0</ele>
      </trkpt>
      <trkpt lat="44.32396" lon="6.85286">
        <time>2023-04-10T11:30:42+00:00</time>
        <ele>1934.0</ele>
      </trkpt>
      <trkpt lat="44.32396" lon="6.85286">
        <time>2023-04-10T11:30:43+00:00</time>
        <ele>1934.0</ele>
      </trkpt>
      <trkpt lat="44.32396" lon="6.85286">
        <time>2023-04-10T11:30:44+00:00</time>
        <ele>1934.0</ele>
      </trkpt>
      <trkpt lat="44.32396" lon="6.85286">
        <time>2023-04-10T11:30:45+00:00</time>
        <ele>1934.0</ele>
      </trkpt>
      <trkpt lat="44.32396" lon="6.85286">
        <time>2023-04-10T11:30:46+00:00</time>
        <ele>1934.0</ele>
      </trkpt>
      <trkpt lat="44.32396" lon="6.85286">
        <time>2023-04-10T11:30:47+00:00</time>
        <ele>1934.0</ele>
      </trkpt>
      <trkpt lat="44.32396" lon="6.85286">
        <time>2023-04-10T11:30:48+00:00</time>
        <ele>1934.0</ele>
      </trkpt>
      <trkpt lat="44.32396" lon="6.85286">
        <time>2023-04-10T11:30:49+00:00</time>
        <ele>1934.0</ele>
      </trkpt>
      <trkpt lat="44.32396" lon="6.85286">
        <time>2023-04-10T11:30:50+00:00</time>
        <ele>1934.0</ele>
      </trkpt>
      <trkpt lat="44.32396" lon="6.85286">
        <time>2023-04-10T11:30:51+00:00</time>
        <ele>1934.0</ele>
      </trkpt>
      <trkpt lat="44.32396" lon="6.85286">
        <time>2023-04-10T11:30:52+00:00</time>
        <ele>1934.0</ele>
      </trkpt>
      <trkpt lat="44.32396" lon="6.85286">
        <time>2023-04-10T11:30:53+00:00</time>
        <ele>1934.0</ele>
      </trkpt>
      <trkpt lat="44.32396" lon="6.85286">
        <time>2023-04-10T11:30:54+00:00</time>
        <ele>1934.0</ele>
      </trkpt>
      <trkpt lat="44.32396" lon="6.85286">
        <time>2023-04-10T11:30:55+00:00</time>
        <ele>1934.0</ele>
      </trkpt>
      <trkpt lat="44.32396" lon="6.85286">
        <time>2023-04-10T11:30:56+00:00</time>
        <ele>1934.0</ele>
      </trkpt>
      <trkpt lat="44.32396" lon="6.85286">
        <time>2023-04-10T11:30:57+00:00</time>
        <ele>1934.0</ele>
      </trkpt>
      <trkpt lat="44.32396" lon="6.85286">
        <time>2023-04-10T11:30:58+00:00</time>
        <ele>1934.0</ele>
      </trkpt>
      <trkpt lat="44.32396" lon="6.85286">
        <time>2023-04-10T11:30:59+00:00</time>
        <ele>1934.0</ele>
      </trkpt>
      <trkpt lat="44.32396" lon="6.85286">
        <time>2023-04-10T11:31:00+00:00</time>
        <ele>1934.0</ele>
      </trkpt>
      <trkpt lat="44.32396" lon="6.85286">
        <time>2023-04-10T11:31:01+00:00</time>
        <ele>1934.0</ele>
      </trkpt>
      <trkpt lat="44.32396" lon="6.85286">
        <time>2023-04-10T11:31:02+00:00</time>
        <ele>1934.0</ele>
      </trkpt>
      <trkpt lat="44.32396" lon="6.85286">
        <time>2023-04-10T11:31:03+00:00</time>
        <ele>1934.0</ele>
      </trkpt>
      <trkpt lat="44.32396" lon="6.85286">
        <time>2023-04-10T11:31:04+00:00</time>
        <ele>1934.0</ele>
      </trkpt>
      <trkpt lat="44.32396" lon="6.85286">
        <time>2023-04-10T11:31:05+00:00</time>
        <ele>1934.0</ele>
      </trkpt>
      <trkpt lat="44.32396" lon="6.85286">
        <time>2023-04-10T11:31:06+00:00</time>
        <ele>1934.0</ele>
      </trkpt>
      <trkpt lat="44.32396" lon="6.85286">
        <time>2023-04-10T11:31:07+00:00</time>
        <ele>1934.0</ele>
      </trkpt>
      <trkpt lat="44.32396" lon="6.85286">
        <time>2023-04-10T11:31:08+00:00</time>
        <ele>1934.0</ele>
      </trkpt>
      <trkpt lat="44.32396" lon="6.85286">
        <time>2023-04-10T11:31:09+00:00</time>
        <ele>1934.0</ele>
      </trkpt>
      <trkpt lat="44.32396" lon="6.85286">
        <time>2023-04-10T11:31:10+00:00</time>
        <ele>1934.0</ele>
      </trkpt>
      <trkpt lat="44.32396" lon="6.85286">
        <time>2023-04-10T11:31:11+00:00</time>
        <ele>1934.0</ele>
      </trkpt>
      <trkpt lat="44.32396" lon="6.85286">
        <time>2023-04-10T11:31:12+00:00</time>
        <ele>1934.0</ele>
      </trkpt>
      <trkpt lat="44.32396" lon="6.85286">
        <time>2023-04-10T11:31:13+00:00</time>
        <ele>1934.0</ele>
      </trkpt>
      <trkpt lat="44.32396" lon="6.85286">
        <time>2023-04-10T11:31:14+00:00</time>
        <ele>1934.0</ele>
      </trkpt>
      <trkpt lat="44.32396" lon="6.85286">
        <time>2023-04-10T11:31:15+00:00</time>
        <ele>1934.0</ele>
      </trkpt>
      <trkpt lat="44.32396" lon="6.85286">
        <time>2023-04-10T11:31:16+00:00</time>
        <ele>1934.0</ele>
      </trkpt>
      <trkpt lat="44.32396" lon="6.85286">
        <time>2023-04-10T11:31:17+00:00</time>
        <ele>1934.0</ele>
      </trkpt>
      <trkpt lat="44.32396" lon="6.85286">
        <time>2023-04-10T11:31:18+00:00</time>
        <ele>1934.0</ele>
      </trkpt>
      <trkpt lat="44.32396" lon="6.85286">
        <time>2023-04-10T11:31:19+00:00</time>
        <ele>1934.0</ele>
      </trkpt>
      <trkpt lat="44.32396" lon="6.85286">
        <time>2023-04-10T11:31:20+00:00</time>
        <ele>1934.0</ele>
      </trkpt>
      <trkpt lat="44.32396" lon="6.85286">
        <time>2023-04-10T11:31:21+00:00</time>
        <ele>1934.0</ele>
      </trkpt>
      <trkpt lat="44.32396" lon="6.85286">
        <time>2023-04-10T11:31:22+00:00</time>
        <ele>1934.0</ele>
      </trkpt>
      <trkpt lat="44.32396" lon="6.85286">
        <time>2023-04-10T11:31:23+00:00</time>
        <ele>1934.0</ele>
      </trkpt>
      <trkpt lat="44.32396" lon="6.85286">
        <time>2023-04-10T11:31:24+00:00</time>
        <ele>1934.0</ele>
      </trkpt>
      <trkpt lat="44.32396" lon="6.85286">
        <time>2023-04-10T11:31:25+00:00</time>
        <ele>1934.0</ele>
      </trkpt>
      <trkpt lat="44.32396" lon="6.85286">
        <time>2023-04-10T11:31:26+00:00</time>
        <ele>1934.0</ele>
      </trkpt>
      <trkpt lat="44.32396" lon="6.85286">
        <time>2023-04-10T11:31:27+00:00</time>
        <ele>1934.0</ele>
      </trkpt>
      <trkpt lat="44.32396" lon="6.85286">
        <time>2023-04-10T11:31:28+00:00</time>
        <ele>1934.0</ele>
      </trkpt>
      <trkpt lat="44.32396" lon="6.85286">
        <time>2023-04-10T11:31:29+00:00</time>
        <ele>1934.0</ele>
      </trkpt>
      <trkpt lat="44.32396" lon="6.85286">
        <time>2023-04-10T11:31:30+00:00</time>
        <ele>1934.0</ele>
      </trkpt>
      <trkpt lat="44.32396" lon="6.85286">
        <time>2023-04-10T11:31:31+00:00</time>
        <ele>1934.0</ele>
      </trkpt>
      <trkpt lat="44.32396" lon="6.85286">
        <time>2023-04-10T11:31:32+00:00</time>
        <ele>1934.0</ele>
      </trkpt>
      <trkpt lat="44.32396" lon="6.85286">
        <time>2023-04-10T11:31:33+00:00</time>
        <ele>1934.0</ele>
      </trkpt>
      <trkpt lat="44.32396" lon="6.85286">
        <time>2023-04-10T11:31:34+00:00</time>
        <ele>1934.0</ele>
      </trkpt>
      <trkpt lat="44.32396" lon="6.85286">
        <time>2023-04-10T11:31:35+00:00</time>
        <ele>1934.0</ele>
      </trkpt>
      <trkpt lat="44.32396" lon="6.85286">
        <time>2023-04-10T11:31:36+00:00</time>
        <ele>1934.0</ele>
      </trkpt>
      <trkpt lat="44.32396" lon="6.85286">
        <time>2023-04-10T11:31:37+00:00</time>
        <ele>1934.0</ele>
      </trkpt>
      <trkpt lat="44.32396" lon="6.85286">
        <time>2023-04-10T11:31:38+00:00</time>
        <ele>1934.0</ele>
      </trkpt>
      <trkpt lat="44.32396" lon="6.85286">
        <time>2023-04-10T11:31:39+00:00</time>
        <ele>1934.0</ele>
      </trkpt>
      <trkpt lat="44.32396" lon="6.85286">
        <time>2023-04-10T11:31:40+00:00</time>
        <ele>1934.0</ele>
      </trkpt>
      <trkpt lat="44.32396" lon="6.85286">
        <time>2023-04-10T11:31:41+00:00</time>
        <ele>1934.0</ele>
      </trkpt>
      <trkpt lat="44.32396" lon="6.85286">
        <time>2023-04-10T11:31:42+00:00</time>
        <ele>1934.0</ele>
      </trkpt>
      <trkpt lat="44.32396" lon="6.85286">
        <time>2023-04-10T11:31:43+00:00</time>
        <ele>1934.0</ele>
      </trkpt>
      <trkpt lat="44.32396" lon="6.85286">
        <time>2023-04-10T11:31:44+00:00</time>
        <ele>1934.0</ele>
      </trkpt>
      <trkpt lat="44.32393" lon="6.85283">
        <time>2023-04-10T11:31:45+00:00</time>
        <ele>1936.0</ele>
      </trkpt>
      <trkpt lat="44.32392" lon="6.85284">
        <time>2023-04-10T11:31:46+00:00</time>
        <ele>1936.0</ele>
      </trkpt>
      <trkpt lat="44.32392" lon="6.85284">
        <time>2023-04-10T11:31:47+00:00</time>
        <ele>1936.0</ele>
      </trkpt>
      <trkpt lat="44.32389" lon="6.85288">
        <time>2023-04-10T11:31:48+00:00</time>
        <ele>1936.0</ele>
      </trkpt>
      <trkpt lat="44.32389" lon="6.85288">
        <time>2023-04-10T11:31:49+00:00</time>
        <ele>1936.0</ele>
      </trkpt>
      <trkpt lat="44.32387" lon="6.85291">
        <time>2023-04-10T11:31:50+00:00</time>
        <ele>1935.0</ele>
      </trkpt>
      <trkpt lat="44.32385" lon="6.85293">
        <time>2023-04-10T11:31:51+00:00</time>
        <ele>1935.0</ele>
      </trkpt>
      <trkpt lat="44.32385" lon="6.85293">
        <time>2023-04-10T11:31:52+00:00</time>
        <ele>1935.0</ele>
      </trkpt>
      <trkpt lat="44.32383" lon="6.85297">
        <time>2023-04-10T11:31:53+00:00</time>
        <ele>1935.0</ele>
      </trkpt>
      <trkpt lat="44.32381" lon="6.85299">
        <time>2023-04-10T11:31:54+00:00</time>
        <ele>1935.0</ele>
      </trkpt>
      <trkpt lat="44.32381" lon="6.85299">
        <time>2023-04-10T11:31:55+00:00</time>
        <ele>1935.0</ele>
      </trkpt>
      <trkpt lat="44.32379" lon="6.85301">
        <time>2023-04-10T11:31:56+00:00</time>
        <ele>1934.0</ele>
      </trkpt>
      <trkpt lat="44.32379" lon="6.85301">
        <time>2023-04-10T11:31:57+00:00</time>
        <ele>1934.0</ele>
      </trkpt>
      <trkpt lat="44.32377" lon="6.85303">
        <time>2023-04-10T11:31:58+00:00</time>
        <ele>1934.0</ele>
      </trkpt>
      <trkpt lat="44.32377" lon="6.85303">
        <time>2023-04-10T11:31:59+00:00</time>
        <ele>1934.0</ele>
      </trkpt>
      <trkpt lat="44.32377" lon="6.85303">
        <time>2023-04-10T11:32:00+00:00</time>
        <ele>1934.0</ele>
      </trkpt>
      <trkpt lat="44.32375" lon="6.85306">
        <time>2023-04-10T11:32:01+00:00</time>
        <ele>1933.0</ele>
      </trkpt>
      <trkpt lat="44.32375" lon="6.85306">
        <time>2023-04-10T11:32:02+00:00</time>
        <ele>1933.0</ele>
      </trkpt>
      <trkpt lat="44.32375" lon="6.85306">
        <time>2023-04-10T11:32:03+00:00</time>
        <ele>1933.0</ele>
      </trkpt>
      <trkpt lat="44.32375" lon="6.85306">
        <time>2023-04-10T11:32:04+00:00</time>
        <ele>1933.0</ele>
      </trkpt>
      <trkpt lat="44.32373" lon="6.85307">
        <time>2023-04-10T11:32:05+00:00</time>
        <ele>1933.0</ele>
      </trkpt>
      <trkpt lat="44.32373" lon="6.85307">
        <time>2023-04-10T11:32:06+00:00</time>
        <ele>1933.0</ele>
      </trkpt>
      <trkpt lat="44.32371" lon="6.85309">
        <time>2023-04-10T11:32:07+00:00</time>
        <ele>1933.0</ele>
      </trkpt>
      <trkpt lat="44.32371" lon="6.85309">
        <time>2023-04-10T11:32:08+00:00</time>
        <ele>1933.0</ele>
      </trkpt>
      <trkpt lat="44.32369" lon="6.85311">
        <time>2023-04-10T11:32:09+00:00</time>
        <ele>1933.0</ele>
      </trkpt>
      <trkpt lat="44.32369" lon="6.85311">
        <time>2023-04-10T11:32:10+00:00</time>
        <ele>1933.0</ele>
      </trkpt>
      <trkpt lat="44.32369" lon="6.85311">
        <time>2023-04-10T11:32:11+00:00</time>
        <ele>1933.0</ele>
      </trkpt>
      <trkpt lat="44.32367" lon="6.85313">
        <time>2023-04-10T11:32:12+00:00</time>
        <ele>1932.0</ele>
      </trkpt>
      <trkpt lat="44.32367" lon="6.85313">
        <time>2023-04-10T11:32:13+00:00</time>
        <ele>1932.0</ele>
      </trkpt>
      <trkpt lat="44.32365" lon="6.85315">
        <time>2023-04-10T11:32:14+00:00</time>
        <ele>1932.0</ele>
      </trkpt>
      <trkpt lat="44.32365" lon="6.85315">
        <time>2023-04-10T11:32:15+00:00</time>
        <ele>1932.0</ele>
      </trkpt>
      <trkpt lat="44.32364" lon="6.85317">
        <time>2023-04-10T11:32:16+00:00</time>
        <ele>1931.0</ele>
      </trkpt>
      <trkpt lat="44.32364" lon="6.85317">
        <time>2023-04-10T11:32:17+00:00</time>
        <ele>1931.0</ele>
      </trkpt>
      <trkpt lat="44.32364" lon="6.85317">
        <time>2023-04-10T11:32:18+00:00</time>
        <ele>1931.0</ele>
      </trkpt>
      <trkpt lat="44.32364" lon="6.85317">
        <time>2023-04-10T11:32:19+00:00</time>
        <ele>1931.0</ele>
      </trkpt>
      <trkpt lat="44.32362" lon="6.85318">
        <time>2023-04-10T11:32:20+00:00</time>
        <ele>1931.0</ele>
      </trkpt>
      <trkpt lat="44.32362" lon="6.85318">
        <time>2023-04-10T11:32:21+00:00</time>
        <ele>1931.0</ele>
      </trkpt>
      <trkpt lat="44.32362" lon="6.85318">
        <time>2023-04-10T11:32:22+00:00</time>
        <ele>1931.0</ele>
      </trkpt>
      <trkpt lat="44.32362" lon="6.85318">
        <time>2023-04-10T11:32:23+00:00</time>
        <ele>1931.0</ele>
      </trkpt>
      <trkpt lat="44.3236" lon="6.85318">
        <time>2023-04-10T11:32:24+00:00</time>
        <ele>1931.0</ele>
      </trkpt>
      <trkpt lat="44.3236" lon="6.85318">
        <time>2023-04-10T11:32:25+00:00</time>
        <ele>1931.0</ele>
      </trkpt>
      <trkpt lat="44.3236" lon="6.85318">
        <time>2023-04-10T11:32:26+00:00</time>
        <ele>1931.0</ele>
      </trkpt>
      <trkpt lat="44.3236" lon="6.85318">
        <time>2023-04-10T11:32:27+00:00</time>
        <ele>1931.0</ele>
      </trkpt>
      <trkpt lat="44.3236" lon="6.85318">
        <time>2023-04-10T11:32:28+00:00</time>
        <ele>1931.0</ele>
      </trkpt>
      <trkpt lat="44.3236" lon="6.85318">
        <time>2023-04-10T11:32:29+00:00</time>
        <ele>1931.0</ele>
      </trkpt>
      <trkpt lat="44.3236" lon="6.85318">
        <time>2023-04-10T11:32:30+00:00</time>
        <ele>1931.0</ele>
      </trkpt>
      <trkpt lat="44.32357" lon="6.85319">
        <time>2023-04-10T11:32:31+00:00</time>
        <ele>1932.0</ele>
      </trkpt>
      <trkpt lat="44.32357" lon="6.85319">
        <time>2023-04-10T11:32:32+00:00</time>
        <ele>1932.0</ele>
      </trkpt>
      <trkpt lat="44.32357" lon="6.85319">
        <time>2023-04-10T11:32:33+00:00</time>
        <ele>1932.0</ele>
      </trkpt>
      <trkpt lat="44.32356" lon="6.85321">
        <time>2023-04-10T11:32:34+00:00</time>
        <ele>1931.0</ele>
      </trkpt>
      <trkpt lat="44.32356" lon="6.85321">
        <time>2023-04-10T11:32:35+00:00</time>
        <ele>1931.0</ele>
      </trkpt>
      <trkpt lat="44.32354" lon="6.85322">
        <time>2023-04-10T11:32:37+00:00</time>
        <ele>1931.0</ele>
      </trkpt>
      <trkpt lat="44.32354" lon="6.85322">
        <time>2023-04-10T11:32:38+00:00</time>
        <ele>1931.0</ele>
      </trkpt>
      <trkpt lat="44.32354" lon="6.85322">
        <time>2023-04-10T11:32:39+00:00</time>
        <ele>1931.0</ele>
      </trkpt>
      <trkpt lat="44.32352" lon="6.85323">
        <time>2023-04-10T11:32:40+00:00</time>
        <ele>1931.0</ele>
      </trkpt>
      <trkpt lat="44.32352" lon="6.85323">
        <time>2023-04-10T11:32:41+00:00</time>
        <ele>1931.0</ele>
      </trkpt>
      <trkpt lat="44.32352" lon="6.85323">
        <time>2023-04-10T11:32:42+00:00</time>
        <ele>1931.0</ele>
      </trkpt>
      <trkpt lat="44.32351" lon="6.85327">
        <time>2023-04-10T11:32:43+00:00</time>
        <ele>1929.0</ele>
      </trkpt>
      <trkpt lat="44.32351" lon="6.85327">
        <time>2023-04-10T11:32:44+00:00</time>
        <ele>1929.0</ele>
      </trkpt>
      <trkpt lat="44.32351" lon="6.85327">
        <time>2023-04-10T11:32:45+00:00</time>
        <ele>1929.0</ele>
      </trkpt>
      <trkpt lat="44.32352" lon="6.85329">
        <time>2023-04-10T11:32:46+00:00</time>
        <ele>1928.0</ele>
      </trkpt>
      <trkpt lat="44.32352" lon="6.85329">
        <time>2023-04-10T11:32:47+00:00</time>
        <ele>1928.0</ele>
      </trkpt>
      <trkpt lat="44.32352" lon="6.85329">
        <time>2023-04-10T11:32:48+00:00</time>
        <ele>1928.0</ele>
      </trkpt>
      <trkpt lat="44.32352" lon="6.85329">
        <time>2023-04-10T11:32:49+00:00</time>
        <ele>1928.0</ele>
      </trkpt>
      <trkpt lat="44.32351" lon="6.85331">
        <time>2023-04-10T11:32:50+00:00</time>
        <ele>1927.0</ele>
      </trkpt>
      <trkpt lat="44.32351" lon="6.85331">
        <time>2023-04-10T11:32:51+00:00</time>
        <ele>1927.0</ele>
      </trkpt>
      <trkpt lat="44.3235" lon="6.85334">
        <time>2023-04-10T11:32:52+00:00</time>
        <ele>1926.0</ele>
      </trkpt>
      <trkpt lat="44.3235" lon="6.85334">
        <time>2023-04-10T11:32:53+00:00</time>
        <ele>1926.0</ele>
      </trkpt>
      <trkpt lat="44.32349" lon="6.85336">
        <time>2023-04-10T11:32:54+00:00</time>
        <ele>1925.0</ele>
      </trkpt>
      <trkpt lat="44.32349" lon="6.85336">
        <time>2023-04-10T11:32:55+00:00</time>
        <ele>1925.0</ele>
      </trkpt>
      <trkpt lat="44.32349" lon="6.85336">
        <time>2023-04-10T11:32:56+00:00</time>
        <ele>1925.0</ele>
      </trkpt>
      <trkpt lat="44.32349" lon="6.85339">
        <time>2023-04-10T11:32:57+00:00</time>
        <ele>1924.0</ele>
      </trkpt>
      <trkpt lat="44.32349" lon="6.85339">
        <time>2023-04-10T11:32:58+00:00</time>
        <ele>1924.0</ele>
      </trkpt>
      <trkpt lat="44.32349" lon="6.85339">
        <time>2023-04-10T11:32:59+00:00</time>
        <ele>1924.0</ele>
      </trkpt>
      <trkpt lat="44.32348" lon="6.85341">
        <time>2023-04-10T11:33:00+00:00</time>
        <ele>1923.0</ele>
      </trkpt>
      <trkpt lat="44.32348" lon="6.85341">
        <time>2023-04-10T11:33:01+00:00</time>
        <ele>1923.0</ele>
      </trkpt>
      <trkpt lat="44.32348" lon="6.85341">
        <time>2023-04-10T11:33:02+00:00</time>
        <ele>1923.0</ele>
      </trkpt>
      <trkpt lat="44.32348" lon="6.85341">
        <time>2023-04-10T11:33:03+00:00</time>
        <ele>1923.0</ele>
      </trkpt>
      <trkpt lat="44.32346" lon="6.85344">
        <time>2023-04-10T11:33:04+00:00</time>
        <ele>1922.0</ele>
      </trkpt>
      <trkpt lat="44.32346" lon="6.85344">
        <time>2023-04-10T11:33:05+00:00</time>
        <ele>1922.0</ele>
      </trkpt>
      <trkpt lat="44.32346" lon="6.85344">
        <time>2023-04-10T11:33:06+00:00</time>
        <ele>1922.0</ele>
      </trkpt>
      <trkpt lat="44.32345" lon="6.85347">
        <time>2023-04-10T11:33:07+00:00</time>
        <ele>1920.0</ele>
      </trkpt>
      <trkpt lat="44.32343" lon="6.85349">
        <time>2023-04-10T11:33:10+00:00</time>
        <ele>1920.0</ele>
      </trkpt>
      <trkpt lat="44.32343" lon="6.85349">
        <time>2023-04-10T11:33:11+00:00</time>
        <ele>1920.0</ele>
      </trkpt>
      <trkpt lat="44.32341" lon="6.8535">
        <time>2023-04-10T11:33:12+00:00</time>
        <ele>1919.0</ele>
      </trkpt>
      <trkpt lat="44.32341" lon="6.8535">
        <time>2023-04-10T11:33:13+00:00</time>
        <ele>1919.0</ele>
      </trkpt>
      <trkpt lat="44.32341" lon="6.8535">
        <time>2023-04-10T11:33:14+00:00</time>
        <ele>1919.0</ele>
      </trkpt>
      <trkpt lat="44.32341" lon="6.8535">
        <time>2023-04-10T11:33:15+00:00</time>
        <ele>1919.0</ele>
      </trkpt>
      <trkpt lat="44.32337" lon="6.85356">
        <time>2023-04-10T11:33:16+00:00</time>
        <ele>1917.0</ele>
      </trkpt>
      <trkpt lat="44.32337" lon="6.85356">
        <time>2023-04-10T11:33:17+00:00</time>
        <ele>1917.0</ele>
      </trkpt>
      <trkpt lat="44.32336" lon="6.8536">
        <time>2023-04-10T11:33:18+00:00</time>
        <ele>1916.0</ele>
      </trkpt>
      <trkpt lat="44.32336" lon="6.8536">
        <time>2023-04-10T11:33:19+00:00</time>
        <ele>1916.0</ele>
      </trkpt>
      <trkpt lat="44.32334" lon="6.85361">
        <time>2023-04-10T11:33:20+00:00</time>
        <ele>1916.0</ele>
      </trkpt>
      <trkpt lat="44.32334" lon="6.85361">
        <time>2023-04-10T11:33:21+00:00</time>
        <ele>1916.0</ele>
      </trkpt>
      <trkpt lat="44.32334" lon="6.85361">
        <time>2023-04-10T11:33:22+00:00</time>
        <ele>1916.0</ele>
      </trkpt>
      <trkpt lat="44.32334" lon="6.85361">
        <time>2023-04-10T11:33:23+00:00</time>
        <ele>1916.0</ele>
      </trkpt>
      <trkpt lat="44.32332" lon="6.85362">
        <time>2023-04-10T11:33:24+00:00</time>
        <ele>1916.0</ele>
      </trkpt>
      <trkpt lat="44.32332" lon="6.85362">
        <time>2023-04-10T11:33:25+00:00</time>
        <ele>1916.0</ele>
      </trkpt>
      <trkpt lat="44.32332" lon="6.85362">
        <time>2023-04-10T11:33:26+00:00</time>
        <ele>1916.0</ele>
      </trkpt>
      <trkpt lat="44.3233" lon="6.85363">
        <time>2023-04-10T11:33:27+00:00</time>
        <ele>1916.0</ele>
      </trkpt>
      <trkpt lat="44.3233" lon="6.85363">
        <time>2023-04-10T11:33:28+00:00</time>
        <ele>1916.0</ele>
      </trkpt>
      <trkpt lat="44.32329" lon="6.85365">
        <time>2023-04-10T11:33:29+00:00</time>
        <ele>1916.0</ele>
      </trkpt>
      <trkpt lat="44.32329" lon="6.85365">
        <time>2023-04-10T11:33:30+00:00</time>
        <ele>1916.0</ele>
      </trkpt>
      <trkpt lat="44.32329" lon="6.85365">
        <time>2023-04-10T11:33:31+00:00</time>
        <ele>1916.0</ele>
      </trkpt>
      <trkpt lat="44.32329" lon="6.85365">
        <time>2023-04-10T11:33:32+00:00</time>
        <ele>1916.0</ele>
      </trkpt>
      <trkpt lat="44.32327" lon="6.85367">
        <time>2023-04-10T11:33:33+00:00</time>
        <ele>1916.0</ele>
      </trkpt>
      <trkpt lat="44.32327" lon="6.85367">
        <time>2023-04-10T11:33:34+00:00</time>
        <ele>1916.0</ele>
      </trkpt>
      <trkpt lat="44.32325" lon="6.85368">
        <time>2023-04-10T11:33:35+00:00</time>
        <ele>1916.0</ele>
      </trkpt>
      <trkpt lat="44.32325" lon="6.85368">
        <time>2023-04-10T11:33:36+00:00</time>
        <ele>1916.0</ele>
      </trkpt>
      <trkpt lat="44.32324" lon="6.85369">
        <time>2023-04-10T11:33:37+00:00</time>
        <ele>1915.0</ele>
      </trkpt>
      <trkpt lat="44.32324" lon="6.85369">
        <time>2023-04-10T11:33:38+00:00</time>
        <ele>1915.0</ele>
      </trkpt>
      <trkpt lat="44.32324" lon="6.85369">
        <time>2023-04-10T11:33:39+00:00</time>
        <ele>1915.0</ele>
      </trkpt>
      <trkpt lat="44.32322" lon="6.85372">
        <time>2023-04-10T11:33:40+00:00</time>
        <ele>1915.0</ele>
      </trkpt>
      <trkpt lat="44.32322" lon="6.85372">
        <time>2023-04-10T11:33:41+00:00</time>
        <ele>1915.0</ele>
      </trkpt>
      <trkpt lat="44.32322" lon="6.85372">
        <time>2023-04-10T11:33:42+00:00</time>
        <ele>1915.0</ele>
      </trkpt>
      <trkpt lat="44.32322" lon="6.85372">
        <time>2023-04-10T11:33:43+00:00</time>
        <ele>1915.0</ele>
      </trkpt>
      <trkpt lat="44.32322" lon="6.85376">
        <time>2023-04-10T11:33:44+00:00</time>
        <ele>1913.0</ele>
      </trkpt>
      <trkpt lat="44.32322" lon="6.85376">
        <time>2023-04-10T11:33:45+00:00</time>
        <ele>1913.0</ele>
      </trkpt>
      <trkpt lat="44.32322" lon="6.85376">
        <time>2023-04-10T11:33:46+00:00</time>
        <ele>1913.0</ele>
      </trkpt>
      <trkpt lat="44.3232" lon="6.85378">
        <time>2023-04-10T11:33:47+00:00</time>
        <ele>1913.0</ele>
      </trkpt>
      <trkpt lat="44.3232" lon="6.85378">
        <time>2023-04-10T11:33:48+00:00</time>
        <ele>1913.0</ele>
      </trkpt>
      <trkpt lat="44.32318" lon="6.8538">
        <time>2023-04-10T11:33:49+00:00</time>
        <ele>1912.0</ele>
      </trkpt>
      <trkpt lat="44.32318" lon="6.8538">
        <time>2023-04-10T11:33:50+00:00</time>
        <ele>1912.0</ele>
      </trkpt>
      <trkpt lat="44.32318" lon="6.8538">
        <time>2023-04-10T11:33:51+00:00</time>
        <ele>1912.0</ele>
      </trkpt>
      <trkpt lat="44.32318" lon="6.85384">
        <time>2023-04-10T11:33:52+00:00</time>
        <ele>1911.0</ele>
      </trkpt>
      <trkpt lat="44.32318" lon="6.85384">
        <time>2023-04-10T11:33:53+00:00</time>
        <ele>1911.0</ele>
      </trkpt>
      <trkpt lat="44.32318" lon="6.85384">
        <time>2023-04-10T11:33:54+00:00</time>
        <ele>1911.0</ele>
      </trkpt>
      <trkpt lat="44.32318" lon="6.85387">
        <time>2023-04-10T11:33:55+00:00</time>
        <ele>1910.0</ele>
      </trkpt>
      <trkpt lat="44.32318" lon="6.85387">
        <time>2023-04-10T11:33:56+00:00</time>
        <ele>1910.0</ele>
      </trkpt>
      <trkpt lat="44.32318" lon="6.85387">
        <time>2023-04-10T11:33:57+00:00</time>
        <ele>1910.0</ele>
      </trkpt>
      <trkpt lat="44.32317" lon="6.85389">
        <time>2023-04-10T11:33:58+00:00</time>
        <ele>1910.0</ele>
      </trkpt>
      <trkpt lat="44.32317" lon="6.85389">
        <time>2023-04-10T11:33:59+00:00</time>
        <ele>1910.0</ele>
      </trkpt>
      <trkpt lat="44.32317" lon="6.85389">
        <time>2023-04-10T11:34:00+00:00</time>
        <ele>1910.0</ele>
      </trkpt>
      <trkpt lat="44.32316" lon="6.85391">
        <time>2023-04-10T11:34:01+00:00</time>
        <ele>1909.0</ele>
      </trkpt>
      <trkpt lat="44.32316" lon="6.85391">
        <time>2023-04-10T11:34:02+00:00</time>
        <ele>1909.0</ele>
      </trkpt>
      <trkpt lat="44.32316" lon="6.85391">
        <time>2023-04-10T11:34:03+00:00</time>
        <ele>1909.0</ele>
      </trkpt>
      <trkpt lat="44.32315" lon="6.85394">
        <time>2023-04-10T11:34:04+00:00</time>
        <ele>1909.0</ele>
      </trkpt>
      <trkpt lat="44.32315" lon="6.85394">
        <time>2023-04-10T11:34:05+00:00</time>
        <ele>1909.0</ele>
      </trkpt>
      <trkpt lat="44.32315" lon="6.85394">
        <time>2023-04-10T11:34:06+00:00</time>
        <ele>1909.0</ele>
      </trkpt>
      <trkpt lat="44.32315" lon="6.85394">
        <time>2023-04-10T11:34:07+00:00</time>
        <ele>1909.0</ele>
      </trkpt>
      <trkpt lat="44.32315" lon="6.85394">
        <time>2023-04-10T11:34:08+00:00</time>
        <ele>1909.0</ele>
      </trkpt>
      <trkpt lat="44.32316" lon="6.85396">
        <time>2023-04-10T11:34:09+00:00</time>
        <ele>1908.0</ele>
      </trkpt>
      <trkpt lat="44.32316" lon="6.85396">
        <time>2023-04-10T11:34:10+00:00</time>
        <ele>1908.0</ele>
      </trkpt>
      <trkpt lat="44.32316" lon="6.85396">
        <time>2023-04-10T11:34:11+00:00</time>
        <ele>1908.0</ele>
      </trkpt>
      <trkpt lat="44.32316" lon="6.85396">
        <time>2023-04-10T11:34:12+00:00</time>
        <ele>1908.0</ele>
      </trkpt>
      <trkpt lat="44.32318" lon="6.85397">
        <time>2023-04-10T11:34:13+00:00</time>
        <ele>1907.0</ele>
      </trkpt>
      <trkpt lat="44.32318" lon="6.85397">
        <time>2023-04-10T11:34:14+00:00</time>
        <ele>1907.0</ele>
      </trkpt>
      <trkpt lat="44.32318" lon="6.85397">
        <time>2023-04-10T11:34:15+00:00</time>
        <ele>1907.0</ele>
      </trkpt>
      <trkpt lat="44.32318" lon="6.85397">
        <time>2023-04-10T11:34:16+00:00</time>
        <ele>1907.0</ele>
      </trkpt>
      <trkpt lat="44.3232" lon="6.85396">
        <time>2023-04-10T11:34:17+00:00</time>
        <ele>1907.0</ele>
      </trkpt>
      <trkpt lat="44.3232" lon="6.85396">
        <time>2023-04-10T11:34:18+00:00</time>
        <ele>1907.0</ele>
      </trkpt>
      <trkpt lat="44.3232" lon="6.85396">
        <time>2023-04-10T11:34:19+00:00</time>
        <ele>1907.0</ele>
      </trkpt>
      <trkpt lat="44.3232" lon="6.85396">
        <time>2023-04-10T11:34:20+00:00</time>
        <ele>1907.0</ele>
      </trkpt>
      <trkpt lat="44.3232" lon="6.85399">
        <time>2023-04-10T11:34:21+00:00</time>
        <ele>1906.0</ele>
      </trkpt>
      <trkpt lat="44.3232" lon="6.85399">
        <time>2023-04-10T11:34:22+00:00</time>
        <ele>1906.0</ele>
      </trkpt>
      <trkpt lat="44.32319" lon="6.85402">
        <time>2023-04-10T11:34:23+00:00</time>
        <ele>1905.0</ele>
      </trkpt>
      <trkpt lat="44.32319" lon="6.85402">
        <time>2023-04-10T11:34:24+00:00</time>
        <ele>1905.0</ele>
      </trkpt>
      <trkpt lat="44.3232" lon="6.85404">
        <time>2023-04-10T11:34:25+00:00</time>
        <ele>1905.0</ele>
      </trkpt>
      <trkpt lat="44.3232" lon="6.85404">
        <time>2023-04-10T11:34:26+00:00</time>
        <ele>1905.0</ele>
      </trkpt>
      <trkpt lat="44.3232" lon="6.85404">
        <time>2023-04-10T11:34:27+00:00</time>
        <ele>1905.0</ele>
      </trkpt>
      <trkpt lat="44.3232" lon="6.85404">
        <time>2023-04-10T11:34:28+00:00</time>
        <ele>1905.0</ele>
      </trkpt>
      <trkpt lat="44.32318" lon="6.85407">
        <time>2023-04-10T11:34:29+00:00</time>
        <ele>1904.0</ele>
      </trkpt>
      <trkpt lat="44.32318" lon="6.85407">
        <time>2023-04-10T11:34:30+00:00</time>
        <ele>1904.0</ele>
      </trkpt>
      <trkpt lat="44.32318" lon="6.85407">
        <time>2023-04-10T11:34:31+00:00</time>
        <ele>1904.0</ele>
      </trkpt>
      <trkpt lat="44.32317" lon="6.85408">
        <time>2023-04-10T11:34:32+00:00</time>
        <ele>1904.0</ele>
      </trkpt>
      <trkpt lat="44.32317" lon="6.85408">
        <time>2023-04-10T11:34:33+00:00</time>
        <ele>1904.0</ele>
      </trkpt>
      <trkpt lat="44.32317" lon="6.85408">
        <time>2023-04-10T11:34:34+00:00</time>
        <ele>1904.0</ele>
      </trkpt>
      <trkpt lat="44.32317" lon="6.85408">
        <time>2023-04-10T11:34:35+00:00</time>
        <ele>1904.0</ele>
      </trkpt>
      <trkpt lat="44.32317" lon="6.85408">
        <time>2023-04-10T11:34:36+00:00</time>
        <ele>1904.0</ele>
      </trkpt>
      <trkpt lat="44.32317" lon="6.85408">
        <time>2023-04-10T11:34:37+00:00</time>
        <ele>1904.0</ele>
      </trkpt>
      <trkpt lat="44.32315" lon="6.85409">
        <time>2023-04-10T11:34:38+00:00</time>
        <ele>1904.0</ele>
      </trkpt>
      <trkpt lat="44.32315" lon="6.85409">
        <time>2023-04-10T11:34:39+00:00</time>
        <ele>1904.0</ele>
      </trkpt>
      <trkpt lat="44.32315" lon="6.85409">
        <time>2023-04-10T11:34:40+00:00</time>
        <ele>1904.0</ele>
      </trkpt>
      <trkpt lat="44.32315" lon="6.85409">
        <time>2023-04-10T11:34:41+00:00</time>
        <ele>1904.0</ele>
      </trkpt>
      <trkpt lat="44.32315" lon="6.85409">
        <time>2023-04-10T11:34:42+00:00</time>
        <ele>1904.0</ele>
      </trkpt>
      <trkpt lat="44.32313" lon="6.85408">
        <time>2023-04-10T11:34:43+00:00</time>
        <ele>1905.0</ele>
      </trkpt>
      <trkpt lat="44.32313" lon="6.85408">
        <time>2023-04-10T11:34:44+00:00</time>
        <ele>1905.0</ele>
      </trkpt>
      <trkpt lat="44.32313" lon="6.85408">
        <time>2023-04-10T11:34:45+00:00</time>
        <ele>1905.0</ele>
      </trkpt>
      <trkpt lat="44.32311" lon="6.85407">
        <time>2023-04-10T11:34:46+00:00</time>
        <ele>1906.0</ele>
      </trkpt>
      <trkpt lat="44.32311" lon="6.85407">
        <time>2023-04-10T11:34:47+00:00</time>
        <ele>1906.0</ele>
      </trkpt>
      <trkpt lat="44.32311" lon="6.85407">
        <time>2023-04-10T11:34:48+00:00</time>
        <ele>1906.0</ele>
      </trkpt>
      <trkpt lat="44.32309" lon="6.85407">
        <time>2023-04-10T11:34:49+00:00</time>
        <ele>1906.0</ele>
      </trkpt>
      <trkpt lat="44.32309" lon="6.85407">
        <time>2023-04-10T11:34:50+00:00</time>
        <ele>1906.0</ele>
      </trkpt>
      <trkpt lat="44.32309" lon="6.85407">
        <time>2023-04-10T11:34:51+00:00</time>
        <ele>1906.0</ele>
      </trkpt>
      <trkpt lat="44.32309" lon="6.85407">
        <time>2023-04-10T11:34:52+00:00</time>
        <ele>1906.0</ele>
      </trkpt>
      <trkpt lat="44.32309" lon="6.85407">
        <time>2023-04-10T11:34:53+00:00</time>
        <ele>1906.0</ele>
      </trkpt>
      <trkpt lat="44.32309" lon="6.85407">
        <time>2023-04-10T11:34:54+00:00</time>
        <ele>1906.0</ele>
      </trkpt>
      <trkpt lat="44.32309" lon="6.85407">
        <time>2023-04-10T11:34:55+00:00</time>
        <ele>1906.0</ele>
      </trkpt>
      <trkpt lat="44.32309" lon="6.85407">
        <time>2023-04-10T11:34:56+00:00</time>
        <ele>1906.0</ele>
      </trkpt>
      <trkpt lat="44.32309" lon="6.85407">
        <time>2023-04-10T11:34:57+00:00</time>
        <ele>1906.0</ele>
      </trkpt>
      <trkpt lat="44.32307" lon="6.85407">
        <time>2023-04-10T11:34:58+00:00</time>
        <ele>1907.0</ele>
      </trkpt>
      <trkpt lat="44.32307" lon="6.85407">
        <time>2023-04-10T11:34:59+00:00</time>
        <ele>1907.0</ele>
      </trkpt>
      <trkpt lat="44.32307" lon="6.85407">
        <time>2023-04-10T11:35:00+00:00</time>
        <ele>1907.0</ele>
      </trkpt>
      <trkpt lat="44.32307" lon="6.85407">
        <time>2023-04-10T11:35:01+00:00</time>
        <ele>1907.0</ele>
      </trkpt>
      <trkpt lat="44.32306" lon="6.85409">
        <time>2023-04-10T11:35:02+00:00</time>
        <ele>1907.0</ele>
      </trkpt>
      <trkpt lat="44.32306" lon="6.85409">
        <time>2023-04-10T11:35:03+00:00</time>
        <ele>1907.0</ele>
      </trkpt>
      <trkpt lat="44.32306" lon="6.85409">
        <time>2023-04-10T11:35:04+00:00</time>
        <ele>1907.0</ele>
      </trkpt>
      <trkpt lat="44.32306" lon="6.85412">
        <time>2023-04-10T11:35:05+00:00</time>
        <ele>1906.0</ele>
      </trkpt>
      <trkpt lat="44.32306" lon="6.85412">
        <time>2023-04-10T11:35:06+00:00</time>
        <ele>1906.0</ele>
      </trkpt>
      <trkpt lat="44.32306" lon="6.85412">
        <time>2023-04-10T11:35:07+00:00</time>
        <ele>1906.0</ele>
      </trkpt>
      <trkpt lat="44.32307" lon="6.85415">
        <time>2023-04-10T11:35:08+00:00</time>
        <ele>1905.0</ele>
      </trkpt>
      <trkpt lat="44.32307" lon="6.85415">
        <time>2023-04-10T11:35:09+00:00</time>
        <ele>1905.0</ele>
      </trkpt>
      <trkpt lat="44.32307" lon="6.85415">
        <time>2023-04-10T11:35:10+00:00</time>
        <ele>1905.0</ele>
      </trkpt>
      <trkpt lat="44.32307" lon="6.85415">
        <time>2023-04-10T11:35:11+00:00</time>
        <ele>1905.0</ele>
      </trkpt>
      <trkpt lat="44.32305" lon="6.85417">
        <time>2023-04-10T11:35:12+00:00</time>
        <ele>1905.0</ele>
      </trkpt>
      <trkpt lat="44.32305" lon="6.85417">
        <time>2023-04-10T11:35:13+00:00</time>
        <ele>1905.0</ele>
      </trkpt>
      <trkpt lat="44.32305" lon="6.85417">
        <time>2023-04-10T11:35:14+00:00</time>
        <ele>1905.0</ele>
      </trkpt>
      <trkpt lat="44.32305" lon="6.85417">
        <time>2023-04-10T11:35:15+00:00</time>
        <ele>1905.0</ele>
      </trkpt>
      <trkpt lat="44.32305" lon="6.85417">
        <time>2023-04-10T11:35:16+00:00</time>
        <ele>1905.0</ele>
      </trkpt>
      <trkpt lat="44.32304" lon="6.85419">
        <time>2023-04-10T11:35:17+00:00</time>
        <ele>1905.0</ele>
      </trkpt>
      <trkpt lat="44.32304" lon="6.85419">
        <time>2023-04-10T11:35:18+00:00</time>
        <ele>1905.0</ele>
      </trkpt>
      <trkpt lat="44.32304" lon="6.85419">
        <time>2023-04-10T11:35:19+00:00</time>
        <ele>1905.0</ele>
      </trkpt>
      <trkpt lat="44.32304" lon="6.85419">
        <time>2023-04-10T11:35:20+00:00</time>
        <ele>1905.0</ele>
      </trkpt>
      <trkpt lat="44.32304" lon="6.85419">
        <time>2023-04-10T11:35:21+00:00</time>
        <ele>1905.0</ele>
      </trkpt>
      <trkpt lat="44.32304" lon="6.85419">
        <time>2023-04-10T11:35:22+00:00</time>
        <ele>1905.0</ele>
      </trkpt>
      <trkpt lat="44.32304" lon="6.85419">
        <time>2023-04-10T11:35:23+00:00</time>
        <ele>1905.0</ele>
      </trkpt>
      <trkpt lat="44.32304" lon="6.85419">
        <time>2023-04-10T11:35:24+00:00</time>
        <ele>1905.0</ele>
      </trkpt>
      <trkpt lat="44.32304" lon="6.85419">
        <time>2023-04-10T11:35:25+00:00</time>
        <ele>1905.0</ele>
      </trkpt>
      <trkpt lat="44.32304" lon="6.85419">
        <time>2023-04-10T11:35:26+00:00</time>
        <ele>1905.0</ele>
      </trkpt>
      <trkpt lat="44.32304" lon="6.85419">
        <time>2023-04-10T11:35:27+00:00</time>
        <ele>1905.0</ele>
      </trkpt>
      <trkpt lat="44.32304" lon="6.85419">
        <time>2023-04-10T11:35:28+00:00</time>
        <ele>1905.0</ele>
      </trkpt>
      <trkpt lat="44.32304" lon="6.85419">
        <time>2023-04-10T11:35:29+00:00</time>
        <ele>1905.0</ele>
      </trkpt>
      <trkpt lat="44.32304" lon="6.85419">
        <time>2023-04-10T11:35:30+00:00</time>
        <ele>1905.0</ele>
      </trkpt>
      <trkpt lat="44.32304" lon="6.8542">
        <time>2023-04-10T11:35:31+00:00</time>
        <ele>1905.0</ele>
      </trkpt>
      <trkpt lat="44.32304" lon="6.8542">
        <time>2023-04-10T11:35:32+00:00</time>
        <ele>1905.0</ele>
      </trkpt>
      <trkpt lat="44.32304" lon="6.8542">
        <time>2023-04-10T11:35:33+00:00</time>
        <ele>1905.0</ele>
      </trkpt>
      <trkpt lat="44.32304" lon="6.8542">
        <time>2023-04-10T11:35:34+00:00</time>
        <ele>1905.0</ele>
      </trkpt>
      <trkpt lat="44.32304" lon="6.8542">
        <time>2023-04-10T11:35:35+00:00</time>
        <ele>1905.0</ele>
      </trkpt>
      <trkpt lat="44.32304" lon="6.8542">
        <time>2023-04-10T11:35:36+00:00</time>
        <ele>1905.0</ele>
      </trkpt>
      <trkpt lat="44.32304" lon="6.8542">
        <time>2023-04-10T11:35:37+00:00</time>
        <ele>1905.0</ele>
      </trkpt>
      <trkpt lat="44.32304" lon="6.8542">
        <time>2023-04-10T11:35:38+00:00</time>
        <ele>1905.0</ele>
      </trkpt>
      <trkpt lat="44.32304" lon="6.8542">
        <time>2023-04-10T11:35:39+00:00</time>
        <ele>1905.0</ele>
      </trkpt>
      <trkpt lat="44.32304" lon="6.8542">
        <time>2023-04-10T11:35:40+00:00</time>
        <ele>1905.0</ele>
      </trkpt>
      <trkpt lat="44.32304" lon="6.8542">
        <time>2023-04-10T11:35:41+00:00</time>
        <ele>1905.0</ele>
      </trkpt>
      <trkpt lat="44.32304" lon="6.8542">
        <time>2023-04-10T11:35:42+00:00</time>
        <ele>1905.0</ele>
      </trkpt>
      <trkpt lat="44.32304" lon="6.8542">
        <time>2023-04-10T11:35:43+00:00</time>
        <ele>1905.0</ele>
      </trkpt>
      <trkpt lat="44.32304" lon="6.8542">
        <time>2023-04-10T11:35:44+00:00</time>
        <ele>1905.0</ele>
      </trkpt>
      <trkpt lat="44.32304" lon="6.85421">
        <time>2023-04-10T11:35:45+00:00</time>
        <ele>1905.0</ele>
      </trkpt>
      <trkpt lat="44.32304" lon="6.85421">
        <time>2023-04-10T11:35:46+00:00</time>
        <ele>1905.0</ele>
      </trkpt>
      <trkpt lat="44.32304" lon="6.85421">
        <time>2023-04-10T11:35:47+00:00</time>
        <ele>1905.0</ele>
      </trkpt>
      <trkpt lat="44.32304" lon="6.85421">
        <time>2023-04-10T11:35:48+00:00</time>
        <ele>1905.0</ele>
      </trkpt>
      <trkpt lat="44.32304" lon="6.85421">
        <time>2023-04-10T11:35:49+00:00</time>
        <ele>1905.0</ele>
      </trkpt>
      <trkpt lat="44.32304" lon="6.85421">
        <time>2023-04-10T11:35:50+00:00</time>
        <ele>1905.0</ele>
      </trkpt>
      <trkpt lat="44.32304" lon="6.85421">
        <time>2023-04-10T11:35:51+00:00</time>
        <ele>1905.0</ele>
      </trkpt>
      <trkpt lat="44.32304" lon="6.85421">
        <time>2023-04-10T11:35:52+00:00</time>
        <ele>1905.0</ele>
      </trkpt>
      <trkpt lat="44.32304" lon="6.85421">
        <time>2023-04-10T11:35:53+00:00</time>
        <ele>1905.0</ele>
      </trkpt>
      <trkpt lat="44.32304" lon="6.85421">
        <time>2023-04-10T11:35:54+00:00</time>
        <ele>1905.0</ele>
      </trkpt>
      <trkpt lat="44.32304" lon="6.85421">
        <time>2023-04-10T11:35:55+00:00</time>
        <ele>1905.0</ele>
      </trkpt>
      <trkpt lat="44.32304" lon="6.85421">
        <time>2023-04-10T11:35:56+00:00</time>
        <ele>1905.0</ele>
      </trkpt>
      <trkpt lat="44.32303" lon="6.85421">
        <time>2023-04-10T11:35:57+00:00</time>
        <ele>1905.0</ele>
      </trkpt>
      <trkpt lat="44.32303" lon="6.85422">
        <time>2023-04-10T11:35:58+00:00</time>
        <ele>1905.0</ele>
      </trkpt>
      <trkpt lat="44.32303" lon="6.85422">
        <time>2023-04-10T11:35:59+00:00</time>
        <ele>1905.0</ele>
      </trkpt>
      <trkpt lat="44.32303" lon="6.85422">
        <time>2023-04-10T11:36:00+00:00</time>
        <ele>1905.0</ele>
      </trkpt>
      <trkpt lat="44.32303" lon="6.85422">
        <time>2023-04-10T11:36:01+00:00</time>
        <ele>1905.0</ele>
      </trkpt>
      <trkpt lat="44.32303" lon="6.85422">
        <time>2023-04-10T11:36:02+00:00</time>
        <ele>1905.0</ele>
      </trkpt>
      <trkpt lat="44.32303" lon="6.85422">
        <time>2023-04-10T11:36:03+00:00</time>
        <ele>1905.0</ele>
      </trkpt>
      <trkpt lat="44.32303" lon="6.85422">
        <time>2023-04-10T11:36:04+00:00</time>
        <ele>1905.0</ele>
      </trkpt>
      <trkpt lat="44.32303" lon="6.85422">
        <time>2023-04-10T11:36:05+00:00</time>
        <ele>1905.0</ele>
      </trkpt>
      <trkpt lat="44.32303" lon="6.85422">
        <time>2023-04-10T11:36:06+00:00</time>
        <ele>1905.0</ele>
      </trkpt>
      <trkpt lat="44.32303" lon="6.85422">
        <time>2023-04-10T11:36:07+00:00</time>
        <ele>1905.0</ele>
      </trkpt>
      <trkpt lat="44.32304" lon="6.8543">
        <time>2023-04-10T11:36:08+00:00</time>
        <ele>1903.0</ele>
      </trkpt>
      <trkpt lat="44.32304" lon="6.8543">
        <time>2023-04-10T11:36:09+00:00</time>
        <ele>1903.0</ele>
      </trkpt>
      <trkpt lat="44.32303" lon="6.85434">
        <time>2023-04-10T11:36:10+00:00</time>
        <ele>1903.0</ele>
      </trkpt>
      <trkpt lat="44.32303" lon="6.85434">
        <time>2023-04-10T11:36:11+00:00</time>
        <ele>1903.0</ele>
      </trkpt>
      <trkpt lat="44.32303" lon="6.85437">
        <time>2023-04-10T11:36:12+00:00</time>
        <ele>1902.0</ele>
      </trkpt>
      <trkpt lat="44.32303" lon="6.85437">
        <time>2023-04-10T11:36:13+00:00</time>
        <ele>1902.0</ele>
      </trkpt>
      <trkpt lat="44.32302" lon="6.8544">
        <time>2023-04-10T11:36:14+00:00</time>
        <ele>1902.0</ele>
      </trkpt>
      <trkpt lat="44.32302" lon="6.8544">
        <time>2023-04-10T11:36:15+00:00</time>
        <ele>1902.0</ele>
      </trkpt>
      <trkpt lat="44.32302" lon="6.8544">
        <time>2023-04-10T11:36:16+00:00</time>
        <ele>1902.0</ele>
      </trkpt>
      <trkpt lat="44.32302" lon="6.8544">
        <time>2023-04-10T11:36:17+00:00</time>
        <ele>1902.0</ele>
      </trkpt>
      <trkpt lat="44.32302" lon="6.85443">
        <time>2023-04-10T11:36:18+00:00</time>
        <ele>1901.0</ele>
      </trkpt>
      <trkpt lat="44.32302" lon="6.85443">
        <time>2023-04-10T11:36:19+00:00</time>
        <ele>1901.0</ele>
      </trkpt>
      <trkpt lat="44.32302" lon="6.85443">
        <time>2023-04-10T11:36:20+00:00</time>
        <ele>1901.0</ele>
      </trkpt>
      <trkpt lat="44.32302" lon="6.85443">
        <time>2023-04-10T11:36:21+00:00</time>
        <ele>1901.0</ele>
      </trkpt>
      <trkpt lat="44.32302" lon="6.85443">
        <time>2023-04-10T11:36:22+00:00</time>
        <ele>1901.0</ele>
      </trkpt>
      <trkpt lat="44.32302" lon="6.85443">
        <time>2023-04-10T11:36:23+00:00</time>
        <ele>1901.0</ele>
      </trkpt>
      <trkpt lat="44.32301" lon="6.85446">
        <time>2023-04-10T11:36:24+00:00</time>
        <ele>1901.0</ele>
      </trkpt>
      <trkpt lat="44.32301" lon="6.85446">
        <time>2023-04-10T11:36:25+00:00</time>
        <ele>1901.0</ele>
      </trkpt>
      <trkpt lat="44.32301" lon="6.85446">
        <time>2023-04-10T11:36:26+00:00</time>
        <ele>1901.0</ele>
      </trkpt>
      <trkpt lat="44.32301" lon="6.85446">
        <time>2023-04-10T11:36:27+00:00</time>
        <ele>1901.0</ele>
      </trkpt>
      <trkpt lat="44.32301" lon="6.85448">
        <time>2023-04-10T11:36:28+00:00</time>
        <ele>1901.0</ele>
      </trkpt>
      <trkpt lat="44.32301" lon="6.85448">
        <time>2023-04-10T11:36:29+00:00</time>
        <ele>1901.0</ele>
      </trkpt>
      <trkpt lat="44.32301" lon="6.85448">
        <time>2023-04-10T11:36:30+00:00</time>
        <ele>1901.0</ele>
      </trkpt>
      <trkpt lat="44.32301" lon="6.85448">
        <time>2023-04-10T11:36:31+00:00</time>
        <ele>1901.0</ele>
      </trkpt>
      <trkpt lat="44.32301" lon="6.85451">
        <time>2023-04-10T11:36:32+00:00</time>
        <ele>1900.0</ele>
      </trkpt>
      <trkpt lat="44.32301" lon="6.85451">
        <time>2023-04-10T11:36:33+00:00</time>
        <ele>1900.0</ele>
      </trkpt>
      <trkpt lat="44.32301" lon="6.85451">
        <time>2023-04-10T11:36:34+00:00</time>
        <ele>1900.0</ele>
      </trkpt>
      <trkpt lat="44.32301" lon="6.85451">
        <time>2023-04-10T11:36:35+00:00</time>
        <ele>1900.0</ele>
      </trkpt>
      <trkpt lat="44.323" lon="6.85453">
        <time>2023-04-10T11:36:36+00:00</time>
        <ele>1900.0</ele>
      </trkpt>
      <trkpt lat="44.323" lon="6.85453">
        <time>2023-04-10T11:36:37+00:00</time>
        <ele>1900.0</ele>
      </trkpt>
      <trkpt lat="44.323" lon="6.85453">
        <time>2023-04-10T11:36:38+00:00</time>
        <ele>1900.0</ele>
      </trkpt>
      <trkpt lat="44.323" lon="6.85453">
        <time>2023-04-10T11:36:39+00:00</time>
        <ele>1900.0</ele>
      </trkpt>
      <trkpt lat="44.32301" lon="6.85456">
        <time>2023-04-10T11:36:40+00:00</time>
        <ele>1899.0</ele>
      </trkpt>
      <trkpt lat="44.32301" lon="6.85456">
        <time>2023-04-10T11:36:41+00:00</time>
        <ele>1899.0</ele>
      </trkpt>
      <trkpt lat="44.32301" lon="6.85456">
        <time>2023-04-10T11:36:42+00:00</time>
        <ele>1899.0</ele>
      </trkpt>
      <trkpt lat="44.32301" lon="6.85459">
        <time>2023-04-10T11:36:43+00:00</time>
        <ele>1899.0</ele>
      </trkpt>
      <trkpt lat="44.32301" lon="6.85459">
        <time>2023-04-10T11:36:44+00:00</time>
        <ele>1899.0</ele>
      </trkpt>
      <trkpt lat="44.32302" lon="6.85462">
        <time>2023-04-10T11:36:45+00:00</time>
        <ele>1898.0</ele>
      </trkpt>
      <trkpt lat="44.32302" lon="6.85462">
        <time>2023-04-10T11:36:46+00:00</time>
        <ele>1898.0</ele>
      </trkpt>
      <trkpt lat="44.32301" lon="6.85464">
        <time>2023-04-10T11:36:47+00:00</time>
        <ele>1898.0</ele>
      </trkpt>
      <trkpt lat="44.32301" lon="6.85464">
        <time>2023-04-10T11:36:48+00:00</time>
        <ele>1898.0</ele>
      </trkpt>
      <trkpt lat="44.32299" lon="6.85466">
        <time>2023-04-10T11:36:49+00:00</time>
        <ele>1898.0</ele>
      </trkpt>
      <trkpt lat="44.32299" lon="6.85466">
        <time>2023-04-10T11:36:50+00:00</time>
        <ele>1898.0</ele>
      </trkpt>
      <trkpt lat="44.32299" lon="6.85466">
        <time>2023-04-10T11:36:51+00:00</time>
        <ele>1898.0</ele>
      </trkpt>
      <trkpt lat="44.32297" lon="6.85468">
        <time>2023-04-10T11:36:52+00:00</time>
        <ele>1898.0</ele>
      </trkpt>
      <trkpt lat="44.32297" lon="6.85468">
        <time>2023-04-10T11:36:53+00:00</time>
        <ele>1898.0</ele>
      </trkpt>
      <trkpt lat="44.32297" lon="6.85468">
        <time>2023-04-10T11:36:54+00:00</time>
        <ele>1898.0</ele>
      </trkpt>
      <trkpt lat="44.32296" lon="6.8547">
        <time>2023-04-10T11:36:55+00:00</time>
        <ele>1898.0</ele>
      </trkpt>
      <trkpt lat="44.32296" lon="6.8547">
        <time>2023-04-10T11:36:56+00:00</time>
        <ele>1898.0</ele>
      </trkpt>
      <trkpt lat="44.32294" lon="6.85473">
        <time>2023-04-10T11:36:57+00:00</time>
        <ele>1898.0</ele>
      </trkpt>
      <trkpt lat="44.32294" lon="6.85473">
        <time>2023-04-10T11:36:58+00:00</time>
        <ele>1898.0</ele>
      </trkpt>
      <trkpt lat="44.32293" lon="6.85475">
        <time>2023-04-10T11:36:59+00:00</time>
        <ele>1898.0</ele>
      </trkpt>
      <trkpt lat="44.32293" lon="6.85475">
        <time>2023-04-10T11:37:00+00:00</time>
        <ele>1898.0</ele>
      </trkpt>
      <trkpt lat="44.32291" lon="6.85477">
        <time>2023-04-10T11:37:01+00:00</time>
        <ele>1898.0</ele>
      </trkpt>
      <trkpt lat="44.32291" lon="6.85477">
        <time>2023-04-10T11:37:02+00:00</time>
        <ele>1898.0</ele>
      </trkpt>
      <trkpt lat="44.3229" lon="6.85479">
        <time>2023-04-10T11:37:03+00:00</time>
        <ele>1898.0</ele>
      </trkpt>
      <trkpt lat="44.3229" lon="6.85479">
        <time>2023-04-10T11:37:04+00:00</time>
        <ele>1898.0</ele>
      </trkpt>
      <trkpt lat="44.3229" lon="6.85479">
        <time>2023-04-10T11:37:05+00:00</time>
        <ele>1898.0</ele>
      </trkpt>
      <trkpt lat="44.32289" lon="6.85481">
        <time>2023-04-10T11:37:06+00:00</time>
        <ele>1897.0</ele>
      </trkpt>
      <trkpt lat="44.32289" lon="6.85481">
        <time>2023-04-10T11:37:07+00:00</time>
        <ele>1897.0</ele>
      </trkpt>
      <trkpt lat="44.32289" lon="6.85481">
        <time>2023-04-10T11:37:08+00:00</time>
        <ele>1897.0</ele>
      </trkpt>
      <trkpt lat="44.32289" lon="6.85481">
        <time>2023-04-10T11:37:09+00:00</time>
        <ele>1897.0</ele>
      </trkpt>
      <trkpt lat="44.32289" lon="6.85481">
        <time>2023-04-10T11:37:10+00:00</time>
        <ele>1897.0</ele>
      </trkpt>
      <trkpt lat="44.32288" lon="6.85483">
        <time>2023-04-10T11:37:11+00:00</time>
        <ele>1897.0</ele>
      </trkpt>
      <trkpt lat="44.32288" lon="6.85483">
        <time>2023-04-10T11:37:12+00:00</time>
        <ele>1897.0</ele>
      </trkpt>
      <trkpt lat="44.32288" lon="6.85483">
        <time>2023-04-10T11:37:13+00:00</time>
        <ele>1897.0</ele>
      </trkpt>
      <trkpt lat="44.32288" lon="6.85483">
        <time>2023-04-10T11:37:14+00:00</time>
        <ele>1897.0</ele>
      </trkpt>
      <trkpt lat="44.32286" lon="6.85485">
        <time>2023-04-10T11:37:15+00:00</time>
        <ele>1897.0</ele>
      </trkpt>
      <trkpt lat="44.32286" lon="6.85485">
        <time>2023-04-10T11:37:16+00:00</time>
        <ele>1897.0</ele>
      </trkpt>
      <trkpt lat="44.32286" lon="6.85485">
        <time>2023-04-10T11:37:17+00:00</time>
        <ele>1897.0</ele>
      </trkpt>
      <trkpt lat="44.32285" lon="6.85487">
        <time>2023-04-10T11:37:18+00:00</time>
        <ele>1897.0</ele>
      </trkpt>
      <trkpt lat="44.32285" lon="6.85487">
        <time>2023-04-10T11:37:19+00:00</time>
        <ele>1897.0</ele>
      </trkpt>
      <trkpt lat="44.32285" lon="6.85487">
        <time>2023-04-10T11:37:20+00:00</time>
        <ele>1897.0</ele>
      </trkpt>
      <trkpt lat="44.32285" lon="6.85487">
        <time>2023-04-10T11:37:21+00:00</time>
        <ele>1897.0</ele>
      </trkpt>
      <trkpt lat="44.32285" lon="6.85487">
        <time>2023-04-10T11:37:22+00:00</time>
        <ele>1897.0</ele>
      </trkpt>
      <trkpt lat="44.32283" lon="6.8549">
        <time>2023-04-10T11:37:23+00:00</time>
        <ele>1897.0</ele>
      </trkpt>
      <trkpt lat="44.32283" lon="6.8549">
        <time>2023-04-10T11:37:24+00:00</time>
        <ele>1897.0</ele>
      </trkpt>
      <trkpt lat="44.32283" lon="6.8549">
        <time>2023-04-10T11:37:25+00:00</time>
        <ele>1897.0</ele>
      </trkpt>
      <trkpt lat="44.32283" lon="6.8549">
        <time>2023-04-10T11:37:26+00:00</time>
        <ele>1897.0</ele>
      </trkpt>
      <trkpt lat="44.32282" lon="6.85492">
        <time>2023-04-10T11:37:27+00:00</time>
        <ele>1896.0</ele>
      </trkpt>
      <trkpt lat="44.32282" lon="6.85492">
        <time>2023-04-10T11:37:28+00:00</time>
        <ele>1896.0</ele>
      </trkpt>
      <trkpt lat="44.32282" lon="6.85492">
        <time>2023-04-10T11:37:29+00:00</time>
        <ele>1896.0</ele>
      </trkpt>
      <trkpt lat="44.3228" lon="6.85494">
        <time>2023-04-10T11:37:30+00:00</time>
        <ele>1896.0</ele>
      </trkpt>
      <trkpt lat="44.3228" lon="6.85494">
        <time>2023-04-10T11:37:31+00:00</time>
        <ele>1896.0</ele>
      </trkpt>
      <trkpt lat="44.32279" lon="6.85496">
        <time>2023-04-10T11:37:32+00:00</time>
        <ele>1896.0</ele>
      </trkpt>
      <trkpt lat="44.32279" lon="6.85496">
        <time>2023-04-10T11:37:33+00:00</time>
        <ele>1896.0</ele>
      </trkpt>
      <trkpt lat="44.32279" lon="6.85496">
        <time>2023-04-10T11:37:34+00:00</time>
        <ele>1896.0</ele>
      </trkpt>
      <trkpt lat="44.32278" lon="6.85499">
        <time>2023-04-10T11:37:35+00:00</time>
        <ele>1895.0</ele>
      </trkpt>
      <trkpt lat="44.32278" lon="6.85499">
        <time>2023-04-10T11:37:36+00:00</time>
        <ele>1895.0</ele>
      </trkpt>
      <trkpt lat="44.32278" lon="6.85499">
        <time>2023-04-10T11:37:37+00:00</time>
        <ele>1895.0</ele>
      </trkpt>
      <trkpt lat="44.32278" lon="6.85499">
        <time>2023-04-10T11:37:38+00:00</time>
        <ele>1895.0</ele>
      </trkpt>
      <trkpt lat="44.32278" lon="6.85499">
        <time>2023-04-10T11:37:39+00:00</time>
        <ele>1895.0</ele>
      </trkpt>
      <trkpt lat="44.32278" lon="6.85499">
        <time>2023-04-10T11:37:40+00:00</time>
        <ele>1895.0</ele>
      </trkpt>
      <trkpt lat="44.32278" lon="6.85499">
        <time>2023-04-10T11:37:41+00:00</time>
        <ele>1895.0</ele>
      </trkpt>
      <trkpt lat="44.32278" lon="6.85499">
        <time>2023-04-10T11:37:42+00:00</time>
        <ele>1895.0</ele>
      </trkpt>
      <trkpt lat="44.32278" lon="6.85499">
        <time>2023-04-10T11:37:43+00:00</time>
        <ele>1895.0</ele>
      </trkpt>
      <trkpt lat="44.32278" lon="6.85499">
        <time>2023-04-10T11:37:44+00:00</time>
        <ele>1895.0</ele>
      </trkpt>
      <trkpt lat="44.32278" lon="6.85499">
        <time>2023-04-10T11:37:45+00:00</time>
        <ele>1895.0</ele>
      </trkpt>
      <trkpt lat="44.32278" lon="6.85499">
        <time>2023-04-10T11:37:46+00:00</time>
        <ele>1895.0</ele>
      </trkpt>
      <trkpt lat="44.32278" lon="6.85499">
        <time>2023-04-10T11:37:47+00:00</time>
        <ele>1895.0</ele>
      </trkpt>
      <trkpt lat="44.32278" lon="6.855">
        <time>2023-04-10T11:37:48+00:00</time>
        <ele>1895.0</ele>
      </trkpt>
      <trkpt lat="44.32278" lon="6.855">
        <time>2023-04-10T11:37:49+00:00</time>
        <ele>1895.0</ele>
      </trkpt>
      <trkpt lat="44.32278" lon="6.855">
        <time>2023-04-10T11:37:50+00:00</time>
        <ele>1895.0</ele>
      </trkpt>
      <trkpt lat="44.32278" lon="6.855">
        <time>2023-04-10T11:37:51+00:00</time>
        <ele>1895.0</ele>
      </trkpt>
      <trkpt lat="44.32278" lon="6.855">
        <time>2023-04-10T11:37:52+00:00</time>
        <ele>1895.0</ele>
      </trkpt>
      <trkpt lat="44.32278" lon="6.855">
        <time>2023-04-10T11:37:53+00:00</time>
        <ele>1895.0</ele>
      </trkpt>
      <trkpt lat="44.32278" lon="6.855">
        <time>2023-04-10T11:37:54+00:00</time>
        <ele>1895.0</ele>
      </trkpt>
      <trkpt lat="44.32278" lon="6.855">
        <time>2023-04-10T11:37:55+00:00</time>
        <ele>1895.0</ele>
      </trkpt>
      <trkpt lat="44.32277" lon="6.855">
        <time>2023-04-10T11:37:56+00:00</time>
        <ele>1895.0</ele>
      </trkpt>
      <trkpt lat="44.32277" lon="6.855">
        <time>2023-04-10T11:37:57+00:00</time>
        <ele>1895.0</ele>
      </trkpt>
      <trkpt lat="44.32277" lon="6.855">
        <time>2023-04-10T11:37:58+00:00</time>
        <ele>1895.0</ele>
      </trkpt>
      <trkpt lat="44.32277" lon="6.855">
        <time>2023-04-10T11:37:59+00:00</time>
        <ele>1895.0</ele>
      </trkpt>
      <trkpt lat="44.32277" lon="6.855">
        <time>2023-04-10T11:38:00+00:00</time>
        <ele>1895.0</ele>
      </trkpt>
      <trkpt lat="44.32277" lon="6.855">
        <time>2023-04-10T11:38:01+00:00</time>
        <ele>1895.0</ele>
      </trkpt>
      <trkpt lat="44.32277" lon="6.855">
        <time>2023-04-10T11:38:02+00:00</time>
        <ele>1895.0</ele>
      </trkpt>
      <trkpt lat="44.32277" lon="6.855">
        <time>2023-04-10T11:38:03+00:00</time>
        <ele>1895.0</ele>
      </trkpt>
      <trkpt lat="44.32277" lon="6.855">
        <time>2023-04-10T11:38:04+00:00</time>
        <ele>1895.0</ele>
      </trkpt>
      <trkpt lat="44.32277" lon="6.855">
        <time>2023-04-10T11:38:05+00:00</time>
        <ele>1895.0</ele>
      </trkpt>
      <trkpt lat="44.32277" lon="6.855">
        <time>2023-04-10T11:38:06+00:00</time>
        <ele>1895.0</ele>
      </trkpt>
      <trkpt lat="44.32277" lon="6.85501">
        <time>2023-04-10T11:38:07+00:00</time>
        <ele>1895.0</ele>
      </trkpt>
      <trkpt lat="44.32277" lon="6.85501">
        <time>2023-04-10T11:38:08+00:00</time>
        <ele>1895.0</ele>
      </trkpt>
      <trkpt lat="44.32277" lon="6.85501">
        <time>2023-04-10T11:38:09+00:00</time>
        <ele>1895.0</ele>
      </trkpt>
      <trkpt lat="44.32277" lon="6.85501">
        <time>2023-04-10T11:38:10+00:00</time>
        <ele>1895.0</ele>
      </trkpt>
      <trkpt lat="44.32277" lon="6.85501">
        <time>2023-04-10T11:38:11+00:00</time>
        <ele>1895.0</ele>
      </trkpt>
      <trkpt lat="44.32277" lon="6.85501">
        <time>2023-04-10T11:38:12+00:00</time>
        <ele>1895.0</ele>
      </trkpt>
      <trkpt lat="44.32277" lon="6.85501">
        <time>2023-04-10T11:38:13+00:00</time>
        <ele>1895.0</ele>
      </trkpt>
      <trkpt lat="44.32277" lon="6.85501">
        <time>2023-04-10T11:38:14+00:00</time>
        <ele>1895.0</ele>
      </trkpt>
      <trkpt lat="44.32277" lon="6.85501">
        <time>2023-04-10T11:38:15+00:00</time>
        <ele>1895.0</ele>
      </trkpt>
      <trkpt lat="44.32277" lon="6.85501">
        <time>2023-04-10T11:38:16+00:00</time>
        <ele>1895.0</ele>
      </trkpt>
      <trkpt lat="44.32277" lon="6.85501">
        <time>2023-04-10T11:38:17+00:00</time>
        <ele>1895.0</ele>
      </trkpt>
      <trkpt lat="44.32277" lon="6.85501">
        <time>2023-04-10T11:38:18+00:00</time>
        <ele>1895.0</ele>
      </trkpt>
      <trkpt lat="44.32277" lon="6.85501">
        <time>2023-04-10T11:38:19+00:00</time>
        <ele>1895.0</ele>
      </trkpt>
      <trkpt lat="44.32277" lon="6.85501">
        <time>2023-04-10T11:38:20+00:00</time>
        <ele>1895.0</ele>
      </trkpt>
      <trkpt lat="44.32277" lon="6.85501">
        <time>2023-04-10T11:38:21+00:00</time>
        <ele>1895.0</ele>
      </trkpt>
      <trkpt lat="44.32277" lon="6.85501">
        <time>2023-04-10T11:38:22+00:00</time>
        <ele>1895.0</ele>
      </trkpt>
      <trkpt lat="44.32277" lon="6.85501">
        <time>2023-04-10T11:38:23+00:00</time>
        <ele>1895.0</ele>
      </trkpt>
      <trkpt lat="44.32277" lon="6.85501">
        <time>2023-04-10T11:38:24+00:00</time>
        <ele>1895.0</ele>
      </trkpt>
      <trkpt lat="44.32277" lon="6.85501">
        <time>2023-04-10T11:38:25+00:00</time>
        <ele>1895.0</ele>
      </trkpt>
      <trkpt lat="44.32277" lon="6.85501">
        <time>2023-04-10T11:38:26+00:00</time>
        <ele>1895.0</ele>
      </trkpt>
      <trkpt lat="44.32272" lon="6.85509">
        <time>2023-04-10T11:38:27+00:00</time>
        <ele>1894.0</ele>
      </trkpt>
      <trkpt lat="44.32272" lon="6.85509">
        <time>2023-04-10T11:38:28+00:00</time>
        <ele>1894.0</ele>
      </trkpt>
      <trkpt lat="44.3227" lon="6.85511">
        <time>2023-04-10T11:38:29+00:00</time>
        <ele>1894.0</ele>
      </trkpt>
      <trkpt lat="44.3227" lon="6.85511">
        <time>2023-04-10T11:38:30+00:00</time>
        <ele>1894.0</ele>
      </trkpt>
      <trkpt lat="44.32268" lon="6.85513">
        <time>2023-04-10T11:38:31+00:00</time>
        <ele>1894.0</ele>
      </trkpt>
      <trkpt lat="44.32268" lon="6.85513">
        <time>2023-04-10T11:38:32+00:00</time>
        <ele>1894.0</ele>
      </trkpt>
      <trkpt lat="44.32266" lon="6.85514">
        <time>2023-04-10T11:38:33+00:00</time>
        <ele>1895.0</ele>
      </trkpt>
      <trkpt lat="44.32266" lon="6.85514">
        <time>2023-04-10T11:38:34+00:00</time>
        <ele>1895.0</ele>
      </trkpt>
      <trkpt lat="44.32266" lon="6.85514">
        <time>2023-04-10T11:38:35+00:00</time>
        <ele>1895.0</ele>
      </trkpt>
      <trkpt lat="44.32266" lon="6.85514">
        <time>2023-04-10T11:38:36+00:00</time>
        <ele>1895.0</ele>
      </trkpt>
      <trkpt lat="44.32266" lon="6.85514">
        <time>2023-04-10T11:38:37+00:00</time>
        <ele>1895.0</ele>
      </trkpt>
      <trkpt lat="44.32264" lon="6.85516">
        <time>2023-04-10T11:38:38+00:00</time>
        <ele>1895.0</ele>
      </trkpt>
      <trkpt lat="44.32264" lon="6.85516">
        <time>2023-04-10T11:38:39+00:00</time>
        <ele>1895.0</ele>
      </trkpt>
      <trkpt lat="44.32264" lon="6.85516">
        <time>2023-04-10T11:38:40+00:00</time>
        <ele>1895.0</ele>
      </trkpt>
      <trkpt lat="44.32264" lon="6.85516">
        <time>2023-04-10T11:38:41+00:00</time>
        <ele>1895.0</ele>
      </trkpt>
      <trkpt lat="44.32264" lon="6.85516">
        <time>2023-04-10T11:38:42+00:00</time>
        <ele>1895.0</ele>
      </trkpt>
      <trkpt lat="44.32264" lon="6.85516">
        <time>2023-04-10T11:38:43+00:00</time>
        <ele>1895.0</ele>
      </trkpt>
      <trkpt lat="44.32262" lon="6.85518">
        <time>2023-04-10T11:38:44+00:00</time>
        <ele>1895.0</ele>
      </trkpt>
      <trkpt lat="44.32262" lon="6.85518">
        <time>2023-04-10T11:38:45+00:00</time>
        <ele>1895.0</ele>
      </trkpt>
      <trkpt lat="44.32262" lon="6.85518">
        <time>2023-04-10T11:38:46+00:00</time>
        <ele>1895.0</ele>
      </trkpt>
      <trkpt lat="44.3226" lon="6.85519">
        <time>2023-04-10T11:38:47+00:00</time>
        <ele>1895.0</ele>
      </trkpt>
      <trkpt lat="44.3226" lon="6.85519">
        <time>2023-04-10T11:38:48+00:00</time>
        <ele>1895.0</ele>
      </trkpt>
      <trkpt lat="44.3226" lon="6.85519">
        <time>2023-04-10T11:38:49+00:00</time>
        <ele>1895.0</ele>
      </trkpt>
      <trkpt lat="44.32258" lon="6.8552">
        <time>2023-04-10T11:38:50+00:00</time>
        <ele>1895.0</ele>
      </trkpt>
      <trkpt lat="44.32258" lon="6.8552">
        <time>2023-04-10T11:38:51+00:00</time>
        <ele>1895.0</ele>
      </trkpt>
      <trkpt lat="44.32258" lon="6.8552">
        <time>2023-04-10T11:38:52+00:00</time>
        <ele>1895.0</ele>
      </trkpt>
      <trkpt lat="44.32258" lon="6.8552">
        <time>2023-04-10T11:38:53+00:00</time>
        <ele>1895.0</ele>
      </trkpt>
      <trkpt lat="44.32258" lon="6.8552">
        <time>2023-04-10T11:38:54+00:00</time>
        <ele>1895.0</ele>
      </trkpt>
      <trkpt lat="44.32258" lon="6.8552">
        <time>2023-04-10T11:38:55+00:00</time>
        <ele>1895.0</ele>
      </trkpt>
      <trkpt lat="44.32258" lon="6.8552">
        <time>2023-04-10T11:38:56+00:00</time>
        <ele>1895.0</ele>
      </trkpt>
      <trkpt lat="44.3226" lon="6.85522">
        <time>2023-04-10T11:38:57+00:00</time>
        <ele>1894.0</ele>
      </trkpt>
      <trkpt lat="44.3226" lon="6.85522">
        <time>2023-04-10T11:38:58+00:00</time>
        <ele>1894.0</ele>
      </trkpt>
      <trkpt lat="44.3226" lon="6.85522">
        <time>2023-04-10T11:38:59+00:00</time>
        <ele>1894.0</ele>
      </trkpt>
      <trkpt lat="44.32261" lon="6.85524">
        <time>2023-04-10T11:39:00+00:00</time>
        <ele>1893.0</ele>
      </trkpt>
      <trkpt lat="44.32261" lon="6.85524">
        <time>2023-04-10T11:39:01+00:00</time>
        <ele>1893.0</ele>
      </trkpt>
      <trkpt lat="44.32261" lon="6.85524">
        <time>2023-04-10T11:39:02+00:00</time>
        <ele>1893.0</ele>
      </trkpt>
      <trkpt lat="44.3226" lon="6.85527">
        <time>2023-04-10T11:39:03+00:00</time>
        <ele>1893.0</ele>
      </trkpt>
      <trkpt lat="44.3226" lon="6.85527">
        <time>2023-04-10T11:39:04+00:00</time>
        <ele>1893.0</ele>
      </trkpt>
      <trkpt lat="44.3226" lon="6.85527">
        <time>2023-04-10T11:39:05+00:00</time>
        <ele>1893.0</ele>
      </trkpt>
      <trkpt lat="44.32258" lon="6.8553">
        <time>2023-04-10T11:39:06+00:00</time>
        <ele>1892.0</ele>
      </trkpt>
      <trkpt lat="44.32258" lon="6.8553">
        <time>2023-04-10T11:39:07+00:00</time>
        <ele>1892.0</ele>
      </trkpt>
      <trkpt lat="44.3226" lon="6.85532">
        <time>2023-04-10T11:39:08+00:00</time>
        <ele>1892.0</ele>
      </trkpt>
      <trkpt lat="44.32258" lon="6.85534">
        <time>2023-04-10T11:39:09+00:00</time>
        <ele>1891.0</ele>
      </trkpt>
      <trkpt lat="44.32258" lon="6.85534">
        <time>2023-04-10T11:39:10+00:00</time>
        <ele>1891.0</ele>
      </trkpt>
      <trkpt lat="44.32256" lon="6.85537">
        <time>2023-04-10T11:39:11+00:00</time>
        <ele>1891.0</ele>
      </trkpt>
      <trkpt lat="44.32256" lon="6.85537">
        <time>2023-04-10T11:39:12+00:00</time>
        <ele>1891.0</ele>
      </trkpt>
      <trkpt lat="44.32255" lon="6.8554">
        <time>2023-04-10T11:39:13+00:00</time>
        <ele>1890.0</ele>
      </trkpt>
      <trkpt lat="44.32255" lon="6.8554">
        <time>2023-04-10T11:39:14+00:00</time>
        <ele>1890.0</ele>
      </trkpt>
      <trkpt lat="44.32255" lon="6.85543">
        <time>2023-04-10T11:39:15+00:00</time>
        <ele>1890.0</ele>
      </trkpt>
      <trkpt lat="44.32255" lon="6.85543">
        <time>2023-04-10T11:39:16+00:00</time>
        <ele>1890.0</ele>
      </trkpt>
      <trkpt lat="44.32254" lon="6.85546">
        <time>2023-04-10T11:39:17+00:00</time>
        <ele>1889.0</ele>
      </trkpt>
      <trkpt lat="44.32254" lon="6.85546">
        <time>2023-04-10T11:39:18+00:00</time>
        <ele>1889.0</ele>
      </trkpt>
      <trkpt lat="44.32255" lon="6.85548">
        <time>2023-04-10T11:39:19+00:00</time>
        <ele>1889.0</ele>
      </trkpt>
      <trkpt lat="44.32255" lon="6.85548">
        <time>2023-04-10T11:39:20+00:00</time>
        <ele>1889.0</ele>
      </trkpt>
      <trkpt lat="44.32256" lon="6.8555">
        <time>2023-04-10T11:39:21+00:00</time>
        <ele>1888.0</ele>
      </trkpt>
      <trkpt lat="44.32256" lon="6.8555">
        <time>2023-04-10T11:39:22+00:00</time>
        <ele>1888.0</ele>
      </trkpt>
      <trkpt lat="44.32256" lon="6.8555">
        <time>2023-04-10T11:39:23+00:00</time>
        <ele>1888.0</ele>
      </trkpt>
      <trkpt lat="44.32258" lon="6.85553">
        <time>2023-04-10T11:39:24+00:00</time>
        <ele>1887.0</ele>
      </trkpt>
      <trkpt lat="44.32258" lon="6.85553">
        <time>2023-04-10T11:39:25+00:00</time>
        <ele>1887.0</ele>
      </trkpt>
      <trkpt lat="44.32261" lon="6.85554">
        <time>2023-04-10T11:39:26+00:00</time>
        <ele>1886.0</ele>
      </trkpt>
      <trkpt lat="44.32261" lon="6.85554">
        <time>2023-04-10T11:39:27+00:00</time>
        <ele>1886.0</ele>
      </trkpt>
      <trkpt lat="44.32262" lon="6.85557">
        <time>2023-04-10T11:39:28+00:00</time>
        <ele>1885.0</ele>
      </trkpt>
      <trkpt lat="44.32262" lon="6.85557">
        <time>2023-04-10T11:39:29+00:00</time>
        <ele>1885.0</ele>
      </trkpt>
      <trkpt lat="44.32262" lon="6.85561">
        <time>2023-04-10T11:39:30+00:00</time>
        <ele>1884.0</ele>
      </trkpt>
      <trkpt lat="44.32262" lon="6.85561">
        <time>2023-04-10T11:39:31+00:00</time>
        <ele>1884.0</ele>
      </trkpt>
      <trkpt lat="44.32262" lon="6.85565">
        <time>2023-04-10T11:39:32+00:00</time>
        <ele>1883.0</ele>
      </trkpt>
      <trkpt lat="44.32262" lon="6.85565">
        <time>2023-04-10T11:39:33+00:00</time>
        <ele>1883.0</ele>
      </trkpt>
      <trkpt lat="44.32261" lon="6.85569">
        <time>2023-04-10T11:39:34+00:00</time>
        <ele>1883.0</ele>
      </trkpt>
      <trkpt lat="44.32261" lon="6.85569">
        <time>2023-04-10T11:39:35+00:00</time>
        <ele>1883.0</ele>
      </trkpt>
      <trkpt lat="44.32261" lon="6.85573">
        <time>2023-04-10T11:39:36+00:00</time>
        <ele>1882.0</ele>
      </trkpt>
      <trkpt lat="44.32261" lon="6.85573">
        <time>2023-04-10T11:39:37+00:00</time>
        <ele>1882.0</ele>
      </trkpt>
      <trkpt lat="44.32258" lon="6.85575">
        <time>2023-04-10T11:39:38+00:00</time>
        <ele>1882.0</ele>
      </trkpt>
      <trkpt lat="44.32258" lon="6.85575">
        <time>2023-04-10T11:39:39+00:00</time>
        <ele>1882.0</ele>
      </trkpt>
      <trkpt lat="44.32255" lon="6.85576">
        <time>2023-04-10T11:39:40+00:00</time>
        <ele>1883.0</ele>
      </trkpt>
      <trkpt lat="44.32255" lon="6.85576">
        <time>2023-04-10T11:39:41+00:00</time>
        <ele>1883.0</ele>
      </trkpt>
      <trkpt lat="44.32253" lon="6.85577">
        <time>2023-04-10T11:39:42+00:00</time>
        <ele>1883.0</ele>
      </trkpt>
      <trkpt lat="44.32253" lon="6.85577">
        <time>2023-04-10T11:39:43+00:00</time>
        <ele>1883.0</ele>
      </trkpt>
      <trkpt lat="44.3225" lon="6.85578">
        <time>2023-04-10T11:39:44+00:00</time>
        <ele>1883.0</ele>
      </trkpt>
      <trkpt lat="44.3225" lon="6.85578">
        <time>2023-04-10T11:39:45+00:00</time>
        <ele>1883.0</ele>
      </trkpt>
      <trkpt lat="44.32248" lon="6.8558">
        <time>2023-04-10T11:39:46+00:00</time>
        <ele>1883.0</ele>
      </trkpt>
      <trkpt lat="44.32248" lon="6.8558">
        <time>2023-04-10T11:39:47+00:00</time>
        <ele>1883.0</ele>
      </trkpt>
      <trkpt lat="44.32247" lon="6.85582">
        <time>2023-04-10T11:39:48+00:00</time>
        <ele>1883.0</ele>
      </trkpt>
      <trkpt lat="44.32247" lon="6.85582">
        <time>2023-04-10T11:39:49+00:00</time>
        <ele>1883.0</ele>
      </trkpt>
      <trkpt lat="44.32245" lon="6.85584">
        <time>2023-04-10T11:39:50+00:00</time>
        <ele>1883.0</ele>
      </trkpt>
      <trkpt lat="44.32245" lon="6.85584">
        <time>2023-04-10T11:39:51+00:00</time>
        <ele>1883.0</ele>
      </trkpt>
      <trkpt lat="44.32245" lon="6.85584">
        <time>2023-04-10T11:39:52+00:00</time>
        <ele>1883.0</ele>
      </trkpt>
      <trkpt lat="44.32244" lon="6.85586">
        <time>2023-04-10T11:39:53+00:00</time>
        <ele>1883.0</ele>
      </trkpt>
      <trkpt lat="44.32244" lon="6.85586">
        <time>2023-04-10T11:39:54+00:00</time>
        <ele>1883.0</ele>
      </trkpt>
      <trkpt lat="44.32244" lon="6.85586">
        <time>2023-04-10T11:39:55+00:00</time>
        <ele>1883.0</ele>
      </trkpt>
      <trkpt lat="44.32244" lon="6.85586">
        <time>2023-04-10T11:39:56+00:00</time>
        <ele>1883.0</ele>
      </trkpt>
      <trkpt lat="44.32245" lon="6.85588">
        <time>2023-04-10T11:39:57+00:00</time>
        <ele>1882.0</ele>
      </trkpt>
      <trkpt lat="44.32245" lon="6.85588">
        <time>2023-04-10T11:39:58+00:00</time>
        <ele>1882.0</ele>
      </trkpt>
      <trkpt lat="44.32245" lon="6.85588">
        <time>2023-04-10T11:39:59+00:00</time>
        <ele>1882.0</ele>
      </trkpt>
      <trkpt lat="44.32246" lon="6.8559">
        <time>2023-04-10T11:40:01+00:00</time>
        <ele>1882.0</ele>
      </trkpt>
      <trkpt lat="44.32246" lon="6.8559">
        <time>2023-04-10T11:40:02+00:00</time>
        <ele>1882.0</ele>
      </trkpt>
      <trkpt lat="44.32246" lon="6.8559">
        <time>2023-04-10T11:40:03+00:00</time>
        <ele>1882.0</ele>
      </trkpt>
      <trkpt lat="44.32246" lon="6.8559">
        <time>2023-04-10T11:40:04+00:00</time>
        <ele>1882.0</ele>
      </trkpt>
      <trkpt lat="44.32245" lon="6.85594">
        <time>2023-04-10T11:40:05+00:00</time>
        <ele>1881.0</ele>
      </trkpt>
      <trkpt lat="44.32245" lon="6.85594">
        <time>2023-04-10T11:40:06+00:00</time>
        <ele>1881.0</ele>
      </trkpt>
      <trkpt lat="44.32245" lon="6.85594">
        <time>2023-04-10T11:40:07+00:00</time>
        <ele>1881.0</ele>
      </trkpt>
      <trkpt lat="44.32244" lon="6.85596">
        <time>2023-04-10T11:40:08+00:00</time>
        <ele>1881.0</ele>
      </trkpt>
      <trkpt lat="44.32244" lon="6.85596">
        <time>2023-04-10T11:40:09+00:00</time>
        <ele>1881.0</ele>
      </trkpt>
      <trkpt lat="44.32245" lon="6.856">
        <time>2023-04-10T11:40:10+00:00</time>
        <ele>1880.0</ele>
      </trkpt>
      <trkpt lat="44.32245" lon="6.85601">
        <time>2023-04-10T11:40:12+00:00</time>
        <ele>1880.0</ele>
      </trkpt>
      <trkpt lat="44.32245" lon="6.85602">
        <time>2023-04-10T11:40:13+00:00</time>
        <ele>1880.0</ele>
      </trkpt>
      <trkpt lat="44.32245" lon="6.85602">
        <time>2023-04-10T11:40:14+00:00</time>
        <ele>1880.0</ele>
      </trkpt>
      <trkpt lat="44.32245" lon="6.85602">
        <time>2023-04-10T11:40:15+00:00</time>
        <ele>1880.0</ele>
      </trkpt>
      <trkpt lat="44.32245" lon="6.85606">
        <time>2023-04-10T11:40:16+00:00</time>
        <ele>1880.0</ele>
      </trkpt>
      <trkpt lat="44.32245" lon="6.85606">
        <time>2023-04-10T11:40:17+00:00</time>
        <ele>1880.0</ele>
      </trkpt>
      <trkpt lat="44.32245" lon="6.85606">
        <time>2023-04-10T11:40:18+00:00</time>
        <ele>1880.0</ele>
      </trkpt>
      <trkpt lat="44.32245" lon="6.85606">
        <time>2023-04-10T11:40:19+00:00</time>
        <ele>1880.0</ele>
      </trkpt>
      <trkpt lat="44.32246" lon="6.85613">
        <time>2023-04-10T11:40:20+00:00</time>
        <ele>1879.0</ele>
      </trkpt>
      <trkpt lat="44.32246" lon="6.85613">
        <time>2023-04-10T11:40:21+00:00</time>
        <ele>1879.0</ele>
      </trkpt>
      <trkpt lat="44.32246" lon="6.85615">
        <time>2023-04-10T11:40:22+00:00</time>
        <ele>1879.0</ele>
      </trkpt>
      <trkpt lat="44.32246" lon="6.85615">
        <time>2023-04-10T11:40:23+00:00</time>
        <ele>1879.0</ele>
      </trkpt>
      <trkpt lat="44.32246" lon="6.85619">
        <time>2023-04-10T11:40:24+00:00</time>
        <ele>1878.0</ele>
      </trkpt>
      <trkpt lat="44.32246" lon="6.85619">
        <time>2023-04-10T11:40:25+00:00</time>
        <ele>1878.0</ele>
      </trkpt>
      <trkpt lat="44.32246" lon="6.85622">
        <time>2023-04-10T11:40:26+00:00</time>
        <ele>1878.0</ele>
      </trkpt>
      <trkpt lat="44.32246" lon="6.85622">
        <time>2023-04-10T11:40:27+00:00</time>
        <ele>1878.0</ele>
      </trkpt>
      <trkpt lat="44.32247" lon="6.85624">
        <time>2023-04-10T11:40:28+00:00</time>
        <ele>1878.0</ele>
      </trkpt>
      <trkpt lat="44.32247" lon="6.85624">
        <time>2023-04-10T11:40:29+00:00</time>
        <ele>1878.0</ele>
      </trkpt>
      <trkpt lat="44.32246" lon="6.85627">
        <time>2023-04-10T11:40:30+00:00</time>
        <ele>1878.0</ele>
      </trkpt>
      <trkpt lat="44.32246" lon="6.85627">
        <time>2023-04-10T11:40:31+00:00</time>
        <ele>1878.0</ele>
      </trkpt>
      <trkpt lat="44.32247" lon="6.8563">
        <time>2023-04-10T11:40:32+00:00</time>
        <ele>1877.0</ele>
      </trkpt>
      <trkpt lat="44.32247" lon="6.8563">
        <time>2023-04-10T11:40:33+00:00</time>
        <ele>1877.0</ele>
      </trkpt>
      <trkpt lat="44.32247" lon="6.85634">
        <time>2023-04-10T11:40:34+00:00</time>
        <ele>1877.0</ele>
      </trkpt>
      <trkpt lat="44.32247" lon="6.85634">
        <time>2023-04-10T11:40:35+00:00</time>
        <ele>1877.0</ele>
      </trkpt>
      <trkpt lat="44.32247" lon="6.85637">
        <time>2023-04-10T11:40:36+00:00</time>
        <ele>1877.0</ele>
      </trkpt>
      <trkpt lat="44.32247" lon="6.85637">
        <time>2023-04-10T11:40:37+00:00</time>
        <ele>1877.0</ele>
      </trkpt>
      <trkpt lat="44.32247" lon="6.8564">
        <time>2023-04-10T11:40:38+00:00</time>
        <ele>1877.0</ele>
      </trkpt>
      <trkpt lat="44.32247" lon="6.8564">
        <time>2023-04-10T11:40:39+00:00</time>
        <ele>1877.0</ele>
      </trkpt>
      <trkpt lat="44.32246" lon="6.85644">
        <time>2023-04-10T11:40:40+00:00</time>
        <ele>1877.0</ele>
      </trkpt>
      <trkpt lat="44.32246" lon="6.85644">
        <time>2023-04-10T11:40:41+00:00</time>
        <ele>1877.0</ele>
      </trkpt>
      <trkpt lat="44.32246" lon="6.85647">
        <time>2023-04-10T11:40:42+00:00</time>
        <ele>1877.0</ele>
      </trkpt>
      <trkpt lat="44.32246" lon="6.85647">
        <time>2023-04-10T11:40:43+00:00</time>
        <ele>1877.0</ele>
      </trkpt>
      <trkpt lat="44.32246" lon="6.85649">
        <time>2023-04-10T11:40:44+00:00</time>
        <ele>1877.0</ele>
      </trkpt>
      <trkpt lat="44.32246" lon="6.85649">
        <time>2023-04-10T11:40:45+00:00</time>
        <ele>1877.0</ele>
      </trkpt>
      <trkpt lat="44.32246" lon="6.85649">
        <time>2023-04-10T11:40:46+00:00</time>
        <ele>1877.0</ele>
      </trkpt>
      <trkpt lat="44.32248" lon="6.85653">
        <time>2023-04-10T11:40:47+00:00</time>
        <ele>1876.0</ele>
      </trkpt>
      <trkpt lat="44.32248" lon="6.85653">
        <time>2023-04-10T11:40:48+00:00</time>
        <ele>1876.0</ele>
      </trkpt>
      <trkpt lat="44.32248" lon="6.85653">
        <time>2023-04-10T11:40:49+00:00</time>
        <ele>1876.0</ele>
      </trkpt>
      <trkpt lat="44.32248" lon="6.85653">
        <time>2023-04-10T11:40:50+00:00</time>
        <ele>1876.0</ele>
      </trkpt>
      <trkpt lat="44.32248" lon="6.85653">
        <time>2023-04-10T11:40:51+00:00</time>
        <ele>1876.0</ele>
      </trkpt>
      <trkpt lat="44.32248" lon="6.85653">
        <time>2023-04-10T11:40:52+00:00</time>
        <ele>1876.0</ele>
      </trkpt>
      <trkpt lat="44.32245" lon="6.85652">
        <time>2023-04-10T11:40:53+00:00</time>
        <ele>1877.0</ele>
      </trkpt>
      <trkpt lat="44.32245" lon="6.85652">
        <time>2023-04-10T11:40:54+00:00</time>
        <ele>1877.0</ele>
      </trkpt>
      <trkpt lat="44.32245" lon="6.85652">
        <time>2023-04-10T11:40:55+00:00</time>
        <ele>1877.0</ele>
      </trkpt>
      <trkpt lat="44.32245" lon="6.85652">
        <time>2023-04-10T11:40:56+00:00</time>
        <ele>1877.0</ele>
      </trkpt>
      <trkpt lat="44.32245" lon="6.85652">
        <time>2023-04-10T11:40:57+00:00</time>
        <ele>1877.0</ele>
      </trkpt>
      <trkpt lat="44.32245" lon="6.85652">
        <time>2023-04-10T11:40:58+00:00</time>
        <ele>1877.0</ele>
      </trkpt>
      <trkpt lat="44.32245" lon="6.85652">
        <time>2023-04-10T11:40:59+00:00</time>
        <ele>1877.0</ele>
      </trkpt>
      <trkpt lat="44.32245" lon="6.85652">
        <time>2023-04-10T11:41:00+00:00</time>
        <ele>1877.0</ele>
      </trkpt>
      <trkpt lat="44.32245" lon="6.85652">
        <time>2023-04-10T11:41:01+00:00</time>
        <ele>1877.0</ele>
      </trkpt>
      <trkpt lat="44.32245" lon="6.85652">
        <time>2023-04-10T11:41:02+00:00</time>
        <ele>1877.0</ele>
      </trkpt>
      <trkpt lat="44.32245" lon="6.85652">
        <time>2023-04-10T11:41:03+00:00</time>
        <ele>1877.0</ele>
      </trkpt>
      <trkpt lat="44.32245" lon="6.85652">
        <time>2023-04-10T11:41:04+00:00</time>
        <ele>1877.0</ele>
      </trkpt>
      <trkpt lat="44.32245" lon="6.85652">
        <time>2023-04-10T11:41:05+00:00</time>
        <ele>1877.0</ele>
      </trkpt>
      <trkpt lat="44.32245" lon="6.85652">
        <time>2023-04-10T11:41:06+00:00</time>
        <ele>1877.0</ele>
      </trkpt>
      <trkpt lat="44.32245" lon="6.85652">
        <time>2023-04-10T11:41:07+00:00</time>
        <ele>1877.0</ele>
      </trkpt>
      <trkpt lat="44.32245" lon="6.85652">
        <time>2023-04-10T11:41:08+00:00</time>
        <ele>1877.0</ele>
      </trkpt>
      <trkpt lat="44.32245" lon="6.85652">
        <time>2023-04-10T11:41:09+00:00</time>
        <ele>1877.0</ele>
      </trkpt>
      <trkpt lat="44.32245" lon="6.85652">
        <time>2023-04-10T11:41:10+00:00</time>
        <ele>1877.0</ele>
      </trkpt>
      <trkpt lat="44.32245" lon="6.85652">
        <time>2023-04-10T11:41:11+00:00</time>
        <ele>1877.0</ele>
      </trkpt>
      <trkpt lat="44.32245" lon="6.85652">
        <time>2023-04-10T11:41:12+00:00</time>
        <ele>1877.0</ele>
      </trkpt>
      <trkpt lat="44.32245" lon="6.85652">
        <time>2023-04-10T11:41:13+00:00</time>
        <ele>1877.0</ele>
      </trkpt>
      <trkpt lat="44.32245" lon="6.85652">
        <time>2023-04-10T11:41:14+00:00</time>
        <ele>1877.0</ele>
      </trkpt>
      <trkpt lat="44.32245" lon="6.85652">
        <time>2023-04-10T11:41:15+00:00</time>
        <ele>1877.0</ele>
      </trkpt>
      <trkpt lat="44.32245" lon="6.85652">
        <time>2023-04-10T11:41:16+00:00</time>
        <ele>1877.0</ele>
      </trkpt>
      <trkpt lat="44.32245" lon="6.85652">
        <time>2023-04-10T11:41:17+00:00</time>
        <ele>1877.0</ele>
      </trkpt>
      <trkpt lat="44.32245" lon="6.85652">
        <time>2023-04-10T11:41:18+00:00</time>
        <ele>1877.0</ele>
      </trkpt>
      <trkpt lat="44.32245" lon="6.85652">
        <time>2023-04-10T11:41:19+00:00</time>
        <ele>1877.0</ele>
      </trkpt>
      <trkpt lat="44.32245" lon="6.85652">
        <time>2023-04-10T11:41:20+00:00</time>
        <ele>1877.0</ele>
      </trkpt>
      <trkpt lat="44.32245" lon="6.85652">
        <time>2023-04-10T11:41:21+00:00</time>
        <ele>1877.0</ele>
      </trkpt>
      <trkpt lat="44.32245" lon="6.85652">
        <time>2023-04-10T11:41:22+00:00</time>
        <ele>1877.0</ele>
      </trkpt>
      <trkpt lat="44.32245" lon="6.85652">
        <time>2023-04-10T11:41:23+00:00</time>
        <ele>1877.0</ele>
      </trkpt>
      <trkpt lat="44.32245" lon="6.85652">
        <time>2023-04-10T11:41:24+00:00</time>
        <ele>1877.0</ele>
      </trkpt>
      <trkpt lat="44.32245" lon="6.85652">
        <time>2023-04-10T11:41:25+00:00</time>
        <ele>1877.0</ele>
      </trkpt>
      <trkpt lat="44.32245" lon="6.85652">
        <time>2023-04-10T11:41:26+00:00</time>
        <ele>1877.0</ele>
      </trkpt>
      <trkpt lat="44.32245" lon="6.85652">
        <time>2023-04-10T11:41:27+00:00</time>
        <ele>1877.0</ele>
      </trkpt>
      <trkpt lat="44.32245" lon="6.85652">
        <time>2023-04-10T11:41:28+00:00</time>
        <ele>1877.0</ele>
      </trkpt>
      <trkpt lat="44.32245" lon="6.85652">
        <time>2023-04-10T11:41:29+00:00</time>
        <ele>1877.0</ele>
      </trkpt>
      <trkpt lat="44.32246" lon="6.85654">
        <time>2023-04-10T11:41:30+00:00</time>
        <ele>1876.0</ele>
      </trkpt>
      <trkpt lat="44.32246" lon="6.85654">
        <time>2023-04-10T11:41:31+00:00</time>
        <ele>1876.0</ele>
      </trkpt>
      <trkpt lat="44.32246" lon="6.85654">
        <time>2023-04-10T11:41:32+00:00</time>
        <ele>1876.0</ele>
      </trkpt>
      <trkpt lat="44.32246" lon="6.85654">
        <time>2023-04-10T11:41:33+00:00</time>
        <ele>1876.0</ele>
      </trkpt>
      <trkpt lat="44.32247" lon="6.85656">
        <time>2023-04-10T11:41:34+00:00</time>
        <ele>1876.0</ele>
      </trkpt>
      <trkpt lat="44.32247" lon="6.85656">
        <time>2023-04-10T11:41:35+00:00</time>
        <ele>1876.0</ele>
      </trkpt>
      <trkpt lat="44.32247" lon="6.85656">
        <time>2023-04-10T11:41:36+00:00</time>
        <ele>1876.0</ele>
      </trkpt>
      <trkpt lat="44.32249" lon="6.85655">
        <time>2023-04-10T11:41:37+00:00</time>
        <ele>1876.0</ele>
      </trkpt>
      <trkpt lat="44.32249" lon="6.85655">
        <time>2023-04-10T11:41:38+00:00</time>
        <ele>1876.0</ele>
      </trkpt>
      <trkpt lat="44.32249" lon="6.85655">
        <time>2023-04-10T11:41:39+00:00</time>
        <ele>1876.0</ele>
      </trkpt>
      <trkpt lat="44.32249" lon="6.85652">
        <time>2023-04-10T11:41:40+00:00</time>
        <ele>1876.0</ele>
      </trkpt>
      <trkpt lat="44.32249" lon="6.85652">
        <time>2023-04-10T11:41:41+00:00</time>
        <ele>1876.0</ele>
      </trkpt>
      <trkpt lat="44.32249" lon="6.85649">
        <time>2023-04-10T11:41:42+00:00</time>
        <ele>1876.0</ele>
      </trkpt>
      <trkpt lat="44.32249" lon="6.85649">
        <time>2023-04-10T11:41:43+00:00</time>
        <ele>1876.0</ele>
      </trkpt>
      <trkpt lat="44.3225" lon="6.85646">
        <time>2023-04-10T11:41:44+00:00</time>
        <ele>1876.0</ele>
      </trkpt>
      <trkpt lat="44.3225" lon="6.85646">
        <time>2023-04-10T11:41:45+00:00</time>
        <ele>1876.0</ele>
      </trkpt>
      <trkpt lat="44.3225" lon="6.85646">
        <time>2023-04-10T11:41:46+00:00</time>
        <ele>1876.0</ele>
      </trkpt>
      <trkpt lat="44.32252" lon="6.85644">
        <time>2023-04-10T11:41:47+00:00</time>
        <ele>1876.0</ele>
      </trkpt>
      <trkpt lat="44.32252" lon="6.85644">
        <time>2023-04-10T11:41:48+00:00</time>
        <ele>1876.0</ele>
      </trkpt>
      <trkpt lat="44.32252" lon="6.85644">
        <time>2023-04-10T11:41:49+00:00</time>
        <ele>1876.0</ele>
      </trkpt>
      <trkpt lat="44.32254" lon="6.85643">
        <time>2023-04-10T11:41:50+00:00</time>
        <ele>1875.0</ele>
      </trkpt>
      <trkpt lat="44.32254" lon="6.85643">
        <time>2023-04-10T11:41:51+00:00</time>
        <ele>1875.0</ele>
      </trkpt>
      <trkpt lat="44.32256" lon="6.85643">
        <time>2023-04-10T11:41:52+00:00</time>
        <ele>1875.0</ele>
      </trkpt>
      <trkpt lat="44.32256" lon="6.85643">
        <time>2023-04-10T11:41:53+00:00</time>
        <ele>1875.0</ele>
      </trkpt>
      <trkpt lat="44.32258" lon="6.85643">
        <time>2023-04-10T11:41:54+00:00</time>
        <ele>1875.0</ele>
      </trkpt>
      <trkpt lat="44.32258" lon="6.85643">
        <time>2023-04-10T11:41:55+00:00</time>
        <ele>1875.0</ele>
      </trkpt>
      <trkpt lat="44.32258" lon="6.85643">
        <time>2023-04-10T11:41:56+00:00</time>
        <ele>1875.0</ele>
      </trkpt>
      <trkpt lat="44.32261" lon="6.85645">
        <time>2023-04-10T11:41:57+00:00</time>
        <ele>1874.0</ele>
      </trkpt>
      <trkpt lat="44.32261" lon="6.85645">
        <time>2023-04-10T11:41:58+00:00</time>
        <ele>1874.0</ele>
      </trkpt>
      <trkpt lat="44.32262" lon="6.85647">
        <time>2023-04-10T11:41:59+00:00</time>
        <ele>1873.0</ele>
      </trkpt>
      <trkpt lat="44.32262" lon="6.85647">
        <time>2023-04-10T11:42:00+00:00</time>
        <ele>1873.0</ele>
      </trkpt>
      <trkpt lat="44.32263" lon="6.85651">
        <time>2023-04-10T11:42:01+00:00</time>
        <ele>1873.0</ele>
      </trkpt>
      <trkpt lat="44.32263" lon="6.85651">
        <time>2023-04-10T11:42:02+00:00</time>
        <ele>1873.0</ele>
      </trkpt>
      <trkpt lat="44.32264" lon="6.85654">
        <time>2023-04-10T11:42:03+00:00</time>
        <ele>1872.0</ele>
      </trkpt>
      <trkpt lat="44.32264" lon="6.85654">
        <time>2023-04-10T11:42:04+00:00</time>
        <ele>1872.0</ele>
      </trkpt>
      <trkpt lat="44.32266" lon="6.85657">
        <time>2023-04-10T11:42:05+00:00</time>
        <ele>1871.0</ele>
      </trkpt>
      <trkpt lat="44.32266" lon="6.85657">
        <time>2023-04-10T11:42:06+00:00</time>
        <ele>1871.0</ele>
      </trkpt>
      <trkpt lat="44.32266" lon="6.8566">
        <time>2023-04-10T11:42:07+00:00</time>
        <ele>1871.0</ele>
      </trkpt>
      <trkpt lat="44.32266" lon="6.8566">
        <time>2023-04-10T11:42:08+00:00</time>
        <ele>1871.0</ele>
      </trkpt>
      <trkpt lat="44.32266" lon="6.85663">
        <time>2023-04-10T11:42:09+00:00</time>
        <ele>1871.0</ele>
      </trkpt>
      <trkpt lat="44.32266" lon="6.85663">
        <time>2023-04-10T11:42:10+00:00</time>
        <ele>1871.0</ele>
      </trkpt>
      <trkpt lat="44.32267" lon="6.85666">
        <time>2023-04-10T11:42:11+00:00</time>
        <ele>1870.0</ele>
      </trkpt>
      <trkpt lat="44.32267" lon="6.85666">
        <time>2023-04-10T11:42:12+00:00</time>
        <ele>1870.0</ele>
      </trkpt>
      <trkpt lat="44.32266" lon="6.85669">
        <time>2023-04-10T11:42:13+00:00</time>
        <ele>1870.0</ele>
      </trkpt>
      <trkpt lat="44.32266" lon="6.85669">
        <time>2023-04-10T11:42:14+00:00</time>
        <ele>1870.0</ele>
      </trkpt>
      <trkpt lat="44.32267" lon="6.85673">
        <time>2023-04-10T11:42:15+00:00</time>
        <ele>1869.0</ele>
      </trkpt>
      <trkpt lat="44.32267" lon="6.85673">
        <time>2023-04-10T11:42:16+00:00</time>
        <ele>1869.0</ele>
      </trkpt>
      <trkpt lat="44.32266" lon="6.85676">
        <time>2023-04-10T11:42:17+00:00</time>
        <ele>1869.0</ele>
      </trkpt>
      <trkpt lat="44.32266" lon="6.85676">
        <time>2023-04-10T11:42:18+00:00</time>
        <ele>1869.0</ele>
      </trkpt>
      <trkpt lat="44.32266" lon="6.85679">
        <time>2023-04-10T11:42:19+00:00</time>
        <ele>1869.0</ele>
      </trkpt>
      <trkpt lat="44.32267" lon="6.85682">
        <time>2023-04-10T11:42:20+00:00</time>
        <ele>1868.0</ele>
      </trkpt>
      <trkpt lat="44.32268" lon="6.85684">
        <time>2023-04-10T11:42:21+00:00</time>
        <ele>1867.0</ele>
      </trkpt>
      <trkpt lat="44.32268" lon="6.85684">
        <time>2023-04-10T11:42:22+00:00</time>
        <ele>1867.0</ele>
      </trkpt>
      <trkpt lat="44.32266" lon="6.85687">
        <time>2023-04-10T11:42:23+00:00</time>
        <ele>1868.0</ele>
      </trkpt>
      <trkpt lat="44.32266" lon="6.85687">
        <time>2023-04-10T11:42:24+00:00</time>
        <ele>1868.0</ele>
      </trkpt>
      <trkpt lat="44.32266" lon="6.85687">
        <time>2023-04-10T11:42:25+00:00</time>
        <ele>1868.0</ele>
      </trkpt>
      <trkpt lat="44.32266" lon="6.85687">
        <time>2023-04-10T11:42:26+00:00</time>
        <ele>1868.0</ele>
      </trkpt>
      <trkpt lat="44.32266" lon="6.85691">
        <time>2023-04-10T11:42:27+00:00</time>
        <ele>1867.0</ele>
      </trkpt>
      <trkpt lat="44.32266" lon="6.85691">
        <time>2023-04-10T11:42:28+00:00</time>
        <ele>1867.0</ele>
      </trkpt>
      <trkpt lat="44.32266" lon="6.85691">
        <time>2023-04-10T11:42:29+00:00</time>
        <ele>1867.0</ele>
      </trkpt>
      <trkpt lat="44.32266" lon="6.85694">
        <time>2023-04-10T11:42:30+00:00</time>
        <ele>1867.0</ele>
      </trkpt>
      <trkpt lat="44.32266" lon="6.85694">
        <time>2023-04-10T11:42:31+00:00</time>
        <ele>1867.0</ele>
      </trkpt>
      <trkpt lat="44.32265" lon="6.85698">
        <time>2023-04-10T11:42:32+00:00</time>
        <ele>1867.0</ele>
      </trkpt>
      <trkpt lat="44.32265" lon="6.85698">
        <time>2023-04-10T11:42:33+00:00</time>
        <ele>1867.0</ele>
      </trkpt>
      <trkpt lat="44.32265" lon="6.857">
        <time>2023-04-10T11:42:34+00:00</time>
        <ele>1866.0</ele>
      </trkpt>
      <trkpt lat="44.32265" lon="6.857">
        <time>2023-04-10T11:42:35+00:00</time>
        <ele>1866.0</ele>
      </trkpt>
      <trkpt lat="44.32264" lon="6.85704">
        <time>2023-04-10T11:42:36+00:00</time>
        <ele>1866.0</ele>
      </trkpt>
      <trkpt lat="44.32264" lon="6.85704">
        <time>2023-04-10T11:42:37+00:00</time>
        <ele>1866.0</ele>
      </trkpt>
      <trkpt lat="44.32264" lon="6.85707">
        <time>2023-04-10T11:42:38+00:00</time>
        <ele>1866.0</ele>
      </trkpt>
      <trkpt lat="44.32264" lon="6.85707">
        <time>2023-04-10T11:42:39+00:00</time>
        <ele>1866.0</ele>
      </trkpt>
      <trkpt lat="44.32265" lon="6.8571">
        <time>2023-04-10T11:42:40+00:00</time>
        <ele>1865.0</ele>
      </trkpt>
      <trkpt lat="44.32265" lon="6.8571">
        <time>2023-04-10T11:42:41+00:00</time>
        <ele>1865.0</ele>
      </trkpt>
      <trkpt lat="44.32265" lon="6.8571">
        <time>2023-04-10T11:42:42+00:00</time>
        <ele>1865.0</ele>
      </trkpt>
      <trkpt lat="44.32265" lon="6.85713">
        <time>2023-04-10T11:42:43+00:00</time>
        <ele>1865.0</ele>
      </trkpt>
      <trkpt lat="44.32265" lon="6.85713">
        <time>2023-04-10T11:42:44+00:00</time>
        <ele>1865.0</ele>
      </trkpt>
      <trkpt lat="44.32265" lon="6.85713">
        <time>2023-04-10T11:42:45+00:00</time>
        <ele>1865.0</ele>
      </trkpt>
      <trkpt lat="44.32265" lon="6.85713">
        <time>2023-04-10T11:42:46+00:00</time>
        <ele>1865.0</ele>
      </trkpt>
      <trkpt lat="44.32263" lon="6.85715">
        <time>2023-04-10T11:42:47+00:00</time>
        <ele>1865.0</ele>
      </trkpt>
      <trkpt lat="44.32263" lon="6.85715">
        <time>2023-04-10T11:42:48+00:00</time>
        <ele>1865.0</ele>
      </trkpt>
      <trkpt lat="44.32263" lon="6.85715">
        <time>2023-04-10T11:42:49+00:00</time>
        <ele>1865.0</ele>
      </trkpt>
      <trkpt lat="44.32264" lon="6.85718">
        <time>2023-04-10T11:42:50+00:00</time>
        <ele>1864.0</ele>
      </trkpt>
      <trkpt lat="44.32264" lon="6.85718">
        <time>2023-04-10T11:42:51+00:00</time>
        <ele>1864.0</ele>
      </trkpt>
      <trkpt lat="44.32264" lon="6.85721">
        <time>2023-04-10T11:42:52+00:00</time>
        <ele>1864.0</ele>
      </trkpt>
      <trkpt lat="44.32264" lon="6.85721">
        <time>2023-04-10T11:42:53+00:00</time>
        <ele>1864.0</ele>
      </trkpt>
      <trkpt lat="44.32264" lon="6.85724">
        <time>2023-04-10T11:42:54+00:00</time>
        <ele>1863.0</ele>
      </trkpt>
      <trkpt lat="44.32264" lon="6.85724">
        <time>2023-04-10T11:42:55+00:00</time>
        <ele>1863.0</ele>
      </trkpt>
      <trkpt lat="44.32264" lon="6.85727">
        <time>2023-04-10T11:42:56+00:00</time>
        <ele>1863.0</ele>
      </trkpt>
      <trkpt lat="44.32264" lon="6.85727">
        <time>2023-04-10T11:42:57+00:00</time>
        <ele>1863.0</ele>
      </trkpt>
      <trkpt lat="44.32264" lon="6.8573">
        <time>2023-04-10T11:42:58+00:00</time>
        <ele>1862.0</ele>
      </trkpt>
      <trkpt lat="44.32264" lon="6.8573">
        <time>2023-04-10T11:42:59+00:00</time>
        <ele>1862.0</ele>
      </trkpt>
      <trkpt lat="44.32263" lon="6.85734">
        <time>2023-04-10T11:43:00+00:00</time>
        <ele>1862.0</ele>
      </trkpt>
      <trkpt lat="44.32264" lon="6.85737">
        <time>2023-04-10T11:43:01+00:00</time>
        <ele>1861.0</ele>
      </trkpt>
      <trkpt lat="44.32265" lon="6.85741">
        <time>2023-04-10T11:43:02+00:00</time>
        <ele>1860.0</ele>
      </trkpt>
      <trkpt lat="44.32266" lon="6.85744">
        <time>2023-04-10T11:43:03+00:00</time>
        <ele>1859.0</ele>
      </trkpt>
      <trkpt lat="44.32266" lon="6.85744">
        <time>2023-04-10T11:43:04+00:00</time>
        <ele>1859.0</ele>
      </trkpt>
      <trkpt lat="44.32266" lon="6.85748">
        <time>2023-04-10T11:43:05+00:00</time>
        <ele>1859.0</ele>
      </trkpt>
      <trkpt lat="44.32266" lon="6.85748">
        <time>2023-04-10T11:43:06+00:00</time>
        <ele>1859.0</ele>
      </trkpt>
      <trkpt lat="44.32267" lon="6.85751">
        <time>2023-04-10T11:43:07+00:00</time>
        <ele>1858.0</ele>
      </trkpt>
      <trkpt lat="44.32267" lon="6.85751">
        <time>2023-04-10T11:43:08+00:00</time>
        <ele>1858.0</ele>
      </trkpt>
      <trkpt lat="44.32267" lon="6.85751">
        <time>2023-04-10T11:43:09+00:00</time>
        <ele>1858.0</ele>
      </trkpt>
      <trkpt lat="44.32267" lon="6.85751">
        <time>2023-04-10T11:43:10+00:00</time>
        <ele>1858.0</ele>
      </trkpt>
      <trkpt lat="44.32267" lon="6.85751">
        <time>2023-04-10T11:43:11+00:00</time>
        <ele>1858.0</ele>
      </trkpt>
      <trkpt lat="44.32267" lon="6.85751">
        <time>2023-04-10T11:43:12+00:00</time>
        <ele>1858.0</ele>
      </trkpt>
      <trkpt lat="44.32266" lon="6.85755">
        <time>2023-04-10T11:43:13+00:00</time>
        <ele>1857.0</ele>
      </trkpt>
      <trkpt lat="44.32266" lon="6.85755">
        <time>2023-04-10T11:43:14+00:00</time>
        <ele>1857.0</ele>
      </trkpt>
      <trkpt lat="44.32265" lon="6.85757">
        <time>2023-04-10T11:43:15+00:00</time>
        <ele>1857.0</ele>
      </trkpt>
      <trkpt lat="44.32265" lon="6.85757">
        <time>2023-04-10T11:43:16+00:00</time>
        <ele>1857.0</ele>
      </trkpt>
      <trkpt lat="44.32265" lon="6.85757">
        <time>2023-04-10T11:43:17+00:00</time>
        <ele>1857.0</ele>
      </trkpt>
      <trkpt lat="44.32268" lon="6.85759">
        <time>2023-04-10T11:43:18+00:00</time>
        <ele>1857.0</ele>
      </trkpt>
      <trkpt lat="44.32268" lon="6.85759">
        <time>2023-04-10T11:43:19+00:00</time>
        <ele>1857.0</ele>
      </trkpt>
      <trkpt lat="44.32268" lon="6.85759">
        <time>2023-04-10T11:43:20+00:00</time>
        <ele>1857.0</ele>
      </trkpt>
      <trkpt lat="44.32268" lon="6.85759">
        <time>2023-04-10T11:43:21+00:00</time>
        <ele>1857.0</ele>
      </trkpt>
      <trkpt lat="44.32268" lon="6.85759">
        <time>2023-04-10T11:43:22+00:00</time>
        <ele>1857.0</ele>
      </trkpt>
      <trkpt lat="44.32269" lon="6.85761">
        <time>2023-04-10T11:43:23+00:00</time>
        <ele>1857.0</ele>
      </trkpt>
      <trkpt lat="44.32269" lon="6.85761">
        <time>2023-04-10T11:43:24+00:00</time>
        <ele>1857.0</ele>
      </trkpt>
      <trkpt lat="44.32269" lon="6.85761">
        <time>2023-04-10T11:43:25+00:00</time>
        <ele>1857.0</ele>
      </trkpt>
      <trkpt lat="44.32269" lon="6.85761">
        <time>2023-04-10T11:43:26+00:00</time>
        <ele>1857.0</ele>
      </trkpt>
      <trkpt lat="44.32269" lon="6.85764">
        <time>2023-04-10T11:43:27+00:00</time>
        <ele>1857.0</ele>
      </trkpt>
      <trkpt lat="44.32269" lon="6.85764">
        <time>2023-04-10T11:43:28+00:00</time>
        <ele>1857.0</ele>
      </trkpt>
      <trkpt lat="44.32271" lon="6.85765">
        <time>2023-04-10T11:43:29+00:00</time>
        <ele>1857.0</ele>
      </trkpt>
      <trkpt lat="44.32271" lon="6.85765">
        <time>2023-04-10T11:43:30+00:00</time>
        <ele>1857.0</ele>
      </trkpt>
      <trkpt lat="44.32273" lon="6.85767">
        <time>2023-04-10T11:43:31+00:00</time>
        <ele>1857.0</ele>
      </trkpt>
      <trkpt lat="44.32273" lon="6.85767">
        <time>2023-04-10T11:43:32+00:00</time>
        <ele>1857.0</ele>
      </trkpt>
      <trkpt lat="44.32274" lon="6.85768">
        <time>2023-04-10T11:43:33+00:00</time>
        <ele>1857.0</ele>
      </trkpt>
      <trkpt lat="44.32274" lon="6.85768">
        <time>2023-04-10T11:43:34+00:00</time>
        <ele>1857.0</ele>
      </trkpt>
      <trkpt lat="44.32276" lon="6.8577">
        <time>2023-04-10T11:43:35+00:00</time>
        <ele>1858.0</ele>
      </trkpt>
      <trkpt lat="44.32276" lon="6.8577">
        <time>2023-04-10T11:43:36+00:00</time>
        <ele>1858.0</ele>
      </trkpt>
      <trkpt lat="44.32278" lon="6.85772">
        <time>2023-04-10T11:43:37+00:00</time>
        <ele>1858.0</ele>
      </trkpt>
      <trkpt lat="44.32278" lon="6.85772">
        <time>2023-04-10T11:43:38+00:00</time>
        <ele>1858.0</ele>
      </trkpt>
      <trkpt lat="44.3228" lon="6.85776">
        <time>2023-04-10T11:43:39+00:00</time>
        <ele>1859.0</ele>
      </trkpt>
      <trkpt lat="44.3228" lon="6.85776">
        <time>2023-04-10T11:43:40+00:00</time>
        <ele>1859.0</ele>
      </trkpt>
      <trkpt lat="44.3228" lon="6.85779">
        <time>2023-04-10T11:43:41+00:00</time>
        <ele>1859.0</ele>
      </trkpt>
      <trkpt lat="44.3228" lon="6.85779">
        <time>2023-04-10T11:43:42+00:00</time>
        <ele>1859.0</ele>
      </trkpt>
      <trkpt lat="44.3228" lon="6.85783">
        <time>2023-04-10T11:43:43+00:00</time>
        <ele>1860.0</ele>
      </trkpt>
      <trkpt lat="44.3228" lon="6.85783">
        <time>2023-04-10T11:43:44+00:00</time>
        <ele>1860.0</ele>
      </trkpt>
      <trkpt lat="44.3228" lon="6.85785">
        <time>2023-04-10T11:43:45+00:00</time>
        <ele>1860.0</ele>
      </trkpt>
      <trkpt lat="44.3228" lon="6.85785">
        <time>2023-04-10T11:43:46+00:00</time>
        <ele>1860.0</ele>
      </trkpt>
      <trkpt lat="44.32281" lon="6.85789">
        <time>2023-04-10T11:43:47+00:00</time>
        <ele>1861.0</ele>
      </trkpt>
      <trkpt lat="44.32281" lon="6.85789">
        <time>2023-04-10T11:43:48+00:00</time>
        <ele>1861.0</ele>
      </trkpt>
      <trkpt lat="44.3228" lon="6.85791">
        <time>2023-04-10T11:43:49+00:00</time>
        <ele>1860.0</ele>
      </trkpt>
      <trkpt lat="44.3228" lon="6.85791">
        <time>2023-04-10T11:43:50+00:00</time>
        <ele>1860.0</ele>
      </trkpt>
      <trkpt lat="44.32281" lon="6.85795">
        <time>2023-04-10T11:43:51+00:00</time>
        <ele>1861.0</ele>
      </trkpt>
      <trkpt lat="44.32281" lon="6.85795">
        <time>2023-04-10T11:43:52+00:00</time>
        <ele>1861.0</ele>
      </trkpt>
      <trkpt lat="44.32281" lon="6.85795">
        <time>2023-04-10T11:43:53+00:00</time>
        <ele>1861.0</ele>
      </trkpt>
      <trkpt lat="44.3228" lon="6.85798">
        <time>2023-04-10T11:43:54+00:00</time>
        <ele>1862.0</ele>
      </trkpt>
      <trkpt lat="44.3228" lon="6.85798">
        <time>2023-04-10T11:43:55+00:00</time>
        <ele>1862.0</ele>
      </trkpt>
      <trkpt lat="44.32279" lon="6.85801">
        <time>2023-04-10T11:43:56+00:00</time>
        <ele>1862.0</ele>
      </trkpt>
      <trkpt lat="44.32279" lon="6.85801">
        <time>2023-04-10T11:43:57+00:00</time>
        <ele>1862.0</ele>
      </trkpt>
      <trkpt lat="44.32278" lon="6.85804">
        <time>2023-04-10T11:43:58+00:00</time>
        <ele>1862.0</ele>
      </trkpt>
      <trkpt lat="44.32278" lon="6.85804">
        <time>2023-04-10T11:43:59+00:00</time>
        <ele>1862.0</ele>
      </trkpt>
      <trkpt lat="44.32278" lon="6.85807">
        <time>2023-04-10T11:44:00+00:00</time>
        <ele>1862.0</ele>
      </trkpt>
      <trkpt lat="44.32278" lon="6.85807">
        <time>2023-04-10T11:44:01+00:00</time>
        <ele>1862.0</ele>
      </trkpt>
      <trkpt lat="44.32278" lon="6.8581">
        <time>2023-04-10T11:44:02+00:00</time>
        <ele>1862.0</ele>
      </trkpt>
      <trkpt lat="44.32278" lon="6.8581">
        <time>2023-04-10T11:44:03+00:00</time>
        <ele>1862.0</ele>
      </trkpt>
      <trkpt lat="44.32278" lon="6.85812">
        <time>2023-04-10T11:44:04+00:00</time>
        <ele>1863.0</ele>
      </trkpt>
      <trkpt lat="44.32278" lon="6.85812">
        <time>2023-04-10T11:44:05+00:00</time>
        <ele>1863.0</ele>
      </trkpt>
      <trkpt lat="44.32277" lon="6.85815">
        <time>2023-04-10T11:44:06+00:00</time>
        <ele>1863.0</ele>
      </trkpt>
      <trkpt lat="44.32277" lon="6.85815">
        <time>2023-04-10T11:44:07+00:00</time>
        <ele>1863.0</ele>
      </trkpt>
      <trkpt lat="44.32276" lon="6.85817">
        <time>2023-04-10T11:44:08+00:00</time>
        <ele>1863.0</ele>
      </trkpt>
      <trkpt lat="44.32276" lon="6.85817">
        <time>2023-04-10T11:44:09+00:00</time>
        <ele>1863.0</ele>
      </trkpt>
      <trkpt lat="44.32276" lon="6.85817">
        <time>2023-04-10T11:44:10+00:00</time>
        <ele>1863.0</ele>
      </trkpt>
      <trkpt lat="44.32276" lon="6.85821">
        <time>2023-04-10T11:44:11+00:00</time>
        <ele>1863.0</ele>
      </trkpt>
      <trkpt lat="44.32276" lon="6.85821">
        <time>2023-04-10T11:44:12+00:00</time>
        <ele>1863.0</ele>
      </trkpt>
      <trkpt lat="44.32276" lon="6.85821">
        <time>2023-04-10T11:44:13+00:00</time>
        <ele>1863.0</ele>
      </trkpt>
      <trkpt lat="44.32274" lon="6.85824">
        <time>2023-04-10T11:44:14+00:00</time>
        <ele>1863.0</ele>
      </trkpt>
      <trkpt lat="44.32274" lon="6.85824">
        <time>2023-04-10T11:44:15+00:00</time>
        <ele>1863.0</ele>
      </trkpt>
      <trkpt lat="44.32273" lon="6.85827">
        <time>2023-04-10T11:44:16+00:00</time>
        <ele>1863.0</ele>
      </trkpt>
      <trkpt lat="44.32273" lon="6.85827">
        <time>2023-04-10T11:44:17+00:00</time>
        <ele>1863.0</ele>
      </trkpt>
      <trkpt lat="44.32272" lon="6.8583">
        <time>2023-04-10T11:44:18+00:00</time>
        <ele>1863.0</ele>
      </trkpt>
      <trkpt lat="44.32272" lon="6.8583">
        <time>2023-04-10T11:44:19+00:00</time>
        <ele>1863.0</ele>
      </trkpt>
      <trkpt lat="44.32272" lon="6.8583">
        <time>2023-04-10T11:44:20+00:00</time>
        <ele>1863.0</ele>
      </trkpt>
      <trkpt lat="44.32271" lon="6.85833">
        <time>2023-04-10T11:44:21+00:00</time>
        <ele>1863.0</ele>
      </trkpt>
      <trkpt lat="44.32271" lon="6.85833">
        <time>2023-04-10T11:44:22+00:00</time>
        <ele>1863.0</ele>
      </trkpt>
      <trkpt lat="44.32271" lon="6.85833">
        <time>2023-04-10T11:44:23+00:00</time>
        <ele>1863.0</ele>
      </trkpt>
      <trkpt lat="44.3227" lon="6.85837">
        <time>2023-04-10T11:44:24+00:00</time>
        <ele>1863.0</ele>
      </trkpt>
      <trkpt lat="44.3227" lon="6.85837">
        <time>2023-04-10T11:44:25+00:00</time>
        <ele>1863.0</ele>
      </trkpt>
      <trkpt lat="44.32269" lon="6.85839">
        <time>2023-04-10T11:44:26+00:00</time>
        <ele>1863.0</ele>
      </trkpt>
      <trkpt lat="44.32269" lon="6.85839">
        <time>2023-04-10T11:44:27+00:00</time>
        <ele>1863.0</ele>
      </trkpt>
      <trkpt lat="44.32269" lon="6.85842">
        <time>2023-04-10T11:44:28+00:00</time>
        <ele>1863.0</ele>
      </trkpt>
      <trkpt lat="44.32269" lon="6.85842">
        <time>2023-04-10T11:44:29+00:00</time>
        <ele>1863.0</ele>
      </trkpt>
      <trkpt lat="44.32268" lon="6.85844">
        <time>2023-04-10T11:44:30+00:00</time>
        <ele>1863.0</ele>
      </trkpt>
      <trkpt lat="44.32268" lon="6.85844">
        <time>2023-04-10T11:44:31+00:00</time>
        <ele>1863.0</ele>
      </trkpt>
      <trkpt lat="44.32267" lon="6.85847">
        <time>2023-04-10T11:44:32+00:00</time>
        <ele>1863.0</ele>
      </trkpt>
      <trkpt lat="44.32267" lon="6.85847">
        <time>2023-04-10T11:44:33+00:00</time>
        <ele>1863.0</ele>
      </trkpt>
      <trkpt lat="44.32266" lon="6.85849">
        <time>2023-04-10T11:44:34+00:00</time>
        <ele>1863.0</ele>
      </trkpt>
      <trkpt lat="44.32266" lon="6.85849">
        <time>2023-04-10T11:44:35+00:00</time>
        <ele>1863.0</ele>
      </trkpt>
      <trkpt lat="44.32265" lon="6.85852">
        <time>2023-04-10T11:44:36+00:00</time>
        <ele>1863.0</ele>
      </trkpt>
      <trkpt lat="44.32265" lon="6.85852">
        <time>2023-04-10T11:44:37+00:00</time>
        <ele>1863.0</ele>
      </trkpt>
      <trkpt lat="44.32264" lon="6.85855">
        <time>2023-04-10T11:44:38+00:00</time>
        <ele>1863.0</ele>
      </trkpt>
      <trkpt lat="44.32264" lon="6.85855">
        <time>2023-04-10T11:44:39+00:00</time>
        <ele>1863.0</ele>
      </trkpt>
      <trkpt lat="44.32263" lon="6.85857">
        <time>2023-04-10T11:44:40+00:00</time>
        <ele>1863.0</ele>
      </trkpt>
      <trkpt lat="44.32263" lon="6.85857">
        <time>2023-04-10T11:44:41+00:00</time>
        <ele>1863.0</ele>
      </trkpt>
      <trkpt lat="44.32262" lon="6.8586">
        <time>2023-04-10T11:44:42+00:00</time>
        <ele>1862.0</ele>
      </trkpt>
      <trkpt lat="44.32262" lon="6.8586">
        <time>2023-04-10T11:44:43+00:00</time>
        <ele>1862.0</ele>
      </trkpt>
      <trkpt lat="44.32261" lon="6.85862">
        <time>2023-04-10T11:44:44+00:00</time>
        <ele>1862.0</ele>
      </trkpt>
      <trkpt lat="44.32261" lon="6.85862">
        <time>2023-04-10T11:44:45+00:00</time>
        <ele>1862.0</ele>
      </trkpt>
      <trkpt lat="44.32259" lon="6.85864">
        <time>2023-04-10T11:44:46+00:00</time>
        <ele>1862.0</ele>
      </trkpt>
      <trkpt lat="44.32259" lon="6.85864">
        <time>2023-04-10T11:44:47+00:00</time>
        <ele>1862.0</ele>
      </trkpt>
      <trkpt lat="44.32259" lon="6.85864">
        <time>2023-04-10T11:44:48+00:00</time>
        <ele>1862.0</ele>
      </trkpt>
      <trkpt lat="44.32258" lon="6.85867">
        <time>2023-04-10T11:44:49+00:00</time>
        <ele>1862.0</ele>
      </trkpt>
      <trkpt lat="44.32258" lon="6.85867">
        <time>2023-04-10T11:44:50+00:00</time>
        <ele>1862.0</ele>
      </trkpt>
      <trkpt lat="44.32256" lon="6.85869">
        <time>2023-04-10T11:44:51+00:00</time>
        <ele>1861.0</ele>
      </trkpt>
      <trkpt lat="44.32256" lon="6.85869">
        <time>2023-04-10T11:44:52+00:00</time>
        <ele>1861.0</ele>
      </trkpt>
      <trkpt lat="44.32255" lon="6.85871">
        <time>2023-04-10T11:44:53+00:00</time>
        <ele>1861.0</ele>
      </trkpt>
      <trkpt lat="44.32255" lon="6.85871">
        <time>2023-04-10T11:44:54+00:00</time>
        <ele>1861.0</ele>
      </trkpt>
      <trkpt lat="44.32254" lon="6.85874">
        <time>2023-04-10T11:44:55+00:00</time>
        <ele>1861.0</ele>
      </trkpt>
      <trkpt lat="44.32254" lon="6.85874">
        <time>2023-04-10T11:44:56+00:00</time>
        <ele>1861.0</ele>
      </trkpt>
      <trkpt lat="44.32254" lon="6.85874">
        <time>2023-04-10T11:44:57+00:00</time>
        <ele>1861.0</ele>
      </trkpt>
      <trkpt lat="44.32253" lon="6.85878">
        <time>2023-04-10T11:44:58+00:00</time>
        <ele>1862.0</ele>
      </trkpt>
      <trkpt lat="44.32253" lon="6.85878">
        <time>2023-04-10T11:44:59+00:00</time>
        <ele>1862.0</ele>
      </trkpt>
      <trkpt lat="44.32252" lon="6.8588">
        <time>2023-04-10T11:45:00+00:00</time>
        <ele>1861.0</ele>
      </trkpt>
      <trkpt lat="44.32252" lon="6.8588">
        <time>2023-04-10T11:45:01+00:00</time>
        <ele>1861.0</ele>
      </trkpt>
      <trkpt lat="44.32251" lon="6.85883">
        <time>2023-04-10T11:45:02+00:00</time>
        <ele>1861.0</ele>
      </trkpt>
      <trkpt lat="44.32251" lon="6.85883">
        <time>2023-04-10T11:45:03+00:00</time>
        <ele>1861.0</ele>
      </trkpt>
      <trkpt lat="44.32251" lon="6.85885">
        <time>2023-04-10T11:45:04+00:00</time>
        <ele>1862.0</ele>
      </trkpt>
      <trkpt lat="44.32251" lon="6.85885">
        <time>2023-04-10T11:45:05+00:00</time>
        <ele>1862.0</ele>
      </trkpt>
      <trkpt lat="44.3225" lon="6.85888">
        <time>2023-04-10T11:45:06+00:00</time>
        <ele>1862.0</ele>
      </trkpt>
      <trkpt lat="44.3225" lon="6.85888">
        <time>2023-04-10T11:45:07+00:00</time>
        <ele>1862.0</ele>
      </trkpt>
      <trkpt lat="44.3225" lon="6.85891">
        <time>2023-04-10T11:45:08+00:00</time>
        <ele>1862.0</ele>
      </trkpt>
      <trkpt lat="44.3225" lon="6.85891">
        <time>2023-04-10T11:45:09+00:00</time>
        <ele>1862.0</ele>
      </trkpt>
      <trkpt lat="44.32249" lon="6.85894">
        <time>2023-04-10T11:45:10+00:00</time>
        <ele>1862.0</ele>
      </trkpt>
      <trkpt lat="44.32249" lon="6.85894">
        <time>2023-04-10T11:45:11+00:00</time>
        <ele>1862.0</ele>
      </trkpt>
      <trkpt lat="44.32249" lon="6.85897">
        <time>2023-04-10T11:45:12+00:00</time>
        <ele>1862.0</ele>
      </trkpt>
      <trkpt lat="44.32249" lon="6.85897">
        <time>2023-04-10T11:45:13+00:00</time>
        <ele>1862.0</ele>
      </trkpt>
      <trkpt lat="44.32249" lon="6.859">
        <time>2023-04-10T11:45:14+00:00</time>
        <ele>1863.0</ele>
      </trkpt>
      <trkpt lat="44.32249" lon="6.859">
        <time>2023-04-10T11:45:15+00:00</time>
        <ele>1863.0</ele>
      </trkpt>
      <trkpt lat="44.32249" lon="6.859">
        <time>2023-04-10T11:45:16+00:00</time>
        <ele>1863.0</ele>
      </trkpt>
      <trkpt lat="44.32248" lon="6.85904">
        <time>2023-04-10T11:45:17+00:00</time>
        <ele>1863.0</ele>
      </trkpt>
      <trkpt lat="44.32248" lon="6.85904">
        <time>2023-04-10T11:45:18+00:00</time>
        <ele>1863.0</ele>
      </trkpt>
      <trkpt lat="44.32248" lon="6.85904">
        <time>2023-04-10T11:45:19+00:00</time>
        <ele>1863.0</ele>
      </trkpt>
      <trkpt lat="44.32248" lon="6.85904">
        <time>2023-04-10T11:45:20+00:00</time>
        <ele>1863.0</ele>
      </trkpt>
      <trkpt lat="44.32248" lon="6.85904">
        <time>2023-04-10T11:45:21+00:00</time>
        <ele>1863.0</ele>
      </trkpt>
      <trkpt lat="44.32248" lon="6.85904">
        <time>2023-04-10T11:45:22+00:00</time>
        <ele>1863.0</ele>
      </trkpt>
      <trkpt lat="44.32248" lon="6.85904">
        <time>2023-04-10T11:45:23+00:00</time>
        <ele>1863.0</ele>
      </trkpt>
      <trkpt lat="44.32248" lon="6.85904">
        <time>2023-04-10T11:45:24+00:00</time>
        <ele>1863.0</ele>
      </trkpt>
      <trkpt lat="44.32248" lon="6.85904">
        <time>2023-04-10T11:45:25+00:00</time>
        <ele>1863.0</ele>
      </trkpt>
      <trkpt lat="44.32248" lon="6.85904">
        <time>2023-04-10T11:45:26+00:00</time>
        <ele>1863.0</ele>
      </trkpt>
      <trkpt lat="44.32248" lon="6.85904">
        <time>2023-04-10T11:45:27+00:00</time>
        <ele>1863.0</ele>
      </trkpt>
      <trkpt lat="44.32248" lon="6.85904">
        <time>2023-04-10T11:45:28+00:00</time>
        <ele>1863.0</ele>
      </trkpt>
      <trkpt lat="44.32248" lon="6.85904">
        <time>2023-04-10T11:45:29+00:00</time>
        <ele>1863.0</ele>
      </trkpt>
      <trkpt lat="44.32248" lon="6.85904">
        <time>2023-04-10T11:45:30+00:00</time>
        <ele>1863.0</ele>
      </trkpt>
      <trkpt lat="44.32248" lon="6.85904">
        <time>2023-04-10T11:45:31+00:00</time>
        <ele>1863.0</ele>
      </trkpt>
      <trkpt lat="44.32248" lon="6.85904">
        <time>2023-04-10T11:45:32+00:00</time>
        <ele>1863.0</ele>
      </trkpt>
      <trkpt lat="44.32248" lon="6.85904">
        <time>2023-04-10T11:45:33+00:00</time>
        <ele>1863.0</ele>
      </trkpt>
      <trkpt lat="44.32248" lon="6.85904">
        <time>2023-04-10T11:45:34+00:00</time>
        <ele>1863.0</ele>
      </trkpt>
      <trkpt lat="44.32248" lon="6.85904">
        <time>2023-04-10T11:45:35+00:00</time>
        <ele>1863.0</ele>
      </trkpt>
      <trkpt lat="44.32248" lon="6.85904">
        <time>2023-04-10T11:45:36+00:00</time>
        <ele>1863.0</ele>
      </trkpt>
      <trkpt lat="44.32248" lon="6.85904">
        <time>2023-04-10T11:45:37+00:00</time>
        <ele>1863.0</ele>
      </trkpt>
      <trkpt lat="44.32248" lon="6.85904">
        <time>2023-04-10T11:45:38+00:00</time>
        <ele>1863.0</ele>
      </trkpt>
      <trkpt lat="44.32248" lon="6.85904">
        <time>2023-04-10T11:45:39+00:00</time>
        <ele>1863.0</ele>
      </trkpt>
      <trkpt lat="44.32248" lon="6.85904">
        <time>2023-04-10T11:45:40+00:00</time>
        <ele>1863.0</ele>
      </trkpt>
      <trkpt lat="44.32248" lon="6.85904">
        <time>2023-04-10T11:45:41+00:00</time>
        <ele>1863.0</ele>
      </trkpt>
      <trkpt lat="44.32248" lon="6.85904">
        <time>2023-04-10T11:45:42+00:00</time>
        <ele>1863.0</ele>
      </trkpt>
      <trkpt lat="44.32248" lon="6.85904">
        <time>2023-04-10T11:45:43+00:00</time>
        <ele>1863.0</ele>
      </trkpt>
      <trkpt lat="44.32248" lon="6.85904">
        <time>2023-04-10T11:45:44+00:00</time>
        <ele>1863.0</ele>
      </trkpt>
      <trkpt lat="44.32248" lon="6.85904">
        <time>2023-04-10T11:45:45+00:00</time>
        <ele>1863.0</ele>
      </trkpt>
      <trkpt lat="44.32248" lon="6.85904">
        <time>2023-04-10T11:45:46+00:00</time>
        <ele>1863.0</ele>
      </trkpt>
      <trkpt lat="44.32248" lon="6.85904">
        <time>2023-04-10T11:45:47+00:00</time>
        <ele>1863.0</ele>
      </trkpt>
      <trkpt lat="44.32248" lon="6.85904">
        <time>2023-04-10T11:45:48+00:00</time>
        <ele>1863.0</ele>
      </trkpt>
      <trkpt lat="44.32248" lon="6.85904">
        <time>2023-04-10T11:45:49+00:00</time>
        <ele>1863.0</ele>
      </trkpt>
      <trkpt lat="44.32248" lon="6.85904">
        <time>2023-04-10T11:45:50+00:00</time>
        <ele>1863.0</ele>
      </trkpt>
      <trkpt lat="44.32248" lon="6.85904">
        <time>2023-04-10T11:45:51+00:00</time>
        <ele>1863.0</ele>
      </trkpt>
      <trkpt lat="44.32247" lon="6.85906">
        <time>2023-04-10T11:45:52+00:00</time>
        <ele>1863.0</ele>
      </trkpt>
      <trkpt lat="44.32247" lon="6.85906">
        <time>2023-04-10T11:45:53+00:00</time>
        <ele>1863.0</ele>
      </trkpt>
      <trkpt lat="44.32246" lon="6.8591">
        <time>2023-04-10T11:45:54+00:00</time>
        <ele>1863.0</ele>
      </trkpt>
      <trkpt lat="44.32246" lon="6.8591">
        <time>2023-04-10T11:45:55+00:00</time>
        <ele>1863.0</ele>
      </trkpt>
      <trkpt lat="44.32245" lon="6.85913">
        <time>2023-04-10T11:45:56+00:00</time>
        <ele>1863.0</ele>
      </trkpt>
      <trkpt lat="44.32245" lon="6.85913">
        <time>2023-04-10T11:45:57+00:00</time>
        <ele>1863.0</ele>
      </trkpt>
      <trkpt lat="44.32244" lon="6.85918">
        <time>2023-04-10T11:45:58+00:00</time>
        <ele>1864.0</ele>
      </trkpt>
      <trkpt lat="44.32244" lon="6.85918">
        <time>2023-04-10T11:45:59+00:00</time>
        <ele>1864.0</ele>
      </trkpt>
      <trkpt lat="44.32243" lon="6.85921">
        <time>2023-04-10T11:46:00+00:00</time>
        <ele>1864.0</ele>
      </trkpt>
      <trkpt lat="44.32243" lon="6.85921">
        <time>2023-04-10T11:46:01+00:00</time>
        <ele>1864.0</ele>
      </trkpt>
      <trkpt lat="44.32242" lon="6.85924">
        <time>2023-04-10T11:46:02+00:00</time>
        <ele>1864.0</ele>
      </trkpt>
      <trkpt lat="44.32242" lon="6.85924">
        <time>2023-04-10T11:46:03+00:00</time>
        <ele>1864.0</ele>
      </trkpt>
      <trkpt lat="44.32241" lon="6.85926">
        <time>2023-04-10T11:46:04+00:00</time>
        <ele>1865.0</ele>
      </trkpt>
      <trkpt lat="44.32241" lon="6.85926">
        <time>2023-04-10T11:46:05+00:00</time>
        <ele>1865.0</ele>
      </trkpt>
      <trkpt lat="44.32241" lon="6.85929">
        <time>2023-04-10T11:46:06+00:00</time>
        <ele>1865.0</ele>
      </trkpt>
      <trkpt lat="44.32241" lon="6.85929">
        <time>2023-04-10T11:46:07+00:00</time>
        <ele>1865.0</ele>
      </trkpt>
      <trkpt lat="44.32239" lon="6.85931">
        <time>2023-04-10T11:46:08+00:00</time>
        <ele>1865.0</ele>
      </trkpt>
      <trkpt lat="44.32239" lon="6.85931">
        <time>2023-04-10T11:46:09+00:00</time>
        <ele>1865.0</ele>
      </trkpt>
      <trkpt lat="44.32238" lon="6.85933">
        <time>2023-04-10T11:46:10+00:00</time>
        <ele>1865.0</ele>
      </trkpt>
      <trkpt lat="44.32238" lon="6.85933">
        <time>2023-04-10T11:46:11+00:00</time>
        <ele>1865.0</ele>
      </trkpt>
      <trkpt lat="44.32237" lon="6.85935">
        <time>2023-04-10T11:46:12+00:00</time>
        <ele>1865.0</ele>
      </trkpt>
      <trkpt lat="44.32237" lon="6.85935">
        <time>2023-04-10T11:46:13+00:00</time>
        <ele>1865.0</ele>
      </trkpt>
      <trkpt lat="44.32235" lon="6.85937">
        <time>2023-04-10T11:46:14+00:00</time>
        <ele>1864.0</ele>
      </trkpt>
      <trkpt lat="44.32235" lon="6.85937">
        <time>2023-04-10T11:46:15+00:00</time>
        <ele>1864.0</ele>
      </trkpt>
      <trkpt lat="44.32235" lon="6.85937">
        <time>2023-04-10T11:46:16+00:00</time>
        <ele>1864.0</ele>
      </trkpt>
      <trkpt lat="44.32234" lon="6.8594">
        <time>2023-04-10T11:46:17+00:00</time>
        <ele>1865.0</ele>
      </trkpt>
      <trkpt lat="44.32234" lon="6.8594">
        <time>2023-04-10T11:46:18+00:00</time>
        <ele>1865.0</ele>
      </trkpt>
      <trkpt lat="44.32233" lon="6.85943">
        <time>2023-04-10T11:46:19+00:00</time>
        <ele>1865.0</ele>
      </trkpt>
      <trkpt lat="44.32233" lon="6.85943">
        <time>2023-04-10T11:46:20+00:00</time>
        <ele>1865.0</ele>
      </trkpt>
      <trkpt lat="44.32233" lon="6.85943">
        <time>2023-04-10T11:46:21+00:00</time>
        <ele>1865.0</ele>
      </trkpt>
      <trkpt lat="44.32232" lon="6.85946">
        <time>2023-04-10T11:46:22+00:00</time>
        <ele>1865.0</ele>
      </trkpt>
      <trkpt lat="44.32232" lon="6.85946">
        <time>2023-04-10T11:46:23+00:00</time>
        <ele>1865.0</ele>
      </trkpt>
      <trkpt lat="44.3223" lon="6.85949">
        <time>2023-04-10T11:46:24+00:00</time>
        <ele>1865.0</ele>
      </trkpt>
      <trkpt lat="44.3223" lon="6.85949">
        <time>2023-04-10T11:46:25+00:00</time>
        <ele>1865.0</ele>
      </trkpt>
      <trkpt lat="44.3223" lon="6.85951">
        <time>2023-04-10T11:46:26+00:00</time>
        <ele>1865.0</ele>
      </trkpt>
      <trkpt lat="44.3223" lon="6.85951">
        <time>2023-04-10T11:46:27+00:00</time>
        <ele>1865.0</ele>
      </trkpt>
      <trkpt lat="44.32229" lon="6.85953">
        <time>2023-04-10T11:46:28+00:00</time>
        <ele>1865.0</ele>
      </trkpt>
      <trkpt lat="44.32229" lon="6.85953">
        <time>2023-04-10T11:46:29+00:00</time>
        <ele>1865.0</ele>
      </trkpt>
      <trkpt lat="44.32227" lon="6.85955">
        <time>2023-04-10T11:46:30+00:00</time>
        <ele>1865.0</ele>
      </trkpt>
      <trkpt lat="44.32227" lon="6.85955">
        <time>2023-04-10T11:46:31+00:00</time>
        <ele>1865.0</ele>
      </trkpt>
      <trkpt lat="44.32227" lon="6.85955">
        <time>2023-04-10T11:46:32+00:00</time>
        <ele>1865.0</ele>
      </trkpt>
      <trkpt lat="44.32226" lon="6.85959">
        <time>2023-04-10T11:46:33+00:00</time>
        <ele>1865.0</ele>
      </trkpt>
      <trkpt lat="44.32226" lon="6.85959">
        <time>2023-04-10T11:46:34+00:00</time>
        <ele>1865.0</ele>
      </trkpt>
      <trkpt lat="44.32225" lon="6.85961">
        <time>2023-04-10T11:46:35+00:00</time>
        <ele>1865.0</ele>
      </trkpt>
      <trkpt lat="44.32225" lon="6.85961">
        <time>2023-04-10T11:46:36+00:00</time>
        <ele>1865.0</ele>
      </trkpt>
      <trkpt lat="44.32224" lon="6.85964">
        <time>2023-04-10T11:46:37+00:00</time>
        <ele>1865.0</ele>
      </trkpt>
      <trkpt lat="44.32224" lon="6.85964">
        <time>2023-04-10T11:46:38+00:00</time>
        <ele>1865.0</ele>
      </trkpt>
      <trkpt lat="44.32223" lon="6.85967">
        <time>2023-04-10T11:46:39+00:00</time>
        <ele>1866.0</ele>
      </trkpt>
      <trkpt lat="44.32223" lon="6.85967">
        <time>2023-04-10T11:46:40+00:00</time>
        <ele>1866.0</ele>
      </trkpt>
    </trkseg>
  </trk>
</gpx>
